<?xml version="1.0" encoding="UTF-8" standalone="no" ?>
<gpx xmlns="http://www.topografix.com/GPX/1/1" xmlns:xsi="http://www.w3.org/2001/XMLSchema-instance" xsi:schemaLocation="http://www.topografix.com/GPX/1/1 http://www.topografix.com/GPX/1/1/gpx.xsd" version="1.1" creator="VisuGPX - https://www.visugpx.com">
  <metadata>
    <name>20190917-Humeroeuille-Baisieux</name>
    <desc><![CDATA[2ème jour de notre tour de France]]></desc>
  </metadata>
  <trk>
    <name><![CDATA[Tracé 20190917-090509]]></name>
    <trkseg>
      <trkpt lat="50.40429" lon="2.21259">
        <ele>128.56</ele>
        <time>2019-09-17T07:05:09.001Z</time>
      </trkpt>
      <trkpt lat="50.40432" lon="2.2126">
        <ele>128.463</ele>
        <time>2019-09-17T07:08:21.001Z</time>
      </trkpt>
      <trkpt lat="50.40432" lon="2.2126">
        <ele>128.463</ele>
        <time>2019-09-17T07:08:24.001Z</time>
      </trkpt>
      <trkpt lat="50.40433" lon="2.2126">
        <ele>128.463</ele>
        <time>2019-09-17T07:08:27.001Z</time>
      </trkpt>
      <trkpt lat="50.40433" lon="2.2126">
        <ele>128.463</ele>
        <time>2019-09-17T07:08:30.001Z</time>
      </trkpt>
      <trkpt lat="50.40432" lon="2.21261">
        <ele>127.662</ele>
        <time>2019-09-17T07:12:03.001Z</time>
      </trkpt>
      <trkpt lat="50.40429" lon="2.21264">
        <ele>128.711</ele>
        <time>2019-09-17T07:12:06.001Z</time>
      </trkpt>
      <trkpt lat="50.40424" lon="2.21271">
        <ele>129.17</ele>
        <time>2019-09-17T07:12:09.001Z</time>
      </trkpt>
      <trkpt lat="50.40417" lon="2.21279">
        <ele>130.203</ele>
        <time>2019-09-17T07:12:12.001Z</time>
      </trkpt>
      <trkpt lat="50.40409" lon="2.21284">
        <ele>130.653</ele>
        <time>2019-09-17T07:12:15.001Z</time>
      </trkpt>
      <trkpt lat="50.40403" lon="2.21289">
        <ele>131.189</ele>
        <time>2019-09-17T07:12:18.001Z</time>
      </trkpt>
      <trkpt lat="50.40394" lon="2.21298">
        <ele>131.776</ele>
        <time>2019-09-17T07:12:21.001Z</time>
      </trkpt>
      <trkpt lat="50.40388" lon="2.21308">
        <ele>131.147</ele>
        <time>2019-09-17T07:12:24.001Z</time>
      </trkpt>
      <trkpt lat="50.4039" lon="2.21325">
        <ele>130.243</ele>
        <time>2019-09-17T07:12:27.001Z</time>
      </trkpt>
      <trkpt lat="50.40392" lon="2.21343">
        <ele>129.778</ele>
        <time>2019-09-17T07:12:30.001Z</time>
      </trkpt>
      <trkpt lat="50.40389" lon="2.21361">
        <ele>129.856</ele>
        <time>2019-09-17T07:12:33.001Z</time>
      </trkpt>
      <trkpt lat="50.40383" lon="2.21375">
        <ele>129.835</ele>
        <time>2019-09-17T07:12:36.001Z</time>
      </trkpt>
      <trkpt lat="50.40376" lon="2.21387">
        <ele>129.087</ele>
        <time>2019-09-17T07:12:39.001Z</time>
      </trkpt>
      <trkpt lat="50.40372" lon="2.21405">
        <ele>129.089</ele>
        <time>2019-09-17T07:12:42.001Z</time>
      </trkpt>
      <trkpt lat="50.40372" lon="2.21426">
        <ele>128.469</ele>
        <time>2019-09-17T07:12:45.001Z</time>
      </trkpt>
      <trkpt lat="50.40376" lon="2.21445">
        <ele>127.459</ele>
        <time>2019-09-17T07:12:48.001Z</time>
      </trkpt>
      <trkpt lat="50.4038" lon="2.21464">
        <ele>126.682</ele>
        <time>2019-09-17T07:12:51.001Z</time>
      </trkpt>
      <trkpt lat="50.40382" lon="2.21484">
        <ele>125.712</ele>
        <time>2019-09-17T07:12:54.001Z</time>
      </trkpt>
      <trkpt lat="50.40385" lon="2.21502">
        <ele>124.815</ele>
        <time>2019-09-17T07:12:57.001Z</time>
      </trkpt>
      <trkpt lat="50.4039" lon="2.21521">
        <ele>123.928</ele>
        <time>2019-09-17T07:13:00.000Z</time>
      </trkpt>
      <trkpt lat="50.40393" lon="2.21541">
        <ele>123.635</ele>
        <time>2019-09-17T07:13:03.001Z</time>
      </trkpt>
      <trkpt lat="50.40398" lon="2.21563">
        <ele>124.137</ele>
        <time>2019-09-17T07:13:06.001Z</time>
      </trkpt>
      <trkpt lat="50.40403" lon="2.21585">
        <ele>124.328</ele>
        <time>2019-09-17T07:13:09.001Z</time>
      </trkpt>
      <trkpt lat="50.40408" lon="2.21606">
        <ele>124.497</ele>
        <time>2019-09-17T07:13:12.001Z</time>
      </trkpt>
      <trkpt lat="50.40413" lon="2.21627">
        <ele>124.351</ele>
        <time>2019-09-17T07:13:15.001Z</time>
      </trkpt>
      <trkpt lat="50.40418" lon="2.21647">
        <ele>123.828</ele>
        <time>2019-09-17T07:13:18.001Z</time>
      </trkpt>
      <trkpt lat="50.40423" lon="2.21668">
        <ele>123.478</ele>
        <time>2019-09-17T07:13:21.001Z</time>
      </trkpt>
      <trkpt lat="50.40428" lon="2.2169">
        <ele>123.29</ele>
        <time>2019-09-17T07:13:24.001Z</time>
      </trkpt>
      <trkpt lat="50.40434" lon="2.21709">
        <ele>122.99</ele>
        <time>2019-09-17T07:13:27.001Z</time>
      </trkpt>
      <trkpt lat="50.40441" lon="2.21729">
        <ele>122.377</ele>
        <time>2019-09-17T07:13:30.001Z</time>
      </trkpt>
      <trkpt lat="50.40448" lon="2.21746">
        <ele>122.942</ele>
        <time>2019-09-17T07:13:33.001Z</time>
      </trkpt>
      <trkpt lat="50.40455" lon="2.21763">
        <ele>122.945</ele>
        <time>2019-09-17T07:13:36.001Z</time>
      </trkpt>
      <trkpt lat="50.40463" lon="2.2178">
        <ele>123.375</ele>
        <time>2019-09-17T07:13:39.001Z</time>
      </trkpt>
      <trkpt lat="50.40471" lon="2.21794">
        <ele>123.457</ele>
        <time>2019-09-17T07:13:42.001Z</time>
      </trkpt>
      <trkpt lat="50.40479" lon="2.21808">
        <ele>122.499</ele>
        <time>2019-09-17T07:13:45.001Z</time>
      </trkpt>
      <trkpt lat="50.40487" lon="2.21821">
        <ele>122.272</ele>
        <time>2019-09-17T07:13:48.001Z</time>
      </trkpt>
      <trkpt lat="50.40493" lon="2.21835">
        <ele>122.357</ele>
        <time>2019-09-17T07:13:51.001Z</time>
      </trkpt>
      <trkpt lat="50.40499" lon="2.21849">
        <ele>122.412</ele>
        <time>2019-09-17T07:13:54.001Z</time>
      </trkpt>
      <trkpt lat="50.40505" lon="2.21862">
        <ele>122.965</ele>
        <time>2019-09-17T07:13:57.001Z</time>
      </trkpt>
      <trkpt lat="50.4051" lon="2.21874">
        <ele>123.675</ele>
        <time>2019-09-17T07:14:00.000Z</time>
      </trkpt>
      <trkpt lat="50.40513" lon="2.21886">
        <ele>124.191</ele>
        <time>2019-09-17T07:14:03.001Z</time>
      </trkpt>
      <trkpt lat="50.40517" lon="2.21899">
        <ele>124.737</ele>
        <time>2019-09-17T07:14:06.001Z</time>
      </trkpt>
      <trkpt lat="50.40521" lon="2.21914">
        <ele>124.792</ele>
        <time>2019-09-17T07:14:09.001Z</time>
      </trkpt>
      <trkpt lat="50.40524" lon="2.21928">
        <ele>124.827</ele>
        <time>2019-09-17T07:14:12.001Z</time>
      </trkpt>
      <trkpt lat="50.40527" lon="2.21941">
        <ele>124.603</ele>
        <time>2019-09-17T07:14:15.001Z</time>
      </trkpt>
      <trkpt lat="50.40531" lon="2.21955">
        <ele>124.621</ele>
        <time>2019-09-17T07:14:18.001Z</time>
      </trkpt>
      <trkpt lat="50.40535" lon="2.2197">
        <ele>126.394</ele>
        <time>2019-09-17T07:14:21.001Z</time>
      </trkpt>
      <trkpt lat="50.40538" lon="2.21986">
        <ele>127.217</ele>
        <time>2019-09-17T07:14:24.001Z</time>
      </trkpt>
      <trkpt lat="50.40542" lon="2.21998">
        <ele>127.897</ele>
        <time>2019-09-17T07:14:27.001Z</time>
      </trkpt>
      <trkpt lat="50.40548" lon="2.22011">
        <ele>127.887</ele>
        <time>2019-09-17T07:14:30.001Z</time>
      </trkpt>
      <trkpt lat="50.40554" lon="2.22023">
        <ele>128.489</ele>
        <time>2019-09-17T07:14:33.001Z</time>
      </trkpt>
      <trkpt lat="50.40561" lon="2.22036">
        <ele>128.733</ele>
        <time>2019-09-17T07:14:36.001Z</time>
      </trkpt>
      <trkpt lat="50.40569" lon="2.22046">
        <ele>129.46</ele>
        <time>2019-09-17T07:14:39.001Z</time>
      </trkpt>
      <trkpt lat="50.40578" lon="2.22055">
        <ele>129.338</ele>
        <time>2019-09-17T07:14:42.001Z</time>
      </trkpt>
      <trkpt lat="50.40588" lon="2.22059">
        <ele>128.992</ele>
        <time>2019-09-17T07:14:45.001Z</time>
      </trkpt>
      <trkpt lat="50.40597" lon="2.22059">
        <ele>129.434</ele>
        <time>2019-09-17T07:14:48.001Z</time>
      </trkpt>
      <trkpt lat="50.40605" lon="2.22056">
        <ele>129.912</ele>
        <time>2019-09-17T07:14:51.001Z</time>
      </trkpt>
      <trkpt lat="50.40612" lon="2.22054">
        <ele>130.243</ele>
        <time>2019-09-17T07:14:54.001Z</time>
      </trkpt>
      <trkpt lat="50.40621" lon="2.22052">
        <ele>130.414</ele>
        <time>2019-09-17T07:14:57.001Z</time>
      </trkpt>
      <trkpt lat="50.40629" lon="2.22049">
        <ele>130.671</ele>
        <time>2019-09-17T07:15:00.000Z</time>
      </trkpt>
      <trkpt lat="50.40638" lon="2.22046">
        <ele>130.969</ele>
        <time>2019-09-17T07:15:03.001Z</time>
      </trkpt>
      <trkpt lat="50.40648" lon="2.22044">
        <ele>131.589</ele>
        <time>2019-09-17T07:15:06.001Z</time>
      </trkpt>
      <trkpt lat="50.4066" lon="2.22043">
        <ele>132.529</ele>
        <time>2019-09-17T07:15:09.001Z</time>
      </trkpt>
      <trkpt lat="50.40672" lon="2.22044">
        <ele>132.836</ele>
        <time>2019-09-17T07:15:12.001Z</time>
      </trkpt>
      <trkpt lat="50.40683" lon="2.22046">
        <ele>133.303</ele>
        <time>2019-09-17T07:15:15.001Z</time>
      </trkpt>
      <trkpt lat="50.40694" lon="2.22049">
        <ele>132.631</ele>
        <time>2019-09-17T07:15:18.001Z</time>
      </trkpt>
      <trkpt lat="50.40705" lon="2.22052">
        <ele>131.768</ele>
        <time>2019-09-17T07:15:21.001Z</time>
      </trkpt>
      <trkpt lat="50.40717" lon="2.22057">
        <ele>131.035</ele>
        <time>2019-09-17T07:15:24.001Z</time>
      </trkpt>
      <trkpt lat="50.40729" lon="2.22062">
        <ele>130.257</ele>
        <time>2019-09-17T07:15:27.001Z</time>
      </trkpt>
      <trkpt lat="50.4074" lon="2.22068">
        <ele>129.7</ele>
        <time>2019-09-17T07:15:30.001Z</time>
      </trkpt>
      <trkpt lat="50.40752" lon="2.22074">
        <ele>129.331</ele>
        <time>2019-09-17T07:15:33.001Z</time>
      </trkpt>
      <trkpt lat="50.40763" lon="2.2208">
        <ele>129.242</ele>
        <time>2019-09-17T07:15:36.001Z</time>
      </trkpt>
      <trkpt lat="50.40774" lon="2.22087">
        <ele>129.183</ele>
        <time>2019-09-17T07:15:39.001Z</time>
      </trkpt>
      <trkpt lat="50.40785" lon="2.22094">
        <ele>129.152</ele>
        <time>2019-09-17T07:15:42.001Z</time>
      </trkpt>
      <trkpt lat="50.40797" lon="2.22101">
        <ele>129.555</ele>
        <time>2019-09-17T07:15:45.001Z</time>
      </trkpt>
      <trkpt lat="50.40808" lon="2.22108">
        <ele>129.393</ele>
        <time>2019-09-17T07:15:48.001Z</time>
      </trkpt>
      <trkpt lat="50.40819" lon="2.22115">
        <ele>129.563</ele>
        <time>2019-09-17T07:15:51.001Z</time>
      </trkpt>
      <trkpt lat="50.40829" lon="2.22123">
        <ele>129.715</ele>
        <time>2019-09-17T07:15:54.001Z</time>
      </trkpt>
      <trkpt lat="50.4084" lon="2.22132">
        <ele>129.549</ele>
        <time>2019-09-17T07:15:57.001Z</time>
      </trkpt>
      <trkpt lat="50.40851" lon="2.2214">
        <ele>129.372</ele>
        <time>2019-09-17T07:16:00.000Z</time>
      </trkpt>
      <trkpt lat="50.4086" lon="2.22149">
        <ele>129.553</ele>
        <time>2019-09-17T07:16:03.001Z</time>
      </trkpt>
      <trkpt lat="50.4087" lon="2.22157">
        <ele>129.911</ele>
        <time>2019-09-17T07:16:06.001Z</time>
      </trkpt>
      <trkpt lat="50.40879" lon="2.22167">
        <ele>130.085</ele>
        <time>2019-09-17T07:16:09.001Z</time>
      </trkpt>
      <trkpt lat="50.40889" lon="2.22179">
        <ele>130.225</ele>
        <time>2019-09-17T07:16:12.001Z</time>
      </trkpt>
      <trkpt lat="50.40895" lon="2.22195">
        <ele>130.462</ele>
        <time>2019-09-17T07:16:15.001Z</time>
      </trkpt>
      <trkpt lat="50.409" lon="2.22211">
        <ele>130.741</ele>
        <time>2019-09-17T07:16:18.001Z</time>
      </trkpt>
      <trkpt lat="50.40903" lon="2.22226">
        <ele>130.456</ele>
        <time>2019-09-17T07:16:21.001Z</time>
      </trkpt>
      <trkpt lat="50.40901" lon="2.22245">
        <ele>130.002</ele>
        <time>2019-09-17T07:16:24.001Z</time>
      </trkpt>
      <trkpt lat="50.40897" lon="2.22263">
        <ele>130.116</ele>
        <time>2019-09-17T07:16:27.001Z</time>
      </trkpt>
      <trkpt lat="50.40893" lon="2.22278">
        <ele>130.21</ele>
        <time>2019-09-17T07:16:30.001Z</time>
      </trkpt>
      <trkpt lat="50.40888" lon="2.22294">
        <ele>130.461</ele>
        <time>2019-09-17T07:16:33.001Z</time>
      </trkpt>
      <trkpt lat="50.40884" lon="2.22312">
        <ele>130.882</ele>
        <time>2019-09-17T07:16:36.001Z</time>
      </trkpt>
      <trkpt lat="50.4088" lon="2.22329">
        <ele>131.177</ele>
        <time>2019-09-17T07:16:39.001Z</time>
      </trkpt>
      <trkpt lat="50.40873" lon="2.22346">
        <ele>131.591</ele>
        <time>2019-09-17T07:16:42.001Z</time>
      </trkpt>
      <trkpt lat="50.40865" lon="2.22365">
        <ele>132.151</ele>
        <time>2019-09-17T07:16:45.001Z</time>
      </trkpt>
      <trkpt lat="50.40859" lon="2.22383">
        <ele>133.814</ele>
        <time>2019-09-17T07:16:48.001Z</time>
      </trkpt>
      <trkpt lat="50.40853" lon="2.224">
        <ele>133.911</ele>
        <time>2019-09-17T07:16:51.001Z</time>
      </trkpt>
      <trkpt lat="50.40847" lon="2.22418">
        <ele>133.762</ele>
        <time>2019-09-17T07:16:54.001Z</time>
      </trkpt>
      <trkpt lat="50.4084" lon="2.22436">
        <ele>134.441</ele>
        <time>2019-09-17T07:16:57.001Z</time>
      </trkpt>
      <trkpt lat="50.40833" lon="2.22452">
        <ele>135.67</ele>
        <time>2019-09-17T07:17:00.000Z</time>
      </trkpt>
      <trkpt lat="50.40827" lon="2.22471">
        <ele>136.035</ele>
        <time>2019-09-17T07:17:03.001Z</time>
      </trkpt>
      <trkpt lat="50.4082" lon="2.2249">
        <ele>136.432</ele>
        <time>2019-09-17T07:17:06.001Z</time>
      </trkpt>
      <trkpt lat="50.40813" lon="2.22508">
        <ele>137.398</ele>
        <time>2019-09-17T07:17:09.001Z</time>
      </trkpt>
      <trkpt lat="50.40807" lon="2.22528">
        <ele>138.14</ele>
        <time>2019-09-17T07:17:12.001Z</time>
      </trkpt>
      <trkpt lat="50.40801" lon="2.22546">
        <ele>138.317</ele>
        <time>2019-09-17T07:17:15.001Z</time>
      </trkpt>
      <trkpt lat="50.40795" lon="2.22567">
        <ele>138.192</ele>
        <time>2019-09-17T07:17:18.001Z</time>
      </trkpt>
      <trkpt lat="50.4079" lon="2.22588">
        <ele>137.85</ele>
        <time>2019-09-17T07:17:21.001Z</time>
      </trkpt>
      <trkpt lat="50.40785" lon="2.22608">
        <ele>137.662</ele>
        <time>2019-09-17T07:17:24.001Z</time>
      </trkpt>
      <trkpt lat="50.40782" lon="2.22629">
        <ele>137.036</ele>
        <time>2019-09-17T07:17:27.001Z</time>
      </trkpt>
      <trkpt lat="50.40779" lon="2.22648">
        <ele>136.49</ele>
        <time>2019-09-17T07:17:30.001Z</time>
      </trkpt>
      <trkpt lat="50.40775" lon="2.22667">
        <ele>136.297</ele>
        <time>2019-09-17T07:17:33.001Z</time>
      </trkpt>
      <trkpt lat="50.40769" lon="2.22687">
        <ele>136.498</ele>
        <time>2019-09-17T07:17:36.001Z</time>
      </trkpt>
      <trkpt lat="50.40764" lon="2.22706">
        <ele>137.046</ele>
        <time>2019-09-17T07:17:39.001Z</time>
      </trkpt>
      <trkpt lat="50.40759" lon="2.22725">
        <ele>136.547</ele>
        <time>2019-09-17T07:17:42.001Z</time>
      </trkpt>
      <trkpt lat="50.40755" lon="2.22744">
        <ele>136.459</ele>
        <time>2019-09-17T07:17:45.001Z</time>
      </trkpt>
      <trkpt lat="50.40751" lon="2.22763">
        <ele>136.592</ele>
        <time>2019-09-17T07:17:48.001Z</time>
      </trkpt>
      <trkpt lat="50.40747" lon="2.22782">
        <ele>136.105</ele>
        <time>2019-09-17T07:17:51.001Z</time>
      </trkpt>
      <trkpt lat="50.40743" lon="2.22801">
        <ele>136.95</ele>
        <time>2019-09-17T07:17:54.001Z</time>
      </trkpt>
      <trkpt lat="50.40738" lon="2.22818">
        <ele>138.039</ele>
        <time>2019-09-17T07:17:57.001Z</time>
      </trkpt>
      <trkpt lat="50.40733" lon="2.22834">
        <ele>138.408</ele>
        <time>2019-09-17T07:18:00.000Z</time>
      </trkpt>
      <trkpt lat="50.40729" lon="2.22847">
        <ele>139.462</ele>
        <time>2019-09-17T07:18:03.001Z</time>
      </trkpt>
      <trkpt lat="50.40725" lon="2.22859">
        <ele>139.592</ele>
        <time>2019-09-17T07:18:06.001Z</time>
      </trkpt>
      <trkpt lat="50.40722" lon="2.22873">
        <ele>139.896</ele>
        <time>2019-09-17T07:18:09.001Z</time>
      </trkpt>
      <trkpt lat="50.40718" lon="2.22887">
        <ele>139.891</ele>
        <time>2019-09-17T07:18:12.001Z</time>
      </trkpt>
      <trkpt lat="50.40711" lon="2.22902">
        <ele>139.538</ele>
        <time>2019-09-17T07:18:15.001Z</time>
      </trkpt>
      <trkpt lat="50.40703" lon="2.22919">
        <ele>138.865</ele>
        <time>2019-09-17T07:18:18.001Z</time>
      </trkpt>
      <trkpt lat="50.40695" lon="2.22937">
        <ele>139.049</ele>
        <time>2019-09-17T07:18:21.001Z</time>
      </trkpt>
      <trkpt lat="50.40687" lon="2.22953">
        <ele>139.014</ele>
        <time>2019-09-17T07:18:24.001Z</time>
      </trkpt>
      <trkpt lat="50.40679" lon="2.2297">
        <ele>138.772</ele>
        <time>2019-09-17T07:18:27.001Z</time>
      </trkpt>
      <trkpt lat="50.40672" lon="2.22988">
        <ele>137.196</ele>
        <time>2019-09-17T07:18:30.001Z</time>
      </trkpt>
      <trkpt lat="50.40664" lon="2.23006">
        <ele>136.889</ele>
        <time>2019-09-17T07:18:33.001Z</time>
      </trkpt>
      <trkpt lat="50.40657" lon="2.23024">
        <ele>136.738</ele>
        <time>2019-09-17T07:18:36.001Z</time>
      </trkpt>
      <trkpt lat="50.40651" lon="2.23042">
        <ele>136.436</ele>
        <time>2019-09-17T07:18:39.001Z</time>
      </trkpt>
      <trkpt lat="50.40644" lon="2.23062">
        <ele>136.722</ele>
        <time>2019-09-17T07:18:42.001Z</time>
      </trkpt>
      <trkpt lat="50.40638" lon="2.23082">
        <ele>136.998</ele>
        <time>2019-09-17T07:18:45.001Z</time>
      </trkpt>
      <trkpt lat="50.40634" lon="2.23102">
        <ele>137.394</ele>
        <time>2019-09-17T07:18:48.001Z</time>
      </trkpt>
      <trkpt lat="50.40631" lon="2.23121">
        <ele>138.285</ele>
        <time>2019-09-17T07:18:51.001Z</time>
      </trkpt>
      <trkpt lat="50.40632" lon="2.23141">
        <ele>138.735</ele>
        <time>2019-09-17T07:18:54.001Z</time>
      </trkpt>
      <trkpt lat="50.40635" lon="2.2316">
        <ele>139.119</ele>
        <time>2019-09-17T07:18:57.001Z</time>
      </trkpt>
      <trkpt lat="50.40637" lon="2.23181">
        <ele>138.41</ele>
        <time>2019-09-17T07:19:00.000Z</time>
      </trkpt>
      <trkpt lat="50.4064" lon="2.23202">
        <ele>137.293</ele>
        <time>2019-09-17T07:19:03.001Z</time>
      </trkpt>
      <trkpt lat="50.40643" lon="2.23225">
        <ele>136.442</ele>
        <time>2019-09-17T07:19:06.001Z</time>
      </trkpt>
      <trkpt lat="50.40647" lon="2.23248">
        <ele>136.443</ele>
        <time>2019-09-17T07:19:09.001Z</time>
      </trkpt>
      <trkpt lat="50.40652" lon="2.23272">
        <ele>136.631</ele>
        <time>2019-09-17T07:19:12.001Z</time>
      </trkpt>
      <trkpt lat="50.40656" lon="2.23296">
        <ele>136.631</ele>
        <time>2019-09-17T07:19:15.001Z</time>
      </trkpt>
      <trkpt lat="50.40659" lon="2.2332">
        <ele>136.481</ele>
        <time>2019-09-17T07:19:18.001Z</time>
      </trkpt>
      <trkpt lat="50.40664" lon="2.23345">
        <ele>136.794</ele>
        <time>2019-09-17T07:19:21.001Z</time>
      </trkpt>
      <trkpt lat="50.40667" lon="2.23371">
        <ele>137.226</ele>
        <time>2019-09-17T07:19:24.001Z</time>
      </trkpt>
      <trkpt lat="50.40664" lon="2.23397">
        <ele>137.714</ele>
        <time>2019-09-17T07:19:27.001Z</time>
      </trkpt>
      <trkpt lat="50.40659" lon="2.23423">
        <ele>138.204</ele>
        <time>2019-09-17T07:19:30.001Z</time>
      </trkpt>
      <trkpt lat="50.40652" lon="2.23447">
        <ele>139.22</ele>
        <time>2019-09-17T07:19:33.001Z</time>
      </trkpt>
      <trkpt lat="50.40646" lon="2.23472">
        <ele>139.754</ele>
        <time>2019-09-17T07:19:36.001Z</time>
      </trkpt>
      <trkpt lat="50.40641" lon="2.23496">
        <ele>140.251</ele>
        <time>2019-09-17T07:19:39.001Z</time>
      </trkpt>
      <trkpt lat="50.40634" lon="2.23521">
        <ele>141.074</ele>
        <time>2019-09-17T07:19:42.001Z</time>
      </trkpt>
      <trkpt lat="50.40624" lon="2.23546">
        <ele>141.286</ele>
        <time>2019-09-17T07:19:45.001Z</time>
      </trkpt>
      <trkpt lat="50.40613" lon="2.2357">
        <ele>141.431</ele>
        <time>2019-09-17T07:19:48.001Z</time>
      </trkpt>
      <trkpt lat="50.40602" lon="2.23595">
        <ele>140.761</ele>
        <time>2019-09-17T07:19:51.001Z</time>
      </trkpt>
      <trkpt lat="50.40593" lon="2.23628">
        <ele>139.454</ele>
        <time>2019-09-17T07:19:54.001Z</time>
      </trkpt>
      <trkpt lat="50.4059" lon="2.23663">
        <ele>137.709</ele>
        <time>2019-09-17T07:19:57.001Z</time>
      </trkpt>
      <trkpt lat="50.40589" lon="2.23698">
        <ele>136.215</ele>
        <time>2019-09-17T07:20:00.000Z</time>
      </trkpt>
      <trkpt lat="50.40589" lon="2.23732">
        <ele>135.35</ele>
        <time>2019-09-17T07:20:03.001Z</time>
      </trkpt>
      <trkpt lat="50.40588" lon="2.23765">
        <ele>134.353</ele>
        <time>2019-09-17T07:20:06.001Z</time>
      </trkpt>
      <trkpt lat="50.40587" lon="2.23794">
        <ele>133.884</ele>
        <time>2019-09-17T07:20:09.001Z</time>
      </trkpt>
      <trkpt lat="50.40584" lon="2.23821">
        <ele>133.734</ele>
        <time>2019-09-17T07:20:12.001Z</time>
      </trkpt>
      <trkpt lat="50.40581" lon="2.23848">
        <ele>133.651</ele>
        <time>2019-09-17T07:20:15.001Z</time>
      </trkpt>
      <trkpt lat="50.40577" lon="2.23872">
        <ele>133.475</ele>
        <time>2019-09-17T07:20:18.001Z</time>
      </trkpt>
      <trkpt lat="50.40575" lon="2.23895">
        <ele>132.954</ele>
        <time>2019-09-17T07:20:21.001Z</time>
      </trkpt>
      <trkpt lat="50.40572" lon="2.23916">
        <ele>132.714</ele>
        <time>2019-09-17T07:20:24.001Z</time>
      </trkpt>
      <trkpt lat="50.40569" lon="2.23936">
        <ele>132.423</ele>
        <time>2019-09-17T07:20:27.001Z</time>
      </trkpt>
      <trkpt lat="50.40566" lon="2.23954">
        <ele>132.199</ele>
        <time>2019-09-17T07:20:30.001Z</time>
      </trkpt>
      <trkpt lat="50.40563" lon="2.23972">
        <ele>132.408</ele>
        <time>2019-09-17T07:20:33.001Z</time>
      </trkpt>
      <trkpt lat="50.4056" lon="2.2399">
        <ele>132.763</ele>
        <time>2019-09-17T07:20:36.001Z</time>
      </trkpt>
      <trkpt lat="50.40558" lon="2.24008">
        <ele>132.777</ele>
        <time>2019-09-17T07:20:39.001Z</time>
      </trkpt>
      <trkpt lat="50.40555" lon="2.24026">
        <ele>132.517</ele>
        <time>2019-09-17T07:20:42.001Z</time>
      </trkpt>
      <trkpt lat="50.40554" lon="2.24044">
        <ele>132.579</ele>
        <time>2019-09-17T07:20:45.001Z</time>
      </trkpt>
      <trkpt lat="50.40551" lon="2.24063">
        <ele>132.939</ele>
        <time>2019-09-17T07:20:48.001Z</time>
      </trkpt>
      <trkpt lat="50.40549" lon="2.24081">
        <ele>133.747</ele>
        <time>2019-09-17T07:20:51.001Z</time>
      </trkpt>
      <trkpt lat="50.40547" lon="2.24099">
        <ele>134.235</ele>
        <time>2019-09-17T07:20:54.001Z</time>
      </trkpt>
      <trkpt lat="50.40545" lon="2.24116">
        <ele>134.686</ele>
        <time>2019-09-17T07:20:57.001Z</time>
      </trkpt>
      <trkpt lat="50.40543" lon="2.24134">
        <ele>135.474</ele>
        <time>2019-09-17T07:21:00.000Z</time>
      </trkpt>
      <trkpt lat="50.40542" lon="2.24152">
        <ele>136.091</ele>
        <time>2019-09-17T07:21:03.001Z</time>
      </trkpt>
      <trkpt lat="50.4054" lon="2.24168">
        <ele>136.518</ele>
        <time>2019-09-17T07:21:06.001Z</time>
      </trkpt>
      <trkpt lat="50.40537" lon="2.24184">
        <ele>137.572</ele>
        <time>2019-09-17T07:21:09.001Z</time>
      </trkpt>
      <trkpt lat="50.40535" lon="2.24201">
        <ele>138.694</ele>
        <time>2019-09-17T07:21:12.001Z</time>
      </trkpt>
      <trkpt lat="50.40532" lon="2.24219">
        <ele>139.781</ele>
        <time>2019-09-17T07:21:15.001Z</time>
      </trkpt>
      <trkpt lat="50.40528" lon="2.24237">
        <ele>140.712</ele>
        <time>2019-09-17T07:21:18.001Z</time>
      </trkpt>
      <trkpt lat="50.40524" lon="2.24256">
        <ele>141.383</ele>
        <time>2019-09-17T07:21:21.001Z</time>
      </trkpt>
      <trkpt lat="50.40521" lon="2.24275">
        <ele>141.313</ele>
        <time>2019-09-17T07:21:24.001Z</time>
      </trkpt>
      <trkpt lat="50.40517" lon="2.24294">
        <ele>141.359</ele>
        <time>2019-09-17T07:21:27.001Z</time>
      </trkpt>
      <trkpt lat="50.40512" lon="2.24313">
        <ele>141.374</ele>
        <time>2019-09-17T07:21:30.001Z</time>
      </trkpt>
      <trkpt lat="50.40507" lon="2.24332">
        <ele>141.538</ele>
        <time>2019-09-17T07:21:33.001Z</time>
      </trkpt>
      <trkpt lat="50.40503" lon="2.24351">
        <ele>141.774</ele>
        <time>2019-09-17T07:21:36.001Z</time>
      </trkpt>
      <trkpt lat="50.40498" lon="2.24372">
        <ele>141.435</ele>
        <time>2019-09-17T07:21:39.001Z</time>
      </trkpt>
      <trkpt lat="50.40494" lon="2.24393">
        <ele>141.665</ele>
        <time>2019-09-17T07:21:42.001Z</time>
      </trkpt>
      <trkpt lat="50.40489" lon="2.24414">
        <ele>141.352</ele>
        <time>2019-09-17T07:21:45.001Z</time>
      </trkpt>
      <trkpt lat="50.40484" lon="2.24438">
        <ele>140.803</ele>
        <time>2019-09-17T07:21:48.001Z</time>
      </trkpt>
      <trkpt lat="50.40479" lon="2.24462">
        <ele>140.486</ele>
        <time>2019-09-17T07:21:51.001Z</time>
      </trkpt>
      <trkpt lat="50.40474" lon="2.24486">
        <ele>141.122</ele>
        <time>2019-09-17T07:21:54.001Z</time>
      </trkpt>
      <trkpt lat="50.40468" lon="2.2451">
        <ele>141.147</ele>
        <time>2019-09-17T07:21:57.001Z</time>
      </trkpt>
      <trkpt lat="50.40463" lon="2.24535">
        <ele>140.84</ele>
        <time>2019-09-17T07:22:00.000Z</time>
      </trkpt>
      <trkpt lat="50.40458" lon="2.2456">
        <ele>140.646</ele>
        <time>2019-09-17T07:22:03.001Z</time>
      </trkpt>
      <trkpt lat="50.40452" lon="2.24585">
        <ele>140.541</ele>
        <time>2019-09-17T07:22:06.001Z</time>
      </trkpt>
      <trkpt lat="50.40449" lon="2.24611">
        <ele>139.947</ele>
        <time>2019-09-17T07:22:09.001Z</time>
      </trkpt>
      <trkpt lat="50.40447" lon="2.24637">
        <ele>138.91</ele>
        <time>2019-09-17T07:22:12.001Z</time>
      </trkpt>
      <trkpt lat="50.40448" lon="2.24663">
        <ele>138.24</ele>
        <time>2019-09-17T07:22:15.001Z</time>
      </trkpt>
      <trkpt lat="50.4045" lon="2.24689">
        <ele>138.11</ele>
        <time>2019-09-17T07:22:18.001Z</time>
      </trkpt>
      <trkpt lat="50.40454" lon="2.24715">
        <ele>137.71</ele>
        <time>2019-09-17T07:22:21.001Z</time>
      </trkpt>
      <trkpt lat="50.40457" lon="2.24742">
        <ele>137.135</ele>
        <time>2019-09-17T07:22:24.001Z</time>
      </trkpt>
      <trkpt lat="50.40461" lon="2.24769">
        <ele>136.992</ele>
        <time>2019-09-17T07:22:27.001Z</time>
      </trkpt>
      <trkpt lat="50.40465" lon="2.24796">
        <ele>136.762</ele>
        <time>2019-09-17T07:22:30.001Z</time>
      </trkpt>
      <trkpt lat="50.4047" lon="2.24823">
        <ele>135.952</ele>
        <time>2019-09-17T07:22:33.001Z</time>
      </trkpt>
      <trkpt lat="50.40474" lon="2.24851">
        <ele>135.669</ele>
        <time>2019-09-17T07:22:36.001Z</time>
      </trkpt>
      <trkpt lat="50.40478" lon="2.24878">
        <ele>135.422</ele>
        <time>2019-09-17T07:22:39.001Z</time>
      </trkpt>
      <trkpt lat="50.40481" lon="2.24906">
        <ele>135.416</ele>
        <time>2019-09-17T07:22:42.001Z</time>
      </trkpt>
      <trkpt lat="50.40481" lon="2.24934">
        <ele>134.787</ele>
        <time>2019-09-17T07:22:45.001Z</time>
      </trkpt>
      <trkpt lat="50.40481" lon="2.24964">
        <ele>134.031</ele>
        <time>2019-09-17T07:22:48.001Z</time>
      </trkpt>
      <trkpt lat="50.40479" lon="2.24993">
        <ele>133.454</ele>
        <time>2019-09-17T07:22:51.001Z</time>
      </trkpt>
      <trkpt lat="50.40477" lon="2.25022">
        <ele>133.287</ele>
        <time>2019-09-17T07:22:54.001Z</time>
      </trkpt>
      <trkpt lat="50.40476" lon="2.2505">
        <ele>132.885</ele>
        <time>2019-09-17T07:22:57.001Z</time>
      </trkpt>
      <trkpt lat="50.40475" lon="2.25078">
        <ele>132.385</ele>
        <time>2019-09-17T07:23:00.000Z</time>
      </trkpt>
      <trkpt lat="50.40473" lon="2.25105">
        <ele>132.215</ele>
        <time>2019-09-17T07:23:03.001Z</time>
      </trkpt>
      <trkpt lat="50.40473" lon="2.25132">
        <ele>132.284</ele>
        <time>2019-09-17T07:23:06.001Z</time>
      </trkpt>
      <trkpt lat="50.40472" lon="2.25161">
        <ele>132.317</ele>
        <time>2019-09-17T07:23:09.001Z</time>
      </trkpt>
      <trkpt lat="50.4047" lon="2.25191">
        <ele>132.503</ele>
        <time>2019-09-17T07:23:12.001Z</time>
      </trkpt>
      <trkpt lat="50.40468" lon="2.25218">
        <ele>132.696</ele>
        <time>2019-09-17T07:23:15.001Z</time>
      </trkpt>
      <trkpt lat="50.40466" lon="2.25244">
        <ele>132.821</ele>
        <time>2019-09-17T07:23:18.001Z</time>
      </trkpt>
      <trkpt lat="50.40466" lon="2.25273">
        <ele>132.783</ele>
        <time>2019-09-17T07:23:21.001Z</time>
      </trkpt>
      <trkpt lat="50.40468" lon="2.25298">
        <ele>132.034</ele>
        <time>2019-09-17T07:23:24.001Z</time>
      </trkpt>
      <trkpt lat="50.40473" lon="2.25325">
        <ele>131.449</ele>
        <time>2019-09-17T07:23:27.001Z</time>
      </trkpt>
      <trkpt lat="50.4048" lon="2.25354">
        <ele>131.56</ele>
        <time>2019-09-17T07:23:30.001Z</time>
      </trkpt>
      <trkpt lat="50.40489" lon="2.25383">
        <ele>132.267</ele>
        <time>2019-09-17T07:23:33.001Z</time>
      </trkpt>
      <trkpt lat="50.40497" lon="2.25412">
        <ele>132.492</ele>
        <time>2019-09-17T07:23:36.001Z</time>
      </trkpt>
      <trkpt lat="50.40507" lon="2.25443">
        <ele>132.385</ele>
        <time>2019-09-17T07:23:39.001Z</time>
      </trkpt>
      <trkpt lat="50.4052" lon="2.25474">
        <ele>131.461</ele>
        <time>2019-09-17T07:23:42.001Z</time>
      </trkpt>
      <trkpt lat="50.40532" lon="2.25502">
        <ele>131.34</ele>
        <time>2019-09-17T07:23:45.001Z</time>
      </trkpt>
      <trkpt lat="50.40544" lon="2.25527">
        <ele>130.17</ele>
        <time>2019-09-17T07:23:48.001Z</time>
      </trkpt>
      <trkpt lat="50.40556" lon="2.25553">
        <ele>129.582</ele>
        <time>2019-09-17T07:23:51.001Z</time>
      </trkpt>
      <trkpt lat="50.40567" lon="2.25582">
        <ele>129.722</ele>
        <time>2019-09-17T07:23:54.001Z</time>
      </trkpt>
      <trkpt lat="50.40577" lon="2.25614">
        <ele>129.464</ele>
        <time>2019-09-17T07:23:57.001Z</time>
      </trkpt>
      <trkpt lat="50.4059" lon="2.25646">
        <ele>129.108</ele>
        <time>2019-09-17T07:24:00.000Z</time>
      </trkpt>
      <trkpt lat="50.40606" lon="2.25676">
        <ele>128.634</ele>
        <time>2019-09-17T07:24:03.001Z</time>
      </trkpt>
      <trkpt lat="50.40624" lon="2.25704">
        <ele>127.906</ele>
        <time>2019-09-17T07:24:06.001Z</time>
      </trkpt>
      <trkpt lat="50.40645" lon="2.25736">
        <ele>127.277</ele>
        <time>2019-09-17T07:24:09.001Z</time>
      </trkpt>
      <trkpt lat="50.40666" lon="2.2577">
        <ele>126.87</ele>
        <time>2019-09-17T07:24:12.001Z</time>
      </trkpt>
      <trkpt lat="50.40686" lon="2.25809">
        <ele>125.054</ele>
        <time>2019-09-17T07:24:15.001Z</time>
      </trkpt>
      <trkpt lat="50.40703" lon="2.25852">
        <ele>123.978</ele>
        <time>2019-09-17T07:24:18.001Z</time>
      </trkpt>
      <trkpt lat="50.40721" lon="2.25895">
        <ele>122.358</ele>
        <time>2019-09-17T07:24:21.001Z</time>
      </trkpt>
      <trkpt lat="50.40734" lon="2.25937">
        <ele>119.843</ele>
        <time>2019-09-17T07:24:24.001Z</time>
      </trkpt>
      <trkpt lat="50.40741" lon="2.25986">
        <ele>117.088</ele>
        <time>2019-09-17T07:24:27.001Z</time>
      </trkpt>
      <trkpt lat="50.40748" lon="2.26034">
        <ele>115.017</ele>
        <time>2019-09-17T07:24:30.001Z</time>
      </trkpt>
      <trkpt lat="50.40754" lon="2.2608">
        <ele>112.969</ele>
        <time>2019-09-17T07:24:33.001Z</time>
      </trkpt>
      <trkpt lat="50.40762" lon="2.26126">
        <ele>111.097</ele>
        <time>2019-09-17T07:24:36.001Z</time>
      </trkpt>
      <trkpt lat="50.4077" lon="2.26171">
        <ele>109.194</ele>
        <time>2019-09-17T07:24:39.001Z</time>
      </trkpt>
      <trkpt lat="50.40777" lon="2.26215">
        <ele>107.142</ele>
        <time>2019-09-17T07:24:42.001Z</time>
      </trkpt>
      <trkpt lat="50.40782" lon="2.2626">
        <ele>105.653</ele>
        <time>2019-09-17T07:24:45.001Z</time>
      </trkpt>
      <trkpt lat="50.40784" lon="2.26305">
        <ele>104.874</ele>
        <time>2019-09-17T07:24:48.001Z</time>
      </trkpt>
      <trkpt lat="50.40785" lon="2.26351">
        <ele>104.015</ele>
        <time>2019-09-17T07:24:51.001Z</time>
      </trkpt>
      <trkpt lat="50.40788" lon="2.26394">
        <ele>103.364</ele>
        <time>2019-09-17T07:24:54.001Z</time>
      </trkpt>
      <trkpt lat="50.40797" lon="2.26435">
        <ele>102.754</ele>
        <time>2019-09-17T07:24:57.001Z</time>
      </trkpt>
      <trkpt lat="50.40809" lon="2.26473">
        <ele>102.066</ele>
        <time>2019-09-17T07:25:00.000Z</time>
      </trkpt>
      <trkpt lat="50.40818" lon="2.26508">
        <ele>101.418</ele>
        <time>2019-09-17T07:25:03.001Z</time>
      </trkpt>
      <trkpt lat="50.40821" lon="2.26544">
        <ele>100.832</ele>
        <time>2019-09-17T07:25:06.001Z</time>
      </trkpt>
      <trkpt lat="50.4082" lon="2.26587">
        <ele>99.678</ele>
        <time>2019-09-17T07:25:09.001Z</time>
      </trkpt>
      <trkpt lat="50.40818" lon="2.26631">
        <ele>99.099</ele>
        <time>2019-09-17T07:25:12.001Z</time>
      </trkpt>
      <trkpt lat="50.40819" lon="2.26678">
        <ele>98.882</ele>
        <time>2019-09-17T07:25:15.001Z</time>
      </trkpt>
      <trkpt lat="50.40819" lon="2.26723">
        <ele>98.559</ele>
        <time>2019-09-17T07:25:18.001Z</time>
      </trkpt>
      <trkpt lat="50.40817" lon="2.26763">
        <ele>98.306</ele>
        <time>2019-09-17T07:25:21.001Z</time>
      </trkpt>
      <trkpt lat="50.40813" lon="2.26798">
        <ele>96.974</ele>
        <time>2019-09-17T07:25:24.001Z</time>
      </trkpt>
      <trkpt lat="50.4081" lon="2.26824">
        <ele>96.427</ele>
        <time>2019-09-17T07:25:27.001Z</time>
      </trkpt>
      <trkpt lat="50.4081" lon="2.26844">
        <ele>95.853</ele>
        <time>2019-09-17T07:25:30.001Z</time>
      </trkpt>
      <trkpt lat="50.40811" lon="2.26856">
        <ele>95.683</ele>
        <time>2019-09-17T07:25:33.001Z</time>
      </trkpt>
      <trkpt lat="50.40814" lon="2.26865">
        <ele>95.327</ele>
        <time>2019-09-17T07:25:36.001Z</time>
      </trkpt>
      <trkpt lat="50.40818" lon="2.26874">
        <ele>94.948</ele>
        <time>2019-09-17T07:25:39.001Z</time>
      </trkpt>
      <trkpt lat="50.40822" lon="2.26884">
        <ele>95.079</ele>
        <time>2019-09-17T07:25:42.001Z</time>
      </trkpt>
      <trkpt lat="50.40828" lon="2.26893">
        <ele>95.836</ele>
        <time>2019-09-17T07:25:45.001Z</time>
      </trkpt>
      <trkpt lat="50.40833" lon="2.269">
        <ele>97.124</ele>
        <time>2019-09-17T07:25:48.001Z</time>
      </trkpt>
      <trkpt lat="50.40839" lon="2.26905">
        <ele>98.317</ele>
        <time>2019-09-17T07:25:51.001Z</time>
      </trkpt>
      <trkpt lat="50.40845" lon="2.26908">
        <ele>99.625</ele>
        <time>2019-09-17T07:25:54.001Z</time>
      </trkpt>
      <trkpt lat="50.40851" lon="2.2691">
        <ele>100.592</ele>
        <time>2019-09-17T07:25:57.001Z</time>
      </trkpt>
      <trkpt lat="50.40859" lon="2.26914">
        <ele>100.895</ele>
        <time>2019-09-17T07:26:00.000Z</time>
      </trkpt>
      <trkpt lat="50.40866" lon="2.26921">
        <ele>101.175</ele>
        <time>2019-09-17T07:26:03.001Z</time>
      </trkpt>
      <trkpt lat="50.40872" lon="2.26928">
        <ele>101.045</ele>
        <time>2019-09-17T07:26:06.001Z</time>
      </trkpt>
      <trkpt lat="50.40877" lon="2.26936">
        <ele>100.875</ele>
        <time>2019-09-17T07:26:09.001Z</time>
      </trkpt>
      <trkpt lat="50.40881" lon="2.26944">
        <ele>101.264</ele>
        <time>2019-09-17T07:26:12.001Z</time>
      </trkpt>
      <trkpt lat="50.40884" lon="2.26951">
        <ele>101.974</ele>
        <time>2019-09-17T07:26:15.001Z</time>
      </trkpt>
      <trkpt lat="50.40887" lon="2.26958">
        <ele>102.779</ele>
        <time>2019-09-17T07:26:18.001Z</time>
      </trkpt>
      <trkpt lat="50.40894" lon="2.26963">
        <ele>103.862</ele>
        <time>2019-09-17T07:26:21.002Z</time>
      </trkpt>
      <trkpt lat="50.40898" lon="2.26967">
        <ele>104.477</ele>
        <time>2019-09-17T07:26:24.001Z</time>
      </trkpt>
      <trkpt lat="50.40899" lon="2.26968">
        <ele>104.65</ele>
        <time>2019-09-17T07:26:27.001Z</time>
      </trkpt>
      <trkpt lat="50.40899" lon="2.26968">
        <ele>104.65</ele>
        <time>2019-09-17T07:40:54.001Z</time>
      </trkpt>
      <trkpt lat="50.409" lon="2.26969">
        <ele>104.761</ele>
        <time>2019-09-17T07:40:57.001Z</time>
      </trkpt>
      <trkpt lat="50.40906" lon="2.26972">
        <ele>104.986</ele>
        <time>2019-09-17T07:41:03.001Z</time>
      </trkpt>
      <trkpt lat="50.40911" lon="2.26973">
        <ele>105.275</ele>
        <time>2019-09-17T07:41:09.001Z</time>
      </trkpt>
      <trkpt lat="50.40913" lon="2.26975">
        <ele>105.08</ele>
        <time>2019-09-17T07:41:12.001Z</time>
      </trkpt>
      <trkpt lat="50.40913" lon="2.26976">
        <ele>104.965</ele>
        <time>2019-09-17T07:41:15.001Z</time>
      </trkpt>
      <trkpt lat="50.40913" lon="2.26976">
        <ele>104.965</ele>
        <time>2019-09-17T07:41:27.001Z</time>
      </trkpt>
      <trkpt lat="50.40913" lon="2.26976">
        <ele>105.252</ele>
        <time>2019-09-17T07:41:30.001Z</time>
      </trkpt>
      <trkpt lat="50.40911" lon="2.26977">
        <ele>105.119</ele>
        <time>2019-09-17T07:41:33.001Z</time>
      </trkpt>
      <trkpt lat="50.40911" lon="2.26977">
        <ele>105.119</ele>
        <time>2019-09-17T07:42:51.001Z</time>
      </trkpt>
      <trkpt lat="50.40909" lon="2.26975">
        <ele>105.371</ele>
        <time>2019-09-17T07:42:54.001Z</time>
      </trkpt>
      <trkpt lat="50.40904" lon="2.26973">
        <ele>105.056</ele>
        <time>2019-09-17T07:42:57.001Z</time>
      </trkpt>
      <trkpt lat="50.40895" lon="2.26974">
        <ele>105.111</ele>
        <time>2019-09-17T07:43:00.000Z</time>
      </trkpt>
      <trkpt lat="50.40892" lon="2.26982">
        <ele>105.094</ele>
        <time>2019-09-17T07:43:03.001Z</time>
      </trkpt>
      <trkpt lat="50.40895" lon="2.26991">
        <ele>105.408</ele>
        <time>2019-09-17T07:43:06.001Z</time>
      </trkpt>
      <trkpt lat="50.40896" lon="2.27">
        <ele>105.567</ele>
        <time>2019-09-17T07:43:09.001Z</time>
      </trkpt>
      <trkpt lat="50.40896" lon="2.2701">
        <ele>105.771</ele>
        <time>2019-09-17T07:43:12.001Z</time>
      </trkpt>
      <trkpt lat="50.40897" lon="2.2702">
        <ele>105.963</ele>
        <time>2019-09-17T07:43:15.001Z</time>
      </trkpt>
      <trkpt lat="50.40896" lon="2.27029">
        <ele>105.891</ele>
        <time>2019-09-17T07:43:18.001Z</time>
      </trkpt>
      <trkpt lat="50.40893" lon="2.27037">
        <ele>105.83</ele>
        <time>2019-09-17T07:43:21.001Z</time>
      </trkpt>
      <trkpt lat="50.40892" lon="2.27044">
        <ele>105.781</ele>
        <time>2019-09-17T07:43:24.001Z</time>
      </trkpt>
      <trkpt lat="50.40888" lon="2.27051">
        <ele>106.901</ele>
        <time>2019-09-17T07:43:27.001Z</time>
      </trkpt>
      <trkpt lat="50.40884" lon="2.27057">
        <ele>107.529</ele>
        <time>2019-09-17T07:43:30.001Z</time>
      </trkpt>
      <trkpt lat="50.40879" lon="2.27062">
        <ele>106.642</ele>
        <time>2019-09-17T07:43:33.001Z</time>
      </trkpt>
      <trkpt lat="50.40875" lon="2.27067">
        <ele>106.609</ele>
        <time>2019-09-17T07:43:36.001Z</time>
      </trkpt>
      <trkpt lat="50.40868" lon="2.27076">
        <ele>107.112</ele>
        <time>2019-09-17T07:43:42.001Z</time>
      </trkpt>
      <trkpt lat="50.40863" lon="2.2708">
        <ele>107.878</ele>
        <time>2019-09-17T07:43:45.001Z</time>
      </trkpt>
      <trkpt lat="50.40859" lon="2.27085">
        <ele>108.261</ele>
        <time>2019-09-17T07:43:48.001Z</time>
      </trkpt>
      <trkpt lat="50.40856" lon="2.27089">
        <ele>109.474</ele>
        <time>2019-09-17T07:43:51.001Z</time>
      </trkpt>
      <trkpt lat="50.40852" lon="2.27094">
        <ele>109.921</ele>
        <time>2019-09-17T07:43:54.001Z</time>
      </trkpt>
      <trkpt lat="50.40847" lon="2.271">
        <ele>110.632</ele>
        <time>2019-09-17T07:43:57.001Z</time>
      </trkpt>
      <trkpt lat="50.40842" lon="2.27105">
        <ele>110.726</ele>
        <time>2019-09-17T07:44:00.000Z</time>
      </trkpt>
      <trkpt lat="50.40838" lon="2.27109">
        <ele>111.192</ele>
        <time>2019-09-17T07:44:03.001Z</time>
      </trkpt>
      <trkpt lat="50.40832" lon="2.27114">
        <ele>112.711</ele>
        <time>2019-09-17T07:44:06.001Z</time>
      </trkpt>
      <trkpt lat="50.40827" lon="2.27119">
        <ele>112.409</ele>
        <time>2019-09-17T07:44:09.001Z</time>
      </trkpt>
      <trkpt lat="50.40821" lon="2.27127">
        <ele>113.107</ele>
        <time>2019-09-17T07:44:12.001Z</time>
      </trkpt>
      <trkpt lat="50.40816" lon="2.27132">
        <ele>113.793</ele>
        <time>2019-09-17T07:44:15.001Z</time>
      </trkpt>
      <trkpt lat="50.4081" lon="2.27137">
        <ele>114.332</ele>
        <time>2019-09-17T07:44:18.001Z</time>
      </trkpt>
      <trkpt lat="50.40805" lon="2.27143">
        <ele>114.538</ele>
        <time>2019-09-17T07:44:21.001Z</time>
      </trkpt>
      <trkpt lat="50.40799" lon="2.27151">
        <ele>114.724</ele>
        <time>2019-09-17T07:44:24.001Z</time>
      </trkpt>
      <trkpt lat="50.40793" lon="2.27157">
        <ele>114.982</ele>
        <time>2019-09-17T07:44:27.001Z</time>
      </trkpt>
      <trkpt lat="50.40788" lon="2.27164">
        <ele>116.395</ele>
        <time>2019-09-17T07:44:30.001Z</time>
      </trkpt>
      <trkpt lat="50.40782" lon="2.2717">
        <ele>116.996</ele>
        <time>2019-09-17T07:44:33.001Z</time>
      </trkpt>
      <trkpt lat="50.40776" lon="2.27176">
        <ele>117.31</ele>
        <time>2019-09-17T07:44:36.001Z</time>
      </trkpt>
      <trkpt lat="50.40771" lon="2.27182">
        <ele>117.117</ele>
        <time>2019-09-17T07:44:39.001Z</time>
      </trkpt>
      <trkpt lat="50.40764" lon="2.27188">
        <ele>117.135</ele>
        <time>2019-09-17T07:44:42.001Z</time>
      </trkpt>
      <trkpt lat="50.40759" lon="2.27193">
        <ele>116.817</ele>
        <time>2019-09-17T07:44:45.001Z</time>
      </trkpt>
      <trkpt lat="50.40757" lon="2.27195">
        <ele>117.147</ele>
        <time>2019-09-17T07:44:48.001Z</time>
      </trkpt>
      <trkpt lat="50.40757" lon="2.27195">
        <ele>117.147</ele>
        <time>2019-09-17T07:45:33.001Z</time>
      </trkpt>
      <trkpt lat="50.40758" lon="2.27196">
        <ele>117.126</ele>
        <time>2019-09-17T07:45:36.001Z</time>
      </trkpt>
      <trkpt lat="50.40758" lon="2.27196">
        <ele>117.338</ele>
        <time>2019-09-17T07:45:39.001Z</time>
      </trkpt>
      <trkpt lat="50.40758" lon="2.27196">
        <ele>117.338</ele>
        <time>2019-09-17T07:47:09.001Z</time>
      </trkpt>
      <trkpt lat="50.40758" lon="2.27197">
        <ele>117.794</ele>
        <time>2019-09-17T07:47:12.001Z</time>
      </trkpt>
      <trkpt lat="50.40757" lon="2.27197">
        <ele>118.074</ele>
        <time>2019-09-17T07:47:15.001Z</time>
      </trkpt>
      <trkpt lat="50.40757" lon="2.27197">
        <ele>118.074</ele>
        <time>2019-09-17T07:47:24.001Z</time>
      </trkpt>
      <trkpt lat="50.40757" lon="2.27196">
        <ele>118.12</ele>
        <time>2019-09-17T07:47:27.001Z</time>
      </trkpt>
      <trkpt lat="50.40757" lon="2.27196">
        <ele>118.124</ele>
        <time>2019-09-17T07:47:30.001Z</time>
      </trkpt>
      <trkpt lat="50.40757" lon="2.27196">
        <ele>118.124</ele>
        <time>2019-09-17T07:48:18.001Z</time>
      </trkpt>
      <trkpt lat="50.40761" lon="2.27193">
        <ele>118.413</ele>
        <time>2019-09-17T07:48:21.001Z</time>
      </trkpt>
      <trkpt lat="50.40766" lon="2.27187">
        <ele>118.396</ele>
        <time>2019-09-17T07:48:24.001Z</time>
      </trkpt>
      <trkpt lat="50.40772" lon="2.2718">
        <ele>118.412</ele>
        <time>2019-09-17T07:48:27.001Z</time>
      </trkpt>
      <trkpt lat="50.40779" lon="2.27172">
        <ele>118.283</ele>
        <time>2019-09-17T07:48:30.001Z</time>
      </trkpt>
      <trkpt lat="50.40788" lon="2.27164">
        <ele>118.127</ele>
        <time>2019-09-17T07:48:33.001Z</time>
      </trkpt>
      <trkpt lat="50.40798" lon="2.27154">
        <ele>117.605</ele>
        <time>2019-09-17T07:48:36.001Z</time>
      </trkpt>
      <trkpt lat="50.40809" lon="2.27143">
        <ele>117.012</ele>
        <time>2019-09-17T07:48:39.001Z</time>
      </trkpt>
      <trkpt lat="50.40823" lon="2.27128">
        <ele>116.249</ele>
        <time>2019-09-17T07:48:42.001Z</time>
      </trkpt>
      <trkpt lat="50.40838" lon="2.27111">
        <ele>115.441</ele>
        <time>2019-09-17T07:48:45.001Z</time>
      </trkpt>
      <trkpt lat="50.40853" lon="2.27097">
        <ele>114.54</ele>
        <time>2019-09-17T07:48:48.001Z</time>
      </trkpt>
      <trkpt lat="50.40866" lon="2.27083">
        <ele>113.235</ele>
        <time>2019-09-17T07:48:51.001Z</time>
      </trkpt>
      <trkpt lat="50.40878" lon="2.2707">
        <ele>112.136</ele>
        <time>2019-09-17T07:48:54.001Z</time>
      </trkpt>
      <trkpt lat="50.40888" lon="2.27058">
        <ele>110.352</ele>
        <time>2019-09-17T07:48:57.001Z</time>
      </trkpt>
      <trkpt lat="50.40895" lon="2.27042">
        <ele>109.354</ele>
        <time>2019-09-17T07:49:00.000Z</time>
      </trkpt>
      <trkpt lat="50.40898" lon="2.2702">
        <ele>108.297</ele>
        <time>2019-09-17T07:49:03.001Z</time>
      </trkpt>
      <trkpt lat="50.40896" lon="2.26998">
        <ele>107.797</ele>
        <time>2019-09-17T07:49:06.001Z</time>
      </trkpt>
      <trkpt lat="50.40896" lon="2.26983">
        <ele>106.825</ele>
        <time>2019-09-17T07:49:09.001Z</time>
      </trkpt>
      <trkpt lat="50.409" lon="2.26973">
        <ele>105.633</ele>
        <time>2019-09-17T07:49:12.001Z</time>
      </trkpt>
      <trkpt lat="50.40907" lon="2.26974">
        <ele>105.107</ele>
        <time>2019-09-17T07:49:15.001Z</time>
      </trkpt>
      <trkpt lat="50.40914" lon="2.26979">
        <ele>104.661</ele>
        <time>2019-09-17T07:49:18.001Z</time>
      </trkpt>
      <trkpt lat="50.40922" lon="2.26982">
        <ele>104.122</ele>
        <time>2019-09-17T07:49:21.001Z</time>
      </trkpt>
      <trkpt lat="50.40935" lon="2.26982">
        <ele>102.945</ele>
        <time>2019-09-17T07:49:24.001Z</time>
      </trkpt>
      <trkpt lat="50.4095" lon="2.26982">
        <ele>102.046</ele>
        <time>2019-09-17T07:49:27.001Z</time>
      </trkpt>
      <trkpt lat="50.40967" lon="2.26981">
        <ele>100.963</ele>
        <time>2019-09-17T07:49:30.001Z</time>
      </trkpt>
      <trkpt lat="50.40986" lon="2.26982">
        <ele>99.867</ele>
        <time>2019-09-17T07:49:33.001Z</time>
      </trkpt>
      <trkpt lat="50.41006" lon="2.26984">
        <ele>98.796</ele>
        <time>2019-09-17T07:49:36.001Z</time>
      </trkpt>
      <trkpt lat="50.41026" lon="2.26991">
        <ele>98.076</ele>
        <time>2019-09-17T07:49:39.001Z</time>
      </trkpt>
      <trkpt lat="50.41047" lon="2.26999">
        <ele>98.126</ele>
        <time>2019-09-17T07:49:42.001Z</time>
      </trkpt>
      <trkpt lat="50.41067" lon="2.2701">
        <ele>98.076</ele>
        <time>2019-09-17T07:49:45.001Z</time>
      </trkpt>
      <trkpt lat="50.41085" lon="2.27024">
        <ele>98.043</ele>
        <time>2019-09-17T07:49:48.001Z</time>
      </trkpt>
      <trkpt lat="50.41103" lon="2.27041">
        <ele>98.048</ele>
        <time>2019-09-17T07:49:51.001Z</time>
      </trkpt>
      <trkpt lat="50.4112" lon="2.27059">
        <ele>98.06</ele>
        <time>2019-09-17T07:49:54.001Z</time>
      </trkpt>
      <trkpt lat="50.41137" lon="2.27077">
        <ele>98.09</ele>
        <time>2019-09-17T07:49:57.001Z</time>
      </trkpt>
      <trkpt lat="50.41155" lon="2.27091">
        <ele>98.703</ele>
        <time>2019-09-17T07:50:00.000Z</time>
      </trkpt>
      <trkpt lat="50.41174" lon="2.27111">
        <ele>97.31</ele>
        <time>2019-09-17T07:50:03.001Z</time>
      </trkpt>
      <trkpt lat="50.41188" lon="2.27137">
        <ele>96.783</ele>
        <time>2019-09-17T07:50:06.001Z</time>
      </trkpt>
      <trkpt lat="50.41199" lon="2.27165">
        <ele>95.909</ele>
        <time>2019-09-17T07:50:09.001Z</time>
      </trkpt>
      <trkpt lat="50.41212" lon="2.27192">
        <ele>93.966</ele>
        <time>2019-09-17T07:50:12.001Z</time>
      </trkpt>
      <trkpt lat="50.41226" lon="2.27218">
        <ele>92.39</ele>
        <time>2019-09-17T07:50:15.001Z</time>
      </trkpt>
      <trkpt lat="50.41237" lon="2.27242">
        <ele>90.892</ele>
        <time>2019-09-17T07:50:18.001Z</time>
      </trkpt>
      <trkpt lat="50.41244" lon="2.27269">
        <ele>89.003</ele>
        <time>2019-09-17T07:50:21.001Z</time>
      </trkpt>
      <trkpt lat="50.41246" lon="2.27294">
        <ele>87.934</ele>
        <time>2019-09-17T07:50:24.001Z</time>
      </trkpt>
      <trkpt lat="50.41249" lon="2.27316">
        <ele>87.301</ele>
        <time>2019-09-17T07:50:27.001Z</time>
      </trkpt>
      <trkpt lat="50.41254" lon="2.27336">
        <ele>86.921</ele>
        <time>2019-09-17T07:50:30.001Z</time>
      </trkpt>
      <trkpt lat="50.41257" lon="2.27355">
        <ele>85.969</ele>
        <time>2019-09-17T07:50:33.001Z</time>
      </trkpt>
      <trkpt lat="50.41261" lon="2.27375">
        <ele>85.611</ele>
        <time>2019-09-17T07:50:36.001Z</time>
      </trkpt>
      <trkpt lat="50.41266" lon="2.27395">
        <ele>85.491</ele>
        <time>2019-09-17T07:50:39.001Z</time>
      </trkpt>
      <trkpt lat="50.41269" lon="2.27413">
        <ele>85.9</ele>
        <time>2019-09-17T07:50:42.001Z</time>
      </trkpt>
      <trkpt lat="50.4127" lon="2.27431">
        <ele>85.776</ele>
        <time>2019-09-17T07:50:45.001Z</time>
      </trkpt>
      <trkpt lat="50.41268" lon="2.27448">
        <ele>85.937</ele>
        <time>2019-09-17T07:50:48.001Z</time>
      </trkpt>
      <trkpt lat="50.41268" lon="2.27462">
        <ele>86.855</ele>
        <time>2019-09-17T07:50:51.001Z</time>
      </trkpt>
      <trkpt lat="50.41268" lon="2.27472">
        <ele>88.079</ele>
        <time>2019-09-17T07:50:54.001Z</time>
      </trkpt>
      <trkpt lat="50.41268" lon="2.27481">
        <ele>89.417</ele>
        <time>2019-09-17T07:50:57.001Z</time>
      </trkpt>
      <trkpt lat="50.41267" lon="2.2749">
        <ele>90.526</ele>
        <time>2019-09-17T07:51:00.000Z</time>
      </trkpt>
      <trkpt lat="50.41269" lon="2.27499">
        <ele>91.302</ele>
        <time>2019-09-17T07:51:03.001Z</time>
      </trkpt>
      <trkpt lat="50.4127" lon="2.27508">
        <ele>92.317</ele>
        <time>2019-09-17T07:51:06.001Z</time>
      </trkpt>
      <trkpt lat="50.41272" lon="2.27518">
        <ele>92.671</ele>
        <time>2019-09-17T07:51:09.001Z</time>
      </trkpt>
      <trkpt lat="50.41275" lon="2.27528">
        <ele>93.984</ele>
        <time>2019-09-17T07:51:12.001Z</time>
      </trkpt>
      <trkpt lat="50.41277" lon="2.27537">
        <ele>95.18</ele>
        <time>2019-09-17T07:51:15.001Z</time>
      </trkpt>
      <trkpt lat="50.4128" lon="2.27546">
        <ele>96.062</ele>
        <time>2019-09-17T07:51:18.001Z</time>
      </trkpt>
      <trkpt lat="50.41283" lon="2.27556">
        <ele>96.789</ele>
        <time>2019-09-17T07:51:21.001Z</time>
      </trkpt>
      <trkpt lat="50.41287" lon="2.27565">
        <ele>96.661</ele>
        <time>2019-09-17T07:51:24.001Z</time>
      </trkpt>
      <trkpt lat="50.4129" lon="2.27575">
        <ele>96.992</ele>
        <time>2019-09-17T07:51:27.001Z</time>
      </trkpt>
      <trkpt lat="50.41292" lon="2.27586">
        <ele>97.678</ele>
        <time>2019-09-17T07:51:30.001Z</time>
      </trkpt>
      <trkpt lat="50.41293" lon="2.27597">
        <ele>98.849</ele>
        <time>2019-09-17T07:51:33.001Z</time>
      </trkpt>
      <trkpt lat="50.41296" lon="2.27608">
        <ele>100.694</ele>
        <time>2019-09-17T07:51:36.001Z</time>
      </trkpt>
      <trkpt lat="50.41298" lon="2.27618">
        <ele>101.318</ele>
        <time>2019-09-17T07:51:39.001Z</time>
      </trkpt>
      <trkpt lat="50.41301" lon="2.27628">
        <ele>101.779</ele>
        <time>2019-09-17T07:51:42.001Z</time>
      </trkpt>
      <trkpt lat="50.41304" lon="2.27637">
        <ele>102.313</ele>
        <time>2019-09-17T07:51:45.001Z</time>
      </trkpt>
      <trkpt lat="50.41307" lon="2.27646">
        <ele>103.9</ele>
        <time>2019-09-17T07:51:48.001Z</time>
      </trkpt>
      <trkpt lat="50.4131" lon="2.27655">
        <ele>104.842</ele>
        <time>2019-09-17T07:51:51.001Z</time>
      </trkpt>
      <trkpt lat="50.41314" lon="2.27664">
        <ele>105.058</ele>
        <time>2019-09-17T07:51:54.001Z</time>
      </trkpt>
      <trkpt lat="50.41316" lon="2.27673">
        <ele>105.807</ele>
        <time>2019-09-17T07:51:57.001Z</time>
      </trkpt>
      <trkpt lat="50.41318" lon="2.27682">
        <ele>106.919</ele>
        <time>2019-09-17T07:52:00.000Z</time>
      </trkpt>
      <trkpt lat="50.4132" lon="2.2769">
        <ele>107.438</ele>
        <time>2019-09-17T07:52:03.001Z</time>
      </trkpt>
      <trkpt lat="50.41323" lon="2.27699">
        <ele>108.03</ele>
        <time>2019-09-17T07:52:06.001Z</time>
      </trkpt>
      <trkpt lat="50.41326" lon="2.27707">
        <ele>108.925</ele>
        <time>2019-09-17T07:52:09.001Z</time>
      </trkpt>
      <trkpt lat="50.41328" lon="2.27715">
        <ele>109.042</ele>
        <time>2019-09-17T07:52:12.001Z</time>
      </trkpt>
      <trkpt lat="50.4133" lon="2.27724">
        <ele>109.035</ele>
        <time>2019-09-17T07:52:15.001Z</time>
      </trkpt>
      <trkpt lat="50.41334" lon="2.27732">
        <ele>109.272</ele>
        <time>2019-09-17T07:52:18.001Z</time>
      </trkpt>
      <trkpt lat="50.41337" lon="2.2774">
        <ele>109.507</ele>
        <time>2019-09-17T07:52:21.001Z</time>
      </trkpt>
      <trkpt lat="50.41341" lon="2.27749">
        <ele>109.79</ele>
        <time>2019-09-17T07:52:24.001Z</time>
      </trkpt>
      <trkpt lat="50.41344" lon="2.27758">
        <ele>110.253</ele>
        <time>2019-09-17T07:52:27.001Z</time>
      </trkpt>
      <trkpt lat="50.41348" lon="2.27766">
        <ele>111.489</ele>
        <time>2019-09-17T07:52:30.001Z</time>
      </trkpt>
      <trkpt lat="50.41352" lon="2.27774">
        <ele>111.64</ele>
        <time>2019-09-17T07:52:33.001Z</time>
      </trkpt>
      <trkpt lat="50.41356" lon="2.27784">
        <ele>110.779</ele>
        <time>2019-09-17T07:52:36.001Z</time>
      </trkpt>
      <trkpt lat="50.41361" lon="2.27794">
        <ele>110.64</ele>
        <time>2019-09-17T07:52:39.001Z</time>
      </trkpt>
      <trkpt lat="50.41366" lon="2.27806">
        <ele>110.689</ele>
        <time>2019-09-17T07:52:42.001Z</time>
      </trkpt>
      <trkpt lat="50.41371" lon="2.27819">
        <ele>111.45</ele>
        <time>2019-09-17T07:52:45.001Z</time>
      </trkpt>
      <trkpt lat="50.41377" lon="2.27832">
        <ele>111.79</ele>
        <time>2019-09-17T07:52:48.001Z</time>
      </trkpt>
      <trkpt lat="50.41383" lon="2.27846">
        <ele>112.13</ele>
        <time>2019-09-17T07:52:51.001Z</time>
      </trkpt>
      <trkpt lat="50.41388" lon="2.2786">
        <ele>112.281</ele>
        <time>2019-09-17T07:52:54.001Z</time>
      </trkpt>
      <trkpt lat="50.41393" lon="2.27873">
        <ele>112.671</ele>
        <time>2019-09-17T07:52:57.001Z</time>
      </trkpt>
      <trkpt lat="50.41397" lon="2.27888">
        <ele>112.7</ele>
        <time>2019-09-17T07:53:00.000Z</time>
      </trkpt>
      <trkpt lat="50.414" lon="2.27902">
        <ele>112.535</ele>
        <time>2019-09-17T07:53:03.001Z</time>
      </trkpt>
      <trkpt lat="50.41402" lon="2.27917">
        <ele>111.931</ele>
        <time>2019-09-17T07:53:06.001Z</time>
      </trkpt>
      <trkpt lat="50.41404" lon="2.27932">
        <ele>111.146</ele>
        <time>2019-09-17T07:53:09.001Z</time>
      </trkpt>
      <trkpt lat="50.41405" lon="2.27947">
        <ele>110.323</ele>
        <time>2019-09-17T07:53:12.001Z</time>
      </trkpt>
      <trkpt lat="50.41405" lon="2.27962">
        <ele>110.08</ele>
        <time>2019-09-17T07:53:15.001Z</time>
      </trkpt>
      <trkpt lat="50.41406" lon="2.27976">
        <ele>110</ele>
        <time>2019-09-17T07:53:18.001Z</time>
      </trkpt>
      <trkpt lat="50.41406" lon="2.27991">
        <ele>109.832</ele>
        <time>2019-09-17T07:53:21.001Z</time>
      </trkpt>
      <trkpt lat="50.41408" lon="2.28007">
        <ele>109.999</ele>
        <time>2019-09-17T07:53:24.001Z</time>
      </trkpt>
      <trkpt lat="50.41412" lon="2.28024">
        <ele>109.89</ele>
        <time>2019-09-17T07:53:27.001Z</time>
      </trkpt>
      <trkpt lat="50.41418" lon="2.28043">
        <ele>109.205</ele>
        <time>2019-09-17T07:53:30.001Z</time>
      </trkpt>
      <trkpt lat="50.41428" lon="2.28061">
        <ele>108.409</ele>
        <time>2019-09-17T07:53:33.001Z</time>
      </trkpt>
      <trkpt lat="50.41439" lon="2.2808">
        <ele>107.469</ele>
        <time>2019-09-17T07:53:36.001Z</time>
      </trkpt>
      <trkpt lat="50.41451" lon="2.28099">
        <ele>106.838</ele>
        <time>2019-09-17T07:53:39.001Z</time>
      </trkpt>
      <trkpt lat="50.41463" lon="2.28118">
        <ele>106.524</ele>
        <time>2019-09-17T07:53:42.001Z</time>
      </trkpt>
      <trkpt lat="50.41476" lon="2.28137">
        <ele>106.184</ele>
        <time>2019-09-17T07:53:45.001Z</time>
      </trkpt>
      <trkpt lat="50.41489" lon="2.28157">
        <ele>105.881</ele>
        <time>2019-09-17T07:53:48.001Z</time>
      </trkpt>
      <trkpt lat="50.41502" lon="2.28177">
        <ele>105.572</ele>
        <time>2019-09-17T07:53:51.001Z</time>
      </trkpt>
      <trkpt lat="50.41516" lon="2.28196">
        <ele>105.015</ele>
        <time>2019-09-17T07:53:54.001Z</time>
      </trkpt>
      <trkpt lat="50.41528" lon="2.28216">
        <ele>104.375</ele>
        <time>2019-09-17T07:53:57.001Z</time>
      </trkpt>
      <trkpt lat="50.41534" lon="2.28243">
        <ele>103.928</ele>
        <time>2019-09-17T07:54:00.000Z</time>
      </trkpt>
      <trkpt lat="50.41525" lon="2.28274">
        <ele>103.152</ele>
        <time>2019-09-17T07:54:03.001Z</time>
      </trkpt>
      <trkpt lat="50.41507" lon="2.28297">
        <ele>102.401</ele>
        <time>2019-09-17T07:54:06.001Z</time>
      </trkpt>
      <trkpt lat="50.41494" lon="2.2832">
        <ele>101.846</ele>
        <time>2019-09-17T07:54:09.001Z</time>
      </trkpt>
      <trkpt lat="50.41482" lon="2.28342">
        <ele>100.961</ele>
        <time>2019-09-17T07:54:12.001Z</time>
      </trkpt>
      <trkpt lat="50.41471" lon="2.28365">
        <ele>99.623</ele>
        <time>2019-09-17T07:54:15.001Z</time>
      </trkpt>
      <trkpt lat="50.41467" lon="2.28398">
        <ele>97.679</ele>
        <time>2019-09-17T07:54:18.001Z</time>
      </trkpt>
      <trkpt lat="50.41481" lon="2.28434">
        <ele>95.621</ele>
        <time>2019-09-17T07:54:21.001Z</time>
      </trkpt>
      <trkpt lat="50.41501" lon="2.28463">
        <ele>92.843</ele>
        <time>2019-09-17T07:54:24.001Z</time>
      </trkpt>
      <trkpt lat="50.41516" lon="2.28493">
        <ele>91.8</ele>
        <time>2019-09-17T07:54:27.001Z</time>
      </trkpt>
      <trkpt lat="50.41526" lon="2.28522">
        <ele>90.772</ele>
        <time>2019-09-17T07:54:30.001Z</time>
      </trkpt>
      <trkpt lat="50.4153" lon="2.28547">
        <ele>90.499</ele>
        <time>2019-09-17T07:54:33.001Z</time>
      </trkpt>
      <trkpt lat="50.41533" lon="2.28565">
        <ele>90.306</ele>
        <time>2019-09-17T07:54:36.001Z</time>
      </trkpt>
      <trkpt lat="50.41536" lon="2.28578">
        <ele>90.005</ele>
        <time>2019-09-17T07:54:39.001Z</time>
      </trkpt>
      <trkpt lat="50.41537" lon="2.28587">
        <ele>89.665</ele>
        <time>2019-09-17T07:54:42.001Z</time>
      </trkpt>
      <trkpt lat="50.4154" lon="2.28594">
        <ele>89.484</ele>
        <time>2019-09-17T07:54:45.001Z</time>
      </trkpt>
      <trkpt lat="50.41542" lon="2.28602">
        <ele>89.536</ele>
        <time>2019-09-17T07:54:48.001Z</time>
      </trkpt>
      <trkpt lat="50.41543" lon="2.28609">
        <ele>89.778</ele>
        <time>2019-09-17T07:54:51.001Z</time>
      </trkpt>
      <trkpt lat="50.41545" lon="2.28618">
        <ele>90.602</ele>
        <time>2019-09-17T07:54:54.001Z</time>
      </trkpt>
      <trkpt lat="50.41547" lon="2.28626">
        <ele>91.48</ele>
        <time>2019-09-17T07:54:57.001Z</time>
      </trkpt>
      <trkpt lat="50.4155" lon="2.28635">
        <ele>92.654</ele>
        <time>2019-09-17T07:55:00.000Z</time>
      </trkpt>
      <trkpt lat="50.41553" lon="2.28646">
        <ele>93.433</ele>
        <time>2019-09-17T07:55:03.001Z</time>
      </trkpt>
      <trkpt lat="50.41555" lon="2.28656">
        <ele>94.574</ele>
        <time>2019-09-17T07:55:06.001Z</time>
      </trkpt>
      <trkpt lat="50.41556" lon="2.28664">
        <ele>95.311</ele>
        <time>2019-09-17T07:55:09.001Z</time>
      </trkpt>
      <trkpt lat="50.41557" lon="2.28674">
        <ele>96.547</ele>
        <time>2019-09-17T07:55:12.001Z</time>
      </trkpt>
      <trkpt lat="50.41558" lon="2.28684">
        <ele>97.96</ele>
        <time>2019-09-17T07:55:15.001Z</time>
      </trkpt>
      <trkpt lat="50.41559" lon="2.28693">
        <ele>98.929</ele>
        <time>2019-09-17T07:55:18.001Z</time>
      </trkpt>
      <trkpt lat="50.41558" lon="2.28703">
        <ele>99.773</ele>
        <time>2019-09-17T07:55:21.001Z</time>
      </trkpt>
      <trkpt lat="50.4156" lon="2.28713">
        <ele>100.166</ele>
        <time>2019-09-17T07:55:24.001Z</time>
      </trkpt>
      <trkpt lat="50.4156" lon="2.28722">
        <ele>101.065</ele>
        <time>2019-09-17T07:55:27.001Z</time>
      </trkpt>
      <trkpt lat="50.41559" lon="2.28733">
        <ele>101.47</ele>
        <time>2019-09-17T07:55:30.001Z</time>
      </trkpt>
      <trkpt lat="50.41557" lon="2.28742">
        <ele>101.747</ele>
        <time>2019-09-17T07:55:33.001Z</time>
      </trkpt>
      <trkpt lat="50.41557" lon="2.28752">
        <ele>101.867</ele>
        <time>2019-09-17T07:55:36.001Z</time>
      </trkpt>
      <trkpt lat="50.41556" lon="2.28761">
        <ele>102.133</ele>
        <time>2019-09-17T07:55:39.001Z</time>
      </trkpt>
      <trkpt lat="50.41555" lon="2.2877">
        <ele>102.18</ele>
        <time>2019-09-17T07:55:42.001Z</time>
      </trkpt>
      <trkpt lat="50.41555" lon="2.28781">
        <ele>102.576</ele>
        <time>2019-09-17T07:55:45.001Z</time>
      </trkpt>
      <trkpt lat="50.41554" lon="2.28793">
        <ele>102.277</ele>
        <time>2019-09-17T07:55:48.001Z</time>
      </trkpt>
      <trkpt lat="50.41554" lon="2.28807">
        <ele>102.003</ele>
        <time>2019-09-17T07:55:51.001Z</time>
      </trkpt>
      <trkpt lat="50.41554" lon="2.28824">
        <ele>101.544</ele>
        <time>2019-09-17T07:55:54.001Z</time>
      </trkpt>
      <trkpt lat="50.41556" lon="2.28843">
        <ele>101.455</ele>
        <time>2019-09-17T07:55:57.001Z</time>
      </trkpt>
      <trkpt lat="50.41558" lon="2.28865">
        <ele>101.169</ele>
        <time>2019-09-17T07:56:00.000Z</time>
      </trkpt>
      <trkpt lat="50.4156" lon="2.28889">
        <ele>100.8</ele>
        <time>2019-09-17T07:56:03.001Z</time>
      </trkpt>
      <trkpt lat="50.41562" lon="2.28915">
        <ele>100.488</ele>
        <time>2019-09-17T07:56:06.001Z</time>
      </trkpt>
      <trkpt lat="50.41564" lon="2.28945">
        <ele>99.942</ele>
        <time>2019-09-17T07:56:09.001Z</time>
      </trkpt>
      <trkpt lat="50.41567" lon="2.28977">
        <ele>99.523</ele>
        <time>2019-09-17T07:56:12.001Z</time>
      </trkpt>
      <trkpt lat="50.41569" lon="2.29012">
        <ele>98.843</ele>
        <time>2019-09-17T07:56:15.001Z</time>
      </trkpt>
      <trkpt lat="50.41571" lon="2.29049">
        <ele>98.069</ele>
        <time>2019-09-17T07:56:18.001Z</time>
      </trkpt>
      <trkpt lat="50.41571" lon="2.29087">
        <ele>96.837</ele>
        <time>2019-09-17T07:56:21.001Z</time>
      </trkpt>
      <trkpt lat="50.4157" lon="2.29125">
        <ele>94.903</ele>
        <time>2019-09-17T07:56:24.001Z</time>
      </trkpt>
      <trkpt lat="50.41567" lon="2.29165">
        <ele>92.892</ele>
        <time>2019-09-17T07:56:27.001Z</time>
      </trkpt>
      <trkpt lat="50.41563" lon="2.29206">
        <ele>91.058</ele>
        <time>2019-09-17T07:56:30.001Z</time>
      </trkpt>
      <trkpt lat="50.41558" lon="2.29249">
        <ele>89.431</ele>
        <time>2019-09-17T07:56:33.001Z</time>
      </trkpt>
      <trkpt lat="50.41553" lon="2.29288">
        <ele>88.694</ele>
        <time>2019-09-17T07:56:36.001Z</time>
      </trkpt>
      <trkpt lat="50.41549" lon="2.29323">
        <ele>88.309</ele>
        <time>2019-09-17T07:56:39.001Z</time>
      </trkpt>
      <trkpt lat="50.41548" lon="2.29345">
        <ele>88.225</ele>
        <time>2019-09-17T07:56:42.001Z</time>
      </trkpt>
      <trkpt lat="50.41553" lon="2.29354">
        <ele>88.138</ele>
        <time>2019-09-17T07:56:48.001Z</time>
      </trkpt>
      <trkpt lat="50.41561" lon="2.29361">
        <ele>87.872</ele>
        <time>2019-09-17T07:56:51.001Z</time>
      </trkpt>
      <trkpt lat="50.41575" lon="2.2937">
        <ele>86.993</ele>
        <time>2019-09-17T07:56:54.001Z</time>
      </trkpt>
      <trkpt lat="50.41592" lon="2.29385">
        <ele>85.806</ele>
        <time>2019-09-17T07:56:57.001Z</time>
      </trkpt>
      <trkpt lat="50.41612" lon="2.29404">
        <ele>84.41</ele>
        <time>2019-09-17T07:57:00.000Z</time>
      </trkpt>
      <trkpt lat="50.41631" lon="2.29421">
        <ele>82.682</ele>
        <time>2019-09-17T07:57:03.001Z</time>
      </trkpt>
      <trkpt lat="50.41651" lon="2.2944">
        <ele>81.152</ele>
        <time>2019-09-17T07:57:06.001Z</time>
      </trkpt>
      <trkpt lat="50.41672" lon="2.29461">
        <ele>79.665</ele>
        <time>2019-09-17T07:57:09.002Z</time>
      </trkpt>
      <trkpt lat="50.41693" lon="2.29481">
        <ele>77.978</ele>
        <time>2019-09-17T07:57:12.001Z</time>
      </trkpt>
      <trkpt lat="50.41713" lon="2.29499">
        <ele>76.032</ele>
        <time>2019-09-17T07:57:15.001Z</time>
      </trkpt>
      <trkpt lat="50.4173" lon="2.29515">
        <ele>74.101</ele>
        <time>2019-09-17T07:57:18.001Z</time>
      </trkpt>
      <trkpt lat="50.4174" lon="2.29524">
        <ele>72.625</ele>
        <time>2019-09-17T07:57:21.001Z</time>
      </trkpt>
      <trkpt lat="50.4174" lon="2.29524">
        <ele>72.188</ele>
        <time>2019-09-17T07:57:24.001Z</time>
      </trkpt>
      <trkpt lat="50.41741" lon="2.29524">
        <ele>72.335</ele>
        <time>2019-09-17T07:57:27.001Z</time>
      </trkpt>
      <trkpt lat="50.41741" lon="2.29524">
        <ele>72.335</ele>
        <time>2019-09-17T07:57:30.001Z</time>
      </trkpt>
      <trkpt lat="50.41741" lon="2.29525">
        <ele>72.347</ele>
        <time>2019-09-17T07:57:33.001Z</time>
      </trkpt>
      <trkpt lat="50.41746" lon="2.29529">
        <ele>72.023</ele>
        <time>2019-09-17T07:57:36.001Z</time>
      </trkpt>
      <trkpt lat="50.41753" lon="2.29536">
        <ele>72.045</ele>
        <time>2019-09-17T07:57:39.001Z</time>
      </trkpt>
      <trkpt lat="50.41766" lon="2.29544">
        <ele>72.132</ele>
        <time>2019-09-17T07:57:42.001Z</time>
      </trkpt>
      <trkpt lat="50.41779" lon="2.29553">
        <ele>72.343</ele>
        <time>2019-09-17T07:57:45.001Z</time>
      </trkpt>
      <trkpt lat="50.41791" lon="2.29563">
        <ele>72.436</ele>
        <time>2019-09-17T07:57:48.001Z</time>
      </trkpt>
      <trkpt lat="50.41807" lon="2.29576">
        <ele>72.486</ele>
        <time>2019-09-17T07:57:51.001Z</time>
      </trkpt>
      <trkpt lat="50.41822" lon="2.29596">
        <ele>72.885</ele>
        <time>2019-09-17T07:57:54.001Z</time>
      </trkpt>
      <trkpt lat="50.41834" lon="2.29626">
        <ele>72.832</ele>
        <time>2019-09-17T07:57:57.001Z</time>
      </trkpt>
      <trkpt lat="50.41845" lon="2.29655">
        <ele>72.637</ele>
        <time>2019-09-17T07:58:00.000Z</time>
      </trkpt>
      <trkpt lat="50.4185" lon="2.29682">
        <ele>72.391</ele>
        <time>2019-09-17T07:58:03.001Z</time>
      </trkpt>
      <trkpt lat="50.4185" lon="2.29709">
        <ele>72.885</ele>
        <time>2019-09-17T07:58:06.001Z</time>
      </trkpt>
      <trkpt lat="50.41851" lon="2.29738">
        <ele>72.398</ele>
        <time>2019-09-17T07:58:09.001Z</time>
      </trkpt>
      <trkpt lat="50.41848" lon="2.2977">
        <ele>71.666</ele>
        <time>2019-09-17T07:58:12.001Z</time>
      </trkpt>
      <trkpt lat="50.41845" lon="2.29803">
        <ele>70.245</ele>
        <time>2019-09-17T07:58:15.001Z</time>
      </trkpt>
      <trkpt lat="50.41841" lon="2.29834">
        <ele>68.695</ele>
        <time>2019-09-17T07:58:18.001Z</time>
      </trkpt>
      <trkpt lat="50.41836" lon="2.29863">
        <ele>67.175</ele>
        <time>2019-09-17T07:58:21.001Z</time>
      </trkpt>
      <trkpt lat="50.4183" lon="2.29891">
        <ele>66.309</ele>
        <time>2019-09-17T07:58:24.001Z</time>
      </trkpt>
      <trkpt lat="50.41823" lon="2.29918">
        <ele>65.897</ele>
        <time>2019-09-17T07:58:27.001Z</time>
      </trkpt>
      <trkpt lat="50.41815" lon="2.29943">
        <ele>66.005</ele>
        <time>2019-09-17T07:58:30.001Z</time>
      </trkpt>
      <trkpt lat="50.41808" lon="2.29968">
        <ele>66.927</ele>
        <time>2019-09-17T07:58:33.001Z</time>
      </trkpt>
      <trkpt lat="50.41801" lon="2.29993">
        <ele>67.931</ele>
        <time>2019-09-17T07:58:36.001Z</time>
      </trkpt>
      <trkpt lat="50.41796" lon="2.30019">
        <ele>67.881</ele>
        <time>2019-09-17T07:58:39.001Z</time>
      </trkpt>
      <trkpt lat="50.41795" lon="2.30044">
        <ele>67.766</ele>
        <time>2019-09-17T07:58:42.001Z</time>
      </trkpt>
      <trkpt lat="50.41801" lon="2.3007">
        <ele>67.644</ele>
        <time>2019-09-17T07:58:45.001Z</time>
      </trkpt>
      <trkpt lat="50.41806" lon="2.30095">
        <ele>67.975</ele>
        <time>2019-09-17T07:58:48.001Z</time>
      </trkpt>
      <trkpt lat="50.41811" lon="2.30121">
        <ele>68.027</ele>
        <time>2019-09-17T07:58:51.001Z</time>
      </trkpt>
      <trkpt lat="50.41817" lon="2.30146">
        <ele>68.146</ele>
        <time>2019-09-17T07:58:54.001Z</time>
      </trkpt>
      <trkpt lat="50.41823" lon="2.3017">
        <ele>68.595</ele>
        <time>2019-09-17T07:58:57.001Z</time>
      </trkpt>
      <trkpt lat="50.41833" lon="2.30192">
        <ele>69.052</ele>
        <time>2019-09-17T07:59:00.000Z</time>
      </trkpt>
      <trkpt lat="50.41846" lon="2.3021">
        <ele>69.167</ele>
        <time>2019-09-17T07:59:03.001Z</time>
      </trkpt>
      <trkpt lat="50.41861" lon="2.30226">
        <ele>68.755</ele>
        <time>2019-09-17T07:59:06.001Z</time>
      </trkpt>
      <trkpt lat="50.41874" lon="2.30241">
        <ele>68.582</ele>
        <time>2019-09-17T07:59:09.001Z</time>
      </trkpt>
      <trkpt lat="50.41888" lon="2.30255">
        <ele>68.307</ele>
        <time>2019-09-17T07:59:12.001Z</time>
      </trkpt>
      <trkpt lat="50.41903" lon="2.30267">
        <ele>68.516</ele>
        <time>2019-09-17T07:59:15.001Z</time>
      </trkpt>
      <trkpt lat="50.41917" lon="2.30279">
        <ele>68.32</ele>
        <time>2019-09-17T07:59:18.001Z</time>
      </trkpt>
      <trkpt lat="50.41931" lon="2.30292">
        <ele>68.352</ele>
        <time>2019-09-17T07:59:21.001Z</time>
      </trkpt>
      <trkpt lat="50.41946" lon="2.30306">
        <ele>69.038</ele>
        <time>2019-09-17T07:59:24.001Z</time>
      </trkpt>
      <trkpt lat="50.41957" lon="2.30326">
        <ele>69.509</ele>
        <time>2019-09-17T07:59:27.001Z</time>
      </trkpt>
      <trkpt lat="50.4196" lon="2.30351">
        <ele>69.406</ele>
        <time>2019-09-17T07:59:30.001Z</time>
      </trkpt>
      <trkpt lat="50.41957" lon="2.30376">
        <ele>69.187</ele>
        <time>2019-09-17T07:59:33.001Z</time>
      </trkpt>
      <trkpt lat="50.41949" lon="2.304">
        <ele>69</ele>
        <time>2019-09-17T07:59:36.001Z</time>
      </trkpt>
      <trkpt lat="50.41939" lon="2.30421">
        <ele>69.848</ele>
        <time>2019-09-17T07:59:39.001Z</time>
      </trkpt>
      <trkpt lat="50.41928" lon="2.30441">
        <ele>69.595</ele>
        <time>2019-09-17T07:59:42.001Z</time>
      </trkpt>
      <trkpt lat="50.41919" lon="2.30461">
        <ele>69.542</ele>
        <time>2019-09-17T07:59:45.001Z</time>
      </trkpt>
      <trkpt lat="50.41919" lon="2.30486">
        <ele>69.586</ele>
        <time>2019-09-17T07:59:48.001Z</time>
      </trkpt>
      <trkpt lat="50.41924" lon="2.3051">
        <ele>70.116</ele>
        <time>2019-09-17T07:59:51.001Z</time>
      </trkpt>
      <trkpt lat="50.41932" lon="2.30533">
        <ele>70.476</ele>
        <time>2019-09-17T07:59:54.001Z</time>
      </trkpt>
      <trkpt lat="50.41937" lon="2.30558">
        <ele>71.473</ele>
        <time>2019-09-17T07:59:57.001Z</time>
      </trkpt>
      <trkpt lat="50.4194" lon="2.3058">
        <ele>72.235</ele>
        <time>2019-09-17T08:00:00.000Z</time>
      </trkpt>
      <trkpt lat="50.41943" lon="2.30603">
        <ele>73.038</ele>
        <time>2019-09-17T08:00:03.001Z</time>
      </trkpt>
      <trkpt lat="50.41946" lon="2.30625">
        <ele>72.99</ele>
        <time>2019-09-17T08:00:06.001Z</time>
      </trkpt>
      <trkpt lat="50.41948" lon="2.30649">
        <ele>72.716</ele>
        <time>2019-09-17T08:00:09.001Z</time>
      </trkpt>
      <trkpt lat="50.41952" lon="2.30672">
        <ele>72.285</ele>
        <time>2019-09-17T08:00:12.001Z</time>
      </trkpt>
      <trkpt lat="50.41955" lon="2.30694">
        <ele>71.973</ele>
        <time>2019-09-17T08:00:15.001Z</time>
      </trkpt>
      <trkpt lat="50.41958" lon="2.30716">
        <ele>71.236</ele>
        <time>2019-09-17T08:00:18.001Z</time>
      </trkpt>
      <trkpt lat="50.41961" lon="2.30739">
        <ele>71.283</ele>
        <time>2019-09-17T08:00:21.001Z</time>
      </trkpt>
      <trkpt lat="50.41964" lon="2.3076">
        <ele>70.958</ele>
        <time>2019-09-17T08:00:24.001Z</time>
      </trkpt>
      <trkpt lat="50.41967" lon="2.30782">
        <ele>70.819</ele>
        <time>2019-09-17T08:00:27.001Z</time>
      </trkpt>
      <trkpt lat="50.41968" lon="2.30803">
        <ele>70.634</ele>
        <time>2019-09-17T08:00:30.001Z</time>
      </trkpt>
      <trkpt lat="50.41968" lon="2.30825">
        <ele>70.779</ele>
        <time>2019-09-17T08:00:33.001Z</time>
      </trkpt>
      <trkpt lat="50.41967" lon="2.30846">
        <ele>71.086</ele>
        <time>2019-09-17T08:00:36.001Z</time>
      </trkpt>
      <trkpt lat="50.41966" lon="2.30864">
        <ele>71.827</ele>
        <time>2019-09-17T08:00:39.001Z</time>
      </trkpt>
      <trkpt lat="50.41965" lon="2.30882">
        <ele>72.158</ele>
        <time>2019-09-17T08:00:42.001Z</time>
      </trkpt>
      <trkpt lat="50.41965" lon="2.309">
        <ele>72.381</ele>
        <time>2019-09-17T08:00:45.001Z</time>
      </trkpt>
      <trkpt lat="50.41964" lon="2.30917">
        <ele>72.52</ele>
        <time>2019-09-17T08:00:48.001Z</time>
      </trkpt>
      <trkpt lat="50.41963" lon="2.30934">
        <ele>72.958</ele>
        <time>2019-09-17T08:00:51.001Z</time>
      </trkpt>
      <trkpt lat="50.41963" lon="2.3095">
        <ele>73.784</ele>
        <time>2019-09-17T08:00:54.001Z</time>
      </trkpt>
      <trkpt lat="50.41962" lon="2.30966">
        <ele>74.48</ele>
        <time>2019-09-17T08:00:57.001Z</time>
      </trkpt>
      <trkpt lat="50.41961" lon="2.30983">
        <ele>75.603</ele>
        <time>2019-09-17T08:01:00.000Z</time>
      </trkpt>
      <trkpt lat="50.4196" lon="2.31003">
        <ele>76.421</ele>
        <time>2019-09-17T08:01:03.001Z</time>
      </trkpt>
      <trkpt lat="50.41959" lon="2.31026">
        <ele>77.388</ele>
        <time>2019-09-17T08:01:06.001Z</time>
      </trkpt>
      <trkpt lat="50.41959" lon="2.31049">
        <ele>78.327</ele>
        <time>2019-09-17T08:01:09.001Z</time>
      </trkpt>
      <trkpt lat="50.41958" lon="2.31069">
        <ele>78.928</ele>
        <time>2019-09-17T08:01:12.001Z</time>
      </trkpt>
      <trkpt lat="50.41957" lon="2.3109">
        <ele>79.57</ele>
        <time>2019-09-17T08:01:15.001Z</time>
      </trkpt>
      <trkpt lat="50.41956" lon="2.3111">
        <ele>80.275</ele>
        <time>2019-09-17T08:01:18.001Z</time>
      </trkpt>
      <trkpt lat="50.41954" lon="2.31129">
        <ele>80.432</ele>
        <time>2019-09-17T08:01:21.001Z</time>
      </trkpt>
      <trkpt lat="50.41951" lon="2.3115">
        <ele>80.394</ele>
        <time>2019-09-17T08:01:24.001Z</time>
      </trkpt>
      <trkpt lat="50.41947" lon="2.31172">
        <ele>81.235</ele>
        <time>2019-09-17T08:01:27.001Z</time>
      </trkpt>
      <trkpt lat="50.41942" lon="2.31192">
        <ele>82.553</ele>
        <time>2019-09-17T08:01:30.001Z</time>
      </trkpt>
      <trkpt lat="50.41937" lon="2.31213">
        <ele>82.653</ele>
        <time>2019-09-17T08:01:33.001Z</time>
      </trkpt>
      <trkpt lat="50.41933" lon="2.31235">
        <ele>81.05</ele>
        <time>2019-09-17T08:01:36.001Z</time>
      </trkpt>
      <trkpt lat="50.41929" lon="2.31254">
        <ele>80.478</ele>
        <time>2019-09-17T08:01:39.001Z</time>
      </trkpt>
      <trkpt lat="50.41926" lon="2.31272">
        <ele>79.58</ele>
        <time>2019-09-17T08:01:42.001Z</time>
      </trkpt>
      <trkpt lat="50.41922" lon="2.31292">
        <ele>78.382</ele>
        <time>2019-09-17T08:01:45.001Z</time>
      </trkpt>
      <trkpt lat="50.41918" lon="2.31311">
        <ele>77.493</ele>
        <time>2019-09-17T08:01:48.001Z</time>
      </trkpt>
      <trkpt lat="50.41915" lon="2.31329">
        <ele>77.39</ele>
        <time>2019-09-17T08:01:51.001Z</time>
      </trkpt>
      <trkpt lat="50.41913" lon="2.3135">
        <ele>78.207</ele>
        <time>2019-09-17T08:01:54.001Z</time>
      </trkpt>
      <trkpt lat="50.4191" lon="2.31372">
        <ele>79.215</ele>
        <time>2019-09-17T08:01:57.001Z</time>
      </trkpt>
      <trkpt lat="50.41907" lon="2.31394">
        <ele>79.786</ele>
        <time>2019-09-17T08:02:00.000Z</time>
      </trkpt>
      <trkpt lat="50.41903" lon="2.31417">
        <ele>80.317</ele>
        <time>2019-09-17T08:02:03.001Z</time>
      </trkpt>
      <trkpt lat="50.41899" lon="2.31441">
        <ele>81.396</ele>
        <time>2019-09-17T08:02:06.001Z</time>
      </trkpt>
      <trkpt lat="50.41893" lon="2.31464">
        <ele>83.131</ele>
        <time>2019-09-17T08:02:09.001Z</time>
      </trkpt>
      <trkpt lat="50.41886" lon="2.31486">
        <ele>83.579</ele>
        <time>2019-09-17T08:02:12.001Z</time>
      </trkpt>
      <trkpt lat="50.4188" lon="2.31507">
        <ele>83.511</ele>
        <time>2019-09-17T08:02:15.001Z</time>
      </trkpt>
      <trkpt lat="50.41874" lon="2.31525">
        <ele>83.819</ele>
        <time>2019-09-17T08:02:18.001Z</time>
      </trkpt>
      <trkpt lat="50.41868" lon="2.31542">
        <ele>83.7</ele>
        <time>2019-09-17T08:02:21.001Z</time>
      </trkpt>
      <trkpt lat="50.41862" lon="2.31562">
        <ele>83.417</ele>
        <time>2019-09-17T08:02:24.001Z</time>
      </trkpt>
      <trkpt lat="50.41857" lon="2.31582">
        <ele>83.133</ele>
        <time>2019-09-17T08:02:27.001Z</time>
      </trkpt>
      <trkpt lat="50.41854" lon="2.31604">
        <ele>82.786</ele>
        <time>2019-09-17T08:02:30.001Z</time>
      </trkpt>
      <trkpt lat="50.41855" lon="2.31625">
        <ele>82.37</ele>
        <time>2019-09-17T08:02:33.001Z</time>
      </trkpt>
      <trkpt lat="50.41859" lon="2.31643">
        <ele>81.695</ele>
        <time>2019-09-17T08:02:36.001Z</time>
      </trkpt>
      <trkpt lat="50.41865" lon="2.31659">
        <ele>81.45</ele>
        <time>2019-09-17T08:02:39.001Z</time>
      </trkpt>
      <trkpt lat="50.41872" lon="2.31677">
        <ele>81.306</ele>
        <time>2019-09-17T08:02:42.001Z</time>
      </trkpt>
      <trkpt lat="50.41879" lon="2.31697">
        <ele>80.569</ele>
        <time>2019-09-17T08:02:45.001Z</time>
      </trkpt>
      <trkpt lat="50.41885" lon="2.31718">
        <ele>80.027</ele>
        <time>2019-09-17T08:02:48.001Z</time>
      </trkpt>
      <trkpt lat="50.41891" lon="2.31742">
        <ele>79.527</ele>
        <time>2019-09-17T08:02:51.001Z</time>
      </trkpt>
      <trkpt lat="50.41895" lon="2.31767">
        <ele>79.494</ele>
        <time>2019-09-17T08:02:54.001Z</time>
      </trkpt>
      <trkpt lat="50.41897" lon="2.31794">
        <ele>79.286</ele>
        <time>2019-09-17T08:02:57.001Z</time>
      </trkpt>
      <trkpt lat="50.41896" lon="2.3182">
        <ele>78.892</ele>
        <time>2019-09-17T08:03:00.000Z</time>
      </trkpt>
      <trkpt lat="50.41896" lon="2.31847">
        <ele>79.078</ele>
        <time>2019-09-17T08:03:03.001Z</time>
      </trkpt>
      <trkpt lat="50.41894" lon="2.31871">
        <ele>79.382</ele>
        <time>2019-09-17T08:03:06.001Z</time>
      </trkpt>
      <trkpt lat="50.41891" lon="2.31893">
        <ele>78.674</ele>
        <time>2019-09-17T08:03:09.001Z</time>
      </trkpt>
      <trkpt lat="50.41887" lon="2.31917">
        <ele>78.476</ele>
        <time>2019-09-17T08:03:12.001Z</time>
      </trkpt>
      <trkpt lat="50.41885" lon="2.31941">
        <ele>79.354</ele>
        <time>2019-09-17T08:03:15.001Z</time>
      </trkpt>
      <trkpt lat="50.41881" lon="2.31965">
        <ele>79.505</ele>
        <time>2019-09-17T08:03:18.001Z</time>
      </trkpt>
      <trkpt lat="50.41875" lon="2.3199">
        <ele>79.262</ele>
        <time>2019-09-17T08:03:21.001Z</time>
      </trkpt>
      <trkpt lat="50.41868" lon="2.32013">
        <ele>79.963</ele>
        <time>2019-09-17T08:03:24.001Z</time>
      </trkpt>
      <trkpt lat="50.41861" lon="2.32033">
        <ele>80.307</ele>
        <time>2019-09-17T08:03:27.001Z</time>
      </trkpt>
      <trkpt lat="50.41853" lon="2.32054">
        <ele>80.664</ele>
        <time>2019-09-17T08:03:30.001Z</time>
      </trkpt>
      <trkpt lat="50.41845" lon="2.32074">
        <ele>80.748</ele>
        <time>2019-09-17T08:03:33.001Z</time>
      </trkpt>
      <trkpt lat="50.41836" lon="2.32093">
        <ele>80.901</ele>
        <time>2019-09-17T08:03:36.001Z</time>
      </trkpt>
      <trkpt lat="50.41828" lon="2.32113">
        <ele>80.73</ele>
        <time>2019-09-17T08:03:39.001Z</time>
      </trkpt>
      <trkpt lat="50.4182" lon="2.32132">
        <ele>80.434</ele>
        <time>2019-09-17T08:03:42.001Z</time>
      </trkpt>
      <trkpt lat="50.41812" lon="2.32152">
        <ele>80.454</ele>
        <time>2019-09-17T08:03:45.001Z</time>
      </trkpt>
      <trkpt lat="50.41805" lon="2.32172">
        <ele>81.123</ele>
        <time>2019-09-17T08:03:48.001Z</time>
      </trkpt>
      <trkpt lat="50.41797" lon="2.32191">
        <ele>82.136</ele>
        <time>2019-09-17T08:03:51.001Z</time>
      </trkpt>
      <trkpt lat="50.41788" lon="2.32207">
        <ele>81.659</ele>
        <time>2019-09-17T08:03:54.001Z</time>
      </trkpt>
      <trkpt lat="50.41778" lon="2.32223">
        <ele>81.188</ele>
        <time>2019-09-17T08:03:57.001Z</time>
      </trkpt>
      <trkpt lat="50.41768" lon="2.32241">
        <ele>81.863</ele>
        <time>2019-09-17T08:04:00.000Z</time>
      </trkpt>
      <trkpt lat="50.41758" lon="2.32257">
        <ele>82.183</ele>
        <time>2019-09-17T08:04:03.001Z</time>
      </trkpt>
      <trkpt lat="50.41746" lon="2.32272">
        <ele>82.481</ele>
        <time>2019-09-17T08:04:06.001Z</time>
      </trkpt>
      <trkpt lat="50.41733" lon="2.32287">
        <ele>82.694</ele>
        <time>2019-09-17T08:04:09.001Z</time>
      </trkpt>
      <trkpt lat="50.41723" lon="2.32303">
        <ele>82.759</ele>
        <time>2019-09-17T08:04:12.001Z</time>
      </trkpt>
      <trkpt lat="50.41713" lon="2.3232">
        <ele>82.71</ele>
        <time>2019-09-17T08:04:15.001Z</time>
      </trkpt>
      <trkpt lat="50.41703" lon="2.32337">
        <ele>82.818</ele>
        <time>2019-09-17T08:04:18.001Z</time>
      </trkpt>
      <trkpt lat="50.41694" lon="2.32355">
        <ele>83.063</ele>
        <time>2019-09-17T08:04:21.001Z</time>
      </trkpt>
      <trkpt lat="50.41687" lon="2.32375">
        <ele>82.719</ele>
        <time>2019-09-17T08:04:24.001Z</time>
      </trkpt>
      <trkpt lat="50.41681" lon="2.32395">
        <ele>82.438</ele>
        <time>2019-09-17T08:04:27.001Z</time>
      </trkpt>
      <trkpt lat="50.41675" lon="2.32416">
        <ele>82.109</ele>
        <time>2019-09-17T08:04:30.001Z</time>
      </trkpt>
      <trkpt lat="50.41669" lon="2.32437">
        <ele>81.767</ele>
        <time>2019-09-17T08:04:33.001Z</time>
      </trkpt>
      <trkpt lat="50.41664" lon="2.32458">
        <ele>81.728</ele>
        <time>2019-09-17T08:04:36.001Z</time>
      </trkpt>
      <trkpt lat="50.41658" lon="2.32477">
        <ele>82.005</ele>
        <time>2019-09-17T08:04:39.001Z</time>
      </trkpt>
      <trkpt lat="50.41652" lon="2.32497">
        <ele>82.196</ele>
        <time>2019-09-17T08:04:42.001Z</time>
      </trkpt>
      <trkpt lat="50.41647" lon="2.32517">
        <ele>82.219</ele>
        <time>2019-09-17T08:04:45.001Z</time>
      </trkpt>
      <trkpt lat="50.41645" lon="2.32537">
        <ele>82.707</ele>
        <time>2019-09-17T08:04:48.001Z</time>
      </trkpt>
      <trkpt lat="50.41645" lon="2.32557">
        <ele>83.379</ele>
        <time>2019-09-17T08:04:51.001Z</time>
      </trkpt>
      <trkpt lat="50.41646" lon="2.32577">
        <ele>84.034</ele>
        <time>2019-09-17T08:04:54.001Z</time>
      </trkpt>
      <trkpt lat="50.41649" lon="2.32598">
        <ele>84.852</ele>
        <time>2019-09-17T08:04:57.001Z</time>
      </trkpt>
      <trkpt lat="50.41652" lon="2.32619">
        <ele>85.607</ele>
        <time>2019-09-17T08:05:00.000Z</time>
      </trkpt>
      <trkpt lat="50.41655" lon="2.32641">
        <ele>86.295</ele>
        <time>2019-09-17T08:05:03.001Z</time>
      </trkpt>
      <trkpt lat="50.41657" lon="2.32663">
        <ele>86.865</ele>
        <time>2019-09-17T08:05:06.001Z</time>
      </trkpt>
      <trkpt lat="50.41661" lon="2.32685">
        <ele>86.959</ele>
        <time>2019-09-17T08:05:09.001Z</time>
      </trkpt>
      <trkpt lat="50.41664" lon="2.32708">
        <ele>86.426</ele>
        <time>2019-09-17T08:05:12.001Z</time>
      </trkpt>
      <trkpt lat="50.41664" lon="2.3273">
        <ele>86.611</ele>
        <time>2019-09-17T08:05:15.001Z</time>
      </trkpt>
      <trkpt lat="50.41662" lon="2.32753">
        <ele>86.791</ele>
        <time>2019-09-17T08:05:18.001Z</time>
      </trkpt>
      <trkpt lat="50.41657" lon="2.32774">
        <ele>86.367</ele>
        <time>2019-09-17T08:05:21.001Z</time>
      </trkpt>
      <trkpt lat="50.41652" lon="2.32795">
        <ele>86.277</ele>
        <time>2019-09-17T08:05:24.001Z</time>
      </trkpt>
      <trkpt lat="50.41647" lon="2.32815">
        <ele>86.158</ele>
        <time>2019-09-17T08:05:27.001Z</time>
      </trkpt>
      <trkpt lat="50.41642" lon="2.32835">
        <ele>85.921</ele>
        <time>2019-09-17T08:05:30.001Z</time>
      </trkpt>
      <trkpt lat="50.41638" lon="2.32855">
        <ele>85.387</ele>
        <time>2019-09-17T08:05:33.001Z</time>
      </trkpt>
      <trkpt lat="50.41635" lon="2.32875">
        <ele>85.585</ele>
        <time>2019-09-17T08:05:36.001Z</time>
      </trkpt>
      <trkpt lat="50.41631" lon="2.32897">
        <ele>86.428</ele>
        <time>2019-09-17T08:05:39.001Z</time>
      </trkpt>
      <trkpt lat="50.4163" lon="2.32918">
        <ele>86.59</ele>
        <time>2019-09-17T08:05:42.001Z</time>
      </trkpt>
      <trkpt lat="50.41629" lon="2.32939">
        <ele>86.82</ele>
        <time>2019-09-17T08:05:45.001Z</time>
      </trkpt>
      <trkpt lat="50.41628" lon="2.32959">
        <ele>86.993</ele>
        <time>2019-09-17T08:05:48.001Z</time>
      </trkpt>
      <trkpt lat="50.41626" lon="2.3298">
        <ele>86.954</ele>
        <time>2019-09-17T08:05:51.001Z</time>
      </trkpt>
      <trkpt lat="50.41624" lon="2.33001">
        <ele>87.153</ele>
        <time>2019-09-17T08:05:54.001Z</time>
      </trkpt>
      <trkpt lat="50.41622" lon="2.33021">
        <ele>86.558</ele>
        <time>2019-09-17T08:05:57.001Z</time>
      </trkpt>
      <trkpt lat="50.41619" lon="2.33043">
        <ele>86.545</ele>
        <time>2019-09-17T08:06:00.000Z</time>
      </trkpt>
      <trkpt lat="50.41614" lon="2.33065">
        <ele>86.042</ele>
        <time>2019-09-17T08:06:03.001Z</time>
      </trkpt>
      <trkpt lat="50.4161" lon="2.33086">
        <ele>85.251</ele>
        <time>2019-09-17T08:06:06.001Z</time>
      </trkpt>
      <trkpt lat="50.41606" lon="2.33106">
        <ele>85.205</ele>
        <time>2019-09-17T08:06:09.001Z</time>
      </trkpt>
      <trkpt lat="50.41602" lon="2.33127">
        <ele>85.86</ele>
        <time>2019-09-17T08:06:12.001Z</time>
      </trkpt>
      <trkpt lat="50.416" lon="2.33147">
        <ele>86.257</ele>
        <time>2019-09-17T08:06:15.001Z</time>
      </trkpt>
      <trkpt lat="50.41599" lon="2.33168">
        <ele>86.701</ele>
        <time>2019-09-17T08:06:18.001Z</time>
      </trkpt>
      <trkpt lat="50.416" lon="2.33188">
        <ele>86.957</ele>
        <time>2019-09-17T08:06:21.001Z</time>
      </trkpt>
      <trkpt lat="50.41599" lon="2.33206">
        <ele>87.255</ele>
        <time>2019-09-17T08:06:24.001Z</time>
      </trkpt>
      <trkpt lat="50.41597" lon="2.33225">
        <ele>87.855</ele>
        <time>2019-09-17T08:06:27.001Z</time>
      </trkpt>
      <trkpt lat="50.41596" lon="2.33244">
        <ele>88.333</ele>
        <time>2019-09-17T08:06:30.001Z</time>
      </trkpt>
      <trkpt lat="50.41595" lon="2.33265">
        <ele>86.988</ele>
        <time>2019-09-17T08:06:33.001Z</time>
      </trkpt>
      <trkpt lat="50.41595" lon="2.33286">
        <ele>85.756</ele>
        <time>2019-09-17T08:06:36.001Z</time>
      </trkpt>
      <trkpt lat="50.41596" lon="2.33307">
        <ele>85.417</ele>
        <time>2019-09-17T08:06:39.001Z</time>
      </trkpt>
      <trkpt lat="50.41597" lon="2.33327">
        <ele>85.14</ele>
        <time>2019-09-17T08:06:42.001Z</time>
      </trkpt>
      <trkpt lat="50.41599" lon="2.33346">
        <ele>85.282</ele>
        <time>2019-09-17T08:06:45.001Z</time>
      </trkpt>
      <trkpt lat="50.41601" lon="2.33364">
        <ele>85.792</ele>
        <time>2019-09-17T08:06:48.001Z</time>
      </trkpt>
      <trkpt lat="50.41606" lon="2.33382">
        <ele>86.682</ele>
        <time>2019-09-17T08:06:51.001Z</time>
      </trkpt>
      <trkpt lat="50.41609" lon="2.33399">
        <ele>87.552</ele>
        <time>2019-09-17T08:06:54.001Z</time>
      </trkpt>
      <trkpt lat="50.41613" lon="2.33412">
        <ele>88.159</ele>
        <time>2019-09-17T08:06:57.001Z</time>
      </trkpt>
      <trkpt lat="50.41617" lon="2.33427">
        <ele>89.389</ele>
        <time>2019-09-17T08:07:00.000Z</time>
      </trkpt>
      <trkpt lat="50.4162" lon="2.33445">
        <ele>90.938</ele>
        <time>2019-09-17T08:07:03.001Z</time>
      </trkpt>
      <trkpt lat="50.41623" lon="2.33464">
        <ele>91.573</ele>
        <time>2019-09-17T08:07:06.001Z</time>
      </trkpt>
      <trkpt lat="50.41626" lon="2.33485">
        <ele>93.117</ele>
        <time>2019-09-17T08:07:09.001Z</time>
      </trkpt>
      <trkpt lat="50.41629" lon="2.33507">
        <ele>94.042</ele>
        <time>2019-09-17T08:07:12.001Z</time>
      </trkpt>
      <trkpt lat="50.41633" lon="2.33526">
        <ele>94.398</ele>
        <time>2019-09-17T08:07:15.001Z</time>
      </trkpt>
      <trkpt lat="50.41635" lon="2.33546">
        <ele>94.478</ele>
        <time>2019-09-17T08:07:18.001Z</time>
      </trkpt>
      <trkpt lat="50.41638" lon="2.33567">
        <ele>94.996</ele>
        <time>2019-09-17T08:07:21.001Z</time>
      </trkpt>
      <trkpt lat="50.41639" lon="2.33587">
        <ele>95.477</ele>
        <time>2019-09-17T08:07:24.001Z</time>
      </trkpt>
      <trkpt lat="50.41641" lon="2.33607">
        <ele>95.56</ele>
        <time>2019-09-17T08:07:27.001Z</time>
      </trkpt>
      <trkpt lat="50.41642" lon="2.33626">
        <ele>96.28</ele>
        <time>2019-09-17T08:07:30.001Z</time>
      </trkpt>
      <trkpt lat="50.41642" lon="2.33646">
        <ele>96.485</ele>
        <time>2019-09-17T08:07:33.001Z</time>
      </trkpt>
      <trkpt lat="50.41641" lon="2.33665">
        <ele>97.162</ele>
        <time>2019-09-17T08:07:36.001Z</time>
      </trkpt>
      <trkpt lat="50.41641" lon="2.33684">
        <ele>97.926</ele>
        <time>2019-09-17T08:07:39.001Z</time>
      </trkpt>
      <trkpt lat="50.41639" lon="2.33706">
        <ele>97.086</ele>
        <time>2019-09-17T08:07:42.001Z</time>
      </trkpt>
      <trkpt lat="50.41639" lon="2.33729">
        <ele>96.112</ele>
        <time>2019-09-17T08:07:45.001Z</time>
      </trkpt>
      <trkpt lat="50.41638" lon="2.3375">
        <ele>95.288</ele>
        <time>2019-09-17T08:07:48.001Z</time>
      </trkpt>
      <trkpt lat="50.41635" lon="2.3377">
        <ele>93.387</ele>
        <time>2019-09-17T08:07:51.001Z</time>
      </trkpt>
      <trkpt lat="50.41629" lon="2.3379">
        <ele>91.436</ele>
        <time>2019-09-17T08:07:54.001Z</time>
      </trkpt>
      <trkpt lat="50.41624" lon="2.33808">
        <ele>92.449</ele>
        <time>2019-09-17T08:07:57.001Z</time>
      </trkpt>
      <trkpt lat="50.41622" lon="2.33821">
        <ele>92.834</ele>
        <time>2019-09-17T08:08:00.000Z</time>
      </trkpt>
      <trkpt lat="50.4162" lon="2.33831">
        <ele>93.05</ele>
        <time>2019-09-17T08:08:03.001Z</time>
      </trkpt>
      <trkpt lat="50.41617" lon="2.33844">
        <ele>93.481</ele>
        <time>2019-09-17T08:08:06.001Z</time>
      </trkpt>
      <trkpt lat="50.41612" lon="2.33858">
        <ele>95.478</ele>
        <time>2019-09-17T08:08:09.001Z</time>
      </trkpt>
      <trkpt lat="50.41609" lon="2.33876">
        <ele>96.566</ele>
        <time>2019-09-17T08:08:12.001Z</time>
      </trkpt>
      <trkpt lat="50.41606" lon="2.33894">
        <ele>96.152</ele>
        <time>2019-09-17T08:08:15.001Z</time>
      </trkpt>
      <trkpt lat="50.41602" lon="2.33911">
        <ele>97.149</ele>
        <time>2019-09-17T08:08:18.001Z</time>
      </trkpt>
      <trkpt lat="50.41598" lon="2.33928">
        <ele>98.662</ele>
        <time>2019-09-17T08:08:21.001Z</time>
      </trkpt>
      <trkpt lat="50.41594" lon="2.33944">
        <ele>99.353</ele>
        <time>2019-09-17T08:08:24.001Z</time>
      </trkpt>
      <trkpt lat="50.41591" lon="2.33963">
        <ele>97.57</ele>
        <time>2019-09-17T08:08:27.001Z</time>
      </trkpt>
      <trkpt lat="50.41587" lon="2.33979">
        <ele>96.934</ele>
        <time>2019-09-17T08:08:30.001Z</time>
      </trkpt>
      <trkpt lat="50.41583" lon="2.33994">
        <ele>96.249</ele>
        <time>2019-09-17T08:08:33.001Z</time>
      </trkpt>
      <trkpt lat="50.4158" lon="2.3401">
        <ele>94.75</ele>
        <time>2019-09-17T08:08:36.001Z</time>
      </trkpt>
      <trkpt lat="50.41577" lon="2.34025">
        <ele>94.361</ele>
        <time>2019-09-17T08:08:39.001Z</time>
      </trkpt>
      <trkpt lat="50.41573" lon="2.34041">
        <ele>94.432</ele>
        <time>2019-09-17T08:08:42.001Z</time>
      </trkpt>
      <trkpt lat="50.41569" lon="2.34057">
        <ele>94.245</ele>
        <time>2019-09-17T08:08:45.001Z</time>
      </trkpt>
      <trkpt lat="50.41566" lon="2.34073">
        <ele>94.247</ele>
        <time>2019-09-17T08:08:48.001Z</time>
      </trkpt>
      <trkpt lat="50.41563" lon="2.34087">
        <ele>93.358</ele>
        <time>2019-09-17T08:08:51.001Z</time>
      </trkpt>
      <trkpt lat="50.4156" lon="2.34103">
        <ele>93.244</ele>
        <time>2019-09-17T08:08:54.001Z</time>
      </trkpt>
      <trkpt lat="50.41556" lon="2.34119">
        <ele>93.079</ele>
        <time>2019-09-17T08:08:57.001Z</time>
      </trkpt>
      <trkpt lat="50.41552" lon="2.34135">
        <ele>93.52</ele>
        <time>2019-09-17T08:09:00.000Z</time>
      </trkpt>
      <trkpt lat="50.4155" lon="2.3415">
        <ele>94.403</ele>
        <time>2019-09-17T08:09:03.001Z</time>
      </trkpt>
      <trkpt lat="50.41548" lon="2.34168">
        <ele>95.498</ele>
        <time>2019-09-17T08:09:06.001Z</time>
      </trkpt>
      <trkpt lat="50.41544" lon="2.34184">
        <ele>96.427</ele>
        <time>2019-09-17T08:09:09.001Z</time>
      </trkpt>
      <trkpt lat="50.4154" lon="2.342">
        <ele>96.874</ele>
        <time>2019-09-17T08:09:12.001Z</time>
      </trkpt>
      <trkpt lat="50.41538" lon="2.34217">
        <ele>97.142</ele>
        <time>2019-09-17T08:09:15.001Z</time>
      </trkpt>
      <trkpt lat="50.41536" lon="2.3423">
        <ele>97.897</ele>
        <time>2019-09-17T08:09:18.001Z</time>
      </trkpt>
      <trkpt lat="50.41534" lon="2.34241">
        <ele>99.042</ele>
        <time>2019-09-17T08:09:21.001Z</time>
      </trkpt>
      <trkpt lat="50.41532" lon="2.3425">
        <ele>99.544</ele>
        <time>2019-09-17T08:09:24.001Z</time>
      </trkpt>
      <trkpt lat="50.41532" lon="2.34253">
        <ele>99.735</ele>
        <time>2019-09-17T08:09:27.001Z</time>
      </trkpt>
      <trkpt lat="50.41532" lon="2.34253">
        <ele>99.883</ele>
        <time>2019-09-17T08:09:30.001Z</time>
      </trkpt>
      <trkpt lat="50.41532" lon="2.34253">
        <ele>99.883</ele>
        <time>2019-09-17T08:10:42.001Z</time>
      </trkpt>
      <trkpt lat="50.41533" lon="2.34253">
        <ele>99.927</ele>
        <time>2019-09-17T08:10:45.001Z</time>
      </trkpt>
      <trkpt lat="50.41533" lon="2.34253">
        <ele>99.955</ele>
        <time>2019-09-17T08:10:48.001Z</time>
      </trkpt>
      <trkpt lat="50.41531" lon="2.34254">
        <ele>99.787</ele>
        <time>2019-09-17T08:11:09.001Z</time>
      </trkpt>
      <trkpt lat="50.41531" lon="2.34254">
        <ele>99.954</ele>
        <time>2019-09-17T08:11:12.001Z</time>
      </trkpt>
      <trkpt lat="50.4153" lon="2.34253">
        <ele>100.243</ele>
        <time>2019-09-17T08:11:15.001Z</time>
      </trkpt>
      <trkpt lat="50.4153" lon="2.34253">
        <ele>100.209</ele>
        <time>2019-09-17T08:12:00.000Z</time>
      </trkpt>
      <trkpt lat="50.41528" lon="2.34273">
        <ele>100.52</ele>
        <time>2019-09-17T08:12:03.001Z</time>
      </trkpt>
      <trkpt lat="50.41527" lon="2.34288">
        <ele>99.485</ele>
        <time>2019-09-17T08:12:06.001Z</time>
      </trkpt>
      <trkpt lat="50.41525" lon="2.34301">
        <ele>99.348</ele>
        <time>2019-09-17T08:12:09.001Z</time>
      </trkpt>
      <trkpt lat="50.41523" lon="2.34314">
        <ele>98.85</ele>
        <time>2019-09-17T08:12:12.001Z</time>
      </trkpt>
      <trkpt lat="50.41521" lon="2.34328">
        <ele>99.298</ele>
        <time>2019-09-17T08:12:15.001Z</time>
      </trkpt>
      <trkpt lat="50.4152" lon="2.34343">
        <ele>99.096</ele>
        <time>2019-09-17T08:12:18.001Z</time>
      </trkpt>
      <trkpt lat="50.4152" lon="2.34358">
        <ele>99.196</ele>
        <time>2019-09-17T08:12:21.001Z</time>
      </trkpt>
      <trkpt lat="50.41519" lon="2.34372">
        <ele>99.35</ele>
        <time>2019-09-17T08:12:24.001Z</time>
      </trkpt>
      <trkpt lat="50.41518" lon="2.34384">
        <ele>99.754</ele>
        <time>2019-09-17T08:12:27.001Z</time>
      </trkpt>
      <trkpt lat="50.41518" lon="2.34396">
        <ele>100.217</ele>
        <time>2019-09-17T08:12:30.001Z</time>
      </trkpt>
      <trkpt lat="50.41518" lon="2.34405">
        <ele>100.567</ele>
        <time>2019-09-17T08:12:33.001Z</time>
      </trkpt>
      <trkpt lat="50.4152" lon="2.34408">
        <ele>101.611</ele>
        <time>2019-09-17T08:12:36.001Z</time>
      </trkpt>
      <trkpt lat="50.4152" lon="2.34404">
        <ele>101.689</ele>
        <time>2019-09-17T08:12:39.001Z</time>
      </trkpt>
      <trkpt lat="50.4152" lon="2.34404">
        <ele>101.689</ele>
        <time>2019-09-17T08:12:51.001Z</time>
      </trkpt>
      <trkpt lat="50.4152" lon="2.344">
        <ele>101.853</ele>
        <time>2019-09-17T08:12:54.001Z</time>
      </trkpt>
      <trkpt lat="50.41519" lon="2.34389">
        <ele>102.694</ele>
        <time>2019-09-17T08:12:57.001Z</time>
      </trkpt>
      <trkpt lat="50.4152" lon="2.34375">
        <ele>102.71</ele>
        <time>2019-09-17T08:13:00.000Z</time>
      </trkpt>
      <trkpt lat="50.41522" lon="2.34358">
        <ele>103.008</ele>
        <time>2019-09-17T08:13:03.001Z</time>
      </trkpt>
      <trkpt lat="50.41524" lon="2.3434">
        <ele>103.118</ele>
        <time>2019-09-17T08:13:06.001Z</time>
      </trkpt>
      <trkpt lat="50.41525" lon="2.3432">
        <ele>103.14</ele>
        <time>2019-09-17T08:13:09.001Z</time>
      </trkpt>
      <trkpt lat="50.41526" lon="2.343">
        <ele>103.532</ele>
        <time>2019-09-17T08:13:12.001Z</time>
      </trkpt>
      <trkpt lat="50.41528" lon="2.34279">
        <ele>103.806</ele>
        <time>2019-09-17T08:13:15.001Z</time>
      </trkpt>
      <trkpt lat="50.41534" lon="2.34264">
        <ele>104.011</ele>
        <time>2019-09-17T08:13:18.001Z</time>
      </trkpt>
      <trkpt lat="50.41544" lon="2.34257">
        <ele>103.203</ele>
        <time>2019-09-17T08:13:21.001Z</time>
      </trkpt>
      <trkpt lat="50.4155" lon="2.34251">
        <ele>104.568</ele>
        <time>2019-09-17T08:13:24.001Z</time>
      </trkpt>
      <trkpt lat="50.41556" lon="2.34245">
        <ele>103.731</ele>
        <time>2019-09-17T08:13:27.001Z</time>
      </trkpt>
      <trkpt lat="50.41561" lon="2.34237">
        <ele>102.596</ele>
        <time>2019-09-17T08:13:30.001Z</time>
      </trkpt>
      <trkpt lat="50.41566" lon="2.34229">
        <ele>102.78</ele>
        <time>2019-09-17T08:13:33.001Z</time>
      </trkpt>
      <trkpt lat="50.41571" lon="2.3422">
        <ele>102.704</ele>
        <time>2019-09-17T08:13:36.001Z</time>
      </trkpt>
      <trkpt lat="50.41575" lon="2.34214">
        <ele>103.032</ele>
        <time>2019-09-17T08:13:39.001Z</time>
      </trkpt>
      <trkpt lat="50.4158" lon="2.34209">
        <ele>103.295</ele>
        <time>2019-09-17T08:13:42.001Z</time>
      </trkpt>
      <trkpt lat="50.41588" lon="2.34208">
        <ele>102.897</ele>
        <time>2019-09-17T08:13:45.001Z</time>
      </trkpt>
      <trkpt lat="50.41591" lon="2.34202">
        <ele>103.192</ele>
        <time>2019-09-17T08:13:48.001Z</time>
      </trkpt>
      <trkpt lat="50.41594" lon="2.34196">
        <ele>103.924</ele>
        <time>2019-09-17T08:13:51.001Z</time>
      </trkpt>
      <trkpt lat="50.41598" lon="2.3419">
        <ele>104.85</ele>
        <time>2019-09-17T08:13:54.001Z</time>
      </trkpt>
      <trkpt lat="50.41602" lon="2.34183">
        <ele>105.281</ele>
        <time>2019-09-17T08:13:57.001Z</time>
      </trkpt>
      <trkpt lat="50.41605" lon="2.34177">
        <ele>106.557</ele>
        <time>2019-09-17T08:14:00.000Z</time>
      </trkpt>
      <trkpt lat="50.41609" lon="2.34172">
        <ele>107.264</ele>
        <time>2019-09-17T08:14:03.001Z</time>
      </trkpt>
      <trkpt lat="50.41613" lon="2.34166">
        <ele>108.007</ele>
        <time>2019-09-17T08:14:06.001Z</time>
      </trkpt>
      <trkpt lat="50.41616" lon="2.34159">
        <ele>108.09</ele>
        <time>2019-09-17T08:14:09.001Z</time>
      </trkpt>
      <trkpt lat="50.41619" lon="2.34153">
        <ele>107.914</ele>
        <time>2019-09-17T08:14:12.001Z</time>
      </trkpt>
      <trkpt lat="50.41623" lon="2.34147">
        <ele>109.11</ele>
        <time>2019-09-17T08:14:15.001Z</time>
      </trkpt>
      <trkpt lat="50.41628" lon="2.34141">
        <ele>109.731</ele>
        <time>2019-09-17T08:14:18.001Z</time>
      </trkpt>
      <trkpt lat="50.41633" lon="2.34135">
        <ele>110.902</ele>
        <time>2019-09-17T08:14:21.001Z</time>
      </trkpt>
      <trkpt lat="50.41639" lon="2.3413">
        <ele>112.004</ele>
        <time>2019-09-17T08:14:24.001Z</time>
      </trkpt>
      <trkpt lat="50.41644" lon="2.34125">
        <ele>113.34</ele>
        <time>2019-09-17T08:14:27.001Z</time>
      </trkpt>
      <trkpt lat="50.41655" lon="2.3412">
        <ele>114.102</ele>
        <time>2019-09-17T08:14:33.001Z</time>
      </trkpt>
      <trkpt lat="50.4166" lon="2.34118">
        <ele>114.865</ele>
        <time>2019-09-17T08:14:36.001Z</time>
      </trkpt>
      <trkpt lat="50.41666" lon="2.34118">
        <ele>115.853</ele>
        <time>2019-09-17T08:14:39.001Z</time>
      </trkpt>
      <trkpt lat="50.41672" lon="2.34117">
        <ele>116.193</ele>
        <time>2019-09-17T08:14:42.001Z</time>
      </trkpt>
      <trkpt lat="50.41678" lon="2.34117">
        <ele>118.06</ele>
        <time>2019-09-17T08:14:45.001Z</time>
      </trkpt>
      <trkpt lat="50.41684" lon="2.34118">
        <ele>119.338</ele>
        <time>2019-09-17T08:14:48.001Z</time>
      </trkpt>
      <trkpt lat="50.41689" lon="2.34118">
        <ele>120.77</ele>
        <time>2019-09-17T08:14:51.001Z</time>
      </trkpt>
      <trkpt lat="50.41695" lon="2.34119">
        <ele>123.325</ele>
        <time>2019-09-17T08:14:54.001Z</time>
      </trkpt>
      <trkpt lat="50.41702" lon="2.34121">
        <ele>124.647</ele>
        <time>2019-09-17T08:14:57.001Z</time>
      </trkpt>
      <trkpt lat="50.41709" lon="2.34123">
        <ele>125.004</ele>
        <time>2019-09-17T08:15:00.000Z</time>
      </trkpt>
      <trkpt lat="50.41716" lon="2.34124">
        <ele>125.953</ele>
        <time>2019-09-17T08:15:03.001Z</time>
      </trkpt>
      <trkpt lat="50.41722" lon="2.34126">
        <ele>126.255</ele>
        <time>2019-09-17T08:15:06.001Z</time>
      </trkpt>
      <trkpt lat="50.41731" lon="2.34126">
        <ele>125.568</ele>
        <time>2019-09-17T08:15:09.001Z</time>
      </trkpt>
      <trkpt lat="50.41739" lon="2.3413">
        <ele>124.957</ele>
        <time>2019-09-17T08:15:12.001Z</time>
      </trkpt>
      <trkpt lat="50.41747" lon="2.34132">
        <ele>124.699</ele>
        <time>2019-09-17T08:15:15.001Z</time>
      </trkpt>
      <trkpt lat="50.41755" lon="2.34134">
        <ele>124.289</ele>
        <time>2019-09-17T08:15:18.001Z</time>
      </trkpt>
      <trkpt lat="50.41764" lon="2.34137">
        <ele>124.973</ele>
        <time>2019-09-17T08:15:21.001Z</time>
      </trkpt>
      <trkpt lat="50.41771" lon="2.34139">
        <ele>126.661</ele>
        <time>2019-09-17T08:15:24.001Z</time>
      </trkpt>
      <trkpt lat="50.41778" lon="2.34142">
        <ele>127.782</ele>
        <time>2019-09-17T08:15:27.001Z</time>
      </trkpt>
      <trkpt lat="50.41783" lon="2.34145">
        <ele>128.205</ele>
        <time>2019-09-17T08:15:30.001Z</time>
      </trkpt>
      <trkpt lat="50.4179" lon="2.34148">
        <ele>127.908</ele>
        <time>2019-09-17T08:15:33.001Z</time>
      </trkpt>
      <trkpt lat="50.41798" lon="2.34153">
        <ele>127.946</ele>
        <time>2019-09-17T08:15:36.001Z</time>
      </trkpt>
      <trkpt lat="50.41805" lon="2.34157">
        <ele>127.071</ele>
        <time>2019-09-17T08:15:39.001Z</time>
      </trkpt>
      <trkpt lat="50.41812" lon="2.3416">
        <ele>125.999</ele>
        <time>2019-09-17T08:15:42.001Z</time>
      </trkpt>
      <trkpt lat="50.41817" lon="2.3416">
        <ele>125.505</ele>
        <time>2019-09-17T08:15:45.001Z</time>
      </trkpt>
      <trkpt lat="50.41823" lon="2.34162">
        <ele>125.322</ele>
        <time>2019-09-17T08:15:48.001Z</time>
      </trkpt>
      <trkpt lat="50.41829" lon="2.34164">
        <ele>125.797</ele>
        <time>2019-09-17T08:15:51.001Z</time>
      </trkpt>
      <trkpt lat="50.41837" lon="2.34168">
        <ele>126.33</ele>
        <time>2019-09-17T08:15:54.001Z</time>
      </trkpt>
      <trkpt lat="50.41846" lon="2.34172">
        <ele>126.083</ele>
        <time>2019-09-17T08:15:57.001Z</time>
      </trkpt>
      <trkpt lat="50.41851" lon="2.34174">
        <ele>125.874</ele>
        <time>2019-09-17T08:16:00.000Z</time>
      </trkpt>
      <trkpt lat="50.41858" lon="2.34177">
        <ele>125.241</ele>
        <time>2019-09-17T08:16:03.001Z</time>
      </trkpt>
      <trkpt lat="50.41866" lon="2.34183">
        <ele>124.618</ele>
        <time>2019-09-17T08:16:06.001Z</time>
      </trkpt>
      <trkpt lat="50.41876" lon="2.3419">
        <ele>124.653</ele>
        <time>2019-09-17T08:16:09.001Z</time>
      </trkpt>
      <trkpt lat="50.41887" lon="2.34195">
        <ele>124.24</ele>
        <time>2019-09-17T08:16:12.001Z</time>
      </trkpt>
      <trkpt lat="50.41894" lon="2.34201">
        <ele>123.75</ele>
        <time>2019-09-17T08:16:15.001Z</time>
      </trkpt>
      <trkpt lat="50.419" lon="2.34205">
        <ele>123.119</ele>
        <time>2019-09-17T08:16:18.001Z</time>
      </trkpt>
      <trkpt lat="50.41908" lon="2.34211">
        <ele>121.591</ele>
        <time>2019-09-17T08:16:21.001Z</time>
      </trkpt>
      <trkpt lat="50.41917" lon="2.34218">
        <ele>119.994</ele>
        <time>2019-09-17T08:16:24.001Z</time>
      </trkpt>
      <trkpt lat="50.41924" lon="2.34224">
        <ele>118.923</ele>
        <time>2019-09-17T08:16:27.001Z</time>
      </trkpt>
      <trkpt lat="50.4193" lon="2.3423">
        <ele>119.306</ele>
        <time>2019-09-17T08:16:30.001Z</time>
      </trkpt>
      <trkpt lat="50.41936" lon="2.34236">
        <ele>120.359</ele>
        <time>2019-09-17T08:16:33.001Z</time>
      </trkpt>
      <trkpt lat="50.41942" lon="2.34241">
        <ele>120.338</ele>
        <time>2019-09-17T08:16:36.001Z</time>
      </trkpt>
      <trkpt lat="50.41948" lon="2.34248">
        <ele>119.84</ele>
        <time>2019-09-17T08:16:39.001Z</time>
      </trkpt>
      <trkpt lat="50.41954" lon="2.34252">
        <ele>120.08</ele>
        <time>2019-09-17T08:16:42.001Z</time>
      </trkpt>
      <trkpt lat="50.41961" lon="2.3426">
        <ele>120.373</ele>
        <time>2019-09-17T08:16:45.001Z</time>
      </trkpt>
      <trkpt lat="50.41967" lon="2.34267">
        <ele>121.33</ele>
        <time>2019-09-17T08:16:48.001Z</time>
      </trkpt>
      <trkpt lat="50.41973" lon="2.34272">
        <ele>121.055</ele>
        <time>2019-09-17T08:16:51.001Z</time>
      </trkpt>
      <trkpt lat="50.41979" lon="2.34277">
        <ele>120.874</ele>
        <time>2019-09-17T08:16:54.001Z</time>
      </trkpt>
      <trkpt lat="50.41985" lon="2.34283">
        <ele>121.318</ele>
        <time>2019-09-17T08:16:57.001Z</time>
      </trkpt>
      <trkpt lat="50.41993" lon="2.34289">
        <ele>121.463</ele>
        <time>2019-09-17T08:17:00.000Z</time>
      </trkpt>
      <trkpt lat="50.42" lon="2.34294">
        <ele>122.272</ele>
        <time>2019-09-17T08:17:03.001Z</time>
      </trkpt>
      <trkpt lat="50.42007" lon="2.34299">
        <ele>122.129</ele>
        <time>2019-09-17T08:17:06.001Z</time>
      </trkpt>
      <trkpt lat="50.42016" lon="2.34305">
        <ele>120.654</ele>
        <time>2019-09-17T08:17:09.001Z</time>
      </trkpt>
      <trkpt lat="50.42024" lon="2.3431">
        <ele>119.458</ele>
        <time>2019-09-17T08:17:12.001Z</time>
      </trkpt>
      <trkpt lat="50.42032" lon="2.34315">
        <ele>119.498</ele>
        <time>2019-09-17T08:17:15.001Z</time>
      </trkpt>
      <trkpt lat="50.4204" lon="2.3432">
        <ele>120.007</ele>
        <time>2019-09-17T08:17:18.001Z</time>
      </trkpt>
      <trkpt lat="50.42047" lon="2.34325">
        <ele>119.47</ele>
        <time>2019-09-17T08:17:21.001Z</time>
      </trkpt>
      <trkpt lat="50.42055" lon="2.34331">
        <ele>118.891</ele>
        <time>2019-09-17T08:17:24.001Z</time>
      </trkpt>
      <trkpt lat="50.42063" lon="2.34337">
        <ele>119.328</ele>
        <time>2019-09-17T08:17:27.001Z</time>
      </trkpt>
      <trkpt lat="50.42071" lon="2.34342">
        <ele>119.686</ele>
        <time>2019-09-17T08:17:30.001Z</time>
      </trkpt>
      <trkpt lat="50.42079" lon="2.34348">
        <ele>119.475</ele>
        <time>2019-09-17T08:17:33.001Z</time>
      </trkpt>
      <trkpt lat="50.42085" lon="2.34354">
        <ele>118.895</ele>
        <time>2019-09-17T08:17:36.001Z</time>
      </trkpt>
      <trkpt lat="50.4209" lon="2.34358">
        <ele>119.242</ele>
        <time>2019-09-17T08:17:39.001Z</time>
      </trkpt>
      <trkpt lat="50.42095" lon="2.34362">
        <ele>119.673</ele>
        <time>2019-09-17T08:17:42.001Z</time>
      </trkpt>
      <trkpt lat="50.42102" lon="2.34368">
        <ele>120.249</ele>
        <time>2019-09-17T08:17:45.001Z</time>
      </trkpt>
      <trkpt lat="50.42112" lon="2.34377">
        <ele>120.299</ele>
        <time>2019-09-17T08:17:51.001Z</time>
      </trkpt>
      <trkpt lat="50.42118" lon="2.34379">
        <ele>120.626</ele>
        <time>2019-09-17T08:17:54.001Z</time>
      </trkpt>
      <trkpt lat="50.42123" lon="2.34383">
        <ele>121.134</ele>
        <time>2019-09-17T08:17:57.001Z</time>
      </trkpt>
      <trkpt lat="50.42127" lon="2.34388">
        <ele>121.195</ele>
        <time>2019-09-17T08:18:00.000Z</time>
      </trkpt>
      <trkpt lat="50.42136" lon="2.34396">
        <ele>121.793</ele>
        <time>2019-09-17T08:18:03.001Z</time>
      </trkpt>
      <trkpt lat="50.42142" lon="2.34402">
        <ele>122.371</ele>
        <time>2019-09-17T08:18:06.001Z</time>
      </trkpt>
      <trkpt lat="50.42149" lon="2.34408">
        <ele>122.636</ele>
        <time>2019-09-17T08:18:09.001Z</time>
      </trkpt>
      <trkpt lat="50.42155" lon="2.34413">
        <ele>122.147</ele>
        <time>2019-09-17T08:18:12.001Z</time>
      </trkpt>
      <trkpt lat="50.42161" lon="2.34418">
        <ele>122.334</ele>
        <time>2019-09-17T08:18:15.001Z</time>
      </trkpt>
      <trkpt lat="50.42166" lon="2.34422">
        <ele>121.794</ele>
        <time>2019-09-17T08:18:18.001Z</time>
      </trkpt>
      <trkpt lat="50.42175" lon="2.34431">
        <ele>121.627</ele>
        <time>2019-09-17T08:18:21.001Z</time>
      </trkpt>
      <trkpt lat="50.42184" lon="2.34441">
        <ele>120.886</ele>
        <time>2019-09-17T08:18:24.001Z</time>
      </trkpt>
      <trkpt lat="50.42193" lon="2.34452">
        <ele>120.03</ele>
        <time>2019-09-17T08:18:27.001Z</time>
      </trkpt>
      <trkpt lat="50.422" lon="2.34462">
        <ele>119.333</ele>
        <time>2019-09-17T08:18:30.001Z</time>
      </trkpt>
      <trkpt lat="50.42206" lon="2.3447">
        <ele>118.672</ele>
        <time>2019-09-17T08:18:33.001Z</time>
      </trkpt>
      <trkpt lat="50.42211" lon="2.34477">
        <ele>118.241</ele>
        <time>2019-09-17T08:18:36.001Z</time>
      </trkpt>
      <trkpt lat="50.42215" lon="2.34483">
        <ele>118.189</ele>
        <time>2019-09-17T08:18:39.001Z</time>
      </trkpt>
      <trkpt lat="50.42219" lon="2.3449">
        <ele>117.895</ele>
        <time>2019-09-17T08:18:42.001Z</time>
      </trkpt>
      <trkpt lat="50.42225" lon="2.34499">
        <ele>117.507</ele>
        <time>2019-09-17T08:18:45.001Z</time>
      </trkpt>
      <trkpt lat="50.42234" lon="2.3451">
        <ele>116.896</ele>
        <time>2019-09-17T08:18:48.001Z</time>
      </trkpt>
      <trkpt lat="50.42243" lon="2.34517">
        <ele>116.284</ele>
        <time>2019-09-17T08:18:51.001Z</time>
      </trkpt>
      <trkpt lat="50.42251" lon="2.34524">
        <ele>116.196</ele>
        <time>2019-09-17T08:18:54.001Z</time>
      </trkpt>
      <trkpt lat="50.42259" lon="2.34534">
        <ele>115.549</ele>
        <time>2019-09-17T08:18:57.001Z</time>
      </trkpt>
      <trkpt lat="50.42265" lon="2.34542">
        <ele>115.092</ele>
        <time>2019-09-17T08:19:00.000Z</time>
      </trkpt>
      <trkpt lat="50.42269" lon="2.34549">
        <ele>115.135</ele>
        <time>2019-09-17T08:19:03.001Z</time>
      </trkpt>
      <trkpt lat="50.42273" lon="2.34555">
        <ele>115.356</ele>
        <time>2019-09-17T08:19:06.001Z</time>
      </trkpt>
      <trkpt lat="50.42277" lon="2.34562">
        <ele>115.433</ele>
        <time>2019-09-17T08:19:09.001Z</time>
      </trkpt>
      <trkpt lat="50.42283" lon="2.34574">
        <ele>116.586</ele>
        <time>2019-09-17T08:19:15.001Z</time>
      </trkpt>
      <trkpt lat="50.42288" lon="2.34583">
        <ele>117.082</ele>
        <time>2019-09-17T08:19:18.001Z</time>
      </trkpt>
      <trkpt lat="50.42292" lon="2.3459">
        <ele>117.167</ele>
        <time>2019-09-17T08:19:21.001Z</time>
      </trkpt>
      <trkpt lat="50.42297" lon="2.34598">
        <ele>117.547</ele>
        <time>2019-09-17T08:19:24.001Z</time>
      </trkpt>
      <trkpt lat="50.42301" lon="2.34606">
        <ele>118.793</ele>
        <time>2019-09-17T08:19:27.001Z</time>
      </trkpt>
      <trkpt lat="50.42307" lon="2.34615">
        <ele>120.128</ele>
        <time>2019-09-17T08:19:30.001Z</time>
      </trkpt>
      <trkpt lat="50.42311" lon="2.34623">
        <ele>119.782</ele>
        <time>2019-09-17T08:19:33.001Z</time>
      </trkpt>
      <trkpt lat="50.42316" lon="2.34632">
        <ele>120.119</ele>
        <time>2019-09-17T08:19:36.001Z</time>
      </trkpt>
      <trkpt lat="50.4232" lon="2.34639">
        <ele>120.986</ele>
        <time>2019-09-17T08:19:39.001Z</time>
      </trkpt>
      <trkpt lat="50.42326" lon="2.34647">
        <ele>120.958</ele>
        <time>2019-09-17T08:19:42.001Z</time>
      </trkpt>
      <trkpt lat="50.42331" lon="2.34656">
        <ele>121.58</ele>
        <time>2019-09-17T08:19:45.001Z</time>
      </trkpt>
      <trkpt lat="50.42337" lon="2.34664">
        <ele>121.988</ele>
        <time>2019-09-17T08:19:48.001Z</time>
      </trkpt>
      <trkpt lat="50.42341" lon="2.34669">
        <ele>123</ele>
        <time>2019-09-17T08:19:51.001Z</time>
      </trkpt>
      <trkpt lat="50.42348" lon="2.34679">
        <ele>123.586</ele>
        <time>2019-09-17T08:19:57.001Z</time>
      </trkpt>
      <trkpt lat="50.42353" lon="2.34685">
        <ele>123.926</ele>
        <time>2019-09-17T08:20:00.000Z</time>
      </trkpt>
      <trkpt lat="50.42357" lon="2.34691">
        <ele>124.073</ele>
        <time>2019-09-17T08:20:03.001Z</time>
      </trkpt>
      <trkpt lat="50.42362" lon="2.34697">
        <ele>124.262</ele>
        <time>2019-09-17T08:20:06.001Z</time>
      </trkpt>
      <trkpt lat="50.42365" lon="2.34702">
        <ele>124.32</ele>
        <time>2019-09-17T08:20:09.001Z</time>
      </trkpt>
      <trkpt lat="50.4237" lon="2.3471">
        <ele>124.73</ele>
        <time>2019-09-17T08:20:12.001Z</time>
      </trkpt>
      <trkpt lat="50.42376" lon="2.34718">
        <ele>124.828</ele>
        <time>2019-09-17T08:20:15.001Z</time>
      </trkpt>
      <trkpt lat="50.42383" lon="2.34728">
        <ele>124.959</ele>
        <time>2019-09-17T08:20:18.001Z</time>
      </trkpt>
      <trkpt lat="50.42391" lon="2.3474">
        <ele>125.182</ele>
        <time>2019-09-17T08:20:21.001Z</time>
      </trkpt>
      <trkpt lat="50.42398" lon="2.34749">
        <ele>125.729</ele>
        <time>2019-09-17T08:20:24.001Z</time>
      </trkpt>
      <trkpt lat="50.42402" lon="2.34754">
        <ele>125.776</ele>
        <time>2019-09-17T08:20:27.001Z</time>
      </trkpt>
      <trkpt lat="50.42407" lon="2.3476">
        <ele>126.175</ele>
        <time>2019-09-17T08:20:30.001Z</time>
      </trkpt>
      <trkpt lat="50.42411" lon="2.34767">
        <ele>126.638</ele>
        <time>2019-09-17T08:20:33.001Z</time>
      </trkpt>
      <trkpt lat="50.42417" lon="2.34775">
        <ele>127.379</ele>
        <time>2019-09-17T08:20:36.001Z</time>
      </trkpt>
      <trkpt lat="50.42423" lon="2.34784">
        <ele>128.073</ele>
        <time>2019-09-17T08:20:39.001Z</time>
      </trkpt>
      <trkpt lat="50.42427" lon="2.34789">
        <ele>128.042</ele>
        <time>2019-09-17T08:20:42.001Z</time>
      </trkpt>
      <trkpt lat="50.42433" lon="2.34796">
        <ele>128.073</ele>
        <time>2019-09-17T08:20:45.001Z</time>
      </trkpt>
      <trkpt lat="50.42439" lon="2.34804">
        <ele>128.204</ele>
        <time>2019-09-17T08:20:48.001Z</time>
      </trkpt>
      <trkpt lat="50.42446" lon="2.34814">
        <ele>128.127</ele>
        <time>2019-09-17T08:20:51.001Z</time>
      </trkpt>
      <trkpt lat="50.42453" lon="2.34822">
        <ele>128.291</ele>
        <time>2019-09-17T08:20:54.001Z</time>
      </trkpt>
      <trkpt lat="50.42458" lon="2.34828">
        <ele>129.216</ele>
        <time>2019-09-17T08:20:57.001Z</time>
      </trkpt>
      <trkpt lat="50.42462" lon="2.34834">
        <ele>129.385</ele>
        <time>2019-09-17T08:21:00.000Z</time>
      </trkpt>
      <trkpt lat="50.42465" lon="2.34838">
        <ele>129.767</ele>
        <time>2019-09-17T08:21:03.001Z</time>
      </trkpt>
      <trkpt lat="50.42466" lon="2.34839">
        <ele>130.041</ele>
        <time>2019-09-17T08:21:06.001Z</time>
      </trkpt>
      <trkpt lat="50.42467" lon="2.34839">
        <ele>130.041</ele>
        <time>2019-09-17T08:21:09.001Z</time>
      </trkpt>
      <trkpt lat="50.42467" lon="2.34839">
        <ele>130.041</ele>
        <time>2019-09-17T08:21:12.001Z</time>
      </trkpt>
      <trkpt lat="50.42468" lon="2.34838">
        <ele>130.041</ele>
        <time>2019-09-17T08:21:18.001Z</time>
      </trkpt>
      <trkpt lat="50.42467" lon="2.34837">
        <ele>130.041</ele>
        <time>2019-09-17T08:21:21.001Z</time>
      </trkpt>
      <trkpt lat="50.42468" lon="2.34835">
        <ele>130.041</ele>
        <time>2019-09-17T08:21:51.001Z</time>
      </trkpt>
      <trkpt lat="50.42471" lon="2.34838">
        <ele>130.198</ele>
        <time>2019-09-17T08:21:54.001Z</time>
      </trkpt>
      <trkpt lat="50.42475" lon="2.34842">
        <ele>130.603</ele>
        <time>2019-09-17T08:21:57.001Z</time>
      </trkpt>
      <trkpt lat="50.42478" lon="2.34845">
        <ele>132.049</ele>
        <time>2019-09-17T08:22:00.000Z</time>
      </trkpt>
      <trkpt lat="50.42481" lon="2.34848">
        <ele>132.097</ele>
        <time>2019-09-17T08:22:03.001Z</time>
      </trkpt>
      <trkpt lat="50.42485" lon="2.34851">
        <ele>131.44</ele>
        <time>2019-09-17T08:22:06.001Z</time>
      </trkpt>
      <trkpt lat="50.42486" lon="2.34852">
        <ele>131.699</ele>
        <time>2019-09-17T08:22:09.001Z</time>
      </trkpt>
      <trkpt lat="50.4249" lon="2.34855">
        <ele>132.555</ele>
        <time>2019-09-17T08:22:45.001Z</time>
      </trkpt>
      <trkpt lat="50.42494" lon="2.34858">
        <ele>132.357</ele>
        <time>2019-09-17T08:22:48.001Z</time>
      </trkpt>
      <trkpt lat="50.42501" lon="2.34863">
        <ele>132.292</ele>
        <time>2019-09-17T08:22:54.001Z</time>
      </trkpt>
      <trkpt lat="50.42505" lon="2.34866">
        <ele>132.714</ele>
        <time>2019-09-17T08:22:57.001Z</time>
      </trkpt>
      <trkpt lat="50.42508" lon="2.34869">
        <ele>132.735</ele>
        <time>2019-09-17T08:23:00.000Z</time>
      </trkpt>
      <trkpt lat="50.4251" lon="2.34871">
        <ele>133.238</ele>
        <time>2019-09-17T08:23:03.001Z</time>
      </trkpt>
      <trkpt lat="50.42512" lon="2.34873">
        <ele>133.087</ele>
        <time>2019-09-17T08:23:06.001Z</time>
      </trkpt>
      <trkpt lat="50.42513" lon="2.34874">
        <ele>133.02</ele>
        <time>2019-09-17T08:23:09.001Z</time>
      </trkpt>
      <trkpt lat="50.42516" lon="2.34877">
        <ele>133.352</ele>
        <time>2019-09-17T08:23:12.001Z</time>
      </trkpt>
      <trkpt lat="50.42518" lon="2.34878">
        <ele>133.461</ele>
        <time>2019-09-17T08:23:15.001Z</time>
      </trkpt>
      <trkpt lat="50.42522" lon="2.34882">
        <ele>134.326</ele>
        <time>2019-09-17T08:23:18.001Z</time>
      </trkpt>
      <trkpt lat="50.42525" lon="2.34884">
        <ele>133.259</ele>
        <time>2019-09-17T08:23:21.001Z</time>
      </trkpt>
      <trkpt lat="50.42527" lon="2.34886">
        <ele>132.302</ele>
        <time>2019-09-17T08:23:24.001Z</time>
      </trkpt>
      <trkpt lat="50.4253" lon="2.34888">
        <ele>130.173</ele>
        <time>2019-09-17T08:23:27.001Z</time>
      </trkpt>
      <trkpt lat="50.42534" lon="2.34889">
        <ele>128.733</ele>
        <time>2019-09-17T08:23:30.001Z</time>
      </trkpt>
      <trkpt lat="50.42538" lon="2.3489">
        <ele>129.729</ele>
        <time>2019-09-17T08:23:33.001Z</time>
      </trkpt>
      <trkpt lat="50.42544" lon="2.34893">
        <ele>128.122</ele>
        <time>2019-09-17T08:23:39.001Z</time>
      </trkpt>
      <trkpt lat="50.42545" lon="2.34894">
        <ele>127.519</ele>
        <time>2019-09-17T08:23:42.001Z</time>
      </trkpt>
      <trkpt lat="50.42546" lon="2.34894">
        <ele>127.519</ele>
        <time>2019-09-17T08:23:45.001Z</time>
      </trkpt>
      <trkpt lat="50.42548" lon="2.34896">
        <ele>127.476</ele>
        <time>2019-09-17T08:23:48.001Z</time>
      </trkpt>
      <trkpt lat="50.42549" lon="2.34898">
        <ele>127.153</ele>
        <time>2019-09-17T08:23:51.001Z</time>
      </trkpt>
      <trkpt lat="50.42549" lon="2.34898">
        <ele>127.153</ele>
        <time>2019-09-17T08:24:03.001Z</time>
      </trkpt>
      <trkpt lat="50.4255" lon="2.34898">
        <ele>126.993</ele>
        <time>2019-09-17T08:24:06.001Z</time>
      </trkpt>
      <trkpt lat="50.42555" lon="2.34903">
        <ele>127.151</ele>
        <time>2019-09-17T08:24:12.001Z</time>
      </trkpt>
      <trkpt lat="50.42556" lon="2.34904">
        <ele>127.303</ele>
        <time>2019-09-17T08:24:15.001Z</time>
      </trkpt>
      <trkpt lat="50.42556" lon="2.34902">
        <ele>127.303</ele>
        <time>2019-09-17T08:25:24.001Z</time>
      </trkpt>
      <trkpt lat="50.42558" lon="2.34904">
        <ele>127.008</ele>
        <time>2019-09-17T08:25:27.001Z</time>
      </trkpt>
      <trkpt lat="50.42565" lon="2.3491">
        <ele>127.239</ele>
        <time>2019-09-17T08:25:33.001Z</time>
      </trkpt>
      <trkpt lat="50.42571" lon="2.34915">
        <ele>127.113</ele>
        <time>2019-09-17T08:25:36.001Z</time>
      </trkpt>
      <trkpt lat="50.42577" lon="2.34922">
        <ele>127.322</ele>
        <time>2019-09-17T08:25:39.001Z</time>
      </trkpt>
      <trkpt lat="50.42583" lon="2.34927">
        <ele>127.048</ele>
        <time>2019-09-17T08:25:42.001Z</time>
      </trkpt>
      <trkpt lat="50.42591" lon="2.34934">
        <ele>125.723</ele>
        <time>2019-09-17T08:25:45.001Z</time>
      </trkpt>
      <trkpt lat="50.42599" lon="2.34941">
        <ele>125.161</ele>
        <time>2019-09-17T08:25:48.001Z</time>
      </trkpt>
      <trkpt lat="50.42605" lon="2.3495">
        <ele>124.709</ele>
        <time>2019-09-17T08:25:51.001Z</time>
      </trkpt>
      <trkpt lat="50.42611" lon="2.34956">
        <ele>124.329</ele>
        <time>2019-09-17T08:25:54.001Z</time>
      </trkpt>
      <trkpt lat="50.42615" lon="2.34962">
        <ele>123.984</ele>
        <time>2019-09-17T08:25:57.001Z</time>
      </trkpt>
      <trkpt lat="50.42619" lon="2.3497">
        <ele>124.276</ele>
        <time>2019-09-17T08:26:00.000Z</time>
      </trkpt>
      <trkpt lat="50.42623" lon="2.34974">
        <ele>124.709</ele>
        <time>2019-09-17T08:26:03.001Z</time>
      </trkpt>
      <trkpt lat="50.42626" lon="2.34981">
        <ele>125.31</ele>
        <time>2019-09-17T08:26:06.001Z</time>
      </trkpt>
      <trkpt lat="50.42629" lon="2.34987">
        <ele>125.843</ele>
        <time>2019-09-17T08:26:09.001Z</time>
      </trkpt>
      <trkpt lat="50.42633" lon="2.34994">
        <ele>126.104</ele>
        <time>2019-09-17T08:26:12.001Z</time>
      </trkpt>
      <trkpt lat="50.42636" lon="2.35002">
        <ele>126.767</ele>
        <time>2019-09-17T08:26:15.001Z</time>
      </trkpt>
      <trkpt lat="50.4264" lon="2.35008">
        <ele>127.798</ele>
        <time>2019-09-17T08:26:18.001Z</time>
      </trkpt>
      <trkpt lat="50.42645" lon="2.35017">
        <ele>128.599</ele>
        <time>2019-09-17T08:26:21.001Z</time>
      </trkpt>
      <trkpt lat="50.42652" lon="2.35028">
        <ele>129.055</ele>
        <time>2019-09-17T08:26:24.001Z</time>
      </trkpt>
      <trkpt lat="50.42659" lon="2.3504">
        <ele>129.046</ele>
        <time>2019-09-17T08:26:27.001Z</time>
      </trkpt>
      <trkpt lat="50.42663" lon="2.35049">
        <ele>129.224</ele>
        <time>2019-09-17T08:26:30.001Z</time>
      </trkpt>
      <trkpt lat="50.42666" lon="2.35056">
        <ele>129.056</ele>
        <time>2019-09-17T08:26:33.001Z</time>
      </trkpt>
      <trkpt lat="50.42667" lon="2.3506">
        <ele>128.614</ele>
        <time>2019-09-17T08:26:36.001Z</time>
      </trkpt>
      <trkpt lat="50.42667" lon="2.3506">
        <ele>128.614</ele>
        <time>2019-09-17T08:26:42.001Z</time>
      </trkpt>
      <trkpt lat="50.42668" lon="2.35061">
        <ele>128.594</ele>
        <time>2019-09-17T08:26:45.001Z</time>
      </trkpt>
      <trkpt lat="50.4267" lon="2.35069">
        <ele>128.66</ele>
        <time>2019-09-17T08:26:51.001Z</time>
      </trkpt>
      <trkpt lat="50.4267" lon="2.35072">
        <ele>129.116</ele>
        <time>2019-09-17T08:26:54.001Z</time>
      </trkpt>
      <trkpt lat="50.42669" lon="2.35074">
        <ele>129.475</ele>
        <time>2019-09-17T08:27:03.001Z</time>
      </trkpt>
      <trkpt lat="50.42671" lon="2.35079">
        <ele>129.497</ele>
        <time>2019-09-17T08:27:06.001Z</time>
      </trkpt>
      <trkpt lat="50.42672" lon="2.35089">
        <ele>129.156</ele>
        <time>2019-09-17T08:27:12.001Z</time>
      </trkpt>
      <trkpt lat="50.42673" lon="2.35094">
        <ele>129.224</ele>
        <time>2019-09-17T08:27:15.001Z</time>
      </trkpt>
      <trkpt lat="50.42673" lon="2.35095">
        <ele>129.231</ele>
        <time>2019-09-17T08:27:18.001Z</time>
      </trkpt>
      <trkpt lat="50.42674" lon="2.35101">
        <ele>129.752</ele>
        <time>2019-09-17T08:27:21.001Z</time>
      </trkpt>
      <trkpt lat="50.42676" lon="2.35112">
        <ele>131.575</ele>
        <time>2019-09-17T08:27:27.001Z</time>
      </trkpt>
      <trkpt lat="50.42678" lon="2.3512">
        <ele>133.733</ele>
        <time>2019-09-17T08:27:33.001Z</time>
      </trkpt>
      <trkpt lat="50.42682" lon="2.3513">
        <ele>135.266</ele>
        <time>2019-09-17T08:27:39.001Z</time>
      </trkpt>
      <trkpt lat="50.42684" lon="2.35139">
        <ele>135.576</ele>
        <time>2019-09-17T08:27:45.001Z</time>
      </trkpt>
      <trkpt lat="50.42685" lon="2.35147">
        <ele>135.906</ele>
        <time>2019-09-17T08:27:51.001Z</time>
      </trkpt>
      <trkpt lat="50.42685" lon="2.3515">
        <ele>136.464</ele>
        <time>2019-09-17T08:27:54.001Z</time>
      </trkpt>
      <trkpt lat="50.42686" lon="2.35152">
        <ele>136.769</ele>
        <time>2019-09-17T08:27:57.001Z</time>
      </trkpt>
      <trkpt lat="50.42687" lon="2.35159">
        <ele>136.336</ele>
        <time>2019-09-17T08:28:03.002Z</time>
      </trkpt>
      <trkpt lat="50.42689" lon="2.35168">
        <ele>136.02</ele>
        <time>2019-09-17T08:28:12.001Z</time>
      </trkpt>
      <trkpt lat="50.42689" lon="2.35177">
        <ele>135.98</ele>
        <time>2019-09-17T08:28:18.001Z</time>
      </trkpt>
      <trkpt lat="50.42689" lon="2.35178">
        <ele>136.039</ele>
        <time>2019-09-17T08:28:21.001Z</time>
      </trkpt>
      <trkpt lat="50.42689" lon="2.35178">
        <ele>136.039</ele>
        <time>2019-09-17T08:28:27.001Z</time>
      </trkpt>
      <trkpt lat="50.42689" lon="2.3518">
        <ele>135.974</ele>
        <time>2019-09-17T08:28:30.001Z</time>
      </trkpt>
      <trkpt lat="50.4269" lon="2.35188">
        <ele>136.318</ele>
        <time>2019-09-17T08:28:36.001Z</time>
      </trkpt>
      <trkpt lat="50.42691" lon="2.35189">
        <ele>136.848</ele>
        <time>2019-09-17T08:28:39.001Z</time>
      </trkpt>
      <trkpt lat="50.42692" lon="2.35192">
        <ele>137.249</ele>
        <time>2019-09-17T08:28:42.001Z</time>
      </trkpt>
      <trkpt lat="50.42694" lon="2.35196">
        <ele>138.186</ele>
        <time>2019-09-17T08:28:45.001Z</time>
      </trkpt>
      <trkpt lat="50.42695" lon="2.35199">
        <ele>138.871</ele>
        <time>2019-09-17T08:28:48.001Z</time>
      </trkpt>
      <trkpt lat="50.42697" lon="2.35203">
        <ele>139.103</ele>
        <time>2019-09-17T08:28:51.001Z</time>
      </trkpt>
      <trkpt lat="50.42701" lon="2.35212">
        <ele>139.612</ele>
        <time>2019-09-17T08:28:57.001Z</time>
      </trkpt>
      <trkpt lat="50.42704" lon="2.35222">
        <ele>139.616</ele>
        <time>2019-09-17T08:29:03.001Z</time>
      </trkpt>
      <trkpt lat="50.42706" lon="2.35233">
        <ele>139.275</ele>
        <time>2019-09-17T08:29:09.001Z</time>
      </trkpt>
      <trkpt lat="50.42708" lon="2.35242">
        <ele>138.765</ele>
        <time>2019-09-17T08:29:15.001Z</time>
      </trkpt>
      <trkpt lat="50.42709" lon="2.35247">
        <ele>138.599</ele>
        <time>2019-09-17T08:29:18.001Z</time>
      </trkpt>
      <trkpt lat="50.42709" lon="2.35251">
        <ele>138.314</ele>
        <time>2019-09-17T08:29:21.001Z</time>
      </trkpt>
      <trkpt lat="50.4271" lon="2.35255">
        <ele>138.117</ele>
        <time>2019-09-17T08:29:24.001Z</time>
      </trkpt>
      <trkpt lat="50.4271" lon="2.35257">
        <ele>138.012</ele>
        <time>2019-09-17T08:29:27.001Z</time>
      </trkpt>
      <trkpt lat="50.42709" lon="2.35257">
        <ele>138.036</ele>
        <time>2019-09-17T08:38:39.001Z</time>
      </trkpt>
      <trkpt lat="50.4271" lon="2.35259">
        <ele>137.561</ele>
        <time>2019-09-17T08:38:42.001Z</time>
      </trkpt>
      <trkpt lat="50.42716" lon="2.35266">
        <ele>137.152</ele>
        <time>2019-09-17T08:38:48.001Z</time>
      </trkpt>
      <trkpt lat="50.42718" lon="2.35271">
        <ele>137.2</ele>
        <time>2019-09-17T08:38:51.001Z</time>
      </trkpt>
      <trkpt lat="50.42718" lon="2.35272">
        <ele>136.726</ele>
        <time>2019-09-17T08:38:54.001Z</time>
      </trkpt>
      <trkpt lat="50.42718" lon="2.35273">
        <ele>136.809</ele>
        <time>2019-09-17T08:38:57.001Z</time>
      </trkpt>
      <trkpt lat="50.42724" lon="2.35284">
        <ele>137.532</ele>
        <time>2019-09-17T08:39:03.001Z</time>
      </trkpt>
      <trkpt lat="50.42728" lon="2.35294">
        <ele>138.113</ele>
        <time>2019-09-17T08:39:06.001Z</time>
      </trkpt>
      <trkpt lat="50.42732" lon="2.35303">
        <ele>138.32</ele>
        <time>2019-09-17T08:39:09.001Z</time>
      </trkpt>
      <trkpt lat="50.42736" lon="2.35313">
        <ele>139.128</ele>
        <time>2019-09-17T08:39:12.001Z</time>
      </trkpt>
      <trkpt lat="50.4274" lon="2.35324">
        <ele>140.213</ele>
        <time>2019-09-17T08:39:15.001Z</time>
      </trkpt>
      <trkpt lat="50.42744" lon="2.35333">
        <ele>141.072</ele>
        <time>2019-09-17T08:39:18.001Z</time>
      </trkpt>
      <trkpt lat="50.42748" lon="2.35343">
        <ele>142.105</ele>
        <time>2019-09-17T08:39:21.001Z</time>
      </trkpt>
      <trkpt lat="50.42753" lon="2.35352">
        <ele>142.869</ele>
        <time>2019-09-17T08:39:24.001Z</time>
      </trkpt>
      <trkpt lat="50.42757" lon="2.35361">
        <ele>144.237</ele>
        <time>2019-09-17T08:39:27.001Z</time>
      </trkpt>
      <trkpt lat="50.42762" lon="2.35372">
        <ele>144.694</ele>
        <time>2019-09-17T08:39:30.001Z</time>
      </trkpt>
      <trkpt lat="50.42766" lon="2.35383">
        <ele>146.141</ele>
        <time>2019-09-17T08:39:33.001Z</time>
      </trkpt>
      <trkpt lat="50.4277" lon="2.35393">
        <ele>147.59</ele>
        <time>2019-09-17T08:39:36.001Z</time>
      </trkpt>
      <trkpt lat="50.42775" lon="2.35404">
        <ele>148.369</ele>
        <time>2019-09-17T08:39:39.001Z</time>
      </trkpt>
      <trkpt lat="50.42782" lon="2.35414">
        <ele>148.81</ele>
        <time>2019-09-17T08:39:42.001Z</time>
      </trkpt>
      <trkpt lat="50.42787" lon="2.35425">
        <ele>149.216</ele>
        <time>2019-09-17T08:39:45.001Z</time>
      </trkpt>
      <trkpt lat="50.42792" lon="2.35436">
        <ele>149.226</ele>
        <time>2019-09-17T08:39:48.001Z</time>
      </trkpt>
      <trkpt lat="50.42797" lon="2.35447">
        <ele>149.061</ele>
        <time>2019-09-17T08:39:51.001Z</time>
      </trkpt>
      <trkpt lat="50.42802" lon="2.35457">
        <ele>148.674</ele>
        <time>2019-09-17T08:39:54.001Z</time>
      </trkpt>
      <trkpt lat="50.42808" lon="2.35469">
        <ele>148.497</ele>
        <time>2019-09-17T08:39:57.001Z</time>
      </trkpt>
      <trkpt lat="50.42814" lon="2.35481">
        <ele>148.132</ele>
        <time>2019-09-17T08:40:00.000Z</time>
      </trkpt>
      <trkpt lat="50.42819" lon="2.35493">
        <ele>148.456</ele>
        <time>2019-09-17T08:40:03.001Z</time>
      </trkpt>
      <trkpt lat="50.42824" lon="2.35505">
        <ele>148.608</ele>
        <time>2019-09-17T08:40:06.001Z</time>
      </trkpt>
      <trkpt lat="50.42829" lon="2.35517">
        <ele>149.037</ele>
        <time>2019-09-17T08:40:09.001Z</time>
      </trkpt>
      <trkpt lat="50.42835" lon="2.35529">
        <ele>149.216</ele>
        <time>2019-09-17T08:40:12.001Z</time>
      </trkpt>
      <trkpt lat="50.42839" lon="2.3554">
        <ele>149.363</ele>
        <time>2019-09-17T08:40:15.001Z</time>
      </trkpt>
      <trkpt lat="50.42845" lon="2.35551">
        <ele>150.117</ele>
        <time>2019-09-17T08:40:18.001Z</time>
      </trkpt>
      <trkpt lat="50.42851" lon="2.35561">
        <ele>151.139</ele>
        <time>2019-09-17T08:40:21.001Z</time>
      </trkpt>
      <trkpt lat="50.42857" lon="2.35571">
        <ele>151.9</ele>
        <time>2019-09-17T08:40:24.001Z</time>
      </trkpt>
      <trkpt lat="50.42861" lon="2.35579">
        <ele>153.046</ele>
        <time>2019-09-17T08:40:27.001Z</time>
      </trkpt>
      <trkpt lat="50.42865" lon="2.35589">
        <ele>153.217</ele>
        <time>2019-09-17T08:40:30.001Z</time>
      </trkpt>
      <trkpt lat="50.42869" lon="2.356">
        <ele>153.354</ele>
        <time>2019-09-17T08:40:33.001Z</time>
      </trkpt>
      <trkpt lat="50.42872" lon="2.35612">
        <ele>153.363</ele>
        <time>2019-09-17T08:40:36.001Z</time>
      </trkpt>
      <trkpt lat="50.42876" lon="2.35624">
        <ele>154.067</ele>
        <time>2019-09-17T08:40:39.001Z</time>
      </trkpt>
      <trkpt lat="50.42881" lon="2.35637">
        <ele>154.373</ele>
        <time>2019-09-17T08:40:42.001Z</time>
      </trkpt>
      <trkpt lat="50.42883" lon="2.3565">
        <ele>154.522</ele>
        <time>2019-09-17T08:40:45.001Z</time>
      </trkpt>
      <trkpt lat="50.42882" lon="2.35664">
        <ele>155.632</ele>
        <time>2019-09-17T08:40:48.001Z</time>
      </trkpt>
      <trkpt lat="50.42879" lon="2.35678">
        <ele>155.254</ele>
        <time>2019-09-17T08:40:51.001Z</time>
      </trkpt>
      <trkpt lat="50.42871" lon="2.35687">
        <ele>154.884</ele>
        <time>2019-09-17T08:40:54.001Z</time>
      </trkpt>
      <trkpt lat="50.42863" lon="2.35696">
        <ele>154.358</ele>
        <time>2019-09-17T08:40:57.001Z</time>
      </trkpt>
      <trkpt lat="50.42857" lon="2.35704">
        <ele>153.99</ele>
        <time>2019-09-17T08:41:00.000Z</time>
      </trkpt>
      <trkpt lat="50.42852" lon="2.35714">
        <ele>153.655</ele>
        <time>2019-09-17T08:41:03.001Z</time>
      </trkpt>
      <trkpt lat="50.42847" lon="2.35728">
        <ele>153.99</ele>
        <time>2019-09-17T08:41:06.001Z</time>
      </trkpt>
      <trkpt lat="50.42842" lon="2.35749">
        <ele>153.43</ele>
        <time>2019-09-17T08:41:09.001Z</time>
      </trkpt>
      <trkpt lat="50.42841" lon="2.3577">
        <ele>153.779</ele>
        <time>2019-09-17T08:41:12.001Z</time>
      </trkpt>
      <trkpt lat="50.42846" lon="2.35786">
        <ele>154.232</ele>
        <time>2019-09-17T08:41:15.001Z</time>
      </trkpt>
      <trkpt lat="50.42854" lon="2.35797">
        <ele>154.532</ele>
        <time>2019-09-17T08:41:18.001Z</time>
      </trkpt>
      <trkpt lat="50.42861" lon="2.35808">
        <ele>154.743</ele>
        <time>2019-09-17T08:41:21.001Z</time>
      </trkpt>
      <trkpt lat="50.42868" lon="2.35818">
        <ele>154.607</ele>
        <time>2019-09-17T08:41:24.001Z</time>
      </trkpt>
      <trkpt lat="50.42875" lon="2.35829">
        <ele>155.435</ele>
        <time>2019-09-17T08:41:27.001Z</time>
      </trkpt>
      <trkpt lat="50.42884" lon="2.3584">
        <ele>155.452</ele>
        <time>2019-09-17T08:41:30.001Z</time>
      </trkpt>
      <trkpt lat="50.42893" lon="2.35851">
        <ele>155.8</ele>
        <time>2019-09-17T08:41:33.001Z</time>
      </trkpt>
      <trkpt lat="50.42901" lon="2.35861">
        <ele>155.917</ele>
        <time>2019-09-17T08:41:36.001Z</time>
      </trkpt>
      <trkpt lat="50.4291" lon="2.35871">
        <ele>155.911</ele>
        <time>2019-09-17T08:41:39.001Z</time>
      </trkpt>
      <trkpt lat="50.42917" lon="2.35881">
        <ele>155.824</ele>
        <time>2019-09-17T08:41:42.001Z</time>
      </trkpt>
      <trkpt lat="50.42926" lon="2.35892">
        <ele>155.931</ele>
        <time>2019-09-17T08:41:45.001Z</time>
      </trkpt>
      <trkpt lat="50.42933" lon="2.35904">
        <ele>156.252</ele>
        <time>2019-09-17T08:41:48.001Z</time>
      </trkpt>
      <trkpt lat="50.4294" lon="2.35914">
        <ele>156.037</ele>
        <time>2019-09-17T08:41:51.001Z</time>
      </trkpt>
      <trkpt lat="50.42947" lon="2.35926">
        <ele>155.809</ele>
        <time>2019-09-17T08:41:54.001Z</time>
      </trkpt>
      <trkpt lat="50.42954" lon="2.3594">
        <ele>155.979</ele>
        <time>2019-09-17T08:41:57.001Z</time>
      </trkpt>
      <trkpt lat="50.42959" lon="2.35953">
        <ele>156.614</ele>
        <time>2019-09-17T08:42:00.000Z</time>
      </trkpt>
      <trkpt lat="50.42963" lon="2.35968">
        <ele>157.38</ele>
        <time>2019-09-17T08:42:03.001Z</time>
      </trkpt>
      <trkpt lat="50.42967" lon="2.35981">
        <ele>157.681</ele>
        <time>2019-09-17T08:42:06.001Z</time>
      </trkpt>
      <trkpt lat="50.42972" lon="2.35994">
        <ele>157.165</ele>
        <time>2019-09-17T08:42:09.001Z</time>
      </trkpt>
      <trkpt lat="50.42976" lon="2.36008">
        <ele>156.969</ele>
        <time>2019-09-17T08:42:12.001Z</time>
      </trkpt>
      <trkpt lat="50.42982" lon="2.36021">
        <ele>157.211</ele>
        <time>2019-09-17T08:42:15.001Z</time>
      </trkpt>
      <trkpt lat="50.42987" lon="2.36035">
        <ele>157.381</ele>
        <time>2019-09-17T08:42:18.001Z</time>
      </trkpt>
      <trkpt lat="50.42992" lon="2.36048">
        <ele>157.364</ele>
        <time>2019-09-17T08:42:21.001Z</time>
      </trkpt>
      <trkpt lat="50.42997" lon="2.36061">
        <ele>157.721</ele>
        <time>2019-09-17T08:42:24.001Z</time>
      </trkpt>
      <trkpt lat="50.43003" lon="2.36074">
        <ele>157.697</ele>
        <time>2019-09-17T08:42:27.001Z</time>
      </trkpt>
      <trkpt lat="50.43007" lon="2.36088">
        <ele>158.024</ele>
        <time>2019-09-17T08:42:30.001Z</time>
      </trkpt>
      <trkpt lat="50.43012" lon="2.36102">
        <ele>157.62</ele>
        <time>2019-09-17T08:42:33.001Z</time>
      </trkpt>
      <trkpt lat="50.43016" lon="2.36116">
        <ele>157.305</ele>
        <time>2019-09-17T08:42:36.001Z</time>
      </trkpt>
      <trkpt lat="50.43021" lon="2.3613">
        <ele>157.311</ele>
        <time>2019-09-17T08:42:39.001Z</time>
      </trkpt>
      <trkpt lat="50.43025" lon="2.36144">
        <ele>156.985</ele>
        <time>2019-09-17T08:42:42.001Z</time>
      </trkpt>
      <trkpt lat="50.43028" lon="2.36159">
        <ele>156.847</ele>
        <time>2019-09-17T08:42:45.001Z</time>
      </trkpt>
      <trkpt lat="50.43033" lon="2.36173">
        <ele>157.138</ele>
        <time>2019-09-17T08:42:48.001Z</time>
      </trkpt>
      <trkpt lat="50.43037" lon="2.36187">
        <ele>157.008</ele>
        <time>2019-09-17T08:42:51.001Z</time>
      </trkpt>
      <trkpt lat="50.4304" lon="2.36201">
        <ele>156.849</ele>
        <time>2019-09-17T08:42:54.001Z</time>
      </trkpt>
      <trkpt lat="50.43044" lon="2.36215">
        <ele>156.598</ele>
        <time>2019-09-17T08:42:57.001Z</time>
      </trkpt>
      <trkpt lat="50.43047" lon="2.3623">
        <ele>156.524</ele>
        <time>2019-09-17T08:43:00.000Z</time>
      </trkpt>
      <trkpt lat="50.4305" lon="2.36245">
        <ele>156.708</ele>
        <time>2019-09-17T08:43:03.001Z</time>
      </trkpt>
      <trkpt lat="50.43054" lon="2.36257">
        <ele>155.968</ele>
        <time>2019-09-17T08:43:06.001Z</time>
      </trkpt>
      <trkpt lat="50.43056" lon="2.36273">
        <ele>156.144</ele>
        <time>2019-09-17T08:43:09.001Z</time>
      </trkpt>
      <trkpt lat="50.4306" lon="2.36286">
        <ele>156.898</ele>
        <time>2019-09-17T08:43:12.001Z</time>
      </trkpt>
      <trkpt lat="50.43066" lon="2.36298">
        <ele>157.632</ele>
        <time>2019-09-17T08:43:15.001Z</time>
      </trkpt>
      <trkpt lat="50.43072" lon="2.3631">
        <ele>157.892</ele>
        <time>2019-09-17T08:43:18.001Z</time>
      </trkpt>
      <trkpt lat="50.4308" lon="2.36319">
        <ele>157.637</ele>
        <time>2019-09-17T08:43:21.001Z</time>
      </trkpt>
      <trkpt lat="50.43089" lon="2.36326">
        <ele>157.519</ele>
        <time>2019-09-17T08:43:24.001Z</time>
      </trkpt>
      <trkpt lat="50.43097" lon="2.36334">
        <ele>157.125</ele>
        <time>2019-09-17T08:43:27.001Z</time>
      </trkpt>
      <trkpt lat="50.43105" lon="2.36341">
        <ele>157.135</ele>
        <time>2019-09-17T08:43:30.001Z</time>
      </trkpt>
      <trkpt lat="50.43114" lon="2.36349">
        <ele>157.268</ele>
        <time>2019-09-17T08:43:33.001Z</time>
      </trkpt>
      <trkpt lat="50.43122" lon="2.36355">
        <ele>157.613</ele>
        <time>2019-09-17T08:43:36.001Z</time>
      </trkpt>
      <trkpt lat="50.4313" lon="2.36361">
        <ele>158.006</ele>
        <time>2019-09-17T08:43:39.001Z</time>
      </trkpt>
      <trkpt lat="50.43138" lon="2.36367">
        <ele>158.196</ele>
        <time>2019-09-17T08:43:42.001Z</time>
      </trkpt>
      <trkpt lat="50.43146" lon="2.36375">
        <ele>158.613</ele>
        <time>2019-09-17T08:43:45.001Z</time>
      </trkpt>
      <trkpt lat="50.43155" lon="2.36381">
        <ele>158.376</ele>
        <time>2019-09-17T08:43:48.001Z</time>
      </trkpt>
      <trkpt lat="50.43163" lon="2.3639">
        <ele>158.252</ele>
        <time>2019-09-17T08:43:51.001Z</time>
      </trkpt>
      <trkpt lat="50.43171" lon="2.36397">
        <ele>158.492</ele>
        <time>2019-09-17T08:43:54.001Z</time>
      </trkpt>
      <trkpt lat="50.4318" lon="2.36404">
        <ele>158.906</ele>
        <time>2019-09-17T08:43:57.001Z</time>
      </trkpt>
      <trkpt lat="50.43189" lon="2.36412">
        <ele>159.258</ele>
        <time>2019-09-17T08:44:00.000Z</time>
      </trkpt>
      <trkpt lat="50.43198" lon="2.36422">
        <ele>159.354</ele>
        <time>2019-09-17T08:44:03.001Z</time>
      </trkpt>
      <trkpt lat="50.43207" lon="2.36431">
        <ele>159.891</ele>
        <time>2019-09-17T08:44:06.001Z</time>
      </trkpt>
      <trkpt lat="50.43216" lon="2.36441">
        <ele>160.047</ele>
        <time>2019-09-17T08:44:09.001Z</time>
      </trkpt>
      <trkpt lat="50.43224" lon="2.36451">
        <ele>160.135</ele>
        <time>2019-09-17T08:44:12.001Z</time>
      </trkpt>
      <trkpt lat="50.43232" lon="2.36462">
        <ele>160.502</ele>
        <time>2019-09-17T08:44:15.001Z</time>
      </trkpt>
      <trkpt lat="50.4324" lon="2.36473">
        <ele>160.651</ele>
        <time>2019-09-17T08:44:18.001Z</time>
      </trkpt>
      <trkpt lat="50.43248" lon="2.36483">
        <ele>160.802</ele>
        <time>2019-09-17T08:44:21.001Z</time>
      </trkpt>
      <trkpt lat="50.43255" lon="2.36494">
        <ele>160.969</ele>
        <time>2019-09-17T08:44:24.001Z</time>
      </trkpt>
      <trkpt lat="50.43264" lon="2.36506">
        <ele>161.2</ele>
        <time>2019-09-17T08:44:27.001Z</time>
      </trkpt>
      <trkpt lat="50.43272" lon="2.36517">
        <ele>161.158</ele>
        <time>2019-09-17T08:44:30.001Z</time>
      </trkpt>
      <trkpt lat="50.4328" lon="2.36528">
        <ele>161.039</ele>
        <time>2019-09-17T08:44:33.001Z</time>
      </trkpt>
      <trkpt lat="50.43288" lon="2.3654">
        <ele>161.341</ele>
        <time>2019-09-17T08:44:36.001Z</time>
      </trkpt>
      <trkpt lat="50.43296" lon="2.36554">
        <ele>161.216</ele>
        <time>2019-09-17T08:44:39.001Z</time>
      </trkpt>
      <trkpt lat="50.43303" lon="2.36568">
        <ele>161.138</ele>
        <time>2019-09-17T08:44:42.001Z</time>
      </trkpt>
      <trkpt lat="50.4331" lon="2.36582">
        <ele>161.123</ele>
        <time>2019-09-17T08:44:45.001Z</time>
      </trkpt>
      <trkpt lat="50.43317" lon="2.36596">
        <ele>161.051</ele>
        <time>2019-09-17T08:44:48.001Z</time>
      </trkpt>
      <trkpt lat="50.43324" lon="2.36609">
        <ele>161.135</ele>
        <time>2019-09-17T08:44:51.001Z</time>
      </trkpt>
      <trkpt lat="50.43331" lon="2.36621">
        <ele>161.354</ele>
        <time>2019-09-17T08:44:54.001Z</time>
      </trkpt>
      <trkpt lat="50.43338" lon="2.36633">
        <ele>161.515</ele>
        <time>2019-09-17T08:44:57.001Z</time>
      </trkpt>
      <trkpt lat="50.43344" lon="2.36646">
        <ele>161.775</ele>
        <time>2019-09-17T08:45:00.000Z</time>
      </trkpt>
      <trkpt lat="50.4335" lon="2.36658">
        <ele>161.841</ele>
        <time>2019-09-17T08:45:03.001Z</time>
      </trkpt>
      <trkpt lat="50.43357" lon="2.3667">
        <ele>161.747</ele>
        <time>2019-09-17T08:45:06.001Z</time>
      </trkpt>
      <trkpt lat="50.43363" lon="2.36683">
        <ele>161.717</ele>
        <time>2019-09-17T08:45:09.001Z</time>
      </trkpt>
      <trkpt lat="50.43369" lon="2.36696">
        <ele>161.661</ele>
        <time>2019-09-17T08:45:12.001Z</time>
      </trkpt>
      <trkpt lat="50.43375" lon="2.36708">
        <ele>161.936</ele>
        <time>2019-09-17T08:45:15.001Z</time>
      </trkpt>
      <trkpt lat="50.43381" lon="2.3672">
        <ele>162.016</ele>
        <time>2019-09-17T08:45:18.001Z</time>
      </trkpt>
      <trkpt lat="50.43388" lon="2.36732">
        <ele>162.112</ele>
        <time>2019-09-17T08:45:21.001Z</time>
      </trkpt>
      <trkpt lat="50.43394" lon="2.36744">
        <ele>161.927</ele>
        <time>2019-09-17T08:45:24.001Z</time>
      </trkpt>
      <trkpt lat="50.434" lon="2.36757">
        <ele>162.587</ele>
        <time>2019-09-17T08:45:27.001Z</time>
      </trkpt>
      <trkpt lat="50.43407" lon="2.36771">
        <ele>163.086</ele>
        <time>2019-09-17T08:45:30.001Z</time>
      </trkpt>
      <trkpt lat="50.43414" lon="2.36784">
        <ele>163.473</ele>
        <time>2019-09-17T08:45:33.001Z</time>
      </trkpt>
      <trkpt lat="50.43422" lon="2.36798">
        <ele>163.789</ele>
        <time>2019-09-17T08:45:36.001Z</time>
      </trkpt>
      <trkpt lat="50.4343" lon="2.36812">
        <ele>163.693</ele>
        <time>2019-09-17T08:45:39.001Z</time>
      </trkpt>
      <trkpt lat="50.43439" lon="2.36826">
        <ele>163.778</ele>
        <time>2019-09-17T08:45:42.001Z</time>
      </trkpt>
      <trkpt lat="50.43447" lon="2.3684">
        <ele>163.627</ele>
        <time>2019-09-17T08:45:45.001Z</time>
      </trkpt>
      <trkpt lat="50.43456" lon="2.36855">
        <ele>163.581</ele>
        <time>2019-09-17T08:45:48.001Z</time>
      </trkpt>
      <trkpt lat="50.43464" lon="2.3687">
        <ele>163.68</ele>
        <time>2019-09-17T08:45:51.001Z</time>
      </trkpt>
      <trkpt lat="50.43472" lon="2.36886">
        <ele>163.768</ele>
        <time>2019-09-17T08:45:54.001Z</time>
      </trkpt>
      <trkpt lat="50.4348" lon="2.36903">
        <ele>163.71</ele>
        <time>2019-09-17T08:45:57.001Z</time>
      </trkpt>
      <trkpt lat="50.43488" lon="2.36919">
        <ele>163.568</ele>
        <time>2019-09-17T08:46:00.000Z</time>
      </trkpt>
      <trkpt lat="50.43492" lon="2.36937">
        <ele>163.673</ele>
        <time>2019-09-17T08:46:03.001Z</time>
      </trkpt>
      <trkpt lat="50.43487" lon="2.36959">
        <ele>163.242</ele>
        <time>2019-09-17T08:46:06.001Z</time>
      </trkpt>
      <trkpt lat="50.43476" lon="2.36976">
        <ele>162.711</ele>
        <time>2019-09-17T08:46:09.001Z</time>
      </trkpt>
      <trkpt lat="50.43465" lon="2.36991">
        <ele>162.187</ele>
        <time>2019-09-17T08:46:12.001Z</time>
      </trkpt>
      <trkpt lat="50.43455" lon="2.37008">
        <ele>162.115</ele>
        <time>2019-09-17T08:46:15.001Z</time>
      </trkpt>
      <trkpt lat="50.43443" lon="2.37026">
        <ele>161.21</ele>
        <time>2019-09-17T08:46:18.001Z</time>
      </trkpt>
      <trkpt lat="50.4343" lon="2.37046">
        <ele>160.503</ele>
        <time>2019-09-17T08:46:21.001Z</time>
      </trkpt>
      <trkpt lat="50.43418" lon="2.3707">
        <ele>160.179</ele>
        <time>2019-09-17T08:46:24.001Z</time>
      </trkpt>
      <trkpt lat="50.43414" lon="2.37103">
        <ele>160.222</ele>
        <time>2019-09-17T08:46:27.001Z</time>
      </trkpt>
      <trkpt lat="50.43423" lon="2.37136">
        <ele>160.252</ele>
        <time>2019-09-17T08:46:30.001Z</time>
      </trkpt>
      <trkpt lat="50.43427" lon="2.37169">
        <ele>160.523</ele>
        <time>2019-09-17T08:46:33.001Z</time>
      </trkpt>
      <trkpt lat="50.43429" lon="2.37204">
        <ele>160.291</ele>
        <time>2019-09-17T08:46:36.001Z</time>
      </trkpt>
      <trkpt lat="50.43437" lon="2.37234">
        <ele>160.113</ele>
        <time>2019-09-17T08:46:39.001Z</time>
      </trkpt>
      <trkpt lat="50.43447" lon="2.37263">
        <ele>160.154</ele>
        <time>2019-09-17T08:46:42.001Z</time>
      </trkpt>
      <trkpt lat="50.43454" lon="2.37289">
        <ele>160.109</ele>
        <time>2019-09-17T08:46:45.001Z</time>
      </trkpt>
      <trkpt lat="50.43458" lon="2.37313">
        <ele>160.332</ele>
        <time>2019-09-17T08:46:48.001Z</time>
      </trkpt>
      <trkpt lat="50.43468" lon="2.37339">
        <ele>159.968</ele>
        <time>2019-09-17T08:46:51.001Z</time>
      </trkpt>
      <trkpt lat="50.43481" lon="2.37362">
        <ele>160.16</ele>
        <time>2019-09-17T08:46:54.001Z</time>
      </trkpt>
      <trkpt lat="50.43497" lon="2.37381">
        <ele>160.746</ele>
        <time>2019-09-17T08:46:57.001Z</time>
      </trkpt>
      <trkpt lat="50.43511" lon="2.37401">
        <ele>160.594</ele>
        <time>2019-09-17T08:47:00.000Z</time>
      </trkpt>
      <trkpt lat="50.43522" lon="2.3742">
        <ele>160.825</ele>
        <time>2019-09-17T08:47:03.001Z</time>
      </trkpt>
      <trkpt lat="50.43533" lon="2.37439">
        <ele>161.129</ele>
        <time>2019-09-17T08:47:06.001Z</time>
      </trkpt>
      <trkpt lat="50.43543" lon="2.37458">
        <ele>161.723</ele>
        <time>2019-09-17T08:47:09.001Z</time>
      </trkpt>
      <trkpt lat="50.43549" lon="2.37475">
        <ele>162.51</ele>
        <time>2019-09-17T08:47:12.001Z</time>
      </trkpt>
      <trkpt lat="50.43546" lon="2.37496">
        <ele>163.367</ele>
        <time>2019-09-17T08:47:15.001Z</time>
      </trkpt>
      <trkpt lat="50.43539" lon="2.37516">
        <ele>161.491</ele>
        <time>2019-09-17T08:47:18.001Z</time>
      </trkpt>
      <trkpt lat="50.4353" lon="2.37526">
        <ele>160.273</ele>
        <time>2019-09-17T08:47:21.001Z</time>
      </trkpt>
      <trkpt lat="50.43521" lon="2.37535">
        <ele>158.786</ele>
        <time>2019-09-17T08:47:24.001Z</time>
      </trkpt>
      <trkpt lat="50.43511" lon="2.37544">
        <ele>157.645</ele>
        <time>2019-09-17T08:47:27.001Z</time>
      </trkpt>
      <trkpt lat="50.43502" lon="2.37553">
        <ele>157.26</ele>
        <time>2019-09-17T08:47:30.001Z</time>
      </trkpt>
      <trkpt lat="50.43492" lon="2.3756">
        <ele>156.999</ele>
        <time>2019-09-17T08:47:33.001Z</time>
      </trkpt>
      <trkpt lat="50.43486" lon="2.37566">
        <ele>156.942</ele>
        <time>2019-09-17T08:47:36.001Z</time>
      </trkpt>
      <trkpt lat="50.43482" lon="2.37571">
        <ele>157.466</ele>
        <time>2019-09-17T08:47:39.001Z</time>
      </trkpt>
      <trkpt lat="50.43482" lon="2.37571">
        <ele>157.466</ele>
        <time>2019-09-17T08:47:42.001Z</time>
      </trkpt>
      <trkpt lat="50.43484" lon="2.37572">
        <ele>157.551</ele>
        <time>2019-09-17T08:47:45.001Z</time>
      </trkpt>
      <trkpt lat="50.43484" lon="2.37572">
        <ele>157.656</ele>
        <time>2019-09-17T08:47:48.001Z</time>
      </trkpt>
      <trkpt lat="50.43484" lon="2.37572">
        <ele>157.656</ele>
        <time>2019-09-17T08:49:15.001Z</time>
      </trkpt>
      <trkpt lat="50.43483" lon="2.37573">
        <ele>157.763</ele>
        <time>2019-09-17T08:49:18.001Z</time>
      </trkpt>
      <trkpt lat="50.43483" lon="2.37576">
        <ele>157.992</ele>
        <time>2019-09-17T08:49:21.001Z</time>
      </trkpt>
      <trkpt lat="50.43484" lon="2.37577">
        <ele>157.339</ele>
        <time>2019-09-17T08:49:24.001Z</time>
      </trkpt>
      <trkpt lat="50.43484" lon="2.37577">
        <ele>157.339</ele>
        <time>2019-09-17T08:49:27.001Z</time>
      </trkpt>
      <trkpt lat="50.43484" lon="2.37577">
        <ele>156.862</ele>
        <time>2019-09-17T08:49:30.001Z</time>
      </trkpt>
      <trkpt lat="50.43491" lon="2.37584">
        <ele>156.745</ele>
        <time>2019-09-17T08:49:36.001Z</time>
      </trkpt>
      <trkpt lat="50.43499" lon="2.37585">
        <ele>157.116</ele>
        <time>2019-09-17T08:49:39.001Z</time>
      </trkpt>
      <trkpt lat="50.43511" lon="2.37583">
        <ele>157.089</ele>
        <time>2019-09-17T08:49:42.001Z</time>
      </trkpt>
      <trkpt lat="50.43525" lon="2.37581">
        <ele>157.129</ele>
        <time>2019-09-17T08:49:45.001Z</time>
      </trkpt>
      <trkpt lat="50.43539" lon="2.37579">
        <ele>157.943</ele>
        <time>2019-09-17T08:49:48.001Z</time>
      </trkpt>
      <trkpt lat="50.43554" lon="2.37579">
        <ele>158.486</ele>
        <time>2019-09-17T08:49:51.001Z</time>
      </trkpt>
      <trkpt lat="50.43569" lon="2.37594">
        <ele>160.224</ele>
        <time>2019-09-17T08:49:54.001Z</time>
      </trkpt>
      <trkpt lat="50.43579" lon="2.37614">
        <ele>161.189</ele>
        <time>2019-09-17T08:49:57.001Z</time>
      </trkpt>
      <trkpt lat="50.43594" lon="2.37634">
        <ele>161.09</ele>
        <time>2019-09-17T08:50:00.000Z</time>
      </trkpt>
      <trkpt lat="50.43609" lon="2.37654">
        <ele>161.111</ele>
        <time>2019-09-17T08:50:03.001Z</time>
      </trkpt>
      <trkpt lat="50.43624" lon="2.37673">
        <ele>161.214</ele>
        <time>2019-09-17T08:50:06.001Z</time>
      </trkpt>
      <trkpt lat="50.4364" lon="2.37693">
        <ele>160.554</ele>
        <time>2019-09-17T08:50:09.001Z</time>
      </trkpt>
      <trkpt lat="50.43655" lon="2.37713">
        <ele>159.396</ele>
        <time>2019-09-17T08:50:12.001Z</time>
      </trkpt>
      <trkpt lat="50.43671" lon="2.37733">
        <ele>158.629</ele>
        <time>2019-09-17T08:50:15.001Z</time>
      </trkpt>
      <trkpt lat="50.43686" lon="2.37753">
        <ele>157.726</ele>
        <time>2019-09-17T08:50:18.001Z</time>
      </trkpt>
      <trkpt lat="50.43701" lon="2.37773">
        <ele>156.605</ele>
        <time>2019-09-17T08:50:21.001Z</time>
      </trkpt>
      <trkpt lat="50.43717" lon="2.37793">
        <ele>155.909</ele>
        <time>2019-09-17T08:50:24.001Z</time>
      </trkpt>
      <trkpt lat="50.43732" lon="2.37813">
        <ele>155.157</ele>
        <time>2019-09-17T08:50:27.001Z</time>
      </trkpt>
      <trkpt lat="50.43746" lon="2.37834">
        <ele>154.757</ele>
        <time>2019-09-17T08:50:30.001Z</time>
      </trkpt>
      <trkpt lat="50.43761" lon="2.37853">
        <ele>154.007</ele>
        <time>2019-09-17T08:50:33.001Z</time>
      </trkpt>
      <trkpt lat="50.43776" lon="2.37872">
        <ele>153.782</ele>
        <time>2019-09-17T08:50:36.001Z</time>
      </trkpt>
      <trkpt lat="50.4379" lon="2.37893">
        <ele>153.402</ele>
        <time>2019-09-17T08:50:39.001Z</time>
      </trkpt>
      <trkpt lat="50.43805" lon="2.37914">
        <ele>153.14</ele>
        <time>2019-09-17T08:50:42.001Z</time>
      </trkpt>
      <trkpt lat="50.4382" lon="2.37936">
        <ele>152.422</ele>
        <time>2019-09-17T08:50:45.001Z</time>
      </trkpt>
      <trkpt lat="50.43836" lon="2.37955">
        <ele>152.092</ele>
        <time>2019-09-17T08:50:48.001Z</time>
      </trkpt>
      <trkpt lat="50.43852" lon="2.37973">
        <ele>151.432</ele>
        <time>2019-09-17T08:50:51.001Z</time>
      </trkpt>
      <trkpt lat="50.43869" lon="2.37988">
        <ele>150.308</ele>
        <time>2019-09-17T08:50:54.001Z</time>
      </trkpt>
      <trkpt lat="50.43885" lon="2.38004">
        <ele>149.577</ele>
        <time>2019-09-17T08:50:57.001Z</time>
      </trkpt>
      <trkpt lat="50.43901" lon="2.38018">
        <ele>149.206</ele>
        <time>2019-09-17T08:51:00.000Z</time>
      </trkpt>
      <trkpt lat="50.43917" lon="2.38033">
        <ele>148.926</ele>
        <time>2019-09-17T08:51:03.001Z</time>
      </trkpt>
      <trkpt lat="50.43931" lon="2.3805">
        <ele>148.581</ele>
        <time>2019-09-17T08:51:06.001Z</time>
      </trkpt>
      <trkpt lat="50.43945" lon="2.38068">
        <ele>148.247</ele>
        <time>2019-09-17T08:51:09.001Z</time>
      </trkpt>
      <trkpt lat="50.43958" lon="2.38087">
        <ele>148.061</ele>
        <time>2019-09-17T08:51:12.001Z</time>
      </trkpt>
      <trkpt lat="50.43971" lon="2.38105">
        <ele>147.386</ele>
        <time>2019-09-17T08:51:15.001Z</time>
      </trkpt>
      <trkpt lat="50.43984" lon="2.38122">
        <ele>147.156</ele>
        <time>2019-09-17T08:51:18.001Z</time>
      </trkpt>
      <trkpt lat="50.43997" lon="2.38139">
        <ele>147.011</ele>
        <time>2019-09-17T08:51:21.001Z</time>
      </trkpt>
      <trkpt lat="50.44009" lon="2.38156">
        <ele>147.024</ele>
        <time>2019-09-17T08:51:24.001Z</time>
      </trkpt>
      <trkpt lat="50.44021" lon="2.38172">
        <ele>147.317</ele>
        <time>2019-09-17T08:51:27.001Z</time>
      </trkpt>
      <trkpt lat="50.44034" lon="2.38188">
        <ele>147.227</ele>
        <time>2019-09-17T08:51:30.001Z</time>
      </trkpt>
      <trkpt lat="50.44047" lon="2.38205">
        <ele>147.052</ele>
        <time>2019-09-17T08:51:33.001Z</time>
      </trkpt>
      <trkpt lat="50.44059" lon="2.38222">
        <ele>147.381</ele>
        <time>2019-09-17T08:51:36.001Z</time>
      </trkpt>
      <trkpt lat="50.4407" lon="2.3824">
        <ele>148.315</ele>
        <time>2019-09-17T08:51:39.001Z</time>
      </trkpt>
      <trkpt lat="50.44081" lon="2.38258">
        <ele>148.912</ele>
        <time>2019-09-17T08:51:42.001Z</time>
      </trkpt>
      <trkpt lat="50.4409" lon="2.38278">
        <ele>149.456</ele>
        <time>2019-09-17T08:51:45.001Z</time>
      </trkpt>
      <trkpt lat="50.44099" lon="2.38298">
        <ele>149.8</ele>
        <time>2019-09-17T08:51:48.001Z</time>
      </trkpt>
      <trkpt lat="50.44106" lon="2.38317">
        <ele>149.863</ele>
        <time>2019-09-17T08:51:51.001Z</time>
      </trkpt>
      <trkpt lat="50.44112" lon="2.38336">
        <ele>149.963</ele>
        <time>2019-09-17T08:51:54.001Z</time>
      </trkpt>
      <trkpt lat="50.44119" lon="2.38355">
        <ele>150.315</ele>
        <time>2019-09-17T08:51:57.001Z</time>
      </trkpt>
      <trkpt lat="50.44126" lon="2.38374">
        <ele>150.576</ele>
        <time>2019-09-17T08:52:00.000Z</time>
      </trkpt>
      <trkpt lat="50.44133" lon="2.38393">
        <ele>150.623</ele>
        <time>2019-09-17T08:52:03.001Z</time>
      </trkpt>
      <trkpt lat="50.44139" lon="2.38412">
        <ele>150.642</ele>
        <time>2019-09-17T08:52:06.001Z</time>
      </trkpt>
      <trkpt lat="50.44146" lon="2.3843">
        <ele>150.52</ele>
        <time>2019-09-17T08:52:09.001Z</time>
      </trkpt>
      <trkpt lat="50.44152" lon="2.38447">
        <ele>150.508</ele>
        <time>2019-09-17T08:52:12.001Z</time>
      </trkpt>
      <trkpt lat="50.44158" lon="2.38464">
        <ele>150.695</ele>
        <time>2019-09-17T08:52:15.001Z</time>
      </trkpt>
      <trkpt lat="50.44164" lon="2.3848">
        <ele>150.887</ele>
        <time>2019-09-17T08:52:18.001Z</time>
      </trkpt>
      <trkpt lat="50.4417" lon="2.38497">
        <ele>151.082</ele>
        <time>2019-09-17T08:52:21.001Z</time>
      </trkpt>
      <trkpt lat="50.44175" lon="2.38513">
        <ele>151.312</ele>
        <time>2019-09-17T08:52:24.001Z</time>
      </trkpt>
      <trkpt lat="50.44182" lon="2.3853">
        <ele>151.729</ele>
        <time>2019-09-17T08:52:27.001Z</time>
      </trkpt>
      <trkpt lat="50.44187" lon="2.38547">
        <ele>151.971</ele>
        <time>2019-09-17T08:52:30.001Z</time>
      </trkpt>
      <trkpt lat="50.44194" lon="2.38563">
        <ele>151.792</ele>
        <time>2019-09-17T08:52:33.001Z</time>
      </trkpt>
      <trkpt lat="50.44201" lon="2.38581">
        <ele>151.972</ele>
        <time>2019-09-17T08:52:36.001Z</time>
      </trkpt>
      <trkpt lat="50.44207" lon="2.38597">
        <ele>152.482</ele>
        <time>2019-09-17T08:52:39.001Z</time>
      </trkpt>
      <trkpt lat="50.44212" lon="2.38614">
        <ele>152.911</ele>
        <time>2019-09-17T08:52:42.001Z</time>
      </trkpt>
      <trkpt lat="50.44218" lon="2.38631">
        <ele>153.085</ele>
        <time>2019-09-17T08:52:45.001Z</time>
      </trkpt>
      <trkpt lat="50.44225" lon="2.3865">
        <ele>153.188</ele>
        <time>2019-09-17T08:52:48.001Z</time>
      </trkpt>
      <trkpt lat="50.44231" lon="2.38669">
        <ele>153.123</ele>
        <time>2019-09-17T08:52:51.001Z</time>
      </trkpt>
      <trkpt lat="50.44238" lon="2.38688">
        <ele>152.868</ele>
        <time>2019-09-17T08:52:54.001Z</time>
      </trkpt>
      <trkpt lat="50.44246" lon="2.38705">
        <ele>153.021</ele>
        <time>2019-09-17T08:52:57.001Z</time>
      </trkpt>
      <trkpt lat="50.44253" lon="2.38724">
        <ele>153.092</ele>
        <time>2019-09-17T08:53:00.000Z</time>
      </trkpt>
      <trkpt lat="50.44261" lon="2.38742">
        <ele>153.097</ele>
        <time>2019-09-17T08:53:03.001Z</time>
      </trkpt>
      <trkpt lat="50.44269" lon="2.38761">
        <ele>153.236</ele>
        <time>2019-09-17T08:53:06.001Z</time>
      </trkpt>
      <trkpt lat="50.44277" lon="2.3878">
        <ele>153.33</ele>
        <time>2019-09-17T08:53:09.001Z</time>
      </trkpt>
      <trkpt lat="50.44285" lon="2.38801">
        <ele>153.172</ele>
        <time>2019-09-17T08:53:12.001Z</time>
      </trkpt>
      <trkpt lat="50.44294" lon="2.38821">
        <ele>152.722</ele>
        <time>2019-09-17T08:53:15.001Z</time>
      </trkpt>
      <trkpt lat="50.44302" lon="2.3884">
        <ele>152.462</ele>
        <time>2019-09-17T08:53:18.001Z</time>
      </trkpt>
      <trkpt lat="50.44311" lon="2.3886">
        <ele>152.36</ele>
        <time>2019-09-17T08:53:21.001Z</time>
      </trkpt>
      <trkpt lat="50.4432" lon="2.3888">
        <ele>152.384</ele>
        <time>2019-09-17T08:53:24.001Z</time>
      </trkpt>
      <trkpt lat="50.44329" lon="2.38899">
        <ele>152.492</ele>
        <time>2019-09-17T08:53:27.001Z</time>
      </trkpt>
      <trkpt lat="50.44337" lon="2.38919">
        <ele>152.415</ele>
        <time>2019-09-17T08:53:30.001Z</time>
      </trkpt>
      <trkpt lat="50.44345" lon="2.38939">
        <ele>152.493</ele>
        <time>2019-09-17T08:53:33.001Z</time>
      </trkpt>
      <trkpt lat="50.44354" lon="2.38957">
        <ele>152.766</ele>
        <time>2019-09-17T08:53:36.001Z</time>
      </trkpt>
      <trkpt lat="50.44363" lon="2.38977">
        <ele>152.749</ele>
        <time>2019-09-17T08:53:39.001Z</time>
      </trkpt>
      <trkpt lat="50.4437" lon="2.38996">
        <ele>152.76</ele>
        <time>2019-09-17T08:53:42.001Z</time>
      </trkpt>
      <trkpt lat="50.44379" lon="2.39016">
        <ele>152.881</ele>
        <time>2019-09-17T08:53:45.001Z</time>
      </trkpt>
      <trkpt lat="50.44386" lon="2.39037">
        <ele>153.024</ele>
        <time>2019-09-17T08:53:48.001Z</time>
      </trkpt>
      <trkpt lat="50.44394" lon="2.39058">
        <ele>153.034</ele>
        <time>2019-09-17T08:53:51.001Z</time>
      </trkpt>
      <trkpt lat="50.44401" lon="2.39078">
        <ele>152.936</ele>
        <time>2019-09-17T08:53:54.001Z</time>
      </trkpt>
      <trkpt lat="50.44408" lon="2.391">
        <ele>152.89</ele>
        <time>2019-09-17T08:53:57.001Z</time>
      </trkpt>
      <trkpt lat="50.44415" lon="2.39121">
        <ele>152.686</ele>
        <time>2019-09-17T08:54:00.000Z</time>
      </trkpt>
      <trkpt lat="50.44422" lon="2.39143">
        <ele>151.988</ele>
        <time>2019-09-17T08:54:03.001Z</time>
      </trkpt>
      <trkpt lat="50.44429" lon="2.39165">
        <ele>151.732</ele>
        <time>2019-09-17T08:54:06.001Z</time>
      </trkpt>
      <trkpt lat="50.44437" lon="2.39187">
        <ele>151.452</ele>
        <time>2019-09-17T08:54:09.001Z</time>
      </trkpt>
      <trkpt lat="50.44444" lon="2.39209">
        <ele>151.556</ele>
        <time>2019-09-17T08:54:12.001Z</time>
      </trkpt>
      <trkpt lat="50.44451" lon="2.3923">
        <ele>151.631</ele>
        <time>2019-09-17T08:54:15.001Z</time>
      </trkpt>
      <trkpt lat="50.44457" lon="2.39252">
        <ele>151.906</ele>
        <time>2019-09-17T08:54:18.001Z</time>
      </trkpt>
      <trkpt lat="50.44465" lon="2.39273">
        <ele>151.979</ele>
        <time>2019-09-17T08:54:21.001Z</time>
      </trkpt>
      <trkpt lat="50.44473" lon="2.39294">
        <ele>151.906</ele>
        <time>2019-09-17T08:54:24.001Z</time>
      </trkpt>
      <trkpt lat="50.4448" lon="2.39316">
        <ele>151.562</ele>
        <time>2019-09-17T08:54:27.001Z</time>
      </trkpt>
      <trkpt lat="50.44487" lon="2.39337">
        <ele>151.142</ele>
        <time>2019-09-17T08:54:30.001Z</time>
      </trkpt>
      <trkpt lat="50.44495" lon="2.39358">
        <ele>150.485</ele>
        <time>2019-09-17T08:54:33.001Z</time>
      </trkpt>
      <trkpt lat="50.44502" lon="2.39378">
        <ele>149.811</ele>
        <time>2019-09-17T08:54:36.001Z</time>
      </trkpt>
      <trkpt lat="50.4451" lon="2.39397">
        <ele>149.726</ele>
        <time>2019-09-17T08:54:39.001Z</time>
      </trkpt>
      <trkpt lat="50.44517" lon="2.39418">
        <ele>149.842</ele>
        <time>2019-09-17T08:54:42.001Z</time>
      </trkpt>
      <trkpt lat="50.44524" lon="2.39439">
        <ele>149.8</ele>
        <time>2019-09-17T08:54:45.001Z</time>
      </trkpt>
      <trkpt lat="50.44533" lon="2.3946">
        <ele>150.047</ele>
        <time>2019-09-17T08:54:48.001Z</time>
      </trkpt>
      <trkpt lat="50.44541" lon="2.39481">
        <ele>150.268</ele>
        <time>2019-09-17T08:54:51.001Z</time>
      </trkpt>
      <trkpt lat="50.44548" lon="2.39502">
        <ele>150.159</ele>
        <time>2019-09-17T08:54:54.001Z</time>
      </trkpt>
      <trkpt lat="50.44556" lon="2.39523">
        <ele>149.946</ele>
        <time>2019-09-17T08:54:57.001Z</time>
      </trkpt>
      <trkpt lat="50.44563" lon="2.39545">
        <ele>149.608</ele>
        <time>2019-09-17T08:55:00.000Z</time>
      </trkpt>
      <trkpt lat="50.44569" lon="2.39568">
        <ele>149.201</ele>
        <time>2019-09-17T08:55:03.001Z</time>
      </trkpt>
      <trkpt lat="50.44576" lon="2.39592">
        <ele>148.998</ele>
        <time>2019-09-17T08:55:06.001Z</time>
      </trkpt>
      <trkpt lat="50.44582" lon="2.39617">
        <ele>148.968</ele>
        <time>2019-09-17T08:55:09.001Z</time>
      </trkpt>
      <trkpt lat="50.44589" lon="2.39643">
        <ele>148.761</ele>
        <time>2019-09-17T08:55:12.001Z</time>
      </trkpt>
      <trkpt lat="50.44596" lon="2.3967">
        <ele>148.614</ele>
        <time>2019-09-17T08:55:15.001Z</time>
      </trkpt>
      <trkpt lat="50.44602" lon="2.39697">
        <ele>148.151</ele>
        <time>2019-09-17T08:55:18.001Z</time>
      </trkpt>
      <trkpt lat="50.44609" lon="2.39724">
        <ele>147.621</ele>
        <time>2019-09-17T08:55:21.001Z</time>
      </trkpt>
      <trkpt lat="50.44618" lon="2.3975">
        <ele>147.097</ele>
        <time>2019-09-17T08:55:24.001Z</time>
      </trkpt>
      <trkpt lat="50.44628" lon="2.39775">
        <ele>146.326</ele>
        <time>2019-09-17T08:55:27.001Z</time>
      </trkpt>
      <trkpt lat="50.44639" lon="2.39799">
        <ele>145.29</ele>
        <time>2019-09-17T08:55:30.001Z</time>
      </trkpt>
      <trkpt lat="50.44648" lon="2.39824">
        <ele>144.39</ele>
        <time>2019-09-17T08:55:33.001Z</time>
      </trkpt>
      <trkpt lat="50.44658" lon="2.39848">
        <ele>143.552</ele>
        <time>2019-09-17T08:55:36.001Z</time>
      </trkpt>
      <trkpt lat="50.44669" lon="2.39872">
        <ele>142.964</ele>
        <time>2019-09-17T08:55:39.001Z</time>
      </trkpt>
      <trkpt lat="50.4468" lon="2.39898">
        <ele>142.055</ele>
        <time>2019-09-17T08:55:42.001Z</time>
      </trkpt>
      <trkpt lat="50.44691" lon="2.39923">
        <ele>141.993</ele>
        <time>2019-09-17T08:55:45.001Z</time>
      </trkpt>
      <trkpt lat="50.44701" lon="2.3995">
        <ele>142.153</ele>
        <time>2019-09-17T08:55:48.001Z</time>
      </trkpt>
      <trkpt lat="50.44711" lon="2.39978">
        <ele>142.364</ele>
        <time>2019-09-17T08:55:51.001Z</time>
      </trkpt>
      <trkpt lat="50.44722" lon="2.40009">
        <ele>142.278</ele>
        <time>2019-09-17T08:55:54.001Z</time>
      </trkpt>
      <trkpt lat="50.44731" lon="2.40041">
        <ele>141.698</ele>
        <time>2019-09-17T08:55:57.001Z</time>
      </trkpt>
      <trkpt lat="50.44743" lon="2.40073">
        <ele>141.232</ele>
        <time>2019-09-17T08:56:00.000Z</time>
      </trkpt>
      <trkpt lat="50.44755" lon="2.40107">
        <ele>140.692</ele>
        <time>2019-09-17T08:56:03.001Z</time>
      </trkpt>
      <trkpt lat="50.44766" lon="2.40143">
        <ele>139.708</ele>
        <time>2019-09-17T08:56:06.001Z</time>
      </trkpt>
      <trkpt lat="50.44778" lon="2.4018">
        <ele>138.918</ele>
        <time>2019-09-17T08:56:09.001Z</time>
      </trkpt>
      <trkpt lat="50.44789" lon="2.4022">
        <ele>137.836</ele>
        <time>2019-09-17T08:56:12.001Z</time>
      </trkpt>
      <trkpt lat="50.448" lon="2.40261">
        <ele>136.64</ele>
        <time>2019-09-17T08:56:15.001Z</time>
      </trkpt>
      <trkpt lat="50.44811" lon="2.40304">
        <ele>135.298</ele>
        <time>2019-09-17T08:56:18.001Z</time>
      </trkpt>
      <trkpt lat="50.44823" lon="2.40346">
        <ele>133.887</ele>
        <time>2019-09-17T08:56:21.001Z</time>
      </trkpt>
      <trkpt lat="50.44841" lon="2.40386">
        <ele>131.84</ele>
        <time>2019-09-17T08:56:24.001Z</time>
      </trkpt>
      <trkpt lat="50.44865" lon="2.40423">
        <ele>129.758</ele>
        <time>2019-09-17T08:56:27.001Z</time>
      </trkpt>
      <trkpt lat="50.44893" lon="2.40456">
        <ele>127.92</ele>
        <time>2019-09-17T08:56:30.001Z</time>
      </trkpt>
      <trkpt lat="50.44923" lon="2.40487">
        <ele>125.931</ele>
        <time>2019-09-17T08:56:33.001Z</time>
      </trkpt>
      <trkpt lat="50.44953" lon="2.40521">
        <ele>124.001</ele>
        <time>2019-09-17T08:56:36.001Z</time>
      </trkpt>
      <trkpt lat="50.44982" lon="2.40554">
        <ele>121.821</ele>
        <time>2019-09-17T08:56:39.001Z</time>
      </trkpt>
      <trkpt lat="50.45006" lon="2.40592">
        <ele>119.947</ele>
        <time>2019-09-17T08:56:42.001Z</time>
      </trkpt>
      <trkpt lat="50.4503" lon="2.40627">
        <ele>118.234</ele>
        <time>2019-09-17T08:56:45.001Z</time>
      </trkpt>
      <trkpt lat="50.45052" lon="2.40653">
        <ele>116.495</ele>
        <time>2019-09-17T08:56:48.001Z</time>
      </trkpt>
      <trkpt lat="50.45073" lon="2.40677">
        <ele>115.34</ele>
        <time>2019-09-17T08:56:51.001Z</time>
      </trkpt>
      <trkpt lat="50.45095" lon="2.40702">
        <ele>114.291</ele>
        <time>2019-09-17T08:56:54.001Z</time>
      </trkpt>
      <trkpt lat="50.45118" lon="2.40727">
        <ele>113.708</ele>
        <time>2019-09-17T08:56:57.001Z</time>
      </trkpt>
      <trkpt lat="50.45139" lon="2.40749">
        <ele>113.144</ele>
        <time>2019-09-17T08:57:00.000Z</time>
      </trkpt>
      <trkpt lat="50.45156" lon="2.40768">
        <ele>111.306</ele>
        <time>2019-09-17T08:57:03.001Z</time>
      </trkpt>
      <trkpt lat="50.45173" lon="2.40782">
        <ele>109.495</ele>
        <time>2019-09-17T08:57:06.001Z</time>
      </trkpt>
      <trkpt lat="50.45185" lon="2.40794">
        <ele>108.16</ele>
        <time>2019-09-17T08:57:09.001Z</time>
      </trkpt>
      <trkpt lat="50.45195" lon="2.408">
        <ele>106.998</ele>
        <time>2019-09-17T08:57:12.001Z</time>
      </trkpt>
      <trkpt lat="50.45208" lon="2.408">
        <ele>106.46</ele>
        <time>2019-09-17T08:57:15.001Z</time>
      </trkpt>
      <trkpt lat="50.45222" lon="2.40791">
        <ele>106.522</ele>
        <time>2019-09-17T08:57:18.001Z</time>
      </trkpt>
      <trkpt lat="50.45236" lon="2.40779">
        <ele>106.298</ele>
        <time>2019-09-17T08:57:21.001Z</time>
      </trkpt>
      <trkpt lat="50.45246" lon="2.40771">
        <ele>106.803</ele>
        <time>2019-09-17T08:57:24.001Z</time>
      </trkpt>
      <trkpt lat="50.45257" lon="2.40763">
        <ele>106.557</ele>
        <time>2019-09-17T08:57:27.001Z</time>
      </trkpt>
      <trkpt lat="50.45266" lon="2.40755">
        <ele>107.179</ele>
        <time>2019-09-17T08:57:30.001Z</time>
      </trkpt>
      <trkpt lat="50.45276" lon="2.40746">
        <ele>108.126</ele>
        <time>2019-09-17T08:57:33.001Z</time>
      </trkpt>
      <trkpt lat="50.45286" lon="2.40738">
        <ele>108.913</ele>
        <time>2019-09-17T08:57:36.001Z</time>
      </trkpt>
      <trkpt lat="50.45297" lon="2.4073">
        <ele>109.435</ele>
        <time>2019-09-17T08:57:39.001Z</time>
      </trkpt>
      <trkpt lat="50.45309" lon="2.4072">
        <ele>110.745</ele>
        <time>2019-09-17T08:57:42.001Z</time>
      </trkpt>
      <trkpt lat="50.45321" lon="2.4071">
        <ele>112.149</ele>
        <time>2019-09-17T08:57:45.001Z</time>
      </trkpt>
      <trkpt lat="50.45334" lon="2.40701">
        <ele>113.052</ele>
        <time>2019-09-17T08:57:48.001Z</time>
      </trkpt>
      <trkpt lat="50.45347" lon="2.40692">
        <ele>113.198</ele>
        <time>2019-09-17T08:57:51.001Z</time>
      </trkpt>
      <trkpt lat="50.45361" lon="2.40684">
        <ele>113.004</ele>
        <time>2019-09-17T08:57:54.001Z</time>
      </trkpt>
      <trkpt lat="50.45373" lon="2.40676">
        <ele>114.203</ele>
        <time>2019-09-17T08:57:57.001Z</time>
      </trkpt>
      <trkpt lat="50.45385" lon="2.4067">
        <ele>116.067</ele>
        <time>2019-09-17T08:58:00.000Z</time>
      </trkpt>
      <trkpt lat="50.45398" lon="2.40662">
        <ele>116.863</ele>
        <time>2019-09-17T08:58:03.001Z</time>
      </trkpt>
      <trkpt lat="50.45411" lon="2.40653">
        <ele>117.546</ele>
        <time>2019-09-17T08:58:06.001Z</time>
      </trkpt>
      <trkpt lat="50.45424" lon="2.40644">
        <ele>117.843</ele>
        <time>2019-09-17T08:58:09.001Z</time>
      </trkpt>
      <trkpt lat="50.45436" lon="2.40635">
        <ele>117.29</ele>
        <time>2019-09-17T08:58:12.001Z</time>
      </trkpt>
      <trkpt lat="50.45448" lon="2.40628">
        <ele>117.432</ele>
        <time>2019-09-17T08:58:15.001Z</time>
      </trkpt>
      <trkpt lat="50.4546" lon="2.40622">
        <ele>118.083</ele>
        <time>2019-09-17T08:58:18.001Z</time>
      </trkpt>
      <trkpt lat="50.45471" lon="2.40618">
        <ele>118.343</ele>
        <time>2019-09-17T08:58:21.001Z</time>
      </trkpt>
      <trkpt lat="50.45483" lon="2.40613">
        <ele>118.304</ele>
        <time>2019-09-17T08:58:24.001Z</time>
      </trkpt>
      <trkpt lat="50.45495" lon="2.40609">
        <ele>118.335</ele>
        <time>2019-09-17T08:58:27.001Z</time>
      </trkpt>
      <trkpt lat="50.45507" lon="2.40603">
        <ele>117.96</ele>
        <time>2019-09-17T08:58:30.001Z</time>
      </trkpt>
      <trkpt lat="50.45521" lon="2.40596">
        <ele>116.666</ele>
        <time>2019-09-17T08:58:33.001Z</time>
      </trkpt>
      <trkpt lat="50.45536" lon="2.40599">
        <ele>115.544</ele>
        <time>2019-09-17T08:58:36.001Z</time>
      </trkpt>
      <trkpt lat="50.45548" lon="2.40619">
        <ele>114.343</ele>
        <time>2019-09-17T08:58:39.001Z</time>
      </trkpt>
      <trkpt lat="50.45558" lon="2.40642">
        <ele>112.61</ele>
        <time>2019-09-17T08:58:42.001Z</time>
      </trkpt>
      <trkpt lat="50.45568" lon="2.40663">
        <ele>111.315</ele>
        <time>2019-09-17T08:58:45.001Z</time>
      </trkpt>
      <trkpt lat="50.45581" lon="2.40679">
        <ele>110.492</ele>
        <time>2019-09-17T08:58:48.001Z</time>
      </trkpt>
      <trkpt lat="50.45597" lon="2.40684">
        <ele>110.479</ele>
        <time>2019-09-17T08:58:51.001Z</time>
      </trkpt>
      <trkpt lat="50.45613" lon="2.40687">
        <ele>110.449</ele>
        <time>2019-09-17T08:58:54.001Z</time>
      </trkpt>
      <trkpt lat="50.4563" lon="2.40691">
        <ele>109.966</ele>
        <time>2019-09-17T08:58:57.001Z</time>
      </trkpt>
      <trkpt lat="50.45648" lon="2.40698">
        <ele>108.642</ele>
        <time>2019-09-17T08:59:00.000Z</time>
      </trkpt>
      <trkpt lat="50.45668" lon="2.40709">
        <ele>107.718</ele>
        <time>2019-09-17T08:59:03.001Z</time>
      </trkpt>
      <trkpt lat="50.45687" lon="2.40723">
        <ele>107.368</ele>
        <time>2019-09-17T08:59:06.001Z</time>
      </trkpt>
      <trkpt lat="50.45706" lon="2.40735">
        <ele>106.565</ele>
        <time>2019-09-17T08:59:09.001Z</time>
      </trkpt>
      <trkpt lat="50.45724" lon="2.40746">
        <ele>106.088</ele>
        <time>2019-09-17T08:59:12.001Z</time>
      </trkpt>
      <trkpt lat="50.45742" lon="2.40758">
        <ele>105.524</ele>
        <time>2019-09-17T08:59:15.001Z</time>
      </trkpt>
      <trkpt lat="50.4576" lon="2.4077">
        <ele>104.588</ele>
        <time>2019-09-17T08:59:18.001Z</time>
      </trkpt>
      <trkpt lat="50.45778" lon="2.40783">
        <ele>103.683</ele>
        <time>2019-09-17T08:59:21.001Z</time>
      </trkpt>
      <trkpt lat="50.45796" lon="2.40797">
        <ele>103.014</ele>
        <time>2019-09-17T08:59:24.001Z</time>
      </trkpt>
      <trkpt lat="50.45814" lon="2.40813">
        <ele>102.841</ele>
        <time>2019-09-17T08:59:27.001Z</time>
      </trkpt>
      <trkpt lat="50.45831" lon="2.4083">
        <ele>103.042</ele>
        <time>2019-09-17T08:59:30.001Z</time>
      </trkpt>
      <trkpt lat="50.45848" lon="2.40847">
        <ele>102.611</ele>
        <time>2019-09-17T08:59:33.001Z</time>
      </trkpt>
      <trkpt lat="50.45866" lon="2.40864">
        <ele>101.559</ele>
        <time>2019-09-17T08:59:36.001Z</time>
      </trkpt>
      <trkpt lat="50.45883" lon="2.4088">
        <ele>100.644</ele>
        <time>2019-09-17T08:59:39.001Z</time>
      </trkpt>
      <trkpt lat="50.459" lon="2.40897">
        <ele>99.536</ele>
        <time>2019-09-17T08:59:42.001Z</time>
      </trkpt>
      <trkpt lat="50.45915" lon="2.40915">
        <ele>98.33</ele>
        <time>2019-09-17T08:59:45.001Z</time>
      </trkpt>
      <trkpt lat="50.45931" lon="2.40933">
        <ele>98.286</ele>
        <time>2019-09-17T08:59:48.001Z</time>
      </trkpt>
      <trkpt lat="50.45946" lon="2.40949">
        <ele>97.643</ele>
        <time>2019-09-17T08:59:51.001Z</time>
      </trkpt>
      <trkpt lat="50.45959" lon="2.40957">
        <ele>97.207</ele>
        <time>2019-09-17T08:59:54.001Z</time>
      </trkpt>
      <trkpt lat="50.45968" lon="2.40958">
        <ele>96.846</ele>
        <time>2019-09-17T08:59:57.001Z</time>
      </trkpt>
      <trkpt lat="50.45972" lon="2.40957">
        <ele>96.934</ele>
        <time>2019-09-17T09:00:00.000Z</time>
      </trkpt>
      <trkpt lat="50.45972" lon="2.40957">
        <ele>96.934</ele>
        <time>2019-09-17T09:00:06.001Z</time>
      </trkpt>
      <trkpt lat="50.45973" lon="2.40958">
        <ele>96.752</ele>
        <time>2019-09-17T09:00:09.001Z</time>
      </trkpt>
      <trkpt lat="50.45972" lon="2.40958">
        <ele>96.658</ele>
        <time>2019-09-17T09:00:12.001Z</time>
      </trkpt>
      <trkpt lat="50.45972" lon="2.40957">
        <ele>96.934</ele>
        <time>2019-09-17T09:00:15.001Z</time>
      </trkpt>
      <trkpt lat="50.45972" lon="2.40957">
        <ele>96.957</ele>
        <time>2019-09-17T09:00:18.001Z</time>
      </trkpt>
      <trkpt lat="50.45972" lon="2.40956">
        <ele>97.423</ele>
        <time>2019-09-17T09:00:21.001Z</time>
      </trkpt>
      <trkpt lat="50.45971" lon="2.40958">
        <ele>98.3</ele>
        <time>2019-09-17T09:02:18.001Z</time>
      </trkpt>
      <trkpt lat="50.45972" lon="2.40957">
        <ele>98.241</ele>
        <time>2019-09-17T09:02:21.001Z</time>
      </trkpt>
      <trkpt lat="50.45978" lon="2.40949">
        <ele>98.634</ele>
        <time>2019-09-17T09:02:27.001Z</time>
      </trkpt>
      <trkpt lat="50.45984" lon="2.40939">
        <ele>98.836</ele>
        <time>2019-09-17T09:02:30.001Z</time>
      </trkpt>
      <trkpt lat="50.45991" lon="2.40924">
        <ele>98.861</ele>
        <time>2019-09-17T09:02:33.001Z</time>
      </trkpt>
      <trkpt lat="50.46001" lon="2.40909">
        <ele>99.151</ele>
        <time>2019-09-17T09:02:36.001Z</time>
      </trkpt>
      <trkpt lat="50.46013" lon="2.40891">
        <ele>98.664</ele>
        <time>2019-09-17T09:02:39.001Z</time>
      </trkpt>
      <trkpt lat="50.46024" lon="2.40867">
        <ele>97.938</ele>
        <time>2019-09-17T09:02:42.001Z</time>
      </trkpt>
      <trkpt lat="50.46037" lon="2.40841">
        <ele>96.98</ele>
        <time>2019-09-17T09:02:45.001Z</time>
      </trkpt>
      <trkpt lat="50.46053" lon="2.40813">
        <ele>96.018</ele>
        <time>2019-09-17T09:02:48.001Z</time>
      </trkpt>
      <trkpt lat="50.46069" lon="2.40784">
        <ele>95.61</ele>
        <time>2019-09-17T09:02:51.001Z</time>
      </trkpt>
      <trkpt lat="50.46085" lon="2.40756">
        <ele>96.453</ele>
        <time>2019-09-17T09:02:54.001Z</time>
      </trkpt>
      <trkpt lat="50.46101" lon="2.40735">
        <ele>98.077</ele>
        <time>2019-09-17T09:02:57.001Z</time>
      </trkpt>
      <trkpt lat="50.46119" lon="2.40717">
        <ele>98.487</ele>
        <time>2019-09-17T09:03:00.000Z</time>
      </trkpt>
      <trkpt lat="50.46135" lon="2.40708">
        <ele>99.271</ele>
        <time>2019-09-17T09:03:03.001Z</time>
      </trkpt>
      <trkpt lat="50.46148" lon="2.40704">
        <ele>99.181</ele>
        <time>2019-09-17T09:03:06.001Z</time>
      </trkpt>
      <trkpt lat="50.46159" lon="2.40705">
        <ele>98.778</ele>
        <time>2019-09-17T09:03:09.001Z</time>
      </trkpt>
      <trkpt lat="50.46167" lon="2.40709">
        <ele>99.256</ele>
        <time>2019-09-17T09:03:12.001Z</time>
      </trkpt>
      <trkpt lat="50.46176" lon="2.40715">
        <ele>99.538</ele>
        <time>2019-09-17T09:03:15.001Z</time>
      </trkpt>
      <trkpt lat="50.46185" lon="2.40724">
        <ele>99.699</ele>
        <time>2019-09-17T09:03:18.001Z</time>
      </trkpt>
      <trkpt lat="50.46195" lon="2.40735">
        <ele>99.174</ele>
        <time>2019-09-17T09:03:21.001Z</time>
      </trkpt>
      <trkpt lat="50.46204" lon="2.40746">
        <ele>98.281</ele>
        <time>2019-09-17T09:03:24.001Z</time>
      </trkpt>
      <trkpt lat="50.46214" lon="2.40758">
        <ele>97.792</ele>
        <time>2019-09-17T09:03:27.001Z</time>
      </trkpt>
      <trkpt lat="50.46223" lon="2.40769">
        <ele>97.677</ele>
        <time>2019-09-17T09:03:30.001Z</time>
      </trkpt>
      <trkpt lat="50.46233" lon="2.40782">
        <ele>97.534</ele>
        <time>2019-09-17T09:03:33.001Z</time>
      </trkpt>
      <trkpt lat="50.46241" lon="2.40796">
        <ele>97.254</ele>
        <time>2019-09-17T09:03:36.001Z</time>
      </trkpt>
      <trkpt lat="50.4625" lon="2.40812">
        <ele>96.925</ele>
        <time>2019-09-17T09:03:39.001Z</time>
      </trkpt>
      <trkpt lat="50.4626" lon="2.4083">
        <ele>96.843</ele>
        <time>2019-09-17T09:03:42.001Z</time>
      </trkpt>
      <trkpt lat="50.4627" lon="2.40847">
        <ele>96.872</ele>
        <time>2019-09-17T09:03:45.001Z</time>
      </trkpt>
      <trkpt lat="50.46284" lon="2.40861">
        <ele>95.94</ele>
        <time>2019-09-17T09:03:48.001Z</time>
      </trkpt>
      <trkpt lat="50.463" lon="2.40872">
        <ele>95.391</ele>
        <time>2019-09-17T09:03:51.001Z</time>
      </trkpt>
      <trkpt lat="50.46317" lon="2.40884">
        <ele>94.323</ele>
        <time>2019-09-17T09:03:54.001Z</time>
      </trkpt>
      <trkpt lat="50.46334" lon="2.40897">
        <ele>93.189</ele>
        <time>2019-09-17T09:03:57.001Z</time>
      </trkpt>
      <trkpt lat="50.46353" lon="2.40912">
        <ele>92.403</ele>
        <time>2019-09-17T09:04:00.000Z</time>
      </trkpt>
      <trkpt lat="50.46374" lon="2.40927">
        <ele>92.023</ele>
        <time>2019-09-17T09:04:03.001Z</time>
      </trkpt>
      <trkpt lat="50.46394" lon="2.40941">
        <ele>91.534</ele>
        <time>2019-09-17T09:04:06.001Z</time>
      </trkpt>
      <trkpt lat="50.46414" lon="2.40954">
        <ele>91.205</ele>
        <time>2019-09-17T09:04:09.001Z</time>
      </trkpt>
      <trkpt lat="50.46435" lon="2.40968">
        <ele>89.881</ele>
        <time>2019-09-17T09:04:12.001Z</time>
      </trkpt>
      <trkpt lat="50.46455" lon="2.40981">
        <ele>88.485</ele>
        <time>2019-09-17T09:04:15.001Z</time>
      </trkpt>
      <trkpt lat="50.46474" lon="2.40992">
        <ele>87.91</ele>
        <time>2019-09-17T09:04:18.001Z</time>
      </trkpt>
      <trkpt lat="50.46493" lon="2.41003">
        <ele>87.439</ele>
        <time>2019-09-17T09:04:21.001Z</time>
      </trkpt>
      <trkpt lat="50.46511" lon="2.41012">
        <ele>87.154</ele>
        <time>2019-09-17T09:04:24.001Z</time>
      </trkpt>
      <trkpt lat="50.46526" lon="2.4102">
        <ele>87.105</ele>
        <time>2019-09-17T09:04:27.001Z</time>
      </trkpt>
      <trkpt lat="50.46541" lon="2.41029">
        <ele>87.521</ele>
        <time>2019-09-17T09:04:30.001Z</time>
      </trkpt>
      <trkpt lat="50.46555" lon="2.41037">
        <ele>87.735</ele>
        <time>2019-09-17T09:04:33.001Z</time>
      </trkpt>
      <trkpt lat="50.46569" lon="2.41047">
        <ele>87.794</ele>
        <time>2019-09-17T09:04:36.001Z</time>
      </trkpt>
      <trkpt lat="50.46587" lon="2.41057">
        <ele>88.238</ele>
        <time>2019-09-17T09:04:39.001Z</time>
      </trkpt>
      <trkpt lat="50.46606" lon="2.41067">
        <ele>88.148</ele>
        <time>2019-09-17T09:04:42.001Z</time>
      </trkpt>
      <trkpt lat="50.46626" lon="2.41078">
        <ele>89.508</ele>
        <time>2019-09-17T09:04:45.001Z</time>
      </trkpt>
      <trkpt lat="50.46645" lon="2.41088">
        <ele>89.793</ele>
        <time>2019-09-17T09:04:48.001Z</time>
      </trkpt>
      <trkpt lat="50.46661" lon="2.41102">
        <ele>89.203</ele>
        <time>2019-09-17T09:04:51.001Z</time>
      </trkpt>
      <trkpt lat="50.46669" lon="2.41129">
        <ele>89.455</ele>
        <time>2019-09-17T09:04:54.001Z</time>
      </trkpt>
      <trkpt lat="50.4667" lon="2.41161">
        <ele>89.451</ele>
        <time>2019-09-17T09:04:57.001Z</time>
      </trkpt>
      <trkpt lat="50.46672" lon="2.41192">
        <ele>89.069</ele>
        <time>2019-09-17T09:05:00.000Z</time>
      </trkpt>
      <trkpt lat="50.46677" lon="2.41221">
        <ele>88.643</ele>
        <time>2019-09-17T09:05:03.001Z</time>
      </trkpt>
      <trkpt lat="50.46682" lon="2.41251">
        <ele>88.45</ele>
        <time>2019-09-17T09:05:06.001Z</time>
      </trkpt>
      <trkpt lat="50.4669" lon="2.41279">
        <ele>88.29</ele>
        <time>2019-09-17T09:05:09.001Z</time>
      </trkpt>
      <trkpt lat="50.46696" lon="2.41306">
        <ele>88.866</ele>
        <time>2019-09-17T09:05:12.001Z</time>
      </trkpt>
      <trkpt lat="50.46702" lon="2.41334">
        <ele>88.619</ele>
        <time>2019-09-17T09:05:15.001Z</time>
      </trkpt>
      <trkpt lat="50.46709" lon="2.41361">
        <ele>88.095</ele>
        <time>2019-09-17T09:05:18.001Z</time>
      </trkpt>
      <trkpt lat="50.46717" lon="2.41385">
        <ele>87.801</ele>
        <time>2019-09-17T09:05:21.001Z</time>
      </trkpt>
      <trkpt lat="50.46724" lon="2.41407">
        <ele>88.093</ele>
        <time>2019-09-17T09:05:24.001Z</time>
      </trkpt>
      <trkpt lat="50.46731" lon="2.41428">
        <ele>88.748</ele>
        <time>2019-09-17T09:05:27.001Z</time>
      </trkpt>
      <trkpt lat="50.46739" lon="2.41451">
        <ele>89.516</ele>
        <time>2019-09-17T09:05:30.001Z</time>
      </trkpt>
      <trkpt lat="50.46751" lon="2.4147">
        <ele>90.633</ele>
        <time>2019-09-17T09:05:33.001Z</time>
      </trkpt>
      <trkpt lat="50.46766" lon="2.41485">
        <ele>90.671</ele>
        <time>2019-09-17T09:05:36.001Z</time>
      </trkpt>
      <trkpt lat="50.46779" lon="2.41495">
        <ele>90.79</ele>
        <time>2019-09-17T09:05:39.001Z</time>
      </trkpt>
      <trkpt lat="50.46794" lon="2.41505">
        <ele>90.537</ele>
        <time>2019-09-17T09:05:42.001Z</time>
      </trkpt>
      <trkpt lat="50.4681" lon="2.41512">
        <ele>89.573</ele>
        <time>2019-09-17T09:05:45.001Z</time>
      </trkpt>
      <trkpt lat="50.46825" lon="2.41517">
        <ele>87.854</ele>
        <time>2019-09-17T09:05:48.001Z</time>
      </trkpt>
      <trkpt lat="50.4684" lon="2.41518">
        <ele>86.481</ele>
        <time>2019-09-17T09:05:51.001Z</time>
      </trkpt>
      <trkpt lat="50.46855" lon="2.41518">
        <ele>85.944</ele>
        <time>2019-09-17T09:05:54.001Z</time>
      </trkpt>
      <trkpt lat="50.46869" lon="2.41521">
        <ele>85.072</ele>
        <time>2019-09-17T09:05:57.001Z</time>
      </trkpt>
      <trkpt lat="50.46883" lon="2.41524">
        <ele>84.809</ele>
        <time>2019-09-17T09:06:00.000Z</time>
      </trkpt>
      <trkpt lat="50.46898" lon="2.41527">
        <ele>85.179</ele>
        <time>2019-09-17T09:06:03.001Z</time>
      </trkpt>
      <trkpt lat="50.46912" lon="2.4153">
        <ele>85.915</ele>
        <time>2019-09-17T09:06:06.001Z</time>
      </trkpt>
      <trkpt lat="50.46927" lon="2.41534">
        <ele>85.792</ele>
        <time>2019-09-17T09:06:09.001Z</time>
      </trkpt>
      <trkpt lat="50.46942" lon="2.41541">
        <ele>85.683</ele>
        <time>2019-09-17T09:06:12.001Z</time>
      </trkpt>
      <trkpt lat="50.46956" lon="2.4155">
        <ele>85.25</ele>
        <time>2019-09-17T09:06:15.001Z</time>
      </trkpt>
      <trkpt lat="50.46971" lon="2.41561">
        <ele>85.173</ele>
        <time>2019-09-17T09:06:18.001Z</time>
      </trkpt>
      <trkpt lat="50.46986" lon="2.41574">
        <ele>84.938</ele>
        <time>2019-09-17T09:06:21.001Z</time>
      </trkpt>
      <trkpt lat="50.47001" lon="2.41585">
        <ele>84.6</ele>
        <time>2019-09-17T09:06:24.001Z</time>
      </trkpt>
      <trkpt lat="50.47015" lon="2.41596">
        <ele>84.423</ele>
        <time>2019-09-17T09:06:27.001Z</time>
      </trkpt>
      <trkpt lat="50.47032" lon="2.41609">
        <ele>84.181</ele>
        <time>2019-09-17T09:06:30.001Z</time>
      </trkpt>
      <trkpt lat="50.47049" lon="2.41619">
        <ele>84.083</ele>
        <time>2019-09-17T09:06:33.001Z</time>
      </trkpt>
      <trkpt lat="50.47065" lon="2.41629">
        <ele>83.884</ele>
        <time>2019-09-17T09:06:36.001Z</time>
      </trkpt>
      <trkpt lat="50.47081" lon="2.41638">
        <ele>83.474</ele>
        <time>2019-09-17T09:06:39.001Z</time>
      </trkpt>
      <trkpt lat="50.47097" lon="2.41652">
        <ele>82.503</ele>
        <time>2019-09-17T09:06:42.001Z</time>
      </trkpt>
      <trkpt lat="50.47113" lon="2.41672">
        <ele>81.019</ele>
        <time>2019-09-17T09:06:45.001Z</time>
      </trkpt>
      <trkpt lat="50.47128" lon="2.4169">
        <ele>79.384</ele>
        <time>2019-09-17T09:06:48.001Z</time>
      </trkpt>
      <trkpt lat="50.47143" lon="2.41701">
        <ele>78.84</ele>
        <time>2019-09-17T09:06:51.001Z</time>
      </trkpt>
      <trkpt lat="50.47161" lon="2.41702">
        <ele>78.313</ele>
        <time>2019-09-17T09:06:54.001Z</time>
      </trkpt>
      <trkpt lat="50.47179" lon="2.41693">
        <ele>78.267</ele>
        <time>2019-09-17T09:06:57.001Z</time>
      </trkpt>
      <trkpt lat="50.47197" lon="2.41683">
        <ele>78.551</ele>
        <time>2019-09-17T09:07:00.000Z</time>
      </trkpt>
      <trkpt lat="50.47215" lon="2.41675">
        <ele>78.984</ele>
        <time>2019-09-17T09:07:03.001Z</time>
      </trkpt>
      <trkpt lat="50.4723" lon="2.41671">
        <ele>79.808</ele>
        <time>2019-09-17T09:07:06.001Z</time>
      </trkpt>
      <trkpt lat="50.47244" lon="2.41669">
        <ele>80.093</ele>
        <time>2019-09-17T09:07:09.001Z</time>
      </trkpt>
      <trkpt lat="50.47257" lon="2.4167">
        <ele>80.4</ele>
        <time>2019-09-17T09:07:12.001Z</time>
      </trkpt>
      <trkpt lat="50.4727" lon="2.41676">
        <ele>80.611</ele>
        <time>2019-09-17T09:07:15.001Z</time>
      </trkpt>
      <trkpt lat="50.4728" lon="2.41686">
        <ele>80.733</ele>
        <time>2019-09-17T09:07:18.001Z</time>
      </trkpt>
      <trkpt lat="50.4729" lon="2.41697">
        <ele>80.949</ele>
        <time>2019-09-17T09:07:21.001Z</time>
      </trkpt>
      <trkpt lat="50.473" lon="2.41708">
        <ele>81.841</ele>
        <time>2019-09-17T09:07:24.001Z</time>
      </trkpt>
      <trkpt lat="50.47309" lon="2.41719">
        <ele>82.656</ele>
        <time>2019-09-17T09:07:27.001Z</time>
      </trkpt>
      <trkpt lat="50.47317" lon="2.4173">
        <ele>83.526</ele>
        <time>2019-09-17T09:07:30.001Z</time>
      </trkpt>
      <trkpt lat="50.47327" lon="2.41741">
        <ele>84.539</ele>
        <time>2019-09-17T09:07:33.001Z</time>
      </trkpt>
      <trkpt lat="50.47337" lon="2.41752">
        <ele>84.858</ele>
        <time>2019-09-17T09:07:36.001Z</time>
      </trkpt>
      <trkpt lat="50.47347" lon="2.41764">
        <ele>85.65</ele>
        <time>2019-09-17T09:07:39.001Z</time>
      </trkpt>
      <trkpt lat="50.47356" lon="2.41777">
        <ele>86.038</ele>
        <time>2019-09-17T09:07:42.001Z</time>
      </trkpt>
      <trkpt lat="50.47368" lon="2.4179">
        <ele>86.598</ele>
        <time>2019-09-17T09:07:45.001Z</time>
      </trkpt>
      <trkpt lat="50.47382" lon="2.41805">
        <ele>86.688</ele>
        <time>2019-09-17T09:07:48.001Z</time>
      </trkpt>
      <trkpt lat="50.47396" lon="2.41823">
        <ele>86.624</ele>
        <time>2019-09-17T09:07:51.001Z</time>
      </trkpt>
      <trkpt lat="50.47411" lon="2.41839">
        <ele>86.461</ele>
        <time>2019-09-17T09:07:54.001Z</time>
      </trkpt>
      <trkpt lat="50.47426" lon="2.41857">
        <ele>86.849</ele>
        <time>2019-09-17T09:07:57.001Z</time>
      </trkpt>
      <trkpt lat="50.47442" lon="2.41877">
        <ele>86.986</ele>
        <time>2019-09-17T09:08:00.000Z</time>
      </trkpt>
      <trkpt lat="50.47458" lon="2.41897">
        <ele>87.114</ele>
        <time>2019-09-17T09:08:03.001Z</time>
      </trkpt>
      <trkpt lat="50.47473" lon="2.41917">
        <ele>87.488</ele>
        <time>2019-09-17T09:08:06.001Z</time>
      </trkpt>
      <trkpt lat="50.4749" lon="2.41938">
        <ele>87.456</ele>
        <time>2019-09-17T09:08:09.001Z</time>
      </trkpt>
      <trkpt lat="50.47508" lon="2.41961">
        <ele>87.28</ele>
        <time>2019-09-17T09:08:12.001Z</time>
      </trkpt>
      <trkpt lat="50.47524" lon="2.41986">
        <ele>87.129</ele>
        <time>2019-09-17T09:08:15.001Z</time>
      </trkpt>
      <trkpt lat="50.47539" lon="2.42012">
        <ele>86.402</ele>
        <time>2019-09-17T09:08:18.001Z</time>
      </trkpt>
      <trkpt lat="50.47555" lon="2.42036">
        <ele>85.959</ele>
        <time>2019-09-17T09:08:21.001Z</time>
      </trkpt>
      <trkpt lat="50.4757" lon="2.42058">
        <ele>85.633</ele>
        <time>2019-09-17T09:08:24.001Z</time>
      </trkpt>
      <trkpt lat="50.47586" lon="2.42082">
        <ele>84.68</ele>
        <time>2019-09-17T09:08:27.001Z</time>
      </trkpt>
      <trkpt lat="50.47601" lon="2.42104">
        <ele>84.114</ele>
        <time>2019-09-17T09:08:30.001Z</time>
      </trkpt>
      <trkpt lat="50.47617" lon="2.42126">
        <ele>83.637</ele>
        <time>2019-09-17T09:08:33.001Z</time>
      </trkpt>
      <trkpt lat="50.47632" lon="2.42145">
        <ele>83.29</ele>
        <time>2019-09-17T09:08:36.001Z</time>
      </trkpt>
      <trkpt lat="50.4765" lon="2.42161">
        <ele>82.683</ele>
        <time>2019-09-17T09:08:39.001Z</time>
      </trkpt>
      <trkpt lat="50.47668" lon="2.42174">
        <ele>81.367</ele>
        <time>2019-09-17T09:08:42.001Z</time>
      </trkpt>
      <trkpt lat="50.47685" lon="2.42186">
        <ele>80.323</ele>
        <time>2019-09-17T09:08:45.001Z</time>
      </trkpt>
      <trkpt lat="50.47702" lon="2.42198">
        <ele>79.284</ele>
        <time>2019-09-17T09:08:48.001Z</time>
      </trkpt>
      <trkpt lat="50.47718" lon="2.42209">
        <ele>77.959</ele>
        <time>2019-09-17T09:08:51.001Z</time>
      </trkpt>
      <trkpt lat="50.47734" lon="2.4222">
        <ele>77.138</ele>
        <time>2019-09-17T09:08:54.001Z</time>
      </trkpt>
      <trkpt lat="50.47748" lon="2.42231">
        <ele>76.901</ele>
        <time>2019-09-17T09:08:57.001Z</time>
      </trkpt>
      <trkpt lat="50.47762" lon="2.42241">
        <ele>77.306</ele>
        <time>2019-09-17T09:09:00.000Z</time>
      </trkpt>
      <trkpt lat="50.47774" lon="2.42251">
        <ele>77.934</ele>
        <time>2019-09-17T09:09:03.001Z</time>
      </trkpt>
      <trkpt lat="50.47787" lon="2.4226">
        <ele>78.283</ele>
        <time>2019-09-17T09:09:06.001Z</time>
      </trkpt>
      <trkpt lat="50.47799" lon="2.42269">
        <ele>78.687</ele>
        <time>2019-09-17T09:09:09.001Z</time>
      </trkpt>
      <trkpt lat="50.4781" lon="2.42277">
        <ele>78.61</ele>
        <time>2019-09-17T09:09:12.001Z</time>
      </trkpt>
      <trkpt lat="50.47821" lon="2.42286">
        <ele>78.979</ele>
        <time>2019-09-17T09:09:15.001Z</time>
      </trkpt>
      <trkpt lat="50.47833" lon="2.42294">
        <ele>79.082</ele>
        <time>2019-09-17T09:09:18.001Z</time>
      </trkpt>
      <trkpt lat="50.47844" lon="2.42301">
        <ele>79.072</ele>
        <time>2019-09-17T09:09:21.001Z</time>
      </trkpt>
      <trkpt lat="50.47855" lon="2.42309">
        <ele>78.958</ele>
        <time>2019-09-17T09:09:24.001Z</time>
      </trkpt>
      <trkpt lat="50.47866" lon="2.42317">
        <ele>79.199</ele>
        <time>2019-09-17T09:09:27.001Z</time>
      </trkpt>
      <trkpt lat="50.47877" lon="2.42325">
        <ele>79.24</ele>
        <time>2019-09-17T09:09:30.001Z</time>
      </trkpt>
      <trkpt lat="50.47888" lon="2.42335">
        <ele>79.21</ele>
        <time>2019-09-17T09:09:33.001Z</time>
      </trkpt>
      <trkpt lat="50.47898" lon="2.42345">
        <ele>79.188</ele>
        <time>2019-09-17T09:09:36.001Z</time>
      </trkpt>
      <trkpt lat="50.47908" lon="2.42358">
        <ele>79.617</ele>
        <time>2019-09-17T09:09:39.001Z</time>
      </trkpt>
      <trkpt lat="50.47916" lon="2.42371">
        <ele>79.925</ele>
        <time>2019-09-17T09:09:42.001Z</time>
      </trkpt>
      <trkpt lat="50.47923" lon="2.42387">
        <ele>80.064</ele>
        <time>2019-09-17T09:09:45.001Z</time>
      </trkpt>
      <trkpt lat="50.47932" lon="2.42402">
        <ele>79.992</ele>
        <time>2019-09-17T09:09:48.001Z</time>
      </trkpt>
      <trkpt lat="50.4794" lon="2.42416">
        <ele>80.05</ele>
        <time>2019-09-17T09:09:51.001Z</time>
      </trkpt>
      <trkpt lat="50.47948" lon="2.42431">
        <ele>80.102</ele>
        <time>2019-09-17T09:09:54.001Z</time>
      </trkpt>
      <trkpt lat="50.47958" lon="2.42444">
        <ele>80.25</ele>
        <time>2019-09-17T09:09:57.001Z</time>
      </trkpt>
      <trkpt lat="50.47969" lon="2.42457">
        <ele>80.454</ele>
        <time>2019-09-17T09:10:00.000Z</time>
      </trkpt>
      <trkpt lat="50.47981" lon="2.4247">
        <ele>81.305</ele>
        <time>2019-09-17T09:10:03.001Z</time>
      </trkpt>
      <trkpt lat="50.47994" lon="2.42485">
        <ele>82.978</ele>
        <time>2019-09-17T09:10:06.001Z</time>
      </trkpt>
      <trkpt lat="50.48008" lon="2.425">
        <ele>84.297</ele>
        <time>2019-09-17T09:10:09.001Z</time>
      </trkpt>
      <trkpt lat="50.48021" lon="2.42515">
        <ele>84.836</ele>
        <time>2019-09-17T09:10:12.001Z</time>
      </trkpt>
      <trkpt lat="50.48035" lon="2.42531">
        <ele>85.456</ele>
        <time>2019-09-17T09:10:15.001Z</time>
      </trkpt>
      <trkpt lat="50.48046" lon="2.42548">
        <ele>85.799</ele>
        <time>2019-09-17T09:10:18.001Z</time>
      </trkpt>
      <trkpt lat="50.48058" lon="2.42567">
        <ele>85.889</ele>
        <time>2019-09-17T09:10:21.001Z</time>
      </trkpt>
      <trkpt lat="50.4807" lon="2.42589">
        <ele>86.269</ele>
        <time>2019-09-17T09:10:24.001Z</time>
      </trkpt>
      <trkpt lat="50.4808" lon="2.42613">
        <ele>86.298</ele>
        <time>2019-09-17T09:10:27.001Z</time>
      </trkpt>
      <trkpt lat="50.48087" lon="2.42638">
        <ele>86.155</ele>
        <time>2019-09-17T09:10:30.001Z</time>
      </trkpt>
      <trkpt lat="50.48094" lon="2.42664">
        <ele>85.714</ele>
        <time>2019-09-17T09:10:33.001Z</time>
      </trkpt>
      <trkpt lat="50.48103" lon="2.42689">
        <ele>86.084</ele>
        <time>2019-09-17T09:10:36.001Z</time>
      </trkpt>
      <trkpt lat="50.48111" lon="2.42714">
        <ele>86.558</ele>
        <time>2019-09-17T09:10:39.001Z</time>
      </trkpt>
      <trkpt lat="50.48119" lon="2.42741">
        <ele>87.451</ele>
        <time>2019-09-17T09:10:42.001Z</time>
      </trkpt>
      <trkpt lat="50.48126" lon="2.42769">
        <ele>87.482</ele>
        <time>2019-09-17T09:10:45.001Z</time>
      </trkpt>
      <trkpt lat="50.48137" lon="2.42797">
        <ele>87.987</ele>
        <time>2019-09-17T09:10:48.001Z</time>
      </trkpt>
      <trkpt lat="50.48147" lon="2.42822">
        <ele>88.217</ele>
        <time>2019-09-17T09:10:51.001Z</time>
      </trkpt>
      <trkpt lat="50.48158" lon="2.42842">
        <ele>87.968</ele>
        <time>2019-09-17T09:10:54.001Z</time>
      </trkpt>
      <trkpt lat="50.48168" lon="2.4286">
        <ele>87.809</ele>
        <time>2019-09-17T09:10:57.001Z</time>
      </trkpt>
      <trkpt lat="50.48173" lon="2.42872">
        <ele>87.392</ele>
        <time>2019-09-17T09:11:00.000Z</time>
      </trkpt>
      <trkpt lat="50.48174" lon="2.42878">
        <ele>85.908</ele>
        <time>2019-09-17T09:11:03.001Z</time>
      </trkpt>
      <trkpt lat="50.48174" lon="2.42878">
        <ele>85.908</ele>
        <time>2019-09-17T09:11:18.001Z</time>
      </trkpt>
      <trkpt lat="50.48176" lon="2.42884">
        <ele>84.941</ele>
        <time>2019-09-17T09:11:21.001Z</time>
      </trkpt>
      <trkpt lat="50.4818" lon="2.42887">
        <ele>83.652</ele>
        <time>2019-09-17T09:11:24.001Z</time>
      </trkpt>
      <trkpt lat="50.48183" lon="2.4289">
        <ele>82.335</ele>
        <time>2019-09-17T09:11:27.001Z</time>
      </trkpt>
      <trkpt lat="50.48183" lon="2.4289">
        <ele>82.335</ele>
        <time>2019-09-17T09:11:36.001Z</time>
      </trkpt>
      <trkpt lat="50.48183" lon="2.42892">
        <ele>81.972</ele>
        <time>2019-09-17T09:11:39.001Z</time>
      </trkpt>
      <trkpt lat="50.48185" lon="2.42894">
        <ele>81.683</ele>
        <time>2019-09-17T09:11:42.001Z</time>
      </trkpt>
      <trkpt lat="50.48186" lon="2.42895">
        <ele>80.47</ele>
        <time>2019-09-17T09:11:45.001Z</time>
      </trkpt>
      <trkpt lat="50.48186" lon="2.42896">
        <ele>80.263</ele>
        <time>2019-09-17T09:11:48.001Z</time>
      </trkpt>
      <trkpt lat="50.48188" lon="2.42902">
        <ele>79.57</ele>
        <time>2019-09-17T09:11:51.001Z</time>
      </trkpt>
      <trkpt lat="50.4819" lon="2.42912">
        <ele>78.735</ele>
        <time>2019-09-17T09:11:54.001Z</time>
      </trkpt>
      <trkpt lat="50.48191" lon="2.42928">
        <ele>78.594</ele>
        <time>2019-09-17T09:11:57.001Z</time>
      </trkpt>
      <trkpt lat="50.48191" lon="2.42949">
        <ele>78.945</ele>
        <time>2019-09-17T09:12:00.000Z</time>
      </trkpt>
      <trkpt lat="50.48192" lon="2.42973">
        <ele>78.984</ele>
        <time>2019-09-17T09:12:03.001Z</time>
      </trkpt>
      <trkpt lat="50.48193" lon="2.42997">
        <ele>79.256</ele>
        <time>2019-09-17T09:12:06.001Z</time>
      </trkpt>
      <trkpt lat="50.48193" lon="2.43021">
        <ele>79.377</ele>
        <time>2019-09-17T09:12:09.001Z</time>
      </trkpt>
      <trkpt lat="50.48194" lon="2.43046">
        <ele>79.733</ele>
        <time>2019-09-17T09:12:12.001Z</time>
      </trkpt>
      <trkpt lat="50.48195" lon="2.43073">
        <ele>79.388</ele>
        <time>2019-09-17T09:12:15.001Z</time>
      </trkpt>
      <trkpt lat="50.48196" lon="2.43101">
        <ele>79.15</ele>
        <time>2019-09-17T09:12:18.001Z</time>
      </trkpt>
      <trkpt lat="50.48197" lon="2.43127">
        <ele>78.987</ele>
        <time>2019-09-17T09:12:21.001Z</time>
      </trkpt>
      <trkpt lat="50.48199" lon="2.43153">
        <ele>78.418</ele>
        <time>2019-09-17T09:12:24.001Z</time>
      </trkpt>
      <trkpt lat="50.48201" lon="2.43179">
        <ele>78.13</ele>
        <time>2019-09-17T09:12:27.001Z</time>
      </trkpt>
      <trkpt lat="50.48203" lon="2.43204">
        <ele>78.286</ele>
        <time>2019-09-17T09:12:30.001Z</time>
      </trkpt>
      <trkpt lat="50.48206" lon="2.43227">
        <ele>78.618</ele>
        <time>2019-09-17T09:12:33.001Z</time>
      </trkpt>
      <trkpt lat="50.48209" lon="2.43253">
        <ele>78.512</ele>
        <time>2019-09-17T09:12:36.001Z</time>
      </trkpt>
      <trkpt lat="50.4821" lon="2.43278">
        <ele>78.124</ele>
        <time>2019-09-17T09:12:39.001Z</time>
      </trkpt>
      <trkpt lat="50.48213" lon="2.43303">
        <ele>77.339</ele>
        <time>2019-09-17T09:12:42.001Z</time>
      </trkpt>
      <trkpt lat="50.48214" lon="2.43327">
        <ele>76.936</ele>
        <time>2019-09-17T09:12:45.001Z</time>
      </trkpt>
      <trkpt lat="50.48214" lon="2.43353">
        <ele>76.686</ele>
        <time>2019-09-17T09:12:48.001Z</time>
      </trkpt>
      <trkpt lat="50.48212" lon="2.4338">
        <ele>76.721</ele>
        <time>2019-09-17T09:12:51.001Z</time>
      </trkpt>
      <trkpt lat="50.48208" lon="2.43406">
        <ele>77.222</ele>
        <time>2019-09-17T09:12:54.001Z</time>
      </trkpt>
      <trkpt lat="50.48204" lon="2.43433">
        <ele>77.5</ele>
        <time>2019-09-17T09:12:57.001Z</time>
      </trkpt>
      <trkpt lat="50.482" lon="2.4346">
        <ele>76.857</ele>
        <time>2019-09-17T09:13:00.000Z</time>
      </trkpt>
      <trkpt lat="50.48196" lon="2.43488">
        <ele>76.223</ele>
        <time>2019-09-17T09:13:03.001Z</time>
      </trkpt>
      <trkpt lat="50.48192" lon="2.43515">
        <ele>75.253</ele>
        <time>2019-09-17T09:13:06.001Z</time>
      </trkpt>
      <trkpt lat="50.48189" lon="2.43542">
        <ele>74.224</ele>
        <time>2019-09-17T09:13:09.001Z</time>
      </trkpt>
      <trkpt lat="50.48184" lon="2.43569">
        <ele>73.897</ele>
        <time>2019-09-17T09:13:12.001Z</time>
      </trkpt>
      <trkpt lat="50.48178" lon="2.43594">
        <ele>73.951</ele>
        <time>2019-09-17T09:13:15.001Z</time>
      </trkpt>
      <trkpt lat="50.48173" lon="2.43619">
        <ele>73.818</ele>
        <time>2019-09-17T09:13:18.001Z</time>
      </trkpt>
      <trkpt lat="50.48167" lon="2.43645">
        <ele>73.772</ele>
        <time>2019-09-17T09:13:21.001Z</time>
      </trkpt>
      <trkpt lat="50.48161" lon="2.43671">
        <ele>73.559</ele>
        <time>2019-09-17T09:13:24.001Z</time>
      </trkpt>
      <trkpt lat="50.48156" lon="2.43696">
        <ele>73.538</ele>
        <time>2019-09-17T09:13:27.001Z</time>
      </trkpt>
      <trkpt lat="50.48151" lon="2.43722">
        <ele>73.456</ele>
        <time>2019-09-17T09:13:30.001Z</time>
      </trkpt>
      <trkpt lat="50.48148" lon="2.43749">
        <ele>74.071</ele>
        <time>2019-09-17T09:13:33.001Z</time>
      </trkpt>
      <trkpt lat="50.48146" lon="2.43776">
        <ele>74.371</ele>
        <time>2019-09-17T09:13:36.001Z</time>
      </trkpt>
      <trkpt lat="50.48143" lon="2.43803">
        <ele>74.395</ele>
        <time>2019-09-17T09:13:39.001Z</time>
      </trkpt>
      <trkpt lat="50.48141" lon="2.43832">
        <ele>74.054</ele>
        <time>2019-09-17T09:13:42.001Z</time>
      </trkpt>
      <trkpt lat="50.48139" lon="2.43861">
        <ele>74.412</ele>
        <time>2019-09-17T09:13:45.001Z</time>
      </trkpt>
      <trkpt lat="50.48136" lon="2.43889">
        <ele>74.835</ele>
        <time>2019-09-17T09:13:48.001Z</time>
      </trkpt>
      <trkpt lat="50.48133" lon="2.43915">
        <ele>75.566</ele>
        <time>2019-09-17T09:13:51.001Z</time>
      </trkpt>
      <trkpt lat="50.48129" lon="2.43943">
        <ele>75.324</ele>
        <time>2019-09-17T09:13:54.001Z</time>
      </trkpt>
      <trkpt lat="50.48125" lon="2.43971">
        <ele>74.776</ele>
        <time>2019-09-17T09:13:57.001Z</time>
      </trkpt>
      <trkpt lat="50.48123" lon="2.43999">
        <ele>74.493</ele>
        <time>2019-09-17T09:14:00.000Z</time>
      </trkpt>
      <trkpt lat="50.48122" lon="2.44026">
        <ele>75.079</ele>
        <time>2019-09-17T09:14:03.001Z</time>
      </trkpt>
      <trkpt lat="50.48122" lon="2.44054">
        <ele>75.448</ele>
        <time>2019-09-17T09:14:06.001Z</time>
      </trkpt>
      <trkpt lat="50.48123" lon="2.4408">
        <ele>75.726</ele>
        <time>2019-09-17T09:14:09.001Z</time>
      </trkpt>
      <trkpt lat="50.48124" lon="2.44107">
        <ele>75.811</ele>
        <time>2019-09-17T09:14:12.001Z</time>
      </trkpt>
      <trkpt lat="50.48126" lon="2.44132">
        <ele>75.794</ele>
        <time>2019-09-17T09:14:15.001Z</time>
      </trkpt>
      <trkpt lat="50.48128" lon="2.44158">
        <ele>75.589</ele>
        <time>2019-09-17T09:14:18.001Z</time>
      </trkpt>
      <trkpt lat="50.48128" lon="2.44184">
        <ele>75.261</ele>
        <time>2019-09-17T09:14:21.001Z</time>
      </trkpt>
      <trkpt lat="50.48129" lon="2.44211">
        <ele>74.991</ele>
        <time>2019-09-17T09:14:24.001Z</time>
      </trkpt>
      <trkpt lat="50.48128" lon="2.44236">
        <ele>74.389</ele>
        <time>2019-09-17T09:14:27.001Z</time>
      </trkpt>
      <trkpt lat="50.48126" lon="2.44263">
        <ele>73.95</ele>
        <time>2019-09-17T09:14:30.001Z</time>
      </trkpt>
      <trkpt lat="50.48124" lon="2.44289">
        <ele>73.468</ele>
        <time>2019-09-17T09:14:33.001Z</time>
      </trkpt>
      <trkpt lat="50.4812" lon="2.44315">
        <ele>73.307</ele>
        <time>2019-09-17T09:14:36.001Z</time>
      </trkpt>
      <trkpt lat="50.48117" lon="2.44342">
        <ele>73.695</ele>
        <time>2019-09-17T09:14:39.001Z</time>
      </trkpt>
      <trkpt lat="50.48115" lon="2.44368">
        <ele>73.547</ele>
        <time>2019-09-17T09:14:42.001Z</time>
      </trkpt>
      <trkpt lat="50.48114" lon="2.44394">
        <ele>73.073</ele>
        <time>2019-09-17T09:14:45.001Z</time>
      </trkpt>
      <trkpt lat="50.48114" lon="2.4442">
        <ele>72.931</ele>
        <time>2019-09-17T09:14:48.001Z</time>
      </trkpt>
      <trkpt lat="50.48115" lon="2.44446">
        <ele>72.822</ele>
        <time>2019-09-17T09:14:51.001Z</time>
      </trkpt>
      <trkpt lat="50.48114" lon="2.44473">
        <ele>72.861</ele>
        <time>2019-09-17T09:14:54.001Z</time>
      </trkpt>
      <trkpt lat="50.48112" lon="2.44501">
        <ele>72.593</ele>
        <time>2019-09-17T09:14:57.001Z</time>
      </trkpt>
      <trkpt lat="50.4811" lon="2.44527">
        <ele>72.202</ele>
        <time>2019-09-17T09:15:00.000Z</time>
      </trkpt>
      <trkpt lat="50.48107" lon="2.44553">
        <ele>71.831</ele>
        <time>2019-09-17T09:15:03.001Z</time>
      </trkpt>
      <trkpt lat="50.48104" lon="2.44577">
        <ele>71.697</ele>
        <time>2019-09-17T09:15:06.001Z</time>
      </trkpt>
      <trkpt lat="50.48102" lon="2.44602">
        <ele>71.526</ele>
        <time>2019-09-17T09:15:09.001Z</time>
      </trkpt>
      <trkpt lat="50.48099" lon="2.44625">
        <ele>71.919</ele>
        <time>2019-09-17T09:15:12.001Z</time>
      </trkpt>
      <trkpt lat="50.48097" lon="2.44648">
        <ele>72.058</ele>
        <time>2019-09-17T09:15:15.001Z</time>
      </trkpt>
      <trkpt lat="50.48093" lon="2.44671">
        <ele>71.896</ele>
        <time>2019-09-17T09:15:18.001Z</time>
      </trkpt>
      <trkpt lat="50.48092" lon="2.44693">
        <ele>71.862</ele>
        <time>2019-09-17T09:15:21.001Z</time>
      </trkpt>
      <trkpt lat="50.48089" lon="2.44715">
        <ele>71.836</ele>
        <time>2019-09-17T09:15:24.001Z</time>
      </trkpt>
      <trkpt lat="50.48087" lon="2.44738">
        <ele>72.092</ele>
        <time>2019-09-17T09:15:27.001Z</time>
      </trkpt>
      <trkpt lat="50.48085" lon="2.44763">
        <ele>72.233</ele>
        <time>2019-09-17T09:15:30.001Z</time>
      </trkpt>
      <trkpt lat="50.48083" lon="2.44786">
        <ele>72.455</ele>
        <time>2019-09-17T09:15:33.001Z</time>
      </trkpt>
      <trkpt lat="50.4808" lon="2.4481">
        <ele>72.515</ele>
        <time>2019-09-17T09:15:36.001Z</time>
      </trkpt>
      <trkpt lat="50.48077" lon="2.44833">
        <ele>72.428</ele>
        <time>2019-09-17T09:15:39.001Z</time>
      </trkpt>
      <trkpt lat="50.48075" lon="2.44856">
        <ele>72.023</ele>
        <time>2019-09-17T09:15:42.001Z</time>
      </trkpt>
      <trkpt lat="50.4807" lon="2.44879">
        <ele>71.855</ele>
        <time>2019-09-17T09:15:45.001Z</time>
      </trkpt>
      <trkpt lat="50.48064" lon="2.44905">
        <ele>71.808</ele>
        <time>2019-09-17T09:15:48.001Z</time>
      </trkpt>
      <trkpt lat="50.48057" lon="2.44931">
        <ele>71.5</ele>
        <time>2019-09-17T09:15:51.001Z</time>
      </trkpt>
      <trkpt lat="50.4805" lon="2.44956">
        <ele>71.298</ele>
        <time>2019-09-17T09:15:54.001Z</time>
      </trkpt>
      <trkpt lat="50.48044" lon="2.4498">
        <ele>71.464</ele>
        <time>2019-09-17T09:15:57.001Z</time>
      </trkpt>
      <trkpt lat="50.48037" lon="2.45003">
        <ele>71.499</ele>
        <time>2019-09-17T09:16:00.000Z</time>
      </trkpt>
      <trkpt lat="50.48031" lon="2.45025">
        <ele>71.394</ele>
        <time>2019-09-17T09:16:03.001Z</time>
      </trkpt>
      <trkpt lat="50.48025" lon="2.45046">
        <ele>71.162</ele>
        <time>2019-09-17T09:16:06.001Z</time>
      </trkpt>
      <trkpt lat="50.48018" lon="2.45067">
        <ele>71.127</ele>
        <time>2019-09-17T09:16:09.001Z</time>
      </trkpt>
      <trkpt lat="50.48013" lon="2.45087">
        <ele>71.019</ele>
        <time>2019-09-17T09:16:12.001Z</time>
      </trkpt>
      <trkpt lat="50.48006" lon="2.45109">
        <ele>71.23</ele>
        <time>2019-09-17T09:16:15.001Z</time>
      </trkpt>
      <trkpt lat="50.47998" lon="2.45131">
        <ele>71.237</ele>
        <time>2019-09-17T09:16:18.001Z</time>
      </trkpt>
      <trkpt lat="50.4799" lon="2.45152">
        <ele>71.703</ele>
        <time>2019-09-17T09:16:21.001Z</time>
      </trkpt>
      <trkpt lat="50.47983" lon="2.45174">
        <ele>72.3</ele>
        <time>2019-09-17T09:16:24.001Z</time>
      </trkpt>
      <trkpt lat="50.47976" lon="2.45194">
        <ele>72.219</ele>
        <time>2019-09-17T09:16:27.001Z</time>
      </trkpt>
      <trkpt lat="50.47971" lon="2.45215">
        <ele>72.339</ele>
        <time>2019-09-17T09:16:30.001Z</time>
      </trkpt>
      <trkpt lat="50.47966" lon="2.45237">
        <ele>72.614</ele>
        <time>2019-09-17T09:16:33.001Z</time>
      </trkpt>
      <trkpt lat="50.47961" lon="2.4526">
        <ele>73.111</ele>
        <time>2019-09-17T09:16:36.001Z</time>
      </trkpt>
      <trkpt lat="50.47956" lon="2.45283">
        <ele>73.044</ele>
        <time>2019-09-17T09:16:39.001Z</time>
      </trkpt>
      <trkpt lat="50.47951" lon="2.45306">
        <ele>72.72</ele>
        <time>2019-09-17T09:16:42.001Z</time>
      </trkpt>
      <trkpt lat="50.47946" lon="2.45329">
        <ele>73.075</ele>
        <time>2019-09-17T09:16:45.001Z</time>
      </trkpt>
      <trkpt lat="50.47942" lon="2.4535">
        <ele>73.432</ele>
        <time>2019-09-17T09:16:48.001Z</time>
      </trkpt>
      <trkpt lat="50.47939" lon="2.45372">
        <ele>74.622</ele>
        <time>2019-09-17T09:16:51.001Z</time>
      </trkpt>
      <trkpt lat="50.47935" lon="2.45393">
        <ele>75.507</ele>
        <time>2019-09-17T09:16:54.001Z</time>
      </trkpt>
      <trkpt lat="50.47933" lon="2.45415">
        <ele>75.464</ele>
        <time>2019-09-17T09:16:57.001Z</time>
      </trkpt>
      <trkpt lat="50.47933" lon="2.45436">
        <ele>75.077</ele>
        <time>2019-09-17T09:17:00.000Z</time>
      </trkpt>
      <trkpt lat="50.47931" lon="2.45457">
        <ele>75.274</ele>
        <time>2019-09-17T09:17:03.001Z</time>
      </trkpt>
      <trkpt lat="50.47929" lon="2.45479">
        <ele>75.653</ele>
        <time>2019-09-17T09:17:06.001Z</time>
      </trkpt>
      <trkpt lat="50.47929" lon="2.45502">
        <ele>76.535</ele>
        <time>2019-09-17T09:17:09.001Z</time>
      </trkpt>
      <trkpt lat="50.47928" lon="2.45525">
        <ele>77.885</ele>
        <time>2019-09-17T09:17:12.001Z</time>
      </trkpt>
      <trkpt lat="50.47928" lon="2.45549">
        <ele>79.162</ele>
        <time>2019-09-17T09:17:15.001Z</time>
      </trkpt>
      <trkpt lat="50.47927" lon="2.45571">
        <ele>79.108</ele>
        <time>2019-09-17T09:17:18.001Z</time>
      </trkpt>
      <trkpt lat="50.47928" lon="2.45593">
        <ele>78.854</ele>
        <time>2019-09-17T09:17:21.001Z</time>
      </trkpt>
      <trkpt lat="50.4793" lon="2.45614">
        <ele>78.459</ele>
        <time>2019-09-17T09:17:24.001Z</time>
      </trkpt>
      <trkpt lat="50.47931" lon="2.45638">
        <ele>78.561</ele>
        <time>2019-09-17T09:17:27.001Z</time>
      </trkpt>
      <trkpt lat="50.47934" lon="2.45662">
        <ele>78.989</ele>
        <time>2019-09-17T09:17:30.001Z</time>
      </trkpt>
      <trkpt lat="50.47937" lon="2.45685">
        <ele>78.97</ele>
        <time>2019-09-17T09:17:33.001Z</time>
      </trkpt>
      <trkpt lat="50.4794" lon="2.45709">
        <ele>78.734</ele>
        <time>2019-09-17T09:17:36.001Z</time>
      </trkpt>
      <trkpt lat="50.47943" lon="2.45733">
        <ele>78.495</ele>
        <time>2019-09-17T09:17:39.001Z</time>
      </trkpt>
      <trkpt lat="50.47947" lon="2.45757">
        <ele>77.523</ele>
        <time>2019-09-17T09:17:42.001Z</time>
      </trkpt>
      <trkpt lat="50.47952" lon="2.4578">
        <ele>76.736</ele>
        <time>2019-09-17T09:17:45.001Z</time>
      </trkpt>
      <trkpt lat="50.47957" lon="2.45805">
        <ele>75.931</ele>
        <time>2019-09-17T09:17:48.001Z</time>
      </trkpt>
      <trkpt lat="50.47962" lon="2.4583">
        <ele>75.126</ele>
        <time>2019-09-17T09:17:51.001Z</time>
      </trkpt>
      <trkpt lat="50.47967" lon="2.45853">
        <ele>74.628</ele>
        <time>2019-09-17T09:17:54.001Z</time>
      </trkpt>
      <trkpt lat="50.47971" lon="2.45878">
        <ele>73.746</ele>
        <time>2019-09-17T09:17:57.001Z</time>
      </trkpt>
      <trkpt lat="50.47977" lon="2.45903">
        <ele>73.339</ele>
        <time>2019-09-17T09:18:00.000Z</time>
      </trkpt>
      <trkpt lat="50.47983" lon="2.45928">
        <ele>73.492</ele>
        <time>2019-09-17T09:18:03.001Z</time>
      </trkpt>
      <trkpt lat="50.47989" lon="2.45952">
        <ele>74.148</ele>
        <time>2019-09-17T09:18:06.001Z</time>
      </trkpt>
      <trkpt lat="50.47995" lon="2.45976">
        <ele>73.999</ele>
        <time>2019-09-17T09:18:09.001Z</time>
      </trkpt>
      <trkpt lat="50.48001" lon="2.46001">
        <ele>74.385</ele>
        <time>2019-09-17T09:18:12.001Z</time>
      </trkpt>
      <trkpt lat="50.48007" lon="2.46026">
        <ele>74.758</ele>
        <time>2019-09-17T09:18:15.001Z</time>
      </trkpt>
      <trkpt lat="50.48014" lon="2.46049">
        <ele>75.107</ele>
        <time>2019-09-17T09:18:18.001Z</time>
      </trkpt>
      <trkpt lat="50.48019" lon="2.46076">
        <ele>74.377</ele>
        <time>2019-09-17T09:18:21.001Z</time>
      </trkpt>
      <trkpt lat="50.48023" lon="2.46102">
        <ele>73.774</ele>
        <time>2019-09-17T09:18:24.001Z</time>
      </trkpt>
      <trkpt lat="50.48029" lon="2.46129">
        <ele>72.694</ele>
        <time>2019-09-17T09:18:27.001Z</time>
      </trkpt>
      <trkpt lat="50.48032" lon="2.46153">
        <ele>72.956</ele>
        <time>2019-09-17T09:18:30.001Z</time>
      </trkpt>
      <trkpt lat="50.48037" lon="2.46175">
        <ele>73.12</ele>
        <time>2019-09-17T09:18:33.001Z</time>
      </trkpt>
      <trkpt lat="50.48044" lon="2.46195">
        <ele>73.777</ele>
        <time>2019-09-17T09:18:36.001Z</time>
      </trkpt>
      <trkpt lat="50.48053" lon="2.46217">
        <ele>74.725</ele>
        <time>2019-09-17T09:18:39.001Z</time>
      </trkpt>
      <trkpt lat="50.48062" lon="2.46241">
        <ele>75.289</ele>
        <time>2019-09-17T09:18:42.001Z</time>
      </trkpt>
      <trkpt lat="50.4807" lon="2.46269">
        <ele>74.125</ele>
        <time>2019-09-17T09:18:45.001Z</time>
      </trkpt>
      <trkpt lat="50.48073" lon="2.46298">
        <ele>73.617</ele>
        <time>2019-09-17T09:18:48.001Z</time>
      </trkpt>
      <trkpt lat="50.48074" lon="2.46328">
        <ele>73.483</ele>
        <time>2019-09-17T09:18:51.001Z</time>
      </trkpt>
      <trkpt lat="50.48073" lon="2.46359">
        <ele>72.692</ele>
        <time>2019-09-17T09:18:54.001Z</time>
      </trkpt>
      <trkpt lat="50.48073" lon="2.46391">
        <ele>71.581</ele>
        <time>2019-09-17T09:18:57.001Z</time>
      </trkpt>
      <trkpt lat="50.48073" lon="2.46423">
        <ele>70.684</ele>
        <time>2019-09-17T09:19:00.000Z</time>
      </trkpt>
      <trkpt lat="50.48075" lon="2.46454">
        <ele>69.455</ele>
        <time>2019-09-17T09:19:03.001Z</time>
      </trkpt>
      <trkpt lat="50.48076" lon="2.46481">
        <ele>68.434</ele>
        <time>2019-09-17T09:19:06.001Z</time>
      </trkpt>
      <trkpt lat="50.48076" lon="2.46507">
        <ele>67.921</ele>
        <time>2019-09-17T09:19:09.001Z</time>
      </trkpt>
      <trkpt lat="50.48075" lon="2.46531">
        <ele>67.891</ele>
        <time>2019-09-17T09:19:12.001Z</time>
      </trkpt>
      <trkpt lat="50.48077" lon="2.46551">
        <ele>67.36</ele>
        <time>2019-09-17T09:19:15.001Z</time>
      </trkpt>
      <trkpt lat="50.48076" lon="2.46567">
        <ele>67.532</ele>
        <time>2019-09-17T09:19:18.001Z</time>
      </trkpt>
      <trkpt lat="50.48076" lon="2.46581">
        <ele>67.657</ele>
        <time>2019-09-17T09:19:21.001Z</time>
      </trkpt>
      <trkpt lat="50.48077" lon="2.46599">
        <ele>68.04</ele>
        <time>2019-09-17T09:19:24.001Z</time>
      </trkpt>
      <trkpt lat="50.48078" lon="2.4662">
        <ele>68.473</ele>
        <time>2019-09-17T09:19:27.001Z</time>
      </trkpt>
      <trkpt lat="50.48082" lon="2.46642">
        <ele>68.38</ele>
        <time>2019-09-17T09:19:30.001Z</time>
      </trkpt>
      <trkpt lat="50.48087" lon="2.46666">
        <ele>68.459</ele>
        <time>2019-09-17T09:19:33.001Z</time>
      </trkpt>
      <trkpt lat="50.48094" lon="2.46689">
        <ele>69.287</ele>
        <time>2019-09-17T09:19:36.001Z</time>
      </trkpt>
      <trkpt lat="50.48105" lon="2.46713">
        <ele>70.529</ele>
        <time>2019-09-17T09:19:39.001Z</time>
      </trkpt>
      <trkpt lat="50.48115" lon="2.46738">
        <ele>71.425</ele>
        <time>2019-09-17T09:19:42.001Z</time>
      </trkpt>
      <trkpt lat="50.48124" lon="2.46764">
        <ele>71.337</ele>
        <time>2019-09-17T09:19:45.001Z</time>
      </trkpt>
      <trkpt lat="50.48132" lon="2.4679">
        <ele>71.354</ele>
        <time>2019-09-17T09:19:48.001Z</time>
      </trkpt>
      <trkpt lat="50.48141" lon="2.46815">
        <ele>72.088</ele>
        <time>2019-09-17T09:19:51.001Z</time>
      </trkpt>
      <trkpt lat="50.4815" lon="2.4684">
        <ele>71.829</ele>
        <time>2019-09-17T09:19:54.001Z</time>
      </trkpt>
      <trkpt lat="50.48159" lon="2.46865">
        <ele>71.249</ele>
        <time>2019-09-17T09:19:57.001Z</time>
      </trkpt>
      <trkpt lat="50.48164" lon="2.46891">
        <ele>70.953</ele>
        <time>2019-09-17T09:20:00.000Z</time>
      </trkpt>
      <trkpt lat="50.48169" lon="2.46919">
        <ele>70.73</ele>
        <time>2019-09-17T09:20:03.001Z</time>
      </trkpt>
      <trkpt lat="50.48174" lon="2.46947">
        <ele>70.249</ele>
        <time>2019-09-17T09:20:06.001Z</time>
      </trkpt>
      <trkpt lat="50.48178" lon="2.46976">
        <ele>69.651</ele>
        <time>2019-09-17T09:20:09.001Z</time>
      </trkpt>
      <trkpt lat="50.4818" lon="2.47006">
        <ele>69.35</ele>
        <time>2019-09-17T09:20:12.001Z</time>
      </trkpt>
      <trkpt lat="50.48186" lon="2.47036">
        <ele>69.607</ele>
        <time>2019-09-17T09:20:15.001Z</time>
      </trkpt>
      <trkpt lat="50.48192" lon="2.47066">
        <ele>69.786</ele>
        <time>2019-09-17T09:20:18.001Z</time>
      </trkpt>
      <trkpt lat="50.48199" lon="2.47094">
        <ele>69.711</ele>
        <time>2019-09-17T09:20:21.001Z</time>
      </trkpt>
      <trkpt lat="50.48206" lon="2.47123">
        <ele>69.466</ele>
        <time>2019-09-17T09:20:24.001Z</time>
      </trkpt>
      <trkpt lat="50.48213" lon="2.4715">
        <ele>68.914</ele>
        <time>2019-09-17T09:20:27.001Z</time>
      </trkpt>
      <trkpt lat="50.4822" lon="2.47178">
        <ele>68.645</ele>
        <time>2019-09-17T09:20:30.001Z</time>
      </trkpt>
      <trkpt lat="50.48227" lon="2.47204">
        <ele>68.994</ele>
        <time>2019-09-17T09:20:33.001Z</time>
      </trkpt>
      <trkpt lat="50.48233" lon="2.47229">
        <ele>69.352</ele>
        <time>2019-09-17T09:20:36.001Z</time>
      </trkpt>
      <trkpt lat="50.48238" lon="2.47252">
        <ele>70.05</ele>
        <time>2019-09-17T09:20:39.001Z</time>
      </trkpt>
      <trkpt lat="50.48244" lon="2.47275">
        <ele>69.999</ele>
        <time>2019-09-17T09:20:42.001Z</time>
      </trkpt>
      <trkpt lat="50.48253" lon="2.47296">
        <ele>70.017</ele>
        <time>2019-09-17T09:20:45.001Z</time>
      </trkpt>
      <trkpt lat="50.48268" lon="2.47315">
        <ele>69.707</ele>
        <time>2019-09-17T09:20:48.001Z</time>
      </trkpt>
      <trkpt lat="50.48281" lon="2.47331">
        <ele>69.225</ele>
        <time>2019-09-17T09:20:51.001Z</time>
      </trkpt>
      <trkpt lat="50.48287" lon="2.4734">
        <ele>69.862</ele>
        <time>2019-09-17T09:20:54.001Z</time>
      </trkpt>
      <trkpt lat="50.48288" lon="2.47341">
        <ele>70.101</ele>
        <time>2019-09-17T09:20:57.001Z</time>
      </trkpt>
      <trkpt lat="50.48288" lon="2.47341">
        <ele>70.1</ele>
        <time>2019-09-17T09:21:00.000Z</time>
      </trkpt>
      <trkpt lat="50.48289" lon="2.47341">
        <ele>69.997</ele>
        <time>2019-09-17T09:21:03.001Z</time>
      </trkpt>
      <trkpt lat="50.48288" lon="2.47341">
        <ele>70.1</ele>
        <time>2019-09-17T09:21:06.001Z</time>
      </trkpt>
      <trkpt lat="50.48289" lon="2.47343">
        <ele>69.888</ele>
        <time>2019-09-17T09:22:21.001Z</time>
      </trkpt>
      <trkpt lat="50.48289" lon="2.47343">
        <ele>70.086</ele>
        <time>2019-09-17T09:22:24.001Z</time>
      </trkpt>
      <trkpt lat="50.48292" lon="2.47343">
        <ele>70.735</ele>
        <time>2019-09-17T09:22:27.001Z</time>
      </trkpt>
      <trkpt lat="50.48294" lon="2.47343">
        <ele>71.639</ele>
        <time>2019-09-17T09:22:30.001Z</time>
      </trkpt>
      <trkpt lat="50.48294" lon="2.47343">
        <ele>71.639</ele>
        <time>2019-09-17T09:22:57.001Z</time>
      </trkpt>
      <trkpt lat="50.48293" lon="2.47343">
        <ele>71.472</ele>
        <time>2019-09-17T09:23:00.000Z</time>
      </trkpt>
      <trkpt lat="50.48293" lon="2.47343">
        <ele>71.309</ele>
        <time>2019-09-17T09:23:03.001Z</time>
      </trkpt>
      <trkpt lat="50.48294" lon="2.47342">
        <ele>71.312</ele>
        <time>2019-09-17T09:23:30.001Z</time>
      </trkpt>
      <trkpt lat="50.48294" lon="2.47343">
        <ele>70.948</ele>
        <time>2019-09-17T09:23:33.001Z</time>
      </trkpt>
      <trkpt lat="50.48294" lon="2.47343">
        <ele>70.539</ele>
        <time>2019-09-17T09:23:36.001Z</time>
      </trkpt>
      <trkpt lat="50.48294" lon="2.47343">
        <ele>70.189</ele>
        <time>2019-09-17T09:23:39.001Z</time>
      </trkpt>
      <trkpt lat="50.48295" lon="2.47341">
        <ele>69.696</ele>
        <time>2019-09-17T09:23:42.001Z</time>
      </trkpt>
      <trkpt lat="50.48295" lon="2.47341">
        <ele>69.731</ele>
        <time>2019-09-17T09:24:36.001Z</time>
      </trkpt>
      <trkpt lat="50.48295" lon="2.47341">
        <ele>69.84</ele>
        <time>2019-09-17T09:24:39.001Z</time>
      </trkpt>
      <trkpt lat="50.48294" lon="2.47337">
        <ele>69.492</ele>
        <time>2019-09-17T09:24:45.001Z</time>
      </trkpt>
      <trkpt lat="50.48293" lon="2.47338">
        <ele>69.932</ele>
        <time>2019-09-17T09:24:48.001Z</time>
      </trkpt>
      <trkpt lat="50.48293" lon="2.47338">
        <ele>70.193</ele>
        <time>2019-09-17T09:29:18.001Z</time>
      </trkpt>
      <trkpt lat="50.48294" lon="2.47339">
        <ele>70.229</ele>
        <time>2019-09-17T09:29:21.001Z</time>
      </trkpt>
      <trkpt lat="50.48298" lon="2.47345">
        <ele>69.65</ele>
        <time>2019-09-17T09:29:24.001Z</time>
      </trkpt>
      <trkpt lat="50.48304" lon="2.47354">
        <ele>69.497</ele>
        <time>2019-09-17T09:29:27.001Z</time>
      </trkpt>
      <trkpt lat="50.4831" lon="2.47365">
        <ele>69.486</ele>
        <time>2019-09-17T09:29:30.001Z</time>
      </trkpt>
      <trkpt lat="50.48313" lon="2.47378">
        <ele>70.189</ele>
        <time>2019-09-17T09:29:33.001Z</time>
      </trkpt>
      <trkpt lat="50.48315" lon="2.47389">
        <ele>70.532</ele>
        <time>2019-09-17T09:29:36.001Z</time>
      </trkpt>
      <trkpt lat="50.48319" lon="2.47402">
        <ele>70.356</ele>
        <time>2019-09-17T09:29:39.001Z</time>
      </trkpt>
      <trkpt lat="50.48328" lon="2.47417">
        <ele>70.532</ele>
        <time>2019-09-17T09:29:42.001Z</time>
      </trkpt>
      <trkpt lat="50.48335" lon="2.4744">
        <ele>70.476</ele>
        <time>2019-09-17T09:29:45.001Z</time>
      </trkpt>
      <trkpt lat="50.48343" lon="2.47462">
        <ele>70.975</ele>
        <time>2019-09-17T09:29:48.001Z</time>
      </trkpt>
      <trkpt lat="50.48352" lon="2.47477">
        <ele>70.262</ele>
        <time>2019-09-17T09:29:51.001Z</time>
      </trkpt>
      <trkpt lat="50.48357" lon="2.47489">
        <ele>70.41</ele>
        <time>2019-09-17T09:29:54.001Z</time>
      </trkpt>
      <trkpt lat="50.48367" lon="2.47496">
        <ele>71.675</ele>
        <time>2019-09-17T09:29:57.001Z</time>
      </trkpt>
      <trkpt lat="50.48381" lon="2.47489">
        <ele>71.789</ele>
        <time>2019-09-17T09:30:00.000Z</time>
      </trkpt>
      <trkpt lat="50.48396" lon="2.47484">
        <ele>71.274</ele>
        <time>2019-09-17T09:30:03.001Z</time>
      </trkpt>
      <trkpt lat="50.48414" lon="2.47489">
        <ele>70.862</ele>
        <time>2019-09-17T09:30:06.001Z</time>
      </trkpt>
      <trkpt lat="50.4843" lon="2.47491">
        <ele>69.843</ele>
        <time>2019-09-17T09:30:09.001Z</time>
      </trkpt>
      <trkpt lat="50.48447" lon="2.47492">
        <ele>68.666</ele>
        <time>2019-09-17T09:30:12.001Z</time>
      </trkpt>
      <trkpt lat="50.48464" lon="2.47495">
        <ele>67.482</ele>
        <time>2019-09-17T09:30:15.001Z</time>
      </trkpt>
      <trkpt lat="50.4848" lon="2.47498">
        <ele>65.927</ele>
        <time>2019-09-17T09:30:18.001Z</time>
      </trkpt>
      <trkpt lat="50.48498" lon="2.475">
        <ele>65.363</ele>
        <time>2019-09-17T09:30:21.001Z</time>
      </trkpt>
      <trkpt lat="50.48516" lon="2.47505">
        <ele>65.13</ele>
        <time>2019-09-17T09:30:24.001Z</time>
      </trkpt>
      <trkpt lat="50.48534" lon="2.47513">
        <ele>65.134</ele>
        <time>2019-09-17T09:30:27.001Z</time>
      </trkpt>
      <trkpt lat="50.48551" lon="2.47524">
        <ele>64.797</ele>
        <time>2019-09-17T09:30:30.001Z</time>
      </trkpt>
      <trkpt lat="50.48568" lon="2.47536">
        <ele>64.393</ele>
        <time>2019-09-17T09:30:33.001Z</time>
      </trkpt>
      <trkpt lat="50.48585" lon="2.47549">
        <ele>64.027</ele>
        <time>2019-09-17T09:30:36.001Z</time>
      </trkpt>
      <trkpt lat="50.48603" lon="2.47565">
        <ele>63.764</ele>
        <time>2019-09-17T09:30:39.001Z</time>
      </trkpt>
      <trkpt lat="50.4862" lon="2.47582">
        <ele>62.827</ele>
        <time>2019-09-17T09:30:42.001Z</time>
      </trkpt>
      <trkpt lat="50.48638" lon="2.47598">
        <ele>61.71</ele>
        <time>2019-09-17T09:30:45.001Z</time>
      </trkpt>
      <trkpt lat="50.48652" lon="2.47612">
        <ele>60.251</ele>
        <time>2019-09-17T09:30:48.001Z</time>
      </trkpt>
      <trkpt lat="50.48664" lon="2.47624">
        <ele>59.358</ele>
        <time>2019-09-17T09:30:51.001Z</time>
      </trkpt>
      <trkpt lat="50.48676" lon="2.47637">
        <ele>58.796</ele>
        <time>2019-09-17T09:30:54.001Z</time>
      </trkpt>
      <trkpt lat="50.48687" lon="2.47648">
        <ele>58.228</ele>
        <time>2019-09-17T09:30:57.001Z</time>
      </trkpt>
      <trkpt lat="50.48699" lon="2.47657">
        <ele>57.572</ele>
        <time>2019-09-17T09:31:00.000Z</time>
      </trkpt>
      <trkpt lat="50.48708" lon="2.47667">
        <ele>57.685</ele>
        <time>2019-09-17T09:31:03.001Z</time>
      </trkpt>
      <trkpt lat="50.48716" lon="2.47675">
        <ele>57.599</ele>
        <time>2019-09-17T09:31:06.001Z</time>
      </trkpt>
      <trkpt lat="50.48725" lon="2.47681">
        <ele>58.278</ele>
        <time>2019-09-17T09:31:09.001Z</time>
      </trkpt>
      <trkpt lat="50.48733" lon="2.4769">
        <ele>58.748</ele>
        <time>2019-09-17T09:31:12.001Z</time>
      </trkpt>
      <trkpt lat="50.48741" lon="2.47698">
        <ele>58.831</ele>
        <time>2019-09-17T09:31:15.001Z</time>
      </trkpt>
      <trkpt lat="50.48749" lon="2.47707">
        <ele>59.299</ele>
        <time>2019-09-17T09:31:18.001Z</time>
      </trkpt>
      <trkpt lat="50.48757" lon="2.47717">
        <ele>59.853</ele>
        <time>2019-09-17T09:31:21.001Z</time>
      </trkpt>
      <trkpt lat="50.48765" lon="2.47727">
        <ele>60.48</ele>
        <time>2019-09-17T09:31:24.001Z</time>
      </trkpt>
      <trkpt lat="50.48772" lon="2.47736">
        <ele>61.356</ele>
        <time>2019-09-17T09:31:27.001Z</time>
      </trkpt>
      <trkpt lat="50.48779" lon="2.47745">
        <ele>62.822</ele>
        <time>2019-09-17T09:31:30.001Z</time>
      </trkpt>
      <trkpt lat="50.48784" lon="2.47754">
        <ele>63.983</ele>
        <time>2019-09-17T09:31:33.001Z</time>
      </trkpt>
      <trkpt lat="50.48792" lon="2.47763">
        <ele>64.212</ele>
        <time>2019-09-17T09:31:36.001Z</time>
      </trkpt>
      <trkpt lat="50.48801" lon="2.47772">
        <ele>64.44</ele>
        <time>2019-09-17T09:31:39.001Z</time>
      </trkpt>
      <trkpt lat="50.48808" lon="2.47781">
        <ele>64.683</ele>
        <time>2019-09-17T09:31:42.001Z</time>
      </trkpt>
      <trkpt lat="50.48816" lon="2.47791">
        <ele>64.82</ele>
        <time>2019-09-17T09:31:45.001Z</time>
      </trkpt>
      <trkpt lat="50.48823" lon="2.478">
        <ele>65.048</ele>
        <time>2019-09-17T09:31:48.001Z</time>
      </trkpt>
      <trkpt lat="50.48829" lon="2.47809">
        <ele>65.565</ele>
        <time>2019-09-17T09:31:51.001Z</time>
      </trkpt>
      <trkpt lat="50.48835" lon="2.47818">
        <ele>65.728</ele>
        <time>2019-09-17T09:31:54.001Z</time>
      </trkpt>
      <trkpt lat="50.48843" lon="2.47828">
        <ele>65.584</ele>
        <time>2019-09-17T09:31:57.001Z</time>
      </trkpt>
      <trkpt lat="50.4885" lon="2.47839">
        <ele>65.562</ele>
        <time>2019-09-17T09:32:00.000Z</time>
      </trkpt>
      <trkpt lat="50.48857" lon="2.47849">
        <ele>65.811</ele>
        <time>2019-09-17T09:32:03.001Z</time>
      </trkpt>
      <trkpt lat="50.48864" lon="2.47859">
        <ele>66.028</ele>
        <time>2019-09-17T09:32:06.001Z</time>
      </trkpt>
      <trkpt lat="50.48871" lon="2.47869">
        <ele>66.173</ele>
        <time>2019-09-17T09:32:09.001Z</time>
      </trkpt>
      <trkpt lat="50.48879" lon="2.4788">
        <ele>65.845</ele>
        <time>2019-09-17T09:32:12.001Z</time>
      </trkpt>
      <trkpt lat="50.48887" lon="2.47891">
        <ele>65.803</ele>
        <time>2019-09-17T09:32:15.001Z</time>
      </trkpt>
      <trkpt lat="50.48894" lon="2.47902">
        <ele>66.173</ele>
        <time>2019-09-17T09:32:18.001Z</time>
      </trkpt>
      <trkpt lat="50.48901" lon="2.47913">
        <ele>66.477</ele>
        <time>2019-09-17T09:32:21.001Z</time>
      </trkpt>
      <trkpt lat="50.48907" lon="2.47925">
        <ele>66.726</ele>
        <time>2019-09-17T09:32:24.001Z</time>
      </trkpt>
      <trkpt lat="50.48913" lon="2.47938">
        <ele>67.55</ele>
        <time>2019-09-17T09:32:27.001Z</time>
      </trkpt>
      <trkpt lat="50.4892" lon="2.4795">
        <ele>67.475</ele>
        <time>2019-09-17T09:32:30.001Z</time>
      </trkpt>
      <trkpt lat="50.48927" lon="2.47963">
        <ele>67.679</ele>
        <time>2019-09-17T09:32:33.001Z</time>
      </trkpt>
      <trkpt lat="50.48935" lon="2.47975">
        <ele>67.576</ele>
        <time>2019-09-17T09:32:36.001Z</time>
      </trkpt>
      <trkpt lat="50.48942" lon="2.47989">
        <ele>67.54</ele>
        <time>2019-09-17T09:32:39.001Z</time>
      </trkpt>
      <trkpt lat="50.48949" lon="2.48002">
        <ele>67.363</ele>
        <time>2019-09-17T09:32:42.001Z</time>
      </trkpt>
      <trkpt lat="50.48957" lon="2.48015">
        <ele>67.552</ele>
        <time>2019-09-17T09:32:45.001Z</time>
      </trkpt>
      <trkpt lat="50.48964" lon="2.48028">
        <ele>67.484</ele>
        <time>2019-09-17T09:32:48.001Z</time>
      </trkpt>
      <trkpt lat="50.4897" lon="2.48042">
        <ele>67.284</ele>
        <time>2019-09-17T09:32:51.001Z</time>
      </trkpt>
      <trkpt lat="50.48976" lon="2.48056">
        <ele>67.49</ele>
        <time>2019-09-17T09:32:54.001Z</time>
      </trkpt>
      <trkpt lat="50.48983" lon="2.48071">
        <ele>67.973</ele>
        <time>2019-09-17T09:32:57.001Z</time>
      </trkpt>
      <trkpt lat="50.48989" lon="2.48085">
        <ele>68.776</ele>
        <time>2019-09-17T09:33:00.000Z</time>
      </trkpt>
      <trkpt lat="50.48996" lon="2.48098">
        <ele>69.288</ele>
        <time>2019-09-17T09:33:03.001Z</time>
      </trkpt>
      <trkpt lat="50.49002" lon="2.48113">
        <ele>70.182</ele>
        <time>2019-09-17T09:33:06.001Z</time>
      </trkpt>
      <trkpt lat="50.49007" lon="2.48126">
        <ele>71.181</ele>
        <time>2019-09-17T09:33:09.001Z</time>
      </trkpt>
      <trkpt lat="50.49013" lon="2.48139">
        <ele>72.109</ele>
        <time>2019-09-17T09:33:12.001Z</time>
      </trkpt>
      <trkpt lat="50.49018" lon="2.48155">
        <ele>73.165</ele>
        <time>2019-09-17T09:33:15.001Z</time>
      </trkpt>
      <trkpt lat="50.49024" lon="2.4817">
        <ele>73.997</ele>
        <time>2019-09-17T09:33:18.001Z</time>
      </trkpt>
      <trkpt lat="50.49031" lon="2.48184">
        <ele>74.448</ele>
        <time>2019-09-17T09:33:21.001Z</time>
      </trkpt>
      <trkpt lat="50.49039" lon="2.48201">
        <ele>74.138</ele>
        <time>2019-09-17T09:33:24.001Z</time>
      </trkpt>
      <trkpt lat="50.49047" lon="2.48218">
        <ele>73.549</ele>
        <time>2019-09-17T09:33:27.001Z</time>
      </trkpt>
      <trkpt lat="50.49056" lon="2.48234">
        <ele>71.64</ele>
        <time>2019-09-17T09:33:30.001Z</time>
      </trkpt>
      <trkpt lat="50.49064" lon="2.48248">
        <ele>71.511</ele>
        <time>2019-09-17T09:33:33.001Z</time>
      </trkpt>
      <trkpt lat="50.49071" lon="2.48264">
        <ele>71.774</ele>
        <time>2019-09-17T09:33:36.001Z</time>
      </trkpt>
      <trkpt lat="50.49078" lon="2.48281">
        <ele>71.049</ele>
        <time>2019-09-17T09:33:39.002Z</time>
      </trkpt>
      <trkpt lat="50.49084" lon="2.48296">
        <ele>71.441</ele>
        <time>2019-09-17T09:33:42.001Z</time>
      </trkpt>
      <trkpt lat="50.4909" lon="2.48309">
        <ele>71.531</ele>
        <time>2019-09-17T09:33:45.001Z</time>
      </trkpt>
      <trkpt lat="50.49096" lon="2.48324">
        <ele>71.633</ele>
        <time>2019-09-17T09:33:48.001Z</time>
      </trkpt>
      <trkpt lat="50.49102" lon="2.48338">
        <ele>72.129</ele>
        <time>2019-09-17T09:33:51.001Z</time>
      </trkpt>
      <trkpt lat="50.49108" lon="2.48352">
        <ele>73.051</ele>
        <time>2019-09-17T09:33:54.001Z</time>
      </trkpt>
      <trkpt lat="50.49113" lon="2.48367">
        <ele>73.445</ele>
        <time>2019-09-17T09:33:57.001Z</time>
      </trkpt>
      <trkpt lat="50.49119" lon="2.48383">
        <ele>74.02</ele>
        <time>2019-09-17T09:34:00.000Z</time>
      </trkpt>
      <trkpt lat="50.49127" lon="2.48399">
        <ele>73.873</ele>
        <time>2019-09-17T09:34:03.001Z</time>
      </trkpt>
      <trkpt lat="50.49134" lon="2.48417">
        <ele>74.043</ele>
        <time>2019-09-17T09:34:06.001Z</time>
      </trkpt>
      <trkpt lat="50.49144" lon="2.48436">
        <ele>74.616</ele>
        <time>2019-09-17T09:34:09.001Z</time>
      </trkpt>
      <trkpt lat="50.49152" lon="2.48454">
        <ele>74.403</ele>
        <time>2019-09-17T09:34:12.001Z</time>
      </trkpt>
      <trkpt lat="50.4916" lon="2.48472">
        <ele>74.254</ele>
        <time>2019-09-17T09:34:15.001Z</time>
      </trkpt>
      <trkpt lat="50.49165" lon="2.48486">
        <ele>73.017</ele>
        <time>2019-09-17T09:34:18.001Z</time>
      </trkpt>
      <trkpt lat="50.49172" lon="2.48498">
        <ele>72.353</ele>
        <time>2019-09-17T09:34:21.001Z</time>
      </trkpt>
      <trkpt lat="50.49177" lon="2.48509">
        <ele>71.66</ele>
        <time>2019-09-17T09:34:24.001Z</time>
      </trkpt>
      <trkpt lat="50.49182" lon="2.48517">
        <ele>71.291</ele>
        <time>2019-09-17T09:34:27.001Z</time>
      </trkpt>
      <trkpt lat="50.49183" lon="2.48519">
        <ele>71.136</ele>
        <time>2019-09-17T09:34:30.001Z</time>
      </trkpt>
      <trkpt lat="50.49182" lon="2.4852">
        <ele>71.095</ele>
        <time>2019-09-17T09:34:48.001Z</time>
      </trkpt>
      <trkpt lat="50.49183" lon="2.4852">
        <ele>71.091</ele>
        <time>2019-09-17T09:34:51.001Z</time>
      </trkpt>
      <trkpt lat="50.49187" lon="2.48532">
        <ele>69.669</ele>
        <time>2019-09-17T09:34:57.001Z</time>
      </trkpt>
      <trkpt lat="50.49191" lon="2.48545">
        <ele>69.751</ele>
        <time>2019-09-17T09:35:00.000Z</time>
      </trkpt>
      <trkpt lat="50.49197" lon="2.48561">
        <ele>70.253</ele>
        <time>2019-09-17T09:35:03.001Z</time>
      </trkpt>
      <trkpt lat="50.49204" lon="2.48577">
        <ele>70.55</ele>
        <time>2019-09-17T09:35:06.001Z</time>
      </trkpt>
      <trkpt lat="50.49212" lon="2.48593">
        <ele>71.362</ele>
        <time>2019-09-17T09:35:09.001Z</time>
      </trkpt>
      <trkpt lat="50.49219" lon="2.48609">
        <ele>71.873</ele>
        <time>2019-09-17T09:35:12.001Z</time>
      </trkpt>
      <trkpt lat="50.49226" lon="2.48625">
        <ele>72.31</ele>
        <time>2019-09-17T09:35:15.001Z</time>
      </trkpt>
      <trkpt lat="50.49233" lon="2.48642">
        <ele>72.282</ele>
        <time>2019-09-17T09:35:18.001Z</time>
      </trkpt>
      <trkpt lat="50.4924" lon="2.48658">
        <ele>72.325</ele>
        <time>2019-09-17T09:35:21.001Z</time>
      </trkpt>
      <trkpt lat="50.49247" lon="2.48673">
        <ele>72.522</ele>
        <time>2019-09-17T09:35:24.001Z</time>
      </trkpt>
      <trkpt lat="50.49254" lon="2.48691">
        <ele>72.699</ele>
        <time>2019-09-17T09:35:27.001Z</time>
      </trkpt>
      <trkpt lat="50.49263" lon="2.48711">
        <ele>73.264</ele>
        <time>2019-09-17T09:35:30.001Z</time>
      </trkpt>
      <trkpt lat="50.49272" lon="2.48734">
        <ele>73.911</ele>
        <time>2019-09-17T09:35:33.001Z</time>
      </trkpt>
      <trkpt lat="50.4928" lon="2.48756">
        <ele>74.234</ele>
        <time>2019-09-17T09:35:36.001Z</time>
      </trkpt>
      <trkpt lat="50.4929" lon="2.48778">
        <ele>74.722</ele>
        <time>2019-09-17T09:35:39.001Z</time>
      </trkpt>
      <trkpt lat="50.49298" lon="2.48799">
        <ele>74.963</ele>
        <time>2019-09-17T09:35:42.001Z</time>
      </trkpt>
      <trkpt lat="50.49304" lon="2.48821">
        <ele>75.509</ele>
        <time>2019-09-17T09:35:45.001Z</time>
      </trkpt>
      <trkpt lat="50.49311" lon="2.48845">
        <ele>74.838</ele>
        <time>2019-09-17T09:35:48.001Z</time>
      </trkpt>
      <trkpt lat="50.49319" lon="2.48869">
        <ele>74.936</ele>
        <time>2019-09-17T09:35:51.001Z</time>
      </trkpt>
      <trkpt lat="50.49327" lon="2.48891">
        <ele>75.075</ele>
        <time>2019-09-17T09:35:54.001Z</time>
      </trkpt>
      <trkpt lat="50.49333" lon="2.48914">
        <ele>75.121</ele>
        <time>2019-09-17T09:35:57.001Z</time>
      </trkpt>
      <trkpt lat="50.49339" lon="2.48938">
        <ele>75.103</ele>
        <time>2019-09-17T09:36:00.000Z</time>
      </trkpt>
      <trkpt lat="50.49348" lon="2.48963">
        <ele>73.969</ele>
        <time>2019-09-17T09:36:03.001Z</time>
      </trkpt>
      <trkpt lat="50.49357" lon="2.48988">
        <ele>72.642</ele>
        <time>2019-09-17T09:36:06.001Z</time>
      </trkpt>
      <trkpt lat="50.49366" lon="2.49014">
        <ele>70.85</ele>
        <time>2019-09-17T09:36:09.001Z</time>
      </trkpt>
      <trkpt lat="50.49374" lon="2.4904">
        <ele>68.989</ele>
        <time>2019-09-17T09:36:12.001Z</time>
      </trkpt>
      <trkpt lat="50.49381" lon="2.49064">
        <ele>67.902</ele>
        <time>2019-09-17T09:36:15.001Z</time>
      </trkpt>
      <trkpt lat="50.49388" lon="2.49088">
        <ele>66.616</ele>
        <time>2019-09-17T09:36:18.001Z</time>
      </trkpt>
      <trkpt lat="50.49393" lon="2.49113">
        <ele>66.146</ele>
        <time>2019-09-17T09:36:21.001Z</time>
      </trkpt>
      <trkpt lat="50.49398" lon="2.49136">
        <ele>65.887</ele>
        <time>2019-09-17T09:36:24.001Z</time>
      </trkpt>
      <trkpt lat="50.49405" lon="2.49161">
        <ele>65.411</ele>
        <time>2019-09-17T09:36:27.001Z</time>
      </trkpt>
      <trkpt lat="50.49411" lon="2.49187">
        <ele>65.456</ele>
        <time>2019-09-17T09:36:30.001Z</time>
      </trkpt>
      <trkpt lat="50.49417" lon="2.49213">
        <ele>65.495</ele>
        <time>2019-09-17T09:36:33.001Z</time>
      </trkpt>
      <trkpt lat="50.49424" lon="2.49238">
        <ele>65.401</ele>
        <time>2019-09-17T09:36:36.001Z</time>
      </trkpt>
      <trkpt lat="50.4943" lon="2.49263">
        <ele>65.56</ele>
        <time>2019-09-17T09:36:39.001Z</time>
      </trkpt>
      <trkpt lat="50.49437" lon="2.49289">
        <ele>65.746</ele>
        <time>2019-09-17T09:36:42.001Z</time>
      </trkpt>
      <trkpt lat="50.49445" lon="2.49314">
        <ele>65.89</ele>
        <time>2019-09-17T09:36:45.001Z</time>
      </trkpt>
      <trkpt lat="50.49451" lon="2.49338">
        <ele>66.062</ele>
        <time>2019-09-17T09:36:48.001Z</time>
      </trkpt>
      <trkpt lat="50.49457" lon="2.49362">
        <ele>66.088</ele>
        <time>2019-09-17T09:36:51.001Z</time>
      </trkpt>
      <trkpt lat="50.49463" lon="2.49385">
        <ele>66.435</ele>
        <time>2019-09-17T09:36:54.001Z</time>
      </trkpt>
      <trkpt lat="50.49469" lon="2.49407">
        <ele>66.487</ele>
        <time>2019-09-17T09:36:57.001Z</time>
      </trkpt>
      <trkpt lat="50.49476" lon="2.4943">
        <ele>66.311</ele>
        <time>2019-09-17T09:37:00.000Z</time>
      </trkpt>
      <trkpt lat="50.49482" lon="2.49451">
        <ele>66.868</ele>
        <time>2019-09-17T09:37:03.001Z</time>
      </trkpt>
      <trkpt lat="50.49487" lon="2.49472">
        <ele>66.959</ele>
        <time>2019-09-17T09:37:06.001Z</time>
      </trkpt>
      <trkpt lat="50.49493" lon="2.49491">
        <ele>66.753</ele>
        <time>2019-09-17T09:37:09.001Z</time>
      </trkpt>
      <trkpt lat="50.49499" lon="2.49508">
        <ele>66.984</ele>
        <time>2019-09-17T09:37:12.001Z</time>
      </trkpt>
      <trkpt lat="50.49503" lon="2.49528">
        <ele>66.989</ele>
        <time>2019-09-17T09:37:15.001Z</time>
      </trkpt>
      <trkpt lat="50.49505" lon="2.49551">
        <ele>67.095</ele>
        <time>2019-09-17T09:37:18.001Z</time>
      </trkpt>
      <trkpt lat="50.49511" lon="2.49573">
        <ele>66.476</ele>
        <time>2019-09-17T09:37:21.001Z</time>
      </trkpt>
      <trkpt lat="50.49521" lon="2.49588">
        <ele>66.365</ele>
        <time>2019-09-17T09:37:24.001Z</time>
      </trkpt>
      <trkpt lat="50.49528" lon="2.49605">
        <ele>67.025</ele>
        <time>2019-09-17T09:37:27.001Z</time>
      </trkpt>
      <trkpt lat="50.49536" lon="2.49625">
        <ele>67.634</ele>
        <time>2019-09-17T09:37:30.001Z</time>
      </trkpt>
      <trkpt lat="50.49546" lon="2.49646">
        <ele>67.476</ele>
        <time>2019-09-17T09:37:33.001Z</time>
      </trkpt>
      <trkpt lat="50.49555" lon="2.49667">
        <ele>67.681</ele>
        <time>2019-09-17T09:37:36.001Z</time>
      </trkpt>
      <trkpt lat="50.49562" lon="2.49689">
        <ele>67.853</ele>
        <time>2019-09-17T09:37:39.001Z</time>
      </trkpt>
      <trkpt lat="50.49571" lon="2.49713">
        <ele>67.739</ele>
        <time>2019-09-17T09:37:42.001Z</time>
      </trkpt>
      <trkpt lat="50.49581" lon="2.49737">
        <ele>67.539</ele>
        <time>2019-09-17T09:37:45.001Z</time>
      </trkpt>
      <trkpt lat="50.49592" lon="2.49763">
        <ele>67.121</ele>
        <time>2019-09-17T09:37:48.001Z</time>
      </trkpt>
      <trkpt lat="50.49605" lon="2.49789">
        <ele>67.267</ele>
        <time>2019-09-17T09:37:51.001Z</time>
      </trkpt>
      <trkpt lat="50.49615" lon="2.49817">
        <ele>68.254</ele>
        <time>2019-09-17T09:37:54.001Z</time>
      </trkpt>
      <trkpt lat="50.49626" lon="2.49847">
        <ele>68.814</ele>
        <time>2019-09-17T09:37:57.001Z</time>
      </trkpt>
      <trkpt lat="50.49639" lon="2.49879">
        <ele>69.649</ele>
        <time>2019-09-17T09:38:00.000Z</time>
      </trkpt>
      <trkpt lat="50.49651" lon="2.4991">
        <ele>70.235</ele>
        <time>2019-09-17T09:38:03.001Z</time>
      </trkpt>
      <trkpt lat="50.49663" lon="2.49942">
        <ele>69.685</ele>
        <time>2019-09-17T09:38:06.001Z</time>
      </trkpt>
      <trkpt lat="50.49676" lon="2.49977">
        <ele>68.482</ele>
        <time>2019-09-17T09:38:09.001Z</time>
      </trkpt>
      <trkpt lat="50.49693" lon="2.50015">
        <ele>65.908</ele>
        <time>2019-09-17T09:38:12.001Z</time>
      </trkpt>
      <trkpt lat="50.49707" lon="2.50053">
        <ele>64.218</ele>
        <time>2019-09-17T09:38:15.001Z</time>
      </trkpt>
      <trkpt lat="50.49724" lon="2.50094">
        <ele>62.737</ele>
        <time>2019-09-17T09:38:18.001Z</time>
      </trkpt>
      <trkpt lat="50.49741" lon="2.50132">
        <ele>61.847</ele>
        <time>2019-09-17T09:38:21.001Z</time>
      </trkpt>
      <trkpt lat="50.49761" lon="2.50167">
        <ele>60.894</ele>
        <time>2019-09-17T09:38:24.001Z</time>
      </trkpt>
      <trkpt lat="50.49782" lon="2.50202">
        <ele>59.951</ele>
        <time>2019-09-17T09:38:27.001Z</time>
      </trkpt>
      <trkpt lat="50.49802" lon="2.50235">
        <ele>58.818</ele>
        <time>2019-09-17T09:38:30.001Z</time>
      </trkpt>
      <trkpt lat="50.49822" lon="2.50267">
        <ele>57.182</ele>
        <time>2019-09-17T09:38:33.001Z</time>
      </trkpt>
      <trkpt lat="50.49845" lon="2.50295">
        <ele>55.906</ele>
        <time>2019-09-17T09:38:36.001Z</time>
      </trkpt>
      <trkpt lat="50.49866" lon="2.50321">
        <ele>55.805</ele>
        <time>2019-09-17T09:38:39.001Z</time>
      </trkpt>
      <trkpt lat="50.49887" lon="2.50346">
        <ele>56.145</ele>
        <time>2019-09-17T09:38:42.001Z</time>
      </trkpt>
      <trkpt lat="50.49908" lon="2.50369">
        <ele>56.285</ele>
        <time>2019-09-17T09:38:45.001Z</time>
      </trkpt>
      <trkpt lat="50.49926" lon="2.50389">
        <ele>56.388</ele>
        <time>2019-09-17T09:38:48.001Z</time>
      </trkpt>
      <trkpt lat="50.49942" lon="2.50408">
        <ele>56.115</ele>
        <time>2019-09-17T09:38:51.001Z</time>
      </trkpt>
      <trkpt lat="50.49954" lon="2.50428">
        <ele>55.903</ele>
        <time>2019-09-17T09:38:54.001Z</time>
      </trkpt>
      <trkpt lat="50.4997" lon="2.50445">
        <ele>55.657</ele>
        <time>2019-09-17T09:38:57.001Z</time>
      </trkpt>
      <trkpt lat="50.49985" lon="2.50462">
        <ele>55.36</ele>
        <time>2019-09-17T09:39:00.000Z</time>
      </trkpt>
      <trkpt lat="50.49999" lon="2.50482">
        <ele>54.971</ele>
        <time>2019-09-17T09:39:03.001Z</time>
      </trkpt>
      <trkpt lat="50.50014" lon="2.50503">
        <ele>52.803</ele>
        <time>2019-09-17T09:39:06.001Z</time>
      </trkpt>
      <trkpt lat="50.5003" lon="2.50522">
        <ele>51.568</ele>
        <time>2019-09-17T09:39:09.001Z</time>
      </trkpt>
      <trkpt lat="50.50046" lon="2.50538">
        <ele>52.031</ele>
        <time>2019-09-17T09:39:12.001Z</time>
      </trkpt>
      <trkpt lat="50.5006" lon="2.50553">
        <ele>52.35</ele>
        <time>2019-09-17T09:39:15.001Z</time>
      </trkpt>
      <trkpt lat="50.50075" lon="2.50568">
        <ele>52.614</ele>
        <time>2019-09-17T09:39:18.001Z</time>
      </trkpt>
      <trkpt lat="50.5009" lon="2.50582">
        <ele>52.685</ele>
        <time>2019-09-17T09:39:21.001Z</time>
      </trkpt>
      <trkpt lat="50.50104" lon="2.50598">
        <ele>51.793</ele>
        <time>2019-09-17T09:39:24.001Z</time>
      </trkpt>
      <trkpt lat="50.50117" lon="2.50612">
        <ele>52.605</ele>
        <time>2019-09-17T09:39:27.001Z</time>
      </trkpt>
      <trkpt lat="50.50127" lon="2.50623">
        <ele>54.08</ele>
        <time>2019-09-17T09:39:30.001Z</time>
      </trkpt>
      <trkpt lat="50.50138" lon="2.50633">
        <ele>54.543</ele>
        <time>2019-09-17T09:39:33.001Z</time>
      </trkpt>
      <trkpt lat="50.50148" lon="2.50644">
        <ele>54.131</ele>
        <time>2019-09-17T09:39:36.001Z</time>
      </trkpt>
      <trkpt lat="50.50161" lon="2.50653">
        <ele>54.358</ele>
        <time>2019-09-17T09:39:39.001Z</time>
      </trkpt>
      <trkpt lat="50.50172" lon="2.50661">
        <ele>54.906</ele>
        <time>2019-09-17T09:39:42.001Z</time>
      </trkpt>
      <trkpt lat="50.50184" lon="2.50671">
        <ele>54.629</ele>
        <time>2019-09-17T09:39:45.001Z</time>
      </trkpt>
      <trkpt lat="50.50195" lon="2.50682">
        <ele>54.648</ele>
        <time>2019-09-17T09:39:48.001Z</time>
      </trkpt>
      <trkpt lat="50.50206" lon="2.50695">
        <ele>53.94</ele>
        <time>2019-09-17T09:39:51.001Z</time>
      </trkpt>
      <trkpt lat="50.50219" lon="2.50705">
        <ele>54.012</ele>
        <time>2019-09-17T09:39:54.001Z</time>
      </trkpt>
      <trkpt lat="50.5023" lon="2.50714">
        <ele>55.224</ele>
        <time>2019-09-17T09:39:57.001Z</time>
      </trkpt>
      <trkpt lat="50.5024" lon="2.5073">
        <ele>54.531</ele>
        <time>2019-09-17T09:40:00.000Z</time>
      </trkpt>
      <trkpt lat="50.50253" lon="2.50749">
        <ele>54.52</ele>
        <time>2019-09-17T09:40:03.001Z</time>
      </trkpt>
      <trkpt lat="50.50266" lon="2.50769">
        <ele>55.036</ele>
        <time>2019-09-17T09:40:06.001Z</time>
      </trkpt>
      <trkpt lat="50.50281" lon="2.50789">
        <ele>56.556</ele>
        <time>2019-09-17T09:40:09.001Z</time>
      </trkpt>
      <trkpt lat="50.50294" lon="2.50813">
        <ele>57.047</ele>
        <time>2019-09-17T09:40:12.001Z</time>
      </trkpt>
      <trkpt lat="50.50305" lon="2.50839">
        <ele>55.823</ele>
        <time>2019-09-17T09:40:15.001Z</time>
      </trkpt>
      <trkpt lat="50.50315" lon="2.50866">
        <ele>55.185</ele>
        <time>2019-09-17T09:40:18.001Z</time>
      </trkpt>
      <trkpt lat="50.50327" lon="2.50893">
        <ele>54.469</ele>
        <time>2019-09-17T09:40:21.001Z</time>
      </trkpt>
      <trkpt lat="50.50339" lon="2.5092">
        <ele>54.146</ele>
        <time>2019-09-17T09:40:24.001Z</time>
      </trkpt>
      <trkpt lat="50.50354" lon="2.50951">
        <ele>54.729</ele>
        <time>2019-09-17T09:40:27.001Z</time>
      </trkpt>
      <trkpt lat="50.5037" lon="2.50984">
        <ele>55.172</ele>
        <time>2019-09-17T09:40:30.001Z</time>
      </trkpt>
      <trkpt lat="50.50385" lon="2.51014">
        <ele>55.489</ele>
        <time>2019-09-17T09:40:33.001Z</time>
      </trkpt>
      <trkpt lat="50.50401" lon="2.51042">
        <ele>54.908</ele>
        <time>2019-09-17T09:40:36.001Z</time>
      </trkpt>
      <trkpt lat="50.50418" lon="2.51066">
        <ele>53.169</ele>
        <time>2019-09-17T09:40:39.001Z</time>
      </trkpt>
      <trkpt lat="50.50433" lon="2.51088">
        <ele>52.498</ele>
        <time>2019-09-17T09:40:42.001Z</time>
      </trkpt>
      <trkpt lat="50.50443" lon="2.51107">
        <ele>52.162</ele>
        <time>2019-09-17T09:40:45.001Z</time>
      </trkpt>
      <trkpt lat="50.50449" lon="2.51129">
        <ele>52.158</ele>
        <time>2019-09-17T09:40:48.001Z</time>
      </trkpt>
      <trkpt lat="50.50464" lon="2.51144">
        <ele>51.697</ele>
        <time>2019-09-17T09:40:51.001Z</time>
      </trkpt>
      <trkpt lat="50.50479" lon="2.51154">
        <ele>49.513</ele>
        <time>2019-09-17T09:40:54.001Z</time>
      </trkpt>
      <trkpt lat="50.50493" lon="2.51173">
        <ele>47.516</ele>
        <time>2019-09-17T09:40:57.001Z</time>
      </trkpt>
      <trkpt lat="50.50506" lon="2.51194">
        <ele>46.251</ele>
        <time>2019-09-17T09:41:00.000Z</time>
      </trkpt>
      <trkpt lat="50.50517" lon="2.51215">
        <ele>45.646</ele>
        <time>2019-09-17T09:41:03.001Z</time>
      </trkpt>
      <trkpt lat="50.50528" lon="2.51235">
        <ele>45.878</ele>
        <time>2019-09-17T09:41:06.001Z</time>
      </trkpt>
      <trkpt lat="50.50538" lon="2.51257">
        <ele>45.928</ele>
        <time>2019-09-17T09:41:09.001Z</time>
      </trkpt>
      <trkpt lat="50.50548" lon="2.5128">
        <ele>46.433</ele>
        <time>2019-09-17T09:41:12.001Z</time>
      </trkpt>
      <trkpt lat="50.50556" lon="2.51302">
        <ele>46.152</ele>
        <time>2019-09-17T09:41:15.001Z</time>
      </trkpt>
      <trkpt lat="50.50564" lon="2.51323">
        <ele>46.965</ele>
        <time>2019-09-17T09:41:18.001Z</time>
      </trkpt>
      <trkpt lat="50.50571" lon="2.51344">
        <ele>48.475</ele>
        <time>2019-09-17T09:41:21.001Z</time>
      </trkpt>
      <trkpt lat="50.50578" lon="2.51365">
        <ele>49.309</ele>
        <time>2019-09-17T09:41:24.001Z</time>
      </trkpt>
      <trkpt lat="50.50588" lon="2.51385">
        <ele>50.379</ele>
        <time>2019-09-17T09:41:27.001Z</time>
      </trkpt>
      <trkpt lat="50.506" lon="2.51404">
        <ele>51.607</ele>
        <time>2019-09-17T09:41:30.001Z</time>
      </trkpt>
      <trkpt lat="50.5061" lon="2.51424">
        <ele>52.464</ele>
        <time>2019-09-17T09:41:33.001Z</time>
      </trkpt>
      <trkpt lat="50.5062" lon="2.51445">
        <ele>52.586</ele>
        <time>2019-09-17T09:41:36.001Z</time>
      </trkpt>
      <trkpt lat="50.50627" lon="2.5147">
        <ele>51.78</ele>
        <time>2019-09-17T09:41:39.001Z</time>
      </trkpt>
      <trkpt lat="50.50631" lon="2.51493">
        <ele>52.066</ele>
        <time>2019-09-17T09:41:42.001Z</time>
      </trkpt>
      <trkpt lat="50.5063" lon="2.51512">
        <ele>52.181</ele>
        <time>2019-09-17T09:41:45.001Z</time>
      </trkpt>
      <trkpt lat="50.50621" lon="2.51531">
        <ele>51.914</ele>
        <time>2019-09-17T09:41:48.001Z</time>
      </trkpt>
      <trkpt lat="50.50621" lon="2.51554">
        <ele>50.64</ele>
        <time>2019-09-17T09:41:51.001Z</time>
      </trkpt>
      <trkpt lat="50.50629" lon="2.51577">
        <ele>49.548</ele>
        <time>2019-09-17T09:41:54.001Z</time>
      </trkpt>
      <trkpt lat="50.50645" lon="2.51585">
        <ele>48.436</ele>
        <time>2019-09-17T09:41:57.001Z</time>
      </trkpt>
      <trkpt lat="50.5066" lon="2.51586">
        <ele>48.625</ele>
        <time>2019-09-17T09:42:00.000Z</time>
      </trkpt>
      <trkpt lat="50.5067" lon="2.51602">
        <ele>48.331</ele>
        <time>2019-09-17T09:42:03.001Z</time>
      </trkpt>
      <trkpt lat="50.50675" lon="2.51623">
        <ele>48.044</ele>
        <time>2019-09-17T09:42:06.001Z</time>
      </trkpt>
      <trkpt lat="50.50682" lon="2.51641">
        <ele>48.076</ele>
        <time>2019-09-17T09:42:09.001Z</time>
      </trkpt>
      <trkpt lat="50.50689" lon="2.51656">
        <ele>48.628</ele>
        <time>2019-09-17T09:42:12.001Z</time>
      </trkpt>
      <trkpt lat="50.50699" lon="2.51674">
        <ele>48.577</ele>
        <time>2019-09-17T09:42:15.001Z</time>
      </trkpt>
      <trkpt lat="50.50709" lon="2.51691">
        <ele>47.965</ele>
        <time>2019-09-17T09:42:18.001Z</time>
      </trkpt>
      <trkpt lat="50.50717" lon="2.51708">
        <ele>48.408</ele>
        <time>2019-09-17T09:42:21.001Z</time>
      </trkpt>
      <trkpt lat="50.50724" lon="2.51723">
        <ele>48.881</ele>
        <time>2019-09-17T09:42:24.001Z</time>
      </trkpt>
      <trkpt lat="50.50732" lon="2.51741">
        <ele>49.527</ele>
        <time>2019-09-17T09:42:27.001Z</time>
      </trkpt>
      <trkpt lat="50.5074" lon="2.51757">
        <ele>50.429</ele>
        <time>2019-09-17T09:42:30.001Z</time>
      </trkpt>
      <trkpt lat="50.50748" lon="2.51773">
        <ele>51.429</ele>
        <time>2019-09-17T09:42:33.001Z</time>
      </trkpt>
      <trkpt lat="50.50755" lon="2.51792">
        <ele>52.108</ele>
        <time>2019-09-17T09:42:36.001Z</time>
      </trkpt>
      <trkpt lat="50.50765" lon="2.51813">
        <ele>52.294</ele>
        <time>2019-09-17T09:42:39.001Z</time>
      </trkpt>
      <trkpt lat="50.50774" lon="2.51831">
        <ele>52.863</ele>
        <time>2019-09-17T09:42:42.001Z</time>
      </trkpt>
      <trkpt lat="50.50784" lon="2.5185">
        <ele>53.402</ele>
        <time>2019-09-17T09:42:45.001Z</time>
      </trkpt>
      <trkpt lat="50.50795" lon="2.51865">
        <ele>53.494</ele>
        <time>2019-09-17T09:42:48.001Z</time>
      </trkpt>
      <trkpt lat="50.50806" lon="2.51878">
        <ele>53.14</ele>
        <time>2019-09-17T09:42:51.001Z</time>
      </trkpt>
      <trkpt lat="50.50818" lon="2.51891">
        <ele>52.019</ele>
        <time>2019-09-17T09:42:54.001Z</time>
      </trkpt>
      <trkpt lat="50.50832" lon="2.51903">
        <ele>50.504</ele>
        <time>2019-09-17T09:42:57.001Z</time>
      </trkpt>
      <trkpt lat="50.50846" lon="2.51917">
        <ele>48.9</ele>
        <time>2019-09-17T09:43:00.000Z</time>
      </trkpt>
      <trkpt lat="50.50859" lon="2.51932">
        <ele>48.375</ele>
        <time>2019-09-17T09:43:03.001Z</time>
      </trkpt>
      <trkpt lat="50.50873" lon="2.51949">
        <ele>47.413</ele>
        <time>2019-09-17T09:43:06.001Z</time>
      </trkpt>
      <trkpt lat="50.50886" lon="2.51966">
        <ele>46.752</ele>
        <time>2019-09-17T09:43:09.001Z</time>
      </trkpt>
      <trkpt lat="50.50899" lon="2.51984">
        <ele>46.284</ele>
        <time>2019-09-17T09:43:12.001Z</time>
      </trkpt>
      <trkpt lat="50.50911" lon="2.52004">
        <ele>46.087</ele>
        <time>2019-09-17T09:43:15.001Z</time>
      </trkpt>
      <trkpt lat="50.50923" lon="2.52025">
        <ele>45.549</ele>
        <time>2019-09-17T09:43:18.001Z</time>
      </trkpt>
      <trkpt lat="50.50935" lon="2.52045">
        <ele>44.693</ele>
        <time>2019-09-17T09:43:21.001Z</time>
      </trkpt>
      <trkpt lat="50.50946" lon="2.52067">
        <ele>44.618</ele>
        <time>2019-09-17T09:43:24.001Z</time>
      </trkpt>
      <trkpt lat="50.5096" lon="2.52089">
        <ele>44.184</ele>
        <time>2019-09-17T09:43:27.001Z</time>
      </trkpt>
      <trkpt lat="50.50971" lon="2.52112">
        <ele>43.859</ele>
        <time>2019-09-17T09:43:30.001Z</time>
      </trkpt>
      <trkpt lat="50.50983" lon="2.52135">
        <ele>43.359</ele>
        <time>2019-09-17T09:43:33.001Z</time>
      </trkpt>
      <trkpt lat="50.50995" lon="2.52159">
        <ele>42.794</ele>
        <time>2019-09-17T09:43:36.001Z</time>
      </trkpt>
      <trkpt lat="50.51007" lon="2.52182">
        <ele>42.31</ele>
        <time>2019-09-17T09:43:39.001Z</time>
      </trkpt>
      <trkpt lat="50.5102" lon="2.52205">
        <ele>41.855</ele>
        <time>2019-09-17T09:43:42.001Z</time>
      </trkpt>
      <trkpt lat="50.51032" lon="2.52229">
        <ele>41.84</ele>
        <time>2019-09-17T09:43:45.001Z</time>
      </trkpt>
      <trkpt lat="50.51044" lon="2.52252">
        <ele>42.189</ele>
        <time>2019-09-17T09:43:48.001Z</time>
      </trkpt>
      <trkpt lat="50.51055" lon="2.52275">
        <ele>42.409</ele>
        <time>2019-09-17T09:43:51.001Z</time>
      </trkpt>
      <trkpt lat="50.51066" lon="2.523">
        <ele>42.18</ele>
        <time>2019-09-17T09:43:54.001Z</time>
      </trkpt>
      <trkpt lat="50.51078" lon="2.52325">
        <ele>41.941</ele>
        <time>2019-09-17T09:43:57.001Z</time>
      </trkpt>
      <trkpt lat="50.5109" lon="2.52353">
        <ele>41.419</ele>
        <time>2019-09-17T09:44:00.000Z</time>
      </trkpt>
      <trkpt lat="50.51099" lon="2.52379">
        <ele>41.115</ele>
        <time>2019-09-17T09:44:03.001Z</time>
      </trkpt>
      <trkpt lat="50.51111" lon="2.52405">
        <ele>41.551</ele>
        <time>2019-09-17T09:44:06.001Z</time>
      </trkpt>
      <trkpt lat="50.51122" lon="2.52432">
        <ele>42.179</ele>
        <time>2019-09-17T09:44:09.001Z</time>
      </trkpt>
      <trkpt lat="50.51131" lon="2.52458">
        <ele>42.426</ele>
        <time>2019-09-17T09:44:12.001Z</time>
      </trkpt>
      <trkpt lat="50.51139" lon="2.52483">
        <ele>43.546</ele>
        <time>2019-09-17T09:44:15.001Z</time>
      </trkpt>
      <trkpt lat="50.51148" lon="2.52509">
        <ele>43.773</ele>
        <time>2019-09-17T09:44:18.001Z</time>
      </trkpt>
      <trkpt lat="50.51157" lon="2.52535">
        <ele>44.199</ele>
        <time>2019-09-17T09:44:21.001Z</time>
      </trkpt>
      <trkpt lat="50.51166" lon="2.52561">
        <ele>44.065</ele>
        <time>2019-09-17T09:44:24.001Z</time>
      </trkpt>
      <trkpt lat="50.51176" lon="2.52585">
        <ele>43.677</ele>
        <time>2019-09-17T09:44:27.001Z</time>
      </trkpt>
      <trkpt lat="50.51187" lon="2.52609">
        <ele>43.984</ele>
        <time>2019-09-17T09:44:30.001Z</time>
      </trkpt>
      <trkpt lat="50.512" lon="2.52633">
        <ele>43.493</ele>
        <time>2019-09-17T09:44:33.001Z</time>
      </trkpt>
      <trkpt lat="50.51211" lon="2.52656">
        <ele>42.683</ele>
        <time>2019-09-17T09:44:36.001Z</time>
      </trkpt>
      <trkpt lat="50.51221" lon="2.52675">
        <ele>42.565</ele>
        <time>2019-09-17T09:44:39.001Z</time>
      </trkpt>
      <trkpt lat="50.51229" lon="2.52697">
        <ele>42.473</ele>
        <time>2019-09-17T09:44:42.001Z</time>
      </trkpt>
      <trkpt lat="50.5124" lon="2.52721">
        <ele>41.884</ele>
        <time>2019-09-17T09:44:45.001Z</time>
      </trkpt>
      <trkpt lat="50.5125" lon="2.52744">
        <ele>41.384</ele>
        <time>2019-09-17T09:44:48.001Z</time>
      </trkpt>
      <trkpt lat="50.51256" lon="2.52764">
        <ele>42.499</ele>
        <time>2019-09-17T09:44:51.001Z</time>
      </trkpt>
      <trkpt lat="50.51264" lon="2.52788">
        <ele>42.309</ele>
        <time>2019-09-17T09:44:54.001Z</time>
      </trkpt>
      <trkpt lat="50.51272" lon="2.52812">
        <ele>41.895</ele>
        <time>2019-09-17T09:44:57.001Z</time>
      </trkpt>
      <trkpt lat="50.51281" lon="2.52838">
        <ele>41.721</ele>
        <time>2019-09-17T09:45:00.000Z</time>
      </trkpt>
      <trkpt lat="50.5129" lon="2.52863">
        <ele>41.253</ele>
        <time>2019-09-17T09:45:03.001Z</time>
      </trkpt>
      <trkpt lat="50.51299" lon="2.52888">
        <ele>40.808</ele>
        <time>2019-09-17T09:45:06.001Z</time>
      </trkpt>
      <trkpt lat="50.51309" lon="2.52914">
        <ele>40.767</ele>
        <time>2019-09-17T09:45:09.001Z</time>
      </trkpt>
      <trkpt lat="50.51318" lon="2.52939">
        <ele>40.667</ele>
        <time>2019-09-17T09:45:12.001Z</time>
      </trkpt>
      <trkpt lat="50.51328" lon="2.52964">
        <ele>40.505</ele>
        <time>2019-09-17T09:45:15.001Z</time>
      </trkpt>
      <trkpt lat="50.51336" lon="2.5299">
        <ele>40.193</ele>
        <time>2019-09-17T09:45:18.001Z</time>
      </trkpt>
      <trkpt lat="50.51345" lon="2.53014">
        <ele>40.429</ele>
        <time>2019-09-17T09:45:21.001Z</time>
      </trkpt>
      <trkpt lat="50.51354" lon="2.53037">
        <ele>40.344</ele>
        <time>2019-09-17T09:45:24.001Z</time>
      </trkpt>
      <trkpt lat="50.51361" lon="2.5306">
        <ele>40.141</ele>
        <time>2019-09-17T09:45:27.001Z</time>
      </trkpt>
      <trkpt lat="50.51368" lon="2.53085">
        <ele>40.719</ele>
        <time>2019-09-17T09:45:30.001Z</time>
      </trkpt>
      <trkpt lat="50.51374" lon="2.5311">
        <ele>41.07</ele>
        <time>2019-09-17T09:45:33.001Z</time>
      </trkpt>
      <trkpt lat="50.51379" lon="2.53134">
        <ele>41.06</ele>
        <time>2019-09-17T09:45:36.001Z</time>
      </trkpt>
      <trkpt lat="50.51384" lon="2.53161">
        <ele>41.108</ele>
        <time>2019-09-17T09:45:39.001Z</time>
      </trkpt>
      <trkpt lat="50.51392" lon="2.53186">
        <ele>41.693</ele>
        <time>2019-09-17T09:45:42.001Z</time>
      </trkpt>
      <trkpt lat="50.51401" lon="2.5321">
        <ele>42.39</ele>
        <time>2019-09-17T09:45:45.001Z</time>
      </trkpt>
      <trkpt lat="50.51411" lon="2.5323">
        <ele>43.025</ele>
        <time>2019-09-17T09:45:48.001Z</time>
      </trkpt>
      <trkpt lat="50.51421" lon="2.5325">
        <ele>43.824</ele>
        <time>2019-09-17T09:45:51.001Z</time>
      </trkpt>
      <trkpt lat="50.51432" lon="2.5327">
        <ele>44.07</ele>
        <time>2019-09-17T09:45:54.001Z</time>
      </trkpt>
      <trkpt lat="50.51443" lon="2.53289">
        <ele>44.637</ele>
        <time>2019-09-17T09:45:57.001Z</time>
      </trkpt>
      <trkpt lat="50.51453" lon="2.53307">
        <ele>45.993</ele>
        <time>2019-09-17T09:46:00.000Z</time>
      </trkpt>
      <trkpt lat="50.51464" lon="2.53325">
        <ele>46.673</ele>
        <time>2019-09-17T09:46:03.001Z</time>
      </trkpt>
      <trkpt lat="50.51472" lon="2.53345">
        <ele>48.137</ele>
        <time>2019-09-17T09:46:06.001Z</time>
      </trkpt>
      <trkpt lat="50.51482" lon="2.53362">
        <ele>48.543</ele>
        <time>2019-09-17T09:46:09.001Z</time>
      </trkpt>
      <trkpt lat="50.51491" lon="2.53383">
        <ele>48.569</ele>
        <time>2019-09-17T09:46:12.001Z</time>
      </trkpt>
      <trkpt lat="50.515" lon="2.53402">
        <ele>48.758</ele>
        <time>2019-09-17T09:46:15.001Z</time>
      </trkpt>
      <trkpt lat="50.51509" lon="2.53421">
        <ele>49.281</ele>
        <time>2019-09-17T09:46:18.001Z</time>
      </trkpt>
      <trkpt lat="50.51517" lon="2.5344">
        <ele>49.197</ele>
        <time>2019-09-17T09:46:21.001Z</time>
      </trkpt>
      <trkpt lat="50.51522" lon="2.53461">
        <ele>48.582</ele>
        <time>2019-09-17T09:46:24.001Z</time>
      </trkpt>
      <trkpt lat="50.5153" lon="2.53483">
        <ele>48.463</ele>
        <time>2019-09-17T09:46:27.001Z</time>
      </trkpt>
      <trkpt lat="50.51535" lon="2.53507">
        <ele>49.156</ele>
        <time>2019-09-17T09:46:30.001Z</time>
      </trkpt>
      <trkpt lat="50.5154" lon="2.53532">
        <ele>49.506</ele>
        <time>2019-09-17T09:46:33.001Z</time>
      </trkpt>
      <trkpt lat="50.51546" lon="2.53556">
        <ele>50.817</ele>
        <time>2019-09-17T09:46:36.001Z</time>
      </trkpt>
      <trkpt lat="50.51549" lon="2.53583">
        <ele>51.039</ele>
        <time>2019-09-17T09:46:39.001Z</time>
      </trkpt>
      <trkpt lat="50.51552" lon="2.53612">
        <ele>51.32</ele>
        <time>2019-09-17T09:46:42.001Z</time>
      </trkpt>
      <trkpt lat="50.51555" lon="2.53639">
        <ele>51.667</ele>
        <time>2019-09-17T09:46:45.001Z</time>
      </trkpt>
      <trkpt lat="50.51558" lon="2.53665">
        <ele>51.461</ele>
        <time>2019-09-17T09:46:48.001Z</time>
      </trkpt>
      <trkpt lat="50.51561" lon="2.53692">
        <ele>50.018</ele>
        <time>2019-09-17T09:46:51.001Z</time>
      </trkpt>
      <trkpt lat="50.51563" lon="2.53718">
        <ele>49.847</ele>
        <time>2019-09-17T09:46:54.001Z</time>
      </trkpt>
      <trkpt lat="50.51565" lon="2.53744">
        <ele>49.815</ele>
        <time>2019-09-17T09:46:57.001Z</time>
      </trkpt>
      <trkpt lat="50.51568" lon="2.53768">
        <ele>50.051</ele>
        <time>2019-09-17T09:47:00.000Z</time>
      </trkpt>
      <trkpt lat="50.51573" lon="2.53794">
        <ele>50.624</ele>
        <time>2019-09-17T09:47:03.001Z</time>
      </trkpt>
      <trkpt lat="50.51576" lon="2.5382">
        <ele>50.804</ele>
        <time>2019-09-17T09:47:06.001Z</time>
      </trkpt>
      <trkpt lat="50.5158" lon="2.53847">
        <ele>51.353</ele>
        <time>2019-09-17T09:47:09.001Z</time>
      </trkpt>
      <trkpt lat="50.51581" lon="2.53872">
        <ele>51.739</ele>
        <time>2019-09-17T09:47:12.001Z</time>
      </trkpt>
      <trkpt lat="50.51584" lon="2.53899">
        <ele>51.701</ele>
        <time>2019-09-17T09:47:15.001Z</time>
      </trkpt>
      <trkpt lat="50.51586" lon="2.53924">
        <ele>51.962</ele>
        <time>2019-09-17T09:47:18.001Z</time>
      </trkpt>
      <trkpt lat="50.51588" lon="2.53949">
        <ele>51.843</ele>
        <time>2019-09-17T09:47:21.001Z</time>
      </trkpt>
      <trkpt lat="50.51589" lon="2.53976">
        <ele>50.447</ele>
        <time>2019-09-17T09:47:24.001Z</time>
      </trkpt>
      <trkpt lat="50.51594" lon="2.54004">
        <ele>49.028</ele>
        <time>2019-09-17T09:47:27.001Z</time>
      </trkpt>
      <trkpt lat="50.51597" lon="2.54032">
        <ele>47.865</ele>
        <time>2019-09-17T09:47:30.001Z</time>
      </trkpt>
      <trkpt lat="50.51602" lon="2.54059">
        <ele>46.669</ele>
        <time>2019-09-17T09:47:33.001Z</time>
      </trkpt>
      <trkpt lat="50.5161" lon="2.54087">
        <ele>46.092</ele>
        <time>2019-09-17T09:47:36.001Z</time>
      </trkpt>
      <trkpt lat="50.5162" lon="2.54114">
        <ele>44.945</ele>
        <time>2019-09-17T09:47:39.001Z</time>
      </trkpt>
      <trkpt lat="50.51631" lon="2.5414">
        <ele>44.605</ele>
        <time>2019-09-17T09:47:42.001Z</time>
      </trkpt>
      <trkpt lat="50.51642" lon="2.54165">
        <ele>44.599</ele>
        <time>2019-09-17T09:47:45.001Z</time>
      </trkpt>
      <trkpt lat="50.51656" lon="2.5419">
        <ele>44.5</ele>
        <time>2019-09-17T09:47:48.001Z</time>
      </trkpt>
      <trkpt lat="50.51669" lon="2.54218">
        <ele>44.304</ele>
        <time>2019-09-17T09:47:51.001Z</time>
      </trkpt>
      <trkpt lat="50.51678" lon="2.54248">
        <ele>44.98</ele>
        <time>2019-09-17T09:47:54.001Z</time>
      </trkpt>
      <trkpt lat="50.51686" lon="2.54277">
        <ele>43.928</ele>
        <time>2019-09-17T09:47:57.001Z</time>
      </trkpt>
      <trkpt lat="50.51693" lon="2.543">
        <ele>43.703</ele>
        <time>2019-09-17T09:48:00.000Z</time>
      </trkpt>
      <trkpt lat="50.51701" lon="2.54328">
        <ele>43.219</ele>
        <time>2019-09-17T09:48:03.001Z</time>
      </trkpt>
      <trkpt lat="50.51708" lon="2.54355">
        <ele>42.452</ele>
        <time>2019-09-17T09:48:06.001Z</time>
      </trkpt>
      <trkpt lat="50.51716" lon="2.54384">
        <ele>41.131</ele>
        <time>2019-09-17T09:48:09.001Z</time>
      </trkpt>
      <trkpt lat="50.51726" lon="2.54409">
        <ele>40.165</ele>
        <time>2019-09-17T09:48:12.001Z</time>
      </trkpt>
      <trkpt lat="50.51739" lon="2.54431">
        <ele>39.728</ele>
        <time>2019-09-17T09:48:15.001Z</time>
      </trkpt>
      <trkpt lat="50.51752" lon="2.54453">
        <ele>39.07</ele>
        <time>2019-09-17T09:48:18.001Z</time>
      </trkpt>
      <trkpt lat="50.51763" lon="2.54475">
        <ele>39.112</ele>
        <time>2019-09-17T09:48:21.001Z</time>
      </trkpt>
      <trkpt lat="50.51773" lon="2.54501">
        <ele>39.075</ele>
        <time>2019-09-17T09:48:24.001Z</time>
      </trkpt>
      <trkpt lat="50.51782" lon="2.54529">
        <ele>38.264</ele>
        <time>2019-09-17T09:48:27.001Z</time>
      </trkpt>
      <trkpt lat="50.51792" lon="2.54555">
        <ele>38.809</ele>
        <time>2019-09-17T09:48:30.001Z</time>
      </trkpt>
      <trkpt lat="50.51806" lon="2.54581">
        <ele>39.052</ele>
        <time>2019-09-17T09:48:33.001Z</time>
      </trkpt>
      <trkpt lat="50.51817" lon="2.54606">
        <ele>38.77</ele>
        <time>2019-09-17T09:48:36.001Z</time>
      </trkpt>
      <trkpt lat="50.51828" lon="2.5463">
        <ele>37.667</ele>
        <time>2019-09-17T09:48:39.001Z</time>
      </trkpt>
      <trkpt lat="50.51838" lon="2.54653">
        <ele>37.306</ele>
        <time>2019-09-17T09:48:42.001Z</time>
      </trkpt>
      <trkpt lat="50.51846" lon="2.54675">
        <ele>37.344</ele>
        <time>2019-09-17T09:48:45.001Z</time>
      </trkpt>
      <trkpt lat="50.51856" lon="2.54695">
        <ele>37.401</ele>
        <time>2019-09-17T09:48:48.001Z</time>
      </trkpt>
      <trkpt lat="50.51866" lon="2.54716">
        <ele>38.427</ele>
        <time>2019-09-17T09:48:51.001Z</time>
      </trkpt>
      <trkpt lat="50.51876" lon="2.54738">
        <ele>39.468</ele>
        <time>2019-09-17T09:48:54.001Z</time>
      </trkpt>
      <trkpt lat="50.51884" lon="2.54761">
        <ele>40.488</ele>
        <time>2019-09-17T09:48:57.001Z</time>
      </trkpt>
      <trkpt lat="50.51895" lon="2.54782">
        <ele>41.467</ele>
        <time>2019-09-17T09:49:00.000Z</time>
      </trkpt>
      <trkpt lat="50.51907" lon="2.54802">
        <ele>41.091</ele>
        <time>2019-09-17T09:49:03.001Z</time>
      </trkpt>
      <trkpt lat="50.51919" lon="2.54821">
        <ele>40.787</ele>
        <time>2019-09-17T09:49:06.001Z</time>
      </trkpt>
      <trkpt lat="50.5193" lon="2.5484">
        <ele>40.759</ele>
        <time>2019-09-17T09:49:09.001Z</time>
      </trkpt>
      <trkpt lat="50.51943" lon="2.54861">
        <ele>40.898</ele>
        <time>2019-09-17T09:49:12.001Z</time>
      </trkpt>
      <trkpt lat="50.51954" lon="2.54879">
        <ele>40.904</ele>
        <time>2019-09-17T09:49:15.001Z</time>
      </trkpt>
      <trkpt lat="50.51964" lon="2.54898">
        <ele>41.002</ele>
        <time>2019-09-17T09:49:18.001Z</time>
      </trkpt>
      <trkpt lat="50.51974" lon="2.54917">
        <ele>40.893</ele>
        <time>2019-09-17T09:49:21.001Z</time>
      </trkpt>
      <trkpt lat="50.51983" lon="2.54935">
        <ele>40.435</ele>
        <time>2019-09-17T09:49:24.001Z</time>
      </trkpt>
      <trkpt lat="50.51994" lon="2.54953">
        <ele>40.288</ele>
        <time>2019-09-17T09:49:27.001Z</time>
      </trkpt>
      <trkpt lat="50.52006" lon="2.54969">
        <ele>40.488</ele>
        <time>2019-09-17T09:49:30.001Z</time>
      </trkpt>
      <trkpt lat="50.52017" lon="2.54989">
        <ele>40.535</ele>
        <time>2019-09-17T09:49:33.001Z</time>
      </trkpt>
      <trkpt lat="50.52028" lon="2.55008">
        <ele>40.165</ele>
        <time>2019-09-17T09:49:36.001Z</time>
      </trkpt>
      <trkpt lat="50.52039" lon="2.55027">
        <ele>39.933</ele>
        <time>2019-09-17T09:49:39.001Z</time>
      </trkpt>
      <trkpt lat="50.52048" lon="2.55045">
        <ele>41.08</ele>
        <time>2019-09-17T09:49:42.001Z</time>
      </trkpt>
      <trkpt lat="50.5206" lon="2.55064">
        <ele>42.415</ele>
        <time>2019-09-17T09:49:45.001Z</time>
      </trkpt>
      <trkpt lat="50.52073" lon="2.55083">
        <ele>41.644</ele>
        <time>2019-09-17T09:49:48.001Z</time>
      </trkpt>
      <trkpt lat="50.52086" lon="2.55101">
        <ele>41.466</ele>
        <time>2019-09-17T09:49:51.001Z</time>
      </trkpt>
      <trkpt lat="50.52098" lon="2.55118">
        <ele>41.337</ele>
        <time>2019-09-17T09:49:54.001Z</time>
      </trkpt>
      <trkpt lat="50.52108" lon="2.55134">
        <ele>40.983</ele>
        <time>2019-09-17T09:49:57.001Z</time>
      </trkpt>
      <trkpt lat="50.52119" lon="2.55152">
        <ele>40.395</ele>
        <time>2019-09-17T09:50:00.000Z</time>
      </trkpt>
      <trkpt lat="50.52129" lon="2.55169">
        <ele>40.742</ele>
        <time>2019-09-17T09:50:03.001Z</time>
      </trkpt>
      <trkpt lat="50.52139" lon="2.55187">
        <ele>41.082</ele>
        <time>2019-09-17T09:50:06.001Z</time>
      </trkpt>
      <trkpt lat="50.52149" lon="2.55209">
        <ele>40.523</ele>
        <time>2019-09-17T09:50:09.001Z</time>
      </trkpt>
      <trkpt lat="50.5216" lon="2.5523">
        <ele>38.55</ele>
        <time>2019-09-17T09:50:12.001Z</time>
      </trkpt>
      <trkpt lat="50.5217" lon="2.55251">
        <ele>36.204</ele>
        <time>2019-09-17T09:50:15.001Z</time>
      </trkpt>
      <trkpt lat="50.5218" lon="2.55272">
        <ele>34.982</ele>
        <time>2019-09-17T09:50:18.001Z</time>
      </trkpt>
      <trkpt lat="50.52191" lon="2.55289">
        <ele>34.551</ele>
        <time>2019-09-17T09:50:21.001Z</time>
      </trkpt>
      <trkpt lat="50.52202" lon="2.55306">
        <ele>34.239</ele>
        <time>2019-09-17T09:50:24.001Z</time>
      </trkpt>
      <trkpt lat="50.52213" lon="2.55325">
        <ele>34.621</ele>
        <time>2019-09-17T09:50:27.001Z</time>
      </trkpt>
      <trkpt lat="50.52224" lon="2.55346">
        <ele>35.27</ele>
        <time>2019-09-17T09:50:30.001Z</time>
      </trkpt>
      <trkpt lat="50.52236" lon="2.55368">
        <ele>35.793</ele>
        <time>2019-09-17T09:50:33.001Z</time>
      </trkpt>
      <trkpt lat="50.52246" lon="2.55388">
        <ele>35.365</ele>
        <time>2019-09-17T09:50:36.001Z</time>
      </trkpt>
      <trkpt lat="50.52257" lon="2.55406">
        <ele>35.256</ele>
        <time>2019-09-17T09:50:39.001Z</time>
      </trkpt>
      <trkpt lat="50.52266" lon="2.55425">
        <ele>35.237</ele>
        <time>2019-09-17T09:50:42.001Z</time>
      </trkpt>
      <trkpt lat="50.52275" lon="2.55444">
        <ele>35.105</ele>
        <time>2019-09-17T09:50:45.001Z</time>
      </trkpt>
      <trkpt lat="50.52286" lon="2.55465">
        <ele>34.791</ele>
        <time>2019-09-17T09:50:48.001Z</time>
      </trkpt>
      <trkpt lat="50.52296" lon="2.55484">
        <ele>34.835</ele>
        <time>2019-09-17T09:50:51.001Z</time>
      </trkpt>
      <trkpt lat="50.52306" lon="2.55503">
        <ele>34.259</ele>
        <time>2019-09-17T09:50:54.001Z</time>
      </trkpt>
      <trkpt lat="50.52317" lon="2.55522">
        <ele>34.006</ele>
        <time>2019-09-17T09:50:57.001Z</time>
      </trkpt>
      <trkpt lat="50.52327" lon="2.5554">
        <ele>34.158</ele>
        <time>2019-09-17T09:51:00.000Z</time>
      </trkpt>
      <trkpt lat="50.52337" lon="2.5556">
        <ele>34.356</ele>
        <time>2019-09-17T09:51:03.001Z</time>
      </trkpt>
      <trkpt lat="50.52348" lon="2.55582">
        <ele>33.771</ele>
        <time>2019-09-17T09:51:06.001Z</time>
      </trkpt>
      <trkpt lat="50.52359" lon="2.556">
        <ele>33.726</ele>
        <time>2019-09-17T09:51:09.001Z</time>
      </trkpt>
      <trkpt lat="50.52368" lon="2.5562">
        <ele>33.979</ele>
        <time>2019-09-17T09:51:12.001Z</time>
      </trkpt>
      <trkpt lat="50.5238" lon="2.55639">
        <ele>33.785</ele>
        <time>2019-09-17T09:51:15.001Z</time>
      </trkpt>
      <trkpt lat="50.52393" lon="2.55654">
        <ele>33.764</ele>
        <time>2019-09-17T09:51:18.001Z</time>
      </trkpt>
      <trkpt lat="50.52407" lon="2.55671">
        <ele>33.663</ele>
        <time>2019-09-17T09:51:21.001Z</time>
      </trkpt>
      <trkpt lat="50.5242" lon="2.55686">
        <ele>33.891</ele>
        <time>2019-09-17T09:51:24.001Z</time>
      </trkpt>
      <trkpt lat="50.52432" lon="2.55703">
        <ele>34.064</ele>
        <time>2019-09-17T09:51:27.001Z</time>
      </trkpt>
      <trkpt lat="50.52446" lon="2.5572">
        <ele>33.278</ele>
        <time>2019-09-17T09:51:30.001Z</time>
      </trkpt>
      <trkpt lat="50.52461" lon="2.55736">
        <ele>31.814</ele>
        <time>2019-09-17T09:51:33.001Z</time>
      </trkpt>
      <trkpt lat="50.52473" lon="2.55751">
        <ele>31.462</ele>
        <time>2019-09-17T09:51:36.001Z</time>
      </trkpt>
      <trkpt lat="50.52486" lon="2.55765">
        <ele>31.368</ele>
        <time>2019-09-17T09:51:39.001Z</time>
      </trkpt>
      <trkpt lat="50.52498" lon="2.5578">
        <ele>31.869</ele>
        <time>2019-09-17T09:51:42.001Z</time>
      </trkpt>
      <trkpt lat="50.52509" lon="2.55796">
        <ele>31.767</ele>
        <time>2019-09-17T09:51:45.001Z</time>
      </trkpt>
      <trkpt lat="50.52522" lon="2.55812">
        <ele>32.086</ele>
        <time>2019-09-17T09:51:48.001Z</time>
      </trkpt>
      <trkpt lat="50.52536" lon="2.55827">
        <ele>32.699</ele>
        <time>2019-09-17T09:51:51.001Z</time>
      </trkpt>
      <trkpt lat="50.52548" lon="2.55841">
        <ele>34.138</ele>
        <time>2019-09-17T09:51:54.001Z</time>
      </trkpt>
      <trkpt lat="50.52562" lon="2.55855">
        <ele>35.057</ele>
        <time>2019-09-17T09:51:57.001Z</time>
      </trkpt>
      <trkpt lat="50.52577" lon="2.55867">
        <ele>35.569</ele>
        <time>2019-09-17T09:52:00.000Z</time>
      </trkpt>
      <trkpt lat="50.52593" lon="2.5588">
        <ele>34.809</ele>
        <time>2019-09-17T09:52:03.001Z</time>
      </trkpt>
      <trkpt lat="50.52609" lon="2.55898">
        <ele>33.912</ele>
        <time>2019-09-17T09:52:06.001Z</time>
      </trkpt>
      <trkpt lat="50.52623" lon="2.55917">
        <ele>32.884</ele>
        <time>2019-09-17T09:52:09.001Z</time>
      </trkpt>
      <trkpt lat="50.52635" lon="2.55933">
        <ele>31.531</ele>
        <time>2019-09-17T09:52:12.001Z</time>
      </trkpt>
      <trkpt lat="50.52647" lon="2.55949">
        <ele>30.683</ele>
        <time>2019-09-17T09:52:15.001Z</time>
      </trkpt>
      <trkpt lat="50.52659" lon="2.55963">
        <ele>30.452</ele>
        <time>2019-09-17T09:52:18.001Z</time>
      </trkpt>
      <trkpt lat="50.5267" lon="2.55977">
        <ele>29.681</ele>
        <time>2019-09-17T09:52:21.001Z</time>
      </trkpt>
      <trkpt lat="50.52681" lon="2.5599">
        <ele>29.197</ele>
        <time>2019-09-17T09:52:24.001Z</time>
      </trkpt>
      <trkpt lat="50.52692" lon="2.56003">
        <ele>28.937</ele>
        <time>2019-09-17T09:52:27.001Z</time>
      </trkpt>
      <trkpt lat="50.52702" lon="2.56016">
        <ele>28.504</ele>
        <time>2019-09-17T09:52:30.001Z</time>
      </trkpt>
      <trkpt lat="50.52713" lon="2.56029">
        <ele>28.459</ele>
        <time>2019-09-17T09:52:33.001Z</time>
      </trkpt>
      <trkpt lat="50.52724" lon="2.56042">
        <ele>28.069</ele>
        <time>2019-09-17T09:52:36.001Z</time>
      </trkpt>
      <trkpt lat="50.52734" lon="2.56056">
        <ele>27.545</ele>
        <time>2019-09-17T09:52:39.001Z</time>
      </trkpt>
      <trkpt lat="50.52745" lon="2.56069">
        <ele>26.881</ele>
        <time>2019-09-17T09:52:42.001Z</time>
      </trkpt>
      <trkpt lat="50.52754" lon="2.56081">
        <ele>26.832</ele>
        <time>2019-09-17T09:52:45.001Z</time>
      </trkpt>
      <trkpt lat="50.52762" lon="2.56092">
        <ele>27.143</ele>
        <time>2019-09-17T09:52:48.001Z</time>
      </trkpt>
      <trkpt lat="50.52767" lon="2.561">
        <ele>27.483</ele>
        <time>2019-09-17T09:52:51.001Z</time>
      </trkpt>
      <trkpt lat="50.52774" lon="2.56105">
        <ele>27.247</ele>
        <time>2019-09-17T09:52:54.001Z</time>
      </trkpt>
      <trkpt lat="50.52784" lon="2.56112">
        <ele>27.065</ele>
        <time>2019-09-17T09:52:57.001Z</time>
      </trkpt>
      <trkpt lat="50.52807" lon="2.56145">
        <ele>27.553</ele>
        <time>2019-09-17T09:53:00.000Z</time>
      </trkpt>
      <trkpt lat="50.52821" lon="2.56163">
        <ele>27.007</ele>
        <time>2019-09-17T09:53:03.001Z</time>
      </trkpt>
      <trkpt lat="50.52833" lon="2.5618">
        <ele>27.787</ele>
        <time>2019-09-17T09:53:06.001Z</time>
      </trkpt>
      <trkpt lat="50.52844" lon="2.56193">
        <ele>27.584</ele>
        <time>2019-09-17T09:53:09.001Z</time>
      </trkpt>
      <trkpt lat="50.52855" lon="2.56207">
        <ele>26.056</ele>
        <time>2019-09-17T09:53:12.001Z</time>
      </trkpt>
      <trkpt lat="50.52863" lon="2.5622">
        <ele>25.931</ele>
        <time>2019-09-17T09:53:15.001Z</time>
      </trkpt>
      <trkpt lat="50.52873" lon="2.56233">
        <ele>25.35</ele>
        <time>2019-09-17T09:53:18.001Z</time>
      </trkpt>
      <trkpt lat="50.52886" lon="2.56245">
        <ele>23.98</ele>
        <time>2019-09-17T09:53:21.001Z</time>
      </trkpt>
      <trkpt lat="50.52896" lon="2.56257">
        <ele>23.481</ele>
        <time>2019-09-17T09:53:24.001Z</time>
      </trkpt>
      <trkpt lat="50.52908" lon="2.56271">
        <ele>23.006</ele>
        <time>2019-09-17T09:53:27.001Z</time>
      </trkpt>
      <trkpt lat="50.52922" lon="2.56285">
        <ele>22.848</ele>
        <time>2019-09-17T09:53:30.001Z</time>
      </trkpt>
      <trkpt lat="50.52931" lon="2.56299">
        <ele>23.237</ele>
        <time>2019-09-17T09:53:33.001Z</time>
      </trkpt>
      <trkpt lat="50.52945" lon="2.56314">
        <ele>23.31</ele>
        <time>2019-09-17T09:53:36.001Z</time>
      </trkpt>
      <trkpt lat="50.52959" lon="2.56329">
        <ele>22.834</ele>
        <time>2019-09-17T09:53:39.001Z</time>
      </trkpt>
      <trkpt lat="50.52972" lon="2.56343">
        <ele>23.023</ele>
        <time>2019-09-17T09:53:42.001Z</time>
      </trkpt>
      <trkpt lat="50.52986" lon="2.56358">
        <ele>24.398</ele>
        <time>2019-09-17T09:53:45.001Z</time>
      </trkpt>
      <trkpt lat="50.52999" lon="2.56375">
        <ele>25.705</ele>
        <time>2019-09-17T09:53:48.001Z</time>
      </trkpt>
      <trkpt lat="50.53011" lon="2.5639">
        <ele>26.629</ele>
        <time>2019-09-17T09:53:51.001Z</time>
      </trkpt>
      <trkpt lat="50.53026" lon="2.56403">
        <ele>27.261</ele>
        <time>2019-09-17T09:53:54.001Z</time>
      </trkpt>
      <trkpt lat="50.5304" lon="2.56417">
        <ele>28.753</ele>
        <time>2019-09-17T09:53:57.001Z</time>
      </trkpt>
      <trkpt lat="50.53053" lon="2.5643">
        <ele>28.917</ele>
        <time>2019-09-17T09:54:00.000Z</time>
      </trkpt>
      <trkpt lat="50.53066" lon="2.5644">
        <ele>29.269</ele>
        <time>2019-09-17T09:54:03.001Z</time>
      </trkpt>
      <trkpt lat="50.5308" lon="2.5645">
        <ele>29.603</ele>
        <time>2019-09-17T09:54:06.001Z</time>
      </trkpt>
      <trkpt lat="50.53087" lon="2.56467">
        <ele>31.033</ele>
        <time>2019-09-17T09:54:09.001Z</time>
      </trkpt>
      <trkpt lat="50.53097" lon="2.56488">
        <ele>31.49</ele>
        <time>2019-09-17T09:54:12.001Z</time>
      </trkpt>
      <trkpt lat="50.53109" lon="2.56502">
        <ele>31.67</ele>
        <time>2019-09-17T09:54:15.001Z</time>
      </trkpt>
      <trkpt lat="50.53124" lon="2.56515">
        <ele>31.182</ele>
        <time>2019-09-17T09:54:18.001Z</time>
      </trkpt>
      <trkpt lat="50.53136" lon="2.56529">
        <ele>31.001</ele>
        <time>2019-09-17T09:54:21.001Z</time>
      </trkpt>
      <trkpt lat="50.53148" lon="2.56545">
        <ele>30.68</ele>
        <time>2019-09-17T09:54:24.001Z</time>
      </trkpt>
      <trkpt lat="50.53158" lon="2.5656">
        <ele>30.511</ele>
        <time>2019-09-17T09:54:27.001Z</time>
      </trkpt>
      <trkpt lat="50.53168" lon="2.56577">
        <ele>31.22</ele>
        <time>2019-09-17T09:54:30.001Z</time>
      </trkpt>
      <trkpt lat="50.53178" lon="2.56594">
        <ele>31.552</ele>
        <time>2019-09-17T09:54:33.001Z</time>
      </trkpt>
      <trkpt lat="50.53189" lon="2.5661">
        <ele>31.236</ele>
        <time>2019-09-17T09:54:36.001Z</time>
      </trkpt>
      <trkpt lat="50.53199" lon="2.56624">
        <ele>31.497</ele>
        <time>2019-09-17T09:54:39.001Z</time>
      </trkpt>
      <trkpt lat="50.5321" lon="2.56639">
        <ele>32.342</ele>
        <time>2019-09-17T09:54:42.001Z</time>
      </trkpt>
      <trkpt lat="50.5322" lon="2.56654">
        <ele>33.35</ele>
        <time>2019-09-17T09:54:45.001Z</time>
      </trkpt>
      <trkpt lat="50.53232" lon="2.5667">
        <ele>33.787</ele>
        <time>2019-09-17T09:54:48.001Z</time>
      </trkpt>
      <trkpt lat="50.53245" lon="2.56685">
        <ele>33.962</ele>
        <time>2019-09-17T09:54:51.001Z</time>
      </trkpt>
      <trkpt lat="50.53258" lon="2.56701">
        <ele>34.139</ele>
        <time>2019-09-17T09:54:54.001Z</time>
      </trkpt>
      <trkpt lat="50.53269" lon="2.56716">
        <ele>33.664</ele>
        <time>2019-09-17T09:54:57.001Z</time>
      </trkpt>
      <trkpt lat="50.5328" lon="2.56732">
        <ele>33.926</ele>
        <time>2019-09-17T09:55:00.000Z</time>
      </trkpt>
      <trkpt lat="50.53291" lon="2.56747">
        <ele>34.162</ele>
        <time>2019-09-17T09:55:03.001Z</time>
      </trkpt>
      <trkpt lat="50.53301" lon="2.56762">
        <ele>34.202</ele>
        <time>2019-09-17T09:55:06.001Z</time>
      </trkpt>
      <trkpt lat="50.5331" lon="2.56776">
        <ele>34.232</ele>
        <time>2019-09-17T09:55:09.001Z</time>
      </trkpt>
      <trkpt lat="50.53319" lon="2.56789">
        <ele>34.381</ele>
        <time>2019-09-17T09:55:12.001Z</time>
      </trkpt>
      <trkpt lat="50.53328" lon="2.56802">
        <ele>35.068</ele>
        <time>2019-09-17T09:55:15.001Z</time>
      </trkpt>
      <trkpt lat="50.5334" lon="2.56816">
        <ele>35.271</ele>
        <time>2019-09-17T09:55:18.001Z</time>
      </trkpt>
      <trkpt lat="50.53354" lon="2.56833">
        <ele>35.547</ele>
        <time>2019-09-17T09:55:21.001Z</time>
      </trkpt>
      <trkpt lat="50.53369" lon="2.56847">
        <ele>36.706</ele>
        <time>2019-09-17T09:55:24.001Z</time>
      </trkpt>
      <trkpt lat="50.53383" lon="2.5686">
        <ele>37.881</ele>
        <time>2019-09-17T09:55:27.001Z</time>
      </trkpt>
      <trkpt lat="50.53398" lon="2.56874">
        <ele>38.118</ele>
        <time>2019-09-17T09:55:30.001Z</time>
      </trkpt>
      <trkpt lat="50.53412" lon="2.56886">
        <ele>38.641</ele>
        <time>2019-09-17T09:55:33.001Z</time>
      </trkpt>
      <trkpt lat="50.53425" lon="2.56898">
        <ele>39.218</ele>
        <time>2019-09-17T09:55:36.001Z</time>
      </trkpt>
      <trkpt lat="50.53438" lon="2.56906">
        <ele>39.012</ele>
        <time>2019-09-17T09:55:39.001Z</time>
      </trkpt>
      <trkpt lat="50.53452" lon="2.56911">
        <ele>40.185</ele>
        <time>2019-09-17T09:55:42.001Z</time>
      </trkpt>
      <trkpt lat="50.53468" lon="2.56913">
        <ele>40.76</ele>
        <time>2019-09-17T09:55:45.001Z</time>
      </trkpt>
      <trkpt lat="50.53482" lon="2.56914">
        <ele>41.353</ele>
        <time>2019-09-17T09:55:48.001Z</time>
      </trkpt>
      <trkpt lat="50.53496" lon="2.56919">
        <ele>40.307</ele>
        <time>2019-09-17T09:55:51.001Z</time>
      </trkpt>
      <trkpt lat="50.53513" lon="2.56932">
        <ele>38.593</ele>
        <time>2019-09-17T09:55:54.001Z</time>
      </trkpt>
      <trkpt lat="50.5353" lon="2.56941">
        <ele>36.619</ele>
        <time>2019-09-17T09:55:57.001Z</time>
      </trkpt>
      <trkpt lat="50.53545" lon="2.56949">
        <ele>35.66</ele>
        <time>2019-09-17T09:56:00.000Z</time>
      </trkpt>
      <trkpt lat="50.53558" lon="2.56958">
        <ele>35.003</ele>
        <time>2019-09-17T09:56:03.001Z</time>
      </trkpt>
      <trkpt lat="50.5357" lon="2.56966">
        <ele>35.167</ele>
        <time>2019-09-17T09:56:06.001Z</time>
      </trkpt>
      <trkpt lat="50.53582" lon="2.56974">
        <ele>35.84</ele>
        <time>2019-09-17T09:56:09.001Z</time>
      </trkpt>
      <trkpt lat="50.53594" lon="2.56983">
        <ele>36.491</ele>
        <time>2019-09-17T09:56:12.001Z</time>
      </trkpt>
      <trkpt lat="50.53605" lon="2.56993">
        <ele>37.359</ele>
        <time>2019-09-17T09:56:15.001Z</time>
      </trkpt>
      <trkpt lat="50.53616" lon="2.57002">
        <ele>37.973</ele>
        <time>2019-09-17T09:56:18.001Z</time>
      </trkpt>
      <trkpt lat="50.53627" lon="2.57012">
        <ele>38.459</ele>
        <time>2019-09-17T09:56:21.001Z</time>
      </trkpt>
      <trkpt lat="50.53638" lon="2.57022">
        <ele>39.113</ele>
        <time>2019-09-17T09:56:24.001Z</time>
      </trkpt>
      <trkpt lat="50.5365" lon="2.57032">
        <ele>39.886</ele>
        <time>2019-09-17T09:56:27.001Z</time>
      </trkpt>
      <trkpt lat="50.53661" lon="2.57042">
        <ele>39.807</ele>
        <time>2019-09-17T09:56:30.001Z</time>
      </trkpt>
      <trkpt lat="50.53672" lon="2.57054">
        <ele>40.075</ele>
        <time>2019-09-17T09:56:33.001Z</time>
      </trkpt>
      <trkpt lat="50.53682" lon="2.57063">
        <ele>40.195</ele>
        <time>2019-09-17T09:56:36.001Z</time>
      </trkpt>
      <trkpt lat="50.5369" lon="2.57072">
        <ele>40.116</ele>
        <time>2019-09-17T09:56:39.001Z</time>
      </trkpt>
      <trkpt lat="50.53698" lon="2.57078">
        <ele>40.045</ele>
        <time>2019-09-17T09:56:42.001Z</time>
      </trkpt>
      <trkpt lat="50.53705" lon="2.57083">
        <ele>39.785</ele>
        <time>2019-09-17T09:56:45.001Z</time>
      </trkpt>
      <trkpt lat="50.53712" lon="2.57087">
        <ele>39.223</ele>
        <time>2019-09-17T09:56:48.001Z</time>
      </trkpt>
      <trkpt lat="50.53715" lon="2.57094">
        <ele>38.7</ele>
        <time>2019-09-17T09:56:51.001Z</time>
      </trkpt>
      <trkpt lat="50.53716" lon="2.57105">
        <ele>38.594</ele>
        <time>2019-09-17T09:56:54.001Z</time>
      </trkpt>
      <trkpt lat="50.53715" lon="2.57118">
        <ele>38.538</ele>
        <time>2019-09-17T09:56:57.001Z</time>
      </trkpt>
      <trkpt lat="50.53716" lon="2.57131">
        <ele>38.686</ele>
        <time>2019-09-17T09:57:00.000Z</time>
      </trkpt>
      <trkpt lat="50.53715" lon="2.57145">
        <ele>36.732</ele>
        <time>2019-09-17T09:57:03.001Z</time>
      </trkpt>
      <trkpt lat="50.53712" lon="2.57158">
        <ele>35.507</ele>
        <time>2019-09-17T09:57:06.001Z</time>
      </trkpt>
      <trkpt lat="50.53708" lon="2.57171">
        <ele>34.705</ele>
        <time>2019-09-17T09:57:09.001Z</time>
      </trkpt>
      <trkpt lat="50.53706" lon="2.57184">
        <ele>34.622</ele>
        <time>2019-09-17T09:57:12.001Z</time>
      </trkpt>
      <trkpt lat="50.53703" lon="2.57195">
        <ele>34.384</ele>
        <time>2019-09-17T09:57:15.001Z</time>
      </trkpt>
      <trkpt lat="50.537" lon="2.57206">
        <ele>34.812</ele>
        <time>2019-09-17T09:57:18.001Z</time>
      </trkpt>
      <trkpt lat="50.53709" lon="2.57215">
        <ele>34.812</ele>
        <time>2019-09-17T09:57:24.001Z</time>
      </trkpt>
      <trkpt lat="50.53716" lon="2.57221">
        <ele>34.446</ele>
        <time>2019-09-17T09:57:27.001Z</time>
      </trkpt>
      <trkpt lat="50.53721" lon="2.57232">
        <ele>34.309</ele>
        <time>2019-09-17T09:57:30.001Z</time>
      </trkpt>
      <trkpt lat="50.53728" lon="2.5724">
        <ele>34.842</ele>
        <time>2019-09-17T09:57:33.001Z</time>
      </trkpt>
      <trkpt lat="50.53734" lon="2.57249">
        <ele>35.211</ele>
        <time>2019-09-17T09:57:36.001Z</time>
      </trkpt>
      <trkpt lat="50.53739" lon="2.57258">
        <ele>34.969</ele>
        <time>2019-09-17T09:57:39.001Z</time>
      </trkpt>
      <trkpt lat="50.53745" lon="2.57267">
        <ele>34.794</ele>
        <time>2019-09-17T09:57:42.001Z</time>
      </trkpt>
      <trkpt lat="50.53749" lon="2.57279">
        <ele>34.679</ele>
        <time>2019-09-17T09:57:45.001Z</time>
      </trkpt>
      <trkpt lat="50.53752" lon="2.57296">
        <ele>35.022</ele>
        <time>2019-09-17T09:57:48.001Z</time>
      </trkpt>
      <trkpt lat="50.53755" lon="2.57314">
        <ele>35.501</ele>
        <time>2019-09-17T09:57:51.001Z</time>
      </trkpt>
      <trkpt lat="50.53756" lon="2.57331">
        <ele>36.25</ele>
        <time>2019-09-17T09:57:54.001Z</time>
      </trkpt>
      <trkpt lat="50.53757" lon="2.5735">
        <ele>37.067</ele>
        <time>2019-09-17T09:57:57.001Z</time>
      </trkpt>
      <trkpt lat="50.53755" lon="2.57371">
        <ele>37.454</ele>
        <time>2019-09-17T09:58:00.000Z</time>
      </trkpt>
      <trkpt lat="50.53754" lon="2.5739">
        <ele>37.967</ele>
        <time>2019-09-17T09:58:03.001Z</time>
      </trkpt>
      <trkpt lat="50.53754" lon="2.57408">
        <ele>38.33</ele>
        <time>2019-09-17T09:58:06.001Z</time>
      </trkpt>
      <trkpt lat="50.53754" lon="2.57425">
        <ele>38.835</ele>
        <time>2019-09-17T09:58:09.001Z</time>
      </trkpt>
      <trkpt lat="50.53758" lon="2.57439">
        <ele>37.417</ele>
        <time>2019-09-17T09:58:12.001Z</time>
      </trkpt>
      <trkpt lat="50.53762" lon="2.57456">
        <ele>36.583</ele>
        <time>2019-09-17T09:58:15.001Z</time>
      </trkpt>
      <trkpt lat="50.53762" lon="2.57472">
        <ele>36.437</ele>
        <time>2019-09-17T09:58:18.001Z</time>
      </trkpt>
      <trkpt lat="50.53761" lon="2.57487">
        <ele>36.322</ele>
        <time>2019-09-17T09:58:21.001Z</time>
      </trkpt>
      <trkpt lat="50.5376" lon="2.57501">
        <ele>36.857</ele>
        <time>2019-09-17T09:58:24.001Z</time>
      </trkpt>
      <trkpt lat="50.5376" lon="2.57515">
        <ele>36.533</ele>
        <time>2019-09-17T09:58:27.001Z</time>
      </trkpt>
      <trkpt lat="50.53759" lon="2.5753">
        <ele>35.884</ele>
        <time>2019-09-17T09:58:30.001Z</time>
      </trkpt>
      <trkpt lat="50.53759" lon="2.57543">
        <ele>35.641</ele>
        <time>2019-09-17T09:58:33.001Z</time>
      </trkpt>
      <trkpt lat="50.53759" lon="2.57554">
        <ele>35.906</ele>
        <time>2019-09-17T09:58:36.001Z</time>
      </trkpt>
      <trkpt lat="50.53759" lon="2.57566">
        <ele>36.45</ele>
        <time>2019-09-17T09:58:39.001Z</time>
      </trkpt>
      <trkpt lat="50.53759" lon="2.57577">
        <ele>36.764</ele>
        <time>2019-09-17T09:58:42.001Z</time>
      </trkpt>
      <trkpt lat="50.53758" lon="2.57586">
        <ele>37.604</ele>
        <time>2019-09-17T09:58:45.001Z</time>
      </trkpt>
      <trkpt lat="50.53758" lon="2.57594">
        <ele>38.498</ele>
        <time>2019-09-17T09:58:48.001Z</time>
      </trkpt>
      <trkpt lat="50.5376" lon="2.57603">
        <ele>39.798</ele>
        <time>2019-09-17T09:58:51.001Z</time>
      </trkpt>
      <trkpt lat="50.53759" lon="2.57617">
        <ele>40.69</ele>
        <time>2019-09-17T09:58:54.001Z</time>
      </trkpt>
      <trkpt lat="50.53758" lon="2.57633">
        <ele>40.923</ele>
        <time>2019-09-17T09:58:57.001Z</time>
      </trkpt>
      <trkpt lat="50.53758" lon="2.57648">
        <ele>41.668</ele>
        <time>2019-09-17T09:59:00.000Z</time>
      </trkpt>
      <trkpt lat="50.53758" lon="2.5766">
        <ele>42.273</ele>
        <time>2019-09-17T09:59:03.001Z</time>
      </trkpt>
      <trkpt lat="50.53758" lon="2.57674">
        <ele>42.732</ele>
        <time>2019-09-17T09:59:06.001Z</time>
      </trkpt>
      <trkpt lat="50.53759" lon="2.57687">
        <ele>43.199</ele>
        <time>2019-09-17T09:59:09.001Z</time>
      </trkpt>
      <trkpt lat="50.53759" lon="2.57701">
        <ele>43.053</ele>
        <time>2019-09-17T09:59:12.001Z</time>
      </trkpt>
      <trkpt lat="50.53758" lon="2.57716">
        <ele>42.167</ele>
        <time>2019-09-17T09:59:15.001Z</time>
      </trkpt>
      <trkpt lat="50.53758" lon="2.57731">
        <ele>41.516</ele>
        <time>2019-09-17T09:59:18.001Z</time>
      </trkpt>
      <trkpt lat="50.53759" lon="2.57746">
        <ele>41.633</ele>
        <time>2019-09-17T09:59:21.001Z</time>
      </trkpt>
      <trkpt lat="50.53759" lon="2.57758">
        <ele>41.954</ele>
        <time>2019-09-17T09:59:24.001Z</time>
      </trkpt>
      <trkpt lat="50.53759" lon="2.57772">
        <ele>42.101</ele>
        <time>2019-09-17T09:59:27.001Z</time>
      </trkpt>
      <trkpt lat="50.53759" lon="2.57785">
        <ele>41.605</ele>
        <time>2019-09-17T09:59:30.001Z</time>
      </trkpt>
      <trkpt lat="50.53759" lon="2.57799">
        <ele>41.341</ele>
        <time>2019-09-17T09:59:33.001Z</time>
      </trkpt>
      <trkpt lat="50.5376" lon="2.57811">
        <ele>41.227</ele>
        <time>2019-09-17T09:59:36.001Z</time>
      </trkpt>
      <trkpt lat="50.5376" lon="2.57822">
        <ele>41.296</ele>
        <time>2019-09-17T09:59:39.001Z</time>
      </trkpt>
      <trkpt lat="50.5376" lon="2.57833">
        <ele>41.777</ele>
        <time>2019-09-17T09:59:42.001Z</time>
      </trkpt>
      <trkpt lat="50.5376" lon="2.57844">
        <ele>42.174</ele>
        <time>2019-09-17T09:59:45.001Z</time>
      </trkpt>
      <trkpt lat="50.5376" lon="2.57855">
        <ele>42.721</ele>
        <time>2019-09-17T09:59:48.001Z</time>
      </trkpt>
      <trkpt lat="50.5376" lon="2.57866">
        <ele>43.238</ele>
        <time>2019-09-17T09:59:51.001Z</time>
      </trkpt>
      <trkpt lat="50.5376" lon="2.57877">
        <ele>43.949</ele>
        <time>2019-09-17T09:59:54.001Z</time>
      </trkpt>
      <trkpt lat="50.5376" lon="2.57888">
        <ele>44.228</ele>
        <time>2019-09-17T09:59:57.001Z</time>
      </trkpt>
      <trkpt lat="50.5376" lon="2.579">
        <ele>44.677</ele>
        <time>2019-09-17T10:00:00.000Z</time>
      </trkpt>
      <trkpt lat="50.5376" lon="2.57913">
        <ele>45.09</ele>
        <time>2019-09-17T10:00:03.001Z</time>
      </trkpt>
      <trkpt lat="50.5376" lon="2.57924">
        <ele>46.169</ele>
        <time>2019-09-17T10:00:06.001Z</time>
      </trkpt>
      <trkpt lat="50.5376" lon="2.57936">
        <ele>48.262</ele>
        <time>2019-09-17T10:00:09.001Z</time>
      </trkpt>
      <trkpt lat="50.5376" lon="2.57948">
        <ele>49.532</ele>
        <time>2019-09-17T10:00:12.001Z</time>
      </trkpt>
      <trkpt lat="50.5376" lon="2.57961">
        <ele>50.794</ele>
        <time>2019-09-17T10:00:15.001Z</time>
      </trkpt>
      <trkpt lat="50.5376" lon="2.57973">
        <ele>52.261</ele>
        <time>2019-09-17T10:00:18.001Z</time>
      </trkpt>
      <trkpt lat="50.53759" lon="2.57986">
        <ele>54.616</ele>
        <time>2019-09-17T10:00:21.001Z</time>
      </trkpt>
      <trkpt lat="50.53758" lon="2.57998">
        <ele>57.312</ele>
        <time>2019-09-17T10:00:24.001Z</time>
      </trkpt>
      <trkpt lat="50.53757" lon="2.5801">
        <ele>59.553</ele>
        <time>2019-09-17T10:00:27.001Z</time>
      </trkpt>
      <trkpt lat="50.53757" lon="2.58023">
        <ele>60.611</ele>
        <time>2019-09-17T10:00:30.001Z</time>
      </trkpt>
      <trkpt lat="50.53758" lon="2.58035">
        <ele>61.389</ele>
        <time>2019-09-17T10:00:33.001Z</time>
      </trkpt>
      <trkpt lat="50.53759" lon="2.58046">
        <ele>62.654</ele>
        <time>2019-09-17T10:00:36.001Z</time>
      </trkpt>
      <trkpt lat="50.5376" lon="2.58058">
        <ele>63.624</ele>
        <time>2019-09-17T10:00:39.001Z</time>
      </trkpt>
      <trkpt lat="50.53762" lon="2.5807">
        <ele>64.339</ele>
        <time>2019-09-17T10:00:42.001Z</time>
      </trkpt>
      <trkpt lat="50.53764" lon="2.58083">
        <ele>65.022</ele>
        <time>2019-09-17T10:00:45.001Z</time>
      </trkpt>
      <trkpt lat="50.53767" lon="2.58098">
        <ele>65.483</ele>
        <time>2019-09-17T10:00:48.001Z</time>
      </trkpt>
      <trkpt lat="50.53771" lon="2.58112">
        <ele>65.952</ele>
        <time>2019-09-17T10:00:51.001Z</time>
      </trkpt>
      <trkpt lat="50.53774" lon="2.58127">
        <ele>66.005</ele>
        <time>2019-09-17T10:00:54.001Z</time>
      </trkpt>
      <trkpt lat="50.53777" lon="2.58143">
        <ele>65.938</ele>
        <time>2019-09-17T10:00:57.001Z</time>
      </trkpt>
      <trkpt lat="50.5378" lon="2.5816">
        <ele>64.59</ele>
        <time>2019-09-17T10:01:00.000Z</time>
      </trkpt>
      <trkpt lat="50.53785" lon="2.58176">
        <ele>63.521</ele>
        <time>2019-09-17T10:01:03.001Z</time>
      </trkpt>
      <trkpt lat="50.53788" lon="2.58191">
        <ele>62.565</ele>
        <time>2019-09-17T10:01:06.001Z</time>
      </trkpt>
      <trkpt lat="50.53792" lon="2.58205">
        <ele>61.233</ele>
        <time>2019-09-17T10:01:09.001Z</time>
      </trkpt>
      <trkpt lat="50.53795" lon="2.58222">
        <ele>58.89</ele>
        <time>2019-09-17T10:01:12.001Z</time>
      </trkpt>
      <trkpt lat="50.53797" lon="2.58237">
        <ele>57.015</ele>
        <time>2019-09-17T10:01:15.001Z</time>
      </trkpt>
      <trkpt lat="50.53799" lon="2.58252">
        <ele>55.316</ele>
        <time>2019-09-17T10:01:18.001Z</time>
      </trkpt>
      <trkpt lat="50.538" lon="2.58267">
        <ele>53.659</ele>
        <time>2019-09-17T10:01:21.001Z</time>
      </trkpt>
      <trkpt lat="50.538" lon="2.58282">
        <ele>52.508</ele>
        <time>2019-09-17T10:01:24.001Z</time>
      </trkpt>
      <trkpt lat="50.538" lon="2.58295">
        <ele>53.143</ele>
        <time>2019-09-17T10:01:27.001Z</time>
      </trkpt>
      <trkpt lat="50.53801" lon="2.58308">
        <ele>52.799</ele>
        <time>2019-09-17T10:01:30.001Z</time>
      </trkpt>
      <trkpt lat="50.53803" lon="2.58322">
        <ele>52.483</ele>
        <time>2019-09-17T10:01:33.001Z</time>
      </trkpt>
      <trkpt lat="50.53806" lon="2.58339">
        <ele>51.969</ele>
        <time>2019-09-17T10:01:36.001Z</time>
      </trkpt>
      <trkpt lat="50.53808" lon="2.58355">
        <ele>51.81</ele>
        <time>2019-09-17T10:01:39.001Z</time>
      </trkpt>
      <trkpt lat="50.53811" lon="2.58371">
        <ele>51.678</ele>
        <time>2019-09-17T10:01:42.001Z</time>
      </trkpt>
      <trkpt lat="50.53813" lon="2.58387">
        <ele>51.45</ele>
        <time>2019-09-17T10:01:45.001Z</time>
      </trkpt>
      <trkpt lat="50.53814" lon="2.58402">
        <ele>50.847</ele>
        <time>2019-09-17T10:01:48.001Z</time>
      </trkpt>
      <trkpt lat="50.53816" lon="2.58417">
        <ele>49.824</ele>
        <time>2019-09-17T10:01:51.001Z</time>
      </trkpt>
      <trkpt lat="50.53817" lon="2.58433">
        <ele>49.327</ele>
        <time>2019-09-17T10:01:54.001Z</time>
      </trkpt>
      <trkpt lat="50.53818" lon="2.5845">
        <ele>49.727</ele>
        <time>2019-09-17T10:01:57.001Z</time>
      </trkpt>
      <trkpt lat="50.53819" lon="2.58468">
        <ele>50.611</ele>
        <time>2019-09-17T10:02:00.000Z</time>
      </trkpt>
      <trkpt lat="50.53821" lon="2.58484">
        <ele>51.125</ele>
        <time>2019-09-17T10:02:03.001Z</time>
      </trkpt>
      <trkpt lat="50.53823" lon="2.58498">
        <ele>51.29</ele>
        <time>2019-09-17T10:02:06.001Z</time>
      </trkpt>
      <trkpt lat="50.53825" lon="2.58515">
        <ele>50.738</ele>
        <time>2019-09-17T10:02:09.001Z</time>
      </trkpt>
      <trkpt lat="50.53828" lon="2.58531">
        <ele>50.43</ele>
        <time>2019-09-17T10:02:12.001Z</time>
      </trkpt>
      <trkpt lat="50.53832" lon="2.5855">
        <ele>50.395</ele>
        <time>2019-09-17T10:02:15.001Z</time>
      </trkpt>
      <trkpt lat="50.53834" lon="2.5857">
        <ele>50.168</ele>
        <time>2019-09-17T10:02:18.001Z</time>
      </trkpt>
      <trkpt lat="50.53837" lon="2.5859">
        <ele>50.033</ele>
        <time>2019-09-17T10:02:21.001Z</time>
      </trkpt>
      <trkpt lat="50.53839" lon="2.58609">
        <ele>49.741</ele>
        <time>2019-09-17T10:02:24.001Z</time>
      </trkpt>
      <trkpt lat="50.53841" lon="2.58628">
        <ele>50.041</ele>
        <time>2019-09-17T10:02:27.001Z</time>
      </trkpt>
      <trkpt lat="50.53845" lon="2.58647">
        <ele>49.717</ele>
        <time>2019-09-17T10:02:30.001Z</time>
      </trkpt>
      <trkpt lat="50.53848" lon="2.58668">
        <ele>50.043</ele>
        <time>2019-09-17T10:02:33.001Z</time>
      </trkpt>
      <trkpt lat="50.53851" lon="2.58688">
        <ele>48.987</ele>
        <time>2019-09-17T10:02:36.001Z</time>
      </trkpt>
      <trkpt lat="50.53853" lon="2.5871">
        <ele>48.374</ele>
        <time>2019-09-17T10:02:39.001Z</time>
      </trkpt>
      <trkpt lat="50.53856" lon="2.58731">
        <ele>47.776</ele>
        <time>2019-09-17T10:02:42.001Z</time>
      </trkpt>
      <trkpt lat="50.53858" lon="2.58752">
        <ele>47.248</ele>
        <time>2019-09-17T10:02:45.001Z</time>
      </trkpt>
      <trkpt lat="50.53858" lon="2.58773">
        <ele>46.658</ele>
        <time>2019-09-17T10:02:48.001Z</time>
      </trkpt>
      <trkpt lat="50.53858" lon="2.58795">
        <ele>46.105</ele>
        <time>2019-09-17T10:02:51.001Z</time>
      </trkpt>
      <trkpt lat="50.53858" lon="2.58815">
        <ele>45.791</ele>
        <time>2019-09-17T10:02:54.001Z</time>
      </trkpt>
      <trkpt lat="50.53858" lon="2.58835">
        <ele>45.472</ele>
        <time>2019-09-17T10:02:57.001Z</time>
      </trkpt>
      <trkpt lat="50.53857" lon="2.58853">
        <ele>45.184</ele>
        <time>2019-09-17T10:03:00.000Z</time>
      </trkpt>
      <trkpt lat="50.53859" lon="2.58872">
        <ele>44.921</ele>
        <time>2019-09-17T10:03:03.001Z</time>
      </trkpt>
      <trkpt lat="50.53861" lon="2.5889">
        <ele>44.704</ele>
        <time>2019-09-17T10:03:06.001Z</time>
      </trkpt>
      <trkpt lat="50.53863" lon="2.58907">
        <ele>44.776</ele>
        <time>2019-09-17T10:03:09.001Z</time>
      </trkpt>
      <trkpt lat="50.53866" lon="2.58925">
        <ele>45.845</ele>
        <time>2019-09-17T10:03:12.001Z</time>
      </trkpt>
      <trkpt lat="50.53875" lon="2.58935">
        <ele>45.697</ele>
        <time>2019-09-17T10:03:15.001Z</time>
      </trkpt>
      <trkpt lat="50.53886" lon="2.58935">
        <ele>45.479</ele>
        <time>2019-09-17T10:03:18.001Z</time>
      </trkpt>
      <trkpt lat="50.53895" lon="2.5894">
        <ele>44.742</ele>
        <time>2019-09-17T10:03:21.001Z</time>
      </trkpt>
      <trkpt lat="50.53899" lon="2.58956">
        <ele>44.453</ele>
        <time>2019-09-17T10:03:24.001Z</time>
      </trkpt>
      <trkpt lat="50.53902" lon="2.58975">
        <ele>44.709</ele>
        <time>2019-09-17T10:03:27.001Z</time>
      </trkpt>
      <trkpt lat="50.53904" lon="2.58996">
        <ele>45.052</ele>
        <time>2019-09-17T10:03:30.001Z</time>
      </trkpt>
      <trkpt lat="50.53903" lon="2.59016">
        <ele>45.763</ele>
        <time>2019-09-17T10:03:33.001Z</time>
      </trkpt>
      <trkpt lat="50.539" lon="2.59031">
        <ele>46.695</ele>
        <time>2019-09-17T10:03:36.001Z</time>
      </trkpt>
      <trkpt lat="50.53898" lon="2.59045">
        <ele>47.275</ele>
        <time>2019-09-17T10:03:39.001Z</time>
      </trkpt>
      <trkpt lat="50.53891" lon="2.59053">
        <ele>46.992</ele>
        <time>2019-09-17T10:03:42.001Z</time>
      </trkpt>
      <trkpt lat="50.53879" lon="2.59057">
        <ele>46.922</ele>
        <time>2019-09-17T10:03:45.001Z</time>
      </trkpt>
      <trkpt lat="50.53869" lon="2.5906">
        <ele>47.471</ele>
        <time>2019-09-17T10:03:48.001Z</time>
      </trkpt>
      <trkpt lat="50.53863" lon="2.59075">
        <ele>47.955</ele>
        <time>2019-09-17T10:03:51.001Z</time>
      </trkpt>
      <trkpt lat="50.53858" lon="2.59095">
        <ele>48.08</ele>
        <time>2019-09-17T10:03:54.001Z</time>
      </trkpt>
      <trkpt lat="50.53853" lon="2.59115">
        <ele>48.157</ele>
        <time>2019-09-17T10:03:57.001Z</time>
      </trkpt>
      <trkpt lat="50.5385" lon="2.59136">
        <ele>48.335</ele>
        <time>2019-09-17T10:04:00.000Z</time>
      </trkpt>
      <trkpt lat="50.53847" lon="2.59157">
        <ele>48.737</ele>
        <time>2019-09-17T10:04:03.001Z</time>
      </trkpt>
      <trkpt lat="50.53844" lon="2.59178">
        <ele>48.245</ele>
        <time>2019-09-17T10:04:06.001Z</time>
      </trkpt>
      <trkpt lat="50.53842" lon="2.59198">
        <ele>47.308</ele>
        <time>2019-09-17T10:04:09.001Z</time>
      </trkpt>
      <trkpt lat="50.53843" lon="2.59212">
        <ele>46.838</ele>
        <time>2019-09-17T10:04:12.001Z</time>
      </trkpt>
      <trkpt lat="50.53842" lon="2.59214">
        <ele>46.411</ele>
        <time>2019-09-17T10:04:15.001Z</time>
      </trkpt>
      <trkpt lat="50.53843" lon="2.59212">
        <ele>46.383</ele>
        <time>2019-09-17T10:04:30.001Z</time>
      </trkpt>
      <trkpt lat="50.53842" lon="2.59213">
        <ele>46.213</ele>
        <time>2019-09-17T10:04:33.001Z</time>
      </trkpt>
      <trkpt lat="50.53843" lon="2.59212">
        <ele>46.383</ele>
        <time>2019-09-17T10:04:36.001Z</time>
      </trkpt>
      <trkpt lat="50.53843" lon="2.59212">
        <ele>46.893</ele>
        <time>2019-09-17T10:05:03.001Z</time>
      </trkpt>
      <trkpt lat="50.53843" lon="2.59207">
        <ele>46.427</ele>
        <time>2019-09-17T10:05:06.001Z</time>
      </trkpt>
      <trkpt lat="50.53843" lon="2.59198">
        <ele>45.581</ele>
        <time>2019-09-17T10:05:09.001Z</time>
      </trkpt>
      <trkpt lat="50.53844" lon="2.59187">
        <ele>45.517</ele>
        <time>2019-09-17T10:05:12.001Z</time>
      </trkpt>
      <trkpt lat="50.53845" lon="2.59173">
        <ele>45.279</ele>
        <time>2019-09-17T10:05:15.001Z</time>
      </trkpt>
      <trkpt lat="50.53847" lon="2.59156">
        <ele>45.358</ele>
        <time>2019-09-17T10:05:18.001Z</time>
      </trkpt>
      <trkpt lat="50.53849" lon="2.59139">
        <ele>45.612</ele>
        <time>2019-09-17T10:05:21.001Z</time>
      </trkpt>
      <trkpt lat="50.53851" lon="2.59123">
        <ele>45.64</ele>
        <time>2019-09-17T10:05:24.001Z</time>
      </trkpt>
      <trkpt lat="50.53853" lon="2.59107">
        <ele>45.75</ele>
        <time>2019-09-17T10:05:27.001Z</time>
      </trkpt>
      <trkpt lat="50.53857" lon="2.59091">
        <ele>45.398</ele>
        <time>2019-09-17T10:05:30.001Z</time>
      </trkpt>
      <trkpt lat="50.53861" lon="2.59077">
        <ele>45.181</ele>
        <time>2019-09-17T10:05:33.001Z</time>
      </trkpt>
      <trkpt lat="50.53865" lon="2.59065">
        <ele>45.323</ele>
        <time>2019-09-17T10:05:36.001Z</time>
      </trkpt>
      <trkpt lat="50.53871" lon="2.59057">
        <ele>45.269</ele>
        <time>2019-09-17T10:05:39.001Z</time>
      </trkpt>
      <trkpt lat="50.53879" lon="2.59055">
        <ele>45.701</ele>
        <time>2019-09-17T10:05:42.001Z</time>
      </trkpt>
      <trkpt lat="50.53891" lon="2.59063">
        <ele>45.757</ele>
        <time>2019-09-17T10:05:45.001Z</time>
      </trkpt>
      <trkpt lat="50.53899" lon="2.59082">
        <ele>46.076</ele>
        <time>2019-09-17T10:05:48.001Z</time>
      </trkpt>
      <trkpt lat="50.53903" lon="2.59104">
        <ele>45.89</ele>
        <time>2019-09-17T10:05:51.001Z</time>
      </trkpt>
      <trkpt lat="50.53902" lon="2.59127">
        <ele>45.671</ele>
        <time>2019-09-17T10:05:54.001Z</time>
      </trkpt>
      <trkpt lat="50.53898" lon="2.59151">
        <ele>45.511</ele>
        <time>2019-09-17T10:05:57.001Z</time>
      </trkpt>
      <trkpt lat="50.53893" lon="2.59175">
        <ele>44.58</ele>
        <time>2019-09-17T10:06:00.000Z</time>
      </trkpt>
      <trkpt lat="50.53889" lon="2.592">
        <ele>43.785</ele>
        <time>2019-09-17T10:06:03.001Z</time>
      </trkpt>
      <trkpt lat="50.53888" lon="2.59227">
        <ele>43.391</ele>
        <time>2019-09-17T10:06:06.001Z</time>
      </trkpt>
      <trkpt lat="50.53891" lon="2.59255">
        <ele>42.827</ele>
        <time>2019-09-17T10:06:09.001Z</time>
      </trkpt>
      <trkpt lat="50.53893" lon="2.59283">
        <ele>42.488</ele>
        <time>2019-09-17T10:06:12.001Z</time>
      </trkpt>
      <trkpt lat="50.53894" lon="2.59312">
        <ele>42.095</ele>
        <time>2019-09-17T10:06:15.001Z</time>
      </trkpt>
      <trkpt lat="50.53897" lon="2.59342">
        <ele>41.477</ele>
        <time>2019-09-17T10:06:18.001Z</time>
      </trkpt>
      <trkpt lat="50.53899" lon="2.59371">
        <ele>40.745</ele>
        <time>2019-09-17T10:06:21.001Z</time>
      </trkpt>
      <trkpt lat="50.53903" lon="2.59401">
        <ele>40.124</ele>
        <time>2019-09-17T10:06:24.001Z</time>
      </trkpt>
      <trkpt lat="50.53907" lon="2.59432">
        <ele>39.66</ele>
        <time>2019-09-17T10:06:27.001Z</time>
      </trkpt>
      <trkpt lat="50.53911" lon="2.59463">
        <ele>39.233</ele>
        <time>2019-09-17T10:06:30.001Z</time>
      </trkpt>
      <trkpt lat="50.53914" lon="2.59494">
        <ele>39.097</ele>
        <time>2019-09-17T10:06:33.001Z</time>
      </trkpt>
      <trkpt lat="50.53919" lon="2.59526">
        <ele>38.724</ele>
        <time>2019-09-17T10:06:36.001Z</time>
      </trkpt>
      <trkpt lat="50.53925" lon="2.59558">
        <ele>38.32</ele>
        <time>2019-09-17T10:06:39.001Z</time>
      </trkpt>
      <trkpt lat="50.5393" lon="2.59591">
        <ele>37.6</ele>
        <time>2019-09-17T10:06:42.001Z</time>
      </trkpt>
      <trkpt lat="50.53936" lon="2.59624">
        <ele>37.467</ele>
        <time>2019-09-17T10:06:45.001Z</time>
      </trkpt>
      <trkpt lat="50.53939" lon="2.59656">
        <ele>38.515</ele>
        <time>2019-09-17T10:06:48.001Z</time>
      </trkpt>
      <trkpt lat="50.53944" lon="2.59685">
        <ele>39.14</ele>
        <time>2019-09-17T10:06:51.001Z</time>
      </trkpt>
      <trkpt lat="50.53951" lon="2.59716">
        <ele>39.8</ele>
        <time>2019-09-17T10:06:54.001Z</time>
      </trkpt>
      <trkpt lat="50.53957" lon="2.59745">
        <ele>40.129</ele>
        <time>2019-09-17T10:06:57.001Z</time>
      </trkpt>
      <trkpt lat="50.53962" lon="2.59773">
        <ele>40.663</ele>
        <time>2019-09-17T10:07:00.000Z</time>
      </trkpt>
      <trkpt lat="50.53966" lon="2.59803">
        <ele>40.681</ele>
        <time>2019-09-17T10:07:03.001Z</time>
      </trkpt>
      <trkpt lat="50.53971" lon="2.59832">
        <ele>40.656</ele>
        <time>2019-09-17T10:07:06.001Z</time>
      </trkpt>
      <trkpt lat="50.53972" lon="2.59863">
        <ele>40.296</ele>
        <time>2019-09-17T10:07:09.001Z</time>
      </trkpt>
      <trkpt lat="50.53976" lon="2.59896">
        <ele>39.892</ele>
        <time>2019-09-17T10:07:12.001Z</time>
      </trkpt>
      <trkpt lat="50.53976" lon="2.59929">
        <ele>39.74</ele>
        <time>2019-09-17T10:07:15.001Z</time>
      </trkpt>
      <trkpt lat="50.53978" lon="2.59961">
        <ele>39.736</ele>
        <time>2019-09-17T10:07:18.001Z</time>
      </trkpt>
      <trkpt lat="50.53981" lon="2.59993">
        <ele>39.722</ele>
        <time>2019-09-17T10:07:21.001Z</time>
      </trkpt>
      <trkpt lat="50.53984" lon="2.60027">
        <ele>40.267</ele>
        <time>2019-09-17T10:07:24.001Z</time>
      </trkpt>
      <trkpt lat="50.53985" lon="2.6006">
        <ele>40.378</ele>
        <time>2019-09-17T10:07:27.001Z</time>
      </trkpt>
      <trkpt lat="50.53984" lon="2.60094">
        <ele>40.624</ele>
        <time>2019-09-17T10:07:30.001Z</time>
      </trkpt>
      <trkpt lat="50.53982" lon="2.60127">
        <ele>41.831</ele>
        <time>2019-09-17T10:07:33.001Z</time>
      </trkpt>
      <trkpt lat="50.53979" lon="2.60161">
        <ele>42.581</ele>
        <time>2019-09-17T10:07:36.001Z</time>
      </trkpt>
      <trkpt lat="50.53978" lon="2.60193">
        <ele>42.744</ele>
        <time>2019-09-17T10:07:39.001Z</time>
      </trkpt>
      <trkpt lat="50.53978" lon="2.60222">
        <ele>42.452</ele>
        <time>2019-09-17T10:07:42.001Z</time>
      </trkpt>
      <trkpt lat="50.53977" lon="2.60249">
        <ele>42.04</ele>
        <time>2019-09-17T10:07:45.001Z</time>
      </trkpt>
      <trkpt lat="50.53976" lon="2.60276">
        <ele>42.097</ele>
        <time>2019-09-17T10:07:48.001Z</time>
      </trkpt>
      <trkpt lat="50.53977" lon="2.60301">
        <ele>42.045</ele>
        <time>2019-09-17T10:07:51.001Z</time>
      </trkpt>
      <trkpt lat="50.53976" lon="2.60324">
        <ele>41.977</ele>
        <time>2019-09-17T10:07:54.001Z</time>
      </trkpt>
      <trkpt lat="50.53977" lon="2.60344">
        <ele>41.692</ele>
        <time>2019-09-17T10:07:57.001Z</time>
      </trkpt>
      <trkpt lat="50.53979" lon="2.60365">
        <ele>41.623</ele>
        <time>2019-09-17T10:08:00.000Z</time>
      </trkpt>
      <trkpt lat="50.53982" lon="2.60386">
        <ele>40.749</ele>
        <time>2019-09-17T10:08:03.001Z</time>
      </trkpt>
      <trkpt lat="50.53986" lon="2.60404">
        <ele>40.758</ele>
        <time>2019-09-17T10:08:06.001Z</time>
      </trkpt>
      <trkpt lat="50.5399" lon="2.60423">
        <ele>41.745</ele>
        <time>2019-09-17T10:08:09.001Z</time>
      </trkpt>
      <trkpt lat="50.53994" lon="2.60446">
        <ele>41.73</ele>
        <time>2019-09-17T10:08:12.001Z</time>
      </trkpt>
      <trkpt lat="50.53998" lon="2.6047">
        <ele>41.794</ele>
        <time>2019-09-17T10:08:15.001Z</time>
      </trkpt>
      <trkpt lat="50.54003" lon="2.60494">
        <ele>41.62</ele>
        <time>2019-09-17T10:08:18.001Z</time>
      </trkpt>
      <trkpt lat="50.54008" lon="2.60518">
        <ele>41.225</ele>
        <time>2019-09-17T10:08:21.001Z</time>
      </trkpt>
      <trkpt lat="50.54012" lon="2.60542">
        <ele>40.776</ele>
        <time>2019-09-17T10:08:24.001Z</time>
      </trkpt>
      <trkpt lat="50.54016" lon="2.60565">
        <ele>40.266</ele>
        <time>2019-09-17T10:08:27.001Z</time>
      </trkpt>
      <trkpt lat="50.54019" lon="2.60589">
        <ele>40.267</ele>
        <time>2019-09-17T10:08:30.001Z</time>
      </trkpt>
      <trkpt lat="50.54021" lon="2.60611">
        <ele>40.1</ele>
        <time>2019-09-17T10:08:33.001Z</time>
      </trkpt>
      <trkpt lat="50.54022" lon="2.60635">
        <ele>39.607</ele>
        <time>2019-09-17T10:08:36.001Z</time>
      </trkpt>
      <trkpt lat="50.54022" lon="2.60659">
        <ele>39.67</ele>
        <time>2019-09-17T10:08:39.001Z</time>
      </trkpt>
      <trkpt lat="50.54024" lon="2.60683">
        <ele>40.226</ele>
        <time>2019-09-17T10:08:42.001Z</time>
      </trkpt>
      <trkpt lat="50.54026" lon="2.60708">
        <ele>40.656</ele>
        <time>2019-09-17T10:08:45.001Z</time>
      </trkpt>
      <trkpt lat="50.54027" lon="2.60732">
        <ele>41.51</ele>
        <time>2019-09-17T10:08:48.001Z</time>
      </trkpt>
      <trkpt lat="50.54029" lon="2.60757">
        <ele>41.559</ele>
        <time>2019-09-17T10:08:51.001Z</time>
      </trkpt>
      <trkpt lat="50.54031" lon="2.6078">
        <ele>41.494</ele>
        <time>2019-09-17T10:08:54.001Z</time>
      </trkpt>
      <trkpt lat="50.54033" lon="2.60804">
        <ele>41.469</ele>
        <time>2019-09-17T10:08:57.001Z</time>
      </trkpt>
      <trkpt lat="50.54034" lon="2.60827">
        <ele>41.487</ele>
        <time>2019-09-17T10:09:00.000Z</time>
      </trkpt>
      <trkpt lat="50.54036" lon="2.60849">
        <ele>41.625</ele>
        <time>2019-09-17T10:09:03.001Z</time>
      </trkpt>
      <trkpt lat="50.54037" lon="2.60871">
        <ele>41.889</ele>
        <time>2019-09-17T10:09:06.001Z</time>
      </trkpt>
      <trkpt lat="50.54039" lon="2.60892">
        <ele>41.962</ele>
        <time>2019-09-17T10:09:09.001Z</time>
      </trkpt>
      <trkpt lat="50.54039" lon="2.60913">
        <ele>42.225</ele>
        <time>2019-09-17T10:09:12.001Z</time>
      </trkpt>
      <trkpt lat="50.54038" lon="2.60934">
        <ele>42.003</ele>
        <time>2019-09-17T10:09:15.001Z</time>
      </trkpt>
      <trkpt lat="50.54036" lon="2.60955">
        <ele>41.815</ele>
        <time>2019-09-17T10:09:18.001Z</time>
      </trkpt>
      <trkpt lat="50.54033" lon="2.60978">
        <ele>41.585</ele>
        <time>2019-09-17T10:09:21.001Z</time>
      </trkpt>
      <trkpt lat="50.54032" lon="2.61001">
        <ele>41.98</ele>
        <time>2019-09-17T10:09:24.001Z</time>
      </trkpt>
      <trkpt lat="50.5403" lon="2.61024">
        <ele>41.746</ele>
        <time>2019-09-17T10:09:27.001Z</time>
      </trkpt>
      <trkpt lat="50.54029" lon="2.61047">
        <ele>41.993</ele>
        <time>2019-09-17T10:09:30.001Z</time>
      </trkpt>
      <trkpt lat="50.54028" lon="2.61068">
        <ele>42.219</ele>
        <time>2019-09-17T10:09:33.001Z</time>
      </trkpt>
      <trkpt lat="50.54027" lon="2.6109">
        <ele>42.707</ele>
        <time>2019-09-17T10:09:36.001Z</time>
      </trkpt>
      <trkpt lat="50.54027" lon="2.61111">
        <ele>43.013</ele>
        <time>2019-09-17T10:09:39.001Z</time>
      </trkpt>
      <trkpt lat="50.54028" lon="2.61134">
        <ele>43.045</ele>
        <time>2019-09-17T10:09:42.001Z</time>
      </trkpt>
      <trkpt lat="50.54031" lon="2.61159">
        <ele>43.106</ele>
        <time>2019-09-17T10:09:45.001Z</time>
      </trkpt>
      <trkpt lat="50.54033" lon="2.61183">
        <ele>43.368</ele>
        <time>2019-09-17T10:09:48.001Z</time>
      </trkpt>
      <trkpt lat="50.54035" lon="2.61206">
        <ele>43.785</ele>
        <time>2019-09-17T10:09:51.001Z</time>
      </trkpt>
      <trkpt lat="50.54037" lon="2.61227">
        <ele>43.987</ele>
        <time>2019-09-17T10:09:54.001Z</time>
      </trkpt>
      <trkpt lat="50.54043" lon="2.61252">
        <ele>43.954</ele>
        <time>2019-09-17T10:09:57.001Z</time>
      </trkpt>
      <trkpt lat="50.54045" lon="2.61282">
        <ele>43.834</ele>
        <time>2019-09-17T10:10:00.000Z</time>
      </trkpt>
      <trkpt lat="50.54049" lon="2.61309">
        <ele>44.263</ele>
        <time>2019-09-17T10:10:03.001Z</time>
      </trkpt>
      <trkpt lat="50.54053" lon="2.61336">
        <ele>44.698</ele>
        <time>2019-09-17T10:10:06.001Z</time>
      </trkpt>
      <trkpt lat="50.54055" lon="2.61362">
        <ele>45.049</ele>
        <time>2019-09-17T10:10:09.001Z</time>
      </trkpt>
      <trkpt lat="50.54053" lon="2.61385">
        <ele>45.773</ele>
        <time>2019-09-17T10:10:12.001Z</time>
      </trkpt>
      <trkpt lat="50.54051" lon="2.61408">
        <ele>45.912</ele>
        <time>2019-09-17T10:10:15.001Z</time>
      </trkpt>
      <trkpt lat="50.54046" lon="2.61432">
        <ele>46.554</ele>
        <time>2019-09-17T10:10:18.001Z</time>
      </trkpt>
      <trkpt lat="50.54041" lon="2.6146">
        <ele>46.659</ele>
        <time>2019-09-17T10:10:21.001Z</time>
      </trkpt>
      <trkpt lat="50.54037" lon="2.61487">
        <ele>46.851</ele>
        <time>2019-09-17T10:10:24.001Z</time>
      </trkpt>
      <trkpt lat="50.54032" lon="2.61515">
        <ele>45.379</ele>
        <time>2019-09-17T10:10:27.001Z</time>
      </trkpt>
      <trkpt lat="50.54028" lon="2.61542">
        <ele>44.641</ele>
        <time>2019-09-17T10:10:30.001Z</time>
      </trkpt>
      <trkpt lat="50.54023" lon="2.6157">
        <ele>43.379</ele>
        <time>2019-09-17T10:10:33.001Z</time>
      </trkpt>
      <trkpt lat="50.54017" lon="2.616">
        <ele>41.969</ele>
        <time>2019-09-17T10:10:36.001Z</time>
      </trkpt>
      <trkpt lat="50.54012" lon="2.61628">
        <ele>40.768</ele>
        <time>2019-09-17T10:10:39.001Z</time>
      </trkpt>
      <trkpt lat="50.54007" lon="2.61657">
        <ele>40.208</ele>
        <time>2019-09-17T10:10:42.001Z</time>
      </trkpt>
      <trkpt lat="50.54003" lon="2.61687">
        <ele>39.78</ele>
        <time>2019-09-17T10:10:45.001Z</time>
      </trkpt>
      <trkpt lat="50.54" lon="2.61718">
        <ele>39.23</ele>
        <time>2019-09-17T10:10:48.001Z</time>
      </trkpt>
      <trkpt lat="50.53996" lon="2.61751">
        <ele>39.67</ele>
        <time>2019-09-17T10:10:51.001Z</time>
      </trkpt>
      <trkpt lat="50.53993" lon="2.61783">
        <ele>39.58</ele>
        <time>2019-09-17T10:10:54.001Z</time>
      </trkpt>
      <trkpt lat="50.5399" lon="2.61816">
        <ele>39.992</ele>
        <time>2019-09-17T10:10:57.001Z</time>
      </trkpt>
      <trkpt lat="50.53986" lon="2.61849">
        <ele>40.135</ele>
        <time>2019-09-17T10:11:00.000Z</time>
      </trkpt>
      <trkpt lat="50.53982" lon="2.6188">
        <ele>39.603</ele>
        <time>2019-09-17T10:11:03.001Z</time>
      </trkpt>
      <trkpt lat="50.53974" lon="2.61911">
        <ele>40.302</ele>
        <time>2019-09-17T10:11:06.001Z</time>
      </trkpt>
      <trkpt lat="50.53965" lon="2.61945">
        <ele>40.43</ele>
        <time>2019-09-17T10:11:09.001Z</time>
      </trkpt>
      <trkpt lat="50.5396" lon="2.61981">
        <ele>40.352</ele>
        <time>2019-09-17T10:11:12.001Z</time>
      </trkpt>
      <trkpt lat="50.53953" lon="2.62016">
        <ele>40.336</ele>
        <time>2019-09-17T10:11:15.001Z</time>
      </trkpt>
      <trkpt lat="50.53947" lon="2.62052">
        <ele>39.992</ele>
        <time>2019-09-17T10:11:18.001Z</time>
      </trkpt>
      <trkpt lat="50.53941" lon="2.62088">
        <ele>39.89</ele>
        <time>2019-09-17T10:11:21.001Z</time>
      </trkpt>
      <trkpt lat="50.53937" lon="2.62123">
        <ele>39.713</ele>
        <time>2019-09-17T10:11:24.001Z</time>
      </trkpt>
      <trkpt lat="50.53936" lon="2.62159">
        <ele>39.478</ele>
        <time>2019-09-17T10:11:27.001Z</time>
      </trkpt>
      <trkpt lat="50.53936" lon="2.62195">
        <ele>39.157</ele>
        <time>2019-09-17T10:11:30.001Z</time>
      </trkpt>
      <trkpt lat="50.53936" lon="2.6223">
        <ele>39.112</ele>
        <time>2019-09-17T10:11:33.001Z</time>
      </trkpt>
      <trkpt lat="50.53935" lon="2.62266">
        <ele>39.582</ele>
        <time>2019-09-17T10:11:36.001Z</time>
      </trkpt>
      <trkpt lat="50.53933" lon="2.62301">
        <ele>40.206</ele>
        <time>2019-09-17T10:11:39.001Z</time>
      </trkpt>
      <trkpt lat="50.5393" lon="2.62337">
        <ele>41.23</ele>
        <time>2019-09-17T10:11:42.001Z</time>
      </trkpt>
      <trkpt lat="50.53928" lon="2.62372">
        <ele>41.097</ele>
        <time>2019-09-17T10:11:45.001Z</time>
      </trkpt>
      <trkpt lat="50.53926" lon="2.62405">
        <ele>40.486</ele>
        <time>2019-09-17T10:11:48.001Z</time>
      </trkpt>
      <trkpt lat="50.53926" lon="2.62438">
        <ele>40.004</ele>
        <time>2019-09-17T10:11:51.001Z</time>
      </trkpt>
      <trkpt lat="50.53927" lon="2.62469">
        <ele>38.842</ele>
        <time>2019-09-17T10:11:54.001Z</time>
      </trkpt>
      <trkpt lat="50.53927" lon="2.625">
        <ele>38.001</ele>
        <time>2019-09-17T10:11:57.001Z</time>
      </trkpt>
      <trkpt lat="50.53928" lon="2.62533">
        <ele>37.17</ele>
        <time>2019-09-17T10:12:00.000Z</time>
      </trkpt>
      <trkpt lat="50.53931" lon="2.62565">
        <ele>36.887</ele>
        <time>2019-09-17T10:12:03.001Z</time>
      </trkpt>
      <trkpt lat="50.53934" lon="2.62599">
        <ele>36.614</ele>
        <time>2019-09-17T10:12:06.001Z</time>
      </trkpt>
      <trkpt lat="50.53938" lon="2.6263">
        <ele>36.494</ele>
        <time>2019-09-17T10:12:09.001Z</time>
      </trkpt>
      <trkpt lat="50.53943" lon="2.6266">
        <ele>36.43</ele>
        <time>2019-09-17T10:12:12.001Z</time>
      </trkpt>
      <trkpt lat="50.53945" lon="2.6269">
        <ele>36.553</ele>
        <time>2019-09-17T10:12:15.001Z</time>
      </trkpt>
      <trkpt lat="50.53944" lon="2.62718">
        <ele>36.351</ele>
        <time>2019-09-17T10:12:18.001Z</time>
      </trkpt>
      <trkpt lat="50.53943" lon="2.62746">
        <ele>35.696</ele>
        <time>2019-09-17T10:12:21.001Z</time>
      </trkpt>
      <trkpt lat="50.53943" lon="2.62773">
        <ele>36.15</ele>
        <time>2019-09-17T10:12:24.001Z</time>
      </trkpt>
      <trkpt lat="50.5394" lon="2.62798">
        <ele>36.021</ele>
        <time>2019-09-17T10:12:27.001Z</time>
      </trkpt>
      <trkpt lat="50.53943" lon="2.62819">
        <ele>34.76</ele>
        <time>2019-09-17T10:12:30.001Z</time>
      </trkpt>
      <trkpt lat="50.53954" lon="2.62833">
        <ele>31.916</ele>
        <time>2019-09-17T10:12:33.001Z</time>
      </trkpt>
      <trkpt lat="50.53965" lon="2.62848">
        <ele>30.538</ele>
        <time>2019-09-17T10:12:36.001Z</time>
      </trkpt>
      <trkpt lat="50.53974" lon="2.62867">
        <ele>29.428</ele>
        <time>2019-09-17T10:12:39.001Z</time>
      </trkpt>
      <trkpt lat="50.53983" lon="2.62886">
        <ele>28.148</ele>
        <time>2019-09-17T10:12:42.001Z</time>
      </trkpt>
      <trkpt lat="50.53992" lon="2.62906">
        <ele>27.134</ele>
        <time>2019-09-17T10:12:45.001Z</time>
      </trkpt>
      <trkpt lat="50.54002" lon="2.62925">
        <ele>26.469</ele>
        <time>2019-09-17T10:12:48.001Z</time>
      </trkpt>
      <trkpt lat="50.54011" lon="2.62944">
        <ele>26.263</ele>
        <time>2019-09-17T10:12:51.001Z</time>
      </trkpt>
      <trkpt lat="50.54019" lon="2.62961">
        <ele>26.32</ele>
        <time>2019-09-17T10:12:54.001Z</time>
      </trkpt>
      <trkpt lat="50.54028" lon="2.62979">
        <ele>25.924</ele>
        <time>2019-09-17T10:12:57.001Z</time>
      </trkpt>
      <trkpt lat="50.54035" lon="2.62995">
        <ele>25.541</ele>
        <time>2019-09-17T10:13:00.000Z</time>
      </trkpt>
      <trkpt lat="50.54046" lon="2.63012">
        <ele>25.093</ele>
        <time>2019-09-17T10:13:03.001Z</time>
      </trkpt>
      <trkpt lat="50.54058" lon="2.6303">
        <ele>25.48</ele>
        <time>2019-09-17T10:13:06.001Z</time>
      </trkpt>
      <trkpt lat="50.54071" lon="2.63048">
        <ele>25.829</ele>
        <time>2019-09-17T10:13:09.001Z</time>
      </trkpt>
      <trkpt lat="50.54086" lon="2.6306">
        <ele>25.846</ele>
        <time>2019-09-17T10:13:12.001Z</time>
      </trkpt>
      <trkpt lat="50.54102" lon="2.63069">
        <ele>26.938</ele>
        <time>2019-09-17T10:13:15.001Z</time>
      </trkpt>
      <trkpt lat="50.54118" lon="2.63076">
        <ele>28.414</ele>
        <time>2019-09-17T10:13:18.001Z</time>
      </trkpt>
      <trkpt lat="50.54133" lon="2.63083">
        <ele>29.126</ele>
        <time>2019-09-17T10:13:21.001Z</time>
      </trkpt>
      <trkpt lat="50.54145" lon="2.63094">
        <ele>29.672</ele>
        <time>2019-09-17T10:13:24.001Z</time>
      </trkpt>
      <trkpt lat="50.54157" lon="2.63109">
        <ele>29.621</ele>
        <time>2019-09-17T10:13:27.001Z</time>
      </trkpt>
      <trkpt lat="50.54168" lon="2.63127">
        <ele>29.839</ele>
        <time>2019-09-17T10:13:30.001Z</time>
      </trkpt>
      <trkpt lat="50.54177" lon="2.63144">
        <ele>29.687</ele>
        <time>2019-09-17T10:13:33.001Z</time>
      </trkpt>
      <trkpt lat="50.54186" lon="2.63163">
        <ele>29.778</ele>
        <time>2019-09-17T10:13:36.001Z</time>
      </trkpt>
      <trkpt lat="50.54195" lon="2.63181">
        <ele>29.742</ele>
        <time>2019-09-17T10:13:39.001Z</time>
      </trkpt>
      <trkpt lat="50.54205" lon="2.63199">
        <ele>30.335</ele>
        <time>2019-09-17T10:13:42.001Z</time>
      </trkpt>
      <trkpt lat="50.54214" lon="2.63219">
        <ele>30.184</ele>
        <time>2019-09-17T10:13:45.001Z</time>
      </trkpt>
      <trkpt lat="50.54224" lon="2.63238">
        <ele>30.418</ele>
        <time>2019-09-17T10:13:48.001Z</time>
      </trkpt>
      <trkpt lat="50.54234" lon="2.63257">
        <ele>30.695</ele>
        <time>2019-09-17T10:13:51.001Z</time>
      </trkpt>
      <trkpt lat="50.54243" lon="2.63277">
        <ele>30.425</ele>
        <time>2019-09-17T10:13:54.001Z</time>
      </trkpt>
      <trkpt lat="50.54253" lon="2.63296">
        <ele>29.773</ele>
        <time>2019-09-17T10:13:57.001Z</time>
      </trkpt>
      <trkpt lat="50.54263" lon="2.63314">
        <ele>29.121</ele>
        <time>2019-09-17T10:14:00.000Z</time>
      </trkpt>
      <trkpt lat="50.54273" lon="2.63334">
        <ele>28.884</ele>
        <time>2019-09-17T10:14:03.001Z</time>
      </trkpt>
      <trkpt lat="50.54283" lon="2.63353">
        <ele>29.047</ele>
        <time>2019-09-17T10:14:06.001Z</time>
      </trkpt>
      <trkpt lat="50.54293" lon="2.63372">
        <ele>29.226</ele>
        <time>2019-09-17T10:14:09.001Z</time>
      </trkpt>
      <trkpt lat="50.54302" lon="2.63391">
        <ele>29.219</ele>
        <time>2019-09-17T10:14:12.001Z</time>
      </trkpt>
      <trkpt lat="50.54313" lon="2.6341">
        <ele>29.162</ele>
        <time>2019-09-17T10:14:15.001Z</time>
      </trkpt>
      <trkpt lat="50.54324" lon="2.6343">
        <ele>29.009</ele>
        <time>2019-09-17T10:14:18.001Z</time>
      </trkpt>
      <trkpt lat="50.54334" lon="2.63449">
        <ele>28.73</ele>
        <time>2019-09-17T10:14:21.001Z</time>
      </trkpt>
      <trkpt lat="50.54344" lon="2.63469">
        <ele>28.173</ele>
        <time>2019-09-17T10:14:24.001Z</time>
      </trkpt>
      <trkpt lat="50.54354" lon="2.63488">
        <ele>27.595</ele>
        <time>2019-09-17T10:14:27.001Z</time>
      </trkpt>
      <trkpt lat="50.54364" lon="2.63508">
        <ele>26.828</ele>
        <time>2019-09-17T10:14:30.001Z</time>
      </trkpt>
      <trkpt lat="50.54374" lon="2.63528">
        <ele>25.909</ele>
        <time>2019-09-17T10:14:33.001Z</time>
      </trkpt>
      <trkpt lat="50.54385" lon="2.63547">
        <ele>25.674</ele>
        <time>2019-09-17T10:14:36.001Z</time>
      </trkpt>
      <trkpt lat="50.54396" lon="2.63567">
        <ele>25.439</ele>
        <time>2019-09-17T10:14:39.001Z</time>
      </trkpt>
      <trkpt lat="50.54407" lon="2.63586">
        <ele>25.389</ele>
        <time>2019-09-17T10:14:42.001Z</time>
      </trkpt>
      <trkpt lat="50.5442" lon="2.63603">
        <ele>25.116</ele>
        <time>2019-09-17T10:14:45.001Z</time>
      </trkpt>
      <trkpt lat="50.54434" lon="2.63617">
        <ele>25.193</ele>
        <time>2019-09-17T10:14:48.001Z</time>
      </trkpt>
      <trkpt lat="50.54448" lon="2.63628">
        <ele>25.175</ele>
        <time>2019-09-17T10:14:51.001Z</time>
      </trkpt>
      <trkpt lat="50.54463" lon="2.63639">
        <ele>25.377</ele>
        <time>2019-09-17T10:14:54.001Z</time>
      </trkpt>
      <trkpt lat="50.54477" lon="2.6365">
        <ele>25.393</ele>
        <time>2019-09-17T10:14:57.001Z</time>
      </trkpt>
      <trkpt lat="50.54487" lon="2.63663">
        <ele>25.661</ele>
        <time>2019-09-17T10:15:00.000Z</time>
      </trkpt>
      <trkpt lat="50.54495" lon="2.63679">
        <ele>26.431</ele>
        <time>2019-09-17T10:15:03.001Z</time>
      </trkpt>
      <trkpt lat="50.54506" lon="2.63692">
        <ele>26.228</ele>
        <time>2019-09-17T10:15:06.001Z</time>
      </trkpt>
      <trkpt lat="50.54517" lon="2.63701">
        <ele>26.14</ele>
        <time>2019-09-17T10:15:09.001Z</time>
      </trkpt>
      <trkpt lat="50.54525" lon="2.63717">
        <ele>26.296</ele>
        <time>2019-09-17T10:15:12.001Z</time>
      </trkpt>
      <trkpt lat="50.54528" lon="2.63734">
        <ele>26.689</ele>
        <time>2019-09-17T10:15:15.001Z</time>
      </trkpt>
      <trkpt lat="50.54531" lon="2.6375">
        <ele>27.301</ele>
        <time>2019-09-17T10:15:18.001Z</time>
      </trkpt>
      <trkpt lat="50.54534" lon="2.63766">
        <ele>27.969</ele>
        <time>2019-09-17T10:15:21.001Z</time>
      </trkpt>
      <trkpt lat="50.54537" lon="2.63781">
        <ele>28.543</ele>
        <time>2019-09-17T10:15:24.001Z</time>
      </trkpt>
      <trkpt lat="50.5454" lon="2.63795">
        <ele>29.68</ele>
        <time>2019-09-17T10:15:27.001Z</time>
      </trkpt>
      <trkpt lat="50.54542" lon="2.63809">
        <ele>31.162</ele>
        <time>2019-09-17T10:15:30.001Z</time>
      </trkpt>
      <trkpt lat="50.54543" lon="2.63824">
        <ele>32.524</ele>
        <time>2019-09-17T10:15:33.001Z</time>
      </trkpt>
      <trkpt lat="50.54545" lon="2.63839">
        <ele>33.571</ele>
        <time>2019-09-17T10:15:36.001Z</time>
      </trkpt>
      <trkpt lat="50.54547" lon="2.63855">
        <ele>34.453</ele>
        <time>2019-09-17T10:15:39.001Z</time>
      </trkpt>
      <trkpt lat="50.54549" lon="2.63872">
        <ele>35.025</ele>
        <time>2019-09-17T10:15:42.001Z</time>
      </trkpt>
      <trkpt lat="50.54551" lon="2.63888">
        <ele>35.197</ele>
        <time>2019-09-17T10:15:45.001Z</time>
      </trkpt>
      <trkpt lat="50.54553" lon="2.63906">
        <ele>35.936</ele>
        <time>2019-09-17T10:15:48.001Z</time>
      </trkpt>
      <trkpt lat="50.54554" lon="2.63925">
        <ele>35.755</ele>
        <time>2019-09-17T10:15:51.001Z</time>
      </trkpt>
      <trkpt lat="50.54557" lon="2.63945">
        <ele>35.488</ele>
        <time>2019-09-17T10:15:54.001Z</time>
      </trkpt>
      <trkpt lat="50.54561" lon="2.63966">
        <ele>34.366</ele>
        <time>2019-09-17T10:15:57.001Z</time>
      </trkpt>
      <trkpt lat="50.54562" lon="2.63989">
        <ele>33.559</ele>
        <time>2019-09-17T10:16:00.000Z</time>
      </trkpt>
      <trkpt lat="50.54564" lon="2.64014">
        <ele>32.541</ele>
        <time>2019-09-17T10:16:03.001Z</time>
      </trkpt>
      <trkpt lat="50.54566" lon="2.64041">
        <ele>31.896</ele>
        <time>2019-09-17T10:16:06.001Z</time>
      </trkpt>
      <trkpt lat="50.54567" lon="2.64068">
        <ele>31.795</ele>
        <time>2019-09-17T10:16:09.001Z</time>
      </trkpt>
      <trkpt lat="50.54567" lon="2.64096">
        <ele>31.255</ele>
        <time>2019-09-17T10:16:12.001Z</time>
      </trkpt>
      <trkpt lat="50.54566" lon="2.64123">
        <ele>31.065</ele>
        <time>2019-09-17T10:16:15.001Z</time>
      </trkpt>
      <trkpt lat="50.54563" lon="2.6415">
        <ele>30.805</ele>
        <time>2019-09-17T10:16:18.001Z</time>
      </trkpt>
      <trkpt lat="50.54559" lon="2.64176">
        <ele>30.972</ele>
        <time>2019-09-17T10:16:21.001Z</time>
      </trkpt>
      <trkpt lat="50.54556" lon="2.64201">
        <ele>31.442</ele>
        <time>2019-09-17T10:16:24.001Z</time>
      </trkpt>
      <trkpt lat="50.54551" lon="2.64225">
        <ele>31.762</ele>
        <time>2019-09-17T10:16:27.001Z</time>
      </trkpt>
      <trkpt lat="50.54546" lon="2.64249">
        <ele>31.311</ele>
        <time>2019-09-17T10:16:30.001Z</time>
      </trkpt>
      <trkpt lat="50.5454" lon="2.6427">
        <ele>30.618</ele>
        <time>2019-09-17T10:16:33.001Z</time>
      </trkpt>
      <trkpt lat="50.54534" lon="2.6429">
        <ele>30.045</ele>
        <time>2019-09-17T10:16:36.001Z</time>
      </trkpt>
      <trkpt lat="50.54525" lon="2.64311">
        <ele>30.103</ele>
        <time>2019-09-17T10:16:39.001Z</time>
      </trkpt>
      <trkpt lat="50.54517" lon="2.64334">
        <ele>30.238</ele>
        <time>2019-09-17T10:16:42.001Z</time>
      </trkpt>
      <trkpt lat="50.5451" lon="2.64355">
        <ele>30.368</ele>
        <time>2019-09-17T10:16:45.001Z</time>
      </trkpt>
      <trkpt lat="50.54501" lon="2.64377">
        <ele>30.864</ele>
        <time>2019-09-17T10:16:48.001Z</time>
      </trkpt>
      <trkpt lat="50.54485" lon="2.64393">
        <ele>31.419</ele>
        <time>2019-09-17T10:16:51.001Z</time>
      </trkpt>
      <trkpt lat="50.54472" lon="2.64416">
        <ele>31.604</ele>
        <time>2019-09-17T10:16:54.001Z</time>
      </trkpt>
      <trkpt lat="50.54473" lon="2.64447">
        <ele>31.291</ele>
        <time>2019-09-17T10:16:57.001Z</time>
      </trkpt>
      <trkpt lat="50.54471" lon="2.64474">
        <ele>30.772</ele>
        <time>2019-09-17T10:17:00.000Z</time>
      </trkpt>
      <trkpt lat="50.54459" lon="2.64498">
        <ele>30.162</ele>
        <time>2019-09-17T10:17:03.001Z</time>
      </trkpt>
      <trkpt lat="50.54447" lon="2.6452">
        <ele>29.713</ele>
        <time>2019-09-17T10:17:06.001Z</time>
      </trkpt>
      <trkpt lat="50.54435" lon="2.64542">
        <ele>28.987</ele>
        <time>2019-09-17T10:17:09.001Z</time>
      </trkpt>
      <trkpt lat="50.54423" lon="2.64564">
        <ele>28.228</ele>
        <time>2019-09-17T10:17:12.001Z</time>
      </trkpt>
      <trkpt lat="50.54409" lon="2.64586">
        <ele>27.543</ele>
        <time>2019-09-17T10:17:15.001Z</time>
      </trkpt>
      <trkpt lat="50.54394" lon="2.64609">
        <ele>27.173</ele>
        <time>2019-09-17T10:17:18.001Z</time>
      </trkpt>
      <trkpt lat="50.5438" lon="2.64632">
        <ele>27.171</ele>
        <time>2019-09-17T10:17:21.001Z</time>
      </trkpt>
      <trkpt lat="50.54366" lon="2.64652">
        <ele>27.929</ele>
        <time>2019-09-17T10:17:24.001Z</time>
      </trkpt>
      <trkpt lat="50.54353" lon="2.64673">
        <ele>28.408</ele>
        <time>2019-09-17T10:17:27.001Z</time>
      </trkpt>
      <trkpt lat="50.5434" lon="2.64691">
        <ele>28.729</ele>
        <time>2019-09-17T10:17:30.001Z</time>
      </trkpt>
      <trkpt lat="50.54327" lon="2.6471">
        <ele>29.112</ele>
        <time>2019-09-17T10:17:33.001Z</time>
      </trkpt>
      <trkpt lat="50.54315" lon="2.64728">
        <ele>29.568</ele>
        <time>2019-09-17T10:17:36.001Z</time>
      </trkpt>
      <trkpt lat="50.54302" lon="2.64746">
        <ele>29.607</ele>
        <time>2019-09-17T10:17:39.001Z</time>
      </trkpt>
      <trkpt lat="50.54289" lon="2.64764">
        <ele>29.133</ele>
        <time>2019-09-17T10:17:42.001Z</time>
      </trkpt>
      <trkpt lat="50.54278" lon="2.64783">
        <ele>29.355</ele>
        <time>2019-09-17T10:17:45.001Z</time>
      </trkpt>
      <trkpt lat="50.54265" lon="2.648">
        <ele>30.057</ele>
        <time>2019-09-17T10:17:48.001Z</time>
      </trkpt>
      <trkpt lat="50.54252" lon="2.64819">
        <ele>30.883</ele>
        <time>2019-09-17T10:17:51.001Z</time>
      </trkpt>
      <trkpt lat="50.5424" lon="2.64838">
        <ele>31.919</ele>
        <time>2019-09-17T10:17:54.001Z</time>
      </trkpt>
      <trkpt lat="50.54226" lon="2.64857">
        <ele>32.94</ele>
        <time>2019-09-17T10:17:57.001Z</time>
      </trkpt>
      <trkpt lat="50.54212" lon="2.64876">
        <ele>33.415</ele>
        <time>2019-09-17T10:18:00.000Z</time>
      </trkpt>
      <trkpt lat="50.54199" lon="2.64896">
        <ele>33.402</ele>
        <time>2019-09-17T10:18:03.001Z</time>
      </trkpt>
      <trkpt lat="50.54186" lon="2.64916">
        <ele>33.384</ele>
        <time>2019-09-17T10:18:06.001Z</time>
      </trkpt>
      <trkpt lat="50.54174" lon="2.64935">
        <ele>32.892</ele>
        <time>2019-09-17T10:18:09.001Z</time>
      </trkpt>
      <trkpt lat="50.54161" lon="2.64956">
        <ele>32.864</ele>
        <time>2019-09-17T10:18:12.001Z</time>
      </trkpt>
      <trkpt lat="50.5415" lon="2.64977">
        <ele>32.643</ele>
        <time>2019-09-17T10:18:15.001Z</time>
      </trkpt>
      <trkpt lat="50.54137" lon="2.64997">
        <ele>32.775</ele>
        <time>2019-09-17T10:18:18.001Z</time>
      </trkpt>
      <trkpt lat="50.54126" lon="2.65015">
        <ele>32.717</ele>
        <time>2019-09-17T10:18:21.001Z</time>
      </trkpt>
      <trkpt lat="50.54109" lon="2.65023">
        <ele>31.617</ele>
        <time>2019-09-17T10:18:24.001Z</time>
      </trkpt>
      <trkpt lat="50.54095" lon="2.65036">
        <ele>31.399</ele>
        <time>2019-09-17T10:18:27.001Z</time>
      </trkpt>
      <trkpt lat="50.54084" lon="2.65056">
        <ele>31.023</ele>
        <time>2019-09-17T10:18:30.001Z</time>
      </trkpt>
      <trkpt lat="50.54082" lon="2.65081">
        <ele>30.648</ele>
        <time>2019-09-17T10:18:33.001Z</time>
      </trkpt>
      <trkpt lat="50.54088" lon="2.65105">
        <ele>30.302</ele>
        <time>2019-09-17T10:18:36.001Z</time>
      </trkpt>
      <trkpt lat="50.54101" lon="2.65124">
        <ele>28.706</ele>
        <time>2019-09-17T10:18:39.001Z</time>
      </trkpt>
      <trkpt lat="50.54119" lon="2.65127">
        <ele>27.345</ele>
        <time>2019-09-17T10:18:42.001Z</time>
      </trkpt>
      <trkpt lat="50.54134" lon="2.65119">
        <ele>26.86</ele>
        <time>2019-09-17T10:18:45.001Z</time>
      </trkpt>
      <trkpt lat="50.54146" lon="2.65101">
        <ele>25.858</ele>
        <time>2019-09-17T10:18:48.001Z</time>
      </trkpt>
      <trkpt lat="50.5415" lon="2.65077">
        <ele>25.486</ele>
        <time>2019-09-17T10:18:51.001Z</time>
      </trkpt>
      <trkpt lat="50.54147" lon="2.65054">
        <ele>24.994</ele>
        <time>2019-09-17T10:18:54.001Z</time>
      </trkpt>
      <trkpt lat="50.5414" lon="2.65035">
        <ele>25.408</ele>
        <time>2019-09-17T10:18:57.001Z</time>
      </trkpt>
      <trkpt lat="50.54128" lon="2.65023">
        <ele>25.359</ele>
        <time>2019-09-17T10:19:00.000Z</time>
      </trkpt>
      <trkpt lat="50.54113" lon="2.6502">
        <ele>25.288</ele>
        <time>2019-09-17T10:19:03.001Z</time>
      </trkpt>
      <trkpt lat="50.541" lon="2.65027">
        <ele>25.085</ele>
        <time>2019-09-17T10:19:06.001Z</time>
      </trkpt>
      <trkpt lat="50.54089" lon="2.65042">
        <ele>25.447</ele>
        <time>2019-09-17T10:19:09.001Z</time>
      </trkpt>
      <trkpt lat="50.54084" lon="2.65064">
        <ele>26.069</ele>
        <time>2019-09-17T10:19:12.001Z</time>
      </trkpt>
      <trkpt lat="50.54085" lon="2.65086">
        <ele>26.482</ele>
        <time>2019-09-17T10:19:15.001Z</time>
      </trkpt>
      <trkpt lat="50.54093" lon="2.65108">
        <ele>26.363</ele>
        <time>2019-09-17T10:19:18.001Z</time>
      </trkpt>
      <trkpt lat="50.54106" lon="2.65124">
        <ele>25.616</ele>
        <time>2019-09-17T10:19:21.001Z</time>
      </trkpt>
      <trkpt lat="50.54121" lon="2.65124">
        <ele>24.508</ele>
        <time>2019-09-17T10:19:24.001Z</time>
      </trkpt>
      <trkpt lat="50.54135" lon="2.65114">
        <ele>24.106</ele>
        <time>2019-09-17T10:19:27.001Z</time>
      </trkpt>
      <trkpt lat="50.54146" lon="2.65095">
        <ele>24.031</ele>
        <time>2019-09-17T10:19:30.001Z</time>
      </trkpt>
      <trkpt lat="50.54157" lon="2.65079">
        <ele>24.425</ele>
        <time>2019-09-17T10:19:33.001Z</time>
      </trkpt>
      <trkpt lat="50.5417" lon="2.6507">
        <ele>24.281</ele>
        <time>2019-09-17T10:19:36.001Z</time>
      </trkpt>
      <trkpt lat="50.54185" lon="2.65072">
        <ele>24.769</ele>
        <time>2019-09-17T10:19:39.001Z</time>
      </trkpt>
      <trkpt lat="50.54199" lon="2.65075">
        <ele>25.023</ele>
        <time>2019-09-17T10:19:42.001Z</time>
      </trkpt>
      <trkpt lat="50.54212" lon="2.65081">
        <ele>25.56</ele>
        <time>2019-09-17T10:19:45.001Z</time>
      </trkpt>
      <trkpt lat="50.54226" lon="2.65089">
        <ele>25.975</ele>
        <time>2019-09-17T10:19:48.001Z</time>
      </trkpt>
      <trkpt lat="50.54238" lon="2.65098">
        <ele>26.328</ele>
        <time>2019-09-17T10:19:51.001Z</time>
      </trkpt>
      <trkpt lat="50.5425" lon="2.65109">
        <ele>26.891</ele>
        <time>2019-09-17T10:19:54.001Z</time>
      </trkpt>
      <trkpt lat="50.54261" lon="2.65121">
        <ele>27.453</ele>
        <time>2019-09-17T10:19:57.001Z</time>
      </trkpt>
      <trkpt lat="50.54273" lon="2.65135">
        <ele>27.613</ele>
        <time>2019-09-17T10:20:00.000Z</time>
      </trkpt>
      <trkpt lat="50.54285" lon="2.65149">
        <ele>27.523</ele>
        <time>2019-09-17T10:20:03.001Z</time>
      </trkpt>
      <trkpt lat="50.54295" lon="2.65163">
        <ele>26.87</ele>
        <time>2019-09-17T10:20:06.001Z</time>
      </trkpt>
      <trkpt lat="50.54304" lon="2.65178">
        <ele>26.54</ele>
        <time>2019-09-17T10:20:09.001Z</time>
      </trkpt>
      <trkpt lat="50.54313" lon="2.65191">
        <ele>25.667</ele>
        <time>2019-09-17T10:20:12.001Z</time>
      </trkpt>
      <trkpt lat="50.54321" lon="2.65202">
        <ele>25.45</ele>
        <time>2019-09-17T10:20:15.001Z</time>
      </trkpt>
      <trkpt lat="50.54328" lon="2.65212">
        <ele>24.755</ele>
        <time>2019-09-17T10:20:18.001Z</time>
      </trkpt>
      <trkpt lat="50.54335" lon="2.65221">
        <ele>24.447</ele>
        <time>2019-09-17T10:20:21.001Z</time>
      </trkpt>
      <trkpt lat="50.54342" lon="2.65231">
        <ele>23.871</ele>
        <time>2019-09-17T10:20:24.001Z</time>
      </trkpt>
      <trkpt lat="50.54348" lon="2.65241">
        <ele>24.495</ele>
        <time>2019-09-17T10:20:27.001Z</time>
      </trkpt>
      <trkpt lat="50.54355" lon="2.65252">
        <ele>25.028</ele>
        <time>2019-09-17T10:20:30.001Z</time>
      </trkpt>
      <trkpt lat="50.54361" lon="2.65262">
        <ele>25.323</ele>
        <time>2019-09-17T10:20:33.001Z</time>
      </trkpt>
      <trkpt lat="50.54367" lon="2.65273">
        <ele>25.735</ele>
        <time>2019-09-17T10:20:36.001Z</time>
      </trkpt>
      <trkpt lat="50.54373" lon="2.65282">
        <ele>26.013</ele>
        <time>2019-09-17T10:20:39.001Z</time>
      </trkpt>
      <trkpt lat="50.54379" lon="2.65293">
        <ele>26.026</ele>
        <time>2019-09-17T10:20:42.001Z</time>
      </trkpt>
      <trkpt lat="50.54384" lon="2.65303">
        <ele>25.719</ele>
        <time>2019-09-17T10:20:45.001Z</time>
      </trkpt>
      <trkpt lat="50.54389" lon="2.65312">
        <ele>25.572</ele>
        <time>2019-09-17T10:20:48.001Z</time>
      </trkpt>
      <trkpt lat="50.54395" lon="2.65321">
        <ele>25.79</ele>
        <time>2019-09-17T10:20:51.001Z</time>
      </trkpt>
      <trkpt lat="50.544" lon="2.65331">
        <ele>25.844</ele>
        <time>2019-09-17T10:20:54.001Z</time>
      </trkpt>
      <trkpt lat="50.54406" lon="2.65339">
        <ele>26.175</ele>
        <time>2019-09-17T10:20:57.001Z</time>
      </trkpt>
      <trkpt lat="50.54412" lon="2.65348">
        <ele>27.214</ele>
        <time>2019-09-17T10:21:00.000Z</time>
      </trkpt>
      <trkpt lat="50.54418" lon="2.65357">
        <ele>27.937</ele>
        <time>2019-09-17T10:21:03.001Z</time>
      </trkpt>
      <trkpt lat="50.54424" lon="2.65367">
        <ele>28.672</ele>
        <time>2019-09-17T10:21:06.001Z</time>
      </trkpt>
      <trkpt lat="50.5443" lon="2.65377">
        <ele>29.781</ele>
        <time>2019-09-17T10:21:09.001Z</time>
      </trkpt>
      <trkpt lat="50.54438" lon="2.65387">
        <ele>30.482</ele>
        <time>2019-09-17T10:21:12.001Z</time>
      </trkpt>
      <trkpt lat="50.54448" lon="2.65399">
        <ele>31.04</ele>
        <time>2019-09-17T10:21:15.001Z</time>
      </trkpt>
      <trkpt lat="50.54456" lon="2.65412">
        <ele>31.059</ele>
        <time>2019-09-17T10:21:18.001Z</time>
      </trkpt>
      <trkpt lat="50.54466" lon="2.65427">
        <ele>31.259</ele>
        <time>2019-09-17T10:21:21.001Z</time>
      </trkpt>
      <trkpt lat="50.54473" lon="2.65443">
        <ele>30.239</ele>
        <time>2019-09-17T10:21:24.001Z</time>
      </trkpt>
      <trkpt lat="50.54481" lon="2.65459">
        <ele>29.387</ele>
        <time>2019-09-17T10:21:27.001Z</time>
      </trkpt>
      <trkpt lat="50.54491" lon="2.65475">
        <ele>28.943</ele>
        <time>2019-09-17T10:21:30.001Z</time>
      </trkpt>
      <trkpt lat="50.54496" lon="2.65497">
        <ele>28.763</ele>
        <time>2019-09-17T10:21:33.001Z</time>
      </trkpt>
      <trkpt lat="50.54495" lon="2.65522">
        <ele>28.863</ele>
        <time>2019-09-17T10:21:36.001Z</time>
      </trkpt>
      <trkpt lat="50.54488" lon="2.65547">
        <ele>28.922</ele>
        <time>2019-09-17T10:21:39.001Z</time>
      </trkpt>
      <trkpt lat="50.5448" lon="2.65577">
        <ele>28.352</ele>
        <time>2019-09-17T10:21:42.001Z</time>
      </trkpt>
      <trkpt lat="50.54472" lon="2.6561">
        <ele>27.85</ele>
        <time>2019-09-17T10:21:45.001Z</time>
      </trkpt>
      <trkpt lat="50.54464" lon="2.65645">
        <ele>27.215</ele>
        <time>2019-09-17T10:21:48.001Z</time>
      </trkpt>
      <trkpt lat="50.54455" lon="2.6568">
        <ele>27.338</ele>
        <time>2019-09-17T10:21:51.001Z</time>
      </trkpt>
      <trkpt lat="50.54448" lon="2.65714">
        <ele>27.219</ele>
        <time>2019-09-17T10:21:54.001Z</time>
      </trkpt>
      <trkpt lat="50.54447" lon="2.65747">
        <ele>26.987</ele>
        <time>2019-09-17T10:21:57.001Z</time>
      </trkpt>
      <trkpt lat="50.5445" lon="2.65779">
        <ele>26.573</ele>
        <time>2019-09-17T10:22:00.000Z</time>
      </trkpt>
      <trkpt lat="50.54459" lon="2.65806">
        <ele>26.2</ele>
        <time>2019-09-17T10:22:03.001Z</time>
      </trkpt>
      <trkpt lat="50.54468" lon="2.65829">
        <ele>25.814</ele>
        <time>2019-09-17T10:22:06.001Z</time>
      </trkpt>
      <trkpt lat="50.54477" lon="2.65853">
        <ele>25.057</ele>
        <time>2019-09-17T10:22:09.001Z</time>
      </trkpt>
      <trkpt lat="50.54486" lon="2.65876">
        <ele>24.555</ele>
        <time>2019-09-17T10:22:12.001Z</time>
      </trkpt>
      <trkpt lat="50.54494" lon="2.65897">
        <ele>24.11</ele>
        <time>2019-09-17T10:22:15.001Z</time>
      </trkpt>
      <trkpt lat="50.54502" lon="2.65917">
        <ele>23.781</ele>
        <time>2019-09-17T10:22:18.001Z</time>
      </trkpt>
      <trkpt lat="50.5451" lon="2.65935">
        <ele>23.561</ele>
        <time>2019-09-17T10:22:21.001Z</time>
      </trkpt>
      <trkpt lat="50.54517" lon="2.65952">
        <ele>23.578</ele>
        <time>2019-09-17T10:22:24.001Z</time>
      </trkpt>
      <trkpt lat="50.54524" lon="2.6597">
        <ele>23.419</ele>
        <time>2019-09-17T10:22:27.001Z</time>
      </trkpt>
      <trkpt lat="50.54531" lon="2.65987">
        <ele>23.425</ele>
        <time>2019-09-17T10:22:30.001Z</time>
      </trkpt>
      <trkpt lat="50.54538" lon="2.66005">
        <ele>23.395</ele>
        <time>2019-09-17T10:22:33.001Z</time>
      </trkpt>
      <trkpt lat="50.54544" lon="2.66022">
        <ele>23.877</ele>
        <time>2019-09-17T10:22:36.001Z</time>
      </trkpt>
      <trkpt lat="50.54552" lon="2.66038">
        <ele>24.089</ele>
        <time>2019-09-17T10:22:39.001Z</time>
      </trkpt>
      <trkpt lat="50.54559" lon="2.66052">
        <ele>24.597</ele>
        <time>2019-09-17T10:22:42.001Z</time>
      </trkpt>
      <trkpt lat="50.54567" lon="2.66057">
        <ele>24.134</ele>
        <time>2019-09-17T10:22:45.001Z</time>
      </trkpt>
      <trkpt lat="50.54575" lon="2.66053">
        <ele>24.99</ele>
        <time>2019-09-17T10:22:48.001Z</time>
      </trkpt>
      <trkpt lat="50.54581" lon="2.66046">
        <ele>25.15</ele>
        <time>2019-09-17T10:22:51.001Z</time>
      </trkpt>
      <trkpt lat="50.54589" lon="2.66038">
        <ele>25.14</ele>
        <time>2019-09-17T10:22:54.001Z</time>
      </trkpt>
      <trkpt lat="50.54595" lon="2.66029">
        <ele>24.905</ele>
        <time>2019-09-17T10:22:57.001Z</time>
      </trkpt>
      <trkpt lat="50.54602" lon="2.66023">
        <ele>25.403</ele>
        <time>2019-09-17T10:23:00.000Z</time>
      </trkpt>
      <trkpt lat="50.54609" lon="2.66021">
        <ele>25.931</ele>
        <time>2019-09-17T10:23:03.001Z</time>
      </trkpt>
      <trkpt lat="50.54612" lon="2.66019">
        <ele>26.763</ele>
        <time>2019-09-17T10:23:06.001Z</time>
      </trkpt>
      <trkpt lat="50.54612" lon="2.66018">
        <ele>27.083</ele>
        <time>2019-09-17T10:23:45.001Z</time>
      </trkpt>
      <trkpt lat="50.54612" lon="2.66019">
        <ele>27.816</ele>
        <time>2019-09-17T10:23:48.001Z</time>
      </trkpt>
      <trkpt lat="50.54612" lon="2.66019">
        <ele>28.115</ele>
        <time>2019-09-17T10:23:51.001Z</time>
      </trkpt>
      <trkpt lat="50.54612" lon="2.66019">
        <ele>28.115</ele>
        <time>2019-09-17T10:34:18.001Z</time>
      </trkpt>
      <trkpt lat="50.54612" lon="2.66019">
        <ele>28.531</ele>
        <time>2019-09-17T10:34:21.001Z</time>
      </trkpt>
      <trkpt lat="50.54612" lon="2.66019">
        <ele>28.865</ele>
        <time>2019-09-17T10:34:24.001Z</time>
      </trkpt>
      <trkpt lat="50.54612" lon="2.66019">
        <ele>28.865</ele>
        <time>2019-09-17T10:34:39.001Z</time>
      </trkpt>
      <trkpt lat="50.54612" lon="2.66019">
        <ele>29.003</ele>
        <time>2019-09-17T10:34:42.001Z</time>
      </trkpt>
      <trkpt lat="50.54615" lon="2.66024">
        <ele>30.036</ele>
        <time>2019-09-17T10:34:48.001Z</time>
      </trkpt>
      <trkpt lat="50.54616" lon="2.66024">
        <ele>30.537</ele>
        <time>2019-09-17T10:34:51.001Z</time>
      </trkpt>
      <trkpt lat="50.54616" lon="2.66024">
        <ele>31.428</ele>
        <time>2019-09-17T10:36:30.001Z</time>
      </trkpt>
      <trkpt lat="50.54616" lon="2.66023">
        <ele>31.342</ele>
        <time>2019-09-17T10:36:33.001Z</time>
      </trkpt>
      <trkpt lat="50.54615" lon="2.66023">
        <ele>31.13</ele>
        <time>2019-09-17T10:36:36.001Z</time>
      </trkpt>
      <trkpt lat="50.54615" lon="2.66023">
        <ele>31.942</ele>
        <time>2019-09-17T10:49:09.001Z</time>
      </trkpt>
      <trkpt lat="50.54602" lon="2.66023">
        <ele>31.711</ele>
        <time>2019-09-17T10:49:12.001Z</time>
      </trkpt>
      <trkpt lat="50.54597" lon="2.66027">
        <ele>31.611</ele>
        <time>2019-09-17T10:49:15.001Z</time>
      </trkpt>
      <trkpt lat="50.5459" lon="2.66033">
        <ele>30.554</ele>
        <time>2019-09-17T10:49:18.001Z</time>
      </trkpt>
      <trkpt lat="50.54583" lon="2.66039">
        <ele>29.011</ele>
        <time>2019-09-17T10:49:21.001Z</time>
      </trkpt>
      <trkpt lat="50.54578" lon="2.66043">
        <ele>27.652</ele>
        <time>2019-09-17T10:49:24.001Z</time>
      </trkpt>
      <trkpt lat="50.54572" lon="2.66047">
        <ele>26.722</ele>
        <time>2019-09-17T10:49:27.001Z</time>
      </trkpt>
      <trkpt lat="50.5457" lon="2.66048">
        <ele>26.022</ele>
        <time>2019-09-17T10:49:30.001Z</time>
      </trkpt>
      <trkpt lat="50.5457" lon="2.66048">
        <ele>26.022</ele>
        <time>2019-09-17T10:49:48.001Z</time>
      </trkpt>
      <trkpt lat="50.54569" lon="2.66049">
        <ele>26.142</ele>
        <time>2019-09-17T10:49:51.001Z</time>
      </trkpt>
      <trkpt lat="50.54566" lon="2.66055">
        <ele>25.916</ele>
        <time>2019-09-17T10:49:54.001Z</time>
      </trkpt>
      <trkpt lat="50.54565" lon="2.66065">
        <ele>25.497</ele>
        <time>2019-09-17T10:49:57.001Z</time>
      </trkpt>
      <trkpt lat="50.54569" lon="2.66077">
        <ele>24.952</ele>
        <time>2019-09-17T10:50:00.000Z</time>
      </trkpt>
      <trkpt lat="50.54575" lon="2.66091">
        <ele>24.945</ele>
        <time>2019-09-17T10:50:03.001Z</time>
      </trkpt>
      <trkpt lat="50.54581" lon="2.66106">
        <ele>24.436</ele>
        <time>2019-09-17T10:50:06.001Z</time>
      </trkpt>
      <trkpt lat="50.54586" lon="2.66121">
        <ele>23.672</ele>
        <time>2019-09-17T10:50:09.001Z</time>
      </trkpt>
      <trkpt lat="50.54592" lon="2.66137">
        <ele>22.619</ele>
        <time>2019-09-17T10:50:12.001Z</time>
      </trkpt>
      <trkpt lat="50.54598" lon="2.66154">
        <ele>21.553</ele>
        <time>2019-09-17T10:50:15.001Z</time>
      </trkpt>
      <trkpt lat="50.54605" lon="2.66171">
        <ele>21.038</ele>
        <time>2019-09-17T10:50:18.001Z</time>
      </trkpt>
      <trkpt lat="50.54613" lon="2.66186">
        <ele>21.194</ele>
        <time>2019-09-17T10:50:21.001Z</time>
      </trkpt>
      <trkpt lat="50.5462" lon="2.66202">
        <ele>21.889</ele>
        <time>2019-09-17T10:50:24.001Z</time>
      </trkpt>
      <trkpt lat="50.54627" lon="2.66218">
        <ele>21.98</ele>
        <time>2019-09-17T10:50:27.001Z</time>
      </trkpt>
      <trkpt lat="50.54634" lon="2.66233">
        <ele>22.868</ele>
        <time>2019-09-17T10:50:30.001Z</time>
      </trkpt>
      <trkpt lat="50.54641" lon="2.6625">
        <ele>22.821</ele>
        <time>2019-09-17T10:50:33.001Z</time>
      </trkpt>
      <trkpt lat="50.54649" lon="2.66267">
        <ele>22.906</ele>
        <time>2019-09-17T10:50:36.001Z</time>
      </trkpt>
      <trkpt lat="50.54657" lon="2.66285">
        <ele>22.78</ele>
        <time>2019-09-17T10:50:39.001Z</time>
      </trkpt>
      <trkpt lat="50.54665" lon="2.66303">
        <ele>22.477</ele>
        <time>2019-09-17T10:50:42.001Z</time>
      </trkpt>
      <trkpt lat="50.54674" lon="2.66321">
        <ele>22.791</ele>
        <time>2019-09-17T10:50:45.001Z</time>
      </trkpt>
      <trkpt lat="50.54681" lon="2.66337">
        <ele>23.424</ele>
        <time>2019-09-17T10:50:48.001Z</time>
      </trkpt>
      <trkpt lat="50.54689" lon="2.66354">
        <ele>23.546</ele>
        <time>2019-09-17T10:50:51.001Z</time>
      </trkpt>
      <trkpt lat="50.54698" lon="2.6637">
        <ele>24.461</ele>
        <time>2019-09-17T10:50:54.001Z</time>
      </trkpt>
      <trkpt lat="50.54705" lon="2.66388">
        <ele>24.919</ele>
        <time>2019-09-17T10:50:57.001Z</time>
      </trkpt>
      <trkpt lat="50.54713" lon="2.66404">
        <ele>25.37</ele>
        <time>2019-09-17T10:51:00.000Z</time>
      </trkpt>
      <trkpt lat="50.5472" lon="2.6642">
        <ele>25.683</ele>
        <time>2019-09-17T10:51:03.001Z</time>
      </trkpt>
      <trkpt lat="50.54723" lon="2.66439">
        <ele>25.713</ele>
        <time>2019-09-17T10:51:06.001Z</time>
      </trkpt>
      <trkpt lat="50.54716" lon="2.66457">
        <ele>25.734</ele>
        <time>2019-09-17T10:51:09.001Z</time>
      </trkpt>
      <trkpt lat="50.54705" lon="2.66473">
        <ele>25.743</ele>
        <time>2019-09-17T10:51:12.001Z</time>
      </trkpt>
      <trkpt lat="50.54695" lon="2.66489">
        <ele>25.913</ele>
        <time>2019-09-17T10:51:15.001Z</time>
      </trkpt>
      <trkpt lat="50.54684" lon="2.66506">
        <ele>25.577</ele>
        <time>2019-09-17T10:51:18.001Z</time>
      </trkpt>
      <trkpt lat="50.54673" lon="2.66521">
        <ele>25.368</ele>
        <time>2019-09-17T10:51:21.001Z</time>
      </trkpt>
      <trkpt lat="50.54663" lon="2.66536">
        <ele>24.343</ele>
        <time>2019-09-17T10:51:24.001Z</time>
      </trkpt>
      <trkpt lat="50.54652" lon="2.66551">
        <ele>23.224</ele>
        <time>2019-09-17T10:51:27.001Z</time>
      </trkpt>
      <trkpt lat="50.54641" lon="2.66567">
        <ele>22.594</ele>
        <time>2019-09-17T10:51:30.001Z</time>
      </trkpt>
      <trkpt lat="50.5463" lon="2.66583">
        <ele>22.856</ele>
        <time>2019-09-17T10:51:33.001Z</time>
      </trkpt>
      <trkpt lat="50.54619" lon="2.666">
        <ele>22.567</ele>
        <time>2019-09-17T10:51:36.001Z</time>
      </trkpt>
      <trkpt lat="50.54607" lon="2.66616">
        <ele>22.488</ele>
        <time>2019-09-17T10:51:39.001Z</time>
      </trkpt>
      <trkpt lat="50.54596" lon="2.66633">
        <ele>22.447</ele>
        <time>2019-09-17T10:51:42.001Z</time>
      </trkpt>
      <trkpt lat="50.54585" lon="2.66651">
        <ele>22.545</ele>
        <time>2019-09-17T10:51:45.001Z</time>
      </trkpt>
      <trkpt lat="50.54575" lon="2.66667">
        <ele>21.968</ele>
        <time>2019-09-17T10:51:48.001Z</time>
      </trkpt>
      <trkpt lat="50.54563" lon="2.66683">
        <ele>21.446</ele>
        <time>2019-09-17T10:51:51.001Z</time>
      </trkpt>
      <trkpt lat="50.54551" lon="2.66698">
        <ele>20.38</ele>
        <time>2019-09-17T10:51:54.001Z</time>
      </trkpt>
      <trkpt lat="50.54539" lon="2.66713">
        <ele>20.107</ele>
        <time>2019-09-17T10:51:57.001Z</time>
      </trkpt>
      <trkpt lat="50.54527" lon="2.66726">
        <ele>20.416</ele>
        <time>2019-09-17T10:52:00.000Z</time>
      </trkpt>
      <trkpt lat="50.54514" lon="2.66737">
        <ele>20.503</ele>
        <time>2019-09-17T10:52:03.001Z</time>
      </trkpt>
      <trkpt lat="50.54502" lon="2.66749">
        <ele>20.923</ele>
        <time>2019-09-17T10:52:06.001Z</time>
      </trkpt>
      <trkpt lat="50.54489" lon="2.66761">
        <ele>21.64</ele>
        <time>2019-09-17T10:52:09.001Z</time>
      </trkpt>
      <trkpt lat="50.54475" lon="2.66772">
        <ele>22.925</ele>
        <time>2019-09-17T10:52:12.001Z</time>
      </trkpt>
      <trkpt lat="50.54462" lon="2.66783">
        <ele>22.716</ele>
        <time>2019-09-17T10:52:15.001Z</time>
      </trkpt>
      <trkpt lat="50.5445" lon="2.66794">
        <ele>22.805</ele>
        <time>2019-09-17T10:52:18.001Z</time>
      </trkpt>
      <trkpt lat="50.54438" lon="2.66803">
        <ele>22.476</ele>
        <time>2019-09-17T10:52:21.001Z</time>
      </trkpt>
      <trkpt lat="50.54424" lon="2.66812">
        <ele>22.169</ele>
        <time>2019-09-17T10:52:24.001Z</time>
      </trkpt>
      <trkpt lat="50.54411" lon="2.66818">
        <ele>21.909</ele>
        <time>2019-09-17T10:52:27.001Z</time>
      </trkpt>
      <trkpt lat="50.54396" lon="2.66822">
        <ele>21.941</ele>
        <time>2019-09-17T10:52:30.001Z</time>
      </trkpt>
      <trkpt lat="50.54381" lon="2.66825">
        <ele>22.379</ele>
        <time>2019-09-17T10:52:33.001Z</time>
      </trkpt>
      <trkpt lat="50.54365" lon="2.66828">
        <ele>21.803</ele>
        <time>2019-09-17T10:52:36.001Z</time>
      </trkpt>
      <trkpt lat="50.5435" lon="2.66832">
        <ele>21.782</ele>
        <time>2019-09-17T10:52:39.001Z</time>
      </trkpt>
      <trkpt lat="50.54336" lon="2.66834">
        <ele>21.331</ele>
        <time>2019-09-17T10:52:42.001Z</time>
      </trkpt>
      <trkpt lat="50.5432" lon="2.66836">
        <ele>21.254</ele>
        <time>2019-09-17T10:52:45.001Z</time>
      </trkpt>
      <trkpt lat="50.54304" lon="2.66836">
        <ele>21.823</ele>
        <time>2019-09-17T10:52:48.001Z</time>
      </trkpt>
      <trkpt lat="50.54288" lon="2.66835">
        <ele>22.791</ele>
        <time>2019-09-17T10:52:51.001Z</time>
      </trkpt>
      <trkpt lat="50.54274" lon="2.66836">
        <ele>23.755</ele>
        <time>2019-09-17T10:52:54.001Z</time>
      </trkpt>
      <trkpt lat="50.54259" lon="2.66838">
        <ele>24.691</ele>
        <time>2019-09-17T10:52:57.001Z</time>
      </trkpt>
      <trkpt lat="50.54243" lon="2.66845">
        <ele>24.001</ele>
        <time>2019-09-17T10:53:00.000Z</time>
      </trkpt>
      <trkpt lat="50.54228" lon="2.66853">
        <ele>24.306</ele>
        <time>2019-09-17T10:53:03.001Z</time>
      </trkpt>
      <trkpt lat="50.54213" lon="2.66863">
        <ele>23.401</ele>
        <time>2019-09-17T10:53:06.001Z</time>
      </trkpt>
      <trkpt lat="50.54199" lon="2.66873">
        <ele>21.349</ele>
        <time>2019-09-17T10:53:09.001Z</time>
      </trkpt>
      <trkpt lat="50.54186" lon="2.66885">
        <ele>19.943</ele>
        <time>2019-09-17T10:53:12.001Z</time>
      </trkpt>
      <trkpt lat="50.54172" lon="2.66898">
        <ele>18.71</ele>
        <time>2019-09-17T10:53:15.001Z</time>
      </trkpt>
      <trkpt lat="50.54159" lon="2.66911">
        <ele>18.124</ele>
        <time>2019-09-17T10:53:18.001Z</time>
      </trkpt>
      <trkpt lat="50.54145" lon="2.66924">
        <ele>17.925</ele>
        <time>2019-09-17T10:53:21.001Z</time>
      </trkpt>
      <trkpt lat="50.54131" lon="2.66936">
        <ele>17.782</ele>
        <time>2019-09-17T10:53:24.001Z</time>
      </trkpt>
      <trkpt lat="50.54117" lon="2.66948">
        <ele>18.367</ele>
        <time>2019-09-17T10:53:27.001Z</time>
      </trkpt>
      <trkpt lat="50.54105" lon="2.66961">
        <ele>19.364</ele>
        <time>2019-09-17T10:53:30.001Z</time>
      </trkpt>
      <trkpt lat="50.54091" lon="2.66974">
        <ele>19.495</ele>
        <time>2019-09-17T10:53:33.001Z</time>
      </trkpt>
      <trkpt lat="50.54077" lon="2.66987">
        <ele>18.864</ele>
        <time>2019-09-17T10:53:36.001Z</time>
      </trkpt>
      <trkpt lat="50.54062" lon="2.66999">
        <ele>19.166</ele>
        <time>2019-09-17T10:53:39.001Z</time>
      </trkpt>
      <trkpt lat="50.54047" lon="2.67011">
        <ele>19.669</ele>
        <time>2019-09-17T10:53:42.001Z</time>
      </trkpt>
      <trkpt lat="50.54033" lon="2.67023">
        <ele>19.305</ele>
        <time>2019-09-17T10:53:45.001Z</time>
      </trkpt>
      <trkpt lat="50.54019" lon="2.67035">
        <ele>18.42</ele>
        <time>2019-09-17T10:53:48.001Z</time>
      </trkpt>
      <trkpt lat="50.54005" lon="2.67047">
        <ele>17.998</ele>
        <time>2019-09-17T10:53:51.001Z</time>
      </trkpt>
      <trkpt lat="50.53992" lon="2.67059">
        <ele>18.261</ele>
        <time>2019-09-17T10:53:54.001Z</time>
      </trkpt>
      <trkpt lat="50.53976" lon="2.6707">
        <ele>17.615</ele>
        <time>2019-09-17T10:53:57.001Z</time>
      </trkpt>
      <trkpt lat="50.53963" lon="2.67081">
        <ele>17.733</ele>
        <time>2019-09-17T10:54:00.000Z</time>
      </trkpt>
      <trkpt lat="50.53949" lon="2.67094">
        <ele>17.907</ele>
        <time>2019-09-17T10:54:03.001Z</time>
      </trkpt>
      <trkpt lat="50.53936" lon="2.67108">
        <ele>17.532</ele>
        <time>2019-09-17T10:54:06.001Z</time>
      </trkpt>
      <trkpt lat="50.53924" lon="2.67122">
        <ele>17.097</ele>
        <time>2019-09-17T10:54:09.001Z</time>
      </trkpt>
      <trkpt lat="50.53911" lon="2.67138">
        <ele>17.703</ele>
        <time>2019-09-17T10:54:12.001Z</time>
      </trkpt>
      <trkpt lat="50.539" lon="2.67153">
        <ele>18.084</ele>
        <time>2019-09-17T10:54:15.001Z</time>
      </trkpt>
      <trkpt lat="50.53888" lon="2.67168">
        <ele>17.645</ele>
        <time>2019-09-17T10:54:18.001Z</time>
      </trkpt>
      <trkpt lat="50.53874" lon="2.67184">
        <ele>17.4</ele>
        <time>2019-09-17T10:54:21.001Z</time>
      </trkpt>
      <trkpt lat="50.53862" lon="2.67202">
        <ele>17.931</ele>
        <time>2019-09-17T10:54:24.001Z</time>
      </trkpt>
      <trkpt lat="50.53851" lon="2.67221">
        <ele>17.889</ele>
        <time>2019-09-17T10:54:27.001Z</time>
      </trkpt>
      <trkpt lat="50.5384" lon="2.6724">
        <ele>17.42</ele>
        <time>2019-09-17T10:54:30.001Z</time>
      </trkpt>
      <trkpt lat="50.53829" lon="2.67258">
        <ele>17.317</ele>
        <time>2019-09-17T10:54:33.001Z</time>
      </trkpt>
      <trkpt lat="50.53818" lon="2.67274">
        <ele>17.107</ele>
        <time>2019-09-17T10:54:36.001Z</time>
      </trkpt>
      <trkpt lat="50.53806" lon="2.67282">
        <ele>16.534</ele>
        <time>2019-09-17T10:54:39.001Z</time>
      </trkpt>
      <trkpt lat="50.538" lon="2.67293">
        <ele>16.021</ele>
        <time>2019-09-17T10:54:42.001Z</time>
      </trkpt>
      <trkpt lat="50.53796" lon="2.67309">
        <ele>15.895</ele>
        <time>2019-09-17T10:54:45.001Z</time>
      </trkpt>
      <trkpt lat="50.53792" lon="2.67326">
        <ele>15.868</ele>
        <time>2019-09-17T10:54:48.001Z</time>
      </trkpt>
      <trkpt lat="50.53787" lon="2.67346">
        <ele>15.66</ele>
        <time>2019-09-17T10:54:51.001Z</time>
      </trkpt>
      <trkpt lat="50.53781" lon="2.67366">
        <ele>16.01</ele>
        <time>2019-09-17T10:54:54.001Z</time>
      </trkpt>
      <trkpt lat="50.53776" lon="2.67386">
        <ele>16.291</ele>
        <time>2019-09-17T10:54:57.001Z</time>
      </trkpt>
      <trkpt lat="50.5377" lon="2.67407">
        <ele>16.656</ele>
        <time>2019-09-17T10:55:00.000Z</time>
      </trkpt>
      <trkpt lat="50.53765" lon="2.67427">
        <ele>17.218</ele>
        <time>2019-09-17T10:55:03.001Z</time>
      </trkpt>
      <trkpt lat="50.5376" lon="2.67446">
        <ele>17.826</ele>
        <time>2019-09-17T10:55:06.001Z</time>
      </trkpt>
      <trkpt lat="50.53755" lon="2.67465">
        <ele>18.562</ele>
        <time>2019-09-17T10:55:09.001Z</time>
      </trkpt>
      <trkpt lat="50.53752" lon="2.67485">
        <ele>18.848</ele>
        <time>2019-09-17T10:55:12.001Z</time>
      </trkpt>
      <trkpt lat="50.53748" lon="2.67504">
        <ele>18.991</ele>
        <time>2019-09-17T10:55:15.001Z</time>
      </trkpt>
      <trkpt lat="50.53745" lon="2.67524">
        <ele>19.176</ele>
        <time>2019-09-17T10:55:18.001Z</time>
      </trkpt>
      <trkpt lat="50.53742" lon="2.67544">
        <ele>18.96</ele>
        <time>2019-09-17T10:55:21.001Z</time>
      </trkpt>
      <trkpt lat="50.53739" lon="2.67565">
        <ele>18.843</ele>
        <time>2019-09-17T10:55:24.001Z</time>
      </trkpt>
      <trkpt lat="50.53736" lon="2.67587">
        <ele>18.533</ele>
        <time>2019-09-17T10:55:27.001Z</time>
      </trkpt>
      <trkpt lat="50.53733" lon="2.67608">
        <ele>18.189</ele>
        <time>2019-09-17T10:55:30.001Z</time>
      </trkpt>
      <trkpt lat="50.5373" lon="2.67629">
        <ele>18.402</ele>
        <time>2019-09-17T10:55:33.001Z</time>
      </trkpt>
      <trkpt lat="50.53727" lon="2.67649">
        <ele>18.218</ele>
        <time>2019-09-17T10:55:36.001Z</time>
      </trkpt>
      <trkpt lat="50.53725" lon="2.67669">
        <ele>17.634</ele>
        <time>2019-09-17T10:55:39.001Z</time>
      </trkpt>
      <trkpt lat="50.53724" lon="2.67687">
        <ele>17.43</ele>
        <time>2019-09-17T10:55:42.001Z</time>
      </trkpt>
      <trkpt lat="50.53722" lon="2.67707">
        <ele>17.207</ele>
        <time>2019-09-17T10:55:45.001Z</time>
      </trkpt>
      <trkpt lat="50.53719" lon="2.67728">
        <ele>17.16</ele>
        <time>2019-09-17T10:55:48.001Z</time>
      </trkpt>
      <trkpt lat="50.53717" lon="2.67748">
        <ele>17.525</ele>
        <time>2019-09-17T10:55:51.001Z</time>
      </trkpt>
      <trkpt lat="50.53716" lon="2.67769">
        <ele>17.767</ele>
        <time>2019-09-17T10:55:54.001Z</time>
      </trkpt>
      <trkpt lat="50.53715" lon="2.67793">
        <ele>17.898</ele>
        <time>2019-09-17T10:55:57.001Z</time>
      </trkpt>
      <trkpt lat="50.53719" lon="2.67818">
        <ele>17.524</ele>
        <time>2019-09-17T10:56:00.000Z</time>
      </trkpt>
      <trkpt lat="50.53725" lon="2.67838">
        <ele>17.271</ele>
        <time>2019-09-17T10:56:03.001Z</time>
      </trkpt>
      <trkpt lat="50.53729" lon="2.67859">
        <ele>17.069</ele>
        <time>2019-09-17T10:56:06.001Z</time>
      </trkpt>
      <trkpt lat="50.53731" lon="2.6788">
        <ele>16.229</ele>
        <time>2019-09-17T10:56:09.001Z</time>
      </trkpt>
      <trkpt lat="50.5373" lon="2.679">
        <ele>15.441</ele>
        <time>2019-09-17T10:56:12.001Z</time>
      </trkpt>
      <trkpt lat="50.53727" lon="2.6792">
        <ele>14.646</ele>
        <time>2019-09-17T10:56:15.001Z</time>
      </trkpt>
      <trkpt lat="50.5372" lon="2.67941">
        <ele>13.896</ele>
        <time>2019-09-17T10:56:18.001Z</time>
      </trkpt>
      <trkpt lat="50.53713" lon="2.67959">
        <ele>13.891</ele>
        <time>2019-09-17T10:56:21.001Z</time>
      </trkpt>
      <trkpt lat="50.53708" lon="2.67979">
        <ele>14.562</ele>
        <time>2019-09-17T10:56:24.001Z</time>
      </trkpt>
      <trkpt lat="50.53706" lon="2.68002">
        <ele>15.013</ele>
        <time>2019-09-17T10:56:27.001Z</time>
      </trkpt>
      <trkpt lat="50.53705" lon="2.68026">
        <ele>15.15</ele>
        <time>2019-09-17T10:56:30.001Z</time>
      </trkpt>
      <trkpt lat="50.53706" lon="2.68049">
        <ele>14.98</ele>
        <time>2019-09-17T10:56:33.001Z</time>
      </trkpt>
      <trkpt lat="50.53706" lon="2.68071">
        <ele>14.762</ele>
        <time>2019-09-17T10:56:36.001Z</time>
      </trkpt>
      <trkpt lat="50.53707" lon="2.68093">
        <ele>13.906</ele>
        <time>2019-09-17T10:56:39.001Z</time>
      </trkpt>
      <trkpt lat="50.53707" lon="2.68116">
        <ele>13.657</ele>
        <time>2019-09-17T10:56:42.001Z</time>
      </trkpt>
      <trkpt lat="50.53709" lon="2.68139">
        <ele>13.456</ele>
        <time>2019-09-17T10:56:45.001Z</time>
      </trkpt>
      <trkpt lat="50.5371" lon="2.68162">
        <ele>13.473</ele>
        <time>2019-09-17T10:56:48.001Z</time>
      </trkpt>
      <trkpt lat="50.53711" lon="2.68183">
        <ele>13.681</ele>
        <time>2019-09-17T10:56:51.001Z</time>
      </trkpt>
      <trkpt lat="50.53712" lon="2.68205">
        <ele>13.561</ele>
        <time>2019-09-17T10:56:54.001Z</time>
      </trkpt>
      <trkpt lat="50.53713" lon="2.68227">
        <ele>13.493</ele>
        <time>2019-09-17T10:56:57.001Z</time>
      </trkpt>
      <trkpt lat="50.53714" lon="2.68249">
        <ele>13.535</ele>
        <time>2019-09-17T10:57:00.000Z</time>
      </trkpt>
      <trkpt lat="50.53716" lon="2.68271">
        <ele>13.11</ele>
        <time>2019-09-17T10:57:03.001Z</time>
      </trkpt>
      <trkpt lat="50.53718" lon="2.68293">
        <ele>12.923</ele>
        <time>2019-09-17T10:57:06.001Z</time>
      </trkpt>
      <trkpt lat="50.53718" lon="2.68313">
        <ele>12.769</ele>
        <time>2019-09-17T10:57:09.001Z</time>
      </trkpt>
      <trkpt lat="50.53719" lon="2.68334">
        <ele>12.978</ele>
        <time>2019-09-17T10:57:12.001Z</time>
      </trkpt>
      <trkpt lat="50.5372" lon="2.68354">
        <ele>12.719</ele>
        <time>2019-09-17T10:57:15.001Z</time>
      </trkpt>
      <trkpt lat="50.53722" lon="2.68375">
        <ele>12.341</ele>
        <time>2019-09-17T10:57:18.001Z</time>
      </trkpt>
      <trkpt lat="50.53723" lon="2.68397">
        <ele>12.075</ele>
        <time>2019-09-17T10:57:21.001Z</time>
      </trkpt>
      <trkpt lat="50.53724" lon="2.68419">
        <ele>11.628</ele>
        <time>2019-09-17T10:57:24.001Z</time>
      </trkpt>
      <trkpt lat="50.53725" lon="2.68441">
        <ele>11.637</ele>
        <time>2019-09-17T10:57:27.001Z</time>
      </trkpt>
      <trkpt lat="50.53726" lon="2.68462">
        <ele>11.187</ele>
        <time>2019-09-17T10:57:30.001Z</time>
      </trkpt>
      <trkpt lat="50.53727" lon="2.68485">
        <ele>10.902</ele>
        <time>2019-09-17T10:57:33.001Z</time>
      </trkpt>
      <trkpt lat="50.53728" lon="2.68508">
        <ele>11.054</ele>
        <time>2019-09-17T10:57:36.001Z</time>
      </trkpt>
      <trkpt lat="50.53728" lon="2.6853">
        <ele>10.931</ele>
        <time>2019-09-17T10:57:39.001Z</time>
      </trkpt>
      <trkpt lat="50.53729" lon="2.68553">
        <ele>10.758</ele>
        <time>2019-09-17T10:57:42.001Z</time>
      </trkpt>
      <trkpt lat="50.53729" lon="2.68576">
        <ele>10.477</ele>
        <time>2019-09-17T10:57:45.001Z</time>
      </trkpt>
      <trkpt lat="50.53729" lon="2.68597">
        <ele>10.819</ele>
        <time>2019-09-17T10:57:48.001Z</time>
      </trkpt>
      <trkpt lat="50.53728" lon="2.68619">
        <ele>11.534</ele>
        <time>2019-09-17T10:57:51.001Z</time>
      </trkpt>
      <trkpt lat="50.53728" lon="2.68641">
        <ele>11.785</ele>
        <time>2019-09-17T10:57:54.001Z</time>
      </trkpt>
      <trkpt lat="50.53728" lon="2.68661">
        <ele>12.49</ele>
        <time>2019-09-17T10:57:57.001Z</time>
      </trkpt>
      <trkpt lat="50.53727" lon="2.68685">
        <ele>13.194</ele>
        <time>2019-09-17T10:58:00.000Z</time>
      </trkpt>
      <trkpt lat="50.53727" lon="2.68708">
        <ele>13.802</ele>
        <time>2019-09-17T10:58:03.001Z</time>
      </trkpt>
      <trkpt lat="50.53727" lon="2.68732">
        <ele>13.188</ele>
        <time>2019-09-17T10:58:06.001Z</time>
      </trkpt>
      <trkpt lat="50.53723" lon="2.68756">
        <ele>12.311</ele>
        <time>2019-09-17T10:58:09.001Z</time>
      </trkpt>
      <trkpt lat="50.53716" lon="2.68777">
        <ele>12.529</ele>
        <time>2019-09-17T10:58:12.001Z</time>
      </trkpt>
      <trkpt lat="50.53715" lon="2.688">
        <ele>11.726</ele>
        <time>2019-09-17T10:58:15.001Z</time>
      </trkpt>
      <trkpt lat="50.53714" lon="2.68826">
        <ele>12.782</ele>
        <time>2019-09-17T10:58:18.001Z</time>
      </trkpt>
      <trkpt lat="50.53711" lon="2.68848">
        <ele>13.86</ele>
        <time>2019-09-17T10:58:21.001Z</time>
      </trkpt>
      <trkpt lat="50.53708" lon="2.6887">
        <ele>14.904</ele>
        <time>2019-09-17T10:58:24.001Z</time>
      </trkpt>
      <trkpt lat="50.53705" lon="2.68891">
        <ele>16.014</ele>
        <time>2019-09-17T10:58:27.001Z</time>
      </trkpt>
      <trkpt lat="50.53702" lon="2.68911">
        <ele>16.385</ele>
        <time>2019-09-17T10:58:30.001Z</time>
      </trkpt>
      <trkpt lat="50.537" lon="2.68931">
        <ele>16.526</ele>
        <time>2019-09-17T10:58:33.001Z</time>
      </trkpt>
      <trkpt lat="50.53698" lon="2.68951">
        <ele>16.533</ele>
        <time>2019-09-17T10:58:36.001Z</time>
      </trkpt>
      <trkpt lat="50.53695" lon="2.68972">
        <ele>15.967</ele>
        <time>2019-09-17T10:58:39.001Z</time>
      </trkpt>
      <trkpt lat="50.5369" lon="2.68995">
        <ele>16.327</ele>
        <time>2019-09-17T10:58:42.001Z</time>
      </trkpt>
      <trkpt lat="50.53684" lon="2.69016">
        <ele>16.914</ele>
        <time>2019-09-17T10:58:45.001Z</time>
      </trkpt>
      <trkpt lat="50.53679" lon="2.69038">
        <ele>17.28</ele>
        <time>2019-09-17T10:58:48.001Z</time>
      </trkpt>
      <trkpt lat="50.53675" lon="2.6906">
        <ele>17.237</ele>
        <time>2019-09-17T10:58:51.001Z</time>
      </trkpt>
      <trkpt lat="50.53668" lon="2.69079">
        <ele>16.792</ele>
        <time>2019-09-17T10:58:54.001Z</time>
      </trkpt>
      <trkpt lat="50.53657" lon="2.69098">
        <ele>16.631</ele>
        <time>2019-09-17T10:58:57.001Z</time>
      </trkpt>
      <trkpt lat="50.53649" lon="2.69114">
        <ele>16.452</ele>
        <time>2019-09-17T10:59:00.000Z</time>
      </trkpt>
      <trkpt lat="50.53646" lon="2.69131">
        <ele>15.638</ele>
        <time>2019-09-17T10:59:03.001Z</time>
      </trkpt>
      <trkpt lat="50.53641" lon="2.69152">
        <ele>15.513</ele>
        <time>2019-09-17T10:59:06.001Z</time>
      </trkpt>
      <trkpt lat="50.53636" lon="2.69172">
        <ele>15.217</ele>
        <time>2019-09-17T10:59:09.001Z</time>
      </trkpt>
      <trkpt lat="50.53632" lon="2.69194">
        <ele>15.586</ele>
        <time>2019-09-17T10:59:12.001Z</time>
      </trkpt>
      <trkpt lat="50.53629" lon="2.69216">
        <ele>16.485</ele>
        <time>2019-09-17T10:59:15.001Z</time>
      </trkpt>
      <trkpt lat="50.53625" lon="2.69236">
        <ele>16.01</ele>
        <time>2019-09-17T10:59:18.001Z</time>
      </trkpt>
      <trkpt lat="50.5362" lon="2.69256">
        <ele>15.515</ele>
        <time>2019-09-17T10:59:21.001Z</time>
      </trkpt>
      <trkpt lat="50.53615" lon="2.69276">
        <ele>16.017</ele>
        <time>2019-09-17T10:59:24.001Z</time>
      </trkpt>
      <trkpt lat="50.53609" lon="2.69295">
        <ele>16.128</ele>
        <time>2019-09-17T10:59:27.001Z</time>
      </trkpt>
      <trkpt lat="50.53604" lon="2.69314">
        <ele>16.162</ele>
        <time>2019-09-17T10:59:30.001Z</time>
      </trkpt>
      <trkpt lat="50.53599" lon="2.69333">
        <ele>16.039</ele>
        <time>2019-09-17T10:59:33.001Z</time>
      </trkpt>
      <trkpt lat="50.53594" lon="2.69352">
        <ele>16.44</ele>
        <time>2019-09-17T10:59:36.001Z</time>
      </trkpt>
      <trkpt lat="50.53588" lon="2.69372">
        <ele>16.736</ele>
        <time>2019-09-17T10:59:39.001Z</time>
      </trkpt>
      <trkpt lat="50.53583" lon="2.69392">
        <ele>17.158</ele>
        <time>2019-09-17T10:59:42.001Z</time>
      </trkpt>
      <trkpt lat="50.53578" lon="2.69412">
        <ele>17.304</ele>
        <time>2019-09-17T10:59:45.001Z</time>
      </trkpt>
      <trkpt lat="50.53573" lon="2.69429">
        <ele>17.287</ele>
        <time>2019-09-17T10:59:48.001Z</time>
      </trkpt>
      <trkpt lat="50.53567" lon="2.69447">
        <ele>16.828</ele>
        <time>2019-09-17T10:59:51.001Z</time>
      </trkpt>
      <trkpt lat="50.53562" lon="2.69466">
        <ele>17.127</ele>
        <time>2019-09-17T10:59:54.001Z</time>
      </trkpt>
      <trkpt lat="50.53557" lon="2.69486">
        <ele>17.383</ele>
        <time>2019-09-17T10:59:57.001Z</time>
      </trkpt>
      <trkpt lat="50.53551" lon="2.69504">
        <ele>18.242</ele>
        <time>2019-09-17T11:00:00.000Z</time>
      </trkpt>
      <trkpt lat="50.53545" lon="2.69525">
        <ele>18.984</ele>
        <time>2019-09-17T11:00:03.001Z</time>
      </trkpt>
      <trkpt lat="50.5354" lon="2.69546">
        <ele>19.52</ele>
        <time>2019-09-17T11:00:06.001Z</time>
      </trkpt>
      <trkpt lat="50.53534" lon="2.69567">
        <ele>19.422</ele>
        <time>2019-09-17T11:00:09.001Z</time>
      </trkpt>
      <trkpt lat="50.53529" lon="2.69588">
        <ele>19.162</ele>
        <time>2019-09-17T11:00:12.001Z</time>
      </trkpt>
      <trkpt lat="50.53524" lon="2.69609">
        <ele>19.286</ele>
        <time>2019-09-17T11:00:15.001Z</time>
      </trkpt>
      <trkpt lat="50.53519" lon="2.69629">
        <ele>19.61</ele>
        <time>2019-09-17T11:00:18.001Z</time>
      </trkpt>
      <trkpt lat="50.53513" lon="2.69649">
        <ele>19.479</ele>
        <time>2019-09-17T11:00:21.001Z</time>
      </trkpt>
      <trkpt lat="50.53508" lon="2.69669">
        <ele>19.834</ele>
        <time>2019-09-17T11:00:24.001Z</time>
      </trkpt>
      <trkpt lat="50.53505" lon="2.6969">
        <ele>19.751</ele>
        <time>2019-09-17T11:00:27.001Z</time>
      </trkpt>
      <trkpt lat="50.53503" lon="2.6971">
        <ele>20.098</ele>
        <time>2019-09-17T11:00:30.001Z</time>
      </trkpt>
      <trkpt lat="50.53501" lon="2.69729">
        <ele>20.163</ele>
        <time>2019-09-17T11:00:33.001Z</time>
      </trkpt>
      <trkpt lat="50.53496" lon="2.69749">
        <ele>20.139</ele>
        <time>2019-09-17T11:00:36.001Z</time>
      </trkpt>
      <trkpt lat="50.53491" lon="2.6977">
        <ele>19.583</ele>
        <time>2019-09-17T11:00:39.001Z</time>
      </trkpt>
      <trkpt lat="50.53486" lon="2.6979">
        <ele>19.246</ele>
        <time>2019-09-17T11:00:42.001Z</time>
      </trkpt>
      <trkpt lat="50.5348" lon="2.69809">
        <ele>18.642</ele>
        <time>2019-09-17T11:00:45.001Z</time>
      </trkpt>
      <trkpt lat="50.53475" lon="2.69829">
        <ele>18.687</ele>
        <time>2019-09-17T11:00:48.001Z</time>
      </trkpt>
      <trkpt lat="50.53469" lon="2.6985">
        <ele>19.075</ele>
        <time>2019-09-17T11:00:51.001Z</time>
      </trkpt>
      <trkpt lat="50.53463" lon="2.69871">
        <ele>19.659</ele>
        <time>2019-09-17T11:00:54.001Z</time>
      </trkpt>
      <trkpt lat="50.53457" lon="2.69891">
        <ele>20.011</ele>
        <time>2019-09-17T11:00:57.001Z</time>
      </trkpt>
      <trkpt lat="50.53451" lon="2.69909">
        <ele>20.047</ele>
        <time>2019-09-17T11:01:00.000Z</time>
      </trkpt>
      <trkpt lat="50.53442" lon="2.69927">
        <ele>20.353</ele>
        <time>2019-09-17T11:01:03.001Z</time>
      </trkpt>
      <trkpt lat="50.53436" lon="2.69947">
        <ele>20.907</ele>
        <time>2019-09-17T11:01:06.001Z</time>
      </trkpt>
      <trkpt lat="50.53431" lon="2.69967">
        <ele>21.038</ele>
        <time>2019-09-17T11:01:09.001Z</time>
      </trkpt>
      <trkpt lat="50.53425" lon="2.69988">
        <ele>21.159</ele>
        <time>2019-09-17T11:01:12.001Z</time>
      </trkpt>
      <trkpt lat="50.5342" lon="2.70008">
        <ele>20.812</ele>
        <time>2019-09-17T11:01:15.001Z</time>
      </trkpt>
      <trkpt lat="50.53415" lon="2.70029">
        <ele>20.367</ele>
        <time>2019-09-17T11:01:18.001Z</time>
      </trkpt>
      <trkpt lat="50.53408" lon="2.7005">
        <ele>19.626</ele>
        <time>2019-09-17T11:01:21.001Z</time>
      </trkpt>
      <trkpt lat="50.53402" lon="2.7007">
        <ele>19.082</ele>
        <time>2019-09-17T11:01:24.001Z</time>
      </trkpt>
      <trkpt lat="50.53397" lon="2.70088">
        <ele>19.179</ele>
        <time>2019-09-17T11:01:27.001Z</time>
      </trkpt>
      <trkpt lat="50.53392" lon="2.70107">
        <ele>19.086</ele>
        <time>2019-09-17T11:01:30.001Z</time>
      </trkpt>
      <trkpt lat="50.53387" lon="2.70124">
        <ele>19.19</ele>
        <time>2019-09-17T11:01:33.001Z</time>
      </trkpt>
      <trkpt lat="50.53383" lon="2.70143">
        <ele>19.318</ele>
        <time>2019-09-17T11:01:36.001Z</time>
      </trkpt>
      <trkpt lat="50.53378" lon="2.70163">
        <ele>19.196</ele>
        <time>2019-09-17T11:01:39.001Z</time>
      </trkpt>
      <trkpt lat="50.53373" lon="2.70183">
        <ele>18.359</ele>
        <time>2019-09-17T11:01:42.001Z</time>
      </trkpt>
      <trkpt lat="50.53367" lon="2.70203">
        <ele>17.345</ele>
        <time>2019-09-17T11:01:45.001Z</time>
      </trkpt>
      <trkpt lat="50.53362" lon="2.70222">
        <ele>16.961</ele>
        <time>2019-09-17T11:01:48.001Z</time>
      </trkpt>
      <trkpt lat="50.53357" lon="2.70241">
        <ele>16.932</ele>
        <time>2019-09-17T11:01:51.001Z</time>
      </trkpt>
      <trkpt lat="50.53351" lon="2.70264">
        <ele>16.716</ele>
        <time>2019-09-17T11:01:54.001Z</time>
      </trkpt>
      <trkpt lat="50.53345" lon="2.70286">
        <ele>16.321</ele>
        <time>2019-09-17T11:01:57.001Z</time>
      </trkpt>
      <trkpt lat="50.5334" lon="2.70308">
        <ele>15.485</ele>
        <time>2019-09-17T11:02:00.000Z</time>
      </trkpt>
      <trkpt lat="50.53336" lon="2.70328">
        <ele>15.365</ele>
        <time>2019-09-17T11:02:03.001Z</time>
      </trkpt>
      <trkpt lat="50.53331" lon="2.70348">
        <ele>15.028</ele>
        <time>2019-09-17T11:02:06.001Z</time>
      </trkpt>
      <trkpt lat="50.53326" lon="2.70367">
        <ele>14.645</ele>
        <time>2019-09-17T11:02:09.001Z</time>
      </trkpt>
      <trkpt lat="50.5332" lon="2.70388">
        <ele>14.091</ele>
        <time>2019-09-17T11:02:12.001Z</time>
      </trkpt>
      <trkpt lat="50.53315" lon="2.70411">
        <ele>13.575</ele>
        <time>2019-09-17T11:02:15.001Z</time>
      </trkpt>
      <trkpt lat="50.53309" lon="2.70434">
        <ele>14.073</ele>
        <time>2019-09-17T11:02:18.001Z</time>
      </trkpt>
      <trkpt lat="50.53303" lon="2.70456">
        <ele>15.153</ele>
        <time>2019-09-17T11:02:21.001Z</time>
      </trkpt>
      <trkpt lat="50.53297" lon="2.70476">
        <ele>15.753</ele>
        <time>2019-09-17T11:02:24.001Z</time>
      </trkpt>
      <trkpt lat="50.5329" lon="2.70496">
        <ele>16.272</ele>
        <time>2019-09-17T11:02:27.001Z</time>
      </trkpt>
      <trkpt lat="50.53284" lon="2.70517">
        <ele>16.666</ele>
        <time>2019-09-17T11:02:30.001Z</time>
      </trkpt>
      <trkpt lat="50.53278" lon="2.70538">
        <ele>16.577</ele>
        <time>2019-09-17T11:02:33.001Z</time>
      </trkpt>
      <trkpt lat="50.53272" lon="2.70558">
        <ele>16.932</ele>
        <time>2019-09-17T11:02:36.001Z</time>
      </trkpt>
      <trkpt lat="50.53267" lon="2.70578">
        <ele>16.722</ele>
        <time>2019-09-17T11:02:39.001Z</time>
      </trkpt>
      <trkpt lat="50.53262" lon="2.70599">
        <ele>16.605</ele>
        <time>2019-09-17T11:02:42.001Z</time>
      </trkpt>
      <trkpt lat="50.53257" lon="2.7062">
        <ele>16.784</ele>
        <time>2019-09-17T11:02:45.001Z</time>
      </trkpt>
      <trkpt lat="50.53252" lon="2.7064">
        <ele>16.61</ele>
        <time>2019-09-17T11:02:48.001Z</time>
      </trkpt>
      <trkpt lat="50.53247" lon="2.70661">
        <ele>16.557</ele>
        <time>2019-09-17T11:02:51.001Z</time>
      </trkpt>
      <trkpt lat="50.53242" lon="2.70681">
        <ele>16.872</ele>
        <time>2019-09-17T11:02:54.001Z</time>
      </trkpt>
      <trkpt lat="50.53236" lon="2.70702">
        <ele>17.294</ele>
        <time>2019-09-17T11:02:57.001Z</time>
      </trkpt>
      <trkpt lat="50.5323" lon="2.70724">
        <ele>17.358</ele>
        <time>2019-09-17T11:03:00.000Z</time>
      </trkpt>
      <trkpt lat="50.53224" lon="2.70745">
        <ele>17.622</ele>
        <time>2019-09-17T11:03:03.001Z</time>
      </trkpt>
      <trkpt lat="50.53218" lon="2.70766">
        <ele>17.765</ele>
        <time>2019-09-17T11:03:06.001Z</time>
      </trkpt>
      <trkpt lat="50.53211" lon="2.70788">
        <ele>17.845</ele>
        <time>2019-09-17T11:03:09.001Z</time>
      </trkpt>
      <trkpt lat="50.53206" lon="2.70808">
        <ele>17.867</ele>
        <time>2019-09-17T11:03:12.001Z</time>
      </trkpt>
      <trkpt lat="50.53201" lon="2.70829">
        <ele>17.662</ele>
        <time>2019-09-17T11:03:15.001Z</time>
      </trkpt>
      <trkpt lat="50.53196" lon="2.70849">
        <ele>17.451</ele>
        <time>2019-09-17T11:03:18.001Z</time>
      </trkpt>
      <trkpt lat="50.53191" lon="2.70872">
        <ele>17.263</ele>
        <time>2019-09-17T11:03:21.001Z</time>
      </trkpt>
      <trkpt lat="50.53186" lon="2.70891">
        <ele>17.529</ele>
        <time>2019-09-17T11:03:24.001Z</time>
      </trkpt>
      <trkpt lat="50.53184" lon="2.70906">
        <ele>17.239</ele>
        <time>2019-09-17T11:03:27.001Z</time>
      </trkpt>
      <trkpt lat="50.53181" lon="2.70918">
        <ele>16.836</ele>
        <time>2019-09-17T11:03:30.001Z</time>
      </trkpt>
      <trkpt lat="50.53178" lon="2.70931">
        <ele>17.117</ele>
        <time>2019-09-17T11:03:33.001Z</time>
      </trkpt>
      <trkpt lat="50.53174" lon="2.70942">
        <ele>17.509</ele>
        <time>2019-09-17T11:03:36.001Z</time>
      </trkpt>
      <trkpt lat="50.53172" lon="2.70953">
        <ele>18.276</ele>
        <time>2019-09-17T11:03:39.001Z</time>
      </trkpt>
      <trkpt lat="50.53169" lon="2.70966">
        <ele>18.615</ele>
        <time>2019-09-17T11:03:42.001Z</time>
      </trkpt>
      <trkpt lat="50.53164" lon="2.70981">
        <ele>19.207</ele>
        <time>2019-09-17T11:03:45.001Z</time>
      </trkpt>
      <trkpt lat="50.5316" lon="2.70994">
        <ele>20.117</ele>
        <time>2019-09-17T11:03:48.001Z</time>
      </trkpt>
      <trkpt lat="50.53156" lon="2.71007">
        <ele>20.744</ele>
        <time>2019-09-17T11:03:51.001Z</time>
      </trkpt>
      <trkpt lat="50.53151" lon="2.71022">
        <ele>20.528</ele>
        <time>2019-09-17T11:03:54.001Z</time>
      </trkpt>
      <trkpt lat="50.53143" lon="2.71047">
        <ele>20.133</ele>
        <time>2019-09-17T11:03:57.001Z</time>
      </trkpt>
      <trkpt lat="50.53136" lon="2.71077">
        <ele>19.443</ele>
        <time>2019-09-17T11:04:00.000Z</time>
      </trkpt>
      <trkpt lat="50.53129" lon="2.71107">
        <ele>18.515</ele>
        <time>2019-09-17T11:04:03.001Z</time>
      </trkpt>
      <trkpt lat="50.53123" lon="2.71131">
        <ele>18.516</ele>
        <time>2019-09-17T11:04:06.001Z</time>
      </trkpt>
      <trkpt lat="50.5312" lon="2.71146">
        <ele>18.152</ele>
        <time>2019-09-17T11:04:09.001Z</time>
      </trkpt>
      <trkpt lat="50.53118" lon="2.71158">
        <ele>18.093</ele>
        <time>2019-09-17T11:04:12.001Z</time>
      </trkpt>
      <trkpt lat="50.53114" lon="2.71169">
        <ele>18.197</ele>
        <time>2019-09-17T11:04:15.001Z</time>
      </trkpt>
      <trkpt lat="50.5311" lon="2.7118">
        <ele>19.148</ele>
        <time>2019-09-17T11:04:18.001Z</time>
      </trkpt>
      <trkpt lat="50.53105" lon="2.71193">
        <ele>20.067</ele>
        <time>2019-09-17T11:04:21.001Z</time>
      </trkpt>
      <trkpt lat="50.53101" lon="2.71207">
        <ele>21.156</ele>
        <time>2019-09-17T11:04:24.001Z</time>
      </trkpt>
      <trkpt lat="50.53098" lon="2.7122">
        <ele>21.801</ele>
        <time>2019-09-17T11:04:27.001Z</time>
      </trkpt>
      <trkpt lat="50.53095" lon="2.71232">
        <ele>22.037</ele>
        <time>2019-09-17T11:04:30.001Z</time>
      </trkpt>
      <trkpt lat="50.53092" lon="2.71244">
        <ele>22.865</ele>
        <time>2019-09-17T11:04:33.001Z</time>
      </trkpt>
      <trkpt lat="50.53088" lon="2.71256">
        <ele>23.451</ele>
        <time>2019-09-17T11:04:36.001Z</time>
      </trkpt>
      <trkpt lat="50.53084" lon="2.71271">
        <ele>23.889</ele>
        <time>2019-09-17T11:04:39.001Z</time>
      </trkpt>
      <trkpt lat="50.5308" lon="2.71287">
        <ele>23.699</ele>
        <time>2019-09-17T11:04:42.001Z</time>
      </trkpt>
      <trkpt lat="50.53074" lon="2.71306">
        <ele>23.304</ele>
        <time>2019-09-17T11:04:45.001Z</time>
      </trkpt>
      <trkpt lat="50.53067" lon="2.71332">
        <ele>22.866</ele>
        <time>2019-09-17T11:04:48.001Z</time>
      </trkpt>
      <trkpt lat="50.53057" lon="2.71361">
        <ele>21.956</ele>
        <time>2019-09-17T11:04:51.001Z</time>
      </trkpt>
      <trkpt lat="50.53049" lon="2.71387">
        <ele>21.487</ele>
        <time>2019-09-17T11:04:54.001Z</time>
      </trkpt>
      <trkpt lat="50.53042" lon="2.7141">
        <ele>21.259</ele>
        <time>2019-09-17T11:04:57.001Z</time>
      </trkpt>
      <trkpt lat="50.53037" lon="2.71434">
        <ele>21.239</ele>
        <time>2019-09-17T11:05:00.000Z</time>
      </trkpt>
      <trkpt lat="50.53031" lon="2.71457">
        <ele>21.109</ele>
        <time>2019-09-17T11:05:03.001Z</time>
      </trkpt>
      <trkpt lat="50.53025" lon="2.71482">
        <ele>21.089</ele>
        <time>2019-09-17T11:05:06.001Z</time>
      </trkpt>
      <trkpt lat="50.53019" lon="2.71507">
        <ele>21.472</ele>
        <time>2019-09-17T11:05:09.001Z</time>
      </trkpt>
      <trkpt lat="50.53013" lon="2.71528">
        <ele>20.814</ele>
        <time>2019-09-17T11:05:12.001Z</time>
      </trkpt>
      <trkpt lat="50.53007" lon="2.71551">
        <ele>20.999</ele>
        <time>2019-09-17T11:05:15.001Z</time>
      </trkpt>
      <trkpt lat="50.53001" lon="2.71573">
        <ele>20.357</ele>
        <time>2019-09-17T11:05:18.001Z</time>
      </trkpt>
      <trkpt lat="50.52996" lon="2.71594">
        <ele>19.879</ele>
        <time>2019-09-17T11:05:21.001Z</time>
      </trkpt>
      <trkpt lat="50.52991" lon="2.71616">
        <ele>19.103</ele>
        <time>2019-09-17T11:05:24.001Z</time>
      </trkpt>
      <trkpt lat="50.52985" lon="2.71637">
        <ele>18.741</ele>
        <time>2019-09-17T11:05:27.001Z</time>
      </trkpt>
      <trkpt lat="50.5298" lon="2.71658">
        <ele>18.011</ele>
        <time>2019-09-17T11:05:30.001Z</time>
      </trkpt>
      <trkpt lat="50.52975" lon="2.71681">
        <ele>17.326</ele>
        <time>2019-09-17T11:05:33.001Z</time>
      </trkpt>
      <trkpt lat="50.52969" lon="2.71705">
        <ele>16.659</ele>
        <time>2019-09-17T11:05:36.001Z</time>
      </trkpt>
      <trkpt lat="50.52963" lon="2.71728">
        <ele>15.986</ele>
        <time>2019-09-17T11:05:39.001Z</time>
      </trkpt>
      <trkpt lat="50.52957" lon="2.7175">
        <ele>15.629</ele>
        <time>2019-09-17T11:05:42.001Z</time>
      </trkpt>
      <trkpt lat="50.52951" lon="2.71772">
        <ele>15.257</ele>
        <time>2019-09-17T11:05:45.001Z</time>
      </trkpt>
      <trkpt lat="50.52946" lon="2.71794">
        <ele>14.912</ele>
        <time>2019-09-17T11:05:48.001Z</time>
      </trkpt>
      <trkpt lat="50.5294" lon="2.71814">
        <ele>14.175</ele>
        <time>2019-09-17T11:05:51.001Z</time>
      </trkpt>
      <trkpt lat="50.52935" lon="2.71835">
        <ele>13.637</ele>
        <time>2019-09-17T11:05:54.001Z</time>
      </trkpt>
      <trkpt lat="50.5293" lon="2.71857">
        <ele>13.381</ele>
        <time>2019-09-17T11:05:57.001Z</time>
      </trkpt>
      <trkpt lat="50.52925" lon="2.71879">
        <ele>13.146</ele>
        <time>2019-09-17T11:06:00.000Z</time>
      </trkpt>
      <trkpt lat="50.5292" lon="2.719">
        <ele>13.039</ele>
        <time>2019-09-17T11:06:03.001Z</time>
      </trkpt>
      <trkpt lat="50.52914" lon="2.71921">
        <ele>12.905</ele>
        <time>2019-09-17T11:06:06.001Z</time>
      </trkpt>
      <trkpt lat="50.52909" lon="2.71943">
        <ele>12.467</ele>
        <time>2019-09-17T11:06:09.001Z</time>
      </trkpt>
      <trkpt lat="50.52904" lon="2.71964">
        <ele>12.603</ele>
        <time>2019-09-17T11:06:12.001Z</time>
      </trkpt>
      <trkpt lat="50.52898" lon="2.71984">
        <ele>12.314</ele>
        <time>2019-09-17T11:06:15.001Z</time>
      </trkpt>
      <trkpt lat="50.52891" lon="2.72004">
        <ele>12.535</ele>
        <time>2019-09-17T11:06:18.001Z</time>
      </trkpt>
      <trkpt lat="50.52885" lon="2.72025">
        <ele>13.146</ele>
        <time>2019-09-17T11:06:21.001Z</time>
      </trkpt>
      <trkpt lat="50.52879" lon="2.72046">
        <ele>13.262</ele>
        <time>2019-09-17T11:06:24.001Z</time>
      </trkpt>
      <trkpt lat="50.52873" lon="2.72068">
        <ele>13.841</ele>
        <time>2019-09-17T11:06:27.001Z</time>
      </trkpt>
      <trkpt lat="50.52868" lon="2.7209">
        <ele>14.37</ele>
        <time>2019-09-17T11:06:30.001Z</time>
      </trkpt>
      <trkpt lat="50.52862" lon="2.72112">
        <ele>14.637</ele>
        <time>2019-09-17T11:06:33.001Z</time>
      </trkpt>
      <trkpt lat="50.52855" lon="2.72132">
        <ele>15.744</ele>
        <time>2019-09-17T11:06:36.001Z</time>
      </trkpt>
      <trkpt lat="50.5285" lon="2.72152">
        <ele>16.682</ele>
        <time>2019-09-17T11:06:39.001Z</time>
      </trkpt>
      <trkpt lat="50.52845" lon="2.72173">
        <ele>16.781</ele>
        <time>2019-09-17T11:06:42.001Z</time>
      </trkpt>
      <trkpt lat="50.52839" lon="2.72194">
        <ele>16.947</ele>
        <time>2019-09-17T11:06:45.001Z</time>
      </trkpt>
      <trkpt lat="50.52835" lon="2.72215">
        <ele>17.009</ele>
        <time>2019-09-17T11:06:48.001Z</time>
      </trkpt>
      <trkpt lat="50.52829" lon="2.72237">
        <ele>17.35</ele>
        <time>2019-09-17T11:06:51.001Z</time>
      </trkpt>
      <trkpt lat="50.52823" lon="2.72259">
        <ele>18.012</ele>
        <time>2019-09-17T11:06:54.001Z</time>
      </trkpt>
      <trkpt lat="50.52817" lon="2.72279">
        <ele>18.204</ele>
        <time>2019-09-17T11:06:57.001Z</time>
      </trkpt>
      <trkpt lat="50.52812" lon="2.723">
        <ele>18.421</ele>
        <time>2019-09-17T11:07:00.000Z</time>
      </trkpt>
      <trkpt lat="50.52805" lon="2.72321">
        <ele>18.466</ele>
        <time>2019-09-17T11:07:03.001Z</time>
      </trkpt>
      <trkpt lat="50.528" lon="2.72342">
        <ele>18.148</ele>
        <time>2019-09-17T11:07:06.001Z</time>
      </trkpt>
      <trkpt lat="50.52794" lon="2.72364">
        <ele>18.018</ele>
        <time>2019-09-17T11:07:09.001Z</time>
      </trkpt>
      <trkpt lat="50.52789" lon="2.72385">
        <ele>17.855</ele>
        <time>2019-09-17T11:07:12.001Z</time>
      </trkpt>
      <trkpt lat="50.52783" lon="2.72406">
        <ele>17.913</ele>
        <time>2019-09-17T11:07:15.001Z</time>
      </trkpt>
      <trkpt lat="50.52778" lon="2.72428">
        <ele>17.918</ele>
        <time>2019-09-17T11:07:18.001Z</time>
      </trkpt>
      <trkpt lat="50.52772" lon="2.72449">
        <ele>17.623</ele>
        <time>2019-09-17T11:07:21.001Z</time>
      </trkpt>
      <trkpt lat="50.52766" lon="2.72469">
        <ele>16.912</ele>
        <time>2019-09-17T11:07:24.001Z</time>
      </trkpt>
      <trkpt lat="50.5276" lon="2.7249">
        <ele>17.033</ele>
        <time>2019-09-17T11:07:27.001Z</time>
      </trkpt>
      <trkpt lat="50.52755" lon="2.72511">
        <ele>16.582</ele>
        <time>2019-09-17T11:07:30.001Z</time>
      </trkpt>
      <trkpt lat="50.52748" lon="2.72533">
        <ele>16.554</ele>
        <time>2019-09-17T11:07:33.001Z</time>
      </trkpt>
      <trkpt lat="50.52743" lon="2.72555">
        <ele>16.723</ele>
        <time>2019-09-17T11:07:36.001Z</time>
      </trkpt>
      <trkpt lat="50.52737" lon="2.72577">
        <ele>16.847</ele>
        <time>2019-09-17T11:07:39.001Z</time>
      </trkpt>
      <trkpt lat="50.52731" lon="2.72597">
        <ele>17.467</ele>
        <time>2019-09-17T11:07:42.001Z</time>
      </trkpt>
      <trkpt lat="50.52725" lon="2.72617">
        <ele>18.174</ele>
        <time>2019-09-17T11:07:45.001Z</time>
      </trkpt>
      <trkpt lat="50.5272" lon="2.72638">
        <ele>18.627</ele>
        <time>2019-09-17T11:07:48.001Z</time>
      </trkpt>
      <trkpt lat="50.52715" lon="2.7266">
        <ele>18.394</ele>
        <time>2019-09-17T11:07:51.001Z</time>
      </trkpt>
      <trkpt lat="50.52709" lon="2.72681">
        <ele>18.15</ele>
        <time>2019-09-17T11:07:54.001Z</time>
      </trkpt>
      <trkpt lat="50.52703" lon="2.72702">
        <ele>17.981</ele>
        <time>2019-09-17T11:07:57.001Z</time>
      </trkpt>
      <trkpt lat="50.52698" lon="2.72724">
        <ele>17.82</ele>
        <time>2019-09-17T11:08:00.000Z</time>
      </trkpt>
      <trkpt lat="50.52692" lon="2.72744">
        <ele>18.013</ele>
        <time>2019-09-17T11:08:03.001Z</time>
      </trkpt>
      <trkpt lat="50.52686" lon="2.72765">
        <ele>17.968</ele>
        <time>2019-09-17T11:08:06.001Z</time>
      </trkpt>
      <trkpt lat="50.52681" lon="2.72785">
        <ele>17.767</ele>
        <time>2019-09-17T11:08:09.001Z</time>
      </trkpt>
      <trkpt lat="50.52675" lon="2.72806">
        <ele>17.448</ele>
        <time>2019-09-17T11:08:12.001Z</time>
      </trkpt>
      <trkpt lat="50.5267" lon="2.72826">
        <ele>17.019</ele>
        <time>2019-09-17T11:08:15.001Z</time>
      </trkpt>
      <trkpt lat="50.52666" lon="2.72846">
        <ele>16.485</ele>
        <time>2019-09-17T11:08:18.001Z</time>
      </trkpt>
      <trkpt lat="50.52661" lon="2.72868">
        <ele>16.257</ele>
        <time>2019-09-17T11:08:21.001Z</time>
      </trkpt>
      <trkpt lat="50.52655" lon="2.72889">
        <ele>16.069</ele>
        <time>2019-09-17T11:08:24.001Z</time>
      </trkpt>
      <trkpt lat="50.52649" lon="2.72909">
        <ele>16.556</ele>
        <time>2019-09-17T11:08:27.001Z</time>
      </trkpt>
      <trkpt lat="50.52644" lon="2.72929">
        <ele>17.062</ele>
        <time>2019-09-17T11:08:30.001Z</time>
      </trkpt>
      <trkpt lat="50.52638" lon="2.72949">
        <ele>17.63</ele>
        <time>2019-09-17T11:08:33.001Z</time>
      </trkpt>
      <trkpt lat="50.52632" lon="2.72968">
        <ele>17.857</ele>
        <time>2019-09-17T11:08:36.001Z</time>
      </trkpt>
      <trkpt lat="50.52627" lon="2.72988">
        <ele>18.142</ele>
        <time>2019-09-17T11:08:39.001Z</time>
      </trkpt>
      <trkpt lat="50.52622" lon="2.73007">
        <ele>18.533</ele>
        <time>2019-09-17T11:08:42.001Z</time>
      </trkpt>
      <trkpt lat="50.52617" lon="2.73026">
        <ele>18.896</ele>
        <time>2019-09-17T11:08:45.001Z</time>
      </trkpt>
      <trkpt lat="50.52612" lon="2.73045">
        <ele>19.222</ele>
        <time>2019-09-17T11:08:48.001Z</time>
      </trkpt>
      <trkpt lat="50.52606" lon="2.73065">
        <ele>19.332</ele>
        <time>2019-09-17T11:08:51.001Z</time>
      </trkpt>
      <trkpt lat="50.526" lon="2.73084">
        <ele>19.31</ele>
        <time>2019-09-17T11:08:54.001Z</time>
      </trkpt>
      <trkpt lat="50.52595" lon="2.73104">
        <ele>19.648</ele>
        <time>2019-09-17T11:08:57.001Z</time>
      </trkpt>
      <trkpt lat="50.5259" lon="2.73125">
        <ele>19.657</ele>
        <time>2019-09-17T11:09:00.000Z</time>
      </trkpt>
      <trkpt lat="50.52584" lon="2.73145">
        <ele>19.881</ele>
        <time>2019-09-17T11:09:03.001Z</time>
      </trkpt>
      <trkpt lat="50.52578" lon="2.73165">
        <ele>20.189</ele>
        <time>2019-09-17T11:09:06.001Z</time>
      </trkpt>
      <trkpt lat="50.52573" lon="2.73184">
        <ele>20.468</ele>
        <time>2019-09-17T11:09:09.001Z</time>
      </trkpt>
      <trkpt lat="50.52569" lon="2.73204">
        <ele>20.252</ele>
        <time>2019-09-17T11:09:12.001Z</time>
      </trkpt>
      <trkpt lat="50.52563" lon="2.73226">
        <ele>20.062</ele>
        <time>2019-09-17T11:09:15.001Z</time>
      </trkpt>
      <trkpt lat="50.52556" lon="2.73248">
        <ele>19.931</ele>
        <time>2019-09-17T11:09:18.001Z</time>
      </trkpt>
      <trkpt lat="50.5255" lon="2.73269">
        <ele>20.064</ele>
        <time>2019-09-17T11:09:21.001Z</time>
      </trkpt>
      <trkpt lat="50.52545" lon="2.7329">
        <ele>19.753</ele>
        <time>2019-09-17T11:09:24.001Z</time>
      </trkpt>
      <trkpt lat="50.52539" lon="2.73312">
        <ele>19.279</ele>
        <time>2019-09-17T11:09:27.001Z</time>
      </trkpt>
      <trkpt lat="50.52533" lon="2.73333">
        <ele>19.269</ele>
        <time>2019-09-17T11:09:30.001Z</time>
      </trkpt>
      <trkpt lat="50.52528" lon="2.73354">
        <ele>19.314</ele>
        <time>2019-09-17T11:09:33.001Z</time>
      </trkpt>
      <trkpt lat="50.52524" lon="2.73375">
        <ele>18.734</ele>
        <time>2019-09-17T11:09:36.001Z</time>
      </trkpt>
      <trkpt lat="50.52518" lon="2.73397">
        <ele>18.434</ele>
        <time>2019-09-17T11:09:39.001Z</time>
      </trkpt>
      <trkpt lat="50.52512" lon="2.7342">
        <ele>18.312</ele>
        <time>2019-09-17T11:09:42.001Z</time>
      </trkpt>
      <trkpt lat="50.52507" lon="2.73443">
        <ele>17.69</ele>
        <time>2019-09-17T11:09:45.001Z</time>
      </trkpt>
      <trkpt lat="50.52501" lon="2.73466">
        <ele>17.261</ele>
        <time>2019-09-17T11:09:48.001Z</time>
      </trkpt>
      <trkpt lat="50.52495" lon="2.73487">
        <ele>17.288</ele>
        <time>2019-09-17T11:09:51.001Z</time>
      </trkpt>
      <trkpt lat="50.5249" lon="2.73508">
        <ele>17.177</ele>
        <time>2019-09-17T11:09:54.001Z</time>
      </trkpt>
      <trkpt lat="50.52484" lon="2.73529">
        <ele>17.353</ele>
        <time>2019-09-17T11:09:57.001Z</time>
      </trkpt>
      <trkpt lat="50.52478" lon="2.7355">
        <ele>17.257</ele>
        <time>2019-09-17T11:10:00.000Z</time>
      </trkpt>
      <trkpt lat="50.52473" lon="2.73571">
        <ele>17.285</ele>
        <time>2019-09-17T11:10:03.001Z</time>
      </trkpt>
      <trkpt lat="50.52467" lon="2.73592">
        <ele>17.542</ele>
        <time>2019-09-17T11:10:06.001Z</time>
      </trkpt>
      <trkpt lat="50.5246" lon="2.73611">
        <ele>18.198</ele>
        <time>2019-09-17T11:10:09.001Z</time>
      </trkpt>
      <trkpt lat="50.52455" lon="2.73631">
        <ele>17.99</ele>
        <time>2019-09-17T11:10:12.001Z</time>
      </trkpt>
      <trkpt lat="50.5245" lon="2.73652">
        <ele>18.109</ele>
        <time>2019-09-17T11:10:15.001Z</time>
      </trkpt>
      <trkpt lat="50.52445" lon="2.73673">
        <ele>17.937</ele>
        <time>2019-09-17T11:10:18.001Z</time>
      </trkpt>
      <trkpt lat="50.52439" lon="2.73694">
        <ele>17.878</ele>
        <time>2019-09-17T11:10:21.001Z</time>
      </trkpt>
      <trkpt lat="50.52433" lon="2.73715">
        <ele>17.798</ele>
        <time>2019-09-17T11:10:24.001Z</time>
      </trkpt>
      <trkpt lat="50.52428" lon="2.73737">
        <ele>17.818</ele>
        <time>2019-09-17T11:10:27.001Z</time>
      </trkpt>
      <trkpt lat="50.52422" lon="2.73756">
        <ele>17.668</ele>
        <time>2019-09-17T11:10:30.001Z</time>
      </trkpt>
      <trkpt lat="50.52416" lon="2.73777">
        <ele>17.319</ele>
        <time>2019-09-17T11:10:33.001Z</time>
      </trkpt>
      <trkpt lat="50.5241" lon="2.73796">
        <ele>16.425</ele>
        <time>2019-09-17T11:10:36.001Z</time>
      </trkpt>
      <trkpt lat="50.52405" lon="2.73817">
        <ele>16.13</ele>
        <time>2019-09-17T11:10:39.001Z</time>
      </trkpt>
      <trkpt lat="50.524" lon="2.73839">
        <ele>16.221</ele>
        <time>2019-09-17T11:10:42.001Z</time>
      </trkpt>
      <trkpt lat="50.52394" lon="2.7386">
        <ele>16.57</ele>
        <time>2019-09-17T11:10:45.001Z</time>
      </trkpt>
      <trkpt lat="50.52389" lon="2.73883">
        <ele>17.287</ele>
        <time>2019-09-17T11:10:48.001Z</time>
      </trkpt>
      <trkpt lat="50.52385" lon="2.73905">
        <ele>17.894</ele>
        <time>2019-09-17T11:10:51.001Z</time>
      </trkpt>
      <trkpt lat="50.52379" lon="2.73927">
        <ele>18.164</ele>
        <time>2019-09-17T11:10:54.001Z</time>
      </trkpt>
      <trkpt lat="50.52374" lon="2.73949">
        <ele>18.716</ele>
        <time>2019-09-17T11:10:57.001Z</time>
      </trkpt>
      <trkpt lat="50.5237" lon="2.7397">
        <ele>18.341</ele>
        <time>2019-09-17T11:11:00.000Z</time>
      </trkpt>
      <trkpt lat="50.52366" lon="2.73992">
        <ele>18.355</ele>
        <time>2019-09-17T11:11:03.001Z</time>
      </trkpt>
      <trkpt lat="50.52363" lon="2.74015">
        <ele>17.912</ele>
        <time>2019-09-17T11:11:06.001Z</time>
      </trkpt>
      <trkpt lat="50.52359" lon="2.74038">
        <ele>17.752</ele>
        <time>2019-09-17T11:11:09.001Z</time>
      </trkpt>
      <trkpt lat="50.52355" lon="2.7406">
        <ele>18.343</ele>
        <time>2019-09-17T11:11:12.001Z</time>
      </trkpt>
      <trkpt lat="50.5235" lon="2.74081">
        <ele>18.578</ele>
        <time>2019-09-17T11:11:15.001Z</time>
      </trkpt>
      <trkpt lat="50.52347" lon="2.74102">
        <ele>19.016</ele>
        <time>2019-09-17T11:11:18.001Z</time>
      </trkpt>
      <trkpt lat="50.52342" lon="2.74123">
        <ele>19.396</ele>
        <time>2019-09-17T11:11:21.001Z</time>
      </trkpt>
      <trkpt lat="50.52339" lon="2.74144">
        <ele>19.292</ele>
        <time>2019-09-17T11:11:24.001Z</time>
      </trkpt>
      <trkpt lat="50.52336" lon="2.74167">
        <ele>19.775</ele>
        <time>2019-09-17T11:11:27.001Z</time>
      </trkpt>
      <trkpt lat="50.52333" lon="2.74188">
        <ele>19.807</ele>
        <time>2019-09-17T11:11:30.001Z</time>
      </trkpt>
      <trkpt lat="50.5233" lon="2.7421">
        <ele>20.007</ele>
        <time>2019-09-17T11:11:33.001Z</time>
      </trkpt>
      <trkpt lat="50.52326" lon="2.74231">
        <ele>20.519</ele>
        <time>2019-09-17T11:11:36.001Z</time>
      </trkpt>
      <trkpt lat="50.52324" lon="2.74253">
        <ele>21.087</ele>
        <time>2019-09-17T11:11:39.001Z</time>
      </trkpt>
      <trkpt lat="50.52322" lon="2.74275">
        <ele>21.413</ele>
        <time>2019-09-17T11:11:42.001Z</time>
      </trkpt>
      <trkpt lat="50.5232" lon="2.74297">
        <ele>21.631</ele>
        <time>2019-09-17T11:11:45.001Z</time>
      </trkpt>
      <trkpt lat="50.52317" lon="2.74321">
        <ele>21.879</ele>
        <time>2019-09-17T11:11:48.001Z</time>
      </trkpt>
      <trkpt lat="50.52314" lon="2.74344">
        <ele>22.748</ele>
        <time>2019-09-17T11:11:51.001Z</time>
      </trkpt>
      <trkpt lat="50.52312" lon="2.74365">
        <ele>22.75</ele>
        <time>2019-09-17T11:11:54.001Z</time>
      </trkpt>
      <trkpt lat="50.5231" lon="2.74387">
        <ele>22.67</ele>
        <time>2019-09-17T11:11:57.001Z</time>
      </trkpt>
      <trkpt lat="50.52308" lon="2.74412">
        <ele>21.858</ele>
        <time>2019-09-17T11:12:00.000Z</time>
      </trkpt>
      <trkpt lat="50.52306" lon="2.74436">
        <ele>21.539</ele>
        <time>2019-09-17T11:12:03.001Z</time>
      </trkpt>
      <trkpt lat="50.52304" lon="2.74459">
        <ele>21.193</ele>
        <time>2019-09-17T11:12:06.001Z</time>
      </trkpt>
      <trkpt lat="50.52303" lon="2.74481">
        <ele>21.056</ele>
        <time>2019-09-17T11:12:09.001Z</time>
      </trkpt>
      <trkpt lat="50.52303" lon="2.74502">
        <ele>20.789</ele>
        <time>2019-09-17T11:12:12.001Z</time>
      </trkpt>
      <trkpt lat="50.52303" lon="2.74523">
        <ele>20.372</ele>
        <time>2019-09-17T11:12:15.001Z</time>
      </trkpt>
      <trkpt lat="50.52301" lon="2.74545">
        <ele>20.102</ele>
        <time>2019-09-17T11:12:18.001Z</time>
      </trkpt>
      <trkpt lat="50.52299" lon="2.74568">
        <ele>19.41</ele>
        <time>2019-09-17T11:12:21.001Z</time>
      </trkpt>
      <trkpt lat="50.52298" lon="2.7459">
        <ele>19.483</ele>
        <time>2019-09-17T11:12:24.001Z</time>
      </trkpt>
      <trkpt lat="50.52297" lon="2.74613">
        <ele>19.402</ele>
        <time>2019-09-17T11:12:27.001Z</time>
      </trkpt>
      <trkpt lat="50.52297" lon="2.74636">
        <ele>18.017</ele>
        <time>2019-09-17T11:12:30.001Z</time>
      </trkpt>
      <trkpt lat="50.52295" lon="2.7466">
        <ele>18.041</ele>
        <time>2019-09-17T11:12:33.001Z</time>
      </trkpt>
      <trkpt lat="50.52295" lon="2.74683">
        <ele>18.17</ele>
        <time>2019-09-17T11:12:36.001Z</time>
      </trkpt>
      <trkpt lat="50.52295" lon="2.74704">
        <ele>18.994</ele>
        <time>2019-09-17T11:12:39.001Z</time>
      </trkpt>
      <trkpt lat="50.52294" lon="2.74725">
        <ele>19.453</ele>
        <time>2019-09-17T11:12:42.001Z</time>
      </trkpt>
      <trkpt lat="50.52294" lon="2.74743">
        <ele>19.685</ele>
        <time>2019-09-17T11:12:45.001Z</time>
      </trkpt>
      <trkpt lat="50.52292" lon="2.74758">
        <ele>19.433</ele>
        <time>2019-09-17T11:12:48.001Z</time>
      </trkpt>
      <trkpt lat="50.5229" lon="2.74781">
        <ele>18.894</ele>
        <time>2019-09-17T11:12:51.001Z</time>
      </trkpt>
      <trkpt lat="50.5229" lon="2.74804">
        <ele>18.603</ele>
        <time>2019-09-17T11:12:54.001Z</time>
      </trkpt>
      <trkpt lat="50.52291" lon="2.7483">
        <ele>18.339</ele>
        <time>2019-09-17T11:12:57.001Z</time>
      </trkpt>
      <trkpt lat="50.52291" lon="2.74853">
        <ele>18.919</ele>
        <time>2019-09-17T11:13:00.000Z</time>
      </trkpt>
      <trkpt lat="50.52292" lon="2.74876">
        <ele>19.59</ele>
        <time>2019-09-17T11:13:03.001Z</time>
      </trkpt>
      <trkpt lat="50.52292" lon="2.749">
        <ele>19.785</ele>
        <time>2019-09-17T11:13:06.001Z</time>
      </trkpt>
      <trkpt lat="50.52291" lon="2.74923">
        <ele>19.673</ele>
        <time>2019-09-17T11:13:09.001Z</time>
      </trkpt>
      <trkpt lat="50.52291" lon="2.74946">
        <ele>19.875</ele>
        <time>2019-09-17T11:13:12.001Z</time>
      </trkpt>
      <trkpt lat="50.52289" lon="2.74968">
        <ele>19.604</ele>
        <time>2019-09-17T11:13:15.001Z</time>
      </trkpt>
      <trkpt lat="50.52288" lon="2.74991">
        <ele>19.632</ele>
        <time>2019-09-17T11:13:18.001Z</time>
      </trkpt>
      <trkpt lat="50.52288" lon="2.75014">
        <ele>19.139</ele>
        <time>2019-09-17T11:13:21.001Z</time>
      </trkpt>
      <trkpt lat="50.52287" lon="2.75036">
        <ele>19.342</ele>
        <time>2019-09-17T11:13:24.001Z</time>
      </trkpt>
      <trkpt lat="50.52286" lon="2.75059">
        <ele>19.637</ele>
        <time>2019-09-17T11:13:27.001Z</time>
      </trkpt>
      <trkpt lat="50.52285" lon="2.75081">
        <ele>19.61</ele>
        <time>2019-09-17T11:13:30.001Z</time>
      </trkpt>
      <trkpt lat="50.52284" lon="2.75103">
        <ele>19.109</ele>
        <time>2019-09-17T11:13:33.001Z</time>
      </trkpt>
      <trkpt lat="50.52284" lon="2.75126">
        <ele>18.399</ele>
        <time>2019-09-17T11:13:36.001Z</time>
      </trkpt>
      <trkpt lat="50.52283" lon="2.75148">
        <ele>17.808</ele>
        <time>2019-09-17T11:13:39.001Z</time>
      </trkpt>
      <trkpt lat="50.52281" lon="2.7517">
        <ele>17.729</ele>
        <time>2019-09-17T11:13:42.001Z</time>
      </trkpt>
      <trkpt lat="50.5228" lon="2.75193">
        <ele>17.431</ele>
        <time>2019-09-17T11:13:45.001Z</time>
      </trkpt>
      <trkpt lat="50.5228" lon="2.75215">
        <ele>17.161</ele>
        <time>2019-09-17T11:13:48.001Z</time>
      </trkpt>
      <trkpt lat="50.52279" lon="2.75238">
        <ele>17.901</ele>
        <time>2019-09-17T11:13:51.001Z</time>
      </trkpt>
      <trkpt lat="50.52279" lon="2.75258">
        <ele>17.757</ele>
        <time>2019-09-17T11:13:54.001Z</time>
      </trkpt>
      <trkpt lat="50.52278" lon="2.75276">
        <ele>17.078</ele>
        <time>2019-09-17T11:13:57.001Z</time>
      </trkpt>
      <trkpt lat="50.52276" lon="2.75294">
        <ele>16.907</ele>
        <time>2019-09-17T11:14:00.000Z</time>
      </trkpt>
      <trkpt lat="50.52275" lon="2.75311">
        <ele>16.764</ele>
        <time>2019-09-17T11:14:03.001Z</time>
      </trkpt>
      <trkpt lat="50.52274" lon="2.75328">
        <ele>16.149</ele>
        <time>2019-09-17T11:14:06.001Z</time>
      </trkpt>
      <trkpt lat="50.52273" lon="2.75344">
        <ele>16.268</ele>
        <time>2019-09-17T11:14:09.001Z</time>
      </trkpt>
      <trkpt lat="50.52272" lon="2.7536">
        <ele>16.774</ele>
        <time>2019-09-17T11:14:12.001Z</time>
      </trkpt>
      <trkpt lat="50.52271" lon="2.75377">
        <ele>16.887</ele>
        <time>2019-09-17T11:14:15.001Z</time>
      </trkpt>
      <trkpt lat="50.52269" lon="2.75392">
        <ele>17.347</ele>
        <time>2019-09-17T11:14:18.001Z</time>
      </trkpt>
      <trkpt lat="50.52267" lon="2.75409">
        <ele>17.671</ele>
        <time>2019-09-17T11:14:21.001Z</time>
      </trkpt>
      <trkpt lat="50.52266" lon="2.75427">
        <ele>18.523</ele>
        <time>2019-09-17T11:14:24.001Z</time>
      </trkpt>
      <trkpt lat="50.52264" lon="2.75447">
        <ele>19.385</ele>
        <time>2019-09-17T11:14:27.001Z</time>
      </trkpt>
      <trkpt lat="50.52262" lon="2.75466">
        <ele>20.287</ele>
        <time>2019-09-17T11:14:30.001Z</time>
      </trkpt>
      <trkpt lat="50.52261" lon="2.75486">
        <ele>20.294</ele>
        <time>2019-09-17T11:14:33.001Z</time>
      </trkpt>
      <trkpt lat="50.52259" lon="2.75506">
        <ele>21.637</ele>
        <time>2019-09-17T11:14:36.001Z</time>
      </trkpt>
      <trkpt lat="50.52258" lon="2.75525">
        <ele>22.546</ele>
        <time>2019-09-17T11:14:39.001Z</time>
      </trkpt>
      <trkpt lat="50.52258" lon="2.75544">
        <ele>22.721</ele>
        <time>2019-09-17T11:14:42.001Z</time>
      </trkpt>
      <trkpt lat="50.52258" lon="2.75564">
        <ele>22.638</ele>
        <time>2019-09-17T11:14:45.001Z</time>
      </trkpt>
      <trkpt lat="50.52259" lon="2.75584">
        <ele>22.953</ele>
        <time>2019-09-17T11:14:48.001Z</time>
      </trkpt>
      <trkpt lat="50.5226" lon="2.75603">
        <ele>23.039</ele>
        <time>2019-09-17T11:14:51.001Z</time>
      </trkpt>
      <trkpt lat="50.52259" lon="2.7562">
        <ele>23.264</ele>
        <time>2019-09-17T11:14:54.001Z</time>
      </trkpt>
      <trkpt lat="50.52259" lon="2.75639">
        <ele>23.625</ele>
        <time>2019-09-17T11:14:57.001Z</time>
      </trkpt>
      <trkpt lat="50.52258" lon="2.75658">
        <ele>24.018</ele>
        <time>2019-09-17T11:15:00.000Z</time>
      </trkpt>
      <trkpt lat="50.52257" lon="2.75678">
        <ele>24.246</ele>
        <time>2019-09-17T11:15:03.001Z</time>
      </trkpt>
      <trkpt lat="50.52256" lon="2.75698">
        <ele>24.813</ele>
        <time>2019-09-17T11:15:06.001Z</time>
      </trkpt>
      <trkpt lat="50.52255" lon="2.75719">
        <ele>24.814</ele>
        <time>2019-09-17T11:15:09.001Z</time>
      </trkpt>
      <trkpt lat="50.52254" lon="2.75739">
        <ele>24.801</ele>
        <time>2019-09-17T11:15:12.001Z</time>
      </trkpt>
      <trkpt lat="50.52253" lon="2.75759">
        <ele>25.265</ele>
        <time>2019-09-17T11:15:15.001Z</time>
      </trkpt>
      <trkpt lat="50.52252" lon="2.7578">
        <ele>26.048</ele>
        <time>2019-09-17T11:15:18.001Z</time>
      </trkpt>
      <trkpt lat="50.52251" lon="2.75802">
        <ele>26.133</ele>
        <time>2019-09-17T11:15:21.001Z</time>
      </trkpt>
      <trkpt lat="50.52251" lon="2.75825">
        <ele>25.832</ele>
        <time>2019-09-17T11:15:24.001Z</time>
      </trkpt>
      <trkpt lat="50.52254" lon="2.75847">
        <ele>25.551</ele>
        <time>2019-09-17T11:15:27.001Z</time>
      </trkpt>
      <trkpt lat="50.52254" lon="2.75869">
        <ele>25.818</ele>
        <time>2019-09-17T11:15:30.001Z</time>
      </trkpt>
      <trkpt lat="50.52252" lon="2.75891">
        <ele>25.82</ele>
        <time>2019-09-17T11:15:33.001Z</time>
      </trkpt>
      <trkpt lat="50.52251" lon="2.75913">
        <ele>25.869</ele>
        <time>2019-09-17T11:15:36.001Z</time>
      </trkpt>
      <trkpt lat="50.5225" lon="2.75934">
        <ele>26.047</ele>
        <time>2019-09-17T11:15:39.001Z</time>
      </trkpt>
      <trkpt lat="50.52248" lon="2.75956">
        <ele>26.853</ele>
        <time>2019-09-17T11:15:42.001Z</time>
      </trkpt>
      <trkpt lat="50.52247" lon="2.75977">
        <ele>27.397</ele>
        <time>2019-09-17T11:15:45.001Z</time>
      </trkpt>
      <trkpt lat="50.52246" lon="2.75998">
        <ele>27.982</ele>
        <time>2019-09-17T11:15:48.001Z</time>
      </trkpt>
      <trkpt lat="50.52244" lon="2.76019">
        <ele>28.078</ele>
        <time>2019-09-17T11:15:51.001Z</time>
      </trkpt>
      <trkpt lat="50.52243" lon="2.76041">
        <ele>28.199</ele>
        <time>2019-09-17T11:15:54.001Z</time>
      </trkpt>
      <trkpt lat="50.52242" lon="2.76063">
        <ele>27.954</ele>
        <time>2019-09-17T11:15:57.001Z</time>
      </trkpt>
      <trkpt lat="50.52241" lon="2.76084">
        <ele>28.198</ele>
        <time>2019-09-17T11:16:00.000Z</time>
      </trkpt>
      <trkpt lat="50.52239" lon="2.76106">
        <ele>28.474</ele>
        <time>2019-09-17T11:16:03.001Z</time>
      </trkpt>
      <trkpt lat="50.52238" lon="2.76127">
        <ele>28.322</ele>
        <time>2019-09-17T11:16:06.001Z</time>
      </trkpt>
      <trkpt lat="50.52236" lon="2.76148">
        <ele>27.999</ele>
        <time>2019-09-17T11:16:09.001Z</time>
      </trkpt>
      <trkpt lat="50.52235" lon="2.76169">
        <ele>27.454</ele>
        <time>2019-09-17T11:16:12.001Z</time>
      </trkpt>
      <trkpt lat="50.52233" lon="2.76191">
        <ele>27.267</ele>
        <time>2019-09-17T11:16:15.001Z</time>
      </trkpt>
      <trkpt lat="50.52232" lon="2.76212">
        <ele>26.526</ele>
        <time>2019-09-17T11:16:18.001Z</time>
      </trkpt>
      <trkpt lat="50.5223" lon="2.76232">
        <ele>26.814</ele>
        <time>2019-09-17T11:16:21.001Z</time>
      </trkpt>
      <trkpt lat="50.52228" lon="2.76251">
        <ele>26.737</ele>
        <time>2019-09-17T11:16:24.001Z</time>
      </trkpt>
      <trkpt lat="50.52227" lon="2.7627">
        <ele>26.335</ele>
        <time>2019-09-17T11:16:27.001Z</time>
      </trkpt>
      <trkpt lat="50.52226" lon="2.76288">
        <ele>26.055</ele>
        <time>2019-09-17T11:16:30.001Z</time>
      </trkpt>
      <trkpt lat="50.52224" lon="2.76307">
        <ele>25.867</ele>
        <time>2019-09-17T11:16:33.001Z</time>
      </trkpt>
      <trkpt lat="50.52222" lon="2.76328">
        <ele>25.672</ele>
        <time>2019-09-17T11:16:36.001Z</time>
      </trkpt>
      <trkpt lat="50.5222" lon="2.76348">
        <ele>25.562</ele>
        <time>2019-09-17T11:16:39.001Z</time>
      </trkpt>
      <trkpt lat="50.5222" lon="2.76371">
        <ele>25.645</ele>
        <time>2019-09-17T11:16:42.001Z</time>
      </trkpt>
      <trkpt lat="50.52219" lon="2.76394">
        <ele>26.261</ele>
        <time>2019-09-17T11:16:45.001Z</time>
      </trkpt>
      <trkpt lat="50.52216" lon="2.76415">
        <ele>26.823</ele>
        <time>2019-09-17T11:16:48.001Z</time>
      </trkpt>
      <trkpt lat="50.52213" lon="2.76437">
        <ele>27.702</ele>
        <time>2019-09-17T11:16:51.001Z</time>
      </trkpt>
      <trkpt lat="50.52212" lon="2.76459">
        <ele>28.497</ele>
        <time>2019-09-17T11:16:54.001Z</time>
      </trkpt>
      <trkpt lat="50.5221" lon="2.76482">
        <ele>29.426</ele>
        <time>2019-09-17T11:16:57.001Z</time>
      </trkpt>
      <trkpt lat="50.52208" lon="2.76504">
        <ele>30.348</ele>
        <time>2019-09-17T11:17:00.000Z</time>
      </trkpt>
      <trkpt lat="50.52204" lon="2.76527">
        <ele>31.803</ele>
        <time>2019-09-17T11:17:03.001Z</time>
      </trkpt>
      <trkpt lat="50.52203" lon="2.76548">
        <ele>33.4</ele>
        <time>2019-09-17T11:17:06.001Z</time>
      </trkpt>
      <trkpt lat="50.52203" lon="2.7657">
        <ele>34.928</ele>
        <time>2019-09-17T11:17:09.001Z</time>
      </trkpt>
      <trkpt lat="50.52201" lon="2.76592">
        <ele>35.101</ele>
        <time>2019-09-17T11:17:12.001Z</time>
      </trkpt>
      <trkpt lat="50.52199" lon="2.76614">
        <ele>35.125</ele>
        <time>2019-09-17T11:17:15.001Z</time>
      </trkpt>
      <trkpt lat="50.52198" lon="2.76635">
        <ele>34.819</ele>
        <time>2019-09-17T11:17:18.001Z</time>
      </trkpt>
      <trkpt lat="50.52197" lon="2.76657">
        <ele>34.407</ele>
        <time>2019-09-17T11:17:21.001Z</time>
      </trkpt>
      <trkpt lat="50.52196" lon="2.7668">
        <ele>34.09</ele>
        <time>2019-09-17T11:17:24.001Z</time>
      </trkpt>
      <trkpt lat="50.52196" lon="2.76705">
        <ele>33.095</ele>
        <time>2019-09-17T11:17:27.001Z</time>
      </trkpt>
      <trkpt lat="50.52194" lon="2.76729">
        <ele>32.114</ele>
        <time>2019-09-17T11:17:30.001Z</time>
      </trkpt>
      <trkpt lat="50.52191" lon="2.76753">
        <ele>31.545</ele>
        <time>2019-09-17T11:17:33.001Z</time>
      </trkpt>
      <trkpt lat="50.52189" lon="2.76777">
        <ele>30.752</ele>
        <time>2019-09-17T11:17:36.001Z</time>
      </trkpt>
      <trkpt lat="50.52189" lon="2.76799">
        <ele>29.797</ele>
        <time>2019-09-17T11:17:39.001Z</time>
      </trkpt>
      <trkpt lat="50.52188" lon="2.76823">
        <ele>29.018</ele>
        <time>2019-09-17T11:17:42.001Z</time>
      </trkpt>
      <trkpt lat="50.52186" lon="2.76848">
        <ele>28.604</ele>
        <time>2019-09-17T11:17:45.001Z</time>
      </trkpt>
      <trkpt lat="50.52185" lon="2.76873">
        <ele>28.162</ele>
        <time>2019-09-17T11:17:48.001Z</time>
      </trkpt>
      <trkpt lat="50.52183" lon="2.76896">
        <ele>27.869</ele>
        <time>2019-09-17T11:17:51.001Z</time>
      </trkpt>
      <trkpt lat="50.52181" lon="2.7692">
        <ele>27.904</ele>
        <time>2019-09-17T11:17:54.001Z</time>
      </trkpt>
      <trkpt lat="50.52179" lon="2.76943">
        <ele>27.704</ele>
        <time>2019-09-17T11:17:57.001Z</time>
      </trkpt>
      <trkpt lat="50.52176" lon="2.76967">
        <ele>27.143</ele>
        <time>2019-09-17T11:18:00.000Z</time>
      </trkpt>
      <trkpt lat="50.52174" lon="2.76991">
        <ele>26.998</ele>
        <time>2019-09-17T11:18:03.001Z</time>
      </trkpt>
      <trkpt lat="50.52172" lon="2.77014">
        <ele>26.524</ele>
        <time>2019-09-17T11:18:06.001Z</time>
      </trkpt>
      <trkpt lat="50.5217" lon="2.77036">
        <ele>25.658</ele>
        <time>2019-09-17T11:18:09.001Z</time>
      </trkpt>
      <trkpt lat="50.52168" lon="2.7706">
        <ele>25.504</ele>
        <time>2019-09-17T11:18:12.001Z</time>
      </trkpt>
      <trkpt lat="50.52166" lon="2.77083">
        <ele>24.987</ele>
        <time>2019-09-17T11:18:15.001Z</time>
      </trkpt>
      <trkpt lat="50.52163" lon="2.77105">
        <ele>24.316</ele>
        <time>2019-09-17T11:18:18.001Z</time>
      </trkpt>
      <trkpt lat="50.52158" lon="2.77127">
        <ele>23.897</ele>
        <time>2019-09-17T11:18:21.001Z</time>
      </trkpt>
      <trkpt lat="50.52154" lon="2.77145">
        <ele>23.758</ele>
        <time>2019-09-17T11:18:24.001Z</time>
      </trkpt>
      <trkpt lat="50.52154" lon="2.77167">
        <ele>23.546</ele>
        <time>2019-09-17T11:18:27.001Z</time>
      </trkpt>
      <trkpt lat="50.52158" lon="2.77189">
        <ele>24.176</ele>
        <time>2019-09-17T11:18:30.001Z</time>
      </trkpt>
      <trkpt lat="50.52159" lon="2.77214">
        <ele>24.299</ele>
        <time>2019-09-17T11:18:33.001Z</time>
      </trkpt>
      <trkpt lat="50.52159" lon="2.77237">
        <ele>24.667</ele>
        <time>2019-09-17T11:18:36.001Z</time>
      </trkpt>
      <trkpt lat="50.5216" lon="2.77259">
        <ele>25.256</ele>
        <time>2019-09-17T11:18:39.001Z</time>
      </trkpt>
      <trkpt lat="50.52159" lon="2.77282">
        <ele>25.411</ele>
        <time>2019-09-17T11:18:42.001Z</time>
      </trkpt>
      <trkpt lat="50.52159" lon="2.77305">
        <ele>25.919</ele>
        <time>2019-09-17T11:18:45.001Z</time>
      </trkpt>
      <trkpt lat="50.52157" lon="2.77328">
        <ele>26.196</ele>
        <time>2019-09-17T11:18:48.001Z</time>
      </trkpt>
      <trkpt lat="50.52156" lon="2.77351">
        <ele>26.333</ele>
        <time>2019-09-17T11:18:51.001Z</time>
      </trkpt>
      <trkpt lat="50.52157" lon="2.77374">
        <ele>26.303</ele>
        <time>2019-09-17T11:18:54.001Z</time>
      </trkpt>
      <trkpt lat="50.52157" lon="2.77396">
        <ele>26.54</ele>
        <time>2019-09-17T11:18:57.001Z</time>
      </trkpt>
      <trkpt lat="50.52157" lon="2.7742">
        <ele>26.566</ele>
        <time>2019-09-17T11:19:00.000Z</time>
      </trkpt>
      <trkpt lat="50.52158" lon="2.77443">
        <ele>26.686</ele>
        <time>2019-09-17T11:19:03.001Z</time>
      </trkpt>
      <trkpt lat="50.52158" lon="2.77466">
        <ele>27.27</ele>
        <time>2019-09-17T11:19:06.001Z</time>
      </trkpt>
      <trkpt lat="50.52159" lon="2.77491">
        <ele>27.934</ele>
        <time>2019-09-17T11:19:09.001Z</time>
      </trkpt>
      <trkpt lat="50.5216" lon="2.77515">
        <ele>27.822</ele>
        <time>2019-09-17T11:19:12.001Z</time>
      </trkpt>
      <trkpt lat="50.52161" lon="2.77538">
        <ele>27.446</ele>
        <time>2019-09-17T11:19:15.001Z</time>
      </trkpt>
      <trkpt lat="50.52162" lon="2.77561">
        <ele>26.736</ele>
        <time>2019-09-17T11:19:18.001Z</time>
      </trkpt>
      <trkpt lat="50.52163" lon="2.77583">
        <ele>26.757</ele>
        <time>2019-09-17T11:19:21.001Z</time>
      </trkpt>
      <trkpt lat="50.52165" lon="2.77606">
        <ele>26.893</ele>
        <time>2019-09-17T11:19:24.001Z</time>
      </trkpt>
      <trkpt lat="50.52167" lon="2.7763">
        <ele>27.154</ele>
        <time>2019-09-17T11:19:27.001Z</time>
      </trkpt>
      <trkpt lat="50.52168" lon="2.77654">
        <ele>28.056</ele>
        <time>2019-09-17T11:19:30.001Z</time>
      </trkpt>
      <trkpt lat="50.52169" lon="2.77678">
        <ele>28.086</ele>
        <time>2019-09-17T11:19:33.001Z</time>
      </trkpt>
      <trkpt lat="50.52172" lon="2.77701">
        <ele>27.682</ele>
        <time>2019-09-17T11:19:36.001Z</time>
      </trkpt>
      <trkpt lat="50.52174" lon="2.77723">
        <ele>27.262</ele>
        <time>2019-09-17T11:19:39.001Z</time>
      </trkpt>
      <trkpt lat="50.52175" lon="2.77746">
        <ele>27.079</ele>
        <time>2019-09-17T11:19:42.001Z</time>
      </trkpt>
      <trkpt lat="50.52176" lon="2.77768">
        <ele>27.184</ele>
        <time>2019-09-17T11:19:45.001Z</time>
      </trkpt>
      <trkpt lat="50.52177" lon="2.77789">
        <ele>26.969</ele>
        <time>2019-09-17T11:19:48.001Z</time>
      </trkpt>
      <trkpt lat="50.52179" lon="2.7781">
        <ele>26.995</ele>
        <time>2019-09-17T11:19:51.001Z</time>
      </trkpt>
      <trkpt lat="50.52181" lon="2.77832">
        <ele>27.006</ele>
        <time>2019-09-17T11:19:54.001Z</time>
      </trkpt>
      <trkpt lat="50.52182" lon="2.77853">
        <ele>26.935</ele>
        <time>2019-09-17T11:19:57.001Z</time>
      </trkpt>
      <trkpt lat="50.52183" lon="2.77875">
        <ele>27.31</ele>
        <time>2019-09-17T11:20:00.000Z</time>
      </trkpt>
      <trkpt lat="50.52186" lon="2.77895">
        <ele>27.586</ele>
        <time>2019-09-17T11:20:03.001Z</time>
      </trkpt>
      <trkpt lat="50.52188" lon="2.77915">
        <ele>28.279</ele>
        <time>2019-09-17T11:20:06.001Z</time>
      </trkpt>
      <trkpt lat="50.52189" lon="2.77938">
        <ele>29.105</ele>
        <time>2019-09-17T11:20:09.001Z</time>
      </trkpt>
      <trkpt lat="50.52191" lon="2.77959">
        <ele>30.107</ele>
        <time>2019-09-17T11:20:12.001Z</time>
      </trkpt>
      <trkpt lat="50.52193" lon="2.77979">
        <ele>31.16</ele>
        <time>2019-09-17T11:20:15.001Z</time>
      </trkpt>
      <trkpt lat="50.52194" lon="2.78">
        <ele>32.049</ele>
        <time>2019-09-17T11:20:18.001Z</time>
      </trkpt>
      <trkpt lat="50.52196" lon="2.78022">
        <ele>33.107</ele>
        <time>2019-09-17T11:20:21.001Z</time>
      </trkpt>
      <trkpt lat="50.52197" lon="2.78045">
        <ele>33.92</ele>
        <time>2019-09-17T11:20:24.001Z</time>
      </trkpt>
      <trkpt lat="50.52199" lon="2.78067">
        <ele>35.103</ele>
        <time>2019-09-17T11:20:27.001Z</time>
      </trkpt>
      <trkpt lat="50.522" lon="2.78088">
        <ele>36.653</ele>
        <time>2019-09-17T11:20:30.001Z</time>
      </trkpt>
      <trkpt lat="50.52199" lon="2.78108">
        <ele>37.506</ele>
        <time>2019-09-17T11:20:33.001Z</time>
      </trkpt>
      <trkpt lat="50.522" lon="2.78129">
        <ele>37.805</ele>
        <time>2019-09-17T11:20:36.001Z</time>
      </trkpt>
      <trkpt lat="50.52202" lon="2.78151">
        <ele>38.827</ele>
        <time>2019-09-17T11:20:39.001Z</time>
      </trkpt>
      <trkpt lat="50.52204" lon="2.78172">
        <ele>39.788</ele>
        <time>2019-09-17T11:20:42.001Z</time>
      </trkpt>
      <trkpt lat="50.52206" lon="2.78195">
        <ele>40.089</ele>
        <time>2019-09-17T11:20:45.001Z</time>
      </trkpt>
      <trkpt lat="50.52209" lon="2.78219">
        <ele>40.709</ele>
        <time>2019-09-17T11:20:48.001Z</time>
      </trkpt>
      <trkpt lat="50.52211" lon="2.78241">
        <ele>40.722</ele>
        <time>2019-09-17T11:20:51.001Z</time>
      </trkpt>
      <trkpt lat="50.52214" lon="2.78262">
        <ele>40.517</ele>
        <time>2019-09-17T11:20:54.001Z</time>
      </trkpt>
      <trkpt lat="50.52216" lon="2.78285">
        <ele>39.591</ele>
        <time>2019-09-17T11:20:57.001Z</time>
      </trkpt>
      <trkpt lat="50.52218" lon="2.78309">
        <ele>38.202</ele>
        <time>2019-09-17T11:21:00.000Z</time>
      </trkpt>
      <trkpt lat="50.5222" lon="2.78332">
        <ele>37.217</ele>
        <time>2019-09-17T11:21:03.001Z</time>
      </trkpt>
      <trkpt lat="50.52222" lon="2.78354">
        <ele>35.472</ele>
        <time>2019-09-17T11:21:06.001Z</time>
      </trkpt>
      <trkpt lat="50.52224" lon="2.78377">
        <ele>34.122</ele>
        <time>2019-09-17T11:21:09.001Z</time>
      </trkpt>
      <trkpt lat="50.52227" lon="2.78402">
        <ele>32.913</ele>
        <time>2019-09-17T11:21:12.001Z</time>
      </trkpt>
      <trkpt lat="50.52229" lon="2.78425">
        <ele>32.026</ele>
        <time>2019-09-17T11:21:15.001Z</time>
      </trkpt>
      <trkpt lat="50.52231" lon="2.78446">
        <ele>32.261</ele>
        <time>2019-09-17T11:21:18.001Z</time>
      </trkpt>
      <trkpt lat="50.52233" lon="2.78469">
        <ele>32.11</ele>
        <time>2019-09-17T11:21:21.001Z</time>
      </trkpt>
      <trkpt lat="50.52234" lon="2.78492">
        <ele>31.746</ele>
        <time>2019-09-17T11:21:24.001Z</time>
      </trkpt>
      <trkpt lat="50.52235" lon="2.78513">
        <ele>32.209</ele>
        <time>2019-09-17T11:21:27.001Z</time>
      </trkpt>
      <trkpt lat="50.52237" lon="2.78536">
        <ele>32.094</ele>
        <time>2019-09-17T11:21:30.001Z</time>
      </trkpt>
      <trkpt lat="50.52239" lon="2.7856">
        <ele>31.627</ele>
        <time>2019-09-17T11:21:33.001Z</time>
      </trkpt>
      <trkpt lat="50.52242" lon="2.78581">
        <ele>31.11</ele>
        <time>2019-09-17T11:21:36.001Z</time>
      </trkpt>
      <trkpt lat="50.52243" lon="2.78603">
        <ele>31.141</ele>
        <time>2019-09-17T11:21:39.001Z</time>
      </trkpt>
      <trkpt lat="50.52245" lon="2.78624">
        <ele>31.633</ele>
        <time>2019-09-17T11:21:42.001Z</time>
      </trkpt>
      <trkpt lat="50.52247" lon="2.78647">
        <ele>31.888</ele>
        <time>2019-09-17T11:21:45.001Z</time>
      </trkpt>
      <trkpt lat="50.52249" lon="2.7867">
        <ele>32.196</ele>
        <time>2019-09-17T11:21:48.001Z</time>
      </trkpt>
      <trkpt lat="50.52251" lon="2.78691">
        <ele>32.217</ele>
        <time>2019-09-17T11:21:51.001Z</time>
      </trkpt>
      <trkpt lat="50.52253" lon="2.78713">
        <ele>32.276</ele>
        <time>2019-09-17T11:21:54.001Z</time>
      </trkpt>
      <trkpt lat="50.52255" lon="2.78735">
        <ele>32.092</ele>
        <time>2019-09-17T11:21:57.001Z</time>
      </trkpt>
      <trkpt lat="50.52257" lon="2.78757">
        <ele>31.523</ele>
        <time>2019-09-17T11:22:00.000Z</time>
      </trkpt>
      <trkpt lat="50.52259" lon="2.78779">
        <ele>31.137</ele>
        <time>2019-09-17T11:22:03.001Z</time>
      </trkpt>
      <trkpt lat="50.52262" lon="2.78801">
        <ele>30.245</ele>
        <time>2019-09-17T11:22:06.001Z</time>
      </trkpt>
      <trkpt lat="50.52263" lon="2.78822">
        <ele>29.118</ele>
        <time>2019-09-17T11:22:09.001Z</time>
      </trkpt>
      <trkpt lat="50.52265" lon="2.78844">
        <ele>27.774</ele>
        <time>2019-09-17T11:22:12.001Z</time>
      </trkpt>
      <trkpt lat="50.52267" lon="2.78867">
        <ele>26.733</ele>
        <time>2019-09-17T11:22:15.001Z</time>
      </trkpt>
      <trkpt lat="50.52269" lon="2.78889">
        <ele>25.339</ele>
        <time>2019-09-17T11:22:18.001Z</time>
      </trkpt>
      <trkpt lat="50.5227" lon="2.78911">
        <ele>24.777</ele>
        <time>2019-09-17T11:22:21.001Z</time>
      </trkpt>
      <trkpt lat="50.52272" lon="2.78933">
        <ele>24.715</ele>
        <time>2019-09-17T11:22:24.001Z</time>
      </trkpt>
      <trkpt lat="50.52275" lon="2.78956">
        <ele>24.636</ele>
        <time>2019-09-17T11:22:27.001Z</time>
      </trkpt>
      <trkpt lat="50.52277" lon="2.78978">
        <ele>24.79</ele>
        <time>2019-09-17T11:22:30.001Z</time>
      </trkpt>
      <trkpt lat="50.52279" lon="2.79">
        <ele>24.449</ele>
        <time>2019-09-17T11:22:33.001Z</time>
      </trkpt>
      <trkpt lat="50.52281" lon="2.79022">
        <ele>24.126</ele>
        <time>2019-09-17T11:22:36.001Z</time>
      </trkpt>
      <trkpt lat="50.52282" lon="2.79044">
        <ele>24.205</ele>
        <time>2019-09-17T11:22:39.001Z</time>
      </trkpt>
      <trkpt lat="50.52283" lon="2.79064">
        <ele>24.296</ele>
        <time>2019-09-17T11:22:42.001Z</time>
      </trkpt>
      <trkpt lat="50.52285" lon="2.79085">
        <ele>24.489</ele>
        <time>2019-09-17T11:22:45.001Z</time>
      </trkpt>
      <trkpt lat="50.52287" lon="2.79108">
        <ele>25.315</ele>
        <time>2019-09-17T11:22:48.001Z</time>
      </trkpt>
      <trkpt lat="50.52289" lon="2.7913">
        <ele>25.815</ele>
        <time>2019-09-17T11:22:51.001Z</time>
      </trkpt>
      <trkpt lat="50.5229" lon="2.79153">
        <ele>26.414</ele>
        <time>2019-09-17T11:22:54.001Z</time>
      </trkpt>
      <trkpt lat="50.52293" lon="2.79175">
        <ele>26.33</ele>
        <time>2019-09-17T11:22:57.001Z</time>
      </trkpt>
      <trkpt lat="50.52301" lon="2.79193">
        <ele>25.493</ele>
        <time>2019-09-17T11:23:00.000Z</time>
      </trkpt>
      <trkpt lat="50.52307" lon="2.79205">
        <ele>24.952</ele>
        <time>2019-09-17T11:23:03.001Z</time>
      </trkpt>
      <trkpt lat="50.52312" lon="2.79214">
        <ele>24.53</ele>
        <time>2019-09-17T11:23:06.001Z</time>
      </trkpt>
      <trkpt lat="50.52317" lon="2.79225">
        <ele>24.373</ele>
        <time>2019-09-17T11:23:09.001Z</time>
      </trkpt>
      <trkpt lat="50.52322" lon="2.79237">
        <ele>25.472</ele>
        <time>2019-09-17T11:23:12.001Z</time>
      </trkpt>
      <trkpt lat="50.5233" lon="2.79247">
        <ele>25.998</ele>
        <time>2019-09-17T11:23:15.001Z</time>
      </trkpt>
      <trkpt lat="50.52336" lon="2.79256">
        <ele>26.432</ele>
        <time>2019-09-17T11:23:18.001Z</time>
      </trkpt>
      <trkpt lat="50.52341" lon="2.79265">
        <ele>26.617</ele>
        <time>2019-09-17T11:23:21.001Z</time>
      </trkpt>
      <trkpt lat="50.52348" lon="2.79275">
        <ele>26.602</ele>
        <time>2019-09-17T11:23:24.001Z</time>
      </trkpt>
      <trkpt lat="50.52356" lon="2.79286">
        <ele>25.395</ele>
        <time>2019-09-17T11:23:27.001Z</time>
      </trkpt>
      <trkpt lat="50.52365" lon="2.793">
        <ele>24.473</ele>
        <time>2019-09-17T11:23:30.001Z</time>
      </trkpt>
      <trkpt lat="50.52373" lon="2.79313">
        <ele>23.669</ele>
        <time>2019-09-17T11:23:33.001Z</time>
      </trkpt>
      <trkpt lat="50.52382" lon="2.79326">
        <ele>21.606</ele>
        <time>2019-09-17T11:23:36.001Z</time>
      </trkpt>
      <trkpt lat="50.52389" lon="2.79339">
        <ele>20.68</ele>
        <time>2019-09-17T11:23:39.001Z</time>
      </trkpt>
      <trkpt lat="50.52396" lon="2.79351">
        <ele>20.256</ele>
        <time>2019-09-17T11:23:42.001Z</time>
      </trkpt>
      <trkpt lat="50.52404" lon="2.79365">
        <ele>20.362</ele>
        <time>2019-09-17T11:23:45.001Z</time>
      </trkpt>
      <trkpt lat="50.5241" lon="2.79377">
        <ele>20.394</ele>
        <time>2019-09-17T11:23:48.001Z</time>
      </trkpt>
      <trkpt lat="50.52418" lon="2.79394">
        <ele>20.601</ele>
        <time>2019-09-17T11:23:51.001Z</time>
      </trkpt>
      <trkpt lat="50.52425" lon="2.79407">
        <ele>21.016</ele>
        <time>2019-09-17T11:23:54.001Z</time>
      </trkpt>
      <trkpt lat="50.52431" lon="2.79421">
        <ele>21.43</ele>
        <time>2019-09-17T11:23:57.001Z</time>
      </trkpt>
      <trkpt lat="50.52439" lon="2.79435">
        <ele>21.663</ele>
        <time>2019-09-17T11:24:00.000Z</time>
      </trkpt>
      <trkpt lat="50.52448" lon="2.79453">
        <ele>21.74</ele>
        <time>2019-09-17T11:24:03.001Z</time>
      </trkpt>
      <trkpt lat="50.52458" lon="2.79471">
        <ele>21.749</ele>
        <time>2019-09-17T11:24:06.001Z</time>
      </trkpt>
      <trkpt lat="50.52468" lon="2.79488">
        <ele>21.906</ele>
        <time>2019-09-17T11:24:09.001Z</time>
      </trkpt>
      <trkpt lat="50.52477" lon="2.79504">
        <ele>21.839</ele>
        <time>2019-09-17T11:24:12.001Z</time>
      </trkpt>
      <trkpt lat="50.52485" lon="2.79521">
        <ele>22.002</ele>
        <time>2019-09-17T11:24:15.001Z</time>
      </trkpt>
      <trkpt lat="50.52493" lon="2.79536">
        <ele>22.006</ele>
        <time>2019-09-17T11:24:18.001Z</time>
      </trkpt>
      <trkpt lat="50.52501" lon="2.79547">
        <ele>22.079</ele>
        <time>2019-09-17T11:24:21.001Z</time>
      </trkpt>
      <trkpt lat="50.52508" lon="2.7956">
        <ele>22.738</ele>
        <time>2019-09-17T11:24:24.001Z</time>
      </trkpt>
      <trkpt lat="50.52514" lon="2.79572">
        <ele>23.231</ele>
        <time>2019-09-17T11:24:27.001Z</time>
      </trkpt>
      <trkpt lat="50.52521" lon="2.79585">
        <ele>23.206</ele>
        <time>2019-09-17T11:24:30.001Z</time>
      </trkpt>
      <trkpt lat="50.5253" lon="2.796">
        <ele>23.177</ele>
        <time>2019-09-17T11:24:33.001Z</time>
      </trkpt>
      <trkpt lat="50.52539" lon="2.79616">
        <ele>23.402</ele>
        <time>2019-09-17T11:24:36.001Z</time>
      </trkpt>
      <trkpt lat="50.5255" lon="2.79636">
        <ele>23.279</ele>
        <time>2019-09-17T11:24:39.001Z</time>
      </trkpt>
      <trkpt lat="50.52561" lon="2.79653">
        <ele>22.879</ele>
        <time>2019-09-17T11:24:42.001Z</time>
      </trkpt>
      <trkpt lat="50.52571" lon="2.79671">
        <ele>22.751</ele>
        <time>2019-09-17T11:24:45.001Z</time>
      </trkpt>
      <trkpt lat="50.5258" lon="2.79689">
        <ele>22.43</ele>
        <time>2019-09-17T11:24:48.001Z</time>
      </trkpt>
      <trkpt lat="50.52587" lon="2.79704">
        <ele>22.166</ele>
        <time>2019-09-17T11:24:51.001Z</time>
      </trkpt>
      <trkpt lat="50.52595" lon="2.79718">
        <ele>22.434</ele>
        <time>2019-09-17T11:24:54.001Z</time>
      </trkpt>
      <trkpt lat="50.52604" lon="2.79733">
        <ele>22.824</ele>
        <time>2019-09-17T11:24:57.001Z</time>
      </trkpt>
      <trkpt lat="50.52613" lon="2.79748">
        <ele>23.303</ele>
        <time>2019-09-17T11:25:00.000Z</time>
      </trkpt>
      <trkpt lat="50.52622" lon="2.79761">
        <ele>23.739</ele>
        <time>2019-09-17T11:25:03.001Z</time>
      </trkpt>
      <trkpt lat="50.52631" lon="2.79776">
        <ele>23.836</ele>
        <time>2019-09-17T11:25:06.001Z</time>
      </trkpt>
      <trkpt lat="50.52639" lon="2.79792">
        <ele>24.002</ele>
        <time>2019-09-17T11:25:09.001Z</time>
      </trkpt>
      <trkpt lat="50.52648" lon="2.79809">
        <ele>24.286</ele>
        <time>2019-09-17T11:25:12.001Z</time>
      </trkpt>
      <trkpt lat="50.52656" lon="2.79826">
        <ele>24.013</ele>
        <time>2019-09-17T11:25:15.001Z</time>
      </trkpt>
      <trkpt lat="50.52664" lon="2.79842">
        <ele>23.751</ele>
        <time>2019-09-17T11:25:18.001Z</time>
      </trkpt>
      <trkpt lat="50.52672" lon="2.79858">
        <ele>23.119</ele>
        <time>2019-09-17T11:25:21.001Z</time>
      </trkpt>
      <trkpt lat="50.5268" lon="2.79873">
        <ele>22.715</ele>
        <time>2019-09-17T11:25:24.001Z</time>
      </trkpt>
      <trkpt lat="50.52688" lon="2.79888">
        <ele>22.159</ele>
        <time>2019-09-17T11:25:27.001Z</time>
      </trkpt>
      <trkpt lat="50.52695" lon="2.79902">
        <ele>21.803</ele>
        <time>2019-09-17T11:25:30.001Z</time>
      </trkpt>
      <trkpt lat="50.52701" lon="2.79914">
        <ele>22.336</ele>
        <time>2019-09-17T11:25:33.001Z</time>
      </trkpt>
      <trkpt lat="50.52706" lon="2.79923">
        <ele>21.916</ele>
        <time>2019-09-17T11:25:36.001Z</time>
      </trkpt>
      <trkpt lat="50.5271" lon="2.79926">
        <ele>21.773</ele>
        <time>2019-09-17T11:25:39.001Z</time>
      </trkpt>
      <trkpt lat="50.52714" lon="2.79936">
        <ele>21.711</ele>
        <time>2019-09-17T11:25:42.001Z</time>
      </trkpt>
      <trkpt lat="50.52716" lon="2.7995">
        <ele>21.925</ele>
        <time>2019-09-17T11:25:45.001Z</time>
      </trkpt>
      <trkpt lat="50.5272" lon="2.79964">
        <ele>21.46</ele>
        <time>2019-09-17T11:25:48.001Z</time>
      </trkpt>
      <trkpt lat="50.52726" lon="2.7998">
        <ele>20.852</ele>
        <time>2019-09-17T11:25:51.001Z</time>
      </trkpt>
      <trkpt lat="50.52731" lon="2.79997">
        <ele>20.623</ele>
        <time>2019-09-17T11:25:54.001Z</time>
      </trkpt>
      <trkpt lat="50.52736" lon="2.80011">
        <ele>20.651</ele>
        <time>2019-09-17T11:25:57.001Z</time>
      </trkpt>
      <trkpt lat="50.52741" lon="2.80024">
        <ele>19.4</ele>
        <time>2019-09-17T11:26:00.000Z</time>
      </trkpt>
      <trkpt lat="50.52747" lon="2.80039">
        <ele>19.093</ele>
        <time>2019-09-17T11:26:03.001Z</time>
      </trkpt>
      <trkpt lat="50.52752" lon="2.80063">
        <ele>18.98</ele>
        <time>2019-09-17T11:26:06.001Z</time>
      </trkpt>
      <trkpt lat="50.52757" lon="2.80084">
        <ele>18.722</ele>
        <time>2019-09-17T11:26:09.001Z</time>
      </trkpt>
      <trkpt lat="50.52762" lon="2.80098">
        <ele>18.736</ele>
        <time>2019-09-17T11:26:12.001Z</time>
      </trkpt>
      <trkpt lat="50.52763" lon="2.80111">
        <ele>19.95</ele>
        <time>2019-09-17T11:26:15.001Z</time>
      </trkpt>
      <trkpt lat="50.52765" lon="2.80122">
        <ele>20.851</ele>
        <time>2019-09-17T11:26:18.001Z</time>
      </trkpt>
      <trkpt lat="50.52769" lon="2.80133">
        <ele>21.112</ele>
        <time>2019-09-17T11:26:21.001Z</time>
      </trkpt>
      <trkpt lat="50.52773" lon="2.80146">
        <ele>22.022</ele>
        <time>2019-09-17T11:26:24.001Z</time>
      </trkpt>
      <trkpt lat="50.52776" lon="2.8016">
        <ele>22.606</ele>
        <time>2019-09-17T11:26:27.001Z</time>
      </trkpt>
      <trkpt lat="50.52781" lon="2.80177">
        <ele>22.391</ele>
        <time>2019-09-17T11:26:30.001Z</time>
      </trkpt>
      <trkpt lat="50.52787" lon="2.80197">
        <ele>22.483</ele>
        <time>2019-09-17T11:26:33.001Z</time>
      </trkpt>
      <trkpt lat="50.52794" lon="2.80217">
        <ele>22.395</ele>
        <time>2019-09-17T11:26:36.001Z</time>
      </trkpt>
      <trkpt lat="50.52799" lon="2.80237">
        <ele>22.383</ele>
        <time>2019-09-17T11:26:39.001Z</time>
      </trkpt>
      <trkpt lat="50.52805" lon="2.80256">
        <ele>22.298</ele>
        <time>2019-09-17T11:26:42.001Z</time>
      </trkpt>
      <trkpt lat="50.52809" lon="2.80276">
        <ele>22.282</ele>
        <time>2019-09-17T11:26:45.001Z</time>
      </trkpt>
      <trkpt lat="50.52814" lon="2.80293">
        <ele>22.953</ele>
        <time>2019-09-17T11:26:48.001Z</time>
      </trkpt>
      <trkpt lat="50.52818" lon="2.80309">
        <ele>22.01</ele>
        <time>2019-09-17T11:26:51.001Z</time>
      </trkpt>
      <trkpt lat="50.52824" lon="2.80331">
        <ele>20.691</ele>
        <time>2019-09-17T11:26:54.001Z</time>
      </trkpt>
      <trkpt lat="50.5283" lon="2.80351">
        <ele>20.003</ele>
        <time>2019-09-17T11:26:57.001Z</time>
      </trkpt>
      <trkpt lat="50.52835" lon="2.80368">
        <ele>19.403</ele>
        <time>2019-09-17T11:27:00.000Z</time>
      </trkpt>
      <trkpt lat="50.52842" lon="2.80386">
        <ele>19.031</ele>
        <time>2019-09-17T11:27:03.001Z</time>
      </trkpt>
      <trkpt lat="50.52847" lon="2.80404">
        <ele>18.995</ele>
        <time>2019-09-17T11:27:06.001Z</time>
      </trkpt>
      <trkpt lat="50.52851" lon="2.80423">
        <ele>20.552</ele>
        <time>2019-09-17T11:27:09.001Z</time>
      </trkpt>
      <trkpt lat="50.52856" lon="2.80441">
        <ele>20.854</ele>
        <time>2019-09-17T11:27:12.001Z</time>
      </trkpt>
      <trkpt lat="50.52863" lon="2.8046">
        <ele>20.801</ele>
        <time>2019-09-17T11:27:15.001Z</time>
      </trkpt>
      <trkpt lat="50.52869" lon="2.80477">
        <ele>21.008</ele>
        <time>2019-09-17T11:27:18.001Z</time>
      </trkpt>
      <trkpt lat="50.52875" lon="2.80492">
        <ele>21.161</ele>
        <time>2019-09-17T11:27:21.001Z</time>
      </trkpt>
      <trkpt lat="50.52878" lon="2.8051">
        <ele>22.622</ele>
        <time>2019-09-17T11:27:24.001Z</time>
      </trkpt>
      <trkpt lat="50.52883" lon="2.80528">
        <ele>24.609</ele>
        <time>2019-09-17T11:27:27.001Z</time>
      </trkpt>
      <trkpt lat="50.52889" lon="2.80546">
        <ele>25.269</ele>
        <time>2019-09-17T11:27:30.001Z</time>
      </trkpt>
      <trkpt lat="50.52894" lon="2.80563">
        <ele>25.584</ele>
        <time>2019-09-17T11:27:33.001Z</time>
      </trkpt>
      <trkpt lat="50.529" lon="2.80579">
        <ele>24.971</ele>
        <time>2019-09-17T11:27:36.001Z</time>
      </trkpt>
      <trkpt lat="50.52906" lon="2.80595">
        <ele>24.877</ele>
        <time>2019-09-17T11:27:39.001Z</time>
      </trkpt>
      <trkpt lat="50.52911" lon="2.80613">
        <ele>24.917</ele>
        <time>2019-09-17T11:27:42.001Z</time>
      </trkpt>
      <trkpt lat="50.52917" lon="2.8063">
        <ele>24.955</ele>
        <time>2019-09-17T11:27:45.001Z</time>
      </trkpt>
      <trkpt lat="50.52922" lon="2.80648">
        <ele>25.113</ele>
        <time>2019-09-17T11:27:48.001Z</time>
      </trkpt>
      <trkpt lat="50.52927" lon="2.80665">
        <ele>25.371</ele>
        <time>2019-09-17T11:27:51.001Z</time>
      </trkpt>
      <trkpt lat="50.52933" lon="2.80681">
        <ele>26.285</ele>
        <time>2019-09-17T11:27:54.001Z</time>
      </trkpt>
      <trkpt lat="50.52938" lon="2.80695">
        <ele>26.703</ele>
        <time>2019-09-17T11:27:57.001Z</time>
      </trkpt>
      <trkpt lat="50.52944" lon="2.80709">
        <ele>26.771</ele>
        <time>2019-09-17T11:28:00.000Z</time>
      </trkpt>
      <trkpt lat="50.5295" lon="2.80721">
        <ele>27.086</ele>
        <time>2019-09-17T11:28:03.001Z</time>
      </trkpt>
      <trkpt lat="50.52954" lon="2.80731">
        <ele>27.608</ele>
        <time>2019-09-17T11:28:06.001Z</time>
      </trkpt>
      <trkpt lat="50.52956" lon="2.80745">
        <ele>28.356</ele>
        <time>2019-09-17T11:28:09.001Z</time>
      </trkpt>
      <trkpt lat="50.52959" lon="2.8076">
        <ele>29.309</ele>
        <time>2019-09-17T11:28:12.001Z</time>
      </trkpt>
      <trkpt lat="50.5296" lon="2.80774">
        <ele>29.379</ele>
        <time>2019-09-17T11:28:15.001Z</time>
      </trkpt>
      <trkpt lat="50.52961" lon="2.80784">
        <ele>29.062</ele>
        <time>2019-09-17T11:28:18.001Z</time>
      </trkpt>
      <trkpt lat="50.52962" lon="2.80797">
        <ele>29.961</ele>
        <time>2019-09-17T11:28:21.001Z</time>
      </trkpt>
      <trkpt lat="50.52964" lon="2.80813">
        <ele>30.724</ele>
        <time>2019-09-17T11:28:24.001Z</time>
      </trkpt>
      <trkpt lat="50.52965" lon="2.80829">
        <ele>31.013</ele>
        <time>2019-09-17T11:28:27.001Z</time>
      </trkpt>
      <trkpt lat="50.52967" lon="2.80847">
        <ele>31.486</ele>
        <time>2019-09-17T11:28:30.001Z</time>
      </trkpt>
      <trkpt lat="50.52967" lon="2.80861">
        <ele>32.062</ele>
        <time>2019-09-17T11:28:33.001Z</time>
      </trkpt>
      <trkpt lat="50.52968" lon="2.80875">
        <ele>32.429</ele>
        <time>2019-09-17T11:28:36.001Z</time>
      </trkpt>
      <trkpt lat="50.52968" lon="2.80894">
        <ele>33.041</ele>
        <time>2019-09-17T11:28:39.001Z</time>
      </trkpt>
      <trkpt lat="50.52969" lon="2.80915">
        <ele>32.97</ele>
        <time>2019-09-17T11:28:42.001Z</time>
      </trkpt>
      <trkpt lat="50.5297" lon="2.80935">
        <ele>32.509</ele>
        <time>2019-09-17T11:28:45.001Z</time>
      </trkpt>
      <trkpt lat="50.52969" lon="2.80954">
        <ele>33.275</ele>
        <time>2019-09-17T11:28:48.001Z</time>
      </trkpt>
      <trkpt lat="50.52966" lon="2.80972">
        <ele>34.328</ele>
        <time>2019-09-17T11:28:51.001Z</time>
      </trkpt>
      <trkpt lat="50.52964" lon="2.80992">
        <ele>34.263</ele>
        <time>2019-09-17T11:28:54.001Z</time>
      </trkpt>
      <trkpt lat="50.52961" lon="2.81014">
        <ele>33.998</ele>
        <time>2019-09-17T11:28:57.001Z</time>
      </trkpt>
      <trkpt lat="50.52961" lon="2.81027">
        <ele>33.743</ele>
        <time>2019-09-17T11:29:00.000Z</time>
      </trkpt>
      <trkpt lat="50.52956" lon="2.81039">
        <ele>33.888</ele>
        <time>2019-09-17T11:29:03.001Z</time>
      </trkpt>
      <trkpt lat="50.52948" lon="2.81057">
        <ele>33.426</ele>
        <time>2019-09-17T11:29:06.001Z</time>
      </trkpt>
      <trkpt lat="50.52945" lon="2.81078">
        <ele>33.122</ele>
        <time>2019-09-17T11:29:09.001Z</time>
      </trkpt>
      <trkpt lat="50.52943" lon="2.81095">
        <ele>33.162</ele>
        <time>2019-09-17T11:29:12.001Z</time>
      </trkpt>
      <trkpt lat="50.52942" lon="2.81109">
        <ele>33.874</ele>
        <time>2019-09-17T11:29:15.001Z</time>
      </trkpt>
      <trkpt lat="50.52943" lon="2.81122">
        <ele>33.038</ele>
        <time>2019-09-17T11:29:18.001Z</time>
      </trkpt>
      <trkpt lat="50.52942" lon="2.81135">
        <ele>31.488</ele>
        <time>2019-09-17T11:29:21.001Z</time>
      </trkpt>
      <trkpt lat="50.52941" lon="2.81148">
        <ele>30.117</ele>
        <time>2019-09-17T11:29:24.001Z</time>
      </trkpt>
      <trkpt lat="50.52939" lon="2.81159">
        <ele>29.207</ele>
        <time>2019-09-17T11:29:27.001Z</time>
      </trkpt>
      <trkpt lat="50.52937" lon="2.81168">
        <ele>28.371</ele>
        <time>2019-09-17T11:29:30.001Z</time>
      </trkpt>
      <trkpt lat="50.52935" lon="2.8118">
        <ele>27.061</ele>
        <time>2019-09-17T11:29:33.001Z</time>
      </trkpt>
      <trkpt lat="50.52931" lon="2.81193">
        <ele>27.302</ele>
        <time>2019-09-17T11:29:36.001Z</time>
      </trkpt>
      <trkpt lat="50.52928" lon="2.81206">
        <ele>26.948</ele>
        <time>2019-09-17T11:29:39.001Z</time>
      </trkpt>
      <trkpt lat="50.52924" lon="2.81219">
        <ele>26.27</ele>
        <time>2019-09-17T11:29:42.001Z</time>
      </trkpt>
      <trkpt lat="50.52919" lon="2.81232">
        <ele>25.923</ele>
        <time>2019-09-17T11:29:45.001Z</time>
      </trkpt>
      <trkpt lat="50.52915" lon="2.81248">
        <ele>26.214</ele>
        <time>2019-09-17T11:29:48.001Z</time>
      </trkpt>
      <trkpt lat="50.52911" lon="2.81258">
        <ele>27.034</ele>
        <time>2019-09-17T11:29:51.001Z</time>
      </trkpt>
      <trkpt lat="50.52907" lon="2.81267">
        <ele>27.121</ele>
        <time>2019-09-17T11:29:54.001Z</time>
      </trkpt>
      <trkpt lat="50.52902" lon="2.81283">
        <ele>27.039</ele>
        <time>2019-09-17T11:29:57.001Z</time>
      </trkpt>
      <trkpt lat="50.52895" lon="2.81303">
        <ele>27.228</ele>
        <time>2019-09-17T11:30:00.000Z</time>
      </trkpt>
      <trkpt lat="50.52888" lon="2.81324">
        <ele>27.31</ele>
        <time>2019-09-17T11:30:03.001Z</time>
      </trkpt>
      <trkpt lat="50.52881" lon="2.81345">
        <ele>27.034</ele>
        <time>2019-09-17T11:30:06.001Z</time>
      </trkpt>
      <trkpt lat="50.52873" lon="2.81367">
        <ele>26.368</ele>
        <time>2019-09-17T11:30:09.001Z</time>
      </trkpt>
      <trkpt lat="50.52866" lon="2.81387">
        <ele>26.772</ele>
        <time>2019-09-17T11:30:12.001Z</time>
      </trkpt>
      <trkpt lat="50.52859" lon="2.81407">
        <ele>25.942</ele>
        <time>2019-09-17T11:30:15.001Z</time>
      </trkpt>
      <trkpt lat="50.52853" lon="2.81423">
        <ele>25.677</ele>
        <time>2019-09-17T11:30:18.001Z</time>
      </trkpt>
      <trkpt lat="50.52847" lon="2.8144">
        <ele>25.71</ele>
        <time>2019-09-17T11:30:21.001Z</time>
      </trkpt>
      <trkpt lat="50.52842" lon="2.81459">
        <ele>25.18</ele>
        <time>2019-09-17T11:30:24.001Z</time>
      </trkpt>
      <trkpt lat="50.52838" lon="2.81479">
        <ele>24.23</ele>
        <time>2019-09-17T11:30:27.001Z</time>
      </trkpt>
      <trkpt lat="50.52833" lon="2.81499">
        <ele>23.391</ele>
        <time>2019-09-17T11:30:30.001Z</time>
      </trkpt>
      <trkpt lat="50.52826" lon="2.8152">
        <ele>24.226</ele>
        <time>2019-09-17T11:30:33.001Z</time>
      </trkpt>
      <trkpt lat="50.5282" lon="2.81537">
        <ele>24.267</ele>
        <time>2019-09-17T11:30:36.001Z</time>
      </trkpt>
      <trkpt lat="50.52815" lon="2.81553">
        <ele>24.215</ele>
        <time>2019-09-17T11:30:39.001Z</time>
      </trkpt>
      <trkpt lat="50.52811" lon="2.81569">
        <ele>23.407</ele>
        <time>2019-09-17T11:30:42.001Z</time>
      </trkpt>
      <trkpt lat="50.52805" lon="2.81586">
        <ele>22.743</ele>
        <time>2019-09-17T11:30:45.001Z</time>
      </trkpt>
      <trkpt lat="50.52801" lon="2.81603">
        <ele>21.976</ele>
        <time>2019-09-17T11:30:48.001Z</time>
      </trkpt>
      <trkpt lat="50.52795" lon="2.81619">
        <ele>21.55</ele>
        <time>2019-09-17T11:30:51.001Z</time>
      </trkpt>
      <trkpt lat="50.52789" lon="2.81636">
        <ele>20.858</ele>
        <time>2019-09-17T11:30:54.001Z</time>
      </trkpt>
      <trkpt lat="50.52784" lon="2.81653">
        <ele>20.682</ele>
        <time>2019-09-17T11:30:57.001Z</time>
      </trkpt>
      <trkpt lat="50.52779" lon="2.81671">
        <ele>21.159</ele>
        <time>2019-09-17T11:31:00.000Z</time>
      </trkpt>
      <trkpt lat="50.52773" lon="2.8169">
        <ele>21.517</ele>
        <time>2019-09-17T11:31:03.001Z</time>
      </trkpt>
      <trkpt lat="50.52769" lon="2.81712">
        <ele>21.573</ele>
        <time>2019-09-17T11:31:06.001Z</time>
      </trkpt>
      <trkpt lat="50.52764" lon="2.81734">
        <ele>21.06</ele>
        <time>2019-09-17T11:31:09.001Z</time>
      </trkpt>
      <trkpt lat="50.52758" lon="2.81757">
        <ele>22.54</ele>
        <time>2019-09-17T11:31:12.001Z</time>
      </trkpt>
      <trkpt lat="50.52753" lon="2.81778">
        <ele>22.917</ele>
        <time>2019-09-17T11:31:15.001Z</time>
      </trkpt>
      <trkpt lat="50.5275" lon="2.81798">
        <ele>22.882</ele>
        <time>2019-09-17T11:31:18.001Z</time>
      </trkpt>
      <trkpt lat="50.52745" lon="2.81817">
        <ele>23.165</ele>
        <time>2019-09-17T11:31:21.001Z</time>
      </trkpt>
      <trkpt lat="50.5274" lon="2.81836">
        <ele>23.621</ele>
        <time>2019-09-17T11:31:24.001Z</time>
      </trkpt>
      <trkpt lat="50.52735" lon="2.81857">
        <ele>22.625</ele>
        <time>2019-09-17T11:31:27.001Z</time>
      </trkpt>
      <trkpt lat="50.52731" lon="2.81878">
        <ele>21.44</ele>
        <time>2019-09-17T11:31:30.001Z</time>
      </trkpt>
      <trkpt lat="50.52726" lon="2.81898">
        <ele>21.115</ele>
        <time>2019-09-17T11:31:33.001Z</time>
      </trkpt>
      <trkpt lat="50.52721" lon="2.81917">
        <ele>20.798</ele>
        <time>2019-09-17T11:31:36.001Z</time>
      </trkpt>
      <trkpt lat="50.52716" lon="2.8194">
        <ele>20.859</ele>
        <time>2019-09-17T11:31:39.001Z</time>
      </trkpt>
      <trkpt lat="50.5271" lon="2.81962">
        <ele>21.019</ele>
        <time>2019-09-17T11:31:42.001Z</time>
      </trkpt>
      <trkpt lat="50.52705" lon="2.81982">
        <ele>21.174</ele>
        <time>2019-09-17T11:31:45.001Z</time>
      </trkpt>
      <trkpt lat="50.52699" lon="2.82002">
        <ele>21.233</ele>
        <time>2019-09-17T11:31:48.001Z</time>
      </trkpt>
      <trkpt lat="50.52695" lon="2.82023">
        <ele>20.745</ele>
        <time>2019-09-17T11:31:51.001Z</time>
      </trkpt>
      <trkpt lat="50.5269" lon="2.82042">
        <ele>20.434</ele>
        <time>2019-09-17T11:31:54.001Z</time>
      </trkpt>
      <trkpt lat="50.52686" lon="2.82062">
        <ele>20.684</ele>
        <time>2019-09-17T11:31:57.001Z</time>
      </trkpt>
      <trkpt lat="50.52681" lon="2.82081">
        <ele>20.9</ele>
        <time>2019-09-17T11:32:00.000Z</time>
      </trkpt>
      <trkpt lat="50.52675" lon="2.82102">
        <ele>21.187</ele>
        <time>2019-09-17T11:32:03.001Z</time>
      </trkpt>
      <trkpt lat="50.5267" lon="2.82122">
        <ele>21.336</ele>
        <time>2019-09-17T11:32:06.001Z</time>
      </trkpt>
      <trkpt lat="50.52667" lon="2.82142">
        <ele>22.148</ele>
        <time>2019-09-17T11:32:09.001Z</time>
      </trkpt>
      <trkpt lat="50.52661" lon="2.82163">
        <ele>22.416</ele>
        <time>2019-09-17T11:32:12.001Z</time>
      </trkpt>
      <trkpt lat="50.52656" lon="2.82184">
        <ele>22.581</ele>
        <time>2019-09-17T11:32:15.001Z</time>
      </trkpt>
      <trkpt lat="50.5265" lon="2.82204">
        <ele>23.014</ele>
        <time>2019-09-17T11:32:18.001Z</time>
      </trkpt>
      <trkpt lat="50.52643" lon="2.82223">
        <ele>23.376</ele>
        <time>2019-09-17T11:32:21.001Z</time>
      </trkpt>
      <trkpt lat="50.52637" lon="2.82241">
        <ele>23.497</ele>
        <time>2019-09-17T11:32:24.001Z</time>
      </trkpt>
      <trkpt lat="50.52631" lon="2.82259">
        <ele>23.851</ele>
        <time>2019-09-17T11:32:27.001Z</time>
      </trkpt>
      <trkpt lat="50.52626" lon="2.82277">
        <ele>24.083</ele>
        <time>2019-09-17T11:32:30.001Z</time>
      </trkpt>
      <trkpt lat="50.52621" lon="2.82297">
        <ele>24.404</ele>
        <time>2019-09-17T11:32:33.001Z</time>
      </trkpt>
      <trkpt lat="50.52614" lon="2.82316">
        <ele>24.9</ele>
        <time>2019-09-17T11:32:36.001Z</time>
      </trkpt>
      <trkpt lat="50.5261" lon="2.82337">
        <ele>25.635</ele>
        <time>2019-09-17T11:32:39.001Z</time>
      </trkpt>
      <trkpt lat="50.52604" lon="2.8236">
        <ele>26.805</ele>
        <time>2019-09-17T11:32:42.001Z</time>
      </trkpt>
      <trkpt lat="50.52599" lon="2.82381">
        <ele>27.72</ele>
        <time>2019-09-17T11:32:45.001Z</time>
      </trkpt>
      <trkpt lat="50.52594" lon="2.82402">
        <ele>28.583</ele>
        <time>2019-09-17T11:32:48.001Z</time>
      </trkpt>
      <trkpt lat="50.5259" lon="2.82422">
        <ele>28.897</ele>
        <time>2019-09-17T11:32:51.001Z</time>
      </trkpt>
      <trkpt lat="50.52587" lon="2.82445">
        <ele>27.896</ele>
        <time>2019-09-17T11:32:54.001Z</time>
      </trkpt>
      <trkpt lat="50.52583" lon="2.8247">
        <ele>26.93</ele>
        <time>2019-09-17T11:32:57.001Z</time>
      </trkpt>
      <trkpt lat="50.52581" lon="2.82494">
        <ele>26.616</ele>
        <time>2019-09-17T11:33:00.000Z</time>
      </trkpt>
      <trkpt lat="50.5258" lon="2.82519">
        <ele>26.35</ele>
        <time>2019-09-17T11:33:03.001Z</time>
      </trkpt>
      <trkpt lat="50.52578" lon="2.82544">
        <ele>26.971</ele>
        <time>2019-09-17T11:33:06.001Z</time>
      </trkpt>
      <trkpt lat="50.52577" lon="2.82566">
        <ele>26.906</ele>
        <time>2019-09-17T11:33:09.001Z</time>
      </trkpt>
      <trkpt lat="50.52578" lon="2.82585">
        <ele>26.411</ele>
        <time>2019-09-17T11:33:12.001Z</time>
      </trkpt>
      <trkpt lat="50.52577" lon="2.82608">
        <ele>25.2</ele>
        <time>2019-09-17T11:33:15.001Z</time>
      </trkpt>
      <trkpt lat="50.52576" lon="2.8263">
        <ele>24.804</ele>
        <time>2019-09-17T11:33:18.001Z</time>
      </trkpt>
      <trkpt lat="50.52575" lon="2.82654">
        <ele>24.403</ele>
        <time>2019-09-17T11:33:21.001Z</time>
      </trkpt>
      <trkpt lat="50.52575" lon="2.82675">
        <ele>24.241</ele>
        <time>2019-09-17T11:33:24.001Z</time>
      </trkpt>
      <trkpt lat="50.52576" lon="2.82695">
        <ele>23.81</ele>
        <time>2019-09-17T11:33:27.001Z</time>
      </trkpt>
      <trkpt lat="50.52578" lon="2.82717">
        <ele>23.753</ele>
        <time>2019-09-17T11:33:30.001Z</time>
      </trkpt>
      <trkpt lat="50.52579" lon="2.82737">
        <ele>23.269</ele>
        <time>2019-09-17T11:33:33.001Z</time>
      </trkpt>
      <trkpt lat="50.5258" lon="2.82758">
        <ele>22.709</ele>
        <time>2019-09-17T11:33:36.001Z</time>
      </trkpt>
      <trkpt lat="50.52583" lon="2.82779">
        <ele>22.412</ele>
        <time>2019-09-17T11:33:39.001Z</time>
      </trkpt>
      <trkpt lat="50.52585" lon="2.82796">
        <ele>22.283</ele>
        <time>2019-09-17T11:33:42.001Z</time>
      </trkpt>
      <trkpt lat="50.52588" lon="2.82815">
        <ele>22.388</ele>
        <time>2019-09-17T11:33:45.001Z</time>
      </trkpt>
      <trkpt lat="50.52592" lon="2.82834">
        <ele>22.945</ele>
        <time>2019-09-17T11:33:48.001Z</time>
      </trkpt>
      <trkpt lat="50.52595" lon="2.82854">
        <ele>23.244</ele>
        <time>2019-09-17T11:33:51.001Z</time>
      </trkpt>
      <trkpt lat="50.52598" lon="2.82876">
        <ele>24.092</ele>
        <time>2019-09-17T11:33:54.001Z</time>
      </trkpt>
      <trkpt lat="50.52602" lon="2.829">
        <ele>25.9</ele>
        <time>2019-09-17T11:33:57.001Z</time>
      </trkpt>
      <trkpt lat="50.52604" lon="2.82921">
        <ele>26.502</ele>
        <time>2019-09-17T11:34:00.000Z</time>
      </trkpt>
      <trkpt lat="50.52605" lon="2.82939">
        <ele>26.708</ele>
        <time>2019-09-17T11:34:03.001Z</time>
      </trkpt>
      <trkpt lat="50.52606" lon="2.82959">
        <ele>26.326</ele>
        <time>2019-09-17T11:34:06.001Z</time>
      </trkpt>
      <trkpt lat="50.52609" lon="2.82981">
        <ele>25.465</ele>
        <time>2019-09-17T11:34:09.001Z</time>
      </trkpt>
      <trkpt lat="50.52613" lon="2.83005">
        <ele>24.598</ele>
        <time>2019-09-17T11:34:12.001Z</time>
      </trkpt>
      <trkpt lat="50.52616" lon="2.8303">
        <ele>24.418</ele>
        <time>2019-09-17T11:34:15.001Z</time>
      </trkpt>
      <trkpt lat="50.5262" lon="2.83052">
        <ele>24.723</ele>
        <time>2019-09-17T11:34:18.001Z</time>
      </trkpt>
      <trkpt lat="50.52623" lon="2.83075">
        <ele>24.226</ele>
        <time>2019-09-17T11:34:21.001Z</time>
      </trkpt>
      <trkpt lat="50.52625" lon="2.83092">
        <ele>23.198</ele>
        <time>2019-09-17T11:34:24.001Z</time>
      </trkpt>
      <trkpt lat="50.52627" lon="2.83113">
        <ele>22.478</ele>
        <time>2019-09-17T11:34:27.001Z</time>
      </trkpt>
      <trkpt lat="50.52629" lon="2.83135">
        <ele>21.44</ele>
        <time>2019-09-17T11:34:30.001Z</time>
      </trkpt>
      <trkpt lat="50.52632" lon="2.83158">
        <ele>20.498</ele>
        <time>2019-09-17T11:34:33.001Z</time>
      </trkpt>
      <trkpt lat="50.52637" lon="2.83181">
        <ele>20.621</ele>
        <time>2019-09-17T11:34:36.001Z</time>
      </trkpt>
      <trkpt lat="50.52639" lon="2.83205">
        <ele>22.853</ele>
        <time>2019-09-17T11:34:39.001Z</time>
      </trkpt>
      <trkpt lat="50.52641" lon="2.83227">
        <ele>23.871</ele>
        <time>2019-09-17T11:34:42.001Z</time>
      </trkpt>
      <trkpt lat="50.52644" lon="2.83248">
        <ele>23.515</ele>
        <time>2019-09-17T11:34:45.001Z</time>
      </trkpt>
      <trkpt lat="50.52647" lon="2.83269">
        <ele>22.207</ele>
        <time>2019-09-17T11:34:48.001Z</time>
      </trkpt>
      <trkpt lat="50.5265" lon="2.83291">
        <ele>21.343</ele>
        <time>2019-09-17T11:34:51.001Z</time>
      </trkpt>
      <trkpt lat="50.52653" lon="2.83313">
        <ele>20.726</ele>
        <time>2019-09-17T11:34:54.001Z</time>
      </trkpt>
      <trkpt lat="50.52657" lon="2.83337">
        <ele>19.478</ele>
        <time>2019-09-17T11:34:57.001Z</time>
      </trkpt>
      <trkpt lat="50.5266" lon="2.83359">
        <ele>19.292</ele>
        <time>2019-09-17T11:35:00.000Z</time>
      </trkpt>
      <trkpt lat="50.52663" lon="2.83381">
        <ele>19.539</ele>
        <time>2019-09-17T11:35:03.001Z</time>
      </trkpt>
      <trkpt lat="50.52666" lon="2.83403">
        <ele>19.696</ele>
        <time>2019-09-17T11:35:06.001Z</time>
      </trkpt>
      <trkpt lat="50.5267" lon="2.83425">
        <ele>19.372</ele>
        <time>2019-09-17T11:35:09.001Z</time>
      </trkpt>
      <trkpt lat="50.52672" lon="2.83444">
        <ele>19.562</ele>
        <time>2019-09-17T11:35:12.001Z</time>
      </trkpt>
      <trkpt lat="50.52675" lon="2.83463">
        <ele>19.644</ele>
        <time>2019-09-17T11:35:15.001Z</time>
      </trkpt>
      <trkpt lat="50.52678" lon="2.83483">
        <ele>19.799</ele>
        <time>2019-09-17T11:35:18.001Z</time>
      </trkpt>
      <trkpt lat="50.52681" lon="2.83503">
        <ele>19.931</ele>
        <time>2019-09-17T11:35:21.001Z</time>
      </trkpt>
      <trkpt lat="50.52684" lon="2.83524">
        <ele>20.159</ele>
        <time>2019-09-17T11:35:24.001Z</time>
      </trkpt>
      <trkpt lat="50.52684" lon="2.83543">
        <ele>20.736</ele>
        <time>2019-09-17T11:35:27.001Z</time>
      </trkpt>
      <trkpt lat="50.52686" lon="2.83562">
        <ele>20.895</ele>
        <time>2019-09-17T11:35:30.001Z</time>
      </trkpt>
      <trkpt lat="50.52688" lon="2.83582">
        <ele>21.686</ele>
        <time>2019-09-17T11:35:33.001Z</time>
      </trkpt>
      <trkpt lat="50.52691" lon="2.83604">
        <ele>22.446</ele>
        <time>2019-09-17T11:35:36.001Z</time>
      </trkpt>
      <trkpt lat="50.52693" lon="2.83626">
        <ele>22.546</ele>
        <time>2019-09-17T11:35:39.001Z</time>
      </trkpt>
      <trkpt lat="50.52695" lon="2.83647">
        <ele>23.65</ele>
        <time>2019-09-17T11:35:42.001Z</time>
      </trkpt>
      <trkpt lat="50.52699" lon="2.83666">
        <ele>24.138</ele>
        <time>2019-09-17T11:35:45.001Z</time>
      </trkpt>
      <trkpt lat="50.527" lon="2.83687">
        <ele>23.831</ele>
        <time>2019-09-17T11:35:48.001Z</time>
      </trkpt>
      <trkpt lat="50.52703" lon="2.83709">
        <ele>23.982</ele>
        <time>2019-09-17T11:35:51.001Z</time>
      </trkpt>
      <trkpt lat="50.52707" lon="2.83735">
        <ele>24.634</ele>
        <time>2019-09-17T11:35:54.001Z</time>
      </trkpt>
      <trkpt lat="50.52707" lon="2.83758">
        <ele>25.654</ele>
        <time>2019-09-17T11:35:57.001Z</time>
      </trkpt>
      <trkpt lat="50.52712" lon="2.83779">
        <ele>25.852</ele>
        <time>2019-09-17T11:36:00.000Z</time>
      </trkpt>
      <trkpt lat="50.52716" lon="2.838">
        <ele>25.616</ele>
        <time>2019-09-17T11:36:03.001Z</time>
      </trkpt>
      <trkpt lat="50.52719" lon="2.83821">
        <ele>24.814</ele>
        <time>2019-09-17T11:36:06.001Z</time>
      </trkpt>
      <trkpt lat="50.52722" lon="2.83841">
        <ele>24.215</ele>
        <time>2019-09-17T11:36:09.001Z</time>
      </trkpt>
      <trkpt lat="50.52724" lon="2.83861">
        <ele>23.491</ele>
        <time>2019-09-17T11:36:12.001Z</time>
      </trkpt>
      <trkpt lat="50.52727" lon="2.83882">
        <ele>23.263</ele>
        <time>2019-09-17T11:36:15.001Z</time>
      </trkpt>
      <trkpt lat="50.52728" lon="2.83901">
        <ele>23.023</ele>
        <time>2019-09-17T11:36:18.001Z</time>
      </trkpt>
      <trkpt lat="50.5273" lon="2.83921">
        <ele>22.865</ele>
        <time>2019-09-17T11:36:21.001Z</time>
      </trkpt>
      <trkpt lat="50.52732" lon="2.83941">
        <ele>22.565</ele>
        <time>2019-09-17T11:36:24.001Z</time>
      </trkpt>
      <trkpt lat="50.52732" lon="2.83959">
        <ele>22.556</ele>
        <time>2019-09-17T11:36:27.001Z</time>
      </trkpt>
      <trkpt lat="50.52734" lon="2.83976">
        <ele>22.619</ele>
        <time>2019-09-17T11:36:30.001Z</time>
      </trkpt>
      <trkpt lat="50.52737" lon="2.83995">
        <ele>22.785</ele>
        <time>2019-09-17T11:36:33.001Z</time>
      </trkpt>
      <trkpt lat="50.52739" lon="2.84012">
        <ele>22.35</ele>
        <time>2019-09-17T11:36:36.001Z</time>
      </trkpt>
      <trkpt lat="50.52742" lon="2.84031">
        <ele>21.741</ele>
        <time>2019-09-17T11:36:39.001Z</time>
      </trkpt>
      <trkpt lat="50.52745" lon="2.84051">
        <ele>21.412</ele>
        <time>2019-09-17T11:36:42.001Z</time>
      </trkpt>
      <trkpt lat="50.52748" lon="2.84069">
        <ele>21.282</ele>
        <time>2019-09-17T11:36:45.001Z</time>
      </trkpt>
      <trkpt lat="50.5275" lon="2.8409">
        <ele>20.874</ele>
        <time>2019-09-17T11:36:48.001Z</time>
      </trkpt>
      <trkpt lat="50.52754" lon="2.84109">
        <ele>20.584</ele>
        <time>2019-09-17T11:36:51.001Z</time>
      </trkpt>
      <trkpt lat="50.52757" lon="2.84132">
        <ele>20.396</ele>
        <time>2019-09-17T11:36:54.001Z</time>
      </trkpt>
      <trkpt lat="50.5276" lon="2.84157">
        <ele>20.316</ele>
        <time>2019-09-17T11:36:57.002Z</time>
      </trkpt>
      <trkpt lat="50.52764" lon="2.84179">
        <ele>19.935</ele>
        <time>2019-09-17T11:37:00.000Z</time>
      </trkpt>
      <trkpt lat="50.52768" lon="2.842">
        <ele>19.937</ele>
        <time>2019-09-17T11:37:03.001Z</time>
      </trkpt>
      <trkpt lat="50.52771" lon="2.84222">
        <ele>20.034</ele>
        <time>2019-09-17T11:37:06.001Z</time>
      </trkpt>
      <trkpt lat="50.52773" lon="2.8424">
        <ele>21.263</ele>
        <time>2019-09-17T11:37:09.001Z</time>
      </trkpt>
      <trkpt lat="50.52776" lon="2.8426">
        <ele>21.545</ele>
        <time>2019-09-17T11:37:12.001Z</time>
      </trkpt>
      <trkpt lat="50.52778" lon="2.84278">
        <ele>21.895</ele>
        <time>2019-09-17T11:37:15.001Z</time>
      </trkpt>
      <trkpt lat="50.52781" lon="2.84298">
        <ele>21.759</ele>
        <time>2019-09-17T11:37:18.001Z</time>
      </trkpt>
      <trkpt lat="50.52784" lon="2.84318">
        <ele>21.383</ele>
        <time>2019-09-17T11:37:21.001Z</time>
      </trkpt>
      <trkpt lat="50.52788" lon="2.84338">
        <ele>20.761</ele>
        <time>2019-09-17T11:37:24.001Z</time>
      </trkpt>
      <trkpt lat="50.52791" lon="2.84358">
        <ele>20.242</ele>
        <time>2019-09-17T11:37:27.001Z</time>
      </trkpt>
      <trkpt lat="50.52794" lon="2.84379">
        <ele>19.671</ele>
        <time>2019-09-17T11:37:30.001Z</time>
      </trkpt>
      <trkpt lat="50.52796" lon="2.84398">
        <ele>19.424</ele>
        <time>2019-09-17T11:37:33.001Z</time>
      </trkpt>
      <trkpt lat="50.52798" lon="2.84416">
        <ele>20.264</ele>
        <time>2019-09-17T11:37:36.001Z</time>
      </trkpt>
      <trkpt lat="50.528" lon="2.84432">
        <ele>20.968</ele>
        <time>2019-09-17T11:37:39.001Z</time>
      </trkpt>
      <trkpt lat="50.52803" lon="2.84451">
        <ele>21.067</ele>
        <time>2019-09-17T11:37:42.001Z</time>
      </trkpt>
      <trkpt lat="50.52807" lon="2.84472">
        <ele>20.193</ele>
        <time>2019-09-17T11:37:45.001Z</time>
      </trkpt>
      <trkpt lat="50.5281" lon="2.8449">
        <ele>20.148</ele>
        <time>2019-09-17T11:37:48.001Z</time>
      </trkpt>
      <trkpt lat="50.52814" lon="2.84508">
        <ele>20.17</ele>
        <time>2019-09-17T11:37:51.001Z</time>
      </trkpt>
      <trkpt lat="50.52817" lon="2.84529">
        <ele>20.238</ele>
        <time>2019-09-17T11:37:54.001Z</time>
      </trkpt>
      <trkpt lat="50.5282" lon="2.8455">
        <ele>20.457</ele>
        <time>2019-09-17T11:37:57.001Z</time>
      </trkpt>
      <trkpt lat="50.52822" lon="2.84572">
        <ele>20.871</ele>
        <time>2019-09-17T11:38:00.000Z</time>
      </trkpt>
      <trkpt lat="50.52825" lon="2.84592">
        <ele>20.858</ele>
        <time>2019-09-17T11:38:03.001Z</time>
      </trkpt>
      <trkpt lat="50.52828" lon="2.84611">
        <ele>19.58</ele>
        <time>2019-09-17T11:38:06.001Z</time>
      </trkpt>
      <trkpt lat="50.5283" lon="2.84627">
        <ele>19.546</ele>
        <time>2019-09-17T11:38:09.001Z</time>
      </trkpt>
      <trkpt lat="50.52833" lon="2.84642">
        <ele>19.643</ele>
        <time>2019-09-17T11:38:12.001Z</time>
      </trkpt>
      <trkpt lat="50.52835" lon="2.84655">
        <ele>20.136</ele>
        <time>2019-09-17T11:38:15.001Z</time>
      </trkpt>
      <trkpt lat="50.52838" lon="2.84669">
        <ele>20.325</ele>
        <time>2019-09-17T11:38:18.001Z</time>
      </trkpt>
      <trkpt lat="50.52839" lon="2.84681">
        <ele>20.511</ele>
        <time>2019-09-17T11:38:21.001Z</time>
      </trkpt>
      <trkpt lat="50.5284" lon="2.84695">
        <ele>20.042</ele>
        <time>2019-09-17T11:38:24.001Z</time>
      </trkpt>
      <trkpt lat="50.5284" lon="2.84706">
        <ele>20.035</ele>
        <time>2019-09-17T11:38:27.001Z</time>
      </trkpt>
      <trkpt lat="50.5284" lon="2.84708">
        <ele>20.464</ele>
        <time>2019-09-17T11:38:30.001Z</time>
      </trkpt>
      <trkpt lat="50.52839" lon="2.8471">
        <ele>19.994</ele>
        <time>2019-09-17T11:42:24.001Z</time>
      </trkpt>
      <trkpt lat="50.52841" lon="2.84713">
        <ele>20.006</ele>
        <time>2019-09-17T11:42:27.001Z</time>
      </trkpt>
      <trkpt lat="50.52848" lon="2.84715">
        <ele>19.238</ele>
        <time>2019-09-17T11:42:30.001Z</time>
      </trkpt>
      <trkpt lat="50.52857" lon="2.84712">
        <ele>19.653</ele>
        <time>2019-09-17T11:42:33.001Z</time>
      </trkpt>
      <trkpt lat="50.52865" lon="2.84709">
        <ele>19.907</ele>
        <time>2019-09-17T11:42:36.001Z</time>
      </trkpt>
      <trkpt lat="50.52875" lon="2.84709">
        <ele>19.96</ele>
        <time>2019-09-17T11:42:39.001Z</time>
      </trkpt>
      <trkpt lat="50.52884" lon="2.84706">
        <ele>19.633</ele>
        <time>2019-09-17T11:42:42.001Z</time>
      </trkpt>
      <trkpt lat="50.52894" lon="2.84704">
        <ele>19.451</ele>
        <time>2019-09-17T11:42:45.001Z</time>
      </trkpt>
      <trkpt lat="50.52906" lon="2.84701">
        <ele>19.05</ele>
        <time>2019-09-17T11:42:48.001Z</time>
      </trkpt>
      <trkpt lat="50.52918" lon="2.84696">
        <ele>18.764</ele>
        <time>2019-09-17T11:42:51.001Z</time>
      </trkpt>
      <trkpt lat="50.52928" lon="2.84692">
        <ele>18.456</ele>
        <time>2019-09-17T11:42:54.001Z</time>
      </trkpt>
      <trkpt lat="50.52935" lon="2.84686">
        <ele>18.749</ele>
        <time>2019-09-17T11:42:57.001Z</time>
      </trkpt>
      <trkpt lat="50.52934" lon="2.84674">
        <ele>20.991</ele>
        <time>2019-09-17T11:43:00.000Z</time>
      </trkpt>
      <trkpt lat="50.52933" lon="2.84659">
        <ele>21.604</ele>
        <time>2019-09-17T11:43:03.001Z</time>
      </trkpt>
      <trkpt lat="50.52932" lon="2.84643">
        <ele>21.9</ele>
        <time>2019-09-17T11:43:06.001Z</time>
      </trkpt>
      <trkpt lat="50.5293" lon="2.84625">
        <ele>22.172</ele>
        <time>2019-09-17T11:43:09.001Z</time>
      </trkpt>
      <trkpt lat="50.52928" lon="2.84608">
        <ele>22.48</ele>
        <time>2019-09-17T11:43:12.001Z</time>
      </trkpt>
      <trkpt lat="50.52926" lon="2.84594">
        <ele>22.156</ele>
        <time>2019-09-17T11:43:15.001Z</time>
      </trkpt>
      <trkpt lat="50.52923" lon="2.8458">
        <ele>21.854</ele>
        <time>2019-09-17T11:43:18.001Z</time>
      </trkpt>
      <trkpt lat="50.52926" lon="2.8457">
        <ele>21.57</ele>
        <time>2019-09-17T11:43:21.001Z</time>
      </trkpt>
      <trkpt lat="50.52931" lon="2.84564">
        <ele>20.988</ele>
        <time>2019-09-17T11:43:24.001Z</time>
      </trkpt>
      <trkpt lat="50.52939" lon="2.84558">
        <ele>20.201</ele>
        <time>2019-09-17T11:43:27.001Z</time>
      </trkpt>
      <trkpt lat="50.52948" lon="2.84552">
        <ele>19.71</ele>
        <time>2019-09-17T11:43:30.001Z</time>
      </trkpt>
      <trkpt lat="50.52957" lon="2.84545">
        <ele>19.453</ele>
        <time>2019-09-17T11:43:33.001Z</time>
      </trkpt>
      <trkpt lat="50.52966" lon="2.84538">
        <ele>19.421</ele>
        <time>2019-09-17T11:43:36.001Z</time>
      </trkpt>
      <trkpt lat="50.52976" lon="2.84532">
        <ele>19.72</ele>
        <time>2019-09-17T11:43:39.001Z</time>
      </trkpt>
      <trkpt lat="50.52988" lon="2.84526">
        <ele>20.047</ele>
        <time>2019-09-17T11:43:42.001Z</time>
      </trkpt>
      <trkpt lat="50.52999" lon="2.8452">
        <ele>19.678</ele>
        <time>2019-09-17T11:43:45.001Z</time>
      </trkpt>
      <trkpt lat="50.53011" lon="2.84513">
        <ele>19.46</ele>
        <time>2019-09-17T11:43:48.001Z</time>
      </trkpt>
      <trkpt lat="50.53023" lon="2.84506">
        <ele>19.186</ele>
        <time>2019-09-17T11:43:51.001Z</time>
      </trkpt>
      <trkpt lat="50.53035" lon="2.84498">
        <ele>19.562</ele>
        <time>2019-09-17T11:43:54.001Z</time>
      </trkpt>
      <trkpt lat="50.53049" lon="2.84492">
        <ele>19.621</ele>
        <time>2019-09-17T11:43:57.001Z</time>
      </trkpt>
      <trkpt lat="50.53061" lon="2.84485">
        <ele>19.5</ele>
        <time>2019-09-17T11:44:00.000Z</time>
      </trkpt>
      <trkpt lat="50.53073" lon="2.84478">
        <ele>19.755</ele>
        <time>2019-09-17T11:44:03.001Z</time>
      </trkpt>
      <trkpt lat="50.53085" lon="2.8447">
        <ele>21.048</ele>
        <time>2019-09-17T11:44:06.001Z</time>
      </trkpt>
      <trkpt lat="50.53097" lon="2.84463">
        <ele>21.934</ele>
        <time>2019-09-17T11:44:09.001Z</time>
      </trkpt>
      <trkpt lat="50.5311" lon="2.84456">
        <ele>22.77</ele>
        <time>2019-09-17T11:44:12.001Z</time>
      </trkpt>
      <trkpt lat="50.53122" lon="2.84449">
        <ele>23.882</ele>
        <time>2019-09-17T11:44:15.001Z</time>
      </trkpt>
      <trkpt lat="50.53133" lon="2.84445">
        <ele>24.116</ele>
        <time>2019-09-17T11:44:18.001Z</time>
      </trkpt>
      <trkpt lat="50.53143" lon="2.84453">
        <ele>23.915</ele>
        <time>2019-09-17T11:44:21.001Z</time>
      </trkpt>
      <trkpt lat="50.53146" lon="2.84472">
        <ele>24.144</ele>
        <time>2019-09-17T11:44:24.001Z</time>
      </trkpt>
      <trkpt lat="50.53148" lon="2.84489">
        <ele>24.714</ele>
        <time>2019-09-17T11:44:27.001Z</time>
      </trkpt>
      <trkpt lat="50.53149" lon="2.84508">
        <ele>24.669</ele>
        <time>2019-09-17T11:44:30.001Z</time>
      </trkpt>
      <trkpt lat="50.53151" lon="2.84527">
        <ele>24.214</ele>
        <time>2019-09-17T11:44:33.001Z</time>
      </trkpt>
      <trkpt lat="50.53152" lon="2.84547">
        <ele>23.948</ele>
        <time>2019-09-17T11:44:36.001Z</time>
      </trkpt>
      <trkpt lat="50.53154" lon="2.84566">
        <ele>23.742</ele>
        <time>2019-09-17T11:44:39.001Z</time>
      </trkpt>
      <trkpt lat="50.53156" lon="2.84587">
        <ele>24.074</ele>
        <time>2019-09-17T11:44:42.001Z</time>
      </trkpt>
      <trkpt lat="50.53159" lon="2.8461">
        <ele>24.612</ele>
        <time>2019-09-17T11:44:45.001Z</time>
      </trkpt>
      <trkpt lat="50.53161" lon="2.84632">
        <ele>24.665</ele>
        <time>2019-09-17T11:44:48.001Z</time>
      </trkpt>
      <trkpt lat="50.53163" lon="2.84657">
        <ele>24.307</ele>
        <time>2019-09-17T11:44:51.001Z</time>
      </trkpt>
      <trkpt lat="50.53166" lon="2.84681">
        <ele>23.832</ele>
        <time>2019-09-17T11:44:54.001Z</time>
      </trkpt>
      <trkpt lat="50.53168" lon="2.84705">
        <ele>23.324</ele>
        <time>2019-09-17T11:44:57.001Z</time>
      </trkpt>
      <trkpt lat="50.53169" lon="2.84729">
        <ele>22.899</ele>
        <time>2019-09-17T11:45:00.000Z</time>
      </trkpt>
      <trkpt lat="50.53171" lon="2.84752">
        <ele>22.879</ele>
        <time>2019-09-17T11:45:03.001Z</time>
      </trkpt>
      <trkpt lat="50.53173" lon="2.84775">
        <ele>23.044</ele>
        <time>2019-09-17T11:45:06.001Z</time>
      </trkpt>
      <trkpt lat="50.53176" lon="2.84799">
        <ele>23.665</ele>
        <time>2019-09-17T11:45:09.001Z</time>
      </trkpt>
      <trkpt lat="50.53178" lon="2.84825">
        <ele>22.762</ele>
        <time>2019-09-17T11:45:12.001Z</time>
      </trkpt>
      <trkpt lat="50.53181" lon="2.84848">
        <ele>21.833</ele>
        <time>2019-09-17T11:45:15.001Z</time>
      </trkpt>
      <trkpt lat="50.53184" lon="2.84872">
        <ele>21.182</ele>
        <time>2019-09-17T11:45:18.001Z</time>
      </trkpt>
      <trkpt lat="50.53187" lon="2.84897">
        <ele>20.729</ele>
        <time>2019-09-17T11:45:21.001Z</time>
      </trkpt>
      <trkpt lat="50.5319" lon="2.84921">
        <ele>20.434</ele>
        <time>2019-09-17T11:45:24.001Z</time>
      </trkpt>
      <trkpt lat="50.53198" lon="2.84938">
        <ele>20.024</ele>
        <time>2019-09-17T11:45:27.001Z</time>
      </trkpt>
      <trkpt lat="50.53213" lon="2.84941">
        <ele>20.224</ele>
        <time>2019-09-17T11:45:30.001Z</time>
      </trkpt>
      <trkpt lat="50.53226" lon="2.84936">
        <ele>20.029</ele>
        <time>2019-09-17T11:45:33.001Z</time>
      </trkpt>
      <trkpt lat="50.5324" lon="2.84934">
        <ele>19.896</ele>
        <time>2019-09-17T11:45:36.001Z</time>
      </trkpt>
      <trkpt lat="50.53253" lon="2.84932">
        <ele>19.43</ele>
        <time>2019-09-17T11:45:39.001Z</time>
      </trkpt>
      <trkpt lat="50.53265" lon="2.84929">
        <ele>19.074</ele>
        <time>2019-09-17T11:45:42.001Z</time>
      </trkpt>
      <trkpt lat="50.53277" lon="2.84924">
        <ele>19.42</ele>
        <time>2019-09-17T11:45:45.001Z</time>
      </trkpt>
      <trkpt lat="50.5329" lon="2.84921">
        <ele>19.374</ele>
        <time>2019-09-17T11:45:48.001Z</time>
      </trkpt>
      <trkpt lat="50.53302" lon="2.84918">
        <ele>19.385</ele>
        <time>2019-09-17T11:45:51.001Z</time>
      </trkpt>
      <trkpt lat="50.53315" lon="2.84914">
        <ele>20.049</ele>
        <time>2019-09-17T11:45:54.001Z</time>
      </trkpt>
      <trkpt lat="50.53328" lon="2.8491">
        <ele>20.889</ele>
        <time>2019-09-17T11:45:57.001Z</time>
      </trkpt>
      <trkpt lat="50.53339" lon="2.84919">
        <ele>21.269</ele>
        <time>2019-09-17T11:46:00.000Z</time>
      </trkpt>
      <trkpt lat="50.53341" lon="2.84938">
        <ele>18.844</ele>
        <time>2019-09-17T11:46:03.001Z</time>
      </trkpt>
      <trkpt lat="50.53341" lon="2.84957">
        <ele>19.357</ele>
        <time>2019-09-17T11:46:06.001Z</time>
      </trkpt>
      <trkpt lat="50.53339" lon="2.84972">
        <ele>19.506</ele>
        <time>2019-09-17T11:46:09.001Z</time>
      </trkpt>
      <trkpt lat="50.53338" lon="2.84978">
        <ele>20.338</ele>
        <time>2019-09-17T11:46:12.001Z</time>
      </trkpt>
      <trkpt lat="50.53338" lon="2.84978">
        <ele>20.451</ele>
        <time>2019-09-17T11:46:15.001Z</time>
      </trkpt>
      <trkpt lat="50.53338" lon="2.84978">
        <ele>20.451</ele>
        <time>2019-09-17T11:47:18.001Z</time>
      </trkpt>
      <trkpt lat="50.53337" lon="2.84978">
        <ele>20.403</ele>
        <time>2019-09-17T11:47:21.001Z</time>
      </trkpt>
      <trkpt lat="50.53335" lon="2.84992">
        <ele>20.635</ele>
        <time>2019-09-17T11:47:27.001Z</time>
      </trkpt>
      <trkpt lat="50.53333" lon="2.85004">
        <ele>20.969</ele>
        <time>2019-09-17T11:47:30.001Z</time>
      </trkpt>
      <trkpt lat="50.53332" lon="2.85018">
        <ele>21.352</ele>
        <time>2019-09-17T11:47:33.001Z</time>
      </trkpt>
      <trkpt lat="50.53331" lon="2.85034">
        <ele>21.393</ele>
        <time>2019-09-17T11:47:36.001Z</time>
      </trkpt>
      <trkpt lat="50.5333" lon="2.85051">
        <ele>21.341</ele>
        <time>2019-09-17T11:47:39.001Z</time>
      </trkpt>
      <trkpt lat="50.53329" lon="2.85067">
        <ele>21.363</ele>
        <time>2019-09-17T11:47:42.001Z</time>
      </trkpt>
      <trkpt lat="50.53329" lon="2.85084">
        <ele>21.031</ele>
        <time>2019-09-17T11:47:45.001Z</time>
      </trkpt>
      <trkpt lat="50.53328" lon="2.851">
        <ele>20.589</ele>
        <time>2019-09-17T11:47:48.001Z</time>
      </trkpt>
      <trkpt lat="50.53327" lon="2.85117">
        <ele>20.049</ele>
        <time>2019-09-17T11:47:51.001Z</time>
      </trkpt>
      <trkpt lat="50.53326" lon="2.85136">
        <ele>19.618</ele>
        <time>2019-09-17T11:47:54.001Z</time>
      </trkpt>
      <trkpt lat="50.53324" lon="2.85155">
        <ele>19.113</ele>
        <time>2019-09-17T11:47:57.001Z</time>
      </trkpt>
      <trkpt lat="50.53323" lon="2.85174">
        <ele>18.978</ele>
        <time>2019-09-17T11:48:00.000Z</time>
      </trkpt>
      <trkpt lat="50.53322" lon="2.85193">
        <ele>18.684</ele>
        <time>2019-09-17T11:48:03.001Z</time>
      </trkpt>
      <trkpt lat="50.5332" lon="2.8521">
        <ele>18.209</ele>
        <time>2019-09-17T11:48:06.001Z</time>
      </trkpt>
      <trkpt lat="50.53318" lon="2.85227">
        <ele>18.246</ele>
        <time>2019-09-17T11:48:09.001Z</time>
      </trkpt>
      <trkpt lat="50.53318" lon="2.85243">
        <ele>17.901</ele>
        <time>2019-09-17T11:48:12.001Z</time>
      </trkpt>
      <trkpt lat="50.53319" lon="2.85259">
        <ele>18.518</ele>
        <time>2019-09-17T11:48:15.001Z</time>
      </trkpt>
      <trkpt lat="50.5332" lon="2.85275">
        <ele>19.179</ele>
        <time>2019-09-17T11:48:18.001Z</time>
      </trkpt>
      <trkpt lat="50.53322" lon="2.8529">
        <ele>19.625</ele>
        <time>2019-09-17T11:48:21.001Z</time>
      </trkpt>
      <trkpt lat="50.53324" lon="2.85306">
        <ele>19.547</ele>
        <time>2019-09-17T11:48:24.001Z</time>
      </trkpt>
      <trkpt lat="50.53327" lon="2.85322">
        <ele>19.573</ele>
        <time>2019-09-17T11:48:27.001Z</time>
      </trkpt>
      <trkpt lat="50.5333" lon="2.85338">
        <ele>19.521</ele>
        <time>2019-09-17T11:48:30.001Z</time>
      </trkpt>
      <trkpt lat="50.53332" lon="2.85354">
        <ele>19.13</ele>
        <time>2019-09-17T11:48:33.001Z</time>
      </trkpt>
      <trkpt lat="50.53336" lon="2.85369">
        <ele>19.055</ele>
        <time>2019-09-17T11:48:36.001Z</time>
      </trkpt>
      <trkpt lat="50.53337" lon="2.85384">
        <ele>18.802</ele>
        <time>2019-09-17T11:48:39.001Z</time>
      </trkpt>
      <trkpt lat="50.53337" lon="2.854">
        <ele>18.666</ele>
        <time>2019-09-17T11:48:42.001Z</time>
      </trkpt>
      <trkpt lat="50.53334" lon="2.85415">
        <ele>18.671</ele>
        <time>2019-09-17T11:48:45.001Z</time>
      </trkpt>
      <trkpt lat="50.53329" lon="2.85429">
        <ele>18.515</ele>
        <time>2019-09-17T11:48:48.001Z</time>
      </trkpt>
      <trkpt lat="50.53323" lon="2.85444">
        <ele>18.674</ele>
        <time>2019-09-17T11:48:51.001Z</time>
      </trkpt>
      <trkpt lat="50.53317" lon="2.85455">
        <ele>18.389</ele>
        <time>2019-09-17T11:48:54.001Z</time>
      </trkpt>
      <trkpt lat="50.53311" lon="2.85467">
        <ele>18.147</ele>
        <time>2019-09-17T11:48:57.001Z</time>
      </trkpt>
      <trkpt lat="50.53307" lon="2.8548">
        <ele>18.063</ele>
        <time>2019-09-17T11:49:00.000Z</time>
      </trkpt>
      <trkpt lat="50.53303" lon="2.85496">
        <ele>18.157</ele>
        <time>2019-09-17T11:49:03.001Z</time>
      </trkpt>
      <trkpt lat="50.533" lon="2.85511">
        <ele>18.405</ele>
        <time>2019-09-17T11:49:06.001Z</time>
      </trkpt>
      <trkpt lat="50.53297" lon="2.85527">
        <ele>19.062</ele>
        <time>2019-09-17T11:49:09.001Z</time>
      </trkpt>
      <trkpt lat="50.53293" lon="2.85543">
        <ele>18.977</ele>
        <time>2019-09-17T11:49:12.001Z</time>
      </trkpt>
      <trkpt lat="50.5329" lon="2.8556">
        <ele>19.078</ele>
        <time>2019-09-17T11:49:15.001Z</time>
      </trkpt>
      <trkpt lat="50.53286" lon="2.85577">
        <ele>19.282</ele>
        <time>2019-09-17T11:49:18.001Z</time>
      </trkpt>
      <trkpt lat="50.53282" lon="2.85594">
        <ele>19.39</ele>
        <time>2019-09-17T11:49:21.001Z</time>
      </trkpt>
      <trkpt lat="50.53279" lon="2.85611">
        <ele>19.522</ele>
        <time>2019-09-17T11:49:24.001Z</time>
      </trkpt>
      <trkpt lat="50.53275" lon="2.85628">
        <ele>19.617</ele>
        <time>2019-09-17T11:49:27.001Z</time>
      </trkpt>
      <trkpt lat="50.53272" lon="2.85645">
        <ele>19.962</ele>
        <time>2019-09-17T11:49:30.001Z</time>
      </trkpt>
      <trkpt lat="50.5327" lon="2.85663">
        <ele>19.656</ele>
        <time>2019-09-17T11:49:33.001Z</time>
      </trkpt>
      <trkpt lat="50.53269" lon="2.8568">
        <ele>19.819</ele>
        <time>2019-09-17T11:49:36.001Z</time>
      </trkpt>
      <trkpt lat="50.5327" lon="2.85694">
        <ele>19.941</ele>
        <time>2019-09-17T11:49:39.001Z</time>
      </trkpt>
      <trkpt lat="50.53271" lon="2.85708">
        <ele>20.377</ele>
        <time>2019-09-17T11:49:42.001Z</time>
      </trkpt>
      <trkpt lat="50.53274" lon="2.85722">
        <ele>20.789</ele>
        <time>2019-09-17T11:49:45.001Z</time>
      </trkpt>
      <trkpt lat="50.53277" lon="2.85737">
        <ele>20.858</ele>
        <time>2019-09-17T11:49:48.001Z</time>
      </trkpt>
      <trkpt lat="50.53281" lon="2.85753">
        <ele>21.084</ele>
        <time>2019-09-17T11:49:51.001Z</time>
      </trkpt>
      <trkpt lat="50.53284" lon="2.85768">
        <ele>21.338</ele>
        <time>2019-09-17T11:49:54.001Z</time>
      </trkpt>
      <trkpt lat="50.53287" lon="2.85783">
        <ele>21.179</ele>
        <time>2019-09-17T11:49:57.001Z</time>
      </trkpt>
      <trkpt lat="50.53291" lon="2.85799">
        <ele>21.378</ele>
        <time>2019-09-17T11:50:00.000Z</time>
      </trkpt>
      <trkpt lat="50.53293" lon="2.85814">
        <ele>21.284</ele>
        <time>2019-09-17T11:50:03.001Z</time>
      </trkpt>
      <trkpt lat="50.53296" lon="2.85828">
        <ele>21.068</ele>
        <time>2019-09-17T11:50:06.001Z</time>
      </trkpt>
      <trkpt lat="50.53298" lon="2.85842">
        <ele>21.022</ele>
        <time>2019-09-17T11:50:09.001Z</time>
      </trkpt>
      <trkpt lat="50.53301" lon="2.85856">
        <ele>20.787</ele>
        <time>2019-09-17T11:50:12.001Z</time>
      </trkpt>
      <trkpt lat="50.53304" lon="2.85869">
        <ele>20.945</ele>
        <time>2019-09-17T11:50:15.001Z</time>
      </trkpt>
      <trkpt lat="50.53306" lon="2.85882">
        <ele>21.18</ele>
        <time>2019-09-17T11:50:18.001Z</time>
      </trkpt>
      <trkpt lat="50.53309" lon="2.85894">
        <ele>21.719</ele>
        <time>2019-09-17T11:50:21.001Z</time>
      </trkpt>
      <trkpt lat="50.53312" lon="2.85907">
        <ele>21.871</ele>
        <time>2019-09-17T11:50:24.001Z</time>
      </trkpt>
      <trkpt lat="50.53315" lon="2.8592">
        <ele>22.299</ele>
        <time>2019-09-17T11:50:27.001Z</time>
      </trkpt>
      <trkpt lat="50.53318" lon="2.85934">
        <ele>22.778</ele>
        <time>2019-09-17T11:50:30.001Z</time>
      </trkpt>
      <trkpt lat="50.53319" lon="2.85948">
        <ele>23.031</ele>
        <time>2019-09-17T11:50:33.001Z</time>
      </trkpt>
      <trkpt lat="50.5332" lon="2.85962">
        <ele>23.261</ele>
        <time>2019-09-17T11:50:36.001Z</time>
      </trkpt>
      <trkpt lat="50.53321" lon="2.85977">
        <ele>23.284</ele>
        <time>2019-09-17T11:50:39.001Z</time>
      </trkpt>
      <trkpt lat="50.53321" lon="2.85993">
        <ele>23.038</ele>
        <time>2019-09-17T11:50:42.001Z</time>
      </trkpt>
      <trkpt lat="50.53322" lon="2.8601">
        <ele>22.788</ele>
        <time>2019-09-17T11:50:45.001Z</time>
      </trkpt>
      <trkpt lat="50.53322" lon="2.86025">
        <ele>22.475</ele>
        <time>2019-09-17T11:50:48.001Z</time>
      </trkpt>
      <trkpt lat="50.53322" lon="2.86037">
        <ele>22.301</ele>
        <time>2019-09-17T11:50:51.001Z</time>
      </trkpt>
      <trkpt lat="50.53322" lon="2.8605">
        <ele>22.322</ele>
        <time>2019-09-17T11:50:54.001Z</time>
      </trkpt>
      <trkpt lat="50.53323" lon="2.86064">
        <ele>22.349</ele>
        <time>2019-09-17T11:50:57.001Z</time>
      </trkpt>
      <trkpt lat="50.53325" lon="2.86079">
        <ele>22.691</ele>
        <time>2019-09-17T11:51:00.000Z</time>
      </trkpt>
      <trkpt lat="50.53327" lon="2.86094">
        <ele>22.919</ele>
        <time>2019-09-17T11:51:03.001Z</time>
      </trkpt>
      <trkpt lat="50.53332" lon="2.86106">
        <ele>23.595</ele>
        <time>2019-09-17T11:51:06.001Z</time>
      </trkpt>
      <trkpt lat="50.53337" lon="2.86116">
        <ele>23.994</ele>
        <time>2019-09-17T11:51:09.001Z</time>
      </trkpt>
      <trkpt lat="50.53341" lon="2.86125">
        <ele>24.28</ele>
        <time>2019-09-17T11:51:12.001Z</time>
      </trkpt>
      <trkpt lat="50.53344" lon="2.86138">
        <ele>24.212</ele>
        <time>2019-09-17T11:51:15.001Z</time>
      </trkpt>
      <trkpt lat="50.53348" lon="2.86155">
        <ele>24.394</ele>
        <time>2019-09-17T11:51:18.001Z</time>
      </trkpt>
      <trkpt lat="50.53351" lon="2.86169">
        <ele>24.257</ele>
        <time>2019-09-17T11:51:21.001Z</time>
      </trkpt>
      <trkpt lat="50.53354" lon="2.86181">
        <ele>24.745</ele>
        <time>2019-09-17T11:51:24.001Z</time>
      </trkpt>
      <trkpt lat="50.53358" lon="2.86191">
        <ele>25.783</ele>
        <time>2019-09-17T11:51:27.001Z</time>
      </trkpt>
      <trkpt lat="50.53363" lon="2.86198">
        <ele>25.888</ele>
        <time>2019-09-17T11:51:30.001Z</time>
      </trkpt>
      <trkpt lat="50.53371" lon="2.86208">
        <ele>26.333</ele>
        <time>2019-09-17T11:51:33.001Z</time>
      </trkpt>
      <trkpt lat="50.53375" lon="2.86222">
        <ele>26.479</ele>
        <time>2019-09-17T11:51:36.001Z</time>
      </trkpt>
      <trkpt lat="50.53379" lon="2.86238">
        <ele>26.744</ele>
        <time>2019-09-17T11:51:39.001Z</time>
      </trkpt>
      <trkpt lat="50.53386" lon="2.86252">
        <ele>26.343</ele>
        <time>2019-09-17T11:51:42.001Z</time>
      </trkpt>
      <trkpt lat="50.53391" lon="2.86264">
        <ele>26.144</ele>
        <time>2019-09-17T11:51:45.001Z</time>
      </trkpt>
      <trkpt lat="50.53391" lon="2.8628">
        <ele>26.493</ele>
        <time>2019-09-17T11:51:48.001Z</time>
      </trkpt>
      <trkpt lat="50.53383" lon="2.86293">
        <ele>26.811</ele>
        <time>2019-09-17T11:51:51.001Z</time>
      </trkpt>
      <trkpt lat="50.53372" lon="2.86304">
        <ele>27.302</ele>
        <time>2019-09-17T11:51:54.001Z</time>
      </trkpt>
      <trkpt lat="50.5336" lon="2.86318">
        <ele>27.055</ele>
        <time>2019-09-17T11:51:57.001Z</time>
      </trkpt>
      <trkpt lat="50.53349" lon="2.86332">
        <ele>26.775</ele>
        <time>2019-09-17T11:52:00.000Z</time>
      </trkpt>
      <trkpt lat="50.53338" lon="2.86347">
        <ele>26.465</ele>
        <time>2019-09-17T11:52:03.001Z</time>
      </trkpt>
      <trkpt lat="50.53325" lon="2.86363">
        <ele>25.701</ele>
        <time>2019-09-17T11:52:06.001Z</time>
      </trkpt>
      <trkpt lat="50.53314" lon="2.8638">
        <ele>24.94</ele>
        <time>2019-09-17T11:52:09.001Z</time>
      </trkpt>
      <trkpt lat="50.53302" lon="2.86398">
        <ele>23.635</ele>
        <time>2019-09-17T11:52:12.001Z</time>
      </trkpt>
      <trkpt lat="50.5329" lon="2.86419">
        <ele>23.93</ele>
        <time>2019-09-17T11:52:15.001Z</time>
      </trkpt>
      <trkpt lat="50.53281" lon="2.86439">
        <ele>24.248</ele>
        <time>2019-09-17T11:52:18.001Z</time>
      </trkpt>
      <trkpt lat="50.53272" lon="2.86459">
        <ele>24.226</ele>
        <time>2019-09-17T11:52:21.001Z</time>
      </trkpt>
      <trkpt lat="50.53263" lon="2.8648">
        <ele>23.633</ele>
        <time>2019-09-17T11:52:24.001Z</time>
      </trkpt>
      <trkpt lat="50.53255" lon="2.86501">
        <ele>23.767</ele>
        <time>2019-09-17T11:52:27.001Z</time>
      </trkpt>
      <trkpt lat="50.53253" lon="2.86525">
        <ele>23.488</ele>
        <time>2019-09-17T11:52:30.001Z</time>
      </trkpt>
      <trkpt lat="50.5326" lon="2.86547">
        <ele>23.138</ele>
        <time>2019-09-17T11:52:33.001Z</time>
      </trkpt>
      <trkpt lat="50.53267" lon="2.86564">
        <ele>23.132</ele>
        <time>2019-09-17T11:52:36.001Z</time>
      </trkpt>
      <trkpt lat="50.53274" lon="2.86585">
        <ele>23.763</ele>
        <time>2019-09-17T11:52:39.001Z</time>
      </trkpt>
      <trkpt lat="50.53282" lon="2.86605">
        <ele>24.684</ele>
        <time>2019-09-17T11:52:42.001Z</time>
      </trkpt>
      <trkpt lat="50.5329" lon="2.86625">
        <ele>25.636</ele>
        <time>2019-09-17T11:52:45.001Z</time>
      </trkpt>
      <trkpt lat="50.53298" lon="2.86646">
        <ele>26.721</ele>
        <time>2019-09-17T11:52:48.001Z</time>
      </trkpt>
      <trkpt lat="50.53305" lon="2.86666">
        <ele>26.528</ele>
        <time>2019-09-17T11:52:51.001Z</time>
      </trkpt>
      <trkpt lat="50.53312" lon="2.86688">
        <ele>25.579</ele>
        <time>2019-09-17T11:52:54.001Z</time>
      </trkpt>
      <trkpt lat="50.5332" lon="2.86709">
        <ele>25.945</ele>
        <time>2019-09-17T11:52:57.001Z</time>
      </trkpt>
      <trkpt lat="50.53326" lon="2.86731">
        <ele>26.825</ele>
        <time>2019-09-17T11:53:00.000Z</time>
      </trkpt>
      <trkpt lat="50.53334" lon="2.86752">
        <ele>26.573</ele>
        <time>2019-09-17T11:53:03.001Z</time>
      </trkpt>
      <trkpt lat="50.53342" lon="2.86773">
        <ele>25.747</ele>
        <time>2019-09-17T11:53:06.001Z</time>
      </trkpt>
      <trkpt lat="50.5335" lon="2.86794">
        <ele>24.281</ele>
        <time>2019-09-17T11:53:09.001Z</time>
      </trkpt>
      <trkpt lat="50.53359" lon="2.86816">
        <ele>24.788</ele>
        <time>2019-09-17T11:53:12.001Z</time>
      </trkpt>
      <trkpt lat="50.53368" lon="2.8684">
        <ele>24.509</ele>
        <time>2019-09-17T11:53:15.001Z</time>
      </trkpt>
      <trkpt lat="50.53376" lon="2.86863">
        <ele>23.785</ele>
        <time>2019-09-17T11:53:18.001Z</time>
      </trkpt>
      <trkpt lat="50.53386" lon="2.86886">
        <ele>22.465</ele>
        <time>2019-09-17T11:53:21.001Z</time>
      </trkpt>
      <trkpt lat="50.53396" lon="2.86908">
        <ele>22.307</ele>
        <time>2019-09-17T11:53:24.001Z</time>
      </trkpt>
      <trkpt lat="50.53405" lon="2.8693">
        <ele>22.096</ele>
        <time>2019-09-17T11:53:27.001Z</time>
      </trkpt>
      <trkpt lat="50.53414" lon="2.86949">
        <ele>22.233</ele>
        <time>2019-09-17T11:53:30.001Z</time>
      </trkpt>
      <trkpt lat="50.53422" lon="2.86969">
        <ele>22.22</ele>
        <time>2019-09-17T11:53:33.001Z</time>
      </trkpt>
      <trkpt lat="50.53431" lon="2.86991">
        <ele>22.559</ele>
        <time>2019-09-17T11:53:36.001Z</time>
      </trkpt>
      <trkpt lat="50.5344" lon="2.87013">
        <ele>23.018</ele>
        <time>2019-09-17T11:53:39.001Z</time>
      </trkpt>
      <trkpt lat="50.53448" lon="2.8703">
        <ele>23.95</ele>
        <time>2019-09-17T11:53:42.001Z</time>
      </trkpt>
      <trkpt lat="50.53454" lon="2.87042">
        <ele>24.305</ele>
        <time>2019-09-17T11:53:45.001Z</time>
      </trkpt>
      <trkpt lat="50.53458" lon="2.87052">
        <ele>25.174</ele>
        <time>2019-09-17T11:53:48.001Z</time>
      </trkpt>
      <trkpt lat="50.53463" lon="2.8706">
        <ele>25.781</ele>
        <time>2019-09-17T11:53:51.001Z</time>
      </trkpt>
      <trkpt lat="50.53466" lon="2.87067">
        <ele>26.051</ele>
        <time>2019-09-17T11:53:54.001Z</time>
      </trkpt>
      <trkpt lat="50.53468" lon="2.87074">
        <ele>26.481</ele>
        <time>2019-09-17T11:53:57.001Z</time>
      </trkpt>
      <trkpt lat="50.53472" lon="2.87086">
        <ele>27.346</ele>
        <time>2019-09-17T11:54:00.000Z</time>
      </trkpt>
      <trkpt lat="50.53478" lon="2.871">
        <ele>27.817</ele>
        <time>2019-09-17T11:54:03.001Z</time>
      </trkpt>
      <trkpt lat="50.53483" lon="2.87113">
        <ele>27.961</ele>
        <time>2019-09-17T11:54:06.001Z</time>
      </trkpt>
      <trkpt lat="50.53489" lon="2.87128">
        <ele>27.823</ele>
        <time>2019-09-17T11:54:09.001Z</time>
      </trkpt>
      <trkpt lat="50.53494" lon="2.87144">
        <ele>28.607</ele>
        <time>2019-09-17T11:54:12.001Z</time>
      </trkpt>
      <trkpt lat="50.53499" lon="2.87162">
        <ele>30.524</ele>
        <time>2019-09-17T11:54:15.001Z</time>
      </trkpt>
      <trkpt lat="50.53505" lon="2.8718">
        <ele>31.38</ele>
        <time>2019-09-17T11:54:18.001Z</time>
      </trkpt>
      <trkpt lat="50.53511" lon="2.87196">
        <ele>31.928</ele>
        <time>2019-09-17T11:54:21.001Z</time>
      </trkpt>
      <trkpt lat="50.53517" lon="2.87212">
        <ele>31.729</ele>
        <time>2019-09-17T11:54:24.001Z</time>
      </trkpt>
      <trkpt lat="50.53523" lon="2.87229">
        <ele>31.25</ele>
        <time>2019-09-17T11:54:27.001Z</time>
      </trkpt>
      <trkpt lat="50.53529" lon="2.87247">
        <ele>30.431</ele>
        <time>2019-09-17T11:54:30.001Z</time>
      </trkpt>
      <trkpt lat="50.53534" lon="2.87266">
        <ele>28.864</ele>
        <time>2019-09-17T11:54:33.001Z</time>
      </trkpt>
      <trkpt lat="50.53539" lon="2.87287">
        <ele>25.914</ele>
        <time>2019-09-17T11:54:36.001Z</time>
      </trkpt>
      <trkpt lat="50.53545" lon="2.87304">
        <ele>24.101</ele>
        <time>2019-09-17T11:54:39.001Z</time>
      </trkpt>
      <trkpt lat="50.53553" lon="2.87324">
        <ele>22.706</ele>
        <time>2019-09-17T11:54:42.001Z</time>
      </trkpt>
      <trkpt lat="50.5356" lon="2.87344">
        <ele>20.954</ele>
        <time>2019-09-17T11:54:45.001Z</time>
      </trkpt>
      <trkpt lat="50.53568" lon="2.87364">
        <ele>19.953</ele>
        <time>2019-09-17T11:54:48.001Z</time>
      </trkpt>
      <trkpt lat="50.53576" lon="2.87382">
        <ele>19.811</ele>
        <time>2019-09-17T11:54:51.001Z</time>
      </trkpt>
      <trkpt lat="50.53582" lon="2.87399">
        <ele>19.93</ele>
        <time>2019-09-17T11:54:54.001Z</time>
      </trkpt>
      <trkpt lat="50.5359" lon="2.87418">
        <ele>19.633</ele>
        <time>2019-09-17T11:54:57.001Z</time>
      </trkpt>
      <trkpt lat="50.53599" lon="2.87438">
        <ele>19.919</ele>
        <time>2019-09-17T11:55:00.000Z</time>
      </trkpt>
      <trkpt lat="50.5361" lon="2.87455">
        <ele>21.751</ele>
        <time>2019-09-17T11:55:03.001Z</time>
      </trkpt>
      <trkpt lat="50.53618" lon="2.87475">
        <ele>23.142</ele>
        <time>2019-09-17T11:55:06.001Z</time>
      </trkpt>
      <trkpt lat="50.53625" lon="2.87494">
        <ele>23.995</ele>
        <time>2019-09-17T11:55:09.001Z</time>
      </trkpt>
      <trkpt lat="50.53631" lon="2.87513">
        <ele>24.442</ele>
        <time>2019-09-17T11:55:12.001Z</time>
      </trkpt>
      <trkpt lat="50.53638" lon="2.87533">
        <ele>24.728</ele>
        <time>2019-09-17T11:55:15.001Z</time>
      </trkpt>
      <trkpt lat="50.53645" lon="2.87551">
        <ele>25.136</ele>
        <time>2019-09-17T11:55:18.001Z</time>
      </trkpt>
      <trkpt lat="50.53651" lon="2.87569">
        <ele>25.583</ele>
        <time>2019-09-17T11:55:21.001Z</time>
      </trkpt>
      <trkpt lat="50.53657" lon="2.87586">
        <ele>25.936</ele>
        <time>2019-09-17T11:55:24.001Z</time>
      </trkpt>
      <trkpt lat="50.53663" lon="2.87603">
        <ele>25.31</ele>
        <time>2019-09-17T11:55:27.001Z</time>
      </trkpt>
      <trkpt lat="50.53669" lon="2.87622">
        <ele>24.153</ele>
        <time>2019-09-17T11:55:30.001Z</time>
      </trkpt>
      <trkpt lat="50.53675" lon="2.87638">
        <ele>24.173</ele>
        <time>2019-09-17T11:55:33.001Z</time>
      </trkpt>
      <trkpt lat="50.53681" lon="2.87654">
        <ele>24.924</ele>
        <time>2019-09-17T11:55:36.001Z</time>
      </trkpt>
      <trkpt lat="50.53687" lon="2.87671">
        <ele>25.348</ele>
        <time>2019-09-17T11:55:39.001Z</time>
      </trkpt>
      <trkpt lat="50.53694" lon="2.87688">
        <ele>25.411</ele>
        <time>2019-09-17T11:55:42.001Z</time>
      </trkpt>
      <trkpt lat="50.53701" lon="2.87706">
        <ele>25.8</ele>
        <time>2019-09-17T11:55:45.001Z</time>
      </trkpt>
      <trkpt lat="50.53709" lon="2.87724">
        <ele>25.598</ele>
        <time>2019-09-17T11:55:48.001Z</time>
      </trkpt>
      <trkpt lat="50.53716" lon="2.87741">
        <ele>25.765</ele>
        <time>2019-09-17T11:55:51.001Z</time>
      </trkpt>
      <trkpt lat="50.53723" lon="2.87758">
        <ele>25.581</ele>
        <time>2019-09-17T11:55:54.001Z</time>
      </trkpt>
      <trkpt lat="50.5373" lon="2.87774">
        <ele>25.598</ele>
        <time>2019-09-17T11:55:57.001Z</time>
      </trkpt>
      <trkpt lat="50.53733" lon="2.87788">
        <ele>25.705</ele>
        <time>2019-09-17T11:56:00.000Z</time>
      </trkpt>
      <trkpt lat="50.53731" lon="2.87798">
        <ele>25.49</ele>
        <time>2019-09-17T11:56:03.001Z</time>
      </trkpt>
      <trkpt lat="50.53732" lon="2.87801">
        <ele>24.67</ele>
        <time>2019-09-17T11:56:30.001Z</time>
      </trkpt>
      <trkpt lat="50.53732" lon="2.87802">
        <ele>25.036</ele>
        <time>2019-09-17T11:56:33.001Z</time>
      </trkpt>
      <trkpt lat="50.53732" lon="2.87803">
        <ele>24.996</ele>
        <time>2019-09-17T11:56:36.001Z</time>
      </trkpt>
      <trkpt lat="50.53732" lon="2.87803">
        <ele>24.996</ele>
        <time>2019-09-17T11:57:33.001Z</time>
      </trkpt>
      <trkpt lat="50.53731" lon="2.87804">
        <ele>24.861</ele>
        <time>2019-09-17T11:57:36.001Z</time>
      </trkpt>
      <trkpt lat="50.53724" lon="2.87813">
        <ele>24.677</ele>
        <time>2019-09-17T11:57:42.001Z</time>
      </trkpt>
      <trkpt lat="50.53716" lon="2.87819">
        <ele>24.634</ele>
        <time>2019-09-17T11:57:45.001Z</time>
      </trkpt>
      <trkpt lat="50.53707" lon="2.87828">
        <ele>24.731</ele>
        <time>2019-09-17T11:57:48.001Z</time>
      </trkpt>
      <trkpt lat="50.53697" lon="2.87836">
        <ele>24.538</ele>
        <time>2019-09-17T11:57:51.001Z</time>
      </trkpt>
      <trkpt lat="50.53687" lon="2.87845">
        <ele>24.591</ele>
        <time>2019-09-17T11:57:54.001Z</time>
      </trkpt>
      <trkpt lat="50.53676" lon="2.87854">
        <ele>24.645</ele>
        <time>2019-09-17T11:57:57.001Z</time>
      </trkpt>
      <trkpt lat="50.53665" lon="2.87862">
        <ele>24.44</ele>
        <time>2019-09-17T11:58:00.000Z</time>
      </trkpt>
      <trkpt lat="50.53653" lon="2.87872">
        <ele>24</ele>
        <time>2019-09-17T11:58:03.001Z</time>
      </trkpt>
      <trkpt lat="50.53641" lon="2.87883">
        <ele>23.703</ele>
        <time>2019-09-17T11:58:06.001Z</time>
      </trkpt>
      <trkpt lat="50.53628" lon="2.87893">
        <ele>23.384</ele>
        <time>2019-09-17T11:58:09.001Z</time>
      </trkpt>
      <trkpt lat="50.53615" lon="2.87904">
        <ele>23.113</ele>
        <time>2019-09-17T11:58:12.001Z</time>
      </trkpt>
      <trkpt lat="50.53602" lon="2.87917">
        <ele>23.413</ele>
        <time>2019-09-17T11:58:15.001Z</time>
      </trkpt>
      <trkpt lat="50.5359" lon="2.87928">
        <ele>24.122</ele>
        <time>2019-09-17T11:58:18.001Z</time>
      </trkpt>
      <trkpt lat="50.53576" lon="2.8794">
        <ele>24.364</ele>
        <time>2019-09-17T11:58:21.001Z</time>
      </trkpt>
      <trkpt lat="50.53561" lon="2.87953">
        <ele>24.051</ele>
        <time>2019-09-17T11:58:24.001Z</time>
      </trkpt>
      <trkpt lat="50.53545" lon="2.87966">
        <ele>23.494</ele>
        <time>2019-09-17T11:58:27.001Z</time>
      </trkpt>
      <trkpt lat="50.5353" lon="2.8798">
        <ele>23.288</ele>
        <time>2019-09-17T11:58:30.001Z</time>
      </trkpt>
      <trkpt lat="50.53513" lon="2.87987">
        <ele>22.855</ele>
        <time>2019-09-17T11:58:33.001Z</time>
      </trkpt>
      <trkpt lat="50.53493" lon="2.8798">
        <ele>21.827</ele>
        <time>2019-09-17T11:58:36.001Z</time>
      </trkpt>
      <trkpt lat="50.53475" lon="2.87972">
        <ele>21.556</ele>
        <time>2019-09-17T11:58:39.001Z</time>
      </trkpt>
      <trkpt lat="50.53458" lon="2.87964">
        <ele>20.704</ele>
        <time>2019-09-17T11:58:42.001Z</time>
      </trkpt>
      <trkpt lat="50.53442" lon="2.87956">
        <ele>20.418</ele>
        <time>2019-09-17T11:58:45.001Z</time>
      </trkpt>
      <trkpt lat="50.53427" lon="2.87949">
        <ele>20.532</ele>
        <time>2019-09-17T11:58:48.001Z</time>
      </trkpt>
      <trkpt lat="50.53412" lon="2.87945">
        <ele>20.566</ele>
        <time>2019-09-17T11:58:51.001Z</time>
      </trkpt>
      <trkpt lat="50.53397" lon="2.87947">
        <ele>20.834</ele>
        <time>2019-09-17T11:58:54.001Z</time>
      </trkpt>
      <trkpt lat="50.53382" lon="2.8795">
        <ele>20.818</ele>
        <time>2019-09-17T11:58:57.001Z</time>
      </trkpt>
      <trkpt lat="50.53366" lon="2.87954">
        <ele>20.828</ele>
        <time>2019-09-17T11:59:00.000Z</time>
      </trkpt>
      <trkpt lat="50.5335" lon="2.87958">
        <ele>20.714</ele>
        <time>2019-09-17T11:59:03.001Z</time>
      </trkpt>
      <trkpt lat="50.53334" lon="2.87962">
        <ele>20.61</ele>
        <time>2019-09-17T11:59:06.001Z</time>
      </trkpt>
      <trkpt lat="50.53319" lon="2.87966">
        <ele>20.581</ele>
        <time>2019-09-17T11:59:09.001Z</time>
      </trkpt>
      <trkpt lat="50.53303" lon="2.87969">
        <ele>20.539</ele>
        <time>2019-09-17T11:59:12.001Z</time>
      </trkpt>
      <trkpt lat="50.53287" lon="2.87974">
        <ele>20.342</ele>
        <time>2019-09-17T11:59:15.001Z</time>
      </trkpt>
      <trkpt lat="50.5327" lon="2.87979">
        <ele>19.948</ele>
        <time>2019-09-17T11:59:18.001Z</time>
      </trkpt>
      <trkpt lat="50.53254" lon="2.87983">
        <ele>20.041</ele>
        <time>2019-09-17T11:59:21.001Z</time>
      </trkpt>
      <trkpt lat="50.53237" lon="2.87988">
        <ele>20.089</ele>
        <time>2019-09-17T11:59:24.001Z</time>
      </trkpt>
      <trkpt lat="50.53221" lon="2.87992">
        <ele>20.183</ele>
        <time>2019-09-17T11:59:27.001Z</time>
      </trkpt>
      <trkpt lat="50.53207" lon="2.87993">
        <ele>20.606</ele>
        <time>2019-09-17T11:59:30.001Z</time>
      </trkpt>
      <trkpt lat="50.53192" lon="2.87996">
        <ele>20.664</ele>
        <time>2019-09-17T11:59:33.001Z</time>
      </trkpt>
      <trkpt lat="50.53182" lon="2.88002">
        <ele>20.713</ele>
        <time>2019-09-17T11:59:36.001Z</time>
      </trkpt>
      <trkpt lat="50.53178" lon="2.88009">
        <ele>21.022</ele>
        <time>2019-09-17T11:59:39.001Z</time>
      </trkpt>
      <trkpt lat="50.53174" lon="2.88017">
        <ele>21.024</ele>
        <time>2019-09-17T11:59:42.001Z</time>
      </trkpt>
      <trkpt lat="50.53172" lon="2.88026">
        <ele>20.434</ele>
        <time>2019-09-17T11:59:45.001Z</time>
      </trkpt>
      <trkpt lat="50.53172" lon="2.88036">
        <ele>20.033</ele>
        <time>2019-09-17T11:59:48.001Z</time>
      </trkpt>
      <trkpt lat="50.53172" lon="2.88046">
        <ele>18.793</ele>
        <time>2019-09-17T11:59:51.001Z</time>
      </trkpt>
      <trkpt lat="50.53172" lon="2.88057">
        <ele>18.14</ele>
        <time>2019-09-17T11:59:54.001Z</time>
      </trkpt>
      <trkpt lat="50.53173" lon="2.88067">
        <ele>17.731</ele>
        <time>2019-09-17T11:59:57.001Z</time>
      </trkpt>
      <trkpt lat="50.53173" lon="2.88077">
        <ele>17.596</ele>
        <time>2019-09-17T12:00:00.000Z</time>
      </trkpt>
      <trkpt lat="50.53174" lon="2.88088">
        <ele>17.573</ele>
        <time>2019-09-17T12:00:03.001Z</time>
      </trkpt>
      <trkpt lat="50.53175" lon="2.88099">
        <ele>17.484</ele>
        <time>2019-09-17T12:00:06.001Z</time>
      </trkpt>
      <trkpt lat="50.53175" lon="2.88111">
        <ele>17.867</ele>
        <time>2019-09-17T12:00:09.001Z</time>
      </trkpt>
      <trkpt lat="50.53175" lon="2.88121">
        <ele>18.407</ele>
        <time>2019-09-17T12:00:12.001Z</time>
      </trkpt>
      <trkpt lat="50.53176" lon="2.88132">
        <ele>18.437</ele>
        <time>2019-09-17T12:00:15.001Z</time>
      </trkpt>
      <trkpt lat="50.53176" lon="2.88144">
        <ele>18.636</ele>
        <time>2019-09-17T12:00:18.001Z</time>
      </trkpt>
      <trkpt lat="50.53177" lon="2.88157">
        <ele>18.8</ele>
        <time>2019-09-17T12:00:21.001Z</time>
      </trkpt>
      <trkpt lat="50.53178" lon="2.8817">
        <ele>19.187</ele>
        <time>2019-09-17T12:00:24.001Z</time>
      </trkpt>
      <trkpt lat="50.53179" lon="2.88185">
        <ele>19.251</ele>
        <time>2019-09-17T12:00:27.001Z</time>
      </trkpt>
      <trkpt lat="50.53179" lon="2.88199">
        <ele>19.047</ele>
        <time>2019-09-17T12:00:30.001Z</time>
      </trkpt>
      <trkpt lat="50.5318" lon="2.88215">
        <ele>18.573</ele>
        <time>2019-09-17T12:00:33.001Z</time>
      </trkpt>
      <trkpt lat="50.53181" lon="2.8823">
        <ele>18.9</ele>
        <time>2019-09-17T12:00:36.001Z</time>
      </trkpt>
      <trkpt lat="50.53181" lon="2.88247">
        <ele>18.905</ele>
        <time>2019-09-17T12:00:39.001Z</time>
      </trkpt>
      <trkpt lat="50.53178" lon="2.88262">
        <ele>18.945</ele>
        <time>2019-09-17T12:00:42.001Z</time>
      </trkpt>
      <trkpt lat="50.53174" lon="2.88275">
        <ele>19.109</ele>
        <time>2019-09-17T12:00:45.001Z</time>
      </trkpt>
      <trkpt lat="50.53169" lon="2.88283">
        <ele>19.11</ele>
        <time>2019-09-17T12:00:48.001Z</time>
      </trkpt>
      <trkpt lat="50.5316" lon="2.8829">
        <ele>19.268</ele>
        <time>2019-09-17T12:00:51.001Z</time>
      </trkpt>
      <trkpt lat="50.5315" lon="2.88294">
        <ele>19.331</ele>
        <time>2019-09-17T12:00:54.001Z</time>
      </trkpt>
      <trkpt lat="50.53141" lon="2.88296">
        <ele>19.462</ele>
        <time>2019-09-17T12:00:57.001Z</time>
      </trkpt>
      <trkpt lat="50.53132" lon="2.883">
        <ele>19.659</ele>
        <time>2019-09-17T12:01:00.000Z</time>
      </trkpt>
      <trkpt lat="50.53123" lon="2.88301">
        <ele>19.666</ele>
        <time>2019-09-17T12:01:03.001Z</time>
      </trkpt>
      <trkpt lat="50.53114" lon="2.88302">
        <ele>20.102</ele>
        <time>2019-09-17T12:01:06.001Z</time>
      </trkpt>
      <trkpt lat="50.53107" lon="2.88304">
        <ele>20.106</ele>
        <time>2019-09-17T12:01:09.001Z</time>
      </trkpt>
      <trkpt lat="50.53099" lon="2.88307">
        <ele>20.068</ele>
        <time>2019-09-17T12:01:12.001Z</time>
      </trkpt>
      <trkpt lat="50.53091" lon="2.8831">
        <ele>20.069</ele>
        <time>2019-09-17T12:01:15.001Z</time>
      </trkpt>
      <trkpt lat="50.53084" lon="2.8832">
        <ele>19.808</ele>
        <time>2019-09-17T12:01:18.001Z</time>
      </trkpt>
      <trkpt lat="50.5308" lon="2.88334">
        <ele>19.804</ele>
        <time>2019-09-17T12:01:21.001Z</time>
      </trkpt>
      <trkpt lat="50.5308" lon="2.88348">
        <ele>19.735</ele>
        <time>2019-09-17T12:01:24.001Z</time>
      </trkpt>
      <trkpt lat="50.53083" lon="2.88358">
        <ele>20.167</ele>
        <time>2019-09-17T12:01:27.001Z</time>
      </trkpt>
      <trkpt lat="50.53086" lon="2.88367">
        <ele>21.323</ele>
        <time>2019-09-17T12:01:30.001Z</time>
      </trkpt>
      <trkpt lat="50.53089" lon="2.88377">
        <ele>22.129</ele>
        <time>2019-09-17T12:01:33.001Z</time>
      </trkpt>
      <trkpt lat="50.53093" lon="2.8839">
        <ele>22.614</ele>
        <time>2019-09-17T12:01:36.001Z</time>
      </trkpt>
      <trkpt lat="50.53099" lon="2.88402">
        <ele>22.596</ele>
        <time>2019-09-17T12:01:39.001Z</time>
      </trkpt>
      <trkpt lat="50.53105" lon="2.88414">
        <ele>21.935</ele>
        <time>2019-09-17T12:01:42.001Z</time>
      </trkpt>
      <trkpt lat="50.53113" lon="2.88427">
        <ele>22.142</ele>
        <time>2019-09-17T12:01:45.001Z</time>
      </trkpt>
      <trkpt lat="50.5312" lon="2.88438">
        <ele>21.977</ele>
        <time>2019-09-17T12:01:48.001Z</time>
      </trkpt>
      <trkpt lat="50.53126" lon="2.88448">
        <ele>21.691</ele>
        <time>2019-09-17T12:01:51.001Z</time>
      </trkpt>
      <trkpt lat="50.53133" lon="2.88456">
        <ele>21.445</ele>
        <time>2019-09-17T12:01:54.001Z</time>
      </trkpt>
      <trkpt lat="50.53141" lon="2.88464">
        <ele>21.271</ele>
        <time>2019-09-17T12:01:57.001Z</time>
      </trkpt>
      <trkpt lat="50.53149" lon="2.88471">
        <ele>21.58</ele>
        <time>2019-09-17T12:02:00.000Z</time>
      </trkpt>
      <trkpt lat="50.53156" lon="2.8848">
        <ele>21.926</ele>
        <time>2019-09-17T12:02:03.001Z</time>
      </trkpt>
      <trkpt lat="50.53161" lon="2.88487">
        <ele>22.262</ele>
        <time>2019-09-17T12:02:06.001Z</time>
      </trkpt>
      <trkpt lat="50.53167" lon="2.88493">
        <ele>23.176</ele>
        <time>2019-09-17T12:02:09.001Z</time>
      </trkpt>
      <trkpt lat="50.53173" lon="2.885">
        <ele>23.836</ele>
        <time>2019-09-17T12:02:12.001Z</time>
      </trkpt>
      <trkpt lat="50.53181" lon="2.88511">
        <ele>24.645</ele>
        <time>2019-09-17T12:02:15.001Z</time>
      </trkpt>
      <trkpt lat="50.53189" lon="2.88521">
        <ele>25.257</ele>
        <time>2019-09-17T12:02:18.001Z</time>
      </trkpt>
      <trkpt lat="50.53196" lon="2.88528">
        <ele>25.755</ele>
        <time>2019-09-17T12:02:21.001Z</time>
      </trkpt>
      <trkpt lat="50.53204" lon="2.88538">
        <ele>26.721</ele>
        <time>2019-09-17T12:02:24.001Z</time>
      </trkpt>
      <trkpt lat="50.53211" lon="2.88549">
        <ele>27.309</ele>
        <time>2019-09-17T12:02:27.001Z</time>
      </trkpt>
      <trkpt lat="50.53218" lon="2.88559">
        <ele>27.989</ele>
        <time>2019-09-17T12:02:30.001Z</time>
      </trkpt>
      <trkpt lat="50.53224" lon="2.88567">
        <ele>28.599</ele>
        <time>2019-09-17T12:02:33.001Z</time>
      </trkpt>
      <trkpt lat="50.5323" lon="2.88575">
        <ele>28.935</ele>
        <time>2019-09-17T12:02:36.001Z</time>
      </trkpt>
      <trkpt lat="50.53234" lon="2.88585">
        <ele>28.955</ele>
        <time>2019-09-17T12:02:39.001Z</time>
      </trkpt>
      <trkpt lat="50.53235" lon="2.88587">
        <ele>28.749</ele>
        <time>2019-09-17T12:02:42.001Z</time>
      </trkpt>
      <trkpt lat="50.53235" lon="2.88587">
        <ele>28.749</ele>
        <time>2019-09-17T12:02:48.001Z</time>
      </trkpt>
      <trkpt lat="50.53238" lon="2.88592">
        <ele>29.121</ele>
        <time>2019-09-17T12:02:51.001Z</time>
      </trkpt>
      <trkpt lat="50.53244" lon="2.88604">
        <ele>29.546</ele>
        <time>2019-09-17T12:02:54.001Z</time>
      </trkpt>
      <trkpt lat="50.53246" lon="2.88606">
        <ele>29.374</ele>
        <time>2019-09-17T12:02:57.001Z</time>
      </trkpt>
      <trkpt lat="50.53246" lon="2.88606">
        <ele>29.374</ele>
        <time>2019-09-17T12:03:03.001Z</time>
      </trkpt>
      <trkpt lat="50.53247" lon="2.88606">
        <ele>29.611</ele>
        <time>2019-09-17T12:03:06.001Z</time>
      </trkpt>
      <trkpt lat="50.53248" lon="2.88607">
        <ele>30.348</ele>
        <time>2019-09-17T12:03:09.001Z</time>
      </trkpt>
      <trkpt lat="50.53248" lon="2.88607">
        <ele>30.348</ele>
        <time>2019-09-17T12:03:18.001Z</time>
      </trkpt>
      <trkpt lat="50.53247" lon="2.88609">
        <ele>32.096</ele>
        <time>2019-09-17T12:03:21.001Z</time>
      </trkpt>
      <trkpt lat="50.53247" lon="2.88609">
        <ele>32.096</ele>
        <time>2019-09-17T12:03:24.001Z</time>
      </trkpt>
      <trkpt lat="50.53247" lon="2.88609">
        <ele>32.096</ele>
        <time>2019-09-17T12:04:09.001Z</time>
      </trkpt>
      <trkpt lat="50.5325" lon="2.88607">
        <ele>34.034</ele>
        <time>2019-09-17T12:04:12.001Z</time>
      </trkpt>
      <trkpt lat="50.5325" lon="2.88606">
        <ele>34.089</ele>
        <time>2019-09-17T12:04:15.001Z</time>
      </trkpt>
      <trkpt lat="50.5325" lon="2.88609">
        <ele>32.615</ele>
        <time>2019-09-17T12:06:21.001Z</time>
      </trkpt>
      <trkpt lat="50.5325" lon="2.8861">
        <ele>32.628</ele>
        <time>2019-09-17T12:06:24.001Z</time>
      </trkpt>
      <trkpt lat="50.53253" lon="2.88621">
        <ele>31.479</ele>
        <time>2019-09-17T12:06:30.001Z</time>
      </trkpt>
      <trkpt lat="50.53256" lon="2.88633">
        <ele>29.383</ele>
        <time>2019-09-17T12:06:33.001Z</time>
      </trkpt>
      <trkpt lat="50.53259" lon="2.88647">
        <ele>25.358</ele>
        <time>2019-09-17T12:06:36.001Z</time>
      </trkpt>
      <trkpt lat="50.53263" lon="2.88661">
        <ele>22.506</ele>
        <time>2019-09-17T12:06:39.001Z</time>
      </trkpt>
      <trkpt lat="50.5327" lon="2.8867">
        <ele>20.693</ele>
        <time>2019-09-17T12:06:42.002Z</time>
      </trkpt>
      <trkpt lat="50.53278" lon="2.88676">
        <ele>19.173</ele>
        <time>2019-09-17T12:06:45.001Z</time>
      </trkpt>
      <trkpt lat="50.53285" lon="2.88682">
        <ele>17.99</ele>
        <time>2019-09-17T12:06:48.001Z</time>
      </trkpt>
      <trkpt lat="50.53292" lon="2.88689">
        <ele>16.989</ele>
        <time>2019-09-17T12:06:51.001Z</time>
      </trkpt>
      <trkpt lat="50.53298" lon="2.88693">
        <ele>16.338</ele>
        <time>2019-09-17T12:06:54.001Z</time>
      </trkpt>
      <trkpt lat="50.53306" lon="2.887">
        <ele>16.193</ele>
        <time>2019-09-17T12:06:57.001Z</time>
      </trkpt>
      <trkpt lat="50.53316" lon="2.88705">
        <ele>16.39</ele>
        <time>2019-09-17T12:07:00.000Z</time>
      </trkpt>
      <trkpt lat="50.53323" lon="2.8871">
        <ele>16.016</ele>
        <time>2019-09-17T12:07:03.001Z</time>
      </trkpt>
      <trkpt lat="50.53328" lon="2.88715">
        <ele>15.613</ele>
        <time>2019-09-17T12:07:06.001Z</time>
      </trkpt>
      <trkpt lat="50.53336" lon="2.88721">
        <ele>15.584</ele>
        <time>2019-09-17T12:07:09.001Z</time>
      </trkpt>
      <trkpt lat="50.53343" lon="2.88728">
        <ele>15.337</ele>
        <time>2019-09-17T12:07:12.001Z</time>
      </trkpt>
      <trkpt lat="50.5335" lon="2.88735">
        <ele>15.826</ele>
        <time>2019-09-17T12:07:15.001Z</time>
      </trkpt>
      <trkpt lat="50.53357" lon="2.88742">
        <ele>16.13</ele>
        <time>2019-09-17T12:07:18.001Z</time>
      </trkpt>
      <trkpt lat="50.53364" lon="2.88749">
        <ele>16.278</ele>
        <time>2019-09-17T12:07:21.001Z</time>
      </trkpt>
      <trkpt lat="50.53372" lon="2.88756">
        <ele>16.656</ele>
        <time>2019-09-17T12:07:24.001Z</time>
      </trkpt>
      <trkpt lat="50.53379" lon="2.88763">
        <ele>17.376</ele>
        <time>2019-09-17T12:07:27.001Z</time>
      </trkpt>
      <trkpt lat="50.53384" lon="2.8877">
        <ele>18.131</ele>
        <time>2019-09-17T12:07:30.001Z</time>
      </trkpt>
      <trkpt lat="50.53389" lon="2.88776">
        <ele>18.387</ele>
        <time>2019-09-17T12:07:33.001Z</time>
      </trkpt>
      <trkpt lat="50.53395" lon="2.88783">
        <ele>18.422</ele>
        <time>2019-09-17T12:07:36.001Z</time>
      </trkpt>
      <trkpt lat="50.53402" lon="2.88789">
        <ele>18.182</ele>
        <time>2019-09-17T12:07:39.001Z</time>
      </trkpt>
      <trkpt lat="50.53409" lon="2.88797">
        <ele>18.403</ele>
        <time>2019-09-17T12:07:42.001Z</time>
      </trkpt>
      <trkpt lat="50.53415" lon="2.88805">
        <ele>18.381</ele>
        <time>2019-09-17T12:07:45.001Z</time>
      </trkpt>
      <trkpt lat="50.53422" lon="2.88813">
        <ele>18.561</ele>
        <time>2019-09-17T12:07:48.001Z</time>
      </trkpt>
      <trkpt lat="50.5343" lon="2.8882">
        <ele>18.603</ele>
        <time>2019-09-17T12:07:51.001Z</time>
      </trkpt>
      <trkpt lat="50.53437" lon="2.88829">
        <ele>18.798</ele>
        <time>2019-09-17T12:07:54.001Z</time>
      </trkpt>
      <trkpt lat="50.53442" lon="2.88835">
        <ele>19.124</ele>
        <time>2019-09-17T12:07:57.001Z</time>
      </trkpt>
      <trkpt lat="50.53447" lon="2.88842">
        <ele>19.411</ele>
        <time>2019-09-17T12:08:00.000Z</time>
      </trkpt>
      <trkpt lat="50.53453" lon="2.8885">
        <ele>19.416</ele>
        <time>2019-09-17T12:08:03.001Z</time>
      </trkpt>
      <trkpt lat="50.5346" lon="2.88857">
        <ele>19.327</ele>
        <time>2019-09-17T12:08:06.001Z</time>
      </trkpt>
      <trkpt lat="50.53467" lon="2.88864">
        <ele>19.302</ele>
        <time>2019-09-17T12:08:09.001Z</time>
      </trkpt>
      <trkpt lat="50.53475" lon="2.8887">
        <ele>19.209</ele>
        <time>2019-09-17T12:08:12.001Z</time>
      </trkpt>
      <trkpt lat="50.53481" lon="2.88876">
        <ele>19.11</ele>
        <time>2019-09-17T12:08:15.001Z</time>
      </trkpt>
      <trkpt lat="50.53487" lon="2.88881">
        <ele>18.764</ele>
        <time>2019-09-17T12:08:18.001Z</time>
      </trkpt>
      <trkpt lat="50.53493" lon="2.88886">
        <ele>18.585</ele>
        <time>2019-09-17T12:08:21.001Z</time>
      </trkpt>
      <trkpt lat="50.53498" lon="2.88892">
        <ele>18.805</ele>
        <time>2019-09-17T12:08:24.001Z</time>
      </trkpt>
      <trkpt lat="50.53505" lon="2.88898">
        <ele>19.054</ele>
        <time>2019-09-17T12:08:27.001Z</time>
      </trkpt>
      <trkpt lat="50.53512" lon="2.88905">
        <ele>19.295</ele>
        <time>2019-09-17T12:08:30.001Z</time>
      </trkpt>
      <trkpt lat="50.53518" lon="2.88912">
        <ele>19.632</ele>
        <time>2019-09-17T12:08:33.001Z</time>
      </trkpt>
      <trkpt lat="50.53525" lon="2.88919">
        <ele>19.477</ele>
        <time>2019-09-17T12:08:36.001Z</time>
      </trkpt>
      <trkpt lat="50.53531" lon="2.88926">
        <ele>19.144</ele>
        <time>2019-09-17T12:08:39.001Z</time>
      </trkpt>
      <trkpt lat="50.53537" lon="2.88931">
        <ele>18.993</ele>
        <time>2019-09-17T12:08:42.001Z</time>
      </trkpt>
      <trkpt lat="50.53543" lon="2.88937">
        <ele>18.964</ele>
        <time>2019-09-17T12:08:45.001Z</time>
      </trkpt>
      <trkpt lat="50.53549" lon="2.88943">
        <ele>19.007</ele>
        <time>2019-09-17T12:08:48.001Z</time>
      </trkpt>
      <trkpt lat="50.53555" lon="2.8895">
        <ele>19.147</ele>
        <time>2019-09-17T12:08:51.001Z</time>
      </trkpt>
      <trkpt lat="50.53562" lon="2.88956">
        <ele>19.318</ele>
        <time>2019-09-17T12:08:54.001Z</time>
      </trkpt>
      <trkpt lat="50.53569" lon="2.88963">
        <ele>19.167</ele>
        <time>2019-09-17T12:08:57.001Z</time>
      </trkpt>
      <trkpt lat="50.53577" lon="2.88968">
        <ele>19.125</ele>
        <time>2019-09-17T12:09:00.000Z</time>
      </trkpt>
      <trkpt lat="50.53584" lon="2.88973">
        <ele>18.834</ele>
        <time>2019-09-17T12:09:03.001Z</time>
      </trkpt>
      <trkpt lat="50.53592" lon="2.88978">
        <ele>18.359</ele>
        <time>2019-09-17T12:09:06.001Z</time>
      </trkpt>
      <trkpt lat="50.53601" lon="2.88983">
        <ele>18.104</ele>
        <time>2019-09-17T12:09:09.001Z</time>
      </trkpt>
      <trkpt lat="50.5361" lon="2.88986">
        <ele>18.286</ele>
        <time>2019-09-17T12:09:12.001Z</time>
      </trkpt>
      <trkpt lat="50.53618" lon="2.88989">
        <ele>18.551</ele>
        <time>2019-09-17T12:09:15.001Z</time>
      </trkpt>
      <trkpt lat="50.53627" lon="2.88991">
        <ele>18.918</ele>
        <time>2019-09-17T12:09:18.001Z</time>
      </trkpt>
      <trkpt lat="50.53635" lon="2.88995">
        <ele>19.134</ele>
        <time>2019-09-17T12:09:21.001Z</time>
      </trkpt>
      <trkpt lat="50.53644" lon="2.89">
        <ele>19.558</ele>
        <time>2019-09-17T12:09:24.001Z</time>
      </trkpt>
      <trkpt lat="50.53652" lon="2.89006">
        <ele>19.895</ele>
        <time>2019-09-17T12:09:27.001Z</time>
      </trkpt>
      <trkpt lat="50.53659" lon="2.89012">
        <ele>19.879</ele>
        <time>2019-09-17T12:09:30.001Z</time>
      </trkpt>
      <trkpt lat="50.53666" lon="2.89018">
        <ele>20.201</ele>
        <time>2019-09-17T12:09:33.001Z</time>
      </trkpt>
      <trkpt lat="50.53673" lon="2.89025">
        <ele>20.64</ele>
        <time>2019-09-17T12:09:36.001Z</time>
      </trkpt>
      <trkpt lat="50.5368" lon="2.89032">
        <ele>21.034</ele>
        <time>2019-09-17T12:09:39.001Z</time>
      </trkpt>
      <trkpt lat="50.53686" lon="2.8904">
        <ele>21.344</ele>
        <time>2019-09-17T12:09:42.001Z</time>
      </trkpt>
      <trkpt lat="50.53692" lon="2.89047">
        <ele>21.555</ele>
        <time>2019-09-17T12:09:45.001Z</time>
      </trkpt>
      <trkpt lat="50.53698" lon="2.89056">
        <ele>21.362</ele>
        <time>2019-09-17T12:09:48.001Z</time>
      </trkpt>
      <trkpt lat="50.53704" lon="2.89066">
        <ele>21.157</ele>
        <time>2019-09-17T12:09:51.001Z</time>
      </trkpt>
      <trkpt lat="50.53709" lon="2.89075">
        <ele>21.058</ele>
        <time>2019-09-17T12:09:54.001Z</time>
      </trkpt>
      <trkpt lat="50.53715" lon="2.89084">
        <ele>21.069</ele>
        <time>2019-09-17T12:09:57.001Z</time>
      </trkpt>
      <trkpt lat="50.53721" lon="2.89093">
        <ele>20.771</ele>
        <time>2019-09-17T12:10:00.000Z</time>
      </trkpt>
      <trkpt lat="50.53727" lon="2.89102">
        <ele>20.861</ele>
        <time>2019-09-17T12:10:03.001Z</time>
      </trkpt>
      <trkpt lat="50.53733" lon="2.89111">
        <ele>20.644</ele>
        <time>2019-09-17T12:10:06.001Z</time>
      </trkpt>
      <trkpt lat="50.53739" lon="2.89121">
        <ele>20.2</ele>
        <time>2019-09-17T12:10:09.001Z</time>
      </trkpt>
      <trkpt lat="50.53745" lon="2.89131">
        <ele>20.058</ele>
        <time>2019-09-17T12:10:12.001Z</time>
      </trkpt>
      <trkpt lat="50.53751" lon="2.8914">
        <ele>20.3</ele>
        <time>2019-09-17T12:10:15.001Z</time>
      </trkpt>
      <trkpt lat="50.53756" lon="2.89149">
        <ele>20.191</ele>
        <time>2019-09-17T12:10:18.001Z</time>
      </trkpt>
      <trkpt lat="50.53761" lon="2.89159">
        <ele>20.157</ele>
        <time>2019-09-17T12:10:21.001Z</time>
      </trkpt>
      <trkpt lat="50.53767" lon="2.89167">
        <ele>20.083</ele>
        <time>2019-09-17T12:10:24.001Z</time>
      </trkpt>
      <trkpt lat="50.53772" lon="2.89177">
        <ele>20.162</ele>
        <time>2019-09-17T12:10:27.001Z</time>
      </trkpt>
      <trkpt lat="50.53778" lon="2.89185">
        <ele>20.047</ele>
        <time>2019-09-17T12:10:30.001Z</time>
      </trkpt>
      <trkpt lat="50.53782" lon="2.89194">
        <ele>19.965</ele>
        <time>2019-09-17T12:10:33.001Z</time>
      </trkpt>
      <trkpt lat="50.53787" lon="2.89205">
        <ele>19.77</ele>
        <time>2019-09-17T12:10:36.001Z</time>
      </trkpt>
      <trkpt lat="50.53789" lon="2.89217">
        <ele>20.294</ele>
        <time>2019-09-17T12:10:39.001Z</time>
      </trkpt>
      <trkpt lat="50.53785" lon="2.89231">
        <ele>20.295</ele>
        <time>2019-09-17T12:10:42.001Z</time>
      </trkpt>
      <trkpt lat="50.5378" lon="2.89242">
        <ele>19.849</ele>
        <time>2019-09-17T12:10:45.001Z</time>
      </trkpt>
      <trkpt lat="50.53776" lon="2.89251">
        <ele>19.647</ele>
        <time>2019-09-17T12:10:48.001Z</time>
      </trkpt>
      <trkpt lat="50.53771" lon="2.8926">
        <ele>19.275</ele>
        <time>2019-09-17T12:10:51.001Z</time>
      </trkpt>
      <trkpt lat="50.53768" lon="2.89272">
        <ele>19.087</ele>
        <time>2019-09-17T12:10:54.001Z</time>
      </trkpt>
      <trkpt lat="50.53771" lon="2.89284">
        <ele>18.914</ele>
        <time>2019-09-17T12:10:57.001Z</time>
      </trkpt>
      <trkpt lat="50.53777" lon="2.89294">
        <ele>19.238</ele>
        <time>2019-09-17T12:11:00.000Z</time>
      </trkpt>
      <trkpt lat="50.53783" lon="2.89304">
        <ele>19.357</ele>
        <time>2019-09-17T12:11:03.001Z</time>
      </trkpt>
      <trkpt lat="50.5379" lon="2.89313">
        <ele>19.62</ele>
        <time>2019-09-17T12:11:06.001Z</time>
      </trkpt>
      <trkpt lat="50.53796" lon="2.89321">
        <ele>19.872</ele>
        <time>2019-09-17T12:11:09.001Z</time>
      </trkpt>
      <trkpt lat="50.53802" lon="2.8933">
        <ele>19.96</ele>
        <time>2019-09-17T12:11:12.001Z</time>
      </trkpt>
      <trkpt lat="50.53808" lon="2.89339">
        <ele>19.85</ele>
        <time>2019-09-17T12:11:15.001Z</time>
      </trkpt>
      <trkpt lat="50.53814" lon="2.89349">
        <ele>19.612</ele>
        <time>2019-09-17T12:11:18.001Z</time>
      </trkpt>
      <trkpt lat="50.53821" lon="2.89359">
        <ele>19.439</ele>
        <time>2019-09-17T12:11:21.001Z</time>
      </trkpt>
      <trkpt lat="50.53827" lon="2.89368">
        <ele>19.526</ele>
        <time>2019-09-17T12:11:24.001Z</time>
      </trkpt>
      <trkpt lat="50.53832" lon="2.89376">
        <ele>19.866</ele>
        <time>2019-09-17T12:11:27.001Z</time>
      </trkpt>
      <trkpt lat="50.53838" lon="2.89385">
        <ele>20.199</ele>
        <time>2019-09-17T12:11:30.001Z</time>
      </trkpt>
      <trkpt lat="50.53844" lon="2.89394">
        <ele>20.332</ele>
        <time>2019-09-17T12:11:33.001Z</time>
      </trkpt>
      <trkpt lat="50.5385" lon="2.89406">
        <ele>20.239</ele>
        <time>2019-09-17T12:11:36.001Z</time>
      </trkpt>
      <trkpt lat="50.53857" lon="2.89416">
        <ele>20.029</ele>
        <time>2019-09-17T12:11:39.001Z</time>
      </trkpt>
      <trkpt lat="50.53862" lon="2.89426">
        <ele>19.767</ele>
        <time>2019-09-17T12:11:42.001Z</time>
      </trkpt>
      <trkpt lat="50.53867" lon="2.89434">
        <ele>19.618</ele>
        <time>2019-09-17T12:11:45.001Z</time>
      </trkpt>
      <trkpt lat="50.53873" lon="2.8944">
        <ele>19.918</ele>
        <time>2019-09-17T12:11:48.001Z</time>
      </trkpt>
      <trkpt lat="50.5388" lon="2.89446">
        <ele>19.515</ele>
        <time>2019-09-17T12:11:51.001Z</time>
      </trkpt>
      <trkpt lat="50.53887" lon="2.89452">
        <ele>18.946</ele>
        <time>2019-09-17T12:11:54.001Z</time>
      </trkpt>
      <trkpt lat="50.53891" lon="2.89462">
        <ele>18.204</ele>
        <time>2019-09-17T12:11:57.001Z</time>
      </trkpt>
      <trkpt lat="50.53886" lon="2.89468">
        <ele>18.326</ele>
        <time>2019-09-17T12:12:00.000Z</time>
      </trkpt>
      <trkpt lat="50.5388" lon="2.89473">
        <ele>18.989</ele>
        <time>2019-09-17T12:12:03.001Z</time>
      </trkpt>
      <trkpt lat="50.53874" lon="2.89481">
        <ele>19.104</ele>
        <time>2019-09-17T12:12:06.001Z</time>
      </trkpt>
      <trkpt lat="50.53868" lon="2.8949">
        <ele>18.973</ele>
        <time>2019-09-17T12:12:09.001Z</time>
      </trkpt>
      <trkpt lat="50.53862" lon="2.89499">
        <ele>19.063</ele>
        <time>2019-09-17T12:12:12.001Z</time>
      </trkpt>
      <trkpt lat="50.53856" lon="2.89508">
        <ele>19.292</ele>
        <time>2019-09-17T12:12:15.001Z</time>
      </trkpt>
      <trkpt lat="50.5385" lon="2.89516">
        <ele>19.711</ele>
        <time>2019-09-17T12:12:18.001Z</time>
      </trkpt>
      <trkpt lat="50.53844" lon="2.89526">
        <ele>19.82</ele>
        <time>2019-09-17T12:12:21.001Z</time>
      </trkpt>
      <trkpt lat="50.53837" lon="2.89536">
        <ele>19.872</ele>
        <time>2019-09-17T12:12:24.001Z</time>
      </trkpt>
      <trkpt lat="50.53831" lon="2.89546">
        <ele>19.831</ele>
        <time>2019-09-17T12:12:27.001Z</time>
      </trkpt>
      <trkpt lat="50.53825" lon="2.89554">
        <ele>19.759</ele>
        <time>2019-09-17T12:12:30.001Z</time>
      </trkpt>
      <trkpt lat="50.53819" lon="2.89562">
        <ele>20.002</ele>
        <time>2019-09-17T12:12:33.001Z</time>
      </trkpt>
      <trkpt lat="50.53814" lon="2.8957">
        <ele>20.024</ele>
        <time>2019-09-17T12:12:36.001Z</time>
      </trkpt>
      <trkpt lat="50.53808" lon="2.8958">
        <ele>20.265</ele>
        <time>2019-09-17T12:12:39.001Z</time>
      </trkpt>
      <trkpt lat="50.53802" lon="2.8959">
        <ele>20.374</ele>
        <time>2019-09-17T12:12:42.001Z</time>
      </trkpt>
      <trkpt lat="50.53796" lon="2.89601">
        <ele>20.736</ele>
        <time>2019-09-17T12:12:45.001Z</time>
      </trkpt>
      <trkpt lat="50.5379" lon="2.89611">
        <ele>20.665</ele>
        <time>2019-09-17T12:12:48.001Z</time>
      </trkpt>
      <trkpt lat="50.53784" lon="2.89622">
        <ele>20.654</ele>
        <time>2019-09-17T12:12:51.001Z</time>
      </trkpt>
      <trkpt lat="50.53778" lon="2.89632">
        <ele>20.416</ele>
        <time>2019-09-17T12:12:54.001Z</time>
      </trkpt>
      <trkpt lat="50.53773" lon="2.89642">
        <ele>19.844</ele>
        <time>2019-09-17T12:12:57.001Z</time>
      </trkpt>
      <trkpt lat="50.53767" lon="2.89652">
        <ele>19.438</ele>
        <time>2019-09-17T12:13:00.000Z</time>
      </trkpt>
      <trkpt lat="50.5376" lon="2.89663">
        <ele>19.53</ele>
        <time>2019-09-17T12:13:03.001Z</time>
      </trkpt>
      <trkpt lat="50.53753" lon="2.89675">
        <ele>19.61</ele>
        <time>2019-09-17T12:13:06.001Z</time>
      </trkpt>
      <trkpt lat="50.53747" lon="2.89685">
        <ele>19.569</ele>
        <time>2019-09-17T12:13:09.001Z</time>
      </trkpt>
      <trkpt lat="50.53741" lon="2.89696">
        <ele>19.121</ele>
        <time>2019-09-17T12:13:12.001Z</time>
      </trkpt>
      <trkpt lat="50.53736" lon="2.89705">
        <ele>18.992</ele>
        <time>2019-09-17T12:13:15.001Z</time>
      </trkpt>
      <trkpt lat="50.5373" lon="2.89715">
        <ele>18.72</ele>
        <time>2019-09-17T12:13:18.001Z</time>
      </trkpt>
      <trkpt lat="50.53724" lon="2.89727">
        <ele>19.202</ele>
        <time>2019-09-17T12:13:21.001Z</time>
      </trkpt>
      <trkpt lat="50.53719" lon="2.89737">
        <ele>19.275</ele>
        <time>2019-09-17T12:13:24.001Z</time>
      </trkpt>
      <trkpt lat="50.53715" lon="2.89745">
        <ele>19.473</ele>
        <time>2019-09-17T12:13:27.001Z</time>
      </trkpt>
      <trkpt lat="50.5371" lon="2.89752">
        <ele>19.955</ele>
        <time>2019-09-17T12:13:30.001Z</time>
      </trkpt>
      <trkpt lat="50.53706" lon="2.89759">
        <ele>20.138</ele>
        <time>2019-09-17T12:13:33.001Z</time>
      </trkpt>
      <trkpt lat="50.53701" lon="2.89768">
        <ele>20.251</ele>
        <time>2019-09-17T12:13:36.001Z</time>
      </trkpt>
      <trkpt lat="50.53696" lon="2.89777">
        <ele>20.729</ele>
        <time>2019-09-17T12:13:39.001Z</time>
      </trkpt>
      <trkpt lat="50.5369" lon="2.89788">
        <ele>20.991</ele>
        <time>2019-09-17T12:13:42.001Z</time>
      </trkpt>
      <trkpt lat="50.53681" lon="2.89799">
        <ele>20.665</ele>
        <time>2019-09-17T12:13:45.001Z</time>
      </trkpt>
      <trkpt lat="50.53674" lon="2.89809">
        <ele>20.469</ele>
        <time>2019-09-17T12:13:48.001Z</time>
      </trkpt>
      <trkpt lat="50.5367" lon="2.89818">
        <ele>20.57</ele>
        <time>2019-09-17T12:13:51.001Z</time>
      </trkpt>
      <trkpt lat="50.53667" lon="2.89827">
        <ele>20.923</ele>
        <time>2019-09-17T12:13:54.001Z</time>
      </trkpt>
      <trkpt lat="50.53662" lon="2.8984">
        <ele>21.389</ele>
        <time>2019-09-17T12:13:57.001Z</time>
      </trkpt>
      <trkpt lat="50.53654" lon="2.89856">
        <ele>21.669</ele>
        <time>2019-09-17T12:14:00.000Z</time>
      </trkpt>
      <trkpt lat="50.53647" lon="2.89869">
        <ele>21.725</ele>
        <time>2019-09-17T12:14:03.001Z</time>
      </trkpt>
      <trkpt lat="50.53642" lon="2.89884">
        <ele>21.877</ele>
        <time>2019-09-17T12:14:06.001Z</time>
      </trkpt>
      <trkpt lat="50.53636" lon="2.89899">
        <ele>22.66</ele>
        <time>2019-09-17T12:14:09.001Z</time>
      </trkpt>
      <trkpt lat="50.53631" lon="2.89911">
        <ele>23.534</ele>
        <time>2019-09-17T12:14:12.001Z</time>
      </trkpt>
      <trkpt lat="50.53626" lon="2.89925">
        <ele>24.52</ele>
        <time>2019-09-17T12:14:15.001Z</time>
      </trkpt>
      <trkpt lat="50.53621" lon="2.89938">
        <ele>24.206</ele>
        <time>2019-09-17T12:14:18.001Z</time>
      </trkpt>
      <trkpt lat="50.53617" lon="2.8995">
        <ele>23.091</ele>
        <time>2019-09-17T12:14:21.001Z</time>
      </trkpt>
      <trkpt lat="50.53613" lon="2.89961">
        <ele>21.563</ele>
        <time>2019-09-17T12:14:24.001Z</time>
      </trkpt>
      <trkpt lat="50.53609" lon="2.89972">
        <ele>21.235</ele>
        <time>2019-09-17T12:14:27.001Z</time>
      </trkpt>
      <trkpt lat="50.53604" lon="2.89984">
        <ele>20.438</ele>
        <time>2019-09-17T12:14:30.001Z</time>
      </trkpt>
      <trkpt lat="50.53601" lon="2.89992">
        <ele>20.29</ele>
        <time>2019-09-17T12:14:33.001Z</time>
      </trkpt>
      <trkpt lat="50.53598" lon="2.90001">
        <ele>20.708</ele>
        <time>2019-09-17T12:14:36.001Z</time>
      </trkpt>
      <trkpt lat="50.53595" lon="2.90011">
        <ele>21.11</ele>
        <time>2019-09-17T12:14:39.001Z</time>
      </trkpt>
      <trkpt lat="50.53594" lon="2.90022">
        <ele>22.157</ele>
        <time>2019-09-17T12:14:42.001Z</time>
      </trkpt>
      <trkpt lat="50.53595" lon="2.90032">
        <ele>22.917</ele>
        <time>2019-09-17T12:14:45.001Z</time>
      </trkpt>
      <trkpt lat="50.53599" lon="2.90039">
        <ele>23.145</ele>
        <time>2019-09-17T12:14:48.001Z</time>
      </trkpt>
      <trkpt lat="50.53606" lon="2.90045">
        <ele>23.348</ele>
        <time>2019-09-17T12:14:51.001Z</time>
      </trkpt>
      <trkpt lat="50.53614" lon="2.90055">
        <ele>23.773</ele>
        <time>2019-09-17T12:14:54.001Z</time>
      </trkpt>
      <trkpt lat="50.53621" lon="2.90063">
        <ele>23.932</ele>
        <time>2019-09-17T12:14:57.001Z</time>
      </trkpt>
      <trkpt lat="50.53628" lon="2.90072">
        <ele>24.431</ele>
        <time>2019-09-17T12:15:00.000Z</time>
      </trkpt>
      <trkpt lat="50.53635" lon="2.9008">
        <ele>24.878</ele>
        <time>2019-09-17T12:15:03.001Z</time>
      </trkpt>
      <trkpt lat="50.53642" lon="2.90091">
        <ele>25.211</ele>
        <time>2019-09-17T12:15:06.001Z</time>
      </trkpt>
      <trkpt lat="50.5365" lon="2.90103">
        <ele>25.166</ele>
        <time>2019-09-17T12:15:09.001Z</time>
      </trkpt>
      <trkpt lat="50.53658" lon="2.90116">
        <ele>24.956</ele>
        <time>2019-09-17T12:15:12.001Z</time>
      </trkpt>
      <trkpt lat="50.53668" lon="2.90127">
        <ele>24.136</ele>
        <time>2019-09-17T12:15:15.001Z</time>
      </trkpt>
      <trkpt lat="50.5368" lon="2.90139">
        <ele>23.648</ele>
        <time>2019-09-17T12:15:18.001Z</time>
      </trkpt>
      <trkpt lat="50.5369" lon="2.90151">
        <ele>23.252</ele>
        <time>2019-09-17T12:15:21.001Z</time>
      </trkpt>
      <trkpt lat="50.537" lon="2.90162">
        <ele>22.994</ele>
        <time>2019-09-17T12:15:24.001Z</time>
      </trkpt>
      <trkpt lat="50.53711" lon="2.90176">
        <ele>23.123</ele>
        <time>2019-09-17T12:15:27.001Z</time>
      </trkpt>
      <trkpt lat="50.5372" lon="2.90189">
        <ele>23.453</ele>
        <time>2019-09-17T12:15:30.001Z</time>
      </trkpt>
      <trkpt lat="50.5373" lon="2.90201">
        <ele>23.331</ele>
        <time>2019-09-17T12:15:33.001Z</time>
      </trkpt>
      <trkpt lat="50.53741" lon="2.90215">
        <ele>22.574</ele>
        <time>2019-09-17T12:15:36.001Z</time>
      </trkpt>
      <trkpt lat="50.53753" lon="2.90228">
        <ele>21.838</ele>
        <time>2019-09-17T12:15:39.001Z</time>
      </trkpt>
      <trkpt lat="50.53765" lon="2.9024">
        <ele>21.575</ele>
        <time>2019-09-17T12:15:42.001Z</time>
      </trkpt>
      <trkpt lat="50.53776" lon="2.90252">
        <ele>21.348</ele>
        <time>2019-09-17T12:15:45.001Z</time>
      </trkpt>
      <trkpt lat="50.53787" lon="2.90262">
        <ele>21.641</ele>
        <time>2019-09-17T12:15:48.001Z</time>
      </trkpt>
      <trkpt lat="50.538" lon="2.90273">
        <ele>22.024</ele>
        <time>2019-09-17T12:15:51.001Z</time>
      </trkpt>
      <trkpt lat="50.53812" lon="2.90284">
        <ele>22.508</ele>
        <time>2019-09-17T12:15:54.001Z</time>
      </trkpt>
      <trkpt lat="50.53824" lon="2.90295">
        <ele>23.03</ele>
        <time>2019-09-17T12:15:57.001Z</time>
      </trkpt>
      <trkpt lat="50.53837" lon="2.90306">
        <ele>23.744</ele>
        <time>2019-09-17T12:16:00.000Z</time>
      </trkpt>
      <trkpt lat="50.53849" lon="2.90318">
        <ele>23.779</ele>
        <time>2019-09-17T12:16:03.001Z</time>
      </trkpt>
      <trkpt lat="50.53862" lon="2.9033">
        <ele>23.95</ele>
        <time>2019-09-17T12:16:06.001Z</time>
      </trkpt>
      <trkpt lat="50.53874" lon="2.90342">
        <ele>24.216</ele>
        <time>2019-09-17T12:16:09.001Z</time>
      </trkpt>
      <trkpt lat="50.53887" lon="2.90355">
        <ele>24.018</ele>
        <time>2019-09-17T12:16:12.001Z</time>
      </trkpt>
      <trkpt lat="50.539" lon="2.90368">
        <ele>24.128</ele>
        <time>2019-09-17T12:16:15.001Z</time>
      </trkpt>
      <trkpt lat="50.53914" lon="2.90381">
        <ele>23.77</ele>
        <time>2019-09-17T12:16:18.001Z</time>
      </trkpt>
      <trkpt lat="50.53928" lon="2.90394">
        <ele>23.257</ele>
        <time>2019-09-17T12:16:21.001Z</time>
      </trkpt>
      <trkpt lat="50.53941" lon="2.90407">
        <ele>22.965</ele>
        <time>2019-09-17T12:16:24.001Z</time>
      </trkpt>
      <trkpt lat="50.53954" lon="2.90419">
        <ele>22.637</ele>
        <time>2019-09-17T12:16:27.001Z</time>
      </trkpt>
      <trkpt lat="50.53967" lon="2.9043">
        <ele>22.463</ele>
        <time>2019-09-17T12:16:30.001Z</time>
      </trkpt>
      <trkpt lat="50.5398" lon="2.90443">
        <ele>22.107</ele>
        <time>2019-09-17T12:16:33.001Z</time>
      </trkpt>
      <trkpt lat="50.53992" lon="2.90456">
        <ele>22.039</ele>
        <time>2019-09-17T12:16:36.001Z</time>
      </trkpt>
      <trkpt lat="50.54005" lon="2.9047">
        <ele>21.628</ele>
        <time>2019-09-17T12:16:39.001Z</time>
      </trkpt>
      <trkpt lat="50.54018" lon="2.90483">
        <ele>21.489</ele>
        <time>2019-09-17T12:16:42.001Z</time>
      </trkpt>
      <trkpt lat="50.5403" lon="2.90496">
        <ele>21.757</ele>
        <time>2019-09-17T12:16:45.001Z</time>
      </trkpt>
      <trkpt lat="50.54042" lon="2.90509">
        <ele>21.768</ele>
        <time>2019-09-17T12:16:48.001Z</time>
      </trkpt>
      <trkpt lat="50.54054" lon="2.90522">
        <ele>21.905</ele>
        <time>2019-09-17T12:16:51.001Z</time>
      </trkpt>
      <trkpt lat="50.54067" lon="2.90537">
        <ele>21.743</ele>
        <time>2019-09-17T12:16:54.001Z</time>
      </trkpt>
      <trkpt lat="50.5408" lon="2.9055">
        <ele>21.584</ele>
        <time>2019-09-17T12:16:57.001Z</time>
      </trkpt>
      <trkpt lat="50.54093" lon="2.90563">
        <ele>21.502</ele>
        <time>2019-09-17T12:17:00.000Z</time>
      </trkpt>
      <trkpt lat="50.54106" lon="2.90575">
        <ele>21.439</ele>
        <time>2019-09-17T12:17:03.001Z</time>
      </trkpt>
      <trkpt lat="50.54119" lon="2.90587">
        <ele>21.408</ele>
        <time>2019-09-17T12:17:06.001Z</time>
      </trkpt>
      <trkpt lat="50.54131" lon="2.90598">
        <ele>21.294</ele>
        <time>2019-09-17T12:17:09.001Z</time>
      </trkpt>
      <trkpt lat="50.54145" lon="2.90609">
        <ele>21.12</ele>
        <time>2019-09-17T12:17:12.001Z</time>
      </trkpt>
      <trkpt lat="50.54159" lon="2.90622">
        <ele>20.728</ele>
        <time>2019-09-17T12:17:15.001Z</time>
      </trkpt>
      <trkpt lat="50.54172" lon="2.90635">
        <ele>20.756</ele>
        <time>2019-09-17T12:17:18.001Z</time>
      </trkpt>
      <trkpt lat="50.54184" lon="2.90648">
        <ele>20.931</ele>
        <time>2019-09-17T12:17:21.001Z</time>
      </trkpt>
      <trkpt lat="50.54194" lon="2.9066">
        <ele>22.393</ele>
        <time>2019-09-17T12:17:24.001Z</time>
      </trkpt>
      <trkpt lat="50.54202" lon="2.90672">
        <ele>25.277</ele>
        <time>2019-09-17T12:17:27.001Z</time>
      </trkpt>
      <trkpt lat="50.5421" lon="2.90682">
        <ele>26.055</ele>
        <time>2019-09-17T12:17:30.001Z</time>
      </trkpt>
      <trkpt lat="50.54219" lon="2.90694">
        <ele>25.855</ele>
        <time>2019-09-17T12:17:33.001Z</time>
      </trkpt>
      <trkpt lat="50.54235" lon="2.90709">
        <ele>26.34</ele>
        <time>2019-09-17T12:17:36.001Z</time>
      </trkpt>
      <trkpt lat="50.54251" lon="2.90722">
        <ele>27.57</ele>
        <time>2019-09-17T12:17:39.001Z</time>
      </trkpt>
      <trkpt lat="50.54264" lon="2.90735">
        <ele>28.622</ele>
        <time>2019-09-17T12:17:42.001Z</time>
      </trkpt>
      <trkpt lat="50.54277" lon="2.90748">
        <ele>29.657</ele>
        <time>2019-09-17T12:17:45.001Z</time>
      </trkpt>
      <trkpt lat="50.54291" lon="2.90759">
        <ele>29.304</ele>
        <time>2019-09-17T12:17:48.001Z</time>
      </trkpt>
      <trkpt lat="50.54305" lon="2.9077">
        <ele>28.036</ele>
        <time>2019-09-17T12:17:51.001Z</time>
      </trkpt>
      <trkpt lat="50.54318" lon="2.90783">
        <ele>26.537</ele>
        <time>2019-09-17T12:17:54.001Z</time>
      </trkpt>
      <trkpt lat="50.54332" lon="2.90796">
        <ele>25.801</ele>
        <time>2019-09-17T12:17:57.001Z</time>
      </trkpt>
      <trkpt lat="50.54345" lon="2.90809">
        <ele>25.361</ele>
        <time>2019-09-17T12:18:00.000Z</time>
      </trkpt>
      <trkpt lat="50.54359" lon="2.90824">
        <ele>23.913</ele>
        <time>2019-09-17T12:18:03.001Z</time>
      </trkpt>
      <trkpt lat="50.54374" lon="2.90839">
        <ele>22.766</ele>
        <time>2019-09-17T12:18:06.001Z</time>
      </trkpt>
      <trkpt lat="50.54388" lon="2.90852">
        <ele>21.553</ele>
        <time>2019-09-17T12:18:09.001Z</time>
      </trkpt>
      <trkpt lat="50.54402" lon="2.90865">
        <ele>20.837</ele>
        <time>2019-09-17T12:18:12.001Z</time>
      </trkpt>
      <trkpt lat="50.54416" lon="2.90878">
        <ele>19.768</ele>
        <time>2019-09-17T12:18:15.001Z</time>
      </trkpt>
      <trkpt lat="50.54429" lon="2.90892">
        <ele>18.734</ele>
        <time>2019-09-17T12:18:18.001Z</time>
      </trkpt>
      <trkpt lat="50.54441" lon="2.90905">
        <ele>17.9</ele>
        <time>2019-09-17T12:18:21.001Z</time>
      </trkpt>
      <trkpt lat="50.54453" lon="2.90918">
        <ele>17.702</ele>
        <time>2019-09-17T12:18:24.001Z</time>
      </trkpt>
      <trkpt lat="50.54465" lon="2.9093">
        <ele>17.989</ele>
        <time>2019-09-17T12:18:27.001Z</time>
      </trkpt>
      <trkpt lat="50.54477" lon="2.90942">
        <ele>17.932</ele>
        <time>2019-09-17T12:18:30.001Z</time>
      </trkpt>
      <trkpt lat="50.54487" lon="2.90952">
        <ele>17.648</ele>
        <time>2019-09-17T12:18:33.001Z</time>
      </trkpt>
      <trkpt lat="50.54499" lon="2.90963">
        <ele>17.996</ele>
        <time>2019-09-17T12:18:36.001Z</time>
      </trkpt>
      <trkpt lat="50.54511" lon="2.90974">
        <ele>18.564</ele>
        <time>2019-09-17T12:18:39.001Z</time>
      </trkpt>
      <trkpt lat="50.54522" lon="2.90984">
        <ele>19.055</ele>
        <time>2019-09-17T12:18:42.001Z</time>
      </trkpt>
      <trkpt lat="50.54532" lon="2.90994">
        <ele>19.547</ele>
        <time>2019-09-17T12:18:45.001Z</time>
      </trkpt>
      <trkpt lat="50.54544" lon="2.91005">
        <ele>19.893</ele>
        <time>2019-09-17T12:18:48.001Z</time>
      </trkpt>
      <trkpt lat="50.54556" lon="2.91015">
        <ele>20.235</ele>
        <time>2019-09-17T12:18:51.001Z</time>
      </trkpt>
      <trkpt lat="50.54568" lon="2.91027">
        <ele>20.508</ele>
        <time>2019-09-17T12:18:54.001Z</time>
      </trkpt>
      <trkpt lat="50.54581" lon="2.91039">
        <ele>20.92</ele>
        <time>2019-09-17T12:18:57.001Z</time>
      </trkpt>
      <trkpt lat="50.54594" lon="2.91051">
        <ele>21.292</ele>
        <time>2019-09-17T12:19:00.000Z</time>
      </trkpt>
      <trkpt lat="50.54606" lon="2.91062">
        <ele>21.918</ele>
        <time>2019-09-17T12:19:03.001Z</time>
      </trkpt>
      <trkpt lat="50.54618" lon="2.91072">
        <ele>22.63</ele>
        <time>2019-09-17T12:19:06.001Z</time>
      </trkpt>
      <trkpt lat="50.54632" lon="2.91084">
        <ele>22.471</ele>
        <time>2019-09-17T12:19:09.001Z</time>
      </trkpt>
      <trkpt lat="50.54645" lon="2.91097">
        <ele>22.657</ele>
        <time>2019-09-17T12:19:12.001Z</time>
      </trkpt>
      <trkpt lat="50.54656" lon="2.9111">
        <ele>22.582</ele>
        <time>2019-09-17T12:19:15.001Z</time>
      </trkpt>
      <trkpt lat="50.54667" lon="2.9112">
        <ele>22.207</ele>
        <time>2019-09-17T12:19:18.001Z</time>
      </trkpt>
      <trkpt lat="50.54679" lon="2.91131">
        <ele>21.863</ele>
        <time>2019-09-17T12:19:21.001Z</time>
      </trkpt>
      <trkpt lat="50.54692" lon="2.91141">
        <ele>21.983</ele>
        <time>2019-09-17T12:19:24.001Z</time>
      </trkpt>
      <trkpt lat="50.54706" lon="2.9115">
        <ele>21.166</ele>
        <time>2019-09-17T12:19:27.001Z</time>
      </trkpt>
      <trkpt lat="50.54722" lon="2.91157">
        <ele>19.484</ele>
        <time>2019-09-17T12:19:30.001Z</time>
      </trkpt>
      <trkpt lat="50.54737" lon="2.91162">
        <ele>18.688</ele>
        <time>2019-09-17T12:19:33.001Z</time>
      </trkpt>
      <trkpt lat="50.54751" lon="2.91165">
        <ele>17.901</ele>
        <time>2019-09-17T12:19:36.001Z</time>
      </trkpt>
      <trkpt lat="50.54765" lon="2.91169">
        <ele>17.399</ele>
        <time>2019-09-17T12:19:39.001Z</time>
      </trkpt>
      <trkpt lat="50.54779" lon="2.91171">
        <ele>17.875</ele>
        <time>2019-09-17T12:19:42.001Z</time>
      </trkpt>
      <trkpt lat="50.54793" lon="2.91173">
        <ele>18.132</ele>
        <time>2019-09-17T12:19:45.001Z</time>
      </trkpt>
      <trkpt lat="50.54808" lon="2.91175">
        <ele>18.121</ele>
        <time>2019-09-17T12:19:48.001Z</time>
      </trkpt>
      <trkpt lat="50.54823" lon="2.91178">
        <ele>18.496</ele>
        <time>2019-09-17T12:19:51.001Z</time>
      </trkpt>
      <trkpt lat="50.54837" lon="2.9118">
        <ele>18.798</ele>
        <time>2019-09-17T12:19:54.001Z</time>
      </trkpt>
      <trkpt lat="50.5485" lon="2.91181">
        <ele>19.013</ele>
        <time>2019-09-17T12:19:57.001Z</time>
      </trkpt>
      <trkpt lat="50.54864" lon="2.91184">
        <ele>18.657</ele>
        <time>2019-09-17T12:20:00.000Z</time>
      </trkpt>
      <trkpt lat="50.54877" lon="2.91187">
        <ele>18.9</ele>
        <time>2019-09-17T12:20:03.001Z</time>
      </trkpt>
      <trkpt lat="50.54891" lon="2.9119">
        <ele>19.482</ele>
        <time>2019-09-17T12:20:06.001Z</time>
      </trkpt>
      <trkpt lat="50.54904" lon="2.91193">
        <ele>19.839</ele>
        <time>2019-09-17T12:20:09.001Z</time>
      </trkpt>
      <trkpt lat="50.54917" lon="2.91194">
        <ele>20.625</ele>
        <time>2019-09-17T12:20:12.001Z</time>
      </trkpt>
      <trkpt lat="50.5493" lon="2.91196">
        <ele>21.763</ele>
        <time>2019-09-17T12:20:15.001Z</time>
      </trkpt>
      <trkpt lat="50.54943" lon="2.91199">
        <ele>22.318</ele>
        <time>2019-09-17T12:20:18.001Z</time>
      </trkpt>
      <trkpt lat="50.54956" lon="2.91201">
        <ele>22.075</ele>
        <time>2019-09-17T12:20:21.001Z</time>
      </trkpt>
      <trkpt lat="50.54967" lon="2.91204">
        <ele>21.69</ele>
        <time>2019-09-17T12:20:24.001Z</time>
      </trkpt>
      <trkpt lat="50.54977" lon="2.9121">
        <ele>22.225</ele>
        <time>2019-09-17T12:20:27.001Z</time>
      </trkpt>
      <trkpt lat="50.54981" lon="2.91212">
        <ele>22.579</ele>
        <time>2019-09-17T12:20:30.001Z</time>
      </trkpt>
      <trkpt lat="50.54981" lon="2.91212">
        <ele>22.579</ele>
        <time>2019-09-17T12:22:03.001Z</time>
      </trkpt>
      <trkpt lat="50.54982" lon="2.91213">
        <ele>22.815</ele>
        <time>2019-09-17T12:22:06.001Z</time>
      </trkpt>
      <trkpt lat="50.54992" lon="2.91216">
        <ele>23.048</ele>
        <time>2019-09-17T12:22:12.001Z</time>
      </trkpt>
      <trkpt lat="50.54999" lon="2.91222">
        <ele>22.64</ele>
        <time>2019-09-17T12:22:15.001Z</time>
      </trkpt>
      <trkpt lat="50.55007" lon="2.9123">
        <ele>22.298</ele>
        <time>2019-09-17T12:22:18.001Z</time>
      </trkpt>
      <trkpt lat="50.55014" lon="2.91241">
        <ele>21.681</ele>
        <time>2019-09-17T12:22:21.001Z</time>
      </trkpt>
      <trkpt lat="50.5502" lon="2.91255">
        <ele>21.171</ele>
        <time>2019-09-17T12:22:24.001Z</time>
      </trkpt>
      <trkpt lat="50.55026" lon="2.91273">
        <ele>21.588</ele>
        <time>2019-09-17T12:22:27.001Z</time>
      </trkpt>
      <trkpt lat="50.5503" lon="2.9129">
        <ele>21.726</ele>
        <time>2019-09-17T12:22:30.001Z</time>
      </trkpt>
      <trkpt lat="50.55033" lon="2.91309">
        <ele>21.645</ele>
        <time>2019-09-17T12:22:33.001Z</time>
      </trkpt>
      <trkpt lat="50.55035" lon="2.91329">
        <ele>22.235</ele>
        <time>2019-09-17T12:22:36.001Z</time>
      </trkpt>
      <trkpt lat="50.55039" lon="2.91349">
        <ele>22.792</ele>
        <time>2019-09-17T12:22:39.001Z</time>
      </trkpt>
      <trkpt lat="50.55041" lon="2.91369">
        <ele>23.107</ele>
        <time>2019-09-17T12:22:42.001Z</time>
      </trkpt>
      <trkpt lat="50.55045" lon="2.9139">
        <ele>22.357</ele>
        <time>2019-09-17T12:22:45.001Z</time>
      </trkpt>
      <trkpt lat="50.55047" lon="2.91409">
        <ele>21.902</ele>
        <time>2019-09-17T12:22:48.001Z</time>
      </trkpt>
      <trkpt lat="50.55049" lon="2.9143">
        <ele>21.975</ele>
        <time>2019-09-17T12:22:51.001Z</time>
      </trkpt>
      <trkpt lat="50.55052" lon="2.9145">
        <ele>21.876</ele>
        <time>2019-09-17T12:22:54.001Z</time>
      </trkpt>
      <trkpt lat="50.55055" lon="2.91471">
        <ele>21.976</ele>
        <time>2019-09-17T12:22:57.001Z</time>
      </trkpt>
      <trkpt lat="50.55058" lon="2.91495">
        <ele>22.238</ele>
        <time>2019-09-17T12:23:00.000Z</time>
      </trkpt>
      <trkpt lat="50.55062" lon="2.91517">
        <ele>22.481</ele>
        <time>2019-09-17T12:23:03.001Z</time>
      </trkpt>
      <trkpt lat="50.55065" lon="2.91539">
        <ele>22.471</ele>
        <time>2019-09-17T12:23:06.001Z</time>
      </trkpt>
      <trkpt lat="50.55067" lon="2.9156">
        <ele>23.218</ele>
        <time>2019-09-17T12:23:09.001Z</time>
      </trkpt>
      <trkpt lat="50.55071" lon="2.91582">
        <ele>23.758</ele>
        <time>2019-09-17T12:23:12.001Z</time>
      </trkpt>
      <trkpt lat="50.55074" lon="2.91606">
        <ele>24.583</ele>
        <time>2019-09-17T12:23:15.001Z</time>
      </trkpt>
      <trkpt lat="50.55076" lon="2.91629">
        <ele>24.735</ele>
        <time>2019-09-17T12:23:18.001Z</time>
      </trkpt>
      <trkpt lat="50.55079" lon="2.91652">
        <ele>25.028</ele>
        <time>2019-09-17T12:23:21.001Z</time>
      </trkpt>
      <trkpt lat="50.55085" lon="2.91678">
        <ele>24.853</ele>
        <time>2019-09-17T12:23:24.001Z</time>
      </trkpt>
      <trkpt lat="50.55089" lon="2.91704">
        <ele>24.998</ele>
        <time>2019-09-17T12:23:27.001Z</time>
      </trkpt>
      <trkpt lat="50.55091" lon="2.9173">
        <ele>25.478</ele>
        <time>2019-09-17T12:23:30.001Z</time>
      </trkpt>
      <trkpt lat="50.55094" lon="2.91753">
        <ele>25.445</ele>
        <time>2019-09-17T12:23:33.001Z</time>
      </trkpt>
      <trkpt lat="50.55097" lon="2.91772">
        <ele>25.506</ele>
        <time>2019-09-17T12:23:36.001Z</time>
      </trkpt>
      <trkpt lat="50.551" lon="2.91789">
        <ele>25.211</ele>
        <time>2019-09-17T12:23:39.001Z</time>
      </trkpt>
      <trkpt lat="50.55102" lon="2.91805">
        <ele>25.058</ele>
        <time>2019-09-17T12:23:42.001Z</time>
      </trkpt>
      <trkpt lat="50.55101" lon="2.91821">
        <ele>24.647</ele>
        <time>2019-09-17T12:23:45.001Z</time>
      </trkpt>
      <trkpt lat="50.55103" lon="2.91834">
        <ele>24.19</ele>
        <time>2019-09-17T12:23:48.001Z</time>
      </trkpt>
      <trkpt lat="50.5511" lon="2.91846">
        <ele>22.541</ele>
        <time>2019-09-17T12:23:51.001Z</time>
      </trkpt>
      <trkpt lat="50.55113" lon="2.91848">
        <ele>22.48</ele>
        <time>2019-09-17T12:23:54.001Z</time>
      </trkpt>
      <trkpt lat="50.55113" lon="2.91848">
        <ele>22.521</ele>
        <time>2019-09-17T12:24:30.001Z</time>
      </trkpt>
      <trkpt lat="50.55116" lon="2.91848">
        <ele>22.611</ele>
        <time>2019-09-17T12:24:33.001Z</time>
      </trkpt>
      <trkpt lat="50.55118" lon="2.91841">
        <ele>23.69</ele>
        <time>2019-09-17T12:24:36.001Z</time>
      </trkpt>
      <trkpt lat="50.55115" lon="2.91828">
        <ele>24.148</ele>
        <time>2019-09-17T12:24:39.001Z</time>
      </trkpt>
      <trkpt lat="50.55113" lon="2.91814">
        <ele>24.48</ele>
        <time>2019-09-17T12:24:42.001Z</time>
      </trkpt>
      <trkpt lat="50.55105" lon="2.9181">
        <ele>25.793</ele>
        <time>2019-09-17T12:24:45.001Z</time>
      </trkpt>
      <trkpt lat="50.55098" lon="2.91821">
        <ele>26.927</ele>
        <time>2019-09-17T12:24:48.001Z</time>
      </trkpt>
      <trkpt lat="50.55092" lon="2.91829">
        <ele>27.523</ele>
        <time>2019-09-17T12:24:51.001Z</time>
      </trkpt>
      <trkpt lat="50.55081" lon="2.91831">
        <ele>26.756</ele>
        <time>2019-09-17T12:24:54.001Z</time>
      </trkpt>
      <trkpt lat="50.5507" lon="2.91828">
        <ele>26.326</ele>
        <time>2019-09-17T12:24:57.001Z</time>
      </trkpt>
      <trkpt lat="50.55059" lon="2.91822">
        <ele>26.011</ele>
        <time>2019-09-17T12:25:00.000Z</time>
      </trkpt>
      <trkpt lat="50.55047" lon="2.91813">
        <ele>25.995</ele>
        <time>2019-09-17T12:25:03.001Z</time>
      </trkpt>
      <trkpt lat="50.55034" lon="2.91801">
        <ele>26.152</ele>
        <time>2019-09-17T12:25:06.001Z</time>
      </trkpt>
      <trkpt lat="50.5502" lon="2.91792">
        <ele>26.605</ele>
        <time>2019-09-17T12:25:09.001Z</time>
      </trkpt>
      <trkpt lat="50.55005" lon="2.91784">
        <ele>26.762</ele>
        <time>2019-09-17T12:25:12.001Z</time>
      </trkpt>
      <trkpt lat="50.54992" lon="2.91773">
        <ele>26.103</ele>
        <time>2019-09-17T12:25:15.001Z</time>
      </trkpt>
      <trkpt lat="50.54984" lon="2.91764">
        <ele>25.958</ele>
        <time>2019-09-17T12:25:18.001Z</time>
      </trkpt>
      <trkpt lat="50.5498" lon="2.91758">
        <ele>26.474</ele>
        <time>2019-09-17T12:25:21.001Z</time>
      </trkpt>
      <trkpt lat="50.54975" lon="2.91748">
        <ele>27.066</ele>
        <time>2019-09-17T12:25:24.001Z</time>
      </trkpt>
      <trkpt lat="50.54966" lon="2.91731">
        <ele>27.479</ele>
        <time>2019-09-17T12:25:27.001Z</time>
      </trkpt>
      <trkpt lat="50.54956" lon="2.91715">
        <ele>28.33</ele>
        <time>2019-09-17T12:25:30.001Z</time>
      </trkpt>
      <trkpt lat="50.54944" lon="2.91695">
        <ele>28.622</ele>
        <time>2019-09-17T12:25:33.001Z</time>
      </trkpt>
      <trkpt lat="50.5493" lon="2.91686">
        <ele>29.526</ele>
        <time>2019-09-17T12:25:36.001Z</time>
      </trkpt>
      <trkpt lat="50.54917" lon="2.917">
        <ele>30.169</ele>
        <time>2019-09-17T12:25:39.001Z</time>
      </trkpt>
      <trkpt lat="50.54906" lon="2.91719">
        <ele>30.651</ele>
        <time>2019-09-17T12:25:42.001Z</time>
      </trkpt>
      <trkpt lat="50.54895" lon="2.91737">
        <ele>32.234</ele>
        <time>2019-09-17T12:25:45.001Z</time>
      </trkpt>
      <trkpt lat="50.54885" lon="2.91756">
        <ele>33.302</ele>
        <time>2019-09-17T12:25:48.001Z</time>
      </trkpt>
      <trkpt lat="50.54877" lon="2.91773">
        <ele>35.135</ele>
        <time>2019-09-17T12:25:51.001Z</time>
      </trkpt>
      <trkpt lat="50.54871" lon="2.91791">
        <ele>36.443</ele>
        <time>2019-09-17T12:25:54.001Z</time>
      </trkpt>
      <trkpt lat="50.54865" lon="2.91814">
        <ele>36.877</ele>
        <time>2019-09-17T12:25:57.001Z</time>
      </trkpt>
      <trkpt lat="50.54858" lon="2.91836">
        <ele>35.94</ele>
        <time>2019-09-17T12:26:00.000Z</time>
      </trkpt>
      <trkpt lat="50.54854" lon="2.91861">
        <ele>35.98</ele>
        <time>2019-09-17T12:26:03.001Z</time>
      </trkpt>
      <trkpt lat="50.5485" lon="2.91887">
        <ele>36.823</ele>
        <time>2019-09-17T12:26:06.001Z</time>
      </trkpt>
      <trkpt lat="50.54847" lon="2.91912">
        <ele>38.177</ele>
        <time>2019-09-17T12:26:09.001Z</time>
      </trkpt>
      <trkpt lat="50.54846" lon="2.91937">
        <ele>38.433</ele>
        <time>2019-09-17T12:26:12.001Z</time>
      </trkpt>
      <trkpt lat="50.54836" lon="2.9196">
        <ele>37.177</ele>
        <time>2019-09-17T12:26:15.001Z</time>
      </trkpt>
      <trkpt lat="50.54825" lon="2.91985">
        <ele>36.506</ele>
        <time>2019-09-17T12:26:18.001Z</time>
      </trkpt>
      <trkpt lat="50.54812" lon="2.92004">
        <ele>36.151</ele>
        <time>2019-09-17T12:26:21.001Z</time>
      </trkpt>
      <trkpt lat="50.54798" lon="2.92019">
        <ele>34.886</ele>
        <time>2019-09-17T12:26:24.001Z</time>
      </trkpt>
      <trkpt lat="50.54783" lon="2.9203">
        <ele>33.506</ele>
        <time>2019-09-17T12:26:27.001Z</time>
      </trkpt>
      <trkpt lat="50.54768" lon="2.92034">
        <ele>31.101</ele>
        <time>2019-09-17T12:26:30.001Z</time>
      </trkpt>
      <trkpt lat="50.54755" lon="2.92037">
        <ele>29.974</ele>
        <time>2019-09-17T12:26:33.001Z</time>
      </trkpt>
      <trkpt lat="50.54742" lon="2.92039">
        <ele>28.735</ele>
        <time>2019-09-17T12:26:36.001Z</time>
      </trkpt>
      <trkpt lat="50.54729" lon="2.92041">
        <ele>27.758</ele>
        <time>2019-09-17T12:26:39.001Z</time>
      </trkpt>
      <trkpt lat="50.54717" lon="2.92043">
        <ele>27.187</ele>
        <time>2019-09-17T12:26:42.001Z</time>
      </trkpt>
      <trkpt lat="50.54705" lon="2.92045">
        <ele>26.894</ele>
        <time>2019-09-17T12:26:45.001Z</time>
      </trkpt>
      <trkpt lat="50.54692" lon="2.92048">
        <ele>26.482</ele>
        <time>2019-09-17T12:26:48.001Z</time>
      </trkpt>
      <trkpt lat="50.5468" lon="2.92051">
        <ele>26.079</ele>
        <time>2019-09-17T12:26:51.001Z</time>
      </trkpt>
      <trkpt lat="50.54667" lon="2.92054">
        <ele>25.605</ele>
        <time>2019-09-17T12:26:54.001Z</time>
      </trkpt>
      <trkpt lat="50.54653" lon="2.92057">
        <ele>24.597</ele>
        <time>2019-09-17T12:26:57.001Z</time>
      </trkpt>
      <trkpt lat="50.54638" lon="2.92061">
        <ele>24.375</ele>
        <time>2019-09-17T12:27:00.000Z</time>
      </trkpt>
      <trkpt lat="50.54623" lon="2.92064">
        <ele>23.276</ele>
        <time>2019-09-17T12:27:03.001Z</time>
      </trkpt>
      <trkpt lat="50.54608" lon="2.92066">
        <ele>23.405</ele>
        <time>2019-09-17T12:27:06.001Z</time>
      </trkpt>
      <trkpt lat="50.5459" lon="2.92069">
        <ele>23.413</ele>
        <time>2019-09-17T12:27:09.001Z</time>
      </trkpt>
      <trkpt lat="50.54572" lon="2.92073">
        <ele>23.49</ele>
        <time>2019-09-17T12:27:12.001Z</time>
      </trkpt>
      <trkpt lat="50.54553" lon="2.92078">
        <ele>22.973</ele>
        <time>2019-09-17T12:27:15.001Z</time>
      </trkpt>
      <trkpt lat="50.54533" lon="2.92082">
        <ele>22.467</ele>
        <time>2019-09-17T12:27:18.001Z</time>
      </trkpt>
      <trkpt lat="50.54513" lon="2.92086">
        <ele>23.037</ele>
        <time>2019-09-17T12:27:21.001Z</time>
      </trkpt>
      <trkpt lat="50.54494" lon="2.9209">
        <ele>23.099</ele>
        <time>2019-09-17T12:27:24.001Z</time>
      </trkpt>
      <trkpt lat="50.54477" lon="2.92094">
        <ele>22.934</ele>
        <time>2019-09-17T12:27:27.001Z</time>
      </trkpt>
      <trkpt lat="50.5446" lon="2.92098">
        <ele>22.742</ele>
        <time>2019-09-17T12:27:30.001Z</time>
      </trkpt>
      <trkpt lat="50.54443" lon="2.92102">
        <ele>22.428</ele>
        <time>2019-09-17T12:27:33.001Z</time>
      </trkpt>
      <trkpt lat="50.54427" lon="2.92106">
        <ele>22.234</ele>
        <time>2019-09-17T12:27:36.001Z</time>
      </trkpt>
      <trkpt lat="50.54411" lon="2.9211">
        <ele>21.986</ele>
        <time>2019-09-17T12:27:39.001Z</time>
      </trkpt>
      <trkpt lat="50.54393" lon="2.92113">
        <ele>22.307</ele>
        <time>2019-09-17T12:27:42.001Z</time>
      </trkpt>
      <trkpt lat="50.54377" lon="2.92115">
        <ele>22.43</ele>
        <time>2019-09-17T12:27:45.001Z</time>
      </trkpt>
      <trkpt lat="50.54359" lon="2.92114">
        <ele>23.132</ele>
        <time>2019-09-17T12:27:48.001Z</time>
      </trkpt>
      <trkpt lat="50.54342" lon="2.92107">
        <ele>23.465</ele>
        <time>2019-09-17T12:27:51.001Z</time>
      </trkpt>
      <trkpt lat="50.54334" lon="2.92092">
        <ele>22.819</ele>
        <time>2019-09-17T12:27:54.001Z</time>
      </trkpt>
      <trkpt lat="50.54333" lon="2.92075">
        <ele>22.936</ele>
        <time>2019-09-17T12:27:57.001Z</time>
      </trkpt>
      <trkpt lat="50.54334" lon="2.92065">
        <ele>23.487</ele>
        <time>2019-09-17T12:28:00.000Z</time>
      </trkpt>
      <trkpt lat="50.54335" lon="2.92062">
        <ele>23.616</ele>
        <time>2019-09-17T12:28:03.001Z</time>
      </trkpt>
      <trkpt lat="50.54334" lon="2.92059">
        <ele>24.034</ele>
        <time>2019-09-17T12:33:51.001Z</time>
      </trkpt>
      <trkpt lat="50.54333" lon="2.92058">
        <ele>23.755</ele>
        <time>2019-09-17T12:33:54.001Z</time>
      </trkpt>
      <trkpt lat="50.54332" lon="2.92043">
        <ele>23.718</ele>
        <time>2019-09-17T12:34:00.000Z</time>
      </trkpt>
      <trkpt lat="50.54329" lon="2.92034">
        <ele>23.869</ele>
        <time>2019-09-17T12:34:03.001Z</time>
      </trkpt>
      <trkpt lat="50.54326" lon="2.92021">
        <ele>23.192</ele>
        <time>2019-09-17T12:34:06.001Z</time>
      </trkpt>
      <trkpt lat="50.54323" lon="2.92007">
        <ele>22.232</ele>
        <time>2019-09-17T12:34:09.001Z</time>
      </trkpt>
      <trkpt lat="50.54321" lon="2.91988">
        <ele>22.314</ele>
        <time>2019-09-17T12:34:12.001Z</time>
      </trkpt>
      <trkpt lat="50.54319" lon="2.91966">
        <ele>22.839</ele>
        <time>2019-09-17T12:34:15.001Z</time>
      </trkpt>
      <trkpt lat="50.54317" lon="2.91946">
        <ele>23.219</ele>
        <time>2019-09-17T12:34:18.001Z</time>
      </trkpt>
      <trkpt lat="50.54317" lon="2.91927">
        <ele>23.445</ele>
        <time>2019-09-17T12:34:21.001Z</time>
      </trkpt>
      <trkpt lat="50.54328" lon="2.91915">
        <ele>23.804</ele>
        <time>2019-09-17T12:34:24.001Z</time>
      </trkpt>
      <trkpt lat="50.54341" lon="2.91911">
        <ele>23.884</ele>
        <time>2019-09-17T12:34:27.001Z</time>
      </trkpt>
      <trkpt lat="50.54352" lon="2.91908">
        <ele>23.568</ele>
        <time>2019-09-17T12:34:30.001Z</time>
      </trkpt>
      <trkpt lat="50.54364" lon="2.91906">
        <ele>22.864</ele>
        <time>2019-09-17T12:34:33.001Z</time>
      </trkpt>
      <trkpt lat="50.54378" lon="2.91907">
        <ele>22.417</ele>
        <time>2019-09-17T12:34:36.001Z</time>
      </trkpt>
      <trkpt lat="50.54389" lon="2.91906">
        <ele>21.845</ele>
        <time>2019-09-17T12:34:39.001Z</time>
      </trkpt>
      <trkpt lat="50.54401" lon="2.919">
        <ele>21.524</ele>
        <time>2019-09-17T12:34:42.001Z</time>
      </trkpt>
      <trkpt lat="50.54413" lon="2.91899">
        <ele>21.904</ele>
        <time>2019-09-17T12:34:45.001Z</time>
      </trkpt>
      <trkpt lat="50.54424" lon="2.919">
        <ele>21.365</ele>
        <time>2019-09-17T12:34:48.001Z</time>
      </trkpt>
      <trkpt lat="50.54436" lon="2.91905">
        <ele>21.038</ele>
        <time>2019-09-17T12:34:51.001Z</time>
      </trkpt>
      <trkpt lat="50.54447" lon="2.91907">
        <ele>21.541</ele>
        <time>2019-09-17T12:34:54.001Z</time>
      </trkpt>
      <trkpt lat="50.54457" lon="2.91908">
        <ele>22.296</ele>
        <time>2019-09-17T12:34:57.001Z</time>
      </trkpt>
      <trkpt lat="50.54468" lon="2.91909">
        <ele>22.369</ele>
        <time>2019-09-17T12:35:00.000Z</time>
      </trkpt>
      <trkpt lat="50.54478" lon="2.91912">
        <ele>22.79</ele>
        <time>2019-09-17T12:35:03.001Z</time>
      </trkpt>
      <trkpt lat="50.54488" lon="2.91915">
        <ele>22.396</ele>
        <time>2019-09-17T12:35:06.001Z</time>
      </trkpt>
      <trkpt lat="50.54496" lon="2.91918">
        <ele>22.937</ele>
        <time>2019-09-17T12:35:09.002Z</time>
      </trkpt>
      <trkpt lat="50.54498" lon="2.91918">
        <ele>23.333</ele>
        <time>2019-09-17T12:35:12.001Z</time>
      </trkpt>
      <trkpt lat="50.54498" lon="2.91918">
        <ele>23.333</ele>
        <time>2019-09-17T12:35:57.001Z</time>
      </trkpt>
      <trkpt lat="50.545" lon="2.91918">
        <ele>23.2</ele>
        <time>2019-09-17T12:36:00.000Z</time>
      </trkpt>
      <trkpt lat="50.54505" lon="2.91918">
        <ele>22.124</ele>
        <time>2019-09-17T12:36:03.001Z</time>
      </trkpt>
      <trkpt lat="50.54511" lon="2.91919">
        <ele>21.225</ele>
        <time>2019-09-17T12:36:06.001Z</time>
      </trkpt>
      <trkpt lat="50.54519" lon="2.91918">
        <ele>21.263</ele>
        <time>2019-09-17T12:36:09.001Z</time>
      </trkpt>
      <trkpt lat="50.54527" lon="2.91918">
        <ele>21.12</ele>
        <time>2019-09-17T12:36:12.001Z</time>
      </trkpt>
      <trkpt lat="50.54537" lon="2.91917">
        <ele>20.829</ele>
        <time>2019-09-17T12:36:15.001Z</time>
      </trkpt>
      <trkpt lat="50.54547" lon="2.91921">
        <ele>20.928</ele>
        <time>2019-09-17T12:36:18.001Z</time>
      </trkpt>
      <trkpt lat="50.54558" lon="2.91924">
        <ele>21.057</ele>
        <time>2019-09-17T12:36:21.001Z</time>
      </trkpt>
      <trkpt lat="50.54568" lon="2.91927">
        <ele>21.035</ele>
        <time>2019-09-17T12:36:24.001Z</time>
      </trkpt>
      <trkpt lat="50.5458" lon="2.91928">
        <ele>21.061</ele>
        <time>2019-09-17T12:36:27.001Z</time>
      </trkpt>
      <trkpt lat="50.5459" lon="2.91925">
        <ele>21.269</ele>
        <time>2019-09-17T12:36:30.001Z</time>
      </trkpt>
      <trkpt lat="50.54598" lon="2.91921">
        <ele>20.466</ele>
        <time>2019-09-17T12:36:33.001Z</time>
      </trkpt>
      <trkpt lat="50.54603" lon="2.91923">
        <ele>21.55</ele>
        <time>2019-09-17T12:36:36.001Z</time>
      </trkpt>
      <trkpt lat="50.54608" lon="2.91931">
        <ele>21.745</ele>
        <time>2019-09-17T12:36:39.001Z</time>
      </trkpt>
      <trkpt lat="50.5461" lon="2.91943">
        <ele>21.047</ele>
        <time>2019-09-17T12:36:42.001Z</time>
      </trkpt>
      <trkpt lat="50.54613" lon="2.91957">
        <ele>21.375</ele>
        <time>2019-09-17T12:36:45.001Z</time>
      </trkpt>
      <trkpt lat="50.54617" lon="2.91977">
        <ele>21.321</ele>
        <time>2019-09-17T12:36:48.001Z</time>
      </trkpt>
      <trkpt lat="50.54621" lon="2.91998">
        <ele>22.063</ele>
        <time>2019-09-17T12:36:51.001Z</time>
      </trkpt>
      <trkpt lat="50.54625" lon="2.92021">
        <ele>21.317</ele>
        <time>2019-09-17T12:36:54.001Z</time>
      </trkpt>
      <trkpt lat="50.54628" lon="2.92042">
        <ele>20.892</ele>
        <time>2019-09-17T12:36:57.001Z</time>
      </trkpt>
      <trkpt lat="50.54632" lon="2.9206">
        <ele>20.349</ele>
        <time>2019-09-17T12:37:00.000Z</time>
      </trkpt>
      <trkpt lat="50.54636" lon="2.92079">
        <ele>19.528</ele>
        <time>2019-09-17T12:37:03.001Z</time>
      </trkpt>
      <trkpt lat="50.54637" lon="2.92103">
        <ele>19.199</ele>
        <time>2019-09-17T12:37:06.001Z</time>
      </trkpt>
      <trkpt lat="50.54639" lon="2.92125">
        <ele>19.289</ele>
        <time>2019-09-17T12:37:09.001Z</time>
      </trkpt>
      <trkpt lat="50.54644" lon="2.92146">
        <ele>19.456</ele>
        <time>2019-09-17T12:37:12.001Z</time>
      </trkpt>
      <trkpt lat="50.54649" lon="2.92166">
        <ele>19.6</ele>
        <time>2019-09-17T12:37:15.001Z</time>
      </trkpt>
      <trkpt lat="50.54654" lon="2.92189">
        <ele>19.274</ele>
        <time>2019-09-17T12:37:18.001Z</time>
      </trkpt>
      <trkpt lat="50.54659" lon="2.92211">
        <ele>18.901</ele>
        <time>2019-09-17T12:37:21.001Z</time>
      </trkpt>
      <trkpt lat="50.54665" lon="2.92232">
        <ele>18.276</ele>
        <time>2019-09-17T12:37:24.001Z</time>
      </trkpt>
      <trkpt lat="50.5467" lon="2.92253">
        <ele>17.681</ele>
        <time>2019-09-17T12:37:27.001Z</time>
      </trkpt>
      <trkpt lat="50.54676" lon="2.92273">
        <ele>16.984</ele>
        <time>2019-09-17T12:37:30.001Z</time>
      </trkpt>
      <trkpt lat="50.54682" lon="2.92292">
        <ele>16.368</ele>
        <time>2019-09-17T12:37:33.001Z</time>
      </trkpt>
      <trkpt lat="50.54688" lon="2.92309">
        <ele>16.588</ele>
        <time>2019-09-17T12:37:36.001Z</time>
      </trkpt>
      <trkpt lat="50.54692" lon="2.92328">
        <ele>16.841</ele>
        <time>2019-09-17T12:37:39.001Z</time>
      </trkpt>
      <trkpt lat="50.54693" lon="2.92347">
        <ele>17.05</ele>
        <time>2019-09-17T12:37:42.001Z</time>
      </trkpt>
      <trkpt lat="50.54695" lon="2.92366">
        <ele>17.052</ele>
        <time>2019-09-17T12:37:45.001Z</time>
      </trkpt>
      <trkpt lat="50.547" lon="2.92383">
        <ele>17.347</ele>
        <time>2019-09-17T12:37:48.001Z</time>
      </trkpt>
      <trkpt lat="50.54707" lon="2.92401">
        <ele>17.503</ele>
        <time>2019-09-17T12:37:51.001Z</time>
      </trkpt>
      <trkpt lat="50.54712" lon="2.92416">
        <ele>17.62</ele>
        <time>2019-09-17T12:37:54.001Z</time>
      </trkpt>
      <trkpt lat="50.54717" lon="2.92431">
        <ele>17.693</ele>
        <time>2019-09-17T12:37:57.001Z</time>
      </trkpt>
      <trkpt lat="50.54722" lon="2.92448">
        <ele>18.372</ele>
        <time>2019-09-17T12:38:00.000Z</time>
      </trkpt>
      <trkpt lat="50.54729" lon="2.92465">
        <ele>19.164</ele>
        <time>2019-09-17T12:38:03.001Z</time>
      </trkpt>
      <trkpt lat="50.54735" lon="2.92483">
        <ele>19.536</ele>
        <time>2019-09-17T12:38:06.001Z</time>
      </trkpt>
      <trkpt lat="50.54742" lon="2.92501">
        <ele>19.624</ele>
        <time>2019-09-17T12:38:09.001Z</time>
      </trkpt>
      <trkpt lat="50.54749" lon="2.9252">
        <ele>20.746</ele>
        <time>2019-09-17T12:38:12.001Z</time>
      </trkpt>
      <trkpt lat="50.54755" lon="2.92537">
        <ele>21.212</ele>
        <time>2019-09-17T12:38:15.001Z</time>
      </trkpt>
      <trkpt lat="50.54762" lon="2.92554">
        <ele>22.187</ele>
        <time>2019-09-17T12:38:18.001Z</time>
      </trkpt>
      <trkpt lat="50.54767" lon="2.9257">
        <ele>22.928</ele>
        <time>2019-09-17T12:38:21.001Z</time>
      </trkpt>
      <trkpt lat="50.54772" lon="2.92585">
        <ele>23.416</ele>
        <time>2019-09-17T12:38:24.001Z</time>
      </trkpt>
      <trkpt lat="50.54776" lon="2.926">
        <ele>24.058</ele>
        <time>2019-09-17T12:38:27.001Z</time>
      </trkpt>
      <trkpt lat="50.5478" lon="2.92612">
        <ele>25.142</ele>
        <time>2019-09-17T12:38:30.001Z</time>
      </trkpt>
      <trkpt lat="50.54786" lon="2.92618">
        <ele>26.292</ele>
        <time>2019-09-17T12:38:33.001Z</time>
      </trkpt>
      <trkpt lat="50.54794" lon="2.92625">
        <ele>27.446</ele>
        <time>2019-09-17T12:38:36.001Z</time>
      </trkpt>
      <trkpt lat="50.54804" lon="2.92639">
        <ele>27.715</ele>
        <time>2019-09-17T12:38:39.001Z</time>
      </trkpt>
      <trkpt lat="50.54812" lon="2.92657">
        <ele>27.415</ele>
        <time>2019-09-17T12:38:42.001Z</time>
      </trkpt>
      <trkpt lat="50.54817" lon="2.92677">
        <ele>27.175</ele>
        <time>2019-09-17T12:38:45.001Z</time>
      </trkpt>
      <trkpt lat="50.54823" lon="2.92696">
        <ele>26.708</ele>
        <time>2019-09-17T12:38:48.001Z</time>
      </trkpt>
      <trkpt lat="50.54829" lon="2.92715">
        <ele>25.953</ele>
        <time>2019-09-17T12:38:51.001Z</time>
      </trkpt>
      <trkpt lat="50.54835" lon="2.92734">
        <ele>24.455</ele>
        <time>2019-09-17T12:38:54.001Z</time>
      </trkpt>
      <trkpt lat="50.54842" lon="2.92754">
        <ele>23.831</ele>
        <time>2019-09-17T12:38:57.001Z</time>
      </trkpt>
      <trkpt lat="50.54848" lon="2.92774">
        <ele>23.457</ele>
        <time>2019-09-17T12:39:00.000Z</time>
      </trkpt>
      <trkpt lat="50.54854" lon="2.92794">
        <ele>23.14</ele>
        <time>2019-09-17T12:39:03.001Z</time>
      </trkpt>
      <trkpt lat="50.54861" lon="2.92815">
        <ele>22.837</ele>
        <time>2019-09-17T12:39:06.001Z</time>
      </trkpt>
      <trkpt lat="50.54868" lon="2.92836">
        <ele>22.406</ele>
        <time>2019-09-17T12:39:09.001Z</time>
      </trkpt>
      <trkpt lat="50.54875" lon="2.92857">
        <ele>22.051</ele>
        <time>2019-09-17T12:39:12.001Z</time>
      </trkpt>
      <trkpt lat="50.54883" lon="2.92878">
        <ele>22.078</ele>
        <time>2019-09-17T12:39:15.001Z</time>
      </trkpt>
      <trkpt lat="50.5489" lon="2.92899">
        <ele>22.408</ele>
        <time>2019-09-17T12:39:18.001Z</time>
      </trkpt>
      <trkpt lat="50.54897" lon="2.9292">
        <ele>21.979</ele>
        <time>2019-09-17T12:39:21.001Z</time>
      </trkpt>
      <trkpt lat="50.54905" lon="2.92941">
        <ele>22.185</ele>
        <time>2019-09-17T12:39:24.001Z</time>
      </trkpt>
      <trkpt lat="50.54912" lon="2.92961">
        <ele>22.24</ele>
        <time>2019-09-17T12:39:27.001Z</time>
      </trkpt>
      <trkpt lat="50.54918" lon="2.92982">
        <ele>22.401</ele>
        <time>2019-09-17T12:39:30.001Z</time>
      </trkpt>
      <trkpt lat="50.54925" lon="2.93004">
        <ele>22.235</ele>
        <time>2019-09-17T12:39:33.001Z</time>
      </trkpt>
      <trkpt lat="50.54933" lon="2.93026">
        <ele>22.128</ele>
        <time>2019-09-17T12:39:36.001Z</time>
      </trkpt>
      <trkpt lat="50.5494" lon="2.93047">
        <ele>22.698</ele>
        <time>2019-09-17T12:39:39.001Z</time>
      </trkpt>
      <trkpt lat="50.54948" lon="2.93067">
        <ele>22.748</ele>
        <time>2019-09-17T12:39:42.001Z</time>
      </trkpt>
      <trkpt lat="50.54955" lon="2.93089">
        <ele>22.884</ele>
        <time>2019-09-17T12:39:45.001Z</time>
      </trkpt>
      <trkpt lat="50.54962" lon="2.93112">
        <ele>22.502</ele>
        <time>2019-09-17T12:39:48.001Z</time>
      </trkpt>
      <trkpt lat="50.5497" lon="2.93134">
        <ele>22.281</ele>
        <time>2019-09-17T12:39:51.001Z</time>
      </trkpt>
      <trkpt lat="50.54978" lon="2.93156">
        <ele>22.021</ele>
        <time>2019-09-17T12:39:54.001Z</time>
      </trkpt>
      <trkpt lat="50.54984" lon="2.93178">
        <ele>21.566</ele>
        <time>2019-09-17T12:39:57.001Z</time>
      </trkpt>
      <trkpt lat="50.54992" lon="2.93199">
        <ele>21.528</ele>
        <time>2019-09-17T12:40:00.000Z</time>
      </trkpt>
      <trkpt lat="50.54999" lon="2.93221">
        <ele>21.05</ele>
        <time>2019-09-17T12:40:03.001Z</time>
      </trkpt>
      <trkpt lat="50.55007" lon="2.93245">
        <ele>20.644</ele>
        <time>2019-09-17T12:40:06.001Z</time>
      </trkpt>
      <trkpt lat="50.55014" lon="2.93266">
        <ele>20.344</ele>
        <time>2019-09-17T12:40:09.001Z</time>
      </trkpt>
      <trkpt lat="50.55022" lon="2.93288">
        <ele>19.993</ele>
        <time>2019-09-17T12:40:12.001Z</time>
      </trkpt>
      <trkpt lat="50.55029" lon="2.93309">
        <ele>20.458</ele>
        <time>2019-09-17T12:40:15.001Z</time>
      </trkpt>
      <trkpt lat="50.55036" lon="2.9333">
        <ele>20.621</ele>
        <time>2019-09-17T12:40:18.001Z</time>
      </trkpt>
      <trkpt lat="50.55043" lon="2.93351">
        <ele>21.005</ele>
        <time>2019-09-17T12:40:21.001Z</time>
      </trkpt>
      <trkpt lat="50.5505" lon="2.93371">
        <ele>21.651</ele>
        <time>2019-09-17T12:40:24.001Z</time>
      </trkpt>
      <trkpt lat="50.55055" lon="2.93391">
        <ele>21.769</ele>
        <time>2019-09-17T12:40:27.001Z</time>
      </trkpt>
      <trkpt lat="50.55062" lon="2.93412">
        <ele>21.495</ele>
        <time>2019-09-17T12:40:30.001Z</time>
      </trkpt>
      <trkpt lat="50.55069" lon="2.93433">
        <ele>21.845</ele>
        <time>2019-09-17T12:40:33.001Z</time>
      </trkpt>
      <trkpt lat="50.55076" lon="2.93453">
        <ele>22.419</ele>
        <time>2019-09-17T12:40:36.001Z</time>
      </trkpt>
      <trkpt lat="50.55083" lon="2.93474">
        <ele>23.066</ele>
        <time>2019-09-17T12:40:39.001Z</time>
      </trkpt>
      <trkpt lat="50.55089" lon="2.93493">
        <ele>23.192</ele>
        <time>2019-09-17T12:40:42.001Z</time>
      </trkpt>
      <trkpt lat="50.55096" lon="2.93513">
        <ele>22.998</ele>
        <time>2019-09-17T12:40:45.001Z</time>
      </trkpt>
      <trkpt lat="50.55103" lon="2.93535">
        <ele>22.636</ele>
        <time>2019-09-17T12:40:48.001Z</time>
      </trkpt>
      <trkpt lat="50.55111" lon="2.93558">
        <ele>21.997</ele>
        <time>2019-09-17T12:40:51.001Z</time>
      </trkpt>
      <trkpt lat="50.55118" lon="2.93579">
        <ele>21.664</ele>
        <time>2019-09-17T12:40:54.001Z</time>
      </trkpt>
      <trkpt lat="50.55125" lon="2.93599">
        <ele>21.229</ele>
        <time>2019-09-17T12:40:57.001Z</time>
      </trkpt>
      <trkpt lat="50.55133" lon="2.9362">
        <ele>19.902</ele>
        <time>2019-09-17T12:41:00.000Z</time>
      </trkpt>
      <trkpt lat="50.5514" lon="2.93641">
        <ele>19.103</ele>
        <time>2019-09-17T12:41:03.001Z</time>
      </trkpt>
      <trkpt lat="50.55146" lon="2.93661">
        <ele>18.956</ele>
        <time>2019-09-17T12:41:06.001Z</time>
      </trkpt>
      <trkpt lat="50.55151" lon="2.9368">
        <ele>19.22</ele>
        <time>2019-09-17T12:41:09.001Z</time>
      </trkpt>
      <trkpt lat="50.55158" lon="2.93702">
        <ele>19.191</ele>
        <time>2019-09-17T12:41:12.001Z</time>
      </trkpt>
      <trkpt lat="50.55165" lon="2.93723">
        <ele>18.773</ele>
        <time>2019-09-17T12:41:15.001Z</time>
      </trkpt>
      <trkpt lat="50.55172" lon="2.93746">
        <ele>18.456</ele>
        <time>2019-09-17T12:41:18.001Z</time>
      </trkpt>
      <trkpt lat="50.55179" lon="2.93768">
        <ele>18.308</ele>
        <time>2019-09-17T12:41:21.001Z</time>
      </trkpt>
      <trkpt lat="50.55186" lon="2.9379">
        <ele>17.682</ele>
        <time>2019-09-17T12:41:24.001Z</time>
      </trkpt>
      <trkpt lat="50.55192" lon="2.93813">
        <ele>16.51</ele>
        <time>2019-09-17T12:41:27.001Z</time>
      </trkpt>
      <trkpt lat="50.55196" lon="2.93834">
        <ele>15.591</ele>
        <time>2019-09-17T12:41:30.001Z</time>
      </trkpt>
      <trkpt lat="50.55202" lon="2.93855">
        <ele>15.213</ele>
        <time>2019-09-17T12:41:33.001Z</time>
      </trkpt>
      <trkpt lat="50.55208" lon="2.93874">
        <ele>15.553</ele>
        <time>2019-09-17T12:41:36.001Z</time>
      </trkpt>
      <trkpt lat="50.55214" lon="2.93892">
        <ele>16.35</ele>
        <time>2019-09-17T12:41:39.001Z</time>
      </trkpt>
      <trkpt lat="50.55219" lon="2.93908">
        <ele>16.794</ele>
        <time>2019-09-17T12:41:42.001Z</time>
      </trkpt>
      <trkpt lat="50.55226" lon="2.93927">
        <ele>17.089</ele>
        <time>2019-09-17T12:41:45.001Z</time>
      </trkpt>
      <trkpt lat="50.55233" lon="2.93948">
        <ele>17.314</ele>
        <time>2019-09-17T12:41:48.001Z</time>
      </trkpt>
      <trkpt lat="50.5524" lon="2.93968">
        <ele>17.558</ele>
        <time>2019-09-17T12:41:51.001Z</time>
      </trkpt>
      <trkpt lat="50.55248" lon="2.93989">
        <ele>18.316</ele>
        <time>2019-09-17T12:41:54.001Z</time>
      </trkpt>
      <trkpt lat="50.55255" lon="2.94007">
        <ele>18.718</ele>
        <time>2019-09-17T12:41:57.001Z</time>
      </trkpt>
      <trkpt lat="50.5526" lon="2.94024">
        <ele>18.776</ele>
        <time>2019-09-17T12:42:00.000Z</time>
      </trkpt>
      <trkpt lat="50.55264" lon="2.94038">
        <ele>18.59</ele>
        <time>2019-09-17T12:42:03.001Z</time>
      </trkpt>
      <trkpt lat="50.55266" lon="2.94047">
        <ele>18.539</ele>
        <time>2019-09-17T12:42:06.001Z</time>
      </trkpt>
      <trkpt lat="50.5527" lon="2.94055">
        <ele>18.573</ele>
        <time>2019-09-17T12:42:09.001Z</time>
      </trkpt>
      <trkpt lat="50.55276" lon="2.94067">
        <ele>19.152</ele>
        <time>2019-09-17T12:42:12.001Z</time>
      </trkpt>
      <trkpt lat="50.55282" lon="2.94082">
        <ele>19.553</ele>
        <time>2019-09-17T12:42:15.001Z</time>
      </trkpt>
      <trkpt lat="50.55287" lon="2.94098">
        <ele>19.702</ele>
        <time>2019-09-17T12:42:18.001Z</time>
      </trkpt>
      <trkpt lat="50.55293" lon="2.94113">
        <ele>20.259</ele>
        <time>2019-09-17T12:42:21.001Z</time>
      </trkpt>
      <trkpt lat="50.55298" lon="2.94128">
        <ele>20.636</ele>
        <time>2019-09-17T12:42:24.001Z</time>
      </trkpt>
      <trkpt lat="50.55305" lon="2.94144">
        <ele>21.097</ele>
        <time>2019-09-17T12:42:27.001Z</time>
      </trkpt>
      <trkpt lat="50.5531" lon="2.94162">
        <ele>21.191</ele>
        <time>2019-09-17T12:42:30.001Z</time>
      </trkpt>
      <trkpt lat="50.55316" lon="2.94181">
        <ele>21.244</ele>
        <time>2019-09-17T12:42:33.001Z</time>
      </trkpt>
      <trkpt lat="50.55322" lon="2.94198">
        <ele>21.617</ele>
        <time>2019-09-17T12:42:36.001Z</time>
      </trkpt>
      <trkpt lat="50.55328" lon="2.94215">
        <ele>22.112</ele>
        <time>2019-09-17T12:42:39.001Z</time>
      </trkpt>
      <trkpt lat="50.55335" lon="2.94232">
        <ele>22.19</ele>
        <time>2019-09-17T12:42:42.001Z</time>
      </trkpt>
      <trkpt lat="50.55341" lon="2.9425">
        <ele>22.1</ele>
        <time>2019-09-17T12:42:45.001Z</time>
      </trkpt>
      <trkpt lat="50.55348" lon="2.94267">
        <ele>21.884</ele>
        <time>2019-09-17T12:42:48.001Z</time>
      </trkpt>
      <trkpt lat="50.55356" lon="2.94285">
        <ele>21.67</ele>
        <time>2019-09-17T12:42:51.001Z</time>
      </trkpt>
      <trkpt lat="50.55362" lon="2.94303">
        <ele>21.506</ele>
        <time>2019-09-17T12:42:54.001Z</time>
      </trkpt>
      <trkpt lat="50.55369" lon="2.94322">
        <ele>21.284</ele>
        <time>2019-09-17T12:42:57.001Z</time>
      </trkpt>
      <trkpt lat="50.55376" lon="2.94342">
        <ele>21.527</ele>
        <time>2019-09-17T12:43:00.000Z</time>
      </trkpt>
      <trkpt lat="50.55383" lon="2.9436">
        <ele>21.452</ele>
        <time>2019-09-17T12:43:03.001Z</time>
      </trkpt>
      <trkpt lat="50.55389" lon="2.94377">
        <ele>21.664</ele>
        <time>2019-09-17T12:43:06.001Z</time>
      </trkpt>
      <trkpt lat="50.55396" lon="2.94395">
        <ele>22.12</ele>
        <time>2019-09-17T12:43:09.001Z</time>
      </trkpt>
      <trkpt lat="50.55403" lon="2.94413">
        <ele>22.19</ele>
        <time>2019-09-17T12:43:12.001Z</time>
      </trkpt>
      <trkpt lat="50.55409" lon="2.94431">
        <ele>22.393</ele>
        <time>2019-09-17T12:43:15.001Z</time>
      </trkpt>
      <trkpt lat="50.55413" lon="2.9445">
        <ele>22.754</ele>
        <time>2019-09-17T12:43:18.001Z</time>
      </trkpt>
      <trkpt lat="50.55414" lon="2.94472">
        <ele>22.467</ele>
        <time>2019-09-17T12:43:21.001Z</time>
      </trkpt>
      <trkpt lat="50.55415" lon="2.94493">
        <ele>22.343</ele>
        <time>2019-09-17T12:43:24.001Z</time>
      </trkpt>
      <trkpt lat="50.55417" lon="2.94512">
        <ele>21.875</ele>
        <time>2019-09-17T12:43:27.001Z</time>
      </trkpt>
      <trkpt lat="50.55421" lon="2.94533">
        <ele>21.696</ele>
        <time>2019-09-17T12:43:30.001Z</time>
      </trkpt>
      <trkpt lat="50.55426" lon="2.9455">
        <ele>21.924</ele>
        <time>2019-09-17T12:43:33.001Z</time>
      </trkpt>
      <trkpt lat="50.55431" lon="2.94566">
        <ele>22.21</ele>
        <time>2019-09-17T12:43:36.001Z</time>
      </trkpt>
      <trkpt lat="50.55437" lon="2.94583">
        <ele>22.055</ele>
        <time>2019-09-17T12:43:39.001Z</time>
      </trkpt>
      <trkpt lat="50.55442" lon="2.94599">
        <ele>21.668</ele>
        <time>2019-09-17T12:43:42.001Z</time>
      </trkpt>
      <trkpt lat="50.55447" lon="2.94615">
        <ele>22.142</ele>
        <time>2019-09-17T12:43:45.001Z</time>
      </trkpt>
      <trkpt lat="50.55453" lon="2.94627">
        <ele>22.811</ele>
        <time>2019-09-17T12:43:48.001Z</time>
      </trkpt>
      <trkpt lat="50.55456" lon="2.94637">
        <ele>23.062</ele>
        <time>2019-09-17T12:43:51.001Z</time>
      </trkpt>
      <trkpt lat="50.5546" lon="2.94647">
        <ele>22.092</ele>
        <time>2019-09-17T12:43:54.001Z</time>
      </trkpt>
      <trkpt lat="50.55467" lon="2.9465">
        <ele>21.729</ele>
        <time>2019-09-17T12:43:57.001Z</time>
      </trkpt>
      <trkpt lat="50.55476" lon="2.9465">
        <ele>22.048</ele>
        <time>2019-09-17T12:44:00.000Z</time>
      </trkpt>
      <trkpt lat="50.55485" lon="2.94652">
        <ele>22.357</ele>
        <time>2019-09-17T12:44:03.001Z</time>
      </trkpt>
      <trkpt lat="50.55497" lon="2.94655">
        <ele>22.741</ele>
        <time>2019-09-17T12:44:06.001Z</time>
      </trkpt>
      <trkpt lat="50.55508" lon="2.94659">
        <ele>22.493</ele>
        <time>2019-09-17T12:44:09.001Z</time>
      </trkpt>
      <trkpt lat="50.55517" lon="2.94661">
        <ele>22.691</ele>
        <time>2019-09-17T12:44:12.001Z</time>
      </trkpt>
      <trkpt lat="50.55525" lon="2.94664">
        <ele>23.413</ele>
        <time>2019-09-17T12:44:15.001Z</time>
      </trkpt>
      <trkpt lat="50.5553" lon="2.94668">
        <ele>24.392</ele>
        <time>2019-09-17T12:44:18.001Z</time>
      </trkpt>
      <trkpt lat="50.55537" lon="2.94678">
        <ele>24.693</ele>
        <time>2019-09-17T12:44:21.001Z</time>
      </trkpt>
      <trkpt lat="50.55543" lon="2.94691">
        <ele>24.019</ele>
        <time>2019-09-17T12:44:24.001Z</time>
      </trkpt>
      <trkpt lat="50.55551" lon="2.94707">
        <ele>22.731</ele>
        <time>2019-09-17T12:44:27.001Z</time>
      </trkpt>
      <trkpt lat="50.55557" lon="2.94721">
        <ele>21.744</ele>
        <time>2019-09-17T12:44:30.001Z</time>
      </trkpt>
      <trkpt lat="50.55563" lon="2.94732">
        <ele>21.428</ele>
        <time>2019-09-17T12:44:33.001Z</time>
      </trkpt>
      <trkpt lat="50.55569" lon="2.94744">
        <ele>20.933</ele>
        <time>2019-09-17T12:44:36.001Z</time>
      </trkpt>
      <trkpt lat="50.55576" lon="2.94756">
        <ele>20.699</ele>
        <time>2019-09-17T12:44:39.001Z</time>
      </trkpt>
      <trkpt lat="50.55584" lon="2.94768">
        <ele>20.42</ele>
        <time>2019-09-17T12:44:42.001Z</time>
      </trkpt>
      <trkpt lat="50.55591" lon="2.94783">
        <ele>20.319</ele>
        <time>2019-09-17T12:44:45.001Z</time>
      </trkpt>
      <trkpt lat="50.55597" lon="2.94798">
        <ele>19.566</ele>
        <time>2019-09-17T12:44:48.001Z</time>
      </trkpt>
      <trkpt lat="50.55603" lon="2.94813">
        <ele>18.977</ele>
        <time>2019-09-17T12:44:51.001Z</time>
      </trkpt>
      <trkpt lat="50.5561" lon="2.94827">
        <ele>18.932</ele>
        <time>2019-09-17T12:44:54.001Z</time>
      </trkpt>
      <trkpt lat="50.55617" lon="2.94842">
        <ele>18.612</ele>
        <time>2019-09-17T12:44:57.001Z</time>
      </trkpt>
      <trkpt lat="50.55624" lon="2.94856">
        <ele>18.656</ele>
        <time>2019-09-17T12:45:00.000Z</time>
      </trkpt>
      <trkpt lat="50.55631" lon="2.94871">
        <ele>18.515</ele>
        <time>2019-09-17T12:45:03.001Z</time>
      </trkpt>
      <trkpt lat="50.55638" lon="2.94885">
        <ele>18.564</ele>
        <time>2019-09-17T12:45:06.001Z</time>
      </trkpt>
      <trkpt lat="50.55645" lon="2.94901">
        <ele>18.571</ele>
        <time>2019-09-17T12:45:09.001Z</time>
      </trkpt>
      <trkpt lat="50.55653" lon="2.94917">
        <ele>18.489</ele>
        <time>2019-09-17T12:45:12.001Z</time>
      </trkpt>
      <trkpt lat="50.5566" lon="2.94935">
        <ele>18.2</ele>
        <time>2019-09-17T12:45:15.001Z</time>
      </trkpt>
      <trkpt lat="50.55668" lon="2.94951">
        <ele>17.743</ele>
        <time>2019-09-17T12:45:18.001Z</time>
      </trkpt>
      <trkpt lat="50.55676" lon="2.94968">
        <ele>17.367</ele>
        <time>2019-09-17T12:45:21.001Z</time>
      </trkpt>
      <trkpt lat="50.55684" lon="2.94983">
        <ele>17.828</ele>
        <time>2019-09-17T12:45:24.001Z</time>
      </trkpt>
      <trkpt lat="50.55692" lon="2.94998">
        <ele>17.722</ele>
        <time>2019-09-17T12:45:27.001Z</time>
      </trkpt>
      <trkpt lat="50.55701" lon="2.95012">
        <ele>19.029</ele>
        <time>2019-09-17T12:45:30.001Z</time>
      </trkpt>
      <trkpt lat="50.55708" lon="2.95021">
        <ele>20.359</ele>
        <time>2019-09-17T12:45:33.001Z</time>
      </trkpt>
      <trkpt lat="50.55713" lon="2.95029">
        <ele>20.042</ele>
        <time>2019-09-17T12:45:36.001Z</time>
      </trkpt>
      <trkpt lat="50.55719" lon="2.95039">
        <ele>19.005</ele>
        <time>2019-09-17T12:45:39.001Z</time>
      </trkpt>
      <trkpt lat="50.55725" lon="2.95055">
        <ele>18.69</ele>
        <time>2019-09-17T12:45:42.001Z</time>
      </trkpt>
      <trkpt lat="50.55731" lon="2.95071">
        <ele>17.931</ele>
        <time>2019-09-17T12:45:45.001Z</time>
      </trkpt>
      <trkpt lat="50.55738" lon="2.95088">
        <ele>17.988</ele>
        <time>2019-09-17T12:45:48.001Z</time>
      </trkpt>
      <trkpt lat="50.55746" lon="2.95104">
        <ele>18.198</ele>
        <time>2019-09-17T12:45:51.001Z</time>
      </trkpt>
      <trkpt lat="50.55754" lon="2.95119">
        <ele>17.836</ele>
        <time>2019-09-17T12:45:54.001Z</time>
      </trkpt>
      <trkpt lat="50.55762" lon="2.95134">
        <ele>17.644</ele>
        <time>2019-09-17T12:45:57.001Z</time>
      </trkpt>
      <trkpt lat="50.55769" lon="2.95148">
        <ele>17.777</ele>
        <time>2019-09-17T12:46:00.000Z</time>
      </trkpt>
      <trkpt lat="50.55777" lon="2.95163">
        <ele>17.624</ele>
        <time>2019-09-17T12:46:03.001Z</time>
      </trkpt>
      <trkpt lat="50.55785" lon="2.95177">
        <ele>17.44</ele>
        <time>2019-09-17T12:46:06.001Z</time>
      </trkpt>
      <trkpt lat="50.55793" lon="2.95192">
        <ele>17.33</ele>
        <time>2019-09-17T12:46:09.001Z</time>
      </trkpt>
      <trkpt lat="50.55801" lon="2.95207">
        <ele>17.732</ele>
        <time>2019-09-17T12:46:12.001Z</time>
      </trkpt>
      <trkpt lat="50.5581" lon="2.95222">
        <ele>17.947</ele>
        <time>2019-09-17T12:46:15.001Z</time>
      </trkpt>
      <trkpt lat="50.55818" lon="2.95236">
        <ele>18.38</ele>
        <time>2019-09-17T12:46:18.001Z</time>
      </trkpt>
      <trkpt lat="50.55826" lon="2.95249">
        <ele>18.677</ele>
        <time>2019-09-17T12:46:21.001Z</time>
      </trkpt>
      <trkpt lat="50.55834" lon="2.95261">
        <ele>18.7</ele>
        <time>2019-09-17T12:46:24.001Z</time>
      </trkpt>
      <trkpt lat="50.55842" lon="2.95273">
        <ele>19.069</ele>
        <time>2019-09-17T12:46:27.001Z</time>
      </trkpt>
      <trkpt lat="50.5585" lon="2.95286">
        <ele>19.588</ele>
        <time>2019-09-17T12:46:30.001Z</time>
      </trkpt>
      <trkpt lat="50.55859" lon="2.95297">
        <ele>19.995</ele>
        <time>2019-09-17T12:46:33.001Z</time>
      </trkpt>
      <trkpt lat="50.55867" lon="2.95309">
        <ele>19.685</ele>
        <time>2019-09-17T12:46:36.001Z</time>
      </trkpt>
      <trkpt lat="50.55875" lon="2.9532">
        <ele>19.182</ele>
        <time>2019-09-17T12:46:39.001Z</time>
      </trkpt>
      <trkpt lat="50.55885" lon="2.95333">
        <ele>18.308</ele>
        <time>2019-09-17T12:46:42.001Z</time>
      </trkpt>
      <trkpt lat="50.55893" lon="2.95345">
        <ele>17.496</ele>
        <time>2019-09-17T12:46:45.001Z</time>
      </trkpt>
      <trkpt lat="50.55902" lon="2.95356">
        <ele>17.545</ele>
        <time>2019-09-17T12:46:48.001Z</time>
      </trkpt>
      <trkpt lat="50.5591" lon="2.95368">
        <ele>17.927</ele>
        <time>2019-09-17T12:46:51.001Z</time>
      </trkpt>
      <trkpt lat="50.55919" lon="2.95379">
        <ele>18.508</ele>
        <time>2019-09-17T12:46:54.001Z</time>
      </trkpt>
      <trkpt lat="50.55928" lon="2.9539">
        <ele>18.861</ele>
        <time>2019-09-17T12:46:57.001Z</time>
      </trkpt>
      <trkpt lat="50.55937" lon="2.95402">
        <ele>18.974</ele>
        <time>2019-09-17T12:47:00.000Z</time>
      </trkpt>
      <trkpt lat="50.55947" lon="2.95413">
        <ele>19.482</ele>
        <time>2019-09-17T12:47:03.001Z</time>
      </trkpt>
      <trkpt lat="50.55957" lon="2.95423">
        <ele>19.816</ele>
        <time>2019-09-17T12:47:06.001Z</time>
      </trkpt>
      <trkpt lat="50.55967" lon="2.95433">
        <ele>20.033</ele>
        <time>2019-09-17T12:47:09.001Z</time>
      </trkpt>
      <trkpt lat="50.55977" lon="2.95443">
        <ele>20.417</ele>
        <time>2019-09-17T12:47:12.001Z</time>
      </trkpt>
      <trkpt lat="50.55985" lon="2.95451">
        <ele>20.909</ele>
        <time>2019-09-17T12:47:15.001Z</time>
      </trkpt>
      <trkpt lat="50.55994" lon="2.95461">
        <ele>21.175</ele>
        <time>2019-09-17T12:47:18.001Z</time>
      </trkpt>
      <trkpt lat="50.56004" lon="2.95471">
        <ele>21.156</ele>
        <time>2019-09-17T12:47:21.001Z</time>
      </trkpt>
      <trkpt lat="50.56014" lon="2.95479">
        <ele>21.131</ele>
        <time>2019-09-17T12:47:24.001Z</time>
      </trkpt>
      <trkpt lat="50.56024" lon="2.95487">
        <ele>21.042</ele>
        <time>2019-09-17T12:47:27.001Z</time>
      </trkpt>
      <trkpt lat="50.56034" lon="2.95496">
        <ele>20.766</ele>
        <time>2019-09-17T12:47:30.001Z</time>
      </trkpt>
      <trkpt lat="50.56044" lon="2.95505">
        <ele>21.019</ele>
        <time>2019-09-17T12:47:33.001Z</time>
      </trkpt>
      <trkpt lat="50.56054" lon="2.95515">
        <ele>21.496</ele>
        <time>2019-09-17T12:47:36.001Z</time>
      </trkpt>
      <trkpt lat="50.56065" lon="2.95523">
        <ele>22.072</ele>
        <time>2019-09-17T12:47:39.001Z</time>
      </trkpt>
      <trkpt lat="50.56075" lon="2.95533">
        <ele>21.463</ele>
        <time>2019-09-17T12:47:42.001Z</time>
      </trkpt>
      <trkpt lat="50.56085" lon="2.95541">
        <ele>21.313</ele>
        <time>2019-09-17T12:47:45.001Z</time>
      </trkpt>
      <trkpt lat="50.56095" lon="2.95549">
        <ele>21.365</ele>
        <time>2019-09-17T12:47:48.001Z</time>
      </trkpt>
      <trkpt lat="50.56105" lon="2.95559">
        <ele>20.964</ele>
        <time>2019-09-17T12:47:51.001Z</time>
      </trkpt>
      <trkpt lat="50.56115" lon="2.95567">
        <ele>20.881</ele>
        <time>2019-09-17T12:47:54.001Z</time>
      </trkpt>
      <trkpt lat="50.56127" lon="2.95578">
        <ele>20.084</ele>
        <time>2019-09-17T12:47:57.001Z</time>
      </trkpt>
      <trkpt lat="50.56137" lon="2.95589">
        <ele>19.096</ele>
        <time>2019-09-17T12:48:00.000Z</time>
      </trkpt>
      <trkpt lat="50.56148" lon="2.95599">
        <ele>18.789</ele>
        <time>2019-09-17T12:48:03.001Z</time>
      </trkpt>
      <trkpt lat="50.56159" lon="2.95608">
        <ele>18.273</ele>
        <time>2019-09-17T12:48:06.001Z</time>
      </trkpt>
      <trkpt lat="50.56169" lon="2.95617">
        <ele>18.144</ele>
        <time>2019-09-17T12:48:09.001Z</time>
      </trkpt>
      <trkpt lat="50.56179" lon="2.95625">
        <ele>17.47</ele>
        <time>2019-09-17T12:48:12.001Z</time>
      </trkpt>
      <trkpt lat="50.56189" lon="2.95634">
        <ele>16.921</ele>
        <time>2019-09-17T12:48:15.001Z</time>
      </trkpt>
      <trkpt lat="50.56198" lon="2.95644">
        <ele>16.534</ele>
        <time>2019-09-17T12:48:18.001Z</time>
      </trkpt>
      <trkpt lat="50.56207" lon="2.95654">
        <ele>16.397</ele>
        <time>2019-09-17T12:48:21.001Z</time>
      </trkpt>
      <trkpt lat="50.56217" lon="2.95663">
        <ele>16.536</ele>
        <time>2019-09-17T12:48:24.001Z</time>
      </trkpt>
      <trkpt lat="50.56227" lon="2.95673">
        <ele>17.366</ele>
        <time>2019-09-17T12:48:27.001Z</time>
      </trkpt>
      <trkpt lat="50.56237" lon="2.95684">
        <ele>17.838</ele>
        <time>2019-09-17T12:48:30.001Z</time>
      </trkpt>
      <trkpt lat="50.56247" lon="2.95694">
        <ele>18.107</ele>
        <time>2019-09-17T12:48:33.001Z</time>
      </trkpt>
      <trkpt lat="50.56256" lon="2.95703">
        <ele>18.437</ele>
        <time>2019-09-17T12:48:36.001Z</time>
      </trkpt>
      <trkpt lat="50.56265" lon="2.95712">
        <ele>18.648</ele>
        <time>2019-09-17T12:48:39.001Z</time>
      </trkpt>
      <trkpt lat="50.56275" lon="2.95723">
        <ele>18.722</ele>
        <time>2019-09-17T12:48:42.001Z</time>
      </trkpt>
      <trkpt lat="50.56285" lon="2.95735">
        <ele>18.851</ele>
        <time>2019-09-17T12:48:45.001Z</time>
      </trkpt>
      <trkpt lat="50.56295" lon="2.95746">
        <ele>18.812</ele>
        <time>2019-09-17T12:48:48.001Z</time>
      </trkpt>
      <trkpt lat="50.56305" lon="2.95757">
        <ele>19.127</ele>
        <time>2019-09-17T12:48:51.001Z</time>
      </trkpt>
      <trkpt lat="50.56314" lon="2.95768">
        <ele>19.065</ele>
        <time>2019-09-17T12:48:54.001Z</time>
      </trkpt>
      <trkpt lat="50.56323" lon="2.95778">
        <ele>19.007</ele>
        <time>2019-09-17T12:48:57.001Z</time>
      </trkpt>
      <trkpt lat="50.56332" lon="2.95791">
        <ele>18.672</ele>
        <time>2019-09-17T12:49:00.000Z</time>
      </trkpt>
      <trkpt lat="50.56342" lon="2.95803">
        <ele>18.685</ele>
        <time>2019-09-17T12:49:03.001Z</time>
      </trkpt>
      <trkpt lat="50.56352" lon="2.95815">
        <ele>18.817</ele>
        <time>2019-09-17T12:49:06.001Z</time>
      </trkpt>
      <trkpt lat="50.56362" lon="2.95827">
        <ele>19.127</ele>
        <time>2019-09-17T12:49:09.001Z</time>
      </trkpt>
      <trkpt lat="50.56371" lon="2.9584">
        <ele>19.157</ele>
        <time>2019-09-17T12:49:12.001Z</time>
      </trkpt>
      <trkpt lat="50.56381" lon="2.95853">
        <ele>18.98</ele>
        <time>2019-09-17T12:49:15.001Z</time>
      </trkpt>
      <trkpt lat="50.56391" lon="2.95865">
        <ele>18.827</ele>
        <time>2019-09-17T12:49:18.001Z</time>
      </trkpt>
      <trkpt lat="50.564" lon="2.95878">
        <ele>18.137</ele>
        <time>2019-09-17T12:49:21.001Z</time>
      </trkpt>
      <trkpt lat="50.56409" lon="2.95891">
        <ele>17.81</ele>
        <time>2019-09-17T12:49:24.001Z</time>
      </trkpt>
      <trkpt lat="50.56417" lon="2.95903">
        <ele>17.741</ele>
        <time>2019-09-17T12:49:27.001Z</time>
      </trkpt>
      <trkpt lat="50.56427" lon="2.95917">
        <ele>18.202</ele>
        <time>2019-09-17T12:49:30.001Z</time>
      </trkpt>
      <trkpt lat="50.56436" lon="2.95931">
        <ele>18.074</ele>
        <time>2019-09-17T12:49:33.001Z</time>
      </trkpt>
      <trkpt lat="50.56445" lon="2.95944">
        <ele>18.376</ele>
        <time>2019-09-17T12:49:36.001Z</time>
      </trkpt>
      <trkpt lat="50.56454" lon="2.95957">
        <ele>18.836</ele>
        <time>2019-09-17T12:49:39.001Z</time>
      </trkpt>
      <trkpt lat="50.56463" lon="2.9597">
        <ele>19.404</ele>
        <time>2019-09-17T12:49:42.001Z</time>
      </trkpt>
      <trkpt lat="50.56472" lon="2.95983">
        <ele>19.964</ele>
        <time>2019-09-17T12:49:45.001Z</time>
      </trkpt>
      <trkpt lat="50.56481" lon="2.95996">
        <ele>20.41</ele>
        <time>2019-09-17T12:49:48.001Z</time>
      </trkpt>
      <trkpt lat="50.5649" lon="2.96009">
        <ele>20.126</ele>
        <time>2019-09-17T12:49:51.001Z</time>
      </trkpt>
      <trkpt lat="50.56498" lon="2.96023">
        <ele>19.696</ele>
        <time>2019-09-17T12:49:54.001Z</time>
      </trkpt>
      <trkpt lat="50.56506" lon="2.96039">
        <ele>19.334</ele>
        <time>2019-09-17T12:49:57.001Z</time>
      </trkpt>
      <trkpt lat="50.56515" lon="2.96054">
        <ele>19.424</ele>
        <time>2019-09-17T12:50:00.000Z</time>
      </trkpt>
      <trkpt lat="50.56525" lon="2.9607">
        <ele>18.555</ele>
        <time>2019-09-17T12:50:03.001Z</time>
      </trkpt>
      <trkpt lat="50.56533" lon="2.96084">
        <ele>18.178</ele>
        <time>2019-09-17T12:50:06.001Z</time>
      </trkpt>
      <trkpt lat="50.56542" lon="2.961">
        <ele>17.46</ele>
        <time>2019-09-17T12:50:09.001Z</time>
      </trkpt>
      <trkpt lat="50.56552" lon="2.96115">
        <ele>16.789</ele>
        <time>2019-09-17T12:50:12.001Z</time>
      </trkpt>
      <trkpt lat="50.56561" lon="2.96129">
        <ele>17.702</ele>
        <time>2019-09-17T12:50:15.001Z</time>
      </trkpt>
      <trkpt lat="50.56568" lon="2.96143">
        <ele>18.125</ele>
        <time>2019-09-17T12:50:18.001Z</time>
      </trkpt>
      <trkpt lat="50.56574" lon="2.96155">
        <ele>18.432</ele>
        <time>2019-09-17T12:50:21.001Z</time>
      </trkpt>
      <trkpt lat="50.56582" lon="2.96167">
        <ele>18.273</ele>
        <time>2019-09-17T12:50:24.001Z</time>
      </trkpt>
      <trkpt lat="50.56592" lon="2.96181">
        <ele>18.225</ele>
        <time>2019-09-17T12:50:27.001Z</time>
      </trkpt>
      <trkpt lat="50.56602" lon="2.96195">
        <ele>18.268</ele>
        <time>2019-09-17T12:50:30.001Z</time>
      </trkpt>
      <trkpt lat="50.5661" lon="2.96209">
        <ele>18.416</ele>
        <time>2019-09-17T12:50:33.001Z</time>
      </trkpt>
      <trkpt lat="50.56618" lon="2.96221">
        <ele>18.875</ele>
        <time>2019-09-17T12:50:36.001Z</time>
      </trkpt>
      <trkpt lat="50.56626" lon="2.96236">
        <ele>19.267</ele>
        <time>2019-09-17T12:50:39.001Z</time>
      </trkpt>
      <trkpt lat="50.56635" lon="2.9625">
        <ele>19.241</ele>
        <time>2019-09-17T12:50:42.001Z</time>
      </trkpt>
      <trkpt lat="50.56646" lon="2.96265">
        <ele>19.214</ele>
        <time>2019-09-17T12:50:45.001Z</time>
      </trkpt>
      <trkpt lat="50.56656" lon="2.9628">
        <ele>19.652</ele>
        <time>2019-09-17T12:50:48.001Z</time>
      </trkpt>
      <trkpt lat="50.56665" lon="2.96294">
        <ele>19.6</ele>
        <time>2019-09-17T12:50:51.001Z</time>
      </trkpt>
      <trkpt lat="50.56673" lon="2.9631">
        <ele>19.667</ele>
        <time>2019-09-17T12:50:54.001Z</time>
      </trkpt>
      <trkpt lat="50.56682" lon="2.96324">
        <ele>19.458</ele>
        <time>2019-09-17T12:50:57.001Z</time>
      </trkpt>
      <trkpt lat="50.56691" lon="2.96338">
        <ele>19.087</ele>
        <time>2019-09-17T12:51:00.000Z</time>
      </trkpt>
      <trkpt lat="50.567" lon="2.96352">
        <ele>19.011</ele>
        <time>2019-09-17T12:51:03.001Z</time>
      </trkpt>
      <trkpt lat="50.5671" lon="2.96366">
        <ele>18.867</ele>
        <time>2019-09-17T12:51:06.001Z</time>
      </trkpt>
      <trkpt lat="50.56719" lon="2.9638">
        <ele>19.141</ele>
        <time>2019-09-17T12:51:09.001Z</time>
      </trkpt>
      <trkpt lat="50.56727" lon="2.96394">
        <ele>19.35</ele>
        <time>2019-09-17T12:51:12.001Z</time>
      </trkpt>
      <trkpt lat="50.56736" lon="2.96408">
        <ele>19.521</ele>
        <time>2019-09-17T12:51:15.001Z</time>
      </trkpt>
      <trkpt lat="50.56744" lon="2.9642">
        <ele>19.495</ele>
        <time>2019-09-17T12:51:18.001Z</time>
      </trkpt>
      <trkpt lat="50.56752" lon="2.96432">
        <ele>19.838</ele>
        <time>2019-09-17T12:51:21.001Z</time>
      </trkpt>
      <trkpt lat="50.56761" lon="2.96446">
        <ele>20.063</ele>
        <time>2019-09-17T12:51:24.001Z</time>
      </trkpt>
      <trkpt lat="50.5677" lon="2.9646">
        <ele>20.199</ele>
        <time>2019-09-17T12:51:27.001Z</time>
      </trkpt>
      <trkpt lat="50.56779" lon="2.96474">
        <ele>19.927</ele>
        <time>2019-09-17T12:51:30.001Z</time>
      </trkpt>
      <trkpt lat="50.56789" lon="2.96486">
        <ele>19.935</ele>
        <time>2019-09-17T12:51:33.001Z</time>
      </trkpt>
      <trkpt lat="50.56797" lon="2.96498">
        <ele>19.368</ele>
        <time>2019-09-17T12:51:36.001Z</time>
      </trkpt>
      <trkpt lat="50.56806" lon="2.96511">
        <ele>19.092</ele>
        <time>2019-09-17T12:51:39.001Z</time>
      </trkpt>
      <trkpt lat="50.56815" lon="2.96522">
        <ele>19.235</ele>
        <time>2019-09-17T12:51:42.001Z</time>
      </trkpt>
      <trkpt lat="50.56824" lon="2.96534">
        <ele>19.477</ele>
        <time>2019-09-17T12:51:45.001Z</time>
      </trkpt>
      <trkpt lat="50.56833" lon="2.96546">
        <ele>19.608</ele>
        <time>2019-09-17T12:51:48.001Z</time>
      </trkpt>
      <trkpt lat="50.56841" lon="2.96558">
        <ele>19.461</ele>
        <time>2019-09-17T12:51:51.001Z</time>
      </trkpt>
      <trkpt lat="50.56849" lon="2.96569">
        <ele>19.419</ele>
        <time>2019-09-17T12:51:54.001Z</time>
      </trkpt>
      <trkpt lat="50.56858" lon="2.96579">
        <ele>19.388</ele>
        <time>2019-09-17T12:51:57.001Z</time>
      </trkpt>
      <trkpt lat="50.56865" lon="2.96591">
        <ele>18.963</ele>
        <time>2019-09-17T12:52:00.000Z</time>
      </trkpt>
      <trkpt lat="50.56872" lon="2.96601">
        <ele>18.973</ele>
        <time>2019-09-17T12:52:03.001Z</time>
      </trkpt>
      <trkpt lat="50.56881" lon="2.96609">
        <ele>18.85</ele>
        <time>2019-09-17T12:52:06.001Z</time>
      </trkpt>
      <trkpt lat="50.56888" lon="2.96617">
        <ele>19.633</ele>
        <time>2019-09-17T12:52:09.001Z</time>
      </trkpt>
      <trkpt lat="50.56893" lon="2.96623">
        <ele>19.761</ele>
        <time>2019-09-17T12:52:12.001Z</time>
      </trkpt>
      <trkpt lat="50.569" lon="2.96629">
        <ele>19.756</ele>
        <time>2019-09-17T12:52:15.001Z</time>
      </trkpt>
      <trkpt lat="50.56907" lon="2.96635">
        <ele>19.992</ele>
        <time>2019-09-17T12:52:18.001Z</time>
      </trkpt>
      <trkpt lat="50.56913" lon="2.96639">
        <ele>20.367</ele>
        <time>2019-09-17T12:52:21.001Z</time>
      </trkpt>
      <trkpt lat="50.56919" lon="2.96642">
        <ele>21.693</ele>
        <time>2019-09-17T12:52:24.001Z</time>
      </trkpt>
      <trkpt lat="50.56924" lon="2.96647">
        <ele>21.547</ele>
        <time>2019-09-17T12:52:27.001Z</time>
      </trkpt>
      <trkpt lat="50.5693" lon="2.96657">
        <ele>20.591</ele>
        <time>2019-09-17T12:52:30.001Z</time>
      </trkpt>
      <trkpt lat="50.56937" lon="2.96667">
        <ele>18.406</ele>
        <time>2019-09-17T12:52:33.001Z</time>
      </trkpt>
      <trkpt lat="50.56942" lon="2.96676">
        <ele>18.032</ele>
        <time>2019-09-17T12:52:36.001Z</time>
      </trkpt>
      <trkpt lat="50.56948" lon="2.96689">
        <ele>19.133</ele>
        <time>2019-09-17T12:52:39.001Z</time>
      </trkpt>
      <trkpt lat="50.56954" lon="2.96702">
        <ele>19.319</ele>
        <time>2019-09-17T12:52:42.001Z</time>
      </trkpt>
      <trkpt lat="50.5696" lon="2.96711">
        <ele>19.023</ele>
        <time>2019-09-17T12:52:45.001Z</time>
      </trkpt>
      <trkpt lat="50.56967" lon="2.9672">
        <ele>19.069</ele>
        <time>2019-09-17T12:52:48.001Z</time>
      </trkpt>
      <trkpt lat="50.5697" lon="2.96734">
        <ele>19.252</ele>
        <time>2019-09-17T12:52:51.001Z</time>
      </trkpt>
      <trkpt lat="50.56968" lon="2.96752">
        <ele>18.933</ele>
        <time>2019-09-17T12:52:54.001Z</time>
      </trkpt>
      <trkpt lat="50.56967" lon="2.96769">
        <ele>18.417</ele>
        <time>2019-09-17T12:52:57.001Z</time>
      </trkpt>
      <trkpt lat="50.56965" lon="2.96785">
        <ele>18.468</ele>
        <time>2019-09-17T12:53:00.000Z</time>
      </trkpt>
      <trkpt lat="50.56964" lon="2.96802">
        <ele>18.485</ele>
        <time>2019-09-17T12:53:03.001Z</time>
      </trkpt>
      <trkpt lat="50.56962" lon="2.96818">
        <ele>18.705</ele>
        <time>2019-09-17T12:53:06.001Z</time>
      </trkpt>
      <trkpt lat="50.5696" lon="2.96835">
        <ele>18.56</ele>
        <time>2019-09-17T12:53:09.001Z</time>
      </trkpt>
      <trkpt lat="50.56959" lon="2.96853">
        <ele>19.166</ele>
        <time>2019-09-17T12:53:12.001Z</time>
      </trkpt>
      <trkpt lat="50.56958" lon="2.96868">
        <ele>19.983</ele>
        <time>2019-09-17T12:53:15.001Z</time>
      </trkpt>
      <trkpt lat="50.56956" lon="2.96884">
        <ele>20.914</ele>
        <time>2019-09-17T12:53:18.001Z</time>
      </trkpt>
      <trkpt lat="50.56953" lon="2.969">
        <ele>21.748</ele>
        <time>2019-09-17T12:53:21.001Z</time>
      </trkpt>
      <trkpt lat="50.56951" lon="2.96916">
        <ele>21.656</ele>
        <time>2019-09-17T12:53:24.001Z</time>
      </trkpt>
      <trkpt lat="50.5695" lon="2.96933">
        <ele>21.671</ele>
        <time>2019-09-17T12:53:27.001Z</time>
      </trkpt>
      <trkpt lat="50.5695" lon="2.96951">
        <ele>21.466</ele>
        <time>2019-09-17T12:53:30.001Z</time>
      </trkpt>
      <trkpt lat="50.5695" lon="2.96966">
        <ele>21.827</ele>
        <time>2019-09-17T12:53:33.001Z</time>
      </trkpt>
      <trkpt lat="50.56949" lon="2.96983">
        <ele>22.516</ele>
        <time>2019-09-17T12:53:36.001Z</time>
      </trkpt>
      <trkpt lat="50.56948" lon="2.97001">
        <ele>22.881</ele>
        <time>2019-09-17T12:53:39.001Z</time>
      </trkpt>
      <trkpt lat="50.56947" lon="2.97019">
        <ele>23.161</ele>
        <time>2019-09-17T12:53:42.001Z</time>
      </trkpt>
      <trkpt lat="50.56947" lon="2.97038">
        <ele>23.343</ele>
        <time>2019-09-17T12:53:45.001Z</time>
      </trkpt>
      <trkpt lat="50.56948" lon="2.9706">
        <ele>22.444</ele>
        <time>2019-09-17T12:53:48.001Z</time>
      </trkpt>
      <trkpt lat="50.56951" lon="2.97083">
        <ele>21.924</ele>
        <time>2019-09-17T12:53:51.001Z</time>
      </trkpt>
      <trkpt lat="50.56951" lon="2.97107">
        <ele>21.99</ele>
        <time>2019-09-17T12:53:54.001Z</time>
      </trkpt>
      <trkpt lat="50.56952" lon="2.97128">
        <ele>23.967</ele>
        <time>2019-09-17T12:53:57.001Z</time>
      </trkpt>
      <trkpt lat="50.56951" lon="2.97151">
        <ele>23.144</ele>
        <time>2019-09-17T12:54:00.000Z</time>
      </trkpt>
      <trkpt lat="50.56949" lon="2.97174">
        <ele>22.157</ele>
        <time>2019-09-17T12:54:03.001Z</time>
      </trkpt>
      <trkpt lat="50.56948" lon="2.97198">
        <ele>21.199</ele>
        <time>2019-09-17T12:54:06.001Z</time>
      </trkpt>
      <trkpt lat="50.56946" lon="2.97221">
        <ele>20.155</ele>
        <time>2019-09-17T12:54:09.001Z</time>
      </trkpt>
      <trkpt lat="50.56945" lon="2.97244">
        <ele>19.205</ele>
        <time>2019-09-17T12:54:12.001Z</time>
      </trkpt>
      <trkpt lat="50.56945" lon="2.97266">
        <ele>18.809</ele>
        <time>2019-09-17T12:54:15.001Z</time>
      </trkpt>
      <trkpt lat="50.56945" lon="2.97288">
        <ele>18.33</ele>
        <time>2019-09-17T12:54:18.001Z</time>
      </trkpt>
      <trkpt lat="50.56944" lon="2.9731">
        <ele>18.345</ele>
        <time>2019-09-17T12:54:21.001Z</time>
      </trkpt>
      <trkpt lat="50.56944" lon="2.97329">
        <ele>18.203</ele>
        <time>2019-09-17T12:54:24.001Z</time>
      </trkpt>
      <trkpt lat="50.56943" lon="2.97348">
        <ele>18.236</ele>
        <time>2019-09-17T12:54:27.001Z</time>
      </trkpt>
      <trkpt lat="50.56943" lon="2.97365">
        <ele>18.234</ele>
        <time>2019-09-17T12:54:30.001Z</time>
      </trkpt>
      <trkpt lat="50.56943" lon="2.97382">
        <ele>18.369</ele>
        <time>2019-09-17T12:54:33.001Z</time>
      </trkpt>
      <trkpt lat="50.56942" lon="2.974">
        <ele>18.594</ele>
        <time>2019-09-17T12:54:36.001Z</time>
      </trkpt>
      <trkpt lat="50.56941" lon="2.97418">
        <ele>18.76</ele>
        <time>2019-09-17T12:54:39.001Z</time>
      </trkpt>
      <trkpt lat="50.56941" lon="2.97435">
        <ele>18.77</ele>
        <time>2019-09-17T12:54:42.001Z</time>
      </trkpt>
      <trkpt lat="50.56941" lon="2.97453">
        <ele>18.563</ele>
        <time>2019-09-17T12:54:45.001Z</time>
      </trkpt>
      <trkpt lat="50.56942" lon="2.9747">
        <ele>18.649</ele>
        <time>2019-09-17T12:54:48.001Z</time>
      </trkpt>
      <trkpt lat="50.56943" lon="2.97485">
        <ele>18.836</ele>
        <time>2019-09-17T12:54:51.001Z</time>
      </trkpt>
      <trkpt lat="50.56943" lon="2.97499">
        <ele>19.632</ele>
        <time>2019-09-17T12:54:54.001Z</time>
      </trkpt>
      <trkpt lat="50.56943" lon="2.97516">
        <ele>21.014</ele>
        <time>2019-09-17T12:54:57.001Z</time>
      </trkpt>
      <trkpt lat="50.56944" lon="2.97537">
        <ele>21.985</ele>
        <time>2019-09-17T12:55:00.000Z</time>
      </trkpt>
      <trkpt lat="50.56947" lon="2.97562">
        <ele>22.462</ele>
        <time>2019-09-17T12:55:03.001Z</time>
      </trkpt>
      <trkpt lat="50.5695" lon="2.97587">
        <ele>22.361</ele>
        <time>2019-09-17T12:55:06.001Z</time>
      </trkpt>
      <trkpt lat="50.56953" lon="2.97614">
        <ele>22.048</ele>
        <time>2019-09-17T12:55:09.001Z</time>
      </trkpt>
      <trkpt lat="50.56956" lon="2.97642">
        <ele>21.758</ele>
        <time>2019-09-17T12:55:12.001Z</time>
      </trkpt>
      <trkpt lat="50.5696" lon="2.97671">
        <ele>21.181</ele>
        <time>2019-09-17T12:55:15.001Z</time>
      </trkpt>
      <trkpt lat="50.56963" lon="2.97701">
        <ele>20.553</ele>
        <time>2019-09-17T12:55:18.001Z</time>
      </trkpt>
      <trkpt lat="50.56967" lon="2.97732">
        <ele>20.006</ele>
        <time>2019-09-17T12:55:21.001Z</time>
      </trkpt>
      <trkpt lat="50.5697" lon="2.97763">
        <ele>19.581</ele>
        <time>2019-09-17T12:55:24.001Z</time>
      </trkpt>
      <trkpt lat="50.56973" lon="2.97794">
        <ele>18.963</ele>
        <time>2019-09-17T12:55:27.001Z</time>
      </trkpt>
      <trkpt lat="50.56977" lon="2.97822">
        <ele>18.638</ele>
        <time>2019-09-17T12:55:30.001Z</time>
      </trkpt>
      <trkpt lat="50.56982" lon="2.97848">
        <ele>18.06</ele>
        <time>2019-09-17T12:55:33.001Z</time>
      </trkpt>
      <trkpt lat="50.56989" lon="2.97874">
        <ele>17.582</ele>
        <time>2019-09-17T12:55:36.001Z</time>
      </trkpt>
      <trkpt lat="50.56997" lon="2.97897">
        <ele>17.631</ele>
        <time>2019-09-17T12:55:39.001Z</time>
      </trkpt>
      <trkpt lat="50.57007" lon="2.97917">
        <ele>17.655</ele>
        <time>2019-09-17T12:55:42.001Z</time>
      </trkpt>
      <trkpt lat="50.57018" lon="2.97934">
        <ele>17.494</ele>
        <time>2019-09-17T12:55:45.001Z</time>
      </trkpt>
      <trkpt lat="50.57029" lon="2.97951">
        <ele>17.583</ele>
        <time>2019-09-17T12:55:48.001Z</time>
      </trkpt>
      <trkpt lat="50.5704" lon="2.97967">
        <ele>17.578</ele>
        <time>2019-09-17T12:55:51.001Z</time>
      </trkpt>
      <trkpt lat="50.57051" lon="2.97983">
        <ele>17.492</ele>
        <time>2019-09-17T12:55:54.001Z</time>
      </trkpt>
      <trkpt lat="50.57061" lon="2.97996">
        <ele>17.756</ele>
        <time>2019-09-17T12:55:57.001Z</time>
      </trkpt>
      <trkpt lat="50.57071" lon="2.98008">
        <ele>18.074</ele>
        <time>2019-09-17T12:56:00.000Z</time>
      </trkpt>
      <trkpt lat="50.5708" lon="2.9802">
        <ele>18.196</ele>
        <time>2019-09-17T12:56:03.001Z</time>
      </trkpt>
      <trkpt lat="50.57087" lon="2.98033">
        <ele>18.964</ele>
        <time>2019-09-17T12:56:06.001Z</time>
      </trkpt>
      <trkpt lat="50.57095" lon="2.98047">
        <ele>19.543</ele>
        <time>2019-09-17T12:56:09.001Z</time>
      </trkpt>
      <trkpt lat="50.57104" lon="2.98061">
        <ele>20.236</ele>
        <time>2019-09-17T12:56:12.001Z</time>
      </trkpt>
      <trkpt lat="50.57114" lon="2.98076">
        <ele>21.684</ele>
        <time>2019-09-17T12:56:15.001Z</time>
      </trkpt>
      <trkpt lat="50.57124" lon="2.98091">
        <ele>21.883</ele>
        <time>2019-09-17T12:56:18.001Z</time>
      </trkpt>
      <trkpt lat="50.57132" lon="2.98106">
        <ele>22.954</ele>
        <time>2019-09-17T12:56:21.001Z</time>
      </trkpt>
      <trkpt lat="50.57142" lon="2.98121">
        <ele>23.44</ele>
        <time>2019-09-17T12:56:24.001Z</time>
      </trkpt>
      <trkpt lat="50.57152" lon="2.98135">
        <ele>24.081</ele>
        <time>2019-09-17T12:56:27.001Z</time>
      </trkpt>
      <trkpt lat="50.57162" lon="2.98151">
        <ele>24.676</ele>
        <time>2019-09-17T12:56:30.001Z</time>
      </trkpt>
      <trkpt lat="50.57172" lon="2.98164">
        <ele>24.576</ele>
        <time>2019-09-17T12:56:33.001Z</time>
      </trkpt>
      <trkpt lat="50.57183" lon="2.9818">
        <ele>24.518</ele>
        <time>2019-09-17T12:56:36.001Z</time>
      </trkpt>
      <trkpt lat="50.57195" lon="2.98196">
        <ele>24.556</ele>
        <time>2019-09-17T12:56:39.001Z</time>
      </trkpt>
      <trkpt lat="50.57205" lon="2.98214">
        <ele>24.705</ele>
        <time>2019-09-17T12:56:42.001Z</time>
      </trkpt>
      <trkpt lat="50.57213" lon="2.98231">
        <ele>25.234</ele>
        <time>2019-09-17T12:56:45.001Z</time>
      </trkpt>
      <trkpt lat="50.57219" lon="2.98249">
        <ele>25.191</ele>
        <time>2019-09-17T12:56:48.001Z</time>
      </trkpt>
      <trkpt lat="50.57226" lon="2.98266">
        <ele>26.002</ele>
        <time>2019-09-17T12:56:51.001Z</time>
      </trkpt>
      <trkpt lat="50.57234" lon="2.98282">
        <ele>27.456</ele>
        <time>2019-09-17T12:56:54.001Z</time>
      </trkpt>
      <trkpt lat="50.57245" lon="2.98299">
        <ele>26.978</ele>
        <time>2019-09-17T12:56:57.001Z</time>
      </trkpt>
      <trkpt lat="50.57256" lon="2.98319">
        <ele>25.633</ele>
        <time>2019-09-17T12:57:00.000Z</time>
      </trkpt>
      <trkpt lat="50.57263" lon="2.98339">
        <ele>24.832</ele>
        <time>2019-09-17T12:57:03.001Z</time>
      </trkpt>
      <trkpt lat="50.5726" lon="2.9836">
        <ele>24.803</ele>
        <time>2019-09-17T12:57:06.001Z</time>
      </trkpt>
      <trkpt lat="50.57254" lon="2.98376">
        <ele>25.861</ele>
        <time>2019-09-17T12:57:09.001Z</time>
      </trkpt>
      <trkpt lat="50.5725" lon="2.98394">
        <ele>27.582</ele>
        <time>2019-09-17T12:57:12.001Z</time>
      </trkpt>
      <trkpt lat="50.57245" lon="2.98413">
        <ele>28.445</ele>
        <time>2019-09-17T12:57:15.001Z</time>
      </trkpt>
      <trkpt lat="50.57243" lon="2.98435">
        <ele>28.802</ele>
        <time>2019-09-17T12:57:18.001Z</time>
      </trkpt>
      <trkpt lat="50.57253" lon="2.98457">
        <ele>27.429</ele>
        <time>2019-09-17T12:57:21.001Z</time>
      </trkpt>
      <trkpt lat="50.57265" lon="2.98473">
        <ele>25.165</ele>
        <time>2019-09-17T12:57:24.001Z</time>
      </trkpt>
      <trkpt lat="50.57275" lon="2.98487">
        <ele>23.608</ele>
        <time>2019-09-17T12:57:27.001Z</time>
      </trkpt>
      <trkpt lat="50.57285" lon="2.985">
        <ele>22.585</ele>
        <time>2019-09-17T12:57:30.001Z</time>
      </trkpt>
      <trkpt lat="50.57296" lon="2.98512">
        <ele>23.044</ele>
        <time>2019-09-17T12:57:33.001Z</time>
      </trkpt>
      <trkpt lat="50.57304" lon="2.98525">
        <ele>23.095</ele>
        <time>2019-09-17T12:57:36.001Z</time>
      </trkpt>
      <trkpt lat="50.57313" lon="2.98539">
        <ele>23.03</ele>
        <time>2019-09-17T12:57:39.001Z</time>
      </trkpt>
      <trkpt lat="50.57322" lon="2.98555">
        <ele>22.222</ele>
        <time>2019-09-17T12:57:42.001Z</time>
      </trkpt>
      <trkpt lat="50.57332" lon="2.9857">
        <ele>21.777</ele>
        <time>2019-09-17T12:57:45.001Z</time>
      </trkpt>
      <trkpt lat="50.57339" lon="2.98588">
        <ele>22.173</ele>
        <time>2019-09-17T12:57:48.001Z</time>
      </trkpt>
      <trkpt lat="50.5735" lon="2.98604">
        <ele>22.543</ele>
        <time>2019-09-17T12:57:51.001Z</time>
      </trkpt>
      <trkpt lat="50.57359" lon="2.9862">
        <ele>22.347</ele>
        <time>2019-09-17T12:57:54.001Z</time>
      </trkpt>
      <trkpt lat="50.57368" lon="2.98634">
        <ele>21.635</ele>
        <time>2019-09-17T12:57:57.001Z</time>
      </trkpt>
      <trkpt lat="50.5738" lon="2.98648">
        <ele>22.175</ele>
        <time>2019-09-17T12:58:00.000Z</time>
      </trkpt>
      <trkpt lat="50.57394" lon="2.98656">
        <ele>23.487</ele>
        <time>2019-09-17T12:58:03.001Z</time>
      </trkpt>
      <trkpt lat="50.57406" lon="2.98666">
        <ele>24.663</ele>
        <time>2019-09-17T12:58:06.001Z</time>
      </trkpt>
      <trkpt lat="50.57417" lon="2.98679">
        <ele>25.436</ele>
        <time>2019-09-17T12:58:09.001Z</time>
      </trkpt>
      <trkpt lat="50.57422" lon="2.98704">
        <ele>24.728</ele>
        <time>2019-09-17T12:58:12.001Z</time>
      </trkpt>
      <trkpt lat="50.57425" lon="2.98727">
        <ele>24.353</ele>
        <time>2019-09-17T12:58:15.001Z</time>
      </trkpt>
      <trkpt lat="50.57428" lon="2.9875">
        <ele>24.135</ele>
        <time>2019-09-17T12:58:18.001Z</time>
      </trkpt>
      <trkpt lat="50.57427" lon="2.9877">
        <ele>23.153</ele>
        <time>2019-09-17T12:58:21.001Z</time>
      </trkpt>
      <trkpt lat="50.57424" lon="2.9879">
        <ele>21.979</ele>
        <time>2019-09-17T12:58:24.001Z</time>
      </trkpt>
      <trkpt lat="50.57422" lon="2.9881">
        <ele>21.023</ele>
        <time>2019-09-17T12:58:27.001Z</time>
      </trkpt>
      <trkpt lat="50.57418" lon="2.98828">
        <ele>20.672</ele>
        <time>2019-09-17T12:58:30.001Z</time>
      </trkpt>
      <trkpt lat="50.57411" lon="2.98848">
        <ele>20.873</ele>
        <time>2019-09-17T12:58:33.001Z</time>
      </trkpt>
      <trkpt lat="50.57407" lon="2.98869">
        <ele>21.592</ele>
        <time>2019-09-17T12:58:36.001Z</time>
      </trkpt>
      <trkpt lat="50.57403" lon="2.98888">
        <ele>21.374</ele>
        <time>2019-09-17T12:58:39.001Z</time>
      </trkpt>
      <trkpt lat="50.57396" lon="2.98908">
        <ele>21.1</ele>
        <time>2019-09-17T12:58:42.001Z</time>
      </trkpt>
      <trkpt lat="50.5739" lon="2.9893">
        <ele>21.241</ele>
        <time>2019-09-17T12:58:45.001Z</time>
      </trkpt>
      <trkpt lat="50.57383" lon="2.98953">
        <ele>21.22</ele>
        <time>2019-09-17T12:58:48.001Z</time>
      </trkpt>
      <trkpt lat="50.57377" lon="2.98978">
        <ele>21.094</ele>
        <time>2019-09-17T12:58:51.001Z</time>
      </trkpt>
      <trkpt lat="50.57373" lon="2.99003">
        <ele>21.309</ele>
        <time>2019-09-17T12:58:54.001Z</time>
      </trkpt>
      <trkpt lat="50.57372" lon="2.99025">
        <ele>21.631</ele>
        <time>2019-09-17T12:58:57.001Z</time>
      </trkpt>
      <trkpt lat="50.57371" lon="2.99047">
        <ele>22.252</ele>
        <time>2019-09-17T12:59:00.000Z</time>
      </trkpt>
      <trkpt lat="50.57371" lon="2.99071">
        <ele>22.368</ele>
        <time>2019-09-17T12:59:03.001Z</time>
      </trkpt>
      <trkpt lat="50.57375" lon="2.99094">
        <ele>23.611</ele>
        <time>2019-09-17T12:59:06.001Z</time>
      </trkpt>
      <trkpt lat="50.57375" lon="2.99108">
        <ele>24.185</ele>
        <time>2019-09-17T12:59:09.001Z</time>
      </trkpt>
      <trkpt lat="50.57378" lon="2.99117">
        <ele>25.053</ele>
        <time>2019-09-17T12:59:12.001Z</time>
      </trkpt>
      <trkpt lat="50.5738" lon="2.99124">
        <ele>25.896</ele>
        <time>2019-09-17T12:59:15.001Z</time>
      </trkpt>
      <trkpt lat="50.5738" lon="2.99125">
        <ele>25.985</ele>
        <time>2019-09-17T12:59:18.001Z</time>
      </trkpt>
      <trkpt lat="50.5738" lon="2.99125">
        <ele>25.985</ele>
        <time>2019-09-17T12:59:39.001Z</time>
      </trkpt>
      <trkpt lat="50.57378" lon="2.99126">
        <ele>26.045</ele>
        <time>2019-09-17T12:59:42.001Z</time>
      </trkpt>
      <trkpt lat="50.57378" lon="2.99126">
        <ele>26.045</ele>
        <time>2019-09-17T12:59:45.001Z</time>
      </trkpt>
      <trkpt lat="50.57378" lon="2.99126">
        <ele>26.045</ele>
        <time>2019-09-17T13:00:57.001Z</time>
      </trkpt>
      <trkpt lat="50.57379" lon="2.99126">
        <ele>25.881</ele>
        <time>2019-09-17T13:01:00.000Z</time>
      </trkpt>
      <trkpt lat="50.5738" lon="2.99127">
        <ele>24.959</ele>
        <time>2019-09-17T13:01:03.001Z</time>
      </trkpt>
      <trkpt lat="50.5738" lon="2.99127">
        <ele>24.959</ele>
        <time>2019-09-17T13:02:03.001Z</time>
      </trkpt>
      <trkpt lat="50.5738" lon="2.99129">
        <ele>23.708</ele>
        <time>2019-09-17T13:02:06.001Z</time>
      </trkpt>
      <trkpt lat="50.5738" lon="2.99129">
        <ele>23.708</ele>
        <time>2019-09-17T13:02:09.001Z</time>
      </trkpt>
      <trkpt lat="50.57381" lon="2.99132">
        <ele>23.953</ele>
        <time>2019-09-17T13:02:51.001Z</time>
      </trkpt>
      <trkpt lat="50.57381" lon="2.99132">
        <ele>23.303</ele>
        <time>2019-09-17T13:02:54.001Z</time>
      </trkpt>
      <trkpt lat="50.57385" lon="2.99139">
        <ele>21.52</ele>
        <time>2019-09-17T13:03:00.000Z</time>
      </trkpt>
      <trkpt lat="50.5739" lon="2.99145">
        <ele>22.071</ele>
        <time>2019-09-17T13:03:03.001Z</time>
      </trkpt>
      <trkpt lat="50.57397" lon="2.99154">
        <ele>22.46</ele>
        <time>2019-09-17T13:03:06.001Z</time>
      </trkpt>
      <trkpt lat="50.57405" lon="2.99166">
        <ele>23.008</ele>
        <time>2019-09-17T13:03:09.001Z</time>
      </trkpt>
      <trkpt lat="50.57413" lon="2.99179">
        <ele>24.085</ele>
        <time>2019-09-17T13:03:12.001Z</time>
      </trkpt>
      <trkpt lat="50.57422" lon="2.99194">
        <ele>25.289</ele>
        <time>2019-09-17T13:03:15.001Z</time>
      </trkpt>
      <trkpt lat="50.57431" lon="2.99208">
        <ele>25.357</ele>
        <time>2019-09-17T13:03:18.001Z</time>
      </trkpt>
      <trkpt lat="50.57441" lon="2.99224">
        <ele>25.595</ele>
        <time>2019-09-17T13:03:21.001Z</time>
      </trkpt>
      <trkpt lat="50.5745" lon="2.99239">
        <ele>26.127</ele>
        <time>2019-09-17T13:03:24.001Z</time>
      </trkpt>
      <trkpt lat="50.57458" lon="2.99251">
        <ele>26.152</ele>
        <time>2019-09-17T13:03:27.001Z</time>
      </trkpt>
      <trkpt lat="50.57461" lon="2.99267">
        <ele>26.459</ele>
        <time>2019-09-17T13:03:30.001Z</time>
      </trkpt>
      <trkpt lat="50.57455" lon="2.99281">
        <ele>26.067</ele>
        <time>2019-09-17T13:03:33.001Z</time>
      </trkpt>
      <trkpt lat="50.57446" lon="2.99296">
        <ele>25.62</ele>
        <time>2019-09-17T13:03:36.001Z</time>
      </trkpt>
      <trkpt lat="50.5744" lon="2.99313">
        <ele>24.953</ele>
        <time>2019-09-17T13:03:39.001Z</time>
      </trkpt>
      <trkpt lat="50.57434" lon="2.99333">
        <ele>23.285</ele>
        <time>2019-09-17T13:03:42.001Z</time>
      </trkpt>
      <trkpt lat="50.57429" lon="2.99352">
        <ele>22.356</ele>
        <time>2019-09-17T13:03:45.001Z</time>
      </trkpt>
      <trkpt lat="50.57424" lon="2.9937">
        <ele>21.723</ele>
        <time>2019-09-17T13:03:48.001Z</time>
      </trkpt>
      <trkpt lat="50.57419" lon="2.99386">
        <ele>21.051</ele>
        <time>2019-09-17T13:03:51.001Z</time>
      </trkpt>
      <trkpt lat="50.57414" lon="2.99402">
        <ele>20.313</ele>
        <time>2019-09-17T13:03:54.001Z</time>
      </trkpt>
      <trkpt lat="50.57408" lon="2.9942">
        <ele>19.628</ele>
        <time>2019-09-17T13:03:57.001Z</time>
      </trkpt>
      <trkpt lat="50.57402" lon="2.99438">
        <ele>19.429</ele>
        <time>2019-09-17T13:04:00.000Z</time>
      </trkpt>
      <trkpt lat="50.57395" lon="2.99456">
        <ele>19.545</ele>
        <time>2019-09-17T13:04:03.001Z</time>
      </trkpt>
      <trkpt lat="50.57388" lon="2.99475">
        <ele>19.878</ele>
        <time>2019-09-17T13:04:06.001Z</time>
      </trkpt>
      <trkpt lat="50.57381" lon="2.99494">
        <ele>20.375</ele>
        <time>2019-09-17T13:04:09.001Z</time>
      </trkpt>
      <trkpt lat="50.57375" lon="2.9951">
        <ele>20.629</ele>
        <time>2019-09-17T13:04:12.001Z</time>
      </trkpt>
      <trkpt lat="50.57368" lon="2.99527">
        <ele>20.783</ele>
        <time>2019-09-17T13:04:15.001Z</time>
      </trkpt>
      <trkpt lat="50.57361" lon="2.99544">
        <ele>21.371</ele>
        <time>2019-09-17T13:04:18.001Z</time>
      </trkpt>
      <trkpt lat="50.57354" lon="2.99561">
        <ele>21.798</ele>
        <time>2019-09-17T13:04:21.001Z</time>
      </trkpt>
      <trkpt lat="50.57348" lon="2.99578">
        <ele>22.158</ele>
        <time>2019-09-17T13:04:24.001Z</time>
      </trkpt>
      <trkpt lat="50.57345" lon="2.99594">
        <ele>23.08</ele>
        <time>2019-09-17T13:04:27.001Z</time>
      </trkpt>
      <trkpt lat="50.57349" lon="2.9961">
        <ele>24.655</ele>
        <time>2019-09-17T13:04:30.001Z</time>
      </trkpt>
      <trkpt lat="50.57358" lon="2.99625">
        <ele>25.293</ele>
        <time>2019-09-17T13:04:33.001Z</time>
      </trkpt>
      <trkpt lat="50.57367" lon="2.9964">
        <ele>25.685</ele>
        <time>2019-09-17T13:04:36.001Z</time>
      </trkpt>
      <trkpt lat="50.57379" lon="2.99657">
        <ele>25.808</ele>
        <time>2019-09-17T13:04:39.001Z</time>
      </trkpt>
      <trkpt lat="50.57389" lon="2.99672">
        <ele>26.532</ele>
        <time>2019-09-17T13:04:42.001Z</time>
      </trkpt>
      <trkpt lat="50.574" lon="2.99685">
        <ele>27.395</ele>
        <time>2019-09-17T13:04:45.001Z</time>
      </trkpt>
      <trkpt lat="50.57413" lon="2.99698">
        <ele>26.897</ele>
        <time>2019-09-17T13:04:48.001Z</time>
      </trkpt>
      <trkpt lat="50.57426" lon="2.99711">
        <ele>26.627</ele>
        <time>2019-09-17T13:04:51.001Z</time>
      </trkpt>
      <trkpt lat="50.57438" lon="2.99725">
        <ele>26.065</ele>
        <time>2019-09-17T13:04:54.001Z</time>
      </trkpt>
      <trkpt lat="50.5745" lon="2.99739">
        <ele>25.626</ele>
        <time>2019-09-17T13:04:57.001Z</time>
      </trkpt>
      <trkpt lat="50.57463" lon="2.99753">
        <ele>25.308</ele>
        <time>2019-09-17T13:05:00.000Z</time>
      </trkpt>
      <trkpt lat="50.57475" lon="2.99768">
        <ele>24.729</ele>
        <time>2019-09-17T13:05:03.001Z</time>
      </trkpt>
      <trkpt lat="50.57487" lon="2.99782">
        <ele>24.269</ele>
        <time>2019-09-17T13:05:06.001Z</time>
      </trkpt>
      <trkpt lat="50.57499" lon="2.99795">
        <ele>24.116</ele>
        <time>2019-09-17T13:05:09.001Z</time>
      </trkpt>
      <trkpt lat="50.57512" lon="2.99808">
        <ele>24.113</ele>
        <time>2019-09-17T13:05:12.001Z</time>
      </trkpt>
      <trkpt lat="50.57524" lon="2.99821">
        <ele>24.41</ele>
        <time>2019-09-17T13:05:15.001Z</time>
      </trkpt>
      <trkpt lat="50.57536" lon="2.99836">
        <ele>24.417</ele>
        <time>2019-09-17T13:05:18.001Z</time>
      </trkpt>
      <trkpt lat="50.57547" lon="2.99853">
        <ele>23.873</ele>
        <time>2019-09-17T13:05:21.001Z</time>
      </trkpt>
      <trkpt lat="50.57555" lon="2.99872">
        <ele>23.464</ele>
        <time>2019-09-17T13:05:24.001Z</time>
      </trkpt>
      <trkpt lat="50.57564" lon="2.99891">
        <ele>22.942</ele>
        <time>2019-09-17T13:05:27.001Z</time>
      </trkpt>
      <trkpt lat="50.57571" lon="2.99913">
        <ele>22.009</ele>
        <time>2019-09-17T13:05:30.001Z</time>
      </trkpt>
      <trkpt lat="50.57576" lon="2.99936">
        <ele>20.968</ele>
        <time>2019-09-17T13:05:33.001Z</time>
      </trkpt>
      <trkpt lat="50.5758" lon="2.99959">
        <ele>20.388</ele>
        <time>2019-09-17T13:05:36.001Z</time>
      </trkpt>
      <trkpt lat="50.57582" lon="2.99983">
        <ele>19.827</ele>
        <time>2019-09-17T13:05:39.001Z</time>
      </trkpt>
      <trkpt lat="50.57582" lon="3.00007">
        <ele>19.374</ele>
        <time>2019-09-17T13:05:42.001Z</time>
      </trkpt>
      <trkpt lat="50.57582" lon="3.0003">
        <ele>19.099</ele>
        <time>2019-09-17T13:05:45.001Z</time>
      </trkpt>
      <trkpt lat="50.57582" lon="3.00052">
        <ele>19.041</ele>
        <time>2019-09-17T13:05:48.001Z</time>
      </trkpt>
      <trkpt lat="50.57583" lon="3.00074">
        <ele>18.859</ele>
        <time>2019-09-17T13:05:51.001Z</time>
      </trkpt>
      <trkpt lat="50.57583" lon="3.00096">
        <ele>19.289</ele>
        <time>2019-09-17T13:05:54.001Z</time>
      </trkpt>
      <trkpt lat="50.57583" lon="3.00117">
        <ele>19.643</ele>
        <time>2019-09-17T13:05:57.001Z</time>
      </trkpt>
      <trkpt lat="50.57584" lon="3.00137">
        <ele>19.674</ele>
        <time>2019-09-17T13:06:00.000Z</time>
      </trkpt>
      <trkpt lat="50.57584" lon="3.00158">
        <ele>19.615</ele>
        <time>2019-09-17T13:06:03.001Z</time>
      </trkpt>
      <trkpt lat="50.57584" lon="3.00179">
        <ele>19.981</ele>
        <time>2019-09-17T13:06:06.001Z</time>
      </trkpt>
      <trkpt lat="50.57584" lon="3.002">
        <ele>19.91</ele>
        <time>2019-09-17T13:06:09.001Z</time>
      </trkpt>
      <trkpt lat="50.57585" lon="3.00223">
        <ele>19.679</ele>
        <time>2019-09-17T13:06:12.001Z</time>
      </trkpt>
      <trkpt lat="50.57585" lon="3.00244">
        <ele>19.897</ele>
        <time>2019-09-17T13:06:15.001Z</time>
      </trkpt>
      <trkpt lat="50.57584" lon="3.00264">
        <ele>20.265</ele>
        <time>2019-09-17T13:06:18.001Z</time>
      </trkpt>
      <trkpt lat="50.57582" lon="3.00283">
        <ele>20.28</ele>
        <time>2019-09-17T13:06:21.001Z</time>
      </trkpt>
      <trkpt lat="50.57573" lon="3.00295">
        <ele>20.591</ele>
        <time>2019-09-17T13:06:24.001Z</time>
      </trkpt>
      <trkpt lat="50.57563" lon="3.00309">
        <ele>20.49</ele>
        <time>2019-09-17T13:06:27.001Z</time>
      </trkpt>
      <trkpt lat="50.57558" lon="3.00331">
        <ele>20.878</ele>
        <time>2019-09-17T13:06:30.001Z</time>
      </trkpt>
      <trkpt lat="50.57561" lon="3.00354">
        <ele>20.649</ele>
        <time>2019-09-17T13:06:33.001Z</time>
      </trkpt>
      <trkpt lat="50.57569" lon="3.00372">
        <ele>20.452</ele>
        <time>2019-09-17T13:06:36.001Z</time>
      </trkpt>
      <trkpt lat="50.57582" lon="3.00381">
        <ele>19.522</ele>
        <time>2019-09-17T13:06:39.001Z</time>
      </trkpt>
      <trkpt lat="50.57592" lon="3.00396">
        <ele>18.7</ele>
        <time>2019-09-17T13:06:42.001Z</time>
      </trkpt>
      <trkpt lat="50.57595" lon="3.00417">
        <ele>19.122</ele>
        <time>2019-09-17T13:06:45.001Z</time>
      </trkpt>
      <trkpt lat="50.57597" lon="3.00438">
        <ele>19.325</ele>
        <time>2019-09-17T13:06:48.001Z</time>
      </trkpt>
      <trkpt lat="50.57596" lon="3.00459">
        <ele>19.561</ele>
        <time>2019-09-17T13:06:51.001Z</time>
      </trkpt>
      <trkpt lat="50.57597" lon="3.00481">
        <ele>19.624</ele>
        <time>2019-09-17T13:06:54.001Z</time>
      </trkpt>
      <trkpt lat="50.57596" lon="3.00502">
        <ele>19.532</ele>
        <time>2019-09-17T13:06:57.001Z</time>
      </trkpt>
      <trkpt lat="50.57595" lon="3.00523">
        <ele>19.277</ele>
        <time>2019-09-17T13:07:00.000Z</time>
      </trkpt>
      <trkpt lat="50.57593" lon="3.00544">
        <ele>19.176</ele>
        <time>2019-09-17T13:07:03.001Z</time>
      </trkpt>
      <trkpt lat="50.57591" lon="3.00565">
        <ele>19.211</ele>
        <time>2019-09-17T13:07:06.001Z</time>
      </trkpt>
      <trkpt lat="50.57589" lon="3.00588">
        <ele>19.494</ele>
        <time>2019-09-17T13:07:09.001Z</time>
      </trkpt>
      <trkpt lat="50.57588" lon="3.00612">
        <ele>19.746</ele>
        <time>2019-09-17T13:07:12.001Z</time>
      </trkpt>
      <trkpt lat="50.57585" lon="3.00637">
        <ele>20.153</ele>
        <time>2019-09-17T13:07:15.001Z</time>
      </trkpt>
      <trkpt lat="50.57583" lon="3.00661">
        <ele>20.423</ele>
        <time>2019-09-17T13:07:18.001Z</time>
      </trkpt>
      <trkpt lat="50.57582" lon="3.00684">
        <ele>20.429</ele>
        <time>2019-09-17T13:07:21.001Z</time>
      </trkpt>
      <trkpt lat="50.5758" lon="3.00707">
        <ele>20.093</ele>
        <time>2019-09-17T13:07:24.001Z</time>
      </trkpt>
      <trkpt lat="50.57579" lon="3.00731">
        <ele>20.128</ele>
        <time>2019-09-17T13:07:27.001Z</time>
      </trkpt>
      <trkpt lat="50.57577" lon="3.00755">
        <ele>20.074</ele>
        <time>2019-09-17T13:07:30.001Z</time>
      </trkpt>
      <trkpt lat="50.57575" lon="3.00779">
        <ele>19.65</ele>
        <time>2019-09-17T13:07:33.001Z</time>
      </trkpt>
      <trkpt lat="50.57575" lon="3.00804">
        <ele>19.295</ele>
        <time>2019-09-17T13:07:36.001Z</time>
      </trkpt>
      <trkpt lat="50.57574" lon="3.00828">
        <ele>19.377</ele>
        <time>2019-09-17T13:07:39.001Z</time>
      </trkpt>
      <trkpt lat="50.57573" lon="3.00852">
        <ele>19.318</ele>
        <time>2019-09-17T13:07:42.001Z</time>
      </trkpt>
      <trkpt lat="50.57572" lon="3.00876">
        <ele>19.147</ele>
        <time>2019-09-17T13:07:45.001Z</time>
      </trkpt>
      <trkpt lat="50.57572" lon="3.009">
        <ele>19.648</ele>
        <time>2019-09-17T13:07:48.001Z</time>
      </trkpt>
      <trkpt lat="50.5757" lon="3.00923">
        <ele>19.82</ele>
        <time>2019-09-17T13:07:51.001Z</time>
      </trkpt>
      <trkpt lat="50.57569" lon="3.00947">
        <ele>20.225</ele>
        <time>2019-09-17T13:07:54.001Z</time>
      </trkpt>
      <trkpt lat="50.57567" lon="3.00971">
        <ele>20.407</ele>
        <time>2019-09-17T13:07:57.001Z</time>
      </trkpt>
      <trkpt lat="50.57566" lon="3.00995">
        <ele>20.443</ele>
        <time>2019-09-17T13:08:00.000Z</time>
      </trkpt>
      <trkpt lat="50.57565" lon="3.0102">
        <ele>20.371</ele>
        <time>2019-09-17T13:08:03.001Z</time>
      </trkpt>
      <trkpt lat="50.57565" lon="3.01043">
        <ele>20.137</ele>
        <time>2019-09-17T13:08:06.001Z</time>
      </trkpt>
      <trkpt lat="50.57563" lon="3.01066">
        <ele>20.205</ele>
        <time>2019-09-17T13:08:09.001Z</time>
      </trkpt>
      <trkpt lat="50.57562" lon="3.01089">
        <ele>20.289</ele>
        <time>2019-09-17T13:08:12.001Z</time>
      </trkpt>
      <trkpt lat="50.57562" lon="3.01113">
        <ele>20.242</ele>
        <time>2019-09-17T13:08:15.001Z</time>
      </trkpt>
      <trkpt lat="50.57561" lon="3.01138">
        <ele>20.129</ele>
        <time>2019-09-17T13:08:18.001Z</time>
      </trkpt>
      <trkpt lat="50.5756" lon="3.01162">
        <ele>20.044</ele>
        <time>2019-09-17T13:08:21.001Z</time>
      </trkpt>
      <trkpt lat="50.57558" lon="3.01187">
        <ele>20.036</ele>
        <time>2019-09-17T13:08:24.001Z</time>
      </trkpt>
      <trkpt lat="50.57557" lon="3.01211">
        <ele>20.787</ele>
        <time>2019-09-17T13:08:27.001Z</time>
      </trkpt>
      <trkpt lat="50.57556" lon="3.01233">
        <ele>21.12</ele>
        <time>2019-09-17T13:08:30.001Z</time>
      </trkpt>
      <trkpt lat="50.57554" lon="3.01256">
        <ele>21.138</ele>
        <time>2019-09-17T13:08:33.001Z</time>
      </trkpt>
      <trkpt lat="50.57554" lon="3.01278">
        <ele>21.319</ele>
        <time>2019-09-17T13:08:36.001Z</time>
      </trkpt>
      <trkpt lat="50.57555" lon="3.01301">
        <ele>21.297</ele>
        <time>2019-09-17T13:08:39.001Z</time>
      </trkpt>
      <trkpt lat="50.57557" lon="3.01324">
        <ele>21.548</ele>
        <time>2019-09-17T13:08:42.001Z</time>
      </trkpt>
      <trkpt lat="50.57558" lon="3.01345">
        <ele>22.479</ele>
        <time>2019-09-17T13:08:45.001Z</time>
      </trkpt>
      <trkpt lat="50.57563" lon="3.01363">
        <ele>23.081</ele>
        <time>2019-09-17T13:08:48.001Z</time>
      </trkpt>
      <trkpt lat="50.5757" lon="3.01383">
        <ele>23.152</ele>
        <time>2019-09-17T13:08:51.001Z</time>
      </trkpt>
      <trkpt lat="50.57577" lon="3.01401">
        <ele>23.377</ele>
        <time>2019-09-17T13:08:54.001Z</time>
      </trkpt>
      <trkpt lat="50.57584" lon="3.01419">
        <ele>23.892</ele>
        <time>2019-09-17T13:08:57.001Z</time>
      </trkpt>
      <trkpt lat="50.57591" lon="3.01435">
        <ele>24.191</ele>
        <time>2019-09-17T13:09:00.000Z</time>
      </trkpt>
      <trkpt lat="50.576" lon="3.01452">
        <ele>24.704</ele>
        <time>2019-09-17T13:09:03.001Z</time>
      </trkpt>
      <trkpt lat="50.57609" lon="3.01472">
        <ele>24.934</ele>
        <time>2019-09-17T13:09:06.001Z</time>
      </trkpt>
      <trkpt lat="50.57618" lon="3.01494">
        <ele>24.803</ele>
        <time>2019-09-17T13:09:09.001Z</time>
      </trkpt>
      <trkpt lat="50.5762" lon="3.01519">
        <ele>24.862</ele>
        <time>2019-09-17T13:09:12.001Z</time>
      </trkpt>
      <trkpt lat="50.57618" lon="3.01543">
        <ele>24.875</ele>
        <time>2019-09-17T13:09:15.001Z</time>
      </trkpt>
      <trkpt lat="50.57616" lon="3.01567">
        <ele>24.776</ele>
        <time>2019-09-17T13:09:18.001Z</time>
      </trkpt>
      <trkpt lat="50.57615" lon="3.01591">
        <ele>25.03</ele>
        <time>2019-09-17T13:09:21.001Z</time>
      </trkpt>
      <trkpt lat="50.57613" lon="3.01613">
        <ele>25.218</ele>
        <time>2019-09-17T13:09:24.001Z</time>
      </trkpt>
      <trkpt lat="50.5761" lon="3.01633">
        <ele>25.555</ele>
        <time>2019-09-17T13:09:27.001Z</time>
      </trkpt>
      <trkpt lat="50.57608" lon="3.01654">
        <ele>25.986</ele>
        <time>2019-09-17T13:09:30.001Z</time>
      </trkpt>
      <trkpt lat="50.57606" lon="3.01675">
        <ele>26.712</ele>
        <time>2019-09-17T13:09:33.001Z</time>
      </trkpt>
      <trkpt lat="50.57603" lon="3.01692">
        <ele>27.412</ele>
        <time>2019-09-17T13:09:36.001Z</time>
      </trkpt>
      <trkpt lat="50.57601" lon="3.01708">
        <ele>28.421</ele>
        <time>2019-09-17T13:09:39.001Z</time>
      </trkpt>
      <trkpt lat="50.57599" lon="3.01725">
        <ele>29.469</ele>
        <time>2019-09-17T13:09:42.001Z</time>
      </trkpt>
      <trkpt lat="50.576" lon="3.01744">
        <ele>29.136</ele>
        <time>2019-09-17T13:09:45.001Z</time>
      </trkpt>
      <trkpt lat="50.57602" lon="3.01761">
        <ele>26.266</ele>
        <time>2019-09-17T13:09:48.001Z</time>
      </trkpt>
      <trkpt lat="50.57602" lon="3.01778">
        <ele>24.771</ele>
        <time>2019-09-17T13:09:51.001Z</time>
      </trkpt>
      <trkpt lat="50.57599" lon="3.01797">
        <ele>22.699</ele>
        <time>2019-09-17T13:09:54.001Z</time>
      </trkpt>
      <trkpt lat="50.57596" lon="3.01817">
        <ele>21.51</ele>
        <time>2019-09-17T13:09:57.001Z</time>
      </trkpt>
      <trkpt lat="50.57592" lon="3.01837">
        <ele>20.768</ele>
        <time>2019-09-17T13:10:00.000Z</time>
      </trkpt>
      <trkpt lat="50.57588" lon="3.01854">
        <ele>21.431</ele>
        <time>2019-09-17T13:10:03.001Z</time>
      </trkpt>
      <trkpt lat="50.57584" lon="3.01871">
        <ele>22.649</ele>
        <time>2019-09-17T13:10:06.001Z</time>
      </trkpt>
      <trkpt lat="50.5758" lon="3.01889">
        <ele>22.971</ele>
        <time>2019-09-17T13:10:09.001Z</time>
      </trkpt>
      <trkpt lat="50.57577" lon="3.01907">
        <ele>23.879</ele>
        <time>2019-09-17T13:10:12.001Z</time>
      </trkpt>
      <trkpt lat="50.57574" lon="3.01924">
        <ele>24.599</ele>
        <time>2019-09-17T13:10:15.001Z</time>
      </trkpt>
      <trkpt lat="50.57571" lon="3.01944">
        <ele>24.968</ele>
        <time>2019-09-17T13:10:18.001Z</time>
      </trkpt>
      <trkpt lat="50.57567" lon="3.01964">
        <ele>25.694</ele>
        <time>2019-09-17T13:10:21.001Z</time>
      </trkpt>
      <trkpt lat="50.57562" lon="3.01982">
        <ele>27.041</ele>
        <time>2019-09-17T13:10:24.001Z</time>
      </trkpt>
      <trkpt lat="50.57557" lon="3.02002">
        <ele>27.575</ele>
        <time>2019-09-17T13:10:27.001Z</time>
      </trkpt>
      <trkpt lat="50.57552" lon="3.0202">
        <ele>28.163</ele>
        <time>2019-09-17T13:10:30.001Z</time>
      </trkpt>
      <trkpt lat="50.57547" lon="3.02037">
        <ele>28.702</ele>
        <time>2019-09-17T13:10:33.001Z</time>
      </trkpt>
      <trkpt lat="50.57542" lon="3.02055">
        <ele>29.578</ele>
        <time>2019-09-17T13:10:36.001Z</time>
      </trkpt>
      <trkpt lat="50.57537" lon="3.02075">
        <ele>30.12</ele>
        <time>2019-09-17T13:10:39.001Z</time>
      </trkpt>
      <trkpt lat="50.57532" lon="3.02094">
        <ele>30.549</ele>
        <time>2019-09-17T13:10:42.001Z</time>
      </trkpt>
      <trkpt lat="50.57528" lon="3.02113">
        <ele>30.746</ele>
        <time>2019-09-17T13:10:45.001Z</time>
      </trkpt>
      <trkpt lat="50.57525" lon="3.0213">
        <ele>31.392</ele>
        <time>2019-09-17T13:10:48.001Z</time>
      </trkpt>
      <trkpt lat="50.5752" lon="3.0215">
        <ele>31.829</ele>
        <time>2019-09-17T13:10:51.001Z</time>
      </trkpt>
      <trkpt lat="50.57516" lon="3.02172">
        <ele>32.716</ele>
        <time>2019-09-17T13:10:54.001Z</time>
      </trkpt>
      <trkpt lat="50.57512" lon="3.02191">
        <ele>32.899</ele>
        <time>2019-09-17T13:10:57.001Z</time>
      </trkpt>
      <trkpt lat="50.57511" lon="3.02212">
        <ele>31.983</ele>
        <time>2019-09-17T13:11:00.000Z</time>
      </trkpt>
      <trkpt lat="50.5751" lon="3.02235">
        <ele>30.546</ele>
        <time>2019-09-17T13:11:03.001Z</time>
      </trkpt>
      <trkpt lat="50.57511" lon="3.02258">
        <ele>29.195</ele>
        <time>2019-09-17T13:11:06.001Z</time>
      </trkpt>
      <trkpt lat="50.57511" lon="3.02279">
        <ele>28.706</ele>
        <time>2019-09-17T13:11:09.001Z</time>
      </trkpt>
      <trkpt lat="50.57509" lon="3.02299">
        <ele>28.492</ele>
        <time>2019-09-17T13:11:12.001Z</time>
      </trkpt>
      <trkpt lat="50.57508" lon="3.02321">
        <ele>27.918</ele>
        <time>2019-09-17T13:11:15.001Z</time>
      </trkpt>
      <trkpt lat="50.57505" lon="3.02341">
        <ele>27.897</ele>
        <time>2019-09-17T13:11:18.001Z</time>
      </trkpt>
      <trkpt lat="50.57502" lon="3.02361">
        <ele>27.423</ele>
        <time>2019-09-17T13:11:21.001Z</time>
      </trkpt>
      <trkpt lat="50.575" lon="3.02382">
        <ele>27.128</ele>
        <time>2019-09-17T13:11:24.001Z</time>
      </trkpt>
      <trkpt lat="50.57495" lon="3.024">
        <ele>26.734</ele>
        <time>2019-09-17T13:11:27.001Z</time>
      </trkpt>
      <trkpt lat="50.57492" lon="3.02419">
        <ele>26.77</ele>
        <time>2019-09-17T13:11:30.001Z</time>
      </trkpt>
      <trkpt lat="50.57489" lon="3.02438">
        <ele>26.711</ele>
        <time>2019-09-17T13:11:33.001Z</time>
      </trkpt>
      <trkpt lat="50.57485" lon="3.02455">
        <ele>26.995</ele>
        <time>2019-09-17T13:11:36.001Z</time>
      </trkpt>
      <trkpt lat="50.57481" lon="3.02475">
        <ele>26.782</ele>
        <time>2019-09-17T13:11:39.001Z</time>
      </trkpt>
      <trkpt lat="50.57476" lon="3.02494">
        <ele>26.72</ele>
        <time>2019-09-17T13:11:42.001Z</time>
      </trkpt>
      <trkpt lat="50.5747" lon="3.02512">
        <ele>26.602</ele>
        <time>2019-09-17T13:11:45.001Z</time>
      </trkpt>
      <trkpt lat="50.57463" lon="3.0253">
        <ele>26.692</ele>
        <time>2019-09-17T13:11:48.001Z</time>
      </trkpt>
      <trkpt lat="50.57456" lon="3.02549">
        <ele>27.338</ele>
        <time>2019-09-17T13:11:51.001Z</time>
      </trkpt>
      <trkpt lat="50.5745" lon="3.02565">
        <ele>27.755</ele>
        <time>2019-09-17T13:11:54.001Z</time>
      </trkpt>
      <trkpt lat="50.57442" lon="3.0258">
        <ele>27.914</ele>
        <time>2019-09-17T13:11:57.001Z</time>
      </trkpt>
      <trkpt lat="50.57435" lon="3.02597">
        <ele>26.051</ele>
        <time>2019-09-17T13:12:00.000Z</time>
      </trkpt>
      <trkpt lat="50.57427" lon="3.02615">
        <ele>25.233</ele>
        <time>2019-09-17T13:12:03.001Z</time>
      </trkpt>
      <trkpt lat="50.57418" lon="3.02631">
        <ele>24.115</ele>
        <time>2019-09-17T13:12:06.001Z</time>
      </trkpt>
      <trkpt lat="50.57408" lon="3.02645">
        <ele>23.376</ele>
        <time>2019-09-17T13:12:09.001Z</time>
      </trkpt>
      <trkpt lat="50.57398" lon="3.02658">
        <ele>22.767</ele>
        <time>2019-09-17T13:12:12.001Z</time>
      </trkpt>
      <trkpt lat="50.57389" lon="3.02669">
        <ele>22.469</ele>
        <time>2019-09-17T13:12:15.001Z</time>
      </trkpt>
      <trkpt lat="50.57379" lon="3.0268">
        <ele>21.47</ele>
        <time>2019-09-17T13:12:18.001Z</time>
      </trkpt>
      <trkpt lat="50.5737" lon="3.02689">
        <ele>20.814</ele>
        <time>2019-09-17T13:12:21.001Z</time>
      </trkpt>
      <trkpt lat="50.57362" lon="3.027">
        <ele>20.032</ele>
        <time>2019-09-17T13:12:24.001Z</time>
      </trkpt>
      <trkpt lat="50.57357" lon="3.02713">
        <ele>20.147</ele>
        <time>2019-09-17T13:12:27.001Z</time>
      </trkpt>
      <trkpt lat="50.57358" lon="3.0272">
        <ele>20.76</ele>
        <time>2019-09-17T13:12:30.001Z</time>
      </trkpt>
      <trkpt lat="50.57359" lon="3.02721">
        <ele>20.9</ele>
        <time>2019-09-17T13:12:33.001Z</time>
      </trkpt>
      <trkpt lat="50.57359" lon="3.02721">
        <ele>20.9</ele>
        <time>2019-09-17T13:13:03.001Z</time>
      </trkpt>
      <trkpt lat="50.5736" lon="3.02724">
        <ele>21.032</ele>
        <time>2019-09-17T13:13:06.001Z</time>
      </trkpt>
      <trkpt lat="50.57365" lon="3.02725">
        <ele>21.353</ele>
        <time>2019-09-17T13:13:09.001Z</time>
      </trkpt>
      <trkpt lat="50.5737" lon="3.02719">
        <ele>22.01</ele>
        <time>2019-09-17T13:13:12.001Z</time>
      </trkpt>
      <trkpt lat="50.57373" lon="3.02706">
        <ele>22.681</ele>
        <time>2019-09-17T13:13:15.001Z</time>
      </trkpt>
      <trkpt lat="50.57375" lon="3.02693">
        <ele>23.2</ele>
        <time>2019-09-17T13:13:18.001Z</time>
      </trkpt>
      <trkpt lat="50.5738" lon="3.02686">
        <ele>23.441</ele>
        <time>2019-09-17T13:13:21.001Z</time>
      </trkpt>
      <trkpt lat="50.57383" lon="3.02689">
        <ele>24.075</ele>
        <time>2019-09-17T13:13:24.001Z</time>
      </trkpt>
      <trkpt lat="50.57383" lon="3.02689">
        <ele>24.18</ele>
        <time>2019-09-17T13:13:27.001Z</time>
      </trkpt>
      <trkpt lat="50.57383" lon="3.02691">
        <ele>23.711</ele>
        <time>2019-09-17T13:15:09.001Z</time>
      </trkpt>
      <trkpt lat="50.57382" lon="3.02694">
        <ele>23.466</ele>
        <time>2019-09-17T13:15:12.001Z</time>
      </trkpt>
      <trkpt lat="50.57379" lon="3.02701">
        <ele>23.725</ele>
        <time>2019-09-17T13:15:15.001Z</time>
      </trkpt>
      <trkpt lat="50.57377" lon="3.02712">
        <ele>23.26</ele>
        <time>2019-09-17T13:15:18.001Z</time>
      </trkpt>
      <trkpt lat="50.57378" lon="3.02725">
        <ele>23.377</ele>
        <time>2019-09-17T13:15:21.001Z</time>
      </trkpt>
      <trkpt lat="50.57385" lon="3.02738">
        <ele>23.577</ele>
        <time>2019-09-17T13:15:24.001Z</time>
      </trkpt>
      <trkpt lat="50.57394" lon="3.02748">
        <ele>23.337</ele>
        <time>2019-09-17T13:15:27.001Z</time>
      </trkpt>
      <trkpt lat="50.57404" lon="3.02758">
        <ele>23.092</ele>
        <time>2019-09-17T13:15:30.001Z</time>
      </trkpt>
      <trkpt lat="50.57415" lon="3.02769">
        <ele>23.443</ele>
        <time>2019-09-17T13:15:33.001Z</time>
      </trkpt>
      <trkpt lat="50.57426" lon="3.0278">
        <ele>24.267</ele>
        <time>2019-09-17T13:15:36.001Z</time>
      </trkpt>
      <trkpt lat="50.57436" lon="3.02791">
        <ele>24.949</ele>
        <time>2019-09-17T13:15:39.001Z</time>
      </trkpt>
      <trkpt lat="50.57446" lon="3.02803">
        <ele>25.902</ele>
        <time>2019-09-17T13:15:42.001Z</time>
      </trkpt>
      <trkpt lat="50.57456" lon="3.02814">
        <ele>25.886</ele>
        <time>2019-09-17T13:15:45.001Z</time>
      </trkpt>
      <trkpt lat="50.57467" lon="3.02826">
        <ele>26.113</ele>
        <time>2019-09-17T13:15:48.001Z</time>
      </trkpt>
      <trkpt lat="50.57478" lon="3.02837">
        <ele>26.564</ele>
        <time>2019-09-17T13:15:51.001Z</time>
      </trkpt>
      <trkpt lat="50.57489" lon="3.02847">
        <ele>26.971</ele>
        <time>2019-09-17T13:15:54.001Z</time>
      </trkpt>
      <trkpt lat="50.57499" lon="3.02859">
        <ele>27.918</ele>
        <time>2019-09-17T13:15:57.001Z</time>
      </trkpt>
      <trkpt lat="50.57509" lon="3.02869">
        <ele>27.639</ele>
        <time>2019-09-17T13:16:00.000Z</time>
      </trkpt>
      <trkpt lat="50.57518" lon="3.02881">
        <ele>27.195</ele>
        <time>2019-09-17T13:16:03.001Z</time>
      </trkpt>
      <trkpt lat="50.57528" lon="3.02893">
        <ele>26.91</ele>
        <time>2019-09-17T13:16:06.001Z</time>
      </trkpt>
      <trkpt lat="50.57536" lon="3.02905">
        <ele>26.602</ele>
        <time>2019-09-17T13:16:09.001Z</time>
      </trkpt>
      <trkpt lat="50.57546" lon="3.02917">
        <ele>26.205</ele>
        <time>2019-09-17T13:16:12.001Z</time>
      </trkpt>
      <trkpt lat="50.57555" lon="3.02929">
        <ele>25.514</ele>
        <time>2019-09-17T13:16:15.001Z</time>
      </trkpt>
      <trkpt lat="50.57565" lon="3.02941">
        <ele>24.879</ele>
        <time>2019-09-17T13:16:18.001Z</time>
      </trkpt>
      <trkpt lat="50.57574" lon="3.02954">
        <ele>24.539</ele>
        <time>2019-09-17T13:16:21.001Z</time>
      </trkpt>
      <trkpt lat="50.57583" lon="3.02965">
        <ele>24.404</ele>
        <time>2019-09-17T13:16:24.001Z</time>
      </trkpt>
      <trkpt lat="50.57592" lon="3.02978">
        <ele>24.061</ele>
        <time>2019-09-17T13:16:27.001Z</time>
      </trkpt>
      <trkpt lat="50.57601" lon="3.02991">
        <ele>23.634</ele>
        <time>2019-09-17T13:16:30.001Z</time>
      </trkpt>
      <trkpt lat="50.57608" lon="3.03001">
        <ele>23.324</ele>
        <time>2019-09-17T13:16:33.001Z</time>
      </trkpt>
      <trkpt lat="50.57616" lon="3.03009">
        <ele>22.851</ele>
        <time>2019-09-17T13:16:36.001Z</time>
      </trkpt>
      <trkpt lat="50.57623" lon="3.03019">
        <ele>22.663</ele>
        <time>2019-09-17T13:16:39.001Z</time>
      </trkpt>
      <trkpt lat="50.57631" lon="3.0303">
        <ele>22.223</ele>
        <time>2019-09-17T13:16:42.001Z</time>
      </trkpt>
      <trkpt lat="50.5764" lon="3.03041">
        <ele>22.121</ele>
        <time>2019-09-17T13:16:45.001Z</time>
      </trkpt>
      <trkpt lat="50.57648" lon="3.03052">
        <ele>22.165</ele>
        <time>2019-09-17T13:16:48.001Z</time>
      </trkpt>
      <trkpt lat="50.57656" lon="3.03064">
        <ele>21.996</ele>
        <time>2019-09-17T13:16:51.001Z</time>
      </trkpt>
      <trkpt lat="50.57665" lon="3.03075">
        <ele>21.936</ele>
        <time>2019-09-17T13:16:54.001Z</time>
      </trkpt>
      <trkpt lat="50.57674" lon="3.03086">
        <ele>21.806</ele>
        <time>2019-09-17T13:16:57.001Z</time>
      </trkpt>
      <trkpt lat="50.57682" lon="3.03097">
        <ele>21.878</ele>
        <time>2019-09-17T13:17:00.000Z</time>
      </trkpt>
      <trkpt lat="50.57691" lon="3.03109">
        <ele>22.166</ele>
        <time>2019-09-17T13:17:03.001Z</time>
      </trkpt>
      <trkpt lat="50.57699" lon="3.03122">
        <ele>22.69</ele>
        <time>2019-09-17T13:17:06.001Z</time>
      </trkpt>
      <trkpt lat="50.57707" lon="3.03134">
        <ele>22.718</ele>
        <time>2019-09-17T13:17:09.001Z</time>
      </trkpt>
      <trkpt lat="50.57715" lon="3.03147">
        <ele>22.732</ele>
        <time>2019-09-17T13:17:12.001Z</time>
      </trkpt>
      <trkpt lat="50.57723" lon="3.03159">
        <ele>22.806</ele>
        <time>2019-09-17T13:17:15.001Z</time>
      </trkpt>
      <trkpt lat="50.57731" lon="3.0317">
        <ele>22.849</ele>
        <time>2019-09-17T13:17:18.001Z</time>
      </trkpt>
      <trkpt lat="50.57738" lon="3.03181">
        <ele>22.715</ele>
        <time>2019-09-17T13:17:21.001Z</time>
      </trkpt>
      <trkpt lat="50.57745" lon="3.03192">
        <ele>23.082</ele>
        <time>2019-09-17T13:17:24.001Z</time>
      </trkpt>
      <trkpt lat="50.5775" lon="3.03204">
        <ele>23.52</ele>
        <time>2019-09-17T13:17:27.001Z</time>
      </trkpt>
      <trkpt lat="50.57757" lon="3.03218">
        <ele>24.063</ele>
        <time>2019-09-17T13:17:30.001Z</time>
      </trkpt>
      <trkpt lat="50.57765" lon="3.03228">
        <ele>25.044</ele>
        <time>2019-09-17T13:17:33.001Z</time>
      </trkpt>
      <trkpt lat="50.57774" lon="3.03241">
        <ele>25.795</ele>
        <time>2019-09-17T13:17:36.001Z</time>
      </trkpt>
      <trkpt lat="50.57783" lon="3.03256">
        <ele>26.466</ele>
        <time>2019-09-17T13:17:39.001Z</time>
      </trkpt>
      <trkpt lat="50.57793" lon="3.0327">
        <ele>26.934</ele>
        <time>2019-09-17T13:17:42.001Z</time>
      </trkpt>
      <trkpt lat="50.57802" lon="3.03284">
        <ele>27.875</ele>
        <time>2019-09-17T13:17:45.001Z</time>
      </trkpt>
      <trkpt lat="50.57812" lon="3.03297">
        <ele>29.101</ele>
        <time>2019-09-17T13:17:48.001Z</time>
      </trkpt>
      <trkpt lat="50.57819" lon="3.0331">
        <ele>29.742</ele>
        <time>2019-09-17T13:17:51.001Z</time>
      </trkpt>
      <trkpt lat="50.57825" lon="3.03324">
        <ele>30.334</ele>
        <time>2019-09-17T13:17:54.001Z</time>
      </trkpt>
      <trkpt lat="50.57835" lon="3.03337">
        <ele>30.751</ele>
        <time>2019-09-17T13:17:57.001Z</time>
      </trkpt>
      <trkpt lat="50.57848" lon="3.03349">
        <ele>31.461</ele>
        <time>2019-09-17T13:18:00.000Z</time>
      </trkpt>
      <trkpt lat="50.57863" lon="3.03361">
        <ele>31.888</ele>
        <time>2019-09-17T13:18:03.001Z</time>
      </trkpt>
      <trkpt lat="50.57877" lon="3.03374">
        <ele>32.939</ele>
        <time>2019-09-17T13:18:06.001Z</time>
      </trkpt>
      <trkpt lat="50.5789" lon="3.03382">
        <ele>33.05</ele>
        <time>2019-09-17T13:18:09.001Z</time>
      </trkpt>
      <trkpt lat="50.57904" lon="3.03386">
        <ele>33.188</ele>
        <time>2019-09-17T13:18:12.001Z</time>
      </trkpt>
      <trkpt lat="50.57917" lon="3.03388">
        <ele>32.049</ele>
        <time>2019-09-17T13:18:15.001Z</time>
      </trkpt>
      <trkpt lat="50.57931" lon="3.03388">
        <ele>30.593</ele>
        <time>2019-09-17T13:18:18.001Z</time>
      </trkpt>
      <trkpt lat="50.57942" lon="3.03385">
        <ele>30.337</ele>
        <time>2019-09-17T13:18:21.001Z</time>
      </trkpt>
      <trkpt lat="50.57951" lon="3.03383">
        <ele>31.326</ele>
        <time>2019-09-17T13:18:24.001Z</time>
      </trkpt>
      <trkpt lat="50.57961" lon="3.03382">
        <ele>32.027</ele>
        <time>2019-09-17T13:18:27.001Z</time>
      </trkpt>
      <trkpt lat="50.57972" lon="3.03382">
        <ele>32.643</ele>
        <time>2019-09-17T13:18:30.001Z</time>
      </trkpt>
      <trkpt lat="50.57985" lon="3.03383">
        <ele>32.681</ele>
        <time>2019-09-17T13:18:33.001Z</time>
      </trkpt>
      <trkpt lat="50.57996" lon="3.03386">
        <ele>33.451</ele>
        <time>2019-09-17T13:18:36.001Z</time>
      </trkpt>
      <trkpt lat="50.58002" lon="3.03388">
        <ele>33.333</ele>
        <time>2019-09-17T13:18:39.001Z</time>
      </trkpt>
      <trkpt lat="50.58002" lon="3.03388">
        <ele>33.333</ele>
        <time>2019-09-17T13:18:48.001Z</time>
      </trkpt>
      <trkpt lat="50.58006" lon="3.03387">
        <ele>32.764</ele>
        <time>2019-09-17T13:18:51.001Z</time>
      </trkpt>
      <trkpt lat="50.58012" lon="3.03387">
        <ele>32.775</ele>
        <time>2019-09-17T13:18:54.001Z</time>
      </trkpt>
      <trkpt lat="50.58021" lon="3.03386">
        <ele>31.814</ele>
        <time>2019-09-17T13:18:57.001Z</time>
      </trkpt>
      <trkpt lat="50.58032" lon="3.03385">
        <ele>30.369</ele>
        <time>2019-09-17T13:19:00.000Z</time>
      </trkpt>
      <trkpt lat="50.58044" lon="3.03383">
        <ele>29.831</ele>
        <time>2019-09-17T13:19:03.001Z</time>
      </trkpt>
      <trkpt lat="50.58056" lon="3.03381">
        <ele>29.62</ele>
        <time>2019-09-17T13:19:06.001Z</time>
      </trkpt>
      <trkpt lat="50.58067" lon="3.03379">
        <ele>29.824</ele>
        <time>2019-09-17T13:19:09.001Z</time>
      </trkpt>
      <trkpt lat="50.58078" lon="3.03375">
        <ele>29.973</ele>
        <time>2019-09-17T13:19:12.001Z</time>
      </trkpt>
      <trkpt lat="50.5809" lon="3.03374">
        <ele>30.588</ele>
        <time>2019-09-17T13:19:15.001Z</time>
      </trkpt>
      <trkpt lat="50.58104" lon="3.03374">
        <ele>30.57</ele>
        <time>2019-09-17T13:19:18.001Z</time>
      </trkpt>
      <trkpt lat="50.58118" lon="3.03375">
        <ele>30.024</ele>
        <time>2019-09-17T13:19:21.001Z</time>
      </trkpt>
      <trkpt lat="50.58131" lon="3.03373">
        <ele>29.862</ele>
        <time>2019-09-17T13:19:24.001Z</time>
      </trkpt>
      <trkpt lat="50.58143" lon="3.03372">
        <ele>29.799</ele>
        <time>2019-09-17T13:19:27.001Z</time>
      </trkpt>
      <trkpt lat="50.58156" lon="3.0337">
        <ele>30.284</ele>
        <time>2019-09-17T13:19:30.001Z</time>
      </trkpt>
      <trkpt lat="50.58169" lon="3.03368">
        <ele>30.259</ele>
        <time>2019-09-17T13:19:33.001Z</time>
      </trkpt>
      <trkpt lat="50.58184" lon="3.03368">
        <ele>30.136</ele>
        <time>2019-09-17T13:19:36.001Z</time>
      </trkpt>
      <trkpt lat="50.58197" lon="3.03366">
        <ele>30.035</ele>
        <time>2019-09-17T13:19:39.001Z</time>
      </trkpt>
      <trkpt lat="50.5821" lon="3.03365">
        <ele>29.065</ele>
        <time>2019-09-17T13:19:42.001Z</time>
      </trkpt>
      <trkpt lat="50.58224" lon="3.03365">
        <ele>28.321</ele>
        <time>2019-09-17T13:19:45.001Z</time>
      </trkpt>
      <trkpt lat="50.58237" lon="3.03365">
        <ele>27.931</ele>
        <time>2019-09-17T13:19:48.001Z</time>
      </trkpt>
      <trkpt lat="50.58249" lon="3.03364">
        <ele>27.885</ele>
        <time>2019-09-17T13:19:51.001Z</time>
      </trkpt>
      <trkpt lat="50.58261" lon="3.03362">
        <ele>27.534</ele>
        <time>2019-09-17T13:19:54.001Z</time>
      </trkpt>
      <trkpt lat="50.58274" lon="3.03361">
        <ele>27.025</ele>
        <time>2019-09-17T13:19:57.001Z</time>
      </trkpt>
      <trkpt lat="50.58287" lon="3.03359">
        <ele>27.873</ele>
        <time>2019-09-17T13:20:00.000Z</time>
      </trkpt>
      <trkpt lat="50.58298" lon="3.03358">
        <ele>28.503</ele>
        <time>2019-09-17T13:20:03.001Z</time>
      </trkpt>
      <trkpt lat="50.58309" lon="3.03358">
        <ele>28.177</ele>
        <time>2019-09-17T13:20:06.001Z</time>
      </trkpt>
      <trkpt lat="50.58322" lon="3.0336">
        <ele>27.2</ele>
        <time>2019-09-17T13:20:09.001Z</time>
      </trkpt>
      <trkpt lat="50.58334" lon="3.03368">
        <ele>26.878</ele>
        <time>2019-09-17T13:20:12.001Z</time>
      </trkpt>
      <trkpt lat="50.58346" lon="3.03365">
        <ele>26.434</ele>
        <time>2019-09-17T13:20:15.001Z</time>
      </trkpt>
      <trkpt lat="50.58359" lon="3.03356">
        <ele>27.548</ele>
        <time>2019-09-17T13:20:18.001Z</time>
      </trkpt>
      <trkpt lat="50.5837" lon="3.03353">
        <ele>27.703</ele>
        <time>2019-09-17T13:20:21.001Z</time>
      </trkpt>
      <trkpt lat="50.58381" lon="3.03356">
        <ele>28.244</ele>
        <time>2019-09-17T13:20:24.001Z</time>
      </trkpt>
      <trkpt lat="50.58392" lon="3.03358">
        <ele>29.048</ele>
        <time>2019-09-17T13:20:27.001Z</time>
      </trkpt>
      <trkpt lat="50.58403" lon="3.03359">
        <ele>29.715</ele>
        <time>2019-09-17T13:20:30.001Z</time>
      </trkpt>
      <trkpt lat="50.58414" lon="3.03361">
        <ele>30.361</ele>
        <time>2019-09-17T13:20:33.001Z</time>
      </trkpt>
      <trkpt lat="50.58425" lon="3.03366">
        <ele>30.251</ele>
        <time>2019-09-17T13:20:36.001Z</time>
      </trkpt>
      <trkpt lat="50.58437" lon="3.03372">
        <ele>29.399</ele>
        <time>2019-09-17T13:20:39.001Z</time>
      </trkpt>
      <trkpt lat="50.58448" lon="3.03378">
        <ele>28.399</ele>
        <time>2019-09-17T13:20:42.001Z</time>
      </trkpt>
      <trkpt lat="50.58459" lon="3.03384">
        <ele>28.185</ele>
        <time>2019-09-17T13:20:45.001Z</time>
      </trkpt>
      <trkpt lat="50.58469" lon="3.0339">
        <ele>27.624</ele>
        <time>2019-09-17T13:20:48.001Z</time>
      </trkpt>
      <trkpt lat="50.58478" lon="3.03395">
        <ele>26.929</ele>
        <time>2019-09-17T13:20:51.001Z</time>
      </trkpt>
      <trkpt lat="50.58487" lon="3.034">
        <ele>26.696</ele>
        <time>2019-09-17T13:20:54.001Z</time>
      </trkpt>
      <trkpt lat="50.58497" lon="3.03406">
        <ele>26.403</ele>
        <time>2019-09-17T13:20:57.001Z</time>
      </trkpt>
      <trkpt lat="50.58507" lon="3.0341">
        <ele>26.762</ele>
        <time>2019-09-17T13:21:00.000Z</time>
      </trkpt>
      <trkpt lat="50.58517" lon="3.03417">
        <ele>26.454</ele>
        <time>2019-09-17T13:21:03.001Z</time>
      </trkpt>
      <trkpt lat="50.58526" lon="3.03422">
        <ele>26.325</ele>
        <time>2019-09-17T13:21:06.001Z</time>
      </trkpt>
      <trkpt lat="50.58537" lon="3.03426">
        <ele>26.758</ele>
        <time>2019-09-17T13:21:09.001Z</time>
      </trkpt>
      <trkpt lat="50.58547" lon="3.0343">
        <ele>27.045</ele>
        <time>2019-09-17T13:21:12.001Z</time>
      </trkpt>
      <trkpt lat="50.58558" lon="3.03432">
        <ele>27.642</ele>
        <time>2019-09-17T13:21:15.001Z</time>
      </trkpt>
      <trkpt lat="50.58569" lon="3.03434">
        <ele>28.332</ele>
        <time>2019-09-17T13:21:18.001Z</time>
      </trkpt>
      <trkpt lat="50.58579" lon="3.03435">
        <ele>29.018</ele>
        <time>2019-09-17T13:21:21.001Z</time>
      </trkpt>
      <trkpt lat="50.58589" lon="3.03437">
        <ele>29.407</ele>
        <time>2019-09-17T13:21:24.001Z</time>
      </trkpt>
      <trkpt lat="50.586" lon="3.03438">
        <ele>29.966</ele>
        <time>2019-09-17T13:21:27.001Z</time>
      </trkpt>
      <trkpt lat="50.5861" lon="3.0344">
        <ele>30.758</ele>
        <time>2019-09-17T13:21:30.001Z</time>
      </trkpt>
      <trkpt lat="50.5862" lon="3.03443">
        <ele>30.742</ele>
        <time>2019-09-17T13:21:33.001Z</time>
      </trkpt>
      <trkpt lat="50.58629" lon="3.03443">
        <ele>31.388</ele>
        <time>2019-09-17T13:21:36.001Z</time>
      </trkpt>
      <trkpt lat="50.58638" lon="3.03443">
        <ele>31.754</ele>
        <time>2019-09-17T13:21:39.001Z</time>
      </trkpt>
      <trkpt lat="50.58646" lon="3.03443">
        <ele>32.365</ele>
        <time>2019-09-17T13:21:42.001Z</time>
      </trkpt>
      <trkpt lat="50.58655" lon="3.03443">
        <ele>32.937</ele>
        <time>2019-09-17T13:21:45.001Z</time>
      </trkpt>
      <trkpt lat="50.58665" lon="3.03439">
        <ele>33.733</ele>
        <time>2019-09-17T13:21:48.001Z</time>
      </trkpt>
      <trkpt lat="50.58676" lon="3.03437">
        <ele>34.375</ele>
        <time>2019-09-17T13:21:51.001Z</time>
      </trkpt>
      <trkpt lat="50.58686" lon="3.03435">
        <ele>35.112</ele>
        <time>2019-09-17T13:21:54.001Z</time>
      </trkpt>
      <trkpt lat="50.58696" lon="3.03434">
        <ele>35.507</ele>
        <time>2019-09-17T13:21:57.001Z</time>
      </trkpt>
      <trkpt lat="50.58705" lon="3.03432">
        <ele>36.205</ele>
        <time>2019-09-17T13:22:00.000Z</time>
      </trkpt>
      <trkpt lat="50.58714" lon="3.0343">
        <ele>36.862</ele>
        <time>2019-09-17T13:22:03.001Z</time>
      </trkpt>
      <trkpt lat="50.58723" lon="3.03429">
        <ele>36.886</ele>
        <time>2019-09-17T13:22:06.001Z</time>
      </trkpt>
      <trkpt lat="50.58732" lon="3.03426">
        <ele>37.362</ele>
        <time>2019-09-17T13:22:09.001Z</time>
      </trkpt>
      <trkpt lat="50.5874" lon="3.03424">
        <ele>37.781</ele>
        <time>2019-09-17T13:22:12.001Z</time>
      </trkpt>
      <trkpt lat="50.58749" lon="3.03422">
        <ele>38.23</ele>
        <time>2019-09-17T13:22:15.001Z</time>
      </trkpt>
      <trkpt lat="50.58759" lon="3.03421">
        <ele>38.712</ele>
        <time>2019-09-17T13:22:18.001Z</time>
      </trkpt>
      <trkpt lat="50.5877" lon="3.03419">
        <ele>38.585</ele>
        <time>2019-09-17T13:22:21.001Z</time>
      </trkpt>
      <trkpt lat="50.5878" lon="3.03418">
        <ele>38.687</ele>
        <time>2019-09-17T13:22:24.001Z</time>
      </trkpt>
      <trkpt lat="50.58789" lon="3.03419">
        <ele>38.468</ele>
        <time>2019-09-17T13:22:27.001Z</time>
      </trkpt>
      <trkpt lat="50.58799" lon="3.0342">
        <ele>38.373</ele>
        <time>2019-09-17T13:22:30.001Z</time>
      </trkpt>
      <trkpt lat="50.58808" lon="3.03422">
        <ele>37.942</ele>
        <time>2019-09-17T13:22:33.001Z</time>
      </trkpt>
      <trkpt lat="50.58817" lon="3.03424">
        <ele>37.586</ele>
        <time>2019-09-17T13:22:36.001Z</time>
      </trkpt>
      <trkpt lat="50.58826" lon="3.03425">
        <ele>37.305</ele>
        <time>2019-09-17T13:22:39.001Z</time>
      </trkpt>
      <trkpt lat="50.58835" lon="3.03427">
        <ele>37.316</ele>
        <time>2019-09-17T13:22:42.001Z</time>
      </trkpt>
      <trkpt lat="50.58843" lon="3.0343">
        <ele>37.402</ele>
        <time>2019-09-17T13:22:45.001Z</time>
      </trkpt>
      <trkpt lat="50.58851" lon="3.03432">
        <ele>37.296</ele>
        <time>2019-09-17T13:22:48.001Z</time>
      </trkpt>
      <trkpt lat="50.58858" lon="3.03436">
        <ele>37.156</ele>
        <time>2019-09-17T13:22:51.001Z</time>
      </trkpt>
      <trkpt lat="50.58867" lon="3.0344">
        <ele>36.99</ele>
        <time>2019-09-17T13:22:54.001Z</time>
      </trkpt>
      <trkpt lat="50.58875" lon="3.03443">
        <ele>37.313</ele>
        <time>2019-09-17T13:22:57.001Z</time>
      </trkpt>
      <trkpt lat="50.58884" lon="3.03445">
        <ele>37.674</ele>
        <time>2019-09-17T13:23:00.000Z</time>
      </trkpt>
      <trkpt lat="50.58894" lon="3.03449">
        <ele>37.563</ele>
        <time>2019-09-17T13:23:03.001Z</time>
      </trkpt>
      <trkpt lat="50.58902" lon="3.03451">
        <ele>37.283</ele>
        <time>2019-09-17T13:23:06.001Z</time>
      </trkpt>
      <trkpt lat="50.58911" lon="3.03454">
        <ele>37.268</ele>
        <time>2019-09-17T13:23:09.001Z</time>
      </trkpt>
      <trkpt lat="50.58921" lon="3.03457">
        <ele>37.294</ele>
        <time>2019-09-17T13:23:12.001Z</time>
      </trkpt>
      <trkpt lat="50.5893" lon="3.0346">
        <ele>37.376</ele>
        <time>2019-09-17T13:23:15.001Z</time>
      </trkpt>
      <trkpt lat="50.58938" lon="3.03463">
        <ele>38.072</ele>
        <time>2019-09-17T13:23:18.001Z</time>
      </trkpt>
      <trkpt lat="50.58948" lon="3.03467">
        <ele>37.752</ele>
        <time>2019-09-17T13:23:21.001Z</time>
      </trkpt>
      <trkpt lat="50.58959" lon="3.0347">
        <ele>37.498</ele>
        <time>2019-09-17T13:23:24.001Z</time>
      </trkpt>
      <trkpt lat="50.5897" lon="3.03473">
        <ele>36.741</ele>
        <time>2019-09-17T13:23:27.001Z</time>
      </trkpt>
      <trkpt lat="50.5898" lon="3.03477">
        <ele>37.042</ele>
        <time>2019-09-17T13:23:30.001Z</time>
      </trkpt>
      <trkpt lat="50.58989" lon="3.0348">
        <ele>37.392</ele>
        <time>2019-09-17T13:23:33.001Z</time>
      </trkpt>
      <trkpt lat="50.59" lon="3.03483">
        <ele>37.317</ele>
        <time>2019-09-17T13:23:36.001Z</time>
      </trkpt>
      <trkpt lat="50.5901" lon="3.03488">
        <ele>37.36</ele>
        <time>2019-09-17T13:23:39.001Z</time>
      </trkpt>
      <trkpt lat="50.5902" lon="3.03491">
        <ele>37.513</ele>
        <time>2019-09-17T13:23:42.001Z</time>
      </trkpt>
      <trkpt lat="50.5903" lon="3.03494">
        <ele>37.165</ele>
        <time>2019-09-17T13:23:45.001Z</time>
      </trkpt>
      <trkpt lat="50.59037" lon="3.03498">
        <ele>37.226</ele>
        <time>2019-09-17T13:23:48.001Z</time>
      </trkpt>
      <trkpt lat="50.5904" lon="3.03508">
        <ele>37.553</ele>
        <time>2019-09-17T13:23:51.001Z</time>
      </trkpt>
      <trkpt lat="50.59046" lon="3.03513">
        <ele>37.707</ele>
        <time>2019-09-17T13:23:54.001Z</time>
      </trkpt>
      <trkpt lat="50.59056" lon="3.0351">
        <ele>38.51</ele>
        <time>2019-09-17T13:23:57.001Z</time>
      </trkpt>
      <trkpt lat="50.59067" lon="3.0351">
        <ele>39.139</ele>
        <time>2019-09-17T13:24:00.000Z</time>
      </trkpt>
      <trkpt lat="50.59079" lon="3.03514">
        <ele>39.297</ele>
        <time>2019-09-17T13:24:03.001Z</time>
      </trkpt>
      <trkpt lat="50.59088" lon="3.03518">
        <ele>39.065</ele>
        <time>2019-09-17T13:24:06.001Z</time>
      </trkpt>
      <trkpt lat="50.59097" lon="3.03523">
        <ele>39.288</ele>
        <time>2019-09-17T13:24:09.001Z</time>
      </trkpt>
      <trkpt lat="50.59108" lon="3.03528">
        <ele>39.432</ele>
        <time>2019-09-17T13:24:12.001Z</time>
      </trkpt>
      <trkpt lat="50.59119" lon="3.03533">
        <ele>38.846</ele>
        <time>2019-09-17T13:24:15.001Z</time>
      </trkpt>
      <trkpt lat="50.5913" lon="3.03538">
        <ele>38.223</ele>
        <time>2019-09-17T13:24:18.001Z</time>
      </trkpt>
      <trkpt lat="50.59141" lon="3.03543">
        <ele>37.465</ele>
        <time>2019-09-17T13:24:21.001Z</time>
      </trkpt>
      <trkpt lat="50.59152" lon="3.03549">
        <ele>36.812</ele>
        <time>2019-09-17T13:24:24.001Z</time>
      </trkpt>
      <trkpt lat="50.59164" lon="3.03556">
        <ele>36.106</ele>
        <time>2019-09-17T13:24:27.001Z</time>
      </trkpt>
      <trkpt lat="50.59175" lon="3.03563">
        <ele>35.683</ele>
        <time>2019-09-17T13:24:30.001Z</time>
      </trkpt>
      <trkpt lat="50.59186" lon="3.0357">
        <ele>35.289</ele>
        <time>2019-09-17T13:24:33.001Z</time>
      </trkpt>
      <trkpt lat="50.59197" lon="3.03575">
        <ele>34.684</ele>
        <time>2019-09-17T13:24:36.001Z</time>
      </trkpt>
      <trkpt lat="50.59208" lon="3.03582">
        <ele>34.427</ele>
        <time>2019-09-17T13:24:39.001Z</time>
      </trkpt>
      <trkpt lat="50.59218" lon="3.03587">
        <ele>33.99</ele>
        <time>2019-09-17T13:24:42.001Z</time>
      </trkpt>
      <trkpt lat="50.59229" lon="3.03593">
        <ele>33.733</ele>
        <time>2019-09-17T13:24:45.001Z</time>
      </trkpt>
      <trkpt lat="50.5924" lon="3.03599">
        <ele>33.807</ele>
        <time>2019-09-17T13:24:48.001Z</time>
      </trkpt>
      <trkpt lat="50.59251" lon="3.03606">
        <ele>33.963</ele>
        <time>2019-09-17T13:24:51.001Z</time>
      </trkpt>
      <trkpt lat="50.59262" lon="3.03613">
        <ele>34.027</ele>
        <time>2019-09-17T13:24:54.001Z</time>
      </trkpt>
      <trkpt lat="50.59272" lon="3.0362">
        <ele>34.064</ele>
        <time>2019-09-17T13:24:57.001Z</time>
      </trkpt>
      <trkpt lat="50.59283" lon="3.03626">
        <ele>34.386</ele>
        <time>2019-09-17T13:25:00.000Z</time>
      </trkpt>
      <trkpt lat="50.59294" lon="3.03632">
        <ele>34.296</ele>
        <time>2019-09-17T13:25:03.001Z</time>
      </trkpt>
      <trkpt lat="50.59304" lon="3.03636">
        <ele>34.746</ele>
        <time>2019-09-17T13:25:06.001Z</time>
      </trkpt>
      <trkpt lat="50.59315" lon="3.03643">
        <ele>35.646</ele>
        <time>2019-09-17T13:25:09.001Z</time>
      </trkpt>
      <trkpt lat="50.59325" lon="3.03648">
        <ele>35.913</ele>
        <time>2019-09-17T13:25:12.001Z</time>
      </trkpt>
      <trkpt lat="50.59336" lon="3.03653">
        <ele>36.019</ele>
        <time>2019-09-17T13:25:15.001Z</time>
      </trkpt>
      <trkpt lat="50.59347" lon="3.03659">
        <ele>36.007</ele>
        <time>2019-09-17T13:25:18.001Z</time>
      </trkpt>
      <trkpt lat="50.59358" lon="3.03664">
        <ele>36.33</ele>
        <time>2019-09-17T13:25:21.001Z</time>
      </trkpt>
      <trkpt lat="50.59369" lon="3.03669">
        <ele>36.545</ele>
        <time>2019-09-17T13:25:24.001Z</time>
      </trkpt>
      <trkpt lat="50.59379" lon="3.03674">
        <ele>36.767</ele>
        <time>2019-09-17T13:25:27.001Z</time>
      </trkpt>
      <trkpt lat="50.5939" lon="3.0368">
        <ele>36.966</ele>
        <time>2019-09-17T13:25:30.001Z</time>
      </trkpt>
      <trkpt lat="50.594" lon="3.03686">
        <ele>37.386</ele>
        <time>2019-09-17T13:25:33.001Z</time>
      </trkpt>
      <trkpt lat="50.59411" lon="3.03692">
        <ele>37.547</ele>
        <time>2019-09-17T13:25:36.001Z</time>
      </trkpt>
      <trkpt lat="50.59422" lon="3.03696">
        <ele>38.127</ele>
        <time>2019-09-17T13:25:39.001Z</time>
      </trkpt>
      <trkpt lat="50.59433" lon="3.03702">
        <ele>38.328</ele>
        <time>2019-09-17T13:25:42.001Z</time>
      </trkpt>
      <trkpt lat="50.59443" lon="3.03707">
        <ele>38.211</ele>
        <time>2019-09-17T13:25:45.001Z</time>
      </trkpt>
      <trkpt lat="50.59453" lon="3.03711">
        <ele>38.376</ele>
        <time>2019-09-17T13:25:48.001Z</time>
      </trkpt>
      <trkpt lat="50.59463" lon="3.03714">
        <ele>38.425</ele>
        <time>2019-09-17T13:25:51.001Z</time>
      </trkpt>
      <trkpt lat="50.59473" lon="3.03719">
        <ele>38.842</ele>
        <time>2019-09-17T13:25:54.001Z</time>
      </trkpt>
      <trkpt lat="50.59483" lon="3.03723">
        <ele>39.317</ele>
        <time>2019-09-17T13:25:57.001Z</time>
      </trkpt>
      <trkpt lat="50.59493" lon="3.03727">
        <ele>39.5</ele>
        <time>2019-09-17T13:26:00.000Z</time>
      </trkpt>
      <trkpt lat="50.59503" lon="3.03732">
        <ele>39.704</ele>
        <time>2019-09-17T13:26:03.001Z</time>
      </trkpt>
      <trkpt lat="50.59513" lon="3.03737">
        <ele>40.027</ele>
        <time>2019-09-17T13:26:06.001Z</time>
      </trkpt>
      <trkpt lat="50.59523" lon="3.03741">
        <ele>40.221</ele>
        <time>2019-09-17T13:26:09.001Z</time>
      </trkpt>
      <trkpt lat="50.59534" lon="3.03745">
        <ele>40.426</ele>
        <time>2019-09-17T13:26:12.001Z</time>
      </trkpt>
      <trkpt lat="50.59545" lon="3.03747">
        <ele>40.356</ele>
        <time>2019-09-17T13:26:15.001Z</time>
      </trkpt>
      <trkpt lat="50.59556" lon="3.03751">
        <ele>40.5</ele>
        <time>2019-09-17T13:26:18.001Z</time>
      </trkpt>
      <trkpt lat="50.59567" lon="3.03756">
        <ele>40.414</ele>
        <time>2019-09-17T13:26:21.001Z</time>
      </trkpt>
      <trkpt lat="50.59578" lon="3.03761">
        <ele>40.47</ele>
        <time>2019-09-17T13:26:24.001Z</time>
      </trkpt>
      <trkpt lat="50.59588" lon="3.03764">
        <ele>40.341</ele>
        <time>2019-09-17T13:26:27.001Z</time>
      </trkpt>
      <trkpt lat="50.59598" lon="3.03768">
        <ele>40.083</ele>
        <time>2019-09-17T13:26:30.001Z</time>
      </trkpt>
      <trkpt lat="50.59608" lon="3.03772">
        <ele>40.176</ele>
        <time>2019-09-17T13:26:33.001Z</time>
      </trkpt>
      <trkpt lat="50.59617" lon="3.03776">
        <ele>40.108</ele>
        <time>2019-09-17T13:26:36.001Z</time>
      </trkpt>
      <trkpt lat="50.59627" lon="3.0378">
        <ele>40.252</ele>
        <time>2019-09-17T13:26:39.001Z</time>
      </trkpt>
      <trkpt lat="50.59636" lon="3.03785">
        <ele>40.811</ele>
        <time>2019-09-17T13:26:42.001Z</time>
      </trkpt>
      <trkpt lat="50.59646" lon="3.03788">
        <ele>40.398</ele>
        <time>2019-09-17T13:26:45.001Z</time>
      </trkpt>
      <trkpt lat="50.59656" lon="3.03794">
        <ele>41.2</ele>
        <time>2019-09-17T13:26:48.001Z</time>
      </trkpt>
      <trkpt lat="50.59664" lon="3.03797">
        <ele>41.904</ele>
        <time>2019-09-17T13:26:51.001Z</time>
      </trkpt>
      <trkpt lat="50.59672" lon="3.038">
        <ele>42.564</ele>
        <time>2019-09-17T13:26:54.001Z</time>
      </trkpt>
      <trkpt lat="50.59681" lon="3.03802">
        <ele>43.174</ele>
        <time>2019-09-17T13:26:57.001Z</time>
      </trkpt>
      <trkpt lat="50.59692" lon="3.03804">
        <ele>43.362</ele>
        <time>2019-09-17T13:27:00.000Z</time>
      </trkpt>
      <trkpt lat="50.59702" lon="3.03803">
        <ele>43.866</ele>
        <time>2019-09-17T13:27:03.001Z</time>
      </trkpt>
      <trkpt lat="50.59714" lon="3.03805">
        <ele>43.931</ele>
        <time>2019-09-17T13:27:06.001Z</time>
      </trkpt>
      <trkpt lat="50.59725" lon="3.0381">
        <ele>43.916</ele>
        <time>2019-09-17T13:27:09.001Z</time>
      </trkpt>
      <trkpt lat="50.59735" lon="3.03814">
        <ele>44.181</ele>
        <time>2019-09-17T13:27:12.001Z</time>
      </trkpt>
      <trkpt lat="50.59744" lon="3.03816">
        <ele>44.455</ele>
        <time>2019-09-17T13:27:15.001Z</time>
      </trkpt>
      <trkpt lat="50.59754" lon="3.03821">
        <ele>44.688</ele>
        <time>2019-09-17T13:27:18.001Z</time>
      </trkpt>
      <trkpt lat="50.59765" lon="3.03826">
        <ele>45.241</ele>
        <time>2019-09-17T13:27:21.001Z</time>
      </trkpt>
      <trkpt lat="50.59775" lon="3.0383">
        <ele>45.492</ele>
        <time>2019-09-17T13:27:24.001Z</time>
      </trkpt>
      <trkpt lat="50.59786" lon="3.03834">
        <ele>45.696</ele>
        <time>2019-09-17T13:27:27.001Z</time>
      </trkpt>
      <trkpt lat="50.59796" lon="3.03838">
        <ele>46.271</ele>
        <time>2019-09-17T13:27:30.001Z</time>
      </trkpt>
      <trkpt lat="50.59806" lon="3.03841">
        <ele>46.368</ele>
        <time>2019-09-17T13:27:33.001Z</time>
      </trkpt>
      <trkpt lat="50.59818" lon="3.03845">
        <ele>46.187</ele>
        <time>2019-09-17T13:27:36.001Z</time>
      </trkpt>
      <trkpt lat="50.59831" lon="3.03848">
        <ele>46.269</ele>
        <time>2019-09-17T13:27:39.001Z</time>
      </trkpt>
      <trkpt lat="50.59843" lon="3.0385">
        <ele>46.813</ele>
        <time>2019-09-17T13:27:42.001Z</time>
      </trkpt>
      <trkpt lat="50.59855" lon="3.03854">
        <ele>46.847</ele>
        <time>2019-09-17T13:27:45.001Z</time>
      </trkpt>
      <trkpt lat="50.59867" lon="3.03856">
        <ele>47.43</ele>
        <time>2019-09-17T13:27:48.001Z</time>
      </trkpt>
      <trkpt lat="50.5988" lon="3.0386">
        <ele>47.595</ele>
        <time>2019-09-17T13:27:51.001Z</time>
      </trkpt>
      <trkpt lat="50.59895" lon="3.03864">
        <ele>47.063</ele>
        <time>2019-09-17T13:27:54.001Z</time>
      </trkpt>
      <trkpt lat="50.5991" lon="3.03868">
        <ele>46.283</ele>
        <time>2019-09-17T13:27:57.001Z</time>
      </trkpt>
      <trkpt lat="50.59925" lon="3.03874">
        <ele>45.709</ele>
        <time>2019-09-17T13:28:00.000Z</time>
      </trkpt>
      <trkpt lat="50.5994" lon="3.03879">
        <ele>45.526</ele>
        <time>2019-09-17T13:28:03.001Z</time>
      </trkpt>
      <trkpt lat="50.59955" lon="3.03882">
        <ele>45.325</ele>
        <time>2019-09-17T13:28:06.001Z</time>
      </trkpt>
      <trkpt lat="50.59972" lon="3.03888">
        <ele>45.009</ele>
        <time>2019-09-17T13:28:09.001Z</time>
      </trkpt>
      <trkpt lat="50.59989" lon="3.03894">
        <ele>44.429</ele>
        <time>2019-09-17T13:28:12.001Z</time>
      </trkpt>
      <trkpt lat="50.60007" lon="3.03901">
        <ele>44.166</ele>
        <time>2019-09-17T13:28:15.001Z</time>
      </trkpt>
      <trkpt lat="50.60025" lon="3.03909">
        <ele>43.289</ele>
        <time>2019-09-17T13:28:18.001Z</time>
      </trkpt>
      <trkpt lat="50.60042" lon="3.03917">
        <ele>42.841</ele>
        <time>2019-09-17T13:28:21.001Z</time>
      </trkpt>
      <trkpt lat="50.60057" lon="3.03926">
        <ele>42.942</ele>
        <time>2019-09-17T13:28:24.001Z</time>
      </trkpt>
      <trkpt lat="50.60074" lon="3.03931">
        <ele>43.434</ele>
        <time>2019-09-17T13:28:27.001Z</time>
      </trkpt>
      <trkpt lat="50.60087" lon="3.03935">
        <ele>43.998</ele>
        <time>2019-09-17T13:28:30.001Z</time>
      </trkpt>
      <trkpt lat="50.60102" lon="3.03937">
        <ele>45.247</ele>
        <time>2019-09-17T13:28:33.001Z</time>
      </trkpt>
      <trkpt lat="50.60117" lon="3.03942">
        <ele>46.519</ele>
        <time>2019-09-17T13:28:36.001Z</time>
      </trkpt>
      <trkpt lat="50.6013" lon="3.0395">
        <ele>46.939</ele>
        <time>2019-09-17T13:28:39.001Z</time>
      </trkpt>
      <trkpt lat="50.60138" lon="3.03956">
        <ele>47.013</ele>
        <time>2019-09-17T13:28:42.001Z</time>
      </trkpt>
      <trkpt lat="50.60144" lon="3.0396">
        <ele>45.623</ele>
        <time>2019-09-17T13:28:45.001Z</time>
      </trkpt>
      <trkpt lat="50.60145" lon="3.03961">
        <ele>44.792</ele>
        <time>2019-09-17T13:28:48.001Z</time>
      </trkpt>
      <trkpt lat="50.60145" lon="3.03961">
        <ele>44.792</ele>
        <time>2019-09-17T13:29:06.001Z</time>
      </trkpt>
      <trkpt lat="50.60147" lon="3.03962">
        <ele>44.372</ele>
        <time>2019-09-17T13:29:09.001Z</time>
      </trkpt>
      <trkpt lat="50.60154" lon="3.03966">
        <ele>44.267</ele>
        <time>2019-09-17T13:29:12.001Z</time>
      </trkpt>
      <trkpt lat="50.60162" lon="3.03971">
        <ele>44.209</ele>
        <time>2019-09-17T13:29:15.001Z</time>
      </trkpt>
      <trkpt lat="50.60171" lon="3.03978">
        <ele>43.703</ele>
        <time>2019-09-17T13:29:18.001Z</time>
      </trkpt>
      <trkpt lat="50.60184" lon="3.03987">
        <ele>42.929</ele>
        <time>2019-09-17T13:29:21.001Z</time>
      </trkpt>
      <trkpt lat="50.60198" lon="3.03995">
        <ele>42.394</ele>
        <time>2019-09-17T13:29:24.001Z</time>
      </trkpt>
      <trkpt lat="50.60211" lon="3.04003">
        <ele>42.711</ele>
        <time>2019-09-17T13:29:27.001Z</time>
      </trkpt>
      <trkpt lat="50.60225" lon="3.04011">
        <ele>43.8</ele>
        <time>2019-09-17T13:29:30.001Z</time>
      </trkpt>
      <trkpt lat="50.60239" lon="3.04019">
        <ele>44.199</ele>
        <time>2019-09-17T13:29:33.001Z</time>
      </trkpt>
      <trkpt lat="50.60251" lon="3.04026">
        <ele>45.077</ele>
        <time>2019-09-17T13:29:36.001Z</time>
      </trkpt>
      <trkpt lat="50.60263" lon="3.04032">
        <ele>46.939</ele>
        <time>2019-09-17T13:29:39.001Z</time>
      </trkpt>
      <trkpt lat="50.60275" lon="3.04038">
        <ele>48.616</ele>
        <time>2019-09-17T13:29:42.001Z</time>
      </trkpt>
      <trkpt lat="50.60287" lon="3.04046">
        <ele>49.986</ele>
        <time>2019-09-17T13:29:45.001Z</time>
      </trkpt>
      <trkpt lat="50.60301" lon="3.04054">
        <ele>52.043</ele>
        <time>2019-09-17T13:29:48.001Z</time>
      </trkpt>
      <trkpt lat="50.60314" lon="3.04063">
        <ele>53.398</ele>
        <time>2019-09-17T13:29:51.001Z</time>
      </trkpt>
      <trkpt lat="50.60328" lon="3.04073">
        <ele>53.835</ele>
        <time>2019-09-17T13:29:54.001Z</time>
      </trkpt>
      <trkpt lat="50.60344" lon="3.04083">
        <ele>53.195</ele>
        <time>2019-09-17T13:29:57.001Z</time>
      </trkpt>
      <trkpt lat="50.60358" lon="3.04095">
        <ele>54.124</ele>
        <time>2019-09-17T13:30:00.000Z</time>
      </trkpt>
      <trkpt lat="50.60371" lon="3.04105">
        <ele>54.336</ele>
        <time>2019-09-17T13:30:03.001Z</time>
      </trkpt>
      <trkpt lat="50.60385" lon="3.04114">
        <ele>53.911</ele>
        <time>2019-09-17T13:30:06.001Z</time>
      </trkpt>
      <trkpt lat="50.60399" lon="3.04123">
        <ele>53.461</ele>
        <time>2019-09-17T13:30:09.001Z</time>
      </trkpt>
      <trkpt lat="50.60414" lon="3.0413">
        <ele>53.493</ele>
        <time>2019-09-17T13:30:12.001Z</time>
      </trkpt>
      <trkpt lat="50.60428" lon="3.04137">
        <ele>54.854</ele>
        <time>2019-09-17T13:30:15.001Z</time>
      </trkpt>
      <trkpt lat="50.60441" lon="3.04144">
        <ele>55.337</ele>
        <time>2019-09-17T13:30:18.001Z</time>
      </trkpt>
      <trkpt lat="50.60455" lon="3.04152">
        <ele>55.049</ele>
        <time>2019-09-17T13:30:21.001Z</time>
      </trkpt>
      <trkpt lat="50.60469" lon="3.04159">
        <ele>54.824</ele>
        <time>2019-09-17T13:30:24.001Z</time>
      </trkpt>
      <trkpt lat="50.60483" lon="3.04167">
        <ele>54.912</ele>
        <time>2019-09-17T13:30:27.001Z</time>
      </trkpt>
      <trkpt lat="50.60497" lon="3.04177">
        <ele>55.592</ele>
        <time>2019-09-17T13:30:30.001Z</time>
      </trkpt>
      <trkpt lat="50.60511" lon="3.04186">
        <ele>56.499</ele>
        <time>2019-09-17T13:30:33.001Z</time>
      </trkpt>
      <trkpt lat="50.60525" lon="3.04196">
        <ele>56.213</ele>
        <time>2019-09-17T13:30:36.001Z</time>
      </trkpt>
      <trkpt lat="50.60539" lon="3.04206">
        <ele>55.831</ele>
        <time>2019-09-17T13:30:39.001Z</time>
      </trkpt>
      <trkpt lat="50.60553" lon="3.04216">
        <ele>55.417</ele>
        <time>2019-09-17T13:30:42.001Z</time>
      </trkpt>
      <trkpt lat="50.60568" lon="3.04226">
        <ele>54.6</ele>
        <time>2019-09-17T13:30:45.001Z</time>
      </trkpt>
      <trkpt lat="50.60583" lon="3.04237">
        <ele>53.489</ele>
        <time>2019-09-17T13:30:48.001Z</time>
      </trkpt>
      <trkpt lat="50.60597" lon="3.04246">
        <ele>52.5</ele>
        <time>2019-09-17T13:30:51.001Z</time>
      </trkpt>
      <trkpt lat="50.60611" lon="3.04255">
        <ele>52.17</ele>
        <time>2019-09-17T13:30:54.001Z</time>
      </trkpt>
      <trkpt lat="50.60625" lon="3.04263">
        <ele>52.208</ele>
        <time>2019-09-17T13:30:57.001Z</time>
      </trkpt>
      <trkpt lat="50.60638" lon="3.04272">
        <ele>52.655</ele>
        <time>2019-09-17T13:31:00.000Z</time>
      </trkpt>
      <trkpt lat="50.6065" lon="3.04282">
        <ele>53.3</ele>
        <time>2019-09-17T13:31:03.001Z</time>
      </trkpt>
      <trkpt lat="50.6066" lon="3.0429">
        <ele>52.583</ele>
        <time>2019-09-17T13:31:06.001Z</time>
      </trkpt>
      <trkpt lat="50.60668" lon="3.04295">
        <ele>52.884</ele>
        <time>2019-09-17T13:31:09.001Z</time>
      </trkpt>
      <trkpt lat="50.60674" lon="3.04299">
        <ele>53.862</ele>
        <time>2019-09-17T13:31:12.001Z</time>
      </trkpt>
      <trkpt lat="50.60675" lon="3.04301">
        <ele>53.576</ele>
        <time>2019-09-17T13:31:15.001Z</time>
      </trkpt>
      <trkpt lat="50.60675" lon="3.04301">
        <ele>53.576</ele>
        <time>2019-09-17T13:31:36.001Z</time>
      </trkpt>
      <trkpt lat="50.60676" lon="3.04302">
        <ele>53.432</ele>
        <time>2019-09-17T13:31:39.001Z</time>
      </trkpt>
      <trkpt lat="50.60686" lon="3.04309">
        <ele>53.92</ele>
        <time>2019-09-17T13:31:45.001Z</time>
      </trkpt>
      <trkpt lat="50.60695" lon="3.04316">
        <ele>54.592</ele>
        <time>2019-09-17T13:31:48.001Z</time>
      </trkpt>
      <trkpt lat="50.60706" lon="3.04319">
        <ele>55.079</ele>
        <time>2019-09-17T13:31:51.001Z</time>
      </trkpt>
      <trkpt lat="50.60718" lon="3.04325">
        <ele>55.432</ele>
        <time>2019-09-17T13:31:54.001Z</time>
      </trkpt>
      <trkpt lat="50.60733" lon="3.04334">
        <ele>56.629</ele>
        <time>2019-09-17T13:31:57.001Z</time>
      </trkpt>
      <trkpt lat="50.60747" lon="3.04342">
        <ele>57.361</ele>
        <time>2019-09-17T13:32:00.000Z</time>
      </trkpt>
      <trkpt lat="50.6076" lon="3.04351">
        <ele>58.41</ele>
        <time>2019-09-17T13:32:03.001Z</time>
      </trkpt>
      <trkpt lat="50.60774" lon="3.04359">
        <ele>59.322</ele>
        <time>2019-09-17T13:32:06.001Z</time>
      </trkpt>
      <trkpt lat="50.60789" lon="3.04367">
        <ele>59.157</ele>
        <time>2019-09-17T13:32:09.001Z</time>
      </trkpt>
      <trkpt lat="50.60802" lon="3.04377">
        <ele>59.601</ele>
        <time>2019-09-17T13:32:12.001Z</time>
      </trkpt>
      <trkpt lat="50.60817" lon="3.04387">
        <ele>59.891</ele>
        <time>2019-09-17T13:32:15.001Z</time>
      </trkpt>
      <trkpt lat="50.60831" lon="3.04396">
        <ele>59.286</ele>
        <time>2019-09-17T13:32:18.001Z</time>
      </trkpt>
      <trkpt lat="50.60846" lon="3.04408">
        <ele>58.134</ele>
        <time>2019-09-17T13:32:21.001Z</time>
      </trkpt>
      <trkpt lat="50.60859" lon="3.04419">
        <ele>57.592</ele>
        <time>2019-09-17T13:32:24.001Z</time>
      </trkpt>
      <trkpt lat="50.60874" lon="3.04428">
        <ele>56.77</ele>
        <time>2019-09-17T13:32:27.001Z</time>
      </trkpt>
      <trkpt lat="50.6089" lon="3.04438">
        <ele>55.422</ele>
        <time>2019-09-17T13:32:30.001Z</time>
      </trkpt>
      <trkpt lat="50.60905" lon="3.04445">
        <ele>55.544</ele>
        <time>2019-09-17T13:32:33.001Z</time>
      </trkpt>
      <trkpt lat="50.6092" lon="3.04453">
        <ele>55.427</ele>
        <time>2019-09-17T13:32:36.001Z</time>
      </trkpt>
      <trkpt lat="50.60936" lon="3.04461">
        <ele>55.342</ele>
        <time>2019-09-17T13:32:39.001Z</time>
      </trkpt>
      <trkpt lat="50.60951" lon="3.04469">
        <ele>54.722</ele>
        <time>2019-09-17T13:32:42.001Z</time>
      </trkpt>
      <trkpt lat="50.60965" lon="3.04479">
        <ele>55.358</ele>
        <time>2019-09-17T13:32:45.001Z</time>
      </trkpt>
      <trkpt lat="50.60979" lon="3.04489">
        <ele>54.992</ele>
        <time>2019-09-17T13:32:48.001Z</time>
      </trkpt>
      <trkpt lat="50.60994" lon="3.04496">
        <ele>54.582</ele>
        <time>2019-09-17T13:32:51.001Z</time>
      </trkpt>
      <trkpt lat="50.61009" lon="3.04505">
        <ele>54.411</ele>
        <time>2019-09-17T13:32:54.001Z</time>
      </trkpt>
      <trkpt lat="50.61023" lon="3.04515">
        <ele>55.237</ele>
        <time>2019-09-17T13:32:57.001Z</time>
      </trkpt>
      <trkpt lat="50.61037" lon="3.04525">
        <ele>55.801</ele>
        <time>2019-09-17T13:33:00.000Z</time>
      </trkpt>
      <trkpt lat="50.61051" lon="3.04535">
        <ele>56.01</ele>
        <time>2019-09-17T13:33:03.001Z</time>
      </trkpt>
      <trkpt lat="50.61066" lon="3.04544">
        <ele>55.397</ele>
        <time>2019-09-17T13:33:06.001Z</time>
      </trkpt>
      <trkpt lat="50.61081" lon="3.04553">
        <ele>55.405</ele>
        <time>2019-09-17T13:33:09.001Z</time>
      </trkpt>
      <trkpt lat="50.61096" lon="3.0456">
        <ele>55.027</ele>
        <time>2019-09-17T13:33:12.001Z</time>
      </trkpt>
      <trkpt lat="50.61109" lon="3.04567">
        <ele>55.283</ele>
        <time>2019-09-17T13:33:15.001Z</time>
      </trkpt>
      <trkpt lat="50.61122" lon="3.04577">
        <ele>55.644</ele>
        <time>2019-09-17T13:33:18.001Z</time>
      </trkpt>
      <trkpt lat="50.61135" lon="3.04586">
        <ele>55.428</ele>
        <time>2019-09-17T13:33:21.001Z</time>
      </trkpt>
      <trkpt lat="50.61147" lon="3.04596">
        <ele>54.88</ele>
        <time>2019-09-17T13:33:24.001Z</time>
      </trkpt>
      <trkpt lat="50.61156" lon="3.04604">
        <ele>53.942</ele>
        <time>2019-09-17T13:33:27.001Z</time>
      </trkpt>
      <trkpt lat="50.61165" lon="3.04608">
        <ele>52.892</ele>
        <time>2019-09-17T13:33:30.001Z</time>
      </trkpt>
      <trkpt lat="50.61169" lon="3.0461">
        <ele>51.858</ele>
        <time>2019-09-17T13:33:33.001Z</time>
      </trkpt>
      <trkpt lat="50.61169" lon="3.0461">
        <ele>51.858</ele>
        <time>2019-09-17T13:34:09.001Z</time>
      </trkpt>
      <trkpt lat="50.61169" lon="3.04611">
        <ele>52.134</ele>
        <time>2019-09-17T13:34:12.001Z</time>
      </trkpt>
      <trkpt lat="50.61173" lon="3.04615">
        <ele>53.08</ele>
        <time>2019-09-17T13:34:15.001Z</time>
      </trkpt>
      <trkpt lat="50.61179" lon="3.04624">
        <ele>53.723</ele>
        <time>2019-09-17T13:34:18.001Z</time>
      </trkpt>
      <trkpt lat="50.61187" lon="3.0463">
        <ele>54.217</ele>
        <time>2019-09-17T13:34:21.001Z</time>
      </trkpt>
      <trkpt lat="50.61197" lon="3.04638">
        <ele>55.328</ele>
        <time>2019-09-17T13:34:24.001Z</time>
      </trkpt>
      <trkpt lat="50.61209" lon="3.04645">
        <ele>55.697</ele>
        <time>2019-09-17T13:34:27.001Z</time>
      </trkpt>
      <trkpt lat="50.61221" lon="3.04652">
        <ele>55.867</ele>
        <time>2019-09-17T13:34:30.001Z</time>
      </trkpt>
      <trkpt lat="50.61234" lon="3.04661">
        <ele>55.387</ele>
        <time>2019-09-17T13:34:33.001Z</time>
      </trkpt>
      <trkpt lat="50.61249" lon="3.0467">
        <ele>54.592</ele>
        <time>2019-09-17T13:34:36.001Z</time>
      </trkpt>
      <trkpt lat="50.61265" lon="3.04684">
        <ele>54.009</ele>
        <time>2019-09-17T13:34:39.001Z</time>
      </trkpt>
      <trkpt lat="50.61282" lon="3.04699">
        <ele>53.342</ele>
        <time>2019-09-17T13:34:42.001Z</time>
      </trkpt>
      <trkpt lat="50.61298" lon="3.04713">
        <ele>53.449</ele>
        <time>2019-09-17T13:34:45.001Z</time>
      </trkpt>
      <trkpt lat="50.61313" lon="3.04721">
        <ele>52.904</ele>
        <time>2019-09-17T13:34:48.001Z</time>
      </trkpt>
      <trkpt lat="50.61328" lon="3.04729">
        <ele>52.751</ele>
        <time>2019-09-17T13:34:51.001Z</time>
      </trkpt>
      <trkpt lat="50.61344" lon="3.04738">
        <ele>52.93</ele>
        <time>2019-09-17T13:34:54.001Z</time>
      </trkpt>
      <trkpt lat="50.6136" lon="3.04748">
        <ele>53.059</ele>
        <time>2019-09-17T13:34:57.001Z</time>
      </trkpt>
      <trkpt lat="50.61376" lon="3.04755">
        <ele>52.975</ele>
        <time>2019-09-17T13:35:00.000Z</time>
      </trkpt>
      <trkpt lat="50.61391" lon="3.04764">
        <ele>53.994</ele>
        <time>2019-09-17T13:35:03.001Z</time>
      </trkpt>
      <trkpt lat="50.61406" lon="3.04774">
        <ele>54.487</ele>
        <time>2019-09-17T13:35:06.001Z</time>
      </trkpt>
      <trkpt lat="50.61421" lon="3.04785">
        <ele>55.633</ele>
        <time>2019-09-17T13:35:09.001Z</time>
      </trkpt>
      <trkpt lat="50.61435" lon="3.04796">
        <ele>56.074</ele>
        <time>2019-09-17T13:35:12.001Z</time>
      </trkpt>
      <trkpt lat="50.61448" lon="3.04803">
        <ele>56.61</ele>
        <time>2019-09-17T13:35:15.001Z</time>
      </trkpt>
      <trkpt lat="50.61456" lon="3.04809">
        <ele>55.756</ele>
        <time>2019-09-17T13:35:18.001Z</time>
      </trkpt>
      <trkpt lat="50.61464" lon="3.04815">
        <ele>54.52</ele>
        <time>2019-09-17T13:35:21.001Z</time>
      </trkpt>
      <trkpt lat="50.61472" lon="3.0482">
        <ele>53.082</ele>
        <time>2019-09-17T13:35:24.001Z</time>
      </trkpt>
      <trkpt lat="50.6148" lon="3.04823">
        <ele>53.502</ele>
        <time>2019-09-17T13:35:27.001Z</time>
      </trkpt>
      <trkpt lat="50.61491" lon="3.0483">
        <ele>53.56</ele>
        <time>2019-09-17T13:35:30.001Z</time>
      </trkpt>
      <trkpt lat="50.61506" lon="3.04838">
        <ele>52.112</ele>
        <time>2019-09-17T13:35:33.001Z</time>
      </trkpt>
      <trkpt lat="50.61521" lon="3.04842">
        <ele>51.02</ele>
        <time>2019-09-17T13:35:36.001Z</time>
      </trkpt>
      <trkpt lat="50.61535" lon="3.04844">
        <ele>49.717</ele>
        <time>2019-09-17T13:35:39.001Z</time>
      </trkpt>
      <trkpt lat="50.61548" lon="3.04844">
        <ele>48.261</ele>
        <time>2019-09-17T13:35:42.001Z</time>
      </trkpt>
      <trkpt lat="50.6156" lon="3.0484">
        <ele>49.539</ele>
        <time>2019-09-17T13:35:45.001Z</time>
      </trkpt>
      <trkpt lat="50.61572" lon="3.04837">
        <ele>49.68</ele>
        <time>2019-09-17T13:35:48.001Z</time>
      </trkpt>
      <trkpt lat="50.61585" lon="3.04834">
        <ele>49.644</ele>
        <time>2019-09-17T13:35:51.002Z</time>
      </trkpt>
      <trkpt lat="50.61597" lon="3.04832">
        <ele>49.206</ele>
        <time>2019-09-17T13:35:54.001Z</time>
      </trkpt>
      <trkpt lat="50.61611" lon="3.04829">
        <ele>47.898</ele>
        <time>2019-09-17T13:35:57.001Z</time>
      </trkpt>
      <trkpt lat="50.61627" lon="3.04827">
        <ele>46.393</ele>
        <time>2019-09-17T13:36:00.000Z</time>
      </trkpt>
      <trkpt lat="50.61645" lon="3.04826">
        <ele>44.421</ele>
        <time>2019-09-17T13:36:03.001Z</time>
      </trkpt>
      <trkpt lat="50.61662" lon="3.04825">
        <ele>42.675</ele>
        <time>2019-09-17T13:36:06.001Z</time>
      </trkpt>
      <trkpt lat="50.61679" lon="3.04823">
        <ele>40.332</ele>
        <time>2019-09-17T13:36:09.001Z</time>
      </trkpt>
      <trkpt lat="50.61697" lon="3.04827">
        <ele>38.936</ele>
        <time>2019-09-17T13:36:12.001Z</time>
      </trkpt>
      <trkpt lat="50.61714" lon="3.04838">
        <ele>38.261</ele>
        <time>2019-09-17T13:36:15.001Z</time>
      </trkpt>
      <trkpt lat="50.61729" lon="3.04859">
        <ele>37.337</ele>
        <time>2019-09-17T13:36:18.001Z</time>
      </trkpt>
      <trkpt lat="50.61742" lon="3.04885">
        <ele>37.119</ele>
        <time>2019-09-17T13:36:21.001Z</time>
      </trkpt>
      <trkpt lat="50.61754" lon="3.04909">
        <ele>37.663</ele>
        <time>2019-09-17T13:36:24.001Z</time>
      </trkpt>
      <trkpt lat="50.61766" lon="3.04931">
        <ele>37.481</ele>
        <time>2019-09-17T13:36:27.001Z</time>
      </trkpt>
      <trkpt lat="50.61775" lon="3.04951">
        <ele>37.641</ele>
        <time>2019-09-17T13:36:30.001Z</time>
      </trkpt>
      <trkpt lat="50.61782" lon="3.04967">
        <ele>37.81</ele>
        <time>2019-09-17T13:36:33.001Z</time>
      </trkpt>
      <trkpt lat="50.61787" lon="3.04994">
        <ele>37.593</ele>
        <time>2019-09-17T13:36:36.001Z</time>
      </trkpt>
      <trkpt lat="50.6179" lon="3.05019">
        <ele>36.918</ele>
        <time>2019-09-17T13:36:39.001Z</time>
      </trkpt>
      <trkpt lat="50.61796" lon="3.05038">
        <ele>36.056</ele>
        <time>2019-09-17T13:36:42.001Z</time>
      </trkpt>
      <trkpt lat="50.61806" lon="3.05053">
        <ele>35.028</ele>
        <time>2019-09-17T13:36:45.001Z</time>
      </trkpt>
      <trkpt lat="50.61811" lon="3.05074">
        <ele>33.129</ele>
        <time>2019-09-17T13:36:48.001Z</time>
      </trkpt>
      <trkpt lat="50.6181" lon="3.051">
        <ele>31.251</ele>
        <time>2019-09-17T13:36:51.001Z</time>
      </trkpt>
      <trkpt lat="50.61809" lon="3.05127">
        <ele>30.158</ele>
        <time>2019-09-17T13:36:54.001Z</time>
      </trkpt>
      <trkpt lat="50.61808" lon="3.05154">
        <ele>29.95</ele>
        <time>2019-09-17T13:36:57.001Z</time>
      </trkpt>
      <trkpt lat="50.61807" lon="3.05178">
        <ele>29.43</ele>
        <time>2019-09-17T13:37:00.000Z</time>
      </trkpt>
      <trkpt lat="50.61805" lon="3.05203">
        <ele>29.63</ele>
        <time>2019-09-17T13:37:03.001Z</time>
      </trkpt>
      <trkpt lat="50.61805" lon="3.05229">
        <ele>29.852</ele>
        <time>2019-09-17T13:37:06.001Z</time>
      </trkpt>
      <trkpt lat="50.61805" lon="3.05255">
        <ele>29.909</ele>
        <time>2019-09-17T13:37:09.001Z</time>
      </trkpt>
      <trkpt lat="50.61803" lon="3.0528">
        <ele>29.804</ele>
        <time>2019-09-17T13:37:12.001Z</time>
      </trkpt>
      <trkpt lat="50.61801" lon="3.05305">
        <ele>30.39</ele>
        <time>2019-09-17T13:37:15.001Z</time>
      </trkpt>
      <trkpt lat="50.61799" lon="3.05329">
        <ele>31.322</ele>
        <time>2019-09-17T13:37:18.001Z</time>
      </trkpt>
      <trkpt lat="50.61797" lon="3.05355">
        <ele>32.082</ele>
        <time>2019-09-17T13:37:21.001Z</time>
      </trkpt>
      <trkpt lat="50.61796" lon="3.05381">
        <ele>31.375</ele>
        <time>2019-09-17T13:37:24.001Z</time>
      </trkpt>
      <trkpt lat="50.61794" lon="3.05407">
        <ele>30.698</ele>
        <time>2019-09-17T13:37:27.001Z</time>
      </trkpt>
      <trkpt lat="50.61792" lon="3.05431">
        <ele>30.527</ele>
        <time>2019-09-17T13:37:30.001Z</time>
      </trkpt>
      <trkpt lat="50.6179" lon="3.05457">
        <ele>30.095</ele>
        <time>2019-09-17T13:37:33.001Z</time>
      </trkpt>
      <trkpt lat="50.61788" lon="3.05484">
        <ele>30.277</ele>
        <time>2019-09-17T13:37:36.001Z</time>
      </trkpt>
      <trkpt lat="50.61786" lon="3.05512">
        <ele>29.985</ele>
        <time>2019-09-17T13:37:39.001Z</time>
      </trkpt>
      <trkpt lat="50.61784" lon="3.05539">
        <ele>30.276</ele>
        <time>2019-09-17T13:37:42.001Z</time>
      </trkpt>
      <trkpt lat="50.61782" lon="3.05566">
        <ele>30.601</ele>
        <time>2019-09-17T13:37:45.001Z</time>
      </trkpt>
      <trkpt lat="50.61781" lon="3.05594">
        <ele>30.384</ele>
        <time>2019-09-17T13:37:48.001Z</time>
      </trkpt>
      <trkpt lat="50.61779" lon="3.0562">
        <ele>31.251</ele>
        <time>2019-09-17T13:37:51.001Z</time>
      </trkpt>
      <trkpt lat="50.61778" lon="3.05647">
        <ele>31.86</ele>
        <time>2019-09-17T13:37:54.001Z</time>
      </trkpt>
      <trkpt lat="50.61777" lon="3.05674">
        <ele>32.452</ele>
        <time>2019-09-17T13:37:57.001Z</time>
      </trkpt>
      <trkpt lat="50.61775" lon="3.057">
        <ele>33.08</ele>
        <time>2019-09-17T13:38:00.000Z</time>
      </trkpt>
      <trkpt lat="50.61774" lon="3.05726">
        <ele>34.3</ele>
        <time>2019-09-17T13:38:03.001Z</time>
      </trkpt>
      <trkpt lat="50.61772" lon="3.05751">
        <ele>35.32</ele>
        <time>2019-09-17T13:38:06.001Z</time>
      </trkpt>
      <trkpt lat="50.61769" lon="3.05778">
        <ele>35.57</ele>
        <time>2019-09-17T13:38:09.001Z</time>
      </trkpt>
      <trkpt lat="50.61767" lon="3.05804">
        <ele>35.796</ele>
        <time>2019-09-17T13:38:12.001Z</time>
      </trkpt>
      <trkpt lat="50.61766" lon="3.05828">
        <ele>36.275</ele>
        <time>2019-09-17T13:38:15.001Z</time>
      </trkpt>
      <trkpt lat="50.61764" lon="3.05854">
        <ele>36.633</ele>
        <time>2019-09-17T13:38:18.001Z</time>
      </trkpt>
      <trkpt lat="50.61763" lon="3.05878">
        <ele>37.396</ele>
        <time>2019-09-17T13:38:21.001Z</time>
      </trkpt>
      <trkpt lat="50.61761" lon="3.05906">
        <ele>37.628</ele>
        <time>2019-09-17T13:38:24.001Z</time>
      </trkpt>
      <trkpt lat="50.61758" lon="3.05931">
        <ele>38.006</ele>
        <time>2019-09-17T13:38:27.001Z</time>
      </trkpt>
      <trkpt lat="50.61756" lon="3.05956">
        <ele>37.959</ele>
        <time>2019-09-17T13:38:30.001Z</time>
      </trkpt>
      <trkpt lat="50.61754" lon="3.05981">
        <ele>38.167</ele>
        <time>2019-09-17T13:38:33.001Z</time>
      </trkpt>
      <trkpt lat="50.61752" lon="3.06005">
        <ele>38.606</ele>
        <time>2019-09-17T13:38:36.001Z</time>
      </trkpt>
      <trkpt lat="50.61749" lon="3.0603">
        <ele>38.581</ele>
        <time>2019-09-17T13:38:39.001Z</time>
      </trkpt>
      <trkpt lat="50.61745" lon="3.06053">
        <ele>39.391</ele>
        <time>2019-09-17T13:38:42.001Z</time>
      </trkpt>
      <trkpt lat="50.61742" lon="3.06076">
        <ele>40.126</ele>
        <time>2019-09-17T13:38:45.001Z</time>
      </trkpt>
      <trkpt lat="50.61737" lon="3.06101">
        <ele>38.174</ele>
        <time>2019-09-17T13:38:48.001Z</time>
      </trkpt>
      <trkpt lat="50.61737" lon="3.06125">
        <ele>36.446</ele>
        <time>2019-09-17T13:38:51.001Z</time>
      </trkpt>
      <trkpt lat="50.6174" lon="3.06147">
        <ele>34.765</ele>
        <time>2019-09-17T13:38:54.001Z</time>
      </trkpt>
      <trkpt lat="50.61739" lon="3.0617">
        <ele>33.213</ele>
        <time>2019-09-17T13:38:57.001Z</time>
      </trkpt>
      <trkpt lat="50.61738" lon="3.06196">
        <ele>33.029</ele>
        <time>2019-09-17T13:39:00.000Z</time>
      </trkpt>
      <trkpt lat="50.61739" lon="3.0622">
        <ele>33.395</ele>
        <time>2019-09-17T13:39:03.001Z</time>
      </trkpt>
      <trkpt lat="50.6174" lon="3.06242">
        <ele>34.253</ele>
        <time>2019-09-17T13:39:06.001Z</time>
      </trkpt>
      <trkpt lat="50.61741" lon="3.06268">
        <ele>34.764</ele>
        <time>2019-09-17T13:39:09.001Z</time>
      </trkpt>
      <trkpt lat="50.61744" lon="3.063">
        <ele>34.784</ele>
        <time>2019-09-17T13:39:12.001Z</time>
      </trkpt>
      <trkpt lat="50.61746" lon="3.06337">
        <ele>36.512</ele>
        <time>2019-09-17T13:39:15.001Z</time>
      </trkpt>
      <trkpt lat="50.61749" lon="3.06374">
        <ele>37.508</ele>
        <time>2019-09-17T13:39:18.001Z</time>
      </trkpt>
      <trkpt lat="50.6175" lon="3.06408">
        <ele>38.139</ele>
        <time>2019-09-17T13:39:21.001Z</time>
      </trkpt>
      <trkpt lat="50.61753" lon="3.06442">
        <ele>37.392</ele>
        <time>2019-09-17T13:39:24.001Z</time>
      </trkpt>
      <trkpt lat="50.61755" lon="3.06473">
        <ele>37.723</ele>
        <time>2019-09-17T13:39:27.001Z</time>
      </trkpt>
      <trkpt lat="50.61755" lon="3.065">
        <ele>37.963</ele>
        <time>2019-09-17T13:39:30.001Z</time>
      </trkpt>
      <trkpt lat="50.61756" lon="3.06526">
        <ele>36.879</ele>
        <time>2019-09-17T13:39:33.001Z</time>
      </trkpt>
      <trkpt lat="50.61756" lon="3.06552">
        <ele>37.251</ele>
        <time>2019-09-17T13:39:36.001Z</time>
      </trkpt>
      <trkpt lat="50.61757" lon="3.0658">
        <ele>38.316</ele>
        <time>2019-09-17T13:39:39.001Z</time>
      </trkpt>
      <trkpt lat="50.61756" lon="3.06607">
        <ele>39.425</ele>
        <time>2019-09-17T13:39:42.001Z</time>
      </trkpt>
      <trkpt lat="50.61754" lon="3.06628">
        <ele>40.069</ele>
        <time>2019-09-17T13:39:45.001Z</time>
      </trkpt>
      <trkpt lat="50.61754" lon="3.06648">
        <ele>40.82</ele>
        <time>2019-09-17T13:39:48.001Z</time>
      </trkpt>
      <trkpt lat="50.61755" lon="3.06666">
        <ele>41.001</ele>
        <time>2019-09-17T13:39:51.001Z</time>
      </trkpt>
      <trkpt lat="50.61755" lon="3.06687">
        <ele>41.672</ele>
        <time>2019-09-17T13:39:54.001Z</time>
      </trkpt>
      <trkpt lat="50.61754" lon="3.0671">
        <ele>42.658</ele>
        <time>2019-09-17T13:39:57.001Z</time>
      </trkpt>
      <trkpt lat="50.61755" lon="3.06732">
        <ele>42.777</ele>
        <time>2019-09-17T13:40:00.000Z</time>
      </trkpt>
      <trkpt lat="50.61756" lon="3.06757">
        <ele>42.835</ele>
        <time>2019-09-17T13:40:03.001Z</time>
      </trkpt>
      <trkpt lat="50.61758" lon="3.06783">
        <ele>42.405</ele>
        <time>2019-09-17T13:40:06.001Z</time>
      </trkpt>
      <trkpt lat="50.61761" lon="3.0681">
        <ele>42.429</ele>
        <time>2019-09-17T13:40:09.001Z</time>
      </trkpt>
      <trkpt lat="50.61762" lon="3.06836">
        <ele>42.762</ele>
        <time>2019-09-17T13:40:12.001Z</time>
      </trkpt>
      <trkpt lat="50.61764" lon="3.06863">
        <ele>42.547</ele>
        <time>2019-09-17T13:40:15.001Z</time>
      </trkpt>
      <trkpt lat="50.61766" lon="3.06888">
        <ele>42.392</ele>
        <time>2019-09-17T13:40:18.001Z</time>
      </trkpt>
      <trkpt lat="50.61767" lon="3.06918">
        <ele>42.116</ele>
        <time>2019-09-17T13:40:21.001Z</time>
      </trkpt>
      <trkpt lat="50.61766" lon="3.06948">
        <ele>41.571</ele>
        <time>2019-09-17T13:40:24.001Z</time>
      </trkpt>
      <trkpt lat="50.61767" lon="3.06974">
        <ele>42.063</ele>
        <time>2019-09-17T13:40:27.001Z</time>
      </trkpt>
      <trkpt lat="50.61768" lon="3.06998">
        <ele>41.697</ele>
        <time>2019-09-17T13:40:30.001Z</time>
      </trkpt>
      <trkpt lat="50.61767" lon="3.07025">
        <ele>40.361</ele>
        <time>2019-09-17T13:40:33.001Z</time>
      </trkpt>
      <trkpt lat="50.6177" lon="3.07051">
        <ele>40.944</ele>
        <time>2019-09-17T13:40:36.001Z</time>
      </trkpt>
      <trkpt lat="50.61774" lon="3.07075">
        <ele>41.266</ele>
        <time>2019-09-17T13:40:39.001Z</time>
      </trkpt>
      <trkpt lat="50.61775" lon="3.07099">
        <ele>43.501</ele>
        <time>2019-09-17T13:40:42.001Z</time>
      </trkpt>
      <trkpt lat="50.61778" lon="3.0712">
        <ele>45.159</ele>
        <time>2019-09-17T13:40:45.001Z</time>
      </trkpt>
      <trkpt lat="50.61781" lon="3.07143">
        <ele>46.265</ele>
        <time>2019-09-17T13:40:48.001Z</time>
      </trkpt>
      <trkpt lat="50.61781" lon="3.07164">
        <ele>47.464</ele>
        <time>2019-09-17T13:40:51.001Z</time>
      </trkpt>
      <trkpt lat="50.61782" lon="3.07191">
        <ele>49.038</ele>
        <time>2019-09-17T13:40:54.001Z</time>
      </trkpt>
      <trkpt lat="50.61786" lon="3.07216">
        <ele>50.039</ele>
        <time>2019-09-17T13:40:57.001Z</time>
      </trkpt>
      <trkpt lat="50.61793" lon="3.07243">
        <ele>50.881</ele>
        <time>2019-09-17T13:41:00.000Z</time>
      </trkpt>
      <trkpt lat="50.61793" lon="3.07266">
        <ele>52.656</ele>
        <time>2019-09-17T13:41:03.001Z</time>
      </trkpt>
      <trkpt lat="50.61793" lon="3.07281">
        <ele>53.384</ele>
        <time>2019-09-17T13:41:06.001Z</time>
      </trkpt>
      <trkpt lat="50.61797" lon="3.07297">
        <ele>53.681</ele>
        <time>2019-09-17T13:41:09.001Z</time>
      </trkpt>
      <trkpt lat="50.61804" lon="3.07311">
        <ele>53.27</ele>
        <time>2019-09-17T13:41:12.001Z</time>
      </trkpt>
      <trkpt lat="50.61808" lon="3.07324">
        <ele>52.882</ele>
        <time>2019-09-17T13:41:15.001Z</time>
      </trkpt>
      <trkpt lat="50.61809" lon="3.07331">
        <ele>51.959</ele>
        <time>2019-09-17T13:41:18.001Z</time>
      </trkpt>
      <trkpt lat="50.61809" lon="3.07331">
        <ele>51.959</ele>
        <time>2019-09-17T13:42:00.000Z</time>
      </trkpt>
      <trkpt lat="50.61808" lon="3.07335">
        <ele>51.939</ele>
        <time>2019-09-17T13:42:03.001Z</time>
      </trkpt>
      <trkpt lat="50.61806" lon="3.07345">
        <ele>52.09</ele>
        <time>2019-09-17T13:42:06.001Z</time>
      </trkpt>
      <trkpt lat="50.61805" lon="3.07356">
        <ele>51.917</ele>
        <time>2019-09-17T13:42:09.001Z</time>
      </trkpt>
      <trkpt lat="50.61807" lon="3.07372">
        <ele>51.824</ele>
        <time>2019-09-17T13:42:12.001Z</time>
      </trkpt>
      <trkpt lat="50.61811" lon="3.07387">
        <ele>52.98</ele>
        <time>2019-09-17T13:42:15.001Z</time>
      </trkpt>
      <trkpt lat="50.61816" lon="3.07405">
        <ele>53.444</ele>
        <time>2019-09-17T13:42:18.001Z</time>
      </trkpt>
      <trkpt lat="50.61821" lon="3.07422">
        <ele>53.942</ele>
        <time>2019-09-17T13:42:21.001Z</time>
      </trkpt>
      <trkpt lat="50.61825" lon="3.07441">
        <ele>53.512</ele>
        <time>2019-09-17T13:42:24.001Z</time>
      </trkpt>
      <trkpt lat="50.61829" lon="3.0746">
        <ele>53.011</ele>
        <time>2019-09-17T13:42:27.001Z</time>
      </trkpt>
      <trkpt lat="50.61833" lon="3.07481">
        <ele>52.842</ele>
        <time>2019-09-17T13:42:30.001Z</time>
      </trkpt>
      <trkpt lat="50.61838" lon="3.07501">
        <ele>53.497</ele>
        <time>2019-09-17T13:42:33.001Z</time>
      </trkpt>
      <trkpt lat="50.61843" lon="3.07521">
        <ele>53.198</ele>
        <time>2019-09-17T13:42:36.001Z</time>
      </trkpt>
      <trkpt lat="50.61849" lon="3.07541">
        <ele>52.91</ele>
        <time>2019-09-17T13:42:39.001Z</time>
      </trkpt>
      <trkpt lat="50.61855" lon="3.07561">
        <ele>51.978</ele>
        <time>2019-09-17T13:42:42.001Z</time>
      </trkpt>
      <trkpt lat="50.61858" lon="3.0758">
        <ele>51.265</ele>
        <time>2019-09-17T13:42:45.001Z</time>
      </trkpt>
      <trkpt lat="50.61859" lon="3.07599">
        <ele>50.194</ele>
        <time>2019-09-17T13:42:48.001Z</time>
      </trkpt>
      <trkpt lat="50.61864" lon="3.07617">
        <ele>50.368</ele>
        <time>2019-09-17T13:42:51.001Z</time>
      </trkpt>
      <trkpt lat="50.61869" lon="3.07636">
        <ele>51.071</ele>
        <time>2019-09-17T13:42:54.001Z</time>
      </trkpt>
      <trkpt lat="50.61876" lon="3.07657">
        <ele>51.485</ele>
        <time>2019-09-17T13:42:57.001Z</time>
      </trkpt>
      <trkpt lat="50.61884" lon="3.07678">
        <ele>51.117</ele>
        <time>2019-09-17T13:43:00.000Z</time>
      </trkpt>
      <trkpt lat="50.61893" lon="3.07699">
        <ele>50.666</ele>
        <time>2019-09-17T13:43:03.001Z</time>
      </trkpt>
      <trkpt lat="50.61903" lon="3.0772">
        <ele>50.823</ele>
        <time>2019-09-17T13:43:06.001Z</time>
      </trkpt>
      <trkpt lat="50.61913" lon="3.07738">
        <ele>51.066</ele>
        <time>2019-09-17T13:43:09.001Z</time>
      </trkpt>
      <trkpt lat="50.61922" lon="3.07754">
        <ele>51.653</ele>
        <time>2019-09-17T13:43:12.001Z</time>
      </trkpt>
      <trkpt lat="50.61931" lon="3.07767">
        <ele>51.162</ele>
        <time>2019-09-17T13:43:15.001Z</time>
      </trkpt>
      <trkpt lat="50.61939" lon="3.07781">
        <ele>50.776</ele>
        <time>2019-09-17T13:43:18.001Z</time>
      </trkpt>
      <trkpt lat="50.61951" lon="3.07795">
        <ele>49.387</ele>
        <time>2019-09-17T13:43:21.001Z</time>
      </trkpt>
      <trkpt lat="50.61963" lon="3.07809">
        <ele>48.184</ele>
        <time>2019-09-17T13:43:24.001Z</time>
      </trkpt>
      <trkpt lat="50.61978" lon="3.07824">
        <ele>47.625</ele>
        <time>2019-09-17T13:43:27.001Z</time>
      </trkpt>
      <trkpt lat="50.61992" lon="3.07837">
        <ele>47.261</ele>
        <time>2019-09-17T13:43:30.001Z</time>
      </trkpt>
      <trkpt lat="50.62002" lon="3.07847">
        <ele>46.884</ele>
        <time>2019-09-17T13:43:33.001Z</time>
      </trkpt>
      <trkpt lat="50.62013" lon="3.07858">
        <ele>46.754</ele>
        <time>2019-09-17T13:43:36.001Z</time>
      </trkpt>
      <trkpt lat="50.62025" lon="3.0787">
        <ele>45.769</ele>
        <time>2019-09-17T13:43:39.001Z</time>
      </trkpt>
      <trkpt lat="50.62038" lon="3.07881">
        <ele>46.07</ele>
        <time>2019-09-17T13:43:42.001Z</time>
      </trkpt>
      <trkpt lat="50.62053" lon="3.07891">
        <ele>47.123</ele>
        <time>2019-09-17T13:43:45.001Z</time>
      </trkpt>
      <trkpt lat="50.62066" lon="3.07902">
        <ele>47.525</ele>
        <time>2019-09-17T13:43:48.001Z</time>
      </trkpt>
      <trkpt lat="50.62081" lon="3.07912">
        <ele>46.137</ele>
        <time>2019-09-17T13:43:51.001Z</time>
      </trkpt>
      <trkpt lat="50.62093" lon="3.07921">
        <ele>46.144</ele>
        <time>2019-09-17T13:43:54.001Z</time>
      </trkpt>
      <trkpt lat="50.62105" lon="3.07924">
        <ele>45.81</ele>
        <time>2019-09-17T13:43:57.001Z</time>
      </trkpt>
      <trkpt lat="50.62118" lon="3.07926">
        <ele>46.042</ele>
        <time>2019-09-17T13:44:00.000Z</time>
      </trkpt>
      <trkpt lat="50.62135" lon="3.07928">
        <ele>45.157</ele>
        <time>2019-09-17T13:44:03.001Z</time>
      </trkpt>
      <trkpt lat="50.6215" lon="3.07929">
        <ele>45.944</ele>
        <time>2019-09-17T13:44:06.001Z</time>
      </trkpt>
      <trkpt lat="50.62165" lon="3.07932">
        <ele>46.541</ele>
        <time>2019-09-17T13:44:09.001Z</time>
      </trkpt>
      <trkpt lat="50.62177" lon="3.07932">
        <ele>47.502</ele>
        <time>2019-09-17T13:44:12.001Z</time>
      </trkpt>
      <trkpt lat="50.62192" lon="3.07934">
        <ele>48.717</ele>
        <time>2019-09-17T13:44:15.001Z</time>
      </trkpt>
      <trkpt lat="50.62206" lon="3.07937">
        <ele>50.708</ele>
        <time>2019-09-17T13:44:18.001Z</time>
      </trkpt>
      <trkpt lat="50.62219" lon="3.07946">
        <ele>51.664</ele>
        <time>2019-09-17T13:44:21.001Z</time>
      </trkpt>
      <trkpt lat="50.6223" lon="3.07957">
        <ele>53.639</ele>
        <time>2019-09-17T13:44:24.001Z</time>
      </trkpt>
      <trkpt lat="50.62244" lon="3.07965">
        <ele>53.201</ele>
        <time>2019-09-17T13:44:27.001Z</time>
      </trkpt>
      <trkpt lat="50.62255" lon="3.07976">
        <ele>53.351</ele>
        <time>2019-09-17T13:44:30.001Z</time>
      </trkpt>
      <trkpt lat="50.62266" lon="3.07986">
        <ele>53.218</ele>
        <time>2019-09-17T13:44:33.001Z</time>
      </trkpt>
      <trkpt lat="50.62276" lon="3.08">
        <ele>52.449</ele>
        <time>2019-09-17T13:44:36.001Z</time>
      </trkpt>
      <trkpt lat="50.62285" lon="3.08014">
        <ele>52.11</ele>
        <time>2019-09-17T13:44:39.001Z</time>
      </trkpt>
      <trkpt lat="50.62295" lon="3.08025">
        <ele>52.307</ele>
        <time>2019-09-17T13:44:42.001Z</time>
      </trkpt>
      <trkpt lat="50.62304" lon="3.0803">
        <ele>56.114</ele>
        <time>2019-09-17T13:44:45.001Z</time>
      </trkpt>
      <trkpt lat="50.62314" lon="3.08032">
        <ele>58.921</ele>
        <time>2019-09-17T13:44:48.001Z</time>
      </trkpt>
      <trkpt lat="50.62324" lon="3.08035">
        <ele>61.677</ele>
        <time>2019-09-17T13:44:51.001Z</time>
      </trkpt>
      <trkpt lat="50.62333" lon="3.08037">
        <ele>65.657</ele>
        <time>2019-09-17T13:44:54.001Z</time>
      </trkpt>
      <trkpt lat="50.62342" lon="3.08036">
        <ele>70.667</ele>
        <time>2019-09-17T13:44:57.001Z</time>
      </trkpt>
      <trkpt lat="50.6235" lon="3.08034">
        <ele>74.41</ele>
        <time>2019-09-17T13:45:00.000Z</time>
      </trkpt>
      <trkpt lat="50.62357" lon="3.08034">
        <ele>78.353</ele>
        <time>2019-09-17T13:45:03.001Z</time>
      </trkpt>
      <trkpt lat="50.62366" lon="3.08039">
        <ele>78.058</ele>
        <time>2019-09-17T13:45:06.001Z</time>
      </trkpt>
      <trkpt lat="50.62371" lon="3.08051">
        <ele>78.467</ele>
        <time>2019-09-17T13:45:09.001Z</time>
      </trkpt>
      <trkpt lat="50.62374" lon="3.08068">
        <ele>77.933</ele>
        <time>2019-09-17T13:45:12.001Z</time>
      </trkpt>
      <trkpt lat="50.62378" lon="3.08085">
        <ele>77.94</ele>
        <time>2019-09-17T13:45:15.001Z</time>
      </trkpt>
      <trkpt lat="50.62379" lon="3.08105">
        <ele>78.22</ele>
        <time>2019-09-17T13:45:18.001Z</time>
      </trkpt>
      <trkpt lat="50.62383" lon="3.08125">
        <ele>79.084</ele>
        <time>2019-09-17T13:45:21.001Z</time>
      </trkpt>
      <trkpt lat="50.62386" lon="3.08145">
        <ele>79.766</ele>
        <time>2019-09-17T13:45:24.001Z</time>
      </trkpt>
      <trkpt lat="50.62391" lon="3.0817">
        <ele>78.652</ele>
        <time>2019-09-17T13:45:27.001Z</time>
      </trkpt>
      <trkpt lat="50.62393" lon="3.08196">
        <ele>76.522</ele>
        <time>2019-09-17T13:45:30.001Z</time>
      </trkpt>
      <trkpt lat="50.62386" lon="3.08221">
        <ele>73.543</ele>
        <time>2019-09-17T13:45:33.001Z</time>
      </trkpt>
      <trkpt lat="50.62379" lon="3.08246">
        <ele>70.744</ele>
        <time>2019-09-17T13:45:36.001Z</time>
      </trkpt>
      <trkpt lat="50.62374" lon="3.08267">
        <ele>67.92</ele>
        <time>2019-09-17T13:45:39.001Z</time>
      </trkpt>
      <trkpt lat="50.62365" lon="3.08288">
        <ele>64.677</ele>
        <time>2019-09-17T13:45:42.001Z</time>
      </trkpt>
      <trkpt lat="50.62354" lon="3.08309">
        <ele>61.513</ele>
        <time>2019-09-17T13:45:45.001Z</time>
      </trkpt>
      <trkpt lat="50.62346" lon="3.08324">
        <ele>59.277</ele>
        <time>2019-09-17T13:45:48.001Z</time>
      </trkpt>
      <trkpt lat="50.62339" lon="3.08332">
        <ele>57.844</ele>
        <time>2019-09-17T13:45:51.001Z</time>
      </trkpt>
      <trkpt lat="50.62332" lon="3.08338">
        <ele>54.208</ele>
        <time>2019-09-17T13:45:54.001Z</time>
      </trkpt>
      <trkpt lat="50.6233" lon="3.08339">
        <ele>53.093</ele>
        <time>2019-09-17T13:45:57.001Z</time>
      </trkpt>
      <trkpt lat="50.6233" lon="3.08339">
        <ele>53.093</ele>
        <time>2019-09-17T13:46:15.001Z</time>
      </trkpt>
      <trkpt lat="50.62328" lon="3.08341">
        <ele>51.621</ele>
        <time>2019-09-17T13:46:18.001Z</time>
      </trkpt>
      <trkpt lat="50.62323" lon="3.08348">
        <ele>49.386</ele>
        <time>2019-09-17T13:46:21.001Z</time>
      </trkpt>
      <trkpt lat="50.62317" lon="3.08356">
        <ele>47.97</ele>
        <time>2019-09-17T13:46:24.001Z</time>
      </trkpt>
      <trkpt lat="50.6231" lon="3.08362">
        <ele>47.218</ele>
        <time>2019-09-17T13:46:27.001Z</time>
      </trkpt>
      <trkpt lat="50.62305" lon="3.0837">
        <ele>47.158</ele>
        <time>2019-09-17T13:46:30.001Z</time>
      </trkpt>
      <trkpt lat="50.62299" lon="3.08382">
        <ele>47.021</ele>
        <time>2019-09-17T13:46:33.001Z</time>
      </trkpt>
      <trkpt lat="50.62292" lon="3.08394">
        <ele>46.755</ele>
        <time>2019-09-17T13:46:36.001Z</time>
      </trkpt>
      <trkpt lat="50.62286" lon="3.08409">
        <ele>46.533</ele>
        <time>2019-09-17T13:46:39.001Z</time>
      </trkpt>
      <trkpt lat="50.62273" lon="3.08431">
        <ele>43.632</ele>
        <time>2019-09-17T13:46:42.001Z</time>
      </trkpt>
      <trkpt lat="50.62257" lon="3.08449">
        <ele>43.674</ele>
        <time>2019-09-17T13:46:45.001Z</time>
      </trkpt>
      <trkpt lat="50.62246" lon="3.08461">
        <ele>42.912</ele>
        <time>2019-09-17T13:46:48.001Z</time>
      </trkpt>
      <trkpt lat="50.62236" lon="3.08472">
        <ele>40.949</ele>
        <time>2019-09-17T13:46:51.001Z</time>
      </trkpt>
      <trkpt lat="50.6223" lon="3.08483">
        <ele>37.988</ele>
        <time>2019-09-17T13:46:54.001Z</time>
      </trkpt>
      <trkpt lat="50.62224" lon="3.08495">
        <ele>35.797</ele>
        <time>2019-09-17T13:46:57.001Z</time>
      </trkpt>
      <trkpt lat="50.62217" lon="3.08506">
        <ele>33.854</ele>
        <time>2019-09-17T13:47:00.000Z</time>
      </trkpt>
      <trkpt lat="50.6221" lon="3.08517">
        <ele>32.3</ele>
        <time>2019-09-17T13:47:03.001Z</time>
      </trkpt>
      <trkpt lat="50.62205" lon="3.08528">
        <ele>31.635</ele>
        <time>2019-09-17T13:47:06.001Z</time>
      </trkpt>
      <trkpt lat="50.62199" lon="3.0854">
        <ele>31.735</ele>
        <time>2019-09-17T13:47:09.001Z</time>
      </trkpt>
      <trkpt lat="50.62192" lon="3.0855">
        <ele>31.883</ele>
        <time>2019-09-17T13:47:12.001Z</time>
      </trkpt>
      <trkpt lat="50.62187" lon="3.08559">
        <ele>31.919</ele>
        <time>2019-09-17T13:47:15.001Z</time>
      </trkpt>
      <trkpt lat="50.62181" lon="3.08569">
        <ele>31.769</ele>
        <time>2019-09-17T13:47:18.001Z</time>
      </trkpt>
      <trkpt lat="50.62176" lon="3.08577">
        <ele>31.634</ele>
        <time>2019-09-17T13:47:21.001Z</time>
      </trkpt>
      <trkpt lat="50.6217" lon="3.08584">
        <ele>31.436</ele>
        <time>2019-09-17T13:47:24.001Z</time>
      </trkpt>
      <trkpt lat="50.62166" lon="3.08591">
        <ele>31.389</ele>
        <time>2019-09-17T13:47:27.001Z</time>
      </trkpt>
      <trkpt lat="50.62162" lon="3.08597">
        <ele>31.721</ele>
        <time>2019-09-17T13:47:30.001Z</time>
      </trkpt>
      <trkpt lat="50.62162" lon="3.08597">
        <ele>31.844</ele>
        <time>2019-09-17T13:47:33.001Z</time>
      </trkpt>
      <trkpt lat="50.62159" lon="3.08603">
        <ele>32.934</ele>
        <time>2019-09-17T13:47:51.001Z</time>
      </trkpt>
      <trkpt lat="50.62158" lon="3.08604">
        <ele>33.683</ele>
        <time>2019-09-17T13:48:03.001Z</time>
      </trkpt>
      <trkpt lat="50.62156" lon="3.0861">
        <ele>34.603</ele>
        <time>2019-09-17T13:48:06.001Z</time>
      </trkpt>
      <trkpt lat="50.62152" lon="3.08618">
        <ele>34.887</ele>
        <time>2019-09-17T13:48:09.001Z</time>
      </trkpt>
      <trkpt lat="50.62149" lon="3.08626">
        <ele>35.079</ele>
        <time>2019-09-17T13:48:12.001Z</time>
      </trkpt>
      <trkpt lat="50.62142" lon="3.08632">
        <ele>35.078</ele>
        <time>2019-09-17T13:48:15.001Z</time>
      </trkpt>
      <trkpt lat="50.62136" lon="3.08639">
        <ele>34.041</ele>
        <time>2019-09-17T13:48:18.001Z</time>
      </trkpt>
      <trkpt lat="50.62129" lon="3.08653">
        <ele>34.384</ele>
        <time>2019-09-17T13:48:21.001Z</time>
      </trkpt>
      <trkpt lat="50.62128" lon="3.08671">
        <ele>34.767</ele>
        <time>2019-09-17T13:48:24.001Z</time>
      </trkpt>
      <trkpt lat="50.62132" lon="3.08689">
        <ele>35.273</ele>
        <time>2019-09-17T13:48:27.001Z</time>
      </trkpt>
      <trkpt lat="50.62136" lon="3.08705">
        <ele>35.723</ele>
        <time>2019-09-17T13:48:30.001Z</time>
      </trkpt>
      <trkpt lat="50.6214" lon="3.08722">
        <ele>36.172</ele>
        <time>2019-09-17T13:48:33.001Z</time>
      </trkpt>
      <trkpt lat="50.62145" lon="3.08738">
        <ele>35.866</ele>
        <time>2019-09-17T13:48:36.001Z</time>
      </trkpt>
      <trkpt lat="50.62151" lon="3.08756">
        <ele>35.074</ele>
        <time>2019-09-17T13:48:39.001Z</time>
      </trkpt>
      <trkpt lat="50.62158" lon="3.08775">
        <ele>34.783</ele>
        <time>2019-09-17T13:48:42.001Z</time>
      </trkpt>
      <trkpt lat="50.62164" lon="3.08792">
        <ele>34.619</ele>
        <time>2019-09-17T13:48:45.001Z</time>
      </trkpt>
      <trkpt lat="50.6217" lon="3.08811">
        <ele>34.309</ele>
        <time>2019-09-17T13:48:48.001Z</time>
      </trkpt>
      <trkpt lat="50.62175" lon="3.08829">
        <ele>34.023</ele>
        <time>2019-09-17T13:48:51.001Z</time>
      </trkpt>
      <trkpt lat="50.6218" lon="3.08847">
        <ele>34.112</ele>
        <time>2019-09-17T13:48:54.001Z</time>
      </trkpt>
      <trkpt lat="50.62185" lon="3.08865">
        <ele>34.47</ele>
        <time>2019-09-17T13:48:57.001Z</time>
      </trkpt>
      <trkpt lat="50.62191" lon="3.08883">
        <ele>34.777</ele>
        <time>2019-09-17T13:49:00.000Z</time>
      </trkpt>
      <trkpt lat="50.62195" lon="3.08899">
        <ele>35.959</ele>
        <time>2019-09-17T13:49:03.001Z</time>
      </trkpt>
      <trkpt lat="50.622" lon="3.08916">
        <ele>36.589</ele>
        <time>2019-09-17T13:49:06.001Z</time>
      </trkpt>
      <trkpt lat="50.62206" lon="3.08936">
        <ele>37.557</ele>
        <time>2019-09-17T13:49:09.001Z</time>
      </trkpt>
      <trkpt lat="50.62211" lon="3.08955">
        <ele>38.617</ele>
        <time>2019-09-17T13:49:12.001Z</time>
      </trkpt>
      <trkpt lat="50.62216" lon="3.08975">
        <ele>39.081</ele>
        <time>2019-09-17T13:49:15.001Z</time>
      </trkpt>
      <trkpt lat="50.62223" lon="3.08995">
        <ele>38.617</ele>
        <time>2019-09-17T13:49:18.001Z</time>
      </trkpt>
      <trkpt lat="50.6223" lon="3.09015">
        <ele>38.339</ele>
        <time>2019-09-17T13:49:21.001Z</time>
      </trkpt>
      <trkpt lat="50.62238" lon="3.09034">
        <ele>37.534</ele>
        <time>2019-09-17T13:49:24.001Z</time>
      </trkpt>
      <trkpt lat="50.62245" lon="3.09053">
        <ele>36.649</ele>
        <time>2019-09-17T13:49:27.001Z</time>
      </trkpt>
      <trkpt lat="50.6225" lon="3.0907">
        <ele>36.123</ele>
        <time>2019-09-17T13:49:30.001Z</time>
      </trkpt>
      <trkpt lat="50.62252" lon="3.09081">
        <ele>36.111</ele>
        <time>2019-09-17T13:49:33.001Z</time>
      </trkpt>
      <trkpt lat="50.62253" lon="3.09084">
        <ele>36.146</ele>
        <time>2019-09-17T13:49:36.001Z</time>
      </trkpt>
      <trkpt lat="50.62253" lon="3.09084">
        <ele>36.146</ele>
        <time>2019-09-17T13:50:03.001Z</time>
      </trkpt>
      <trkpt lat="50.62253" lon="3.09087">
        <ele>36.07</ele>
        <time>2019-09-17T13:50:06.001Z</time>
      </trkpt>
      <trkpt lat="50.62254" lon="3.09095">
        <ele>36.76</ele>
        <time>2019-09-17T13:50:09.001Z</time>
      </trkpt>
      <trkpt lat="50.62258" lon="3.09107">
        <ele>37.385</ele>
        <time>2019-09-17T13:50:12.001Z</time>
      </trkpt>
      <trkpt lat="50.62265" lon="3.09122">
        <ele>37.468</ele>
        <time>2019-09-17T13:50:15.001Z</time>
      </trkpt>
      <trkpt lat="50.62273" lon="3.09144">
        <ele>38.37</ele>
        <time>2019-09-17T13:50:18.001Z</time>
      </trkpt>
      <trkpt lat="50.6228" lon="3.09169">
        <ele>39.138</ele>
        <time>2019-09-17T13:50:21.001Z</time>
      </trkpt>
      <trkpt lat="50.62291" lon="3.09197">
        <ele>40.221</ele>
        <time>2019-09-17T13:50:24.001Z</time>
      </trkpt>
      <trkpt lat="50.62305" lon="3.09223">
        <ele>41.438</ele>
        <time>2019-09-17T13:50:27.001Z</time>
      </trkpt>
      <trkpt lat="50.62315" lon="3.0925">
        <ele>42.763</ele>
        <time>2019-09-17T13:50:30.001Z</time>
      </trkpt>
      <trkpt lat="50.62323" lon="3.09278">
        <ele>44.691</ele>
        <time>2019-09-17T13:50:33.001Z</time>
      </trkpt>
      <trkpt lat="50.62331" lon="3.09305">
        <ele>47.386</ele>
        <time>2019-09-17T13:50:36.001Z</time>
      </trkpt>
      <trkpt lat="50.62339" lon="3.09332">
        <ele>48.96</ele>
        <time>2019-09-17T13:50:39.001Z</time>
      </trkpt>
      <trkpt lat="50.62345" lon="3.09355">
        <ele>50.999</ele>
        <time>2019-09-17T13:50:42.001Z</time>
      </trkpt>
      <trkpt lat="50.62351" lon="3.09374">
        <ele>52.539</ele>
        <time>2019-09-17T13:50:45.001Z</time>
      </trkpt>
      <trkpt lat="50.6236" lon="3.09396">
        <ele>54.043</ele>
        <time>2019-09-17T13:50:48.001Z</time>
      </trkpt>
      <trkpt lat="50.62369" lon="3.09418">
        <ele>54.344</ele>
        <time>2019-09-17T13:50:51.001Z</time>
      </trkpt>
      <trkpt lat="50.62374" lon="3.09445">
        <ele>54.918</ele>
        <time>2019-09-17T13:50:54.001Z</time>
      </trkpt>
      <trkpt lat="50.6238" lon="3.09468">
        <ele>55.148</ele>
        <time>2019-09-17T13:50:57.001Z</time>
      </trkpt>
      <trkpt lat="50.62389" lon="3.09493">
        <ele>55.1</ele>
        <time>2019-09-17T13:51:00.000Z</time>
      </trkpt>
      <trkpt lat="50.62399" lon="3.09518">
        <ele>54.385</ele>
        <time>2019-09-17T13:51:03.001Z</time>
      </trkpt>
      <trkpt lat="50.62405" lon="3.09539">
        <ele>53.416</ele>
        <time>2019-09-17T13:51:06.001Z</time>
      </trkpt>
      <trkpt lat="50.62413" lon="3.09561">
        <ele>53.001</ele>
        <time>2019-09-17T13:51:09.001Z</time>
      </trkpt>
      <trkpt lat="50.62419" lon="3.09585">
        <ele>53.623</ele>
        <time>2019-09-17T13:51:12.001Z</time>
      </trkpt>
      <trkpt lat="50.62423" lon="3.09609">
        <ele>53.683</ele>
        <time>2019-09-17T13:51:15.001Z</time>
      </trkpt>
      <trkpt lat="50.62429" lon="3.09635">
        <ele>54.013</ele>
        <time>2019-09-17T13:51:18.001Z</time>
      </trkpt>
      <trkpt lat="50.62435" lon="3.09661">
        <ele>54.159</ele>
        <time>2019-09-17T13:51:21.001Z</time>
      </trkpt>
      <trkpt lat="50.6244" lon="3.09686">
        <ele>53.545</ele>
        <time>2019-09-17T13:51:24.001Z</time>
      </trkpt>
      <trkpt lat="50.62443" lon="3.09711">
        <ele>52.676</ele>
        <time>2019-09-17T13:51:27.001Z</time>
      </trkpt>
      <trkpt lat="50.62447" lon="3.09735">
        <ele>52.584</ele>
        <time>2019-09-17T13:51:30.001Z</time>
      </trkpt>
      <trkpt lat="50.62452" lon="3.09759">
        <ele>51.923</ele>
        <time>2019-09-17T13:51:33.001Z</time>
      </trkpt>
      <trkpt lat="50.62457" lon="3.0978">
        <ele>52.489</ele>
        <time>2019-09-17T13:51:36.001Z</time>
      </trkpt>
      <trkpt lat="50.62462" lon="3.09804">
        <ele>52.599</ele>
        <time>2019-09-17T13:51:39.001Z</time>
      </trkpt>
      <trkpt lat="50.62465" lon="3.09827">
        <ele>51.077</ele>
        <time>2019-09-17T13:51:42.001Z</time>
      </trkpt>
      <trkpt lat="50.62468" lon="3.09856">
        <ele>49.589</ele>
        <time>2019-09-17T13:51:45.001Z</time>
      </trkpt>
      <trkpt lat="50.62473" lon="3.09884">
        <ele>48.697</ele>
        <time>2019-09-17T13:51:48.001Z</time>
      </trkpt>
      <trkpt lat="50.62478" lon="3.09907">
        <ele>48.73</ele>
        <time>2019-09-17T13:51:51.001Z</time>
      </trkpt>
      <trkpt lat="50.62483" lon="3.0993">
        <ele>48.831</ele>
        <time>2019-09-17T13:51:54.001Z</time>
      </trkpt>
      <trkpt lat="50.62486" lon="3.09953">
        <ele>48.061</ele>
        <time>2019-09-17T13:51:57.001Z</time>
      </trkpt>
      <trkpt lat="50.62489" lon="3.09976">
        <ele>46.791</ele>
        <time>2019-09-17T13:52:00.000Z</time>
      </trkpt>
      <trkpt lat="50.62492" lon="3.09996">
        <ele>46.988</ele>
        <time>2019-09-17T13:52:03.001Z</time>
      </trkpt>
      <trkpt lat="50.62495" lon="3.10016">
        <ele>47.874</ele>
        <time>2019-09-17T13:52:06.001Z</time>
      </trkpt>
      <trkpt lat="50.62498" lon="3.10037">
        <ele>48.663</ele>
        <time>2019-09-17T13:52:09.001Z</time>
      </trkpt>
      <trkpt lat="50.625" lon="3.10057">
        <ele>49.638</ele>
        <time>2019-09-17T13:52:12.001Z</time>
      </trkpt>
      <trkpt lat="50.62503" lon="3.10076">
        <ele>48.825</ele>
        <time>2019-09-17T13:52:15.001Z</time>
      </trkpt>
      <trkpt lat="50.62507" lon="3.10097">
        <ele>49.132</ele>
        <time>2019-09-17T13:52:18.001Z</time>
      </trkpt>
      <trkpt lat="50.6251" lon="3.10121">
        <ele>49.149</ele>
        <time>2019-09-17T13:52:21.001Z</time>
      </trkpt>
      <trkpt lat="50.62514" lon="3.10145">
        <ele>47.799</ele>
        <time>2019-09-17T13:52:24.001Z</time>
      </trkpt>
      <trkpt lat="50.62516" lon="3.10168">
        <ele>47.529</ele>
        <time>2019-09-17T13:52:27.001Z</time>
      </trkpt>
      <trkpt lat="50.62519" lon="3.10189">
        <ele>48.006</ele>
        <time>2019-09-17T13:52:30.001Z</time>
      </trkpt>
      <trkpt lat="50.62524" lon="3.10209">
        <ele>46.959</ele>
        <time>2019-09-17T13:52:33.001Z</time>
      </trkpt>
      <trkpt lat="50.62529" lon="3.10227">
        <ele>46.297</ele>
        <time>2019-09-17T13:52:36.001Z</time>
      </trkpt>
      <trkpt lat="50.62533" lon="3.10246">
        <ele>46.565</ele>
        <time>2019-09-17T13:52:39.001Z</time>
      </trkpt>
      <trkpt lat="50.62536" lon="3.1027">
        <ele>47.045</ele>
        <time>2019-09-17T13:52:42.001Z</time>
      </trkpt>
      <trkpt lat="50.62542" lon="3.10292">
        <ele>46.12</ele>
        <time>2019-09-17T13:52:45.001Z</time>
      </trkpt>
      <trkpt lat="50.62546" lon="3.10315">
        <ele>45.439</ele>
        <time>2019-09-17T13:52:48.001Z</time>
      </trkpt>
      <trkpt lat="50.62552" lon="3.10339">
        <ele>44.791</ele>
        <time>2019-09-17T13:52:51.001Z</time>
      </trkpt>
      <trkpt lat="50.62557" lon="3.10363">
        <ele>44.456</ele>
        <time>2019-09-17T13:52:54.001Z</time>
      </trkpt>
      <trkpt lat="50.62562" lon="3.10386">
        <ele>43.961</ele>
        <time>2019-09-17T13:52:57.001Z</time>
      </trkpt>
      <trkpt lat="50.62568" lon="3.10409">
        <ele>43.088</ele>
        <time>2019-09-17T13:53:00.000Z</time>
      </trkpt>
      <trkpt lat="50.62574" lon="3.10431">
        <ele>42.54</ele>
        <time>2019-09-17T13:53:03.001Z</time>
      </trkpt>
      <trkpt lat="50.62579" lon="3.10451">
        <ele>42.172</ele>
        <time>2019-09-17T13:53:06.001Z</time>
      </trkpt>
      <trkpt lat="50.62587" lon="3.10472">
        <ele>42.7</ele>
        <time>2019-09-17T13:53:09.001Z</time>
      </trkpt>
      <trkpt lat="50.62597" lon="3.10495">
        <ele>43.564</ele>
        <time>2019-09-17T13:53:12.001Z</time>
      </trkpt>
      <trkpt lat="50.62606" lon="3.10515">
        <ele>45.023</ele>
        <time>2019-09-17T13:53:15.001Z</time>
      </trkpt>
      <trkpt lat="50.62613" lon="3.10537">
        <ele>46.716</ele>
        <time>2019-09-17T13:53:18.001Z</time>
      </trkpt>
      <trkpt lat="50.62619" lon="3.10558">
        <ele>48.522</ele>
        <time>2019-09-17T13:53:21.001Z</time>
      </trkpt>
      <trkpt lat="50.62621" lon="3.10578">
        <ele>50.295</ele>
        <time>2019-09-17T13:53:24.001Z</time>
      </trkpt>
      <trkpt lat="50.62626" lon="3.10599">
        <ele>52.076</ele>
        <time>2019-09-17T13:53:27.001Z</time>
      </trkpt>
      <trkpt lat="50.62632" lon="3.10618">
        <ele>52.979</ele>
        <time>2019-09-17T13:53:30.001Z</time>
      </trkpt>
      <trkpt lat="50.6264" lon="3.10636">
        <ele>53.941</ele>
        <time>2019-09-17T13:53:33.001Z</time>
      </trkpt>
      <trkpt lat="50.62647" lon="3.10654">
        <ele>55.906</ele>
        <time>2019-09-17T13:53:36.001Z</time>
      </trkpt>
      <trkpt lat="50.62656" lon="3.10673">
        <ele>57.504</ele>
        <time>2019-09-17T13:53:39.001Z</time>
      </trkpt>
      <trkpt lat="50.62667" lon="3.10691">
        <ele>57.635</ele>
        <time>2019-09-17T13:53:42.001Z</time>
      </trkpt>
      <trkpt lat="50.62679" lon="3.1071">
        <ele>57.286</ele>
        <time>2019-09-17T13:53:45.001Z</time>
      </trkpt>
      <trkpt lat="50.6269" lon="3.10729">
        <ele>56.206</ele>
        <time>2019-09-17T13:53:48.001Z</time>
      </trkpt>
      <trkpt lat="50.62698" lon="3.10747">
        <ele>55.382</ele>
        <time>2019-09-17T13:53:51.001Z</time>
      </trkpt>
      <trkpt lat="50.62704" lon="3.10764">
        <ele>54.233</ele>
        <time>2019-09-17T13:53:54.001Z</time>
      </trkpt>
      <trkpt lat="50.62707" lon="3.1078">
        <ele>50.68</ele>
        <time>2019-09-17T13:53:57.001Z</time>
      </trkpt>
      <trkpt lat="50.62712" lon="3.10789">
        <ele>50.049</ele>
        <time>2019-09-17T13:54:00.000Z</time>
      </trkpt>
      <trkpt lat="50.62715" lon="3.10795">
        <ele>49.443</ele>
        <time>2019-09-17T13:54:03.001Z</time>
      </trkpt>
      <trkpt lat="50.62717" lon="3.10797">
        <ele>48.868</ele>
        <time>2019-09-17T13:54:06.001Z</time>
      </trkpt>
      <trkpt lat="50.62717" lon="3.10797">
        <ele>48.868</ele>
        <time>2019-09-17T13:54:09.001Z</time>
      </trkpt>
      <trkpt lat="50.62717" lon="3.10797">
        <ele>48.868</ele>
        <time>2019-09-17T13:54:36.001Z</time>
      </trkpt>
      <trkpt lat="50.62717" lon="3.10797">
        <ele>49.092</ele>
        <time>2019-09-17T13:54:39.001Z</time>
      </trkpt>
      <trkpt lat="50.62722" lon="3.10797">
        <ele>49.197</ele>
        <time>2019-09-17T13:54:42.001Z</time>
      </trkpt>
      <trkpt lat="50.62726" lon="3.10806">
        <ele>49.93</ele>
        <time>2019-09-17T13:54:45.001Z</time>
      </trkpt>
      <trkpt lat="50.62731" lon="3.10817">
        <ele>50.915</ele>
        <time>2019-09-17T13:54:48.001Z</time>
      </trkpt>
      <trkpt lat="50.62735" lon="3.10829">
        <ele>51.866</ele>
        <time>2019-09-17T13:54:51.001Z</time>
      </trkpt>
      <trkpt lat="50.62731" lon="3.10845">
        <ele>52.652</ele>
        <time>2019-09-17T13:54:54.001Z</time>
      </trkpt>
      <trkpt lat="50.62726" lon="3.10863">
        <ele>51.885</ele>
        <time>2019-09-17T13:54:57.001Z</time>
      </trkpt>
      <trkpt lat="50.62723" lon="3.10877">
        <ele>49.914</ele>
        <time>2019-09-17T13:55:00.000Z</time>
      </trkpt>
      <trkpt lat="50.62722" lon="3.10887">
        <ele>47.388</ele>
        <time>2019-09-17T13:55:03.001Z</time>
      </trkpt>
      <trkpt lat="50.62721" lon="3.10889">
        <ele>47.133</ele>
        <time>2019-09-17T13:55:06.001Z</time>
      </trkpt>
      <trkpt lat="50.6272" lon="3.10898">
        <ele>47.029</ele>
        <time>2019-09-17T13:55:09.001Z</time>
      </trkpt>
      <trkpt lat="50.62715" lon="3.10909">
        <ele>44.611</ele>
        <time>2019-09-17T13:55:12.001Z</time>
      </trkpt>
      <trkpt lat="50.62705" lon="3.1092">
        <ele>40.951</ele>
        <time>2019-09-17T13:55:15.001Z</time>
      </trkpt>
      <trkpt lat="50.62696" lon="3.10933">
        <ele>38.2</ele>
        <time>2019-09-17T13:55:18.001Z</time>
      </trkpt>
      <trkpt lat="50.62689" lon="3.1095">
        <ele>37.84</ele>
        <time>2019-09-17T13:55:21.001Z</time>
      </trkpt>
      <trkpt lat="50.62682" lon="3.10969">
        <ele>38.333</ele>
        <time>2019-09-17T13:55:24.001Z</time>
      </trkpt>
      <trkpt lat="50.62675" lon="3.10989">
        <ele>38.341</ele>
        <time>2019-09-17T13:55:27.001Z</time>
      </trkpt>
      <trkpt lat="50.62668" lon="3.11009">
        <ele>37.371</ele>
        <time>2019-09-17T13:55:30.001Z</time>
      </trkpt>
      <trkpt lat="50.62661" lon="3.11028">
        <ele>38.015</ele>
        <time>2019-09-17T13:55:33.001Z</time>
      </trkpt>
      <trkpt lat="50.62653" lon="3.11048">
        <ele>38.276</ele>
        <time>2019-09-17T13:55:36.001Z</time>
      </trkpt>
      <trkpt lat="50.62646" lon="3.11068">
        <ele>39.54</ele>
        <time>2019-09-17T13:55:39.001Z</time>
      </trkpt>
      <trkpt lat="50.62639" lon="3.11088">
        <ele>40.609</ele>
        <time>2019-09-17T13:55:42.001Z</time>
      </trkpt>
      <trkpt lat="50.62632" lon="3.11108">
        <ele>42.256</ele>
        <time>2019-09-17T13:55:45.001Z</time>
      </trkpt>
      <trkpt lat="50.62626" lon="3.11128">
        <ele>43.629</ele>
        <time>2019-09-17T13:55:48.001Z</time>
      </trkpt>
      <trkpt lat="50.6262" lon="3.11148">
        <ele>44.766</ele>
        <time>2019-09-17T13:55:51.001Z</time>
      </trkpt>
      <trkpt lat="50.62613" lon="3.11167">
        <ele>47.355</ele>
        <time>2019-09-17T13:55:54.001Z</time>
      </trkpt>
      <trkpt lat="50.62607" lon="3.11187">
        <ele>48.334</ele>
        <time>2019-09-17T13:55:57.001Z</time>
      </trkpt>
      <trkpt lat="50.626" lon="3.11209">
        <ele>50.319</ele>
        <time>2019-09-17T13:56:00.000Z</time>
      </trkpt>
      <trkpt lat="50.62593" lon="3.11231">
        <ele>50.638</ele>
        <time>2019-09-17T13:56:03.001Z</time>
      </trkpt>
      <trkpt lat="50.62587" lon="3.11251">
        <ele>51.881</ele>
        <time>2019-09-17T13:56:06.001Z</time>
      </trkpt>
      <trkpt lat="50.6258" lon="3.11271">
        <ele>52.591</ele>
        <time>2019-09-17T13:56:09.001Z</time>
      </trkpt>
      <trkpt lat="50.62573" lon="3.1129">
        <ele>53.037</ele>
        <time>2019-09-17T13:56:12.001Z</time>
      </trkpt>
      <trkpt lat="50.62565" lon="3.11307">
        <ele>52.781</ele>
        <time>2019-09-17T13:56:15.001Z</time>
      </trkpt>
      <trkpt lat="50.62562" lon="3.1132">
        <ele>53.719</ele>
        <time>2019-09-17T13:56:18.001Z</time>
      </trkpt>
      <trkpt lat="50.62559" lon="3.11334">
        <ele>54.533</ele>
        <time>2019-09-17T13:56:21.001Z</time>
      </trkpt>
      <trkpt lat="50.62556" lon="3.11354">
        <ele>54.492</ele>
        <time>2019-09-17T13:56:24.001Z</time>
      </trkpt>
      <trkpt lat="50.62554" lon="3.11374">
        <ele>55.042</ele>
        <time>2019-09-17T13:56:27.001Z</time>
      </trkpt>
      <trkpt lat="50.62553" lon="3.11394">
        <ele>55.782</ele>
        <time>2019-09-17T13:56:30.001Z</time>
      </trkpt>
      <trkpt lat="50.62553" lon="3.11416">
        <ele>56.509</ele>
        <time>2019-09-17T13:56:33.001Z</time>
      </trkpt>
      <trkpt lat="50.62556" lon="3.11439">
        <ele>56.952</ele>
        <time>2019-09-17T13:56:36.001Z</time>
      </trkpt>
      <trkpt lat="50.62558" lon="3.1146">
        <ele>57.783</ele>
        <time>2019-09-17T13:56:39.001Z</time>
      </trkpt>
      <trkpt lat="50.62556" lon="3.11482">
        <ele>59.25</ele>
        <time>2019-09-17T13:56:42.001Z</time>
      </trkpt>
      <trkpt lat="50.62552" lon="3.11506">
        <ele>58.103</ele>
        <time>2019-09-17T13:56:45.001Z</time>
      </trkpt>
      <trkpt lat="50.62547" lon="3.11531">
        <ele>55.311</ele>
        <time>2019-09-17T13:56:48.001Z</time>
      </trkpt>
      <trkpt lat="50.62538" lon="3.11552">
        <ele>54.413</ele>
        <time>2019-09-17T13:56:51.001Z</time>
      </trkpt>
      <trkpt lat="50.62531" lon="3.11574">
        <ele>54.995</ele>
        <time>2019-09-17T13:56:54.001Z</time>
      </trkpt>
      <trkpt lat="50.62525" lon="3.11597">
        <ele>53.313</ele>
        <time>2019-09-17T13:56:57.001Z</time>
      </trkpt>
      <trkpt lat="50.6252" lon="3.11616">
        <ele>51.021</ele>
        <time>2019-09-17T13:57:00.000Z</time>
      </trkpt>
      <trkpt lat="50.62512" lon="3.11634">
        <ele>49.951</ele>
        <time>2019-09-17T13:57:03.001Z</time>
      </trkpt>
      <trkpt lat="50.62504" lon="3.11652">
        <ele>49.32</ele>
        <time>2019-09-17T13:57:06.001Z</time>
      </trkpt>
      <trkpt lat="50.62497" lon="3.11672">
        <ele>48.413</ele>
        <time>2019-09-17T13:57:09.001Z</time>
      </trkpt>
      <trkpt lat="50.6249" lon="3.11691">
        <ele>47.814</ele>
        <time>2019-09-17T13:57:12.001Z</time>
      </trkpt>
      <trkpt lat="50.62483" lon="3.1171">
        <ele>47.877</ele>
        <time>2019-09-17T13:57:15.001Z</time>
      </trkpt>
      <trkpt lat="50.62476" lon="3.11728">
        <ele>48.911</ele>
        <time>2019-09-17T13:57:18.001Z</time>
      </trkpt>
      <trkpt lat="50.62471" lon="3.11746">
        <ele>50.245</ele>
        <time>2019-09-17T13:57:21.001Z</time>
      </trkpt>
      <trkpt lat="50.62465" lon="3.11768">
        <ele>51.14</ele>
        <time>2019-09-17T13:57:24.001Z</time>
      </trkpt>
      <trkpt lat="50.62461" lon="3.11789">
        <ele>51.296</ele>
        <time>2019-09-17T13:57:27.001Z</time>
      </trkpt>
      <trkpt lat="50.62456" lon="3.1181">
        <ele>51.399</ele>
        <time>2019-09-17T13:57:30.001Z</time>
      </trkpt>
      <trkpt lat="50.62452" lon="3.1183">
        <ele>50.815</ele>
        <time>2019-09-17T13:57:33.001Z</time>
      </trkpt>
      <trkpt lat="50.62447" lon="3.11851">
        <ele>49.073</ele>
        <time>2019-09-17T13:57:36.001Z</time>
      </trkpt>
      <trkpt lat="50.62444" lon="3.11871">
        <ele>47.103</ele>
        <time>2019-09-17T13:57:39.001Z</time>
      </trkpt>
      <trkpt lat="50.62439" lon="3.1189">
        <ele>47.001</ele>
        <time>2019-09-17T13:57:42.001Z</time>
      </trkpt>
      <trkpt lat="50.62435" lon="3.11909">
        <ele>46.069</ele>
        <time>2019-09-17T13:57:45.001Z</time>
      </trkpt>
      <trkpt lat="50.62433" lon="3.11927">
        <ele>44.843</ele>
        <time>2019-09-17T13:57:48.001Z</time>
      </trkpt>
      <trkpt lat="50.62433" lon="3.11941">
        <ele>43.631</ele>
        <time>2019-09-17T13:57:51.001Z</time>
      </trkpt>
      <trkpt lat="50.62433" lon="3.11955">
        <ele>42.114</ele>
        <time>2019-09-17T13:57:54.001Z</time>
      </trkpt>
      <trkpt lat="50.62432" lon="3.11967">
        <ele>41.114</ele>
        <time>2019-09-17T13:57:57.001Z</time>
      </trkpt>
      <trkpt lat="50.62431" lon="3.11979">
        <ele>39.818</ele>
        <time>2019-09-17T13:58:00.000Z</time>
      </trkpt>
      <trkpt lat="50.62434" lon="3.11986">
        <ele>38.724</ele>
        <time>2019-09-17T13:58:03.001Z</time>
      </trkpt>
      <trkpt lat="50.62435" lon="3.11995">
        <ele>38.612</ele>
        <time>2019-09-17T13:58:06.001Z</time>
      </trkpt>
      <trkpt lat="50.62434" lon="3.1201">
        <ele>38.486</ele>
        <time>2019-09-17T13:58:09.001Z</time>
      </trkpt>
      <trkpt lat="50.62433" lon="3.12026">
        <ele>37.38</ele>
        <time>2019-09-17T13:58:12.001Z</time>
      </trkpt>
      <trkpt lat="50.62432" lon="3.1204">
        <ele>37.1</ele>
        <time>2019-09-17T13:58:15.001Z</time>
      </trkpt>
      <trkpt lat="50.62432" lon="3.12054">
        <ele>37.012</ele>
        <time>2019-09-17T13:58:18.001Z</time>
      </trkpt>
      <trkpt lat="50.62432" lon="3.12069">
        <ele>36.574</ele>
        <time>2019-09-17T13:58:21.001Z</time>
      </trkpt>
      <trkpt lat="50.62431" lon="3.12082">
        <ele>35.978</ele>
        <time>2019-09-17T13:58:24.001Z</time>
      </trkpt>
      <trkpt lat="50.62429" lon="3.12096">
        <ele>36.102</ele>
        <time>2019-09-17T13:58:27.001Z</time>
      </trkpt>
      <trkpt lat="50.62429" lon="3.12111">
        <ele>36.153</ele>
        <time>2019-09-17T13:58:30.001Z</time>
      </trkpt>
      <trkpt lat="50.62428" lon="3.12126">
        <ele>36.482</ele>
        <time>2019-09-17T13:58:33.001Z</time>
      </trkpt>
      <trkpt lat="50.62428" lon="3.12139">
        <ele>36.493</ele>
        <time>2019-09-17T13:58:36.001Z</time>
      </trkpt>
      <trkpt lat="50.62427" lon="3.12153">
        <ele>37.424</ele>
        <time>2019-09-17T13:58:39.001Z</time>
      </trkpt>
      <trkpt lat="50.62426" lon="3.12168">
        <ele>37.69</ele>
        <time>2019-09-17T13:58:42.001Z</time>
      </trkpt>
      <trkpt lat="50.62425" lon="3.12183">
        <ele>37.926</ele>
        <time>2019-09-17T13:58:45.001Z</time>
      </trkpt>
      <trkpt lat="50.62424" lon="3.12196">
        <ele>38.172</ele>
        <time>2019-09-17T13:58:48.001Z</time>
      </trkpt>
      <trkpt lat="50.62424" lon="3.12208">
        <ele>38.09</ele>
        <time>2019-09-17T13:58:51.001Z</time>
      </trkpt>
      <trkpt lat="50.62424" lon="3.12221">
        <ele>37.295</ele>
        <time>2019-09-17T13:58:54.001Z</time>
      </trkpt>
      <trkpt lat="50.62421" lon="3.12236">
        <ele>36.388</ele>
        <time>2019-09-17T13:58:57.001Z</time>
      </trkpt>
      <trkpt lat="50.62421" lon="3.12253">
        <ele>36.522</ele>
        <time>2019-09-17T13:59:00.000Z</time>
      </trkpt>
      <trkpt lat="50.62421" lon="3.12267">
        <ele>37.173</ele>
        <time>2019-09-17T13:59:03.001Z</time>
      </trkpt>
      <trkpt lat="50.62422" lon="3.12282">
        <ele>37.751</ele>
        <time>2019-09-17T13:59:06.001Z</time>
      </trkpt>
      <trkpt lat="50.62422" lon="3.12297">
        <ele>38.022</ele>
        <time>2019-09-17T13:59:09.001Z</time>
      </trkpt>
      <trkpt lat="50.62418" lon="3.12311">
        <ele>38.266</ele>
        <time>2019-09-17T13:59:12.001Z</time>
      </trkpt>
      <trkpt lat="50.62413" lon="3.12321">
        <ele>38.627</ele>
        <time>2019-09-17T13:59:15.001Z</time>
      </trkpt>
      <trkpt lat="50.6241" lon="3.12333">
        <ele>38.91</ele>
        <time>2019-09-17T13:59:18.001Z</time>
      </trkpt>
      <trkpt lat="50.62406" lon="3.12345">
        <ele>38.866</ele>
        <time>2019-09-17T13:59:21.001Z</time>
      </trkpt>
      <trkpt lat="50.624" lon="3.12358">
        <ele>39.296</ele>
        <time>2019-09-17T13:59:24.001Z</time>
      </trkpt>
      <trkpt lat="50.62395" lon="3.12371">
        <ele>39.461</ele>
        <time>2019-09-17T13:59:27.001Z</time>
      </trkpt>
      <trkpt lat="50.62391" lon="3.12385">
        <ele>40.578</ele>
        <time>2019-09-17T13:59:30.001Z</time>
      </trkpt>
      <trkpt lat="50.62387" lon="3.12398">
        <ele>40.859</ele>
        <time>2019-09-17T13:59:33.001Z</time>
      </trkpt>
      <trkpt lat="50.62384" lon="3.12413">
        <ele>41.569</ele>
        <time>2019-09-17T13:59:36.001Z</time>
      </trkpt>
      <trkpt lat="50.6238" lon="3.12431">
        <ele>42.357</ele>
        <time>2019-09-17T13:59:39.001Z</time>
      </trkpt>
      <trkpt lat="50.62375" lon="3.12449">
        <ele>42.97</ele>
        <time>2019-09-17T13:59:42.001Z</time>
      </trkpt>
      <trkpt lat="50.6237" lon="3.12468">
        <ele>43.503</ele>
        <time>2019-09-17T13:59:45.001Z</time>
      </trkpt>
      <trkpt lat="50.62366" lon="3.12489">
        <ele>43.195</ele>
        <time>2019-09-17T13:59:48.001Z</time>
      </trkpt>
      <trkpt lat="50.62362" lon="3.1251">
        <ele>42.688</ele>
        <time>2019-09-17T13:59:51.001Z</time>
      </trkpt>
      <trkpt lat="50.62357" lon="3.12532">
        <ele>43.563</ele>
        <time>2019-09-17T13:59:54.001Z</time>
      </trkpt>
      <trkpt lat="50.6235" lon="3.12561">
        <ele>43.568</ele>
        <time>2019-09-17T13:59:57.001Z</time>
      </trkpt>
      <trkpt lat="50.62343" lon="3.12592">
        <ele>42.481</ele>
        <time>2019-09-17T14:00:00.000Z</time>
      </trkpt>
      <trkpt lat="50.62335" lon="3.12621">
        <ele>42.363</ele>
        <time>2019-09-17T14:00:03.001Z</time>
      </trkpt>
      <trkpt lat="50.62327" lon="3.12651">
        <ele>42.529</ele>
        <time>2019-09-17T14:00:06.001Z</time>
      </trkpt>
      <trkpt lat="50.62319" lon="3.12683">
        <ele>41.693</ele>
        <time>2019-09-17T14:00:09.001Z</time>
      </trkpt>
      <trkpt lat="50.62312" lon="3.12715">
        <ele>41.347</ele>
        <time>2019-09-17T14:00:12.001Z</time>
      </trkpt>
      <trkpt lat="50.62308" lon="3.12743">
        <ele>41.89</ele>
        <time>2019-09-17T14:00:15.001Z</time>
      </trkpt>
      <trkpt lat="50.62303" lon="3.12767">
        <ele>42.71</ele>
        <time>2019-09-17T14:00:18.001Z</time>
      </trkpt>
      <trkpt lat="50.62299" lon="3.12788">
        <ele>42.675</ele>
        <time>2019-09-17T14:00:21.001Z</time>
      </trkpt>
      <trkpt lat="50.62297" lon="3.12808">
        <ele>42.432</ele>
        <time>2019-09-17T14:00:24.001Z</time>
      </trkpt>
      <trkpt lat="50.62297" lon="3.12821">
        <ele>43.693</ele>
        <time>2019-09-17T14:00:27.001Z</time>
      </trkpt>
      <trkpt lat="50.62297" lon="3.12823">
        <ele>44.243</ele>
        <time>2019-09-17T14:00:30.001Z</time>
      </trkpt>
      <trkpt lat="50.62296" lon="3.12824">
        <ele>44.63</ele>
        <time>2019-09-17T14:00:33.001Z</time>
      </trkpt>
      <trkpt lat="50.62297" lon="3.12823">
        <ele>43.816</ele>
        <time>2019-09-17T14:01:09.001Z</time>
      </trkpt>
      <trkpt lat="50.62298" lon="3.12823">
        <ele>43.185</ele>
        <time>2019-09-17T14:01:12.001Z</time>
      </trkpt>
      <trkpt lat="50.62301" lon="3.12812">
        <ele>39.711</ele>
        <time>2019-09-17T14:01:24.001Z</time>
      </trkpt>
      <trkpt lat="50.623" lon="3.12808">
        <ele>38.929</ele>
        <time>2019-09-17T14:01:27.001Z</time>
      </trkpt>
      <trkpt lat="50.62299" lon="3.12807">
        <ele>38.515</ele>
        <time>2019-09-17T14:01:30.001Z</time>
      </trkpt>
      <trkpt lat="50.62299" lon="3.12807">
        <ele>38.515</ele>
        <time>2019-09-17T14:01:51.001Z</time>
      </trkpt>
      <trkpt lat="50.62299" lon="3.12806">
        <ele>38.392</ele>
        <time>2019-09-17T14:01:54.001Z</time>
      </trkpt>
      <trkpt lat="50.62292" lon="3.12798">
        <ele>37.907</ele>
        <time>2019-09-17T14:02:00.000Z</time>
      </trkpt>
      <trkpt lat="50.62288" lon="3.12803">
        <ele>38.332</ele>
        <time>2019-09-17T14:02:03.001Z</time>
      </trkpt>
      <trkpt lat="50.62283" lon="3.12814">
        <ele>38.608</ele>
        <time>2019-09-17T14:02:06.001Z</time>
      </trkpt>
      <trkpt lat="50.62274" lon="3.12816">
        <ele>38.344</ele>
        <time>2019-09-17T14:02:09.001Z</time>
      </trkpt>
      <trkpt lat="50.62264" lon="3.12816">
        <ele>38.315</ele>
        <time>2019-09-17T14:02:12.001Z</time>
      </trkpt>
      <trkpt lat="50.62251" lon="3.12819">
        <ele>38.165</ele>
        <time>2019-09-17T14:02:15.001Z</time>
      </trkpt>
      <trkpt lat="50.62241" lon="3.12821">
        <ele>37.655</ele>
        <time>2019-09-17T14:02:18.001Z</time>
      </trkpt>
      <trkpt lat="50.62225" lon="3.12823">
        <ele>37.902</ele>
        <time>2019-09-17T14:02:21.001Z</time>
      </trkpt>
      <trkpt lat="50.62211" lon="3.12825">
        <ele>41.018</ele>
        <time>2019-09-17T14:02:24.001Z</time>
      </trkpt>
      <trkpt lat="50.62203" lon="3.1284">
        <ele>41.443</ele>
        <time>2019-09-17T14:02:27.001Z</time>
      </trkpt>
      <trkpt lat="50.62203" lon="3.12861">
        <ele>41.954</ele>
        <time>2019-09-17T14:02:30.001Z</time>
      </trkpt>
      <trkpt lat="50.62202" lon="3.12885">
        <ele>43.082</ele>
        <time>2019-09-17T14:02:33.001Z</time>
      </trkpt>
      <trkpt lat="50.62201" lon="3.12911">
        <ele>43.928</ele>
        <time>2019-09-17T14:02:36.001Z</time>
      </trkpt>
      <trkpt lat="50.62199" lon="3.12936">
        <ele>44.81</ele>
        <time>2019-09-17T14:02:39.001Z</time>
      </trkpt>
      <trkpt lat="50.62197" lon="3.1296">
        <ele>46.478</ele>
        <time>2019-09-17T14:02:42.001Z</time>
      </trkpt>
      <trkpt lat="50.62195" lon="3.12985">
        <ele>47.612</ele>
        <time>2019-09-17T14:02:45.001Z</time>
      </trkpt>
      <trkpt lat="50.62194" lon="3.13009">
        <ele>48.697</ele>
        <time>2019-09-17T14:02:48.001Z</time>
      </trkpt>
      <trkpt lat="50.62193" lon="3.13033">
        <ele>49.313</ele>
        <time>2019-09-17T14:02:51.001Z</time>
      </trkpt>
      <trkpt lat="50.62192" lon="3.13061">
        <ele>50.131</ele>
        <time>2019-09-17T14:02:54.001Z</time>
      </trkpt>
      <trkpt lat="50.62188" lon="3.13085">
        <ele>50.168</ele>
        <time>2019-09-17T14:02:57.001Z</time>
      </trkpt>
      <trkpt lat="50.62188" lon="3.13107">
        <ele>50.883</ele>
        <time>2019-09-17T14:03:00.000Z</time>
      </trkpt>
      <trkpt lat="50.62189" lon="3.13127">
        <ele>51.799</ele>
        <time>2019-09-17T14:03:03.001Z</time>
      </trkpt>
      <trkpt lat="50.62185" lon="3.13149">
        <ele>52.129</ele>
        <time>2019-09-17T14:03:06.001Z</time>
      </trkpt>
      <trkpt lat="50.62186" lon="3.13169">
        <ele>55.06</ele>
        <time>2019-09-17T14:03:09.001Z</time>
      </trkpt>
      <trkpt lat="50.62187" lon="3.13191">
        <ele>56.687</ele>
        <time>2019-09-17T14:03:12.001Z</time>
      </trkpt>
      <trkpt lat="50.62184" lon="3.13214">
        <ele>58.311</ele>
        <time>2019-09-17T14:03:15.001Z</time>
      </trkpt>
      <trkpt lat="50.62183" lon="3.13238">
        <ele>59.02</ele>
        <time>2019-09-17T14:03:18.001Z</time>
      </trkpt>
      <trkpt lat="50.62179" lon="3.13261">
        <ele>58.79</ele>
        <time>2019-09-17T14:03:21.001Z</time>
      </trkpt>
      <trkpt lat="50.62176" lon="3.13284">
        <ele>58.095</ele>
        <time>2019-09-17T14:03:24.001Z</time>
      </trkpt>
      <trkpt lat="50.62172" lon="3.13309">
        <ele>56.631</ele>
        <time>2019-09-17T14:03:27.001Z</time>
      </trkpt>
      <trkpt lat="50.62163" lon="3.13332">
        <ele>55.389</ele>
        <time>2019-09-17T14:03:30.001Z</time>
      </trkpt>
      <trkpt lat="50.62156" lon="3.13354">
        <ele>54.782</ele>
        <time>2019-09-17T14:03:33.001Z</time>
      </trkpt>
      <trkpt lat="50.6215" lon="3.13381">
        <ele>51.334</ele>
        <time>2019-09-17T14:03:36.001Z</time>
      </trkpt>
      <trkpt lat="50.6214" lon="3.13412">
        <ele>49.119</ele>
        <time>2019-09-17T14:03:39.001Z</time>
      </trkpt>
      <trkpt lat="50.62132" lon="3.13439">
        <ele>48.684</ele>
        <time>2019-09-17T14:03:42.001Z</time>
      </trkpt>
      <trkpt lat="50.62128" lon="3.13464">
        <ele>48.577</ele>
        <time>2019-09-17T14:03:45.001Z</time>
      </trkpt>
      <trkpt lat="50.62141" lon="3.13497">
        <ele>48.296</ele>
        <time>2019-09-17T14:03:48.001Z</time>
      </trkpt>
      <trkpt lat="50.62128" lon="3.13523">
        <ele>48.197</ele>
        <time>2019-09-17T14:03:51.001Z</time>
      </trkpt>
      <trkpt lat="50.62116" lon="3.13547">
        <ele>46.493</ele>
        <time>2019-09-17T14:03:54.001Z</time>
      </trkpt>
      <trkpt lat="50.621" lon="3.13567">
        <ele>43.833</ele>
        <time>2019-09-17T14:03:57.001Z</time>
      </trkpt>
      <trkpt lat="50.62093" lon="3.13583">
        <ele>42.039</ele>
        <time>2019-09-17T14:04:00.000Z</time>
      </trkpt>
      <trkpt lat="50.62087" lon="3.13603">
        <ele>40.536</ele>
        <time>2019-09-17T14:04:03.001Z</time>
      </trkpt>
      <trkpt lat="50.6208" lon="3.13623">
        <ele>39.937</ele>
        <time>2019-09-17T14:04:06.001Z</time>
      </trkpt>
      <trkpt lat="50.62074" lon="3.13642">
        <ele>38.835</ele>
        <time>2019-09-17T14:04:09.001Z</time>
      </trkpt>
      <trkpt lat="50.62069" lon="3.1366">
        <ele>38.019</ele>
        <time>2019-09-17T14:04:12.001Z</time>
      </trkpt>
      <trkpt lat="50.62064" lon="3.1368">
        <ele>37.599</ele>
        <time>2019-09-17T14:04:15.001Z</time>
      </trkpt>
      <trkpt lat="50.62058" lon="3.13701">
        <ele>37.663</ele>
        <time>2019-09-17T14:04:18.001Z</time>
      </trkpt>
      <trkpt lat="50.62054" lon="3.13722">
        <ele>37.631</ele>
        <time>2019-09-17T14:04:21.001Z</time>
      </trkpt>
      <trkpt lat="50.62047" lon="3.13742">
        <ele>37.164</ele>
        <time>2019-09-17T14:04:24.001Z</time>
      </trkpt>
      <trkpt lat="50.62038" lon="3.13762">
        <ele>37.527</ele>
        <time>2019-09-17T14:04:27.001Z</time>
      </trkpt>
      <trkpt lat="50.62031" lon="3.13782">
        <ele>37.392</ele>
        <time>2019-09-17T14:04:30.001Z</time>
      </trkpt>
      <trkpt lat="50.62022" lon="3.138">
        <ele>37.132</ele>
        <time>2019-09-17T14:04:33.001Z</time>
      </trkpt>
      <trkpt lat="50.62017" lon="3.1382">
        <ele>37.073</ele>
        <time>2019-09-17T14:04:36.001Z</time>
      </trkpt>
      <trkpt lat="50.6202" lon="3.13833">
        <ele>36.289</ele>
        <time>2019-09-17T14:04:39.001Z</time>
      </trkpt>
      <trkpt lat="50.62014" lon="3.13844">
        <ele>37.103</ele>
        <time>2019-09-17T14:04:42.001Z</time>
      </trkpt>
      <trkpt lat="50.62007" lon="3.13858">
        <ele>37.517</ele>
        <time>2019-09-17T14:04:45.001Z</time>
      </trkpt>
      <trkpt lat="50.62003" lon="3.13874">
        <ele>38.011</ele>
        <time>2019-09-17T14:04:48.001Z</time>
      </trkpt>
      <trkpt lat="50.61999" lon="3.13893">
        <ele>38.858</ele>
        <time>2019-09-17T14:04:51.001Z</time>
      </trkpt>
      <trkpt lat="50.61991" lon="3.13911">
        <ele>40.438</ele>
        <time>2019-09-17T14:04:54.001Z</time>
      </trkpt>
      <trkpt lat="50.61983" lon="3.13929">
        <ele>40.67</ele>
        <time>2019-09-17T14:04:57.001Z</time>
      </trkpt>
      <trkpt lat="50.61977" lon="3.13946">
        <ele>39.479</ele>
        <time>2019-09-17T14:05:00.000Z</time>
      </trkpt>
      <trkpt lat="50.61971" lon="3.13964">
        <ele>39.133</ele>
        <time>2019-09-17T14:05:03.001Z</time>
      </trkpt>
      <trkpt lat="50.61969" lon="3.13984">
        <ele>38.353</ele>
        <time>2019-09-17T14:05:06.001Z</time>
      </trkpt>
      <trkpt lat="50.61967" lon="3.13999">
        <ele>36.865</ele>
        <time>2019-09-17T14:05:09.001Z</time>
      </trkpt>
      <trkpt lat="50.61964" lon="3.14015">
        <ele>35.497</ele>
        <time>2019-09-17T14:05:12.001Z</time>
      </trkpt>
      <trkpt lat="50.6196" lon="3.14031">
        <ele>34.968</ele>
        <time>2019-09-17T14:05:15.001Z</time>
      </trkpt>
      <trkpt lat="50.61953" lon="3.1405">
        <ele>35.782</ele>
        <time>2019-09-17T14:05:18.001Z</time>
      </trkpt>
      <trkpt lat="50.61949" lon="3.14069">
        <ele>35.346</ele>
        <time>2019-09-17T14:05:21.001Z</time>
      </trkpt>
      <trkpt lat="50.61942" lon="3.14087">
        <ele>34.617</ele>
        <time>2019-09-17T14:05:24.001Z</time>
      </trkpt>
      <trkpt lat="50.61938" lon="3.14105">
        <ele>33.442</ele>
        <time>2019-09-17T14:05:27.001Z</time>
      </trkpt>
      <trkpt lat="50.61932" lon="3.14124">
        <ele>33.684</ele>
        <time>2019-09-17T14:05:30.001Z</time>
      </trkpt>
      <trkpt lat="50.61926" lon="3.14143">
        <ele>33.107</ele>
        <time>2019-09-17T14:05:33.001Z</time>
      </trkpt>
      <trkpt lat="50.61921" lon="3.1416">
        <ele>34.564</ele>
        <time>2019-09-17T14:05:36.001Z</time>
      </trkpt>
      <trkpt lat="50.61916" lon="3.14177">
        <ele>35.73</ele>
        <time>2019-09-17T14:05:39.001Z</time>
      </trkpt>
      <trkpt lat="50.61911" lon="3.14195">
        <ele>35.944</ele>
        <time>2019-09-17T14:05:42.001Z</time>
      </trkpt>
      <trkpt lat="50.61907" lon="3.14206">
        <ele>35.797</ele>
        <time>2019-09-17T14:05:45.001Z</time>
      </trkpt>
      <trkpt lat="50.61905" lon="3.14212">
        <ele>35.46</ele>
        <time>2019-09-17T14:05:48.001Z</time>
      </trkpt>
      <trkpt lat="50.61905" lon="3.14213">
        <ele>35.941</ele>
        <time>2019-09-17T14:05:51.001Z</time>
      </trkpt>
      <trkpt lat="50.61905" lon="3.14213">
        <ele>35.941</ele>
        <time>2019-09-17T14:06:21.001Z</time>
      </trkpt>
      <trkpt lat="50.61906" lon="3.14218">
        <ele>35.811</ele>
        <time>2019-09-17T14:06:24.001Z</time>
      </trkpt>
      <trkpt lat="50.61905" lon="3.14228">
        <ele>36.342</ele>
        <time>2019-09-17T14:06:27.001Z</time>
      </trkpt>
      <trkpt lat="50.619" lon="3.14239">
        <ele>36.584</ele>
        <time>2019-09-17T14:06:30.001Z</time>
      </trkpt>
      <trkpt lat="50.61895" lon="3.14253">
        <ele>36.529</ele>
        <time>2019-09-17T14:06:33.001Z</time>
      </trkpt>
      <trkpt lat="50.61888" lon="3.14271">
        <ele>36.328</ele>
        <time>2019-09-17T14:06:36.001Z</time>
      </trkpt>
      <trkpt lat="50.61881" lon="3.14288">
        <ele>36.398</ele>
        <time>2019-09-17T14:06:39.001Z</time>
      </trkpt>
      <trkpt lat="50.61874" lon="3.14305">
        <ele>35.99</ele>
        <time>2019-09-17T14:06:42.001Z</time>
      </trkpt>
      <trkpt lat="50.61866" lon="3.14322">
        <ele>35.476</ele>
        <time>2019-09-17T14:06:45.001Z</time>
      </trkpt>
      <trkpt lat="50.61858" lon="3.14339">
        <ele>35.18</ele>
        <time>2019-09-17T14:06:48.001Z</time>
      </trkpt>
      <trkpt lat="50.61851" lon="3.14359">
        <ele>34.468</ele>
        <time>2019-09-17T14:06:51.001Z</time>
      </trkpt>
      <trkpt lat="50.61844" lon="3.14378">
        <ele>34.59</ele>
        <time>2019-09-17T14:06:54.001Z</time>
      </trkpt>
      <trkpt lat="50.61838" lon="3.14397">
        <ele>34.525</ele>
        <time>2019-09-17T14:06:57.001Z</time>
      </trkpt>
      <trkpt lat="50.61831" lon="3.14416">
        <ele>35.255</ele>
        <time>2019-09-17T14:07:00.000Z</time>
      </trkpt>
      <trkpt lat="50.61825" lon="3.14435">
        <ele>35.033</ele>
        <time>2019-09-17T14:07:03.001Z</time>
      </trkpt>
      <trkpt lat="50.61819" lon="3.14454">
        <ele>34.729</ele>
        <time>2019-09-17T14:07:06.001Z</time>
      </trkpt>
      <trkpt lat="50.61813" lon="3.14473">
        <ele>34.903</ele>
        <time>2019-09-17T14:07:09.001Z</time>
      </trkpt>
      <trkpt lat="50.61806" lon="3.14494">
        <ele>34.949</ele>
        <time>2019-09-17T14:07:12.001Z</time>
      </trkpt>
      <trkpt lat="50.61799" lon="3.14513">
        <ele>35.048</ele>
        <time>2019-09-17T14:07:15.001Z</time>
      </trkpt>
      <trkpt lat="50.61793" lon="3.14531">
        <ele>34.703</ele>
        <time>2019-09-17T14:07:18.001Z</time>
      </trkpt>
      <trkpt lat="50.61786" lon="3.14549">
        <ele>34.612</ele>
        <time>2019-09-17T14:07:21.001Z</time>
      </trkpt>
      <trkpt lat="50.61779" lon="3.14567">
        <ele>35.704</ele>
        <time>2019-09-17T14:07:24.001Z</time>
      </trkpt>
      <trkpt lat="50.61772" lon="3.14585">
        <ele>36.342</ele>
        <time>2019-09-17T14:07:27.001Z</time>
      </trkpt>
      <trkpt lat="50.61768" lon="3.14605">
        <ele>35.667</ele>
        <time>2019-09-17T14:07:30.001Z</time>
      </trkpt>
      <trkpt lat="50.61764" lon="3.14624">
        <ele>36.582</ele>
        <time>2019-09-17T14:07:33.001Z</time>
      </trkpt>
      <trkpt lat="50.6176" lon="3.14644">
        <ele>37.693</ele>
        <time>2019-09-17T14:07:36.001Z</time>
      </trkpt>
      <trkpt lat="50.61756" lon="3.14661">
        <ele>38.44</ele>
        <time>2019-09-17T14:07:39.001Z</time>
      </trkpt>
      <trkpt lat="50.61753" lon="3.14679">
        <ele>38.638</ele>
        <time>2019-09-17T14:07:42.001Z</time>
      </trkpt>
      <trkpt lat="50.61751" lon="3.14696">
        <ele>38.598</ele>
        <time>2019-09-17T14:07:45.001Z</time>
      </trkpt>
      <trkpt lat="50.61749" lon="3.1471">
        <ele>37.496</ele>
        <time>2019-09-17T14:07:48.001Z</time>
      </trkpt>
      <trkpt lat="50.61748" lon="3.1472">
        <ele>36.124</ele>
        <time>2019-09-17T14:07:51.001Z</time>
      </trkpt>
      <trkpt lat="50.61746" lon="3.14734">
        <ele>36.045</ele>
        <time>2019-09-17T14:07:54.001Z</time>
      </trkpt>
      <trkpt lat="50.61742" lon="3.14751">
        <ele>36.145</ele>
        <time>2019-09-17T14:07:57.001Z</time>
      </trkpt>
      <trkpt lat="50.61737" lon="3.14768">
        <ele>35.735</ele>
        <time>2019-09-17T14:08:00.000Z</time>
      </trkpt>
      <trkpt lat="50.61733" lon="3.1479">
        <ele>36.148</ele>
        <time>2019-09-17T14:08:03.001Z</time>
      </trkpt>
      <trkpt lat="50.61727" lon="3.14811">
        <ele>36.965</ele>
        <time>2019-09-17T14:08:06.001Z</time>
      </trkpt>
      <trkpt lat="50.61722" lon="3.1483">
        <ele>37.911</ele>
        <time>2019-09-17T14:08:09.001Z</time>
      </trkpt>
      <trkpt lat="50.61717" lon="3.14849">
        <ele>38.333</ele>
        <time>2019-09-17T14:08:12.001Z</time>
      </trkpt>
      <trkpt lat="50.6171" lon="3.14869">
        <ele>39.248</ele>
        <time>2019-09-17T14:08:15.001Z</time>
      </trkpt>
      <trkpt lat="50.61702" lon="3.14889">
        <ele>38.972</ele>
        <time>2019-09-17T14:08:18.001Z</time>
      </trkpt>
      <trkpt lat="50.61695" lon="3.14908">
        <ele>38.665</ele>
        <time>2019-09-17T14:08:21.001Z</time>
      </trkpt>
      <trkpt lat="50.61688" lon="3.14925">
        <ele>38.204</ele>
        <time>2019-09-17T14:08:24.001Z</time>
      </trkpt>
      <trkpt lat="50.6168" lon="3.14944">
        <ele>38.122</ele>
        <time>2019-09-17T14:08:27.001Z</time>
      </trkpt>
      <trkpt lat="50.61673" lon="3.14962">
        <ele>38.403</ele>
        <time>2019-09-17T14:08:30.001Z</time>
      </trkpt>
      <trkpt lat="50.61668" lon="3.14981">
        <ele>37.815</ele>
        <time>2019-09-17T14:08:33.001Z</time>
      </trkpt>
      <trkpt lat="50.61663" lon="3.15">
        <ele>37.152</ele>
        <time>2019-09-17T14:08:36.001Z</time>
      </trkpt>
      <trkpt lat="50.61658" lon="3.15018">
        <ele>36.592</ele>
        <time>2019-09-17T14:08:39.001Z</time>
      </trkpt>
      <trkpt lat="50.61653" lon="3.15036">
        <ele>36.383</ele>
        <time>2019-09-17T14:08:42.001Z</time>
      </trkpt>
      <trkpt lat="50.61647" lon="3.15053">
        <ele>36.243</ele>
        <time>2019-09-17T14:08:45.001Z</time>
      </trkpt>
      <trkpt lat="50.61641" lon="3.15069">
        <ele>36.332</ele>
        <time>2019-09-17T14:08:48.001Z</time>
      </trkpt>
      <trkpt lat="50.61635" lon="3.15085">
        <ele>36.294</ele>
        <time>2019-09-17T14:08:51.001Z</time>
      </trkpt>
      <trkpt lat="50.61628" lon="3.15102">
        <ele>36.291</ele>
        <time>2019-09-17T14:08:54.001Z</time>
      </trkpt>
      <trkpt lat="50.61621" lon="3.1512">
        <ele>35.949</ele>
        <time>2019-09-17T14:08:57.001Z</time>
      </trkpt>
      <trkpt lat="50.61613" lon="3.15137">
        <ele>36.003</ele>
        <time>2019-09-17T14:09:00.000Z</time>
      </trkpt>
      <trkpt lat="50.61607" lon="3.15154">
        <ele>36.209</ele>
        <time>2019-09-17T14:09:03.001Z</time>
      </trkpt>
      <trkpt lat="50.61602" lon="3.15171">
        <ele>35.819</ele>
        <time>2019-09-17T14:09:06.001Z</time>
      </trkpt>
      <trkpt lat="50.61596" lon="3.15187">
        <ele>36.599</ele>
        <time>2019-09-17T14:09:09.001Z</time>
      </trkpt>
      <trkpt lat="50.6159" lon="3.15203">
        <ele>37.227</ele>
        <time>2019-09-17T14:09:12.001Z</time>
      </trkpt>
      <trkpt lat="50.61584" lon="3.1522">
        <ele>37.683</ele>
        <time>2019-09-17T14:09:15.001Z</time>
      </trkpt>
      <trkpt lat="50.61578" lon="3.15238">
        <ele>38.793</ele>
        <time>2019-09-17T14:09:18.001Z</time>
      </trkpt>
      <trkpt lat="50.61571" lon="3.15257">
        <ele>39.855</ele>
        <time>2019-09-17T14:09:21.001Z</time>
      </trkpt>
      <trkpt lat="50.61565" lon="3.15276">
        <ele>40.851</ele>
        <time>2019-09-17T14:09:24.001Z</time>
      </trkpt>
      <trkpt lat="50.61558" lon="3.15293">
        <ele>41.92</ele>
        <time>2019-09-17T14:09:27.001Z</time>
      </trkpt>
      <trkpt lat="50.61552" lon="3.15312">
        <ele>42.333</ele>
        <time>2019-09-17T14:09:30.001Z</time>
      </trkpt>
      <trkpt lat="50.61548" lon="3.15329">
        <ele>42.12</ele>
        <time>2019-09-17T14:09:33.001Z</time>
      </trkpt>
      <trkpt lat="50.61542" lon="3.15345">
        <ele>42.598</ele>
        <time>2019-09-17T14:09:36.001Z</time>
      </trkpt>
      <trkpt lat="50.61536" lon="3.15362">
        <ele>43.679</ele>
        <time>2019-09-17T14:09:39.001Z</time>
      </trkpt>
      <trkpt lat="50.61532" lon="3.1538">
        <ele>44.86</ele>
        <time>2019-09-17T14:09:42.001Z</time>
      </trkpt>
      <trkpt lat="50.61526" lon="3.15399">
        <ele>45.2</ele>
        <time>2019-09-17T14:09:45.001Z</time>
      </trkpt>
      <trkpt lat="50.6152" lon="3.15416">
        <ele>45.632</ele>
        <time>2019-09-17T14:09:48.001Z</time>
      </trkpt>
      <trkpt lat="50.61514" lon="3.1543">
        <ele>46.151</ele>
        <time>2019-09-17T14:09:51.001Z</time>
      </trkpt>
      <trkpt lat="50.61511" lon="3.15445">
        <ele>46.592</ele>
        <time>2019-09-17T14:09:54.001Z</time>
      </trkpt>
      <trkpt lat="50.61505" lon="3.1546">
        <ele>46.451</ele>
        <time>2019-09-17T14:09:57.001Z</time>
      </trkpt>
      <trkpt lat="50.61499" lon="3.15476">
        <ele>46.824</ele>
        <time>2019-09-17T14:10:00.000Z</time>
      </trkpt>
      <trkpt lat="50.61491" lon="3.15492">
        <ele>47.661</ele>
        <time>2019-09-17T14:10:03.001Z</time>
      </trkpt>
      <trkpt lat="50.61484" lon="3.15511">
        <ele>47.146</ele>
        <time>2019-09-17T14:10:06.001Z</time>
      </trkpt>
      <trkpt lat="50.61478" lon="3.15531">
        <ele>46.084</ele>
        <time>2019-09-17T14:10:09.001Z</time>
      </trkpt>
      <trkpt lat="50.61469" lon="3.15547">
        <ele>45.082</ele>
        <time>2019-09-17T14:10:12.001Z</time>
      </trkpt>
      <trkpt lat="50.61462" lon="3.15564">
        <ele>44.634</ele>
        <time>2019-09-17T14:10:15.001Z</time>
      </trkpt>
      <trkpt lat="50.61453" lon="3.15581">
        <ele>44.366</ele>
        <time>2019-09-17T14:10:18.001Z</time>
      </trkpt>
      <trkpt lat="50.61443" lon="3.15597">
        <ele>44.58</ele>
        <time>2019-09-17T14:10:21.001Z</time>
      </trkpt>
      <trkpt lat="50.61435" lon="3.15615">
        <ele>45.014</ele>
        <time>2019-09-17T14:10:24.001Z</time>
      </trkpt>
      <trkpt lat="50.61426" lon="3.15632">
        <ele>45.434</ele>
        <time>2019-09-17T14:10:27.001Z</time>
      </trkpt>
      <trkpt lat="50.61417" lon="3.15649">
        <ele>46.064</ele>
        <time>2019-09-17T14:10:30.001Z</time>
      </trkpt>
      <trkpt lat="50.61409" lon="3.15664">
        <ele>46.562</ele>
        <time>2019-09-17T14:10:33.001Z</time>
      </trkpt>
      <trkpt lat="50.61402" lon="3.15678">
        <ele>46.19</ele>
        <time>2019-09-17T14:10:36.001Z</time>
      </trkpt>
      <trkpt lat="50.61396" lon="3.15691">
        <ele>46.858</ele>
        <time>2019-09-17T14:10:39.001Z</time>
      </trkpt>
      <trkpt lat="50.61389" lon="3.15705">
        <ele>47.516</ele>
        <time>2019-09-17T14:10:42.001Z</time>
      </trkpt>
      <trkpt lat="50.61382" lon="3.1572">
        <ele>48.455</ele>
        <time>2019-09-17T14:10:45.001Z</time>
      </trkpt>
      <trkpt lat="50.61374" lon="3.15736">
        <ele>50.279</ele>
        <time>2019-09-17T14:10:48.001Z</time>
      </trkpt>
      <trkpt lat="50.61365" lon="3.15751">
        <ele>51.385</ele>
        <time>2019-09-17T14:10:51.001Z</time>
      </trkpt>
      <trkpt lat="50.61356" lon="3.15768">
        <ele>52.209</ele>
        <time>2019-09-17T14:10:54.001Z</time>
      </trkpt>
      <trkpt lat="50.61348" lon="3.15785">
        <ele>52.668</ele>
        <time>2019-09-17T14:10:57.001Z</time>
      </trkpt>
      <trkpt lat="50.6134" lon="3.15801">
        <ele>52.883</ele>
        <time>2019-09-17T14:11:00.000Z</time>
      </trkpt>
      <trkpt lat="50.61332" lon="3.15819">
        <ele>52.412</ele>
        <time>2019-09-17T14:11:03.001Z</time>
      </trkpt>
      <trkpt lat="50.61323" lon="3.15836">
        <ele>51.412</ele>
        <time>2019-09-17T14:11:06.001Z</time>
      </trkpt>
      <trkpt lat="50.61314" lon="3.15852">
        <ele>51.86</ele>
        <time>2019-09-17T14:11:09.001Z</time>
      </trkpt>
      <trkpt lat="50.61304" lon="3.15869">
        <ele>51.621</ele>
        <time>2019-09-17T14:11:12.001Z</time>
      </trkpt>
      <trkpt lat="50.61294" lon="3.15885">
        <ele>51.014</ele>
        <time>2019-09-17T14:11:15.001Z</time>
      </trkpt>
      <trkpt lat="50.61283" lon="3.15899">
        <ele>51.708</ele>
        <time>2019-09-17T14:11:18.001Z</time>
      </trkpt>
      <trkpt lat="50.61275" lon="3.15913">
        <ele>51.427</ele>
        <time>2019-09-17T14:11:21.001Z</time>
      </trkpt>
      <trkpt lat="50.61267" lon="3.15926">
        <ele>50.272</ele>
        <time>2019-09-17T14:11:24.001Z</time>
      </trkpt>
      <trkpt lat="50.61259" lon="3.15937">
        <ele>49.763</ele>
        <time>2019-09-17T14:11:27.001Z</time>
      </trkpt>
      <trkpt lat="50.6125" lon="3.15951">
        <ele>49.776</ele>
        <time>2019-09-17T14:11:30.001Z</time>
      </trkpt>
      <trkpt lat="50.6124" lon="3.15967">
        <ele>49.509</ele>
        <time>2019-09-17T14:11:33.001Z</time>
      </trkpt>
      <trkpt lat="50.6123" lon="3.15982">
        <ele>49.177</ele>
        <time>2019-09-17T14:11:36.001Z</time>
      </trkpt>
      <trkpt lat="50.6122" lon="3.15997">
        <ele>48.715</ele>
        <time>2019-09-17T14:11:39.001Z</time>
      </trkpt>
      <trkpt lat="50.61211" lon="3.16011">
        <ele>48.834</ele>
        <time>2019-09-17T14:11:42.001Z</time>
      </trkpt>
      <trkpt lat="50.61202" lon="3.16024">
        <ele>48.071</ele>
        <time>2019-09-17T14:11:45.001Z</time>
      </trkpt>
      <trkpt lat="50.61198" lon="3.16033">
        <ele>48.266</ele>
        <time>2019-09-17T14:11:48.001Z</time>
      </trkpt>
      <trkpt lat="50.61191" lon="3.16044">
        <ele>48.44</ele>
        <time>2019-09-17T14:11:51.001Z</time>
      </trkpt>
      <trkpt lat="50.61183" lon="3.16056">
        <ele>48.081</ele>
        <time>2019-09-17T14:11:54.001Z</time>
      </trkpt>
      <trkpt lat="50.61175" lon="3.16067">
        <ele>47.278</ele>
        <time>2019-09-17T14:11:57.001Z</time>
      </trkpt>
      <trkpt lat="50.61168" lon="3.16076">
        <ele>46.619</ele>
        <time>2019-09-17T14:12:00.000Z</time>
      </trkpt>
      <trkpt lat="50.61162" lon="3.16085">
        <ele>46.119</ele>
        <time>2019-09-17T14:12:03.001Z</time>
      </trkpt>
      <trkpt lat="50.61158" lon="3.1609">
        <ele>46.098</ele>
        <time>2019-09-17T14:12:06.001Z</time>
      </trkpt>
      <trkpt lat="50.61155" lon="3.16093">
        <ele>45.838</ele>
        <time>2019-09-17T14:12:09.001Z</time>
      </trkpt>
      <trkpt lat="50.61155" lon="3.16093">
        <ele>45.838</ele>
        <time>2019-09-17T14:12:21.001Z</time>
      </trkpt>
      <trkpt lat="50.61154" lon="3.16096">
        <ele>46.417</ele>
        <time>2019-09-17T14:12:24.001Z</time>
      </trkpt>
      <trkpt lat="50.61148" lon="3.16103">
        <ele>48.236</ele>
        <time>2019-09-17T14:12:27.001Z</time>
      </trkpt>
      <trkpt lat="50.61144" lon="3.16113">
        <ele>48.659</ele>
        <time>2019-09-17T14:12:30.001Z</time>
      </trkpt>
      <trkpt lat="50.61138" lon="3.16123">
        <ele>46.948</ele>
        <time>2019-09-17T14:12:33.001Z</time>
      </trkpt>
      <trkpt lat="50.6113" lon="3.16135">
        <ele>47.259</ele>
        <time>2019-09-17T14:12:36.001Z</time>
      </trkpt>
      <trkpt lat="50.61122" lon="3.1615">
        <ele>47.777</ele>
        <time>2019-09-17T14:12:39.001Z</time>
      </trkpt>
      <trkpt lat="50.61114" lon="3.16165">
        <ele>48.201</ele>
        <time>2019-09-17T14:12:42.001Z</time>
      </trkpt>
      <trkpt lat="50.61106" lon="3.1618">
        <ele>49.116</ele>
        <time>2019-09-17T14:12:45.001Z</time>
      </trkpt>
      <trkpt lat="50.61096" lon="3.16193">
        <ele>48.898</ele>
        <time>2019-09-17T14:12:48.001Z</time>
      </trkpt>
      <trkpt lat="50.61088" lon="3.16208">
        <ele>49.377</ele>
        <time>2019-09-17T14:12:51.001Z</time>
      </trkpt>
      <trkpt lat="50.6108" lon="3.16225">
        <ele>49.439</ele>
        <time>2019-09-17T14:12:54.001Z</time>
      </trkpt>
      <trkpt lat="50.61071" lon="3.1624">
        <ele>49.291</ele>
        <time>2019-09-17T14:12:57.001Z</time>
      </trkpt>
      <trkpt lat="50.61062" lon="3.16258">
        <ele>49.338</ele>
        <time>2019-09-17T14:13:00.000Z</time>
      </trkpt>
      <trkpt lat="50.61054" lon="3.16275">
        <ele>49.363</ele>
        <time>2019-09-17T14:13:03.001Z</time>
      </trkpt>
      <trkpt lat="50.61045" lon="3.16292">
        <ele>48.802</ele>
        <time>2019-09-17T14:13:06.001Z</time>
      </trkpt>
      <trkpt lat="50.61035" lon="3.16307">
        <ele>48.355</ele>
        <time>2019-09-17T14:13:09.001Z</time>
      </trkpt>
      <trkpt lat="50.61026" lon="3.16322">
        <ele>48.351</ele>
        <time>2019-09-17T14:13:12.001Z</time>
      </trkpt>
      <trkpt lat="50.6102" lon="3.16339">
        <ele>48.496</ele>
        <time>2019-09-17T14:13:15.001Z</time>
      </trkpt>
      <trkpt lat="50.61013" lon="3.16355">
        <ele>47.624</ele>
        <time>2019-09-17T14:13:18.001Z</time>
      </trkpt>
      <trkpt lat="50.61006" lon="3.16372">
        <ele>46.396</ele>
        <time>2019-09-17T14:13:21.001Z</time>
      </trkpt>
      <trkpt lat="50.60998" lon="3.16389">
        <ele>45.089</ele>
        <time>2019-09-17T14:13:24.001Z</time>
      </trkpt>
      <trkpt lat="50.60991" lon="3.16406">
        <ele>43.245</ele>
        <time>2019-09-17T14:13:27.001Z</time>
      </trkpt>
      <trkpt lat="50.60983" lon="3.16423">
        <ele>42.582</ele>
        <time>2019-09-17T14:13:30.001Z</time>
      </trkpt>
      <trkpt lat="50.60975" lon="3.16438">
        <ele>42.968</ele>
        <time>2019-09-17T14:13:33.001Z</time>
      </trkpt>
      <trkpt lat="50.60967" lon="3.16453">
        <ele>42.748</ele>
        <time>2019-09-17T14:13:36.001Z</time>
      </trkpt>
      <trkpt lat="50.60961" lon="3.16469">
        <ele>42.252</ele>
        <time>2019-09-17T14:13:39.001Z</time>
      </trkpt>
      <trkpt lat="50.60957" lon="3.16483">
        <ele>40.842</ele>
        <time>2019-09-17T14:13:42.001Z</time>
      </trkpt>
      <trkpt lat="50.60954" lon="3.16496">
        <ele>39.776</ele>
        <time>2019-09-17T14:13:45.001Z</time>
      </trkpt>
      <trkpt lat="50.6095" lon="3.16509">
        <ele>38.183</ele>
        <time>2019-09-17T14:13:48.001Z</time>
      </trkpt>
      <trkpt lat="50.60944" lon="3.16524">
        <ele>37.473</ele>
        <time>2019-09-17T14:13:51.001Z</time>
      </trkpt>
      <trkpt lat="50.60939" lon="3.1654">
        <ele>37.161</ele>
        <time>2019-09-17T14:13:54.001Z</time>
      </trkpt>
      <trkpt lat="50.60934" lon="3.16556">
        <ele>36.961</ele>
        <time>2019-09-17T14:13:57.001Z</time>
      </trkpt>
      <trkpt lat="50.60928" lon="3.16572">
        <ele>36.952</ele>
        <time>2019-09-17T14:14:00.000Z</time>
      </trkpt>
      <trkpt lat="50.60923" lon="3.16589">
        <ele>36.225</ele>
        <time>2019-09-17T14:14:03.001Z</time>
      </trkpt>
      <trkpt lat="50.60917" lon="3.16608">
        <ele>35.754</ele>
        <time>2019-09-17T14:14:06.001Z</time>
      </trkpt>
      <trkpt lat="50.60912" lon="3.16628">
        <ele>35.983</ele>
        <time>2019-09-17T14:14:09.001Z</time>
      </trkpt>
      <trkpt lat="50.60908" lon="3.16647">
        <ele>36.504</ele>
        <time>2019-09-17T14:14:12.001Z</time>
      </trkpt>
      <trkpt lat="50.60905" lon="3.16667">
        <ele>36.903</ele>
        <time>2019-09-17T14:14:15.001Z</time>
      </trkpt>
      <trkpt lat="50.60903" lon="3.1669">
        <ele>37.293</ele>
        <time>2019-09-17T14:14:18.001Z</time>
      </trkpt>
      <trkpt lat="50.60901" lon="3.16712">
        <ele>37.44</ele>
        <time>2019-09-17T14:14:21.001Z</time>
      </trkpt>
      <trkpt lat="50.60899" lon="3.16733">
        <ele>37.384</ele>
        <time>2019-09-17T14:14:24.001Z</time>
      </trkpt>
      <trkpt lat="50.60897" lon="3.16754">
        <ele>38.378</ele>
        <time>2019-09-17T14:14:27.001Z</time>
      </trkpt>
      <trkpt lat="50.60894" lon="3.16778">
        <ele>39</ele>
        <time>2019-09-17T14:14:30.001Z</time>
      </trkpt>
      <trkpt lat="50.60892" lon="3.16803">
        <ele>38.216</ele>
        <time>2019-09-17T14:14:33.001Z</time>
      </trkpt>
      <trkpt lat="50.60891" lon="3.16827">
        <ele>37.366</ele>
        <time>2019-09-17T14:14:36.001Z</time>
      </trkpt>
      <trkpt lat="50.60889" lon="3.1685">
        <ele>37.462</ele>
        <time>2019-09-17T14:14:39.001Z</time>
      </trkpt>
      <trkpt lat="50.60886" lon="3.16871">
        <ele>37.437</ele>
        <time>2019-09-17T14:14:42.001Z</time>
      </trkpt>
      <trkpt lat="50.60884" lon="3.16893">
        <ele>37.229</ele>
        <time>2019-09-17T14:14:45.001Z</time>
      </trkpt>
      <trkpt lat="50.60882" lon="3.16915">
        <ele>36.986</ele>
        <time>2019-09-17T14:14:48.001Z</time>
      </trkpt>
      <trkpt lat="50.6088" lon="3.16937">
        <ele>36.872</ele>
        <time>2019-09-17T14:14:51.001Z</time>
      </trkpt>
      <trkpt lat="50.60879" lon="3.16959">
        <ele>36.618</ele>
        <time>2019-09-17T14:14:54.001Z</time>
      </trkpt>
      <trkpt lat="50.60878" lon="3.16981">
        <ele>37.752</ele>
        <time>2019-09-17T14:14:57.001Z</time>
      </trkpt>
      <trkpt lat="50.60877" lon="3.17003">
        <ele>38.365</ele>
        <time>2019-09-17T14:15:00.000Z</time>
      </trkpt>
      <trkpt lat="50.60875" lon="3.17024">
        <ele>39.255</ele>
        <time>2019-09-17T14:15:03.001Z</time>
      </trkpt>
      <trkpt lat="50.60875" lon="3.17046">
        <ele>40.132</ele>
        <time>2019-09-17T14:15:06.001Z</time>
      </trkpt>
      <trkpt lat="50.60875" lon="3.17067">
        <ele>40.395</ele>
        <time>2019-09-17T14:15:09.001Z</time>
      </trkpt>
      <trkpt lat="50.60875" lon="3.17088">
        <ele>40.139</ele>
        <time>2019-09-17T14:15:12.001Z</time>
      </trkpt>
      <trkpt lat="50.60875" lon="3.17109">
        <ele>40.294</ele>
        <time>2019-09-17T14:15:15.001Z</time>
      </trkpt>
      <trkpt lat="50.60875" lon="3.17129">
        <ele>41.262</ele>
        <time>2019-09-17T14:15:18.001Z</time>
      </trkpt>
      <trkpt lat="50.60876" lon="3.17149">
        <ele>41.909</ele>
        <time>2019-09-17T14:15:21.001Z</time>
      </trkpt>
      <trkpt lat="50.60876" lon="3.1717">
        <ele>42.366</ele>
        <time>2019-09-17T14:15:24.001Z</time>
      </trkpt>
      <trkpt lat="50.60876" lon="3.17191">
        <ele>41.402</ele>
        <time>2019-09-17T14:15:27.001Z</time>
      </trkpt>
      <trkpt lat="50.60876" lon="3.17214">
        <ele>41.152</ele>
        <time>2019-09-17T14:15:30.001Z</time>
      </trkpt>
      <trkpt lat="50.60877" lon="3.17238">
        <ele>41.119</ele>
        <time>2019-09-17T14:15:33.001Z</time>
      </trkpt>
      <trkpt lat="50.60878" lon="3.17262">
        <ele>40.275</ele>
        <time>2019-09-17T14:15:36.001Z</time>
      </trkpt>
      <trkpt lat="50.60879" lon="3.17284">
        <ele>40.222</ele>
        <time>2019-09-17T14:15:39.001Z</time>
      </trkpt>
      <trkpt lat="50.60879" lon="3.17305">
        <ele>40.14</ele>
        <time>2019-09-17T14:15:42.001Z</time>
      </trkpt>
      <trkpt lat="50.60881" lon="3.17323">
        <ele>39.97</ele>
        <time>2019-09-17T14:15:45.001Z</time>
      </trkpt>
      <trkpt lat="50.60886" lon="3.17334">
        <ele>39.176</ele>
        <time>2019-09-17T14:15:48.001Z</time>
      </trkpt>
      <trkpt lat="50.60889" lon="3.17348">
        <ele>39.168</ele>
        <time>2019-09-17T14:15:51.001Z</time>
      </trkpt>
      <trkpt lat="50.60888" lon="3.17366">
        <ele>39.093</ele>
        <time>2019-09-17T14:15:54.001Z</time>
      </trkpt>
      <trkpt lat="50.60886" lon="3.17384">
        <ele>39.751</ele>
        <time>2019-09-17T14:15:57.001Z</time>
      </trkpt>
      <trkpt lat="50.60882" lon="3.17402">
        <ele>39.771</ele>
        <time>2019-09-17T14:16:00.000Z</time>
      </trkpt>
      <trkpt lat="50.6088" lon="3.17421">
        <ele>39.276</ele>
        <time>2019-09-17T14:16:03.001Z</time>
      </trkpt>
      <trkpt lat="50.60882" lon="3.1744">
        <ele>38.842</ele>
        <time>2019-09-17T14:16:06.001Z</time>
      </trkpt>
      <trkpt lat="50.60884" lon="3.17461">
        <ele>38.589</ele>
        <time>2019-09-17T14:16:09.001Z</time>
      </trkpt>
      <trkpt lat="50.60886" lon="3.17481">
        <ele>38.008</ele>
        <time>2019-09-17T14:16:12.001Z</time>
      </trkpt>
      <trkpt lat="50.60889" lon="3.17501">
        <ele>37.738</ele>
        <time>2019-09-17T14:16:15.001Z</time>
      </trkpt>
      <trkpt lat="50.60891" lon="3.17521">
        <ele>37.6</ele>
        <time>2019-09-17T14:16:18.001Z</time>
      </trkpt>
      <trkpt lat="50.60895" lon="3.17541">
        <ele>37.2</ele>
        <time>2019-09-17T14:16:21.001Z</time>
      </trkpt>
      <trkpt lat="50.60897" lon="3.17561">
        <ele>36.884</ele>
        <time>2019-09-17T14:16:24.001Z</time>
      </trkpt>
      <trkpt lat="50.60899" lon="3.17581">
        <ele>36.668</ele>
        <time>2019-09-17T14:16:27.001Z</time>
      </trkpt>
      <trkpt lat="50.60901" lon="3.17601">
        <ele>35.949</ele>
        <time>2019-09-17T14:16:30.001Z</time>
      </trkpt>
      <trkpt lat="50.60903" lon="3.17621">
        <ele>36.35</ele>
        <time>2019-09-17T14:16:33.001Z</time>
      </trkpt>
      <trkpt lat="50.60906" lon="3.17641">
        <ele>36.107</ele>
        <time>2019-09-17T14:16:36.001Z</time>
      </trkpt>
      <trkpt lat="50.60909" lon="3.1766">
        <ele>35.939</ele>
        <time>2019-09-17T14:16:39.001Z</time>
      </trkpt>
      <trkpt lat="50.60911" lon="3.17678">
        <ele>35.845</ele>
        <time>2019-09-17T14:16:42.001Z</time>
      </trkpt>
      <trkpt lat="50.60913" lon="3.17695">
        <ele>35.603</ele>
        <time>2019-09-17T14:16:45.001Z</time>
      </trkpt>
      <trkpt lat="50.60916" lon="3.17713">
        <ele>36.202</ele>
        <time>2019-09-17T14:16:48.001Z</time>
      </trkpt>
      <trkpt lat="50.60918" lon="3.17732">
        <ele>35.822</ele>
        <time>2019-09-17T14:16:51.001Z</time>
      </trkpt>
      <trkpt lat="50.6092" lon="3.17753">
        <ele>35.638</ele>
        <time>2019-09-17T14:16:54.001Z</time>
      </trkpt>
      <trkpt lat="50.60922" lon="3.17774">
        <ele>35.697</ele>
        <time>2019-09-17T14:16:57.001Z</time>
      </trkpt>
      <trkpt lat="50.60923" lon="3.17796">
        <ele>35.287</ele>
        <time>2019-09-17T14:17:00.000Z</time>
      </trkpt>
      <trkpt lat="50.60925" lon="3.17815">
        <ele>35.696</ele>
        <time>2019-09-17T14:17:03.001Z</time>
      </trkpt>
      <trkpt lat="50.60926" lon="3.17835">
        <ele>35.879</ele>
        <time>2019-09-17T14:17:06.001Z</time>
      </trkpt>
      <trkpt lat="50.60928" lon="3.17856">
        <ele>36.068</ele>
        <time>2019-09-17T14:17:09.001Z</time>
      </trkpt>
      <trkpt lat="50.60929" lon="3.17877">
        <ele>35.903</ele>
        <time>2019-09-17T14:17:12.001Z</time>
      </trkpt>
      <trkpt lat="50.6093" lon="3.17898">
        <ele>36.162</ele>
        <time>2019-09-17T14:17:15.001Z</time>
      </trkpt>
      <trkpt lat="50.60932" lon="3.17919">
        <ele>36.102</ele>
        <time>2019-09-17T14:17:18.001Z</time>
      </trkpt>
      <trkpt lat="50.60934" lon="3.17938">
        <ele>36.14</ele>
        <time>2019-09-17T14:17:21.001Z</time>
      </trkpt>
      <trkpt lat="50.60935" lon="3.17956">
        <ele>35.918</ele>
        <time>2019-09-17T14:17:24.001Z</time>
      </trkpt>
      <trkpt lat="50.60936" lon="3.17975">
        <ele>35.936</ele>
        <time>2019-09-17T14:17:27.001Z</time>
      </trkpt>
      <trkpt lat="50.60937" lon="3.17993">
        <ele>35.494</ele>
        <time>2019-09-17T14:17:30.001Z</time>
      </trkpt>
      <trkpt lat="50.60937" lon="3.18009">
        <ele>35.675</ele>
        <time>2019-09-17T14:17:33.001Z</time>
      </trkpt>
      <trkpt lat="50.60938" lon="3.18025">
        <ele>36.501</ele>
        <time>2019-09-17T14:17:36.001Z</time>
      </trkpt>
      <trkpt lat="50.6094" lon="3.18044">
        <ele>36.777</ele>
        <time>2019-09-17T14:17:39.001Z</time>
      </trkpt>
      <trkpt lat="50.60941" lon="3.18063">
        <ele>37.415</ele>
        <time>2019-09-17T14:17:42.001Z</time>
      </trkpt>
      <trkpt lat="50.60942" lon="3.18084">
        <ele>37.37</ele>
        <time>2019-09-17T14:17:45.001Z</time>
      </trkpt>
      <trkpt lat="50.60945" lon="3.18106">
        <ele>37.381</ele>
        <time>2019-09-17T14:17:48.001Z</time>
      </trkpt>
      <trkpt lat="50.60949" lon="3.18126">
        <ele>37.725</ele>
        <time>2019-09-17T14:17:51.001Z</time>
      </trkpt>
      <trkpt lat="50.60953" lon="3.18145">
        <ele>36.395</ele>
        <time>2019-09-17T14:17:54.001Z</time>
      </trkpt>
      <trkpt lat="50.60956" lon="3.18167">
        <ele>36.207</ele>
        <time>2019-09-17T14:17:57.001Z</time>
      </trkpt>
      <trkpt lat="50.6096" lon="3.18189">
        <ele>35.805</ele>
        <time>2019-09-17T14:18:00.000Z</time>
      </trkpt>
      <trkpt lat="50.60963" lon="3.1821">
        <ele>36.694</ele>
        <time>2019-09-17T14:18:03.001Z</time>
      </trkpt>
      <trkpt lat="50.60966" lon="3.18231">
        <ele>38.742</ele>
        <time>2019-09-17T14:18:06.001Z</time>
      </trkpt>
      <trkpt lat="50.60971" lon="3.18253">
        <ele>39.185</ele>
        <time>2019-09-17T14:18:09.001Z</time>
      </trkpt>
      <trkpt lat="50.60975" lon="3.18276">
        <ele>39.888</ele>
        <time>2019-09-17T14:18:12.001Z</time>
      </trkpt>
      <trkpt lat="50.60979" lon="3.18298">
        <ele>39.712</ele>
        <time>2019-09-17T14:18:15.001Z</time>
      </trkpt>
      <trkpt lat="50.60985" lon="3.1832">
        <ele>39.115</ele>
        <time>2019-09-17T14:18:18.001Z</time>
      </trkpt>
      <trkpt lat="50.60991" lon="3.1834">
        <ele>38.512</ele>
        <time>2019-09-17T14:18:21.001Z</time>
      </trkpt>
      <trkpt lat="50.60996" lon="3.1836">
        <ele>38.172</ele>
        <time>2019-09-17T14:18:24.001Z</time>
      </trkpt>
      <trkpt lat="50.61002" lon="3.18379">
        <ele>37.666</ele>
        <time>2019-09-17T14:18:27.001Z</time>
      </trkpt>
      <trkpt lat="50.61006" lon="3.18399">
        <ele>37.573</ele>
        <time>2019-09-17T14:18:30.001Z</time>
      </trkpt>
      <trkpt lat="50.61011" lon="3.18418">
        <ele>37.071</ele>
        <time>2019-09-17T14:18:33.001Z</time>
      </trkpt>
      <trkpt lat="50.61015" lon="3.18437">
        <ele>37.371</ele>
        <time>2019-09-17T14:18:36.001Z</time>
      </trkpt>
      <trkpt lat="50.61021" lon="3.18456">
        <ele>37.607</ele>
        <time>2019-09-17T14:18:39.001Z</time>
      </trkpt>
      <trkpt lat="50.61026" lon="3.18475">
        <ele>37.828</ele>
        <time>2019-09-17T14:18:42.001Z</time>
      </trkpt>
      <trkpt lat="50.61033" lon="3.18495">
        <ele>38.246</ele>
        <time>2019-09-17T14:18:45.001Z</time>
      </trkpt>
      <trkpt lat="50.6104" lon="3.18514">
        <ele>37.685</ele>
        <time>2019-09-17T14:18:48.001Z</time>
      </trkpt>
      <trkpt lat="50.61046" lon="3.18533">
        <ele>36.908</ele>
        <time>2019-09-17T14:18:51.001Z</time>
      </trkpt>
      <trkpt lat="50.61053" lon="3.18551">
        <ele>35.863</ele>
        <time>2019-09-17T14:18:54.001Z</time>
      </trkpt>
      <trkpt lat="50.6106" lon="3.18571">
        <ele>35.424</ele>
        <time>2019-09-17T14:18:57.001Z</time>
      </trkpt>
      <trkpt lat="50.61067" lon="3.18589">
        <ele>34.549</ele>
        <time>2019-09-17T14:19:00.000Z</time>
      </trkpt>
      <trkpt lat="50.61074" lon="3.18608">
        <ele>33.901</ele>
        <time>2019-09-17T14:19:03.001Z</time>
      </trkpt>
      <trkpt lat="50.61081" lon="3.1863">
        <ele>33.568</ele>
        <time>2019-09-17T14:19:06.001Z</time>
      </trkpt>
      <trkpt lat="50.61088" lon="3.1865">
        <ele>33.036</ele>
        <time>2019-09-17T14:19:09.001Z</time>
      </trkpt>
      <trkpt lat="50.61093" lon="3.18672">
        <ele>32.534</ele>
        <time>2019-09-17T14:19:12.001Z</time>
      </trkpt>
      <trkpt lat="50.61099" lon="3.18693">
        <ele>32.333</ele>
        <time>2019-09-17T14:19:15.001Z</time>
      </trkpt>
      <trkpt lat="50.61105" lon="3.18714">
        <ele>32.025</ele>
        <time>2019-09-17T14:19:18.001Z</time>
      </trkpt>
      <trkpt lat="50.6111" lon="3.18734">
        <ele>32.563</ele>
        <time>2019-09-17T14:19:21.001Z</time>
      </trkpt>
      <trkpt lat="50.61113" lon="3.18757">
        <ele>32.624</ele>
        <time>2019-09-17T14:19:24.001Z</time>
      </trkpt>
      <trkpt lat="50.61117" lon="3.18781">
        <ele>32.773</ele>
        <time>2019-09-17T14:19:27.001Z</time>
      </trkpt>
      <trkpt lat="50.61122" lon="3.18805">
        <ele>33.303</ele>
        <time>2019-09-17T14:19:30.001Z</time>
      </trkpt>
      <trkpt lat="50.61128" lon="3.18828">
        <ele>34.613</ele>
        <time>2019-09-17T14:19:33.001Z</time>
      </trkpt>
      <trkpt lat="50.61133" lon="3.18851">
        <ele>35.745</ele>
        <time>2019-09-17T14:19:36.001Z</time>
      </trkpt>
      <trkpt lat="50.61136" lon="3.18875">
        <ele>36.461</ele>
        <time>2019-09-17T14:19:39.001Z</time>
      </trkpt>
      <trkpt lat="50.61139" lon="3.18895">
        <ele>36.711</ele>
        <time>2019-09-17T14:19:42.001Z</time>
      </trkpt>
      <trkpt lat="50.61141" lon="3.18914">
        <ele>37.184</ele>
        <time>2019-09-17T14:19:45.001Z</time>
      </trkpt>
      <trkpt lat="50.61142" lon="3.18936">
        <ele>37.44</ele>
        <time>2019-09-17T14:19:48.001Z</time>
      </trkpt>
      <trkpt lat="50.61143" lon="3.18955">
        <ele>39.459</ele>
        <time>2019-09-17T14:19:51.001Z</time>
      </trkpt>
      <trkpt lat="50.61144" lon="3.18972">
        <ele>39.149</ele>
        <time>2019-09-17T14:19:54.001Z</time>
      </trkpt>
      <trkpt lat="50.61146" lon="3.18987">
        <ele>38.698</ele>
        <time>2019-09-17T14:19:57.001Z</time>
      </trkpt>
      <trkpt lat="50.61147" lon="3.19003">
        <ele>39.061</ele>
        <time>2019-09-17T14:20:00.000Z</time>
      </trkpt>
      <trkpt lat="50.61147" lon="3.19022">
        <ele>40.002</ele>
        <time>2019-09-17T14:20:03.001Z</time>
      </trkpt>
      <trkpt lat="50.61147" lon="3.19044">
        <ele>40.964</ele>
        <time>2019-09-17T14:20:06.001Z</time>
      </trkpt>
      <trkpt lat="50.61147" lon="3.19069">
        <ele>41.051</ele>
        <time>2019-09-17T14:20:09.001Z</time>
      </trkpt>
      <trkpt lat="50.61148" lon="3.19093">
        <ele>40.327</ele>
        <time>2019-09-17T14:20:12.001Z</time>
      </trkpt>
      <trkpt lat="50.61146" lon="3.19118">
        <ele>40.336</ele>
        <time>2019-09-17T14:20:15.001Z</time>
      </trkpt>
      <trkpt lat="50.61147" lon="3.19143">
        <ele>39.688</ele>
        <time>2019-09-17T14:20:18.001Z</time>
      </trkpt>
      <trkpt lat="50.61149" lon="3.19164">
        <ele>39.016</ele>
        <time>2019-09-17T14:20:21.001Z</time>
      </trkpt>
      <trkpt lat="50.6115" lon="3.19189">
        <ele>38.937</ele>
        <time>2019-09-17T14:20:24.001Z</time>
      </trkpt>
      <trkpt lat="50.61152" lon="3.19215">
        <ele>37.907</ele>
        <time>2019-09-17T14:20:27.001Z</time>
      </trkpt>
      <trkpt lat="50.61157" lon="3.19236">
        <ele>36.965</ele>
        <time>2019-09-17T14:20:30.001Z</time>
      </trkpt>
      <trkpt lat="50.6116" lon="3.19257">
        <ele>36.269</ele>
        <time>2019-09-17T14:20:33.001Z</time>
      </trkpt>
      <trkpt lat="50.61164" lon="3.1928">
        <ele>35.621</ele>
        <time>2019-09-17T14:20:36.001Z</time>
      </trkpt>
      <trkpt lat="50.61169" lon="3.19304">
        <ele>34.997</ele>
        <time>2019-09-17T14:20:39.001Z</time>
      </trkpt>
      <trkpt lat="50.61172" lon="3.19329">
        <ele>34.256</ele>
        <time>2019-09-17T14:20:42.001Z</time>
      </trkpt>
      <trkpt lat="50.61175" lon="3.19354">
        <ele>32.718</ele>
        <time>2019-09-17T14:20:45.001Z</time>
      </trkpt>
      <trkpt lat="50.61176" lon="3.19379">
        <ele>31.8</ele>
        <time>2019-09-17T14:20:48.001Z</time>
      </trkpt>
      <trkpt lat="50.61173" lon="3.19403">
        <ele>30.995</ele>
        <time>2019-09-17T14:20:51.001Z</time>
      </trkpt>
      <trkpt lat="50.61169" lon="3.19425">
        <ele>30.007</ele>
        <time>2019-09-17T14:20:54.001Z</time>
      </trkpt>
      <trkpt lat="50.61164" lon="3.19447">
        <ele>29.597</ele>
        <time>2019-09-17T14:20:57.001Z</time>
      </trkpt>
      <trkpt lat="50.6116" lon="3.19473">
        <ele>28.498</ele>
        <time>2019-09-17T14:21:00.000Z</time>
      </trkpt>
      <trkpt lat="50.61158" lon="3.19499">
        <ele>27.955</ele>
        <time>2019-09-17T14:21:03.001Z</time>
      </trkpt>
      <trkpt lat="50.61155" lon="3.19523">
        <ele>27.425</ele>
        <time>2019-09-17T14:21:06.001Z</time>
      </trkpt>
      <trkpt lat="50.61151" lon="3.19547">
        <ele>27.082</ele>
        <time>2019-09-17T14:21:09.001Z</time>
      </trkpt>
      <trkpt lat="50.61149" lon="3.19569">
        <ele>26.757</ele>
        <time>2019-09-17T14:21:12.001Z</time>
      </trkpt>
      <trkpt lat="50.61147" lon="3.1959">
        <ele>27.936</ele>
        <time>2019-09-17T14:21:15.001Z</time>
      </trkpt>
      <trkpt lat="50.61144" lon="3.1961">
        <ele>28.895</ele>
        <time>2019-09-17T14:21:18.001Z</time>
      </trkpt>
      <trkpt lat="50.61142" lon="3.19631">
        <ele>31.191</ele>
        <time>2019-09-17T14:21:21.001Z</time>
      </trkpt>
      <trkpt lat="50.61141" lon="3.19653">
        <ele>32.601</ele>
        <time>2019-09-17T14:21:24.001Z</time>
      </trkpt>
      <trkpt lat="50.61141" lon="3.19676">
        <ele>33.681</ele>
        <time>2019-09-17T14:21:27.001Z</time>
      </trkpt>
      <trkpt lat="50.61141" lon="3.19696">
        <ele>34.899</ele>
        <time>2019-09-17T14:21:30.001Z</time>
      </trkpt>
      <trkpt lat="50.6114" lon="3.19716">
        <ele>35.506</ele>
        <time>2019-09-17T14:21:33.001Z</time>
      </trkpt>
      <trkpt lat="50.61141" lon="3.19734">
        <ele>35.642</ele>
        <time>2019-09-17T14:21:36.001Z</time>
      </trkpt>
      <trkpt lat="50.61142" lon="3.19752">
        <ele>36.023</ele>
        <time>2019-09-17T14:21:39.001Z</time>
      </trkpt>
      <trkpt lat="50.61141" lon="3.19769">
        <ele>36.651</ele>
        <time>2019-09-17T14:21:42.001Z</time>
      </trkpt>
      <trkpt lat="50.6114" lon="3.19786">
        <ele>36.715</ele>
        <time>2019-09-17T14:21:45.001Z</time>
      </trkpt>
      <trkpt lat="50.6114" lon="3.19802">
        <ele>37.573</ele>
        <time>2019-09-17T14:21:48.001Z</time>
      </trkpt>
      <trkpt lat="50.6114" lon="3.19818">
        <ele>39.408</ele>
        <time>2019-09-17T14:21:51.001Z</time>
      </trkpt>
      <trkpt lat="50.61139" lon="3.19833">
        <ele>40.943</ele>
        <time>2019-09-17T14:21:54.001Z</time>
      </trkpt>
      <trkpt lat="50.61139" lon="3.19847">
        <ele>42.922</ele>
        <time>2019-09-17T14:21:57.001Z</time>
      </trkpt>
      <trkpt lat="50.61137" lon="3.19864">
        <ele>43.217</ele>
        <time>2019-09-17T14:22:00.000Z</time>
      </trkpt>
      <trkpt lat="50.61134" lon="3.19882">
        <ele>42.466</ele>
        <time>2019-09-17T14:22:03.001Z</time>
      </trkpt>
      <trkpt lat="50.61131" lon="3.199">
        <ele>41.705</ele>
        <time>2019-09-17T14:22:06.001Z</time>
      </trkpt>
      <trkpt lat="50.61128" lon="3.19918">
        <ele>40.94</ele>
        <time>2019-09-17T14:22:09.001Z</time>
      </trkpt>
      <trkpt lat="50.61126" lon="3.19936">
        <ele>40.428</ele>
        <time>2019-09-17T14:22:12.001Z</time>
      </trkpt>
      <trkpt lat="50.61126" lon="3.19955">
        <ele>39.89</ele>
        <time>2019-09-17T14:22:15.001Z</time>
      </trkpt>
      <trkpt lat="50.61124" lon="3.19973">
        <ele>40.051</ele>
        <time>2019-09-17T14:22:18.001Z</time>
      </trkpt>
      <trkpt lat="50.61122" lon="3.1999">
        <ele>40.287</ele>
        <time>2019-09-17T14:22:21.001Z</time>
      </trkpt>
      <trkpt lat="50.61122" lon="3.20009">
        <ele>41.229</ele>
        <time>2019-09-17T14:22:24.001Z</time>
      </trkpt>
      <trkpt lat="50.61121" lon="3.20029">
        <ele>41.854</ele>
        <time>2019-09-17T14:22:27.001Z</time>
      </trkpt>
      <trkpt lat="50.6112" lon="3.20048">
        <ele>42.879</ele>
        <time>2019-09-17T14:22:30.001Z</time>
      </trkpt>
      <trkpt lat="50.61119" lon="3.20066">
        <ele>43.511</ele>
        <time>2019-09-17T14:22:33.001Z</time>
      </trkpt>
      <trkpt lat="50.61121" lon="3.20084">
        <ele>44.085</ele>
        <time>2019-09-17T14:22:36.001Z</time>
      </trkpt>
      <trkpt lat="50.61122" lon="3.20102">
        <ele>44.354</ele>
        <time>2019-09-17T14:22:39.001Z</time>
      </trkpt>
      <trkpt lat="50.61123" lon="3.20119">
        <ele>43.995</ele>
        <time>2019-09-17T14:22:42.001Z</time>
      </trkpt>
      <trkpt lat="50.61122" lon="3.20135">
        <ele>44.825</ele>
        <time>2019-09-17T14:22:45.001Z</time>
      </trkpt>
      <trkpt lat="50.61122" lon="3.20155">
        <ele>45.758</ele>
        <time>2019-09-17T14:22:48.001Z</time>
      </trkpt>
      <trkpt lat="50.6112" lon="3.20174">
        <ele>45.735</ele>
        <time>2019-09-17T14:22:51.001Z</time>
      </trkpt>
      <trkpt lat="50.61119" lon="3.20193">
        <ele>45.86</ele>
        <time>2019-09-17T14:22:54.001Z</time>
      </trkpt>
      <trkpt lat="50.61118" lon="3.20213">
        <ele>45.037</ele>
        <time>2019-09-17T14:22:57.001Z</time>
      </trkpt>
      <trkpt lat="50.61118" lon="3.20232">
        <ele>44.364</ele>
        <time>2019-09-17T14:23:00.000Z</time>
      </trkpt>
      <trkpt lat="50.61117" lon="3.20251">
        <ele>42.957</ele>
        <time>2019-09-17T14:23:03.001Z</time>
      </trkpt>
      <trkpt lat="50.61114" lon="3.2027">
        <ele>42.566</ele>
        <time>2019-09-17T14:23:06.001Z</time>
      </trkpt>
      <trkpt lat="50.6111" lon="3.20289">
        <ele>42.089</ele>
        <time>2019-09-17T14:23:09.001Z</time>
      </trkpt>
      <trkpt lat="50.61106" lon="3.20306">
        <ele>41.546</ele>
        <time>2019-09-17T14:23:12.001Z</time>
      </trkpt>
      <trkpt lat="50.61102" lon="3.20322">
        <ele>42.09</ele>
        <time>2019-09-17T14:23:15.001Z</time>
      </trkpt>
      <trkpt lat="50.61096" lon="3.20336">
        <ele>41.528</ele>
        <time>2019-09-17T14:23:18.001Z</time>
      </trkpt>
      <trkpt lat="50.61088" lon="3.20353">
        <ele>41.234</ele>
        <time>2019-09-17T14:23:21.001Z</time>
      </trkpt>
      <trkpt lat="50.61083" lon="3.20369">
        <ele>41.028</ele>
        <time>2019-09-17T14:23:24.001Z</time>
      </trkpt>
      <trkpt lat="50.61077" lon="3.20385">
        <ele>40.168</ele>
        <time>2019-09-17T14:23:27.001Z</time>
      </trkpt>
      <trkpt lat="50.61072" lon="3.20399">
        <ele>38.961</ele>
        <time>2019-09-17T14:23:30.001Z</time>
      </trkpt>
      <trkpt lat="50.61067" lon="3.20412">
        <ele>37.892</ele>
        <time>2019-09-17T14:23:33.001Z</time>
      </trkpt>
      <trkpt lat="50.61062" lon="3.20428">
        <ele>38.68</ele>
        <time>2019-09-17T14:23:36.001Z</time>
      </trkpt>
      <trkpt lat="50.61059" lon="3.20443">
        <ele>38.804</ele>
        <time>2019-09-17T14:23:39.001Z</time>
      </trkpt>
      <trkpt lat="50.61056" lon="3.20459">
        <ele>38.414</ele>
        <time>2019-09-17T14:23:42.001Z</time>
      </trkpt>
      <trkpt lat="50.61054" lon="3.20476">
        <ele>38.524</ele>
        <time>2019-09-17T14:23:45.001Z</time>
      </trkpt>
      <trkpt lat="50.61052" lon="3.20494">
        <ele>38.478</ele>
        <time>2019-09-17T14:23:48.001Z</time>
      </trkpt>
      <trkpt lat="50.61049" lon="3.20513">
        <ele>38.338</ele>
        <time>2019-09-17T14:23:51.001Z</time>
      </trkpt>
      <trkpt lat="50.61048" lon="3.2053">
        <ele>37.751</ele>
        <time>2019-09-17T14:23:54.001Z</time>
      </trkpt>
      <trkpt lat="50.6105" lon="3.20551">
        <ele>37.055</ele>
        <time>2019-09-17T14:23:57.001Z</time>
      </trkpt>
      <trkpt lat="50.6105" lon="3.20574">
        <ele>36.476</ele>
        <time>2019-09-17T14:24:00.000Z</time>
      </trkpt>
      <trkpt lat="50.6105" lon="3.20597">
        <ele>36.796</ele>
        <time>2019-09-17T14:24:03.001Z</time>
      </trkpt>
      <trkpt lat="50.6105" lon="3.20616">
        <ele>35.917</ele>
        <time>2019-09-17T14:24:06.001Z</time>
      </trkpt>
      <trkpt lat="50.61052" lon="3.20636">
        <ele>35.912</ele>
        <time>2019-09-17T14:24:09.001Z</time>
      </trkpt>
      <trkpt lat="50.61054" lon="3.20659">
        <ele>36.345</ele>
        <time>2019-09-17T14:24:12.001Z</time>
      </trkpt>
      <trkpt lat="50.61055" lon="3.20683">
        <ele>36.242</ele>
        <time>2019-09-17T14:24:15.001Z</time>
      </trkpt>
      <trkpt lat="50.61055" lon="3.20707">
        <ele>35.945</ele>
        <time>2019-09-17T14:24:18.001Z</time>
      </trkpt>
      <trkpt lat="50.61055" lon="3.2073">
        <ele>36.56</ele>
        <time>2019-09-17T14:24:21.001Z</time>
      </trkpt>
      <trkpt lat="50.61052" lon="3.20752">
        <ele>37.413</ele>
        <time>2019-09-17T14:24:24.001Z</time>
      </trkpt>
      <trkpt lat="50.61051" lon="3.20775">
        <ele>37.846</ele>
        <time>2019-09-17T14:24:27.001Z</time>
      </trkpt>
      <trkpt lat="50.6105" lon="3.20798">
        <ele>38.238</ele>
        <time>2019-09-17T14:24:30.001Z</time>
      </trkpt>
      <trkpt lat="50.6105" lon="3.20822">
        <ele>37.948</ele>
        <time>2019-09-17T14:24:33.001Z</time>
      </trkpt>
      <trkpt lat="50.6105" lon="3.20844">
        <ele>38.256</ele>
        <time>2019-09-17T14:24:36.001Z</time>
      </trkpt>
      <trkpt lat="50.61049" lon="3.20863">
        <ele>38.314</ele>
        <time>2019-09-17T14:24:39.001Z</time>
      </trkpt>
      <trkpt lat="50.61051" lon="3.20882">
        <ele>39.387</ele>
        <time>2019-09-17T14:24:42.001Z</time>
      </trkpt>
      <trkpt lat="50.61051" lon="3.209">
        <ele>39.449</ele>
        <time>2019-09-17T14:24:45.001Z</time>
      </trkpt>
      <trkpt lat="50.61051" lon="3.20917">
        <ele>40.358</ele>
        <time>2019-09-17T14:24:48.001Z</time>
      </trkpt>
      <trkpt lat="50.61048" lon="3.2094">
        <ele>40.536</ele>
        <time>2019-09-17T14:24:51.001Z</time>
      </trkpt>
      <trkpt lat="50.61044" lon="3.20961">
        <ele>41.006</ele>
        <time>2019-09-17T14:24:54.001Z</time>
      </trkpt>
      <trkpt lat="50.61038" lon="3.20981">
        <ele>40.534</ele>
        <time>2019-09-17T14:24:57.001Z</time>
      </trkpt>
      <trkpt lat="50.61032" lon="3.20999">
        <ele>39.856</ele>
        <time>2019-09-17T14:25:00.000Z</time>
      </trkpt>
      <trkpt lat="50.61026" lon="3.21016">
        <ele>39.05</ele>
        <time>2019-09-17T14:25:03.001Z</time>
      </trkpt>
      <trkpt lat="50.61019" lon="3.21033">
        <ele>39.43</ele>
        <time>2019-09-17T14:25:06.001Z</time>
      </trkpt>
      <trkpt lat="50.61013" lon="3.21051">
        <ele>40.688</ele>
        <time>2019-09-17T14:25:09.001Z</time>
      </trkpt>
      <trkpt lat="50.61007" lon="3.21069">
        <ele>41.44</ele>
        <time>2019-09-17T14:25:12.001Z</time>
      </trkpt>
      <trkpt lat="50.61001" lon="3.21087">
        <ele>41.868</ele>
        <time>2019-09-17T14:25:15.001Z</time>
      </trkpt>
      <trkpt lat="50.60994" lon="3.21106">
        <ele>42.191</ele>
        <time>2019-09-17T14:25:18.001Z</time>
      </trkpt>
      <trkpt lat="50.60989" lon="3.21127">
        <ele>42.39</ele>
        <time>2019-09-17T14:25:21.001Z</time>
      </trkpt>
      <trkpt lat="50.60986" lon="3.21147">
        <ele>42.079</ele>
        <time>2019-09-17T14:25:24.001Z</time>
      </trkpt>
      <trkpt lat="50.60984" lon="3.21167">
        <ele>41.23</ele>
        <time>2019-09-17T14:25:27.001Z</time>
      </trkpt>
      <trkpt lat="50.60983" lon="3.21185">
        <ele>41.045</ele>
        <time>2019-09-17T14:25:30.001Z</time>
      </trkpt>
      <trkpt lat="50.60981" lon="3.21206">
        <ele>40.696</ele>
        <time>2019-09-17T14:25:33.001Z</time>
      </trkpt>
      <trkpt lat="50.6098" lon="3.21228">
        <ele>40.266</ele>
        <time>2019-09-17T14:25:36.001Z</time>
      </trkpt>
      <trkpt lat="50.60981" lon="3.2125">
        <ele>40.011</ele>
        <time>2019-09-17T14:25:39.001Z</time>
      </trkpt>
      <trkpt lat="50.60981" lon="3.21273">
        <ele>39.937</ele>
        <time>2019-09-17T14:25:42.001Z</time>
      </trkpt>
      <trkpt lat="50.60982" lon="3.21297">
        <ele>40.418</ele>
        <time>2019-09-17T14:25:45.001Z</time>
      </trkpt>
      <trkpt lat="50.60982" lon="3.2132">
        <ele>39.765</ele>
        <time>2019-09-17T14:25:48.001Z</time>
      </trkpt>
      <trkpt lat="50.60982" lon="3.21343">
        <ele>39.137</ele>
        <time>2019-09-17T14:25:51.001Z</time>
      </trkpt>
      <trkpt lat="50.60981" lon="3.21367">
        <ele>38.103</ele>
        <time>2019-09-17T14:25:54.001Z</time>
      </trkpt>
      <trkpt lat="50.6098" lon="3.2139">
        <ele>36.673</ele>
        <time>2019-09-17T14:25:57.001Z</time>
      </trkpt>
      <trkpt lat="50.60979" lon="3.21412">
        <ele>36.132</ele>
        <time>2019-09-17T14:26:00.000Z</time>
      </trkpt>
      <trkpt lat="50.60978" lon="3.21435">
        <ele>34.895</ele>
        <time>2019-09-17T14:26:03.001Z</time>
      </trkpt>
      <trkpt lat="50.60977" lon="3.2146">
        <ele>33.368</ele>
        <time>2019-09-17T14:26:06.001Z</time>
      </trkpt>
      <trkpt lat="50.60976" lon="3.21486">
        <ele>32.764</ele>
        <time>2019-09-17T14:26:09.001Z</time>
      </trkpt>
      <trkpt lat="50.60977" lon="3.21511">
        <ele>33.265</ele>
        <time>2019-09-17T14:26:12.001Z</time>
      </trkpt>
      <trkpt lat="50.60976" lon="3.21534">
        <ele>33.809</ele>
        <time>2019-09-17T14:26:15.001Z</time>
      </trkpt>
      <trkpt lat="50.60976" lon="3.21561">
        <ele>34.151</ele>
        <time>2019-09-17T14:26:18.001Z</time>
      </trkpt>
      <trkpt lat="50.60975" lon="3.21586">
        <ele>34.553</ele>
        <time>2019-09-17T14:26:21.001Z</time>
      </trkpt>
      <trkpt lat="50.60974" lon="3.2161">
        <ele>34.165</ele>
        <time>2019-09-17T14:26:24.001Z</time>
      </trkpt>
      <trkpt lat="50.60975" lon="3.21635">
        <ele>33.524</ele>
        <time>2019-09-17T14:26:27.001Z</time>
      </trkpt>
      <trkpt lat="50.60974" lon="3.21662">
        <ele>32.176</ele>
        <time>2019-09-17T14:26:30.001Z</time>
      </trkpt>
      <trkpt lat="50.60975" lon="3.21687">
        <ele>32.112</ele>
        <time>2019-09-17T14:26:33.001Z</time>
      </trkpt>
      <trkpt lat="50.60976" lon="3.2171">
        <ele>32.634</ele>
        <time>2019-09-17T14:26:36.001Z</time>
      </trkpt>
      <trkpt lat="50.60977" lon="3.21732">
        <ele>33.252</ele>
        <time>2019-09-17T14:26:39.001Z</time>
      </trkpt>
      <trkpt lat="50.60978" lon="3.21756">
        <ele>33.774</ele>
        <time>2019-09-17T14:26:42.001Z</time>
      </trkpt>
      <trkpt lat="50.60979" lon="3.2178">
        <ele>34.375</ele>
        <time>2019-09-17T14:26:45.001Z</time>
      </trkpt>
      <trkpt lat="50.6098" lon="3.21803">
        <ele>35.39</ele>
        <time>2019-09-17T14:26:48.001Z</time>
      </trkpt>
      <trkpt lat="50.60981" lon="3.21825">
        <ele>35.76</ele>
        <time>2019-09-17T14:26:51.001Z</time>
      </trkpt>
      <trkpt lat="50.60982" lon="3.21848">
        <ele>35.769</ele>
        <time>2019-09-17T14:26:54.001Z</time>
      </trkpt>
      <trkpt lat="50.60981" lon="3.21872">
        <ele>34.564</ele>
        <time>2019-09-17T14:26:57.001Z</time>
      </trkpt>
      <trkpt lat="50.6098" lon="3.21895">
        <ele>33.891</ele>
        <time>2019-09-17T14:27:00.000Z</time>
      </trkpt>
      <trkpt lat="50.60981" lon="3.21918">
        <ele>33.182</ele>
        <time>2019-09-17T14:27:03.001Z</time>
      </trkpt>
      <trkpt lat="50.60982" lon="3.21941">
        <ele>32.252</ele>
        <time>2019-09-17T14:27:06.001Z</time>
      </trkpt>
      <trkpt lat="50.60983" lon="3.21963">
        <ele>31.794</ele>
        <time>2019-09-17T14:27:09.001Z</time>
      </trkpt>
      <trkpt lat="50.60983" lon="3.21983">
        <ele>31.119</ele>
        <time>2019-09-17T14:27:12.001Z</time>
      </trkpt>
      <trkpt lat="50.60983" lon="3.22004">
        <ele>30.77</ele>
        <time>2019-09-17T14:27:15.001Z</time>
      </trkpt>
      <trkpt lat="50.60984" lon="3.22026">
        <ele>30.994</ele>
        <time>2019-09-17T14:27:18.001Z</time>
      </trkpt>
      <trkpt lat="50.60984" lon="3.22048">
        <ele>31.658</ele>
        <time>2019-09-17T14:27:21.001Z</time>
      </trkpt>
      <trkpt lat="50.60985" lon="3.22071">
        <ele>31.592</ele>
        <time>2019-09-17T14:27:24.001Z</time>
      </trkpt>
      <trkpt lat="50.60986" lon="3.2209">
        <ele>31.49</ele>
        <time>2019-09-17T14:27:27.001Z</time>
      </trkpt>
      <trkpt lat="50.60987" lon="3.22111">
        <ele>31.884</ele>
        <time>2019-09-17T14:27:30.001Z</time>
      </trkpt>
      <trkpt lat="50.60988" lon="3.22132">
        <ele>31.447</ele>
        <time>2019-09-17T14:27:33.001Z</time>
      </trkpt>
      <trkpt lat="50.6099" lon="3.22153">
        <ele>32.052</ele>
        <time>2019-09-17T14:27:36.001Z</time>
      </trkpt>
      <trkpt lat="50.60992" lon="3.22176">
        <ele>32.115</ele>
        <time>2019-09-17T14:27:39.001Z</time>
      </trkpt>
      <trkpt lat="50.60996" lon="3.22201">
        <ele>32.043</ele>
        <time>2019-09-17T14:27:42.001Z</time>
      </trkpt>
      <trkpt lat="50.61" lon="3.22226">
        <ele>32.362</ele>
        <time>2019-09-17T14:27:45.001Z</time>
      </trkpt>
      <trkpt lat="50.61003" lon="3.22251">
        <ele>32.102</ele>
        <time>2019-09-17T14:27:48.001Z</time>
      </trkpt>
      <trkpt lat="50.61007" lon="3.22274">
        <ele>32.484</ele>
        <time>2019-09-17T14:27:51.001Z</time>
      </trkpt>
      <trkpt lat="50.61009" lon="3.22296">
        <ele>32.657</ele>
        <time>2019-09-17T14:27:54.001Z</time>
      </trkpt>
      <trkpt lat="50.61011" lon="3.22317">
        <ele>33.159</ele>
        <time>2019-09-17T14:27:57.001Z</time>
      </trkpt>
      <trkpt lat="50.61014" lon="3.22342">
        <ele>34.039</ele>
        <time>2019-09-17T14:28:00.000Z</time>
      </trkpt>
      <trkpt lat="50.61017" lon="3.22365">
        <ele>34.466</ele>
        <time>2019-09-17T14:28:03.001Z</time>
      </trkpt>
      <trkpt lat="50.61018" lon="3.22387">
        <ele>35.307</ele>
        <time>2019-09-17T14:28:06.001Z</time>
      </trkpt>
      <trkpt lat="50.61019" lon="3.22406">
        <ele>35.565</ele>
        <time>2019-09-17T14:28:09.001Z</time>
      </trkpt>
      <trkpt lat="50.61019" lon="3.22426">
        <ele>35.623</ele>
        <time>2019-09-17T14:28:12.001Z</time>
      </trkpt>
      <trkpt lat="50.6102" lon="3.22446">
        <ele>35.79</ele>
        <time>2019-09-17T14:28:15.001Z</time>
      </trkpt>
      <trkpt lat="50.61021" lon="3.22466">
        <ele>35.037</ele>
        <time>2019-09-17T14:28:18.001Z</time>
      </trkpt>
      <trkpt lat="50.61022" lon="3.22488">
        <ele>34.294</ele>
        <time>2019-09-17T14:28:21.001Z</time>
      </trkpt>
      <trkpt lat="50.61022" lon="3.22511">
        <ele>33.671</ele>
        <time>2019-09-17T14:28:24.001Z</time>
      </trkpt>
      <trkpt lat="50.61021" lon="3.22533">
        <ele>33.444</ele>
        <time>2019-09-17T14:28:27.001Z</time>
      </trkpt>
      <trkpt lat="50.61019" lon="3.22556">
        <ele>32.543</ele>
        <time>2019-09-17T14:28:30.001Z</time>
      </trkpt>
      <trkpt lat="50.61017" lon="3.22577">
        <ele>32.143</ele>
        <time>2019-09-17T14:28:33.001Z</time>
      </trkpt>
      <trkpt lat="50.61014" lon="3.22597">
        <ele>31.711</ele>
        <time>2019-09-17T14:28:36.001Z</time>
      </trkpt>
      <trkpt lat="50.61013" lon="3.22618">
        <ele>31.493</ele>
        <time>2019-09-17T14:28:39.001Z</time>
      </trkpt>
      <trkpt lat="50.61012" lon="3.22639">
        <ele>31.589</ele>
        <time>2019-09-17T14:28:42.001Z</time>
      </trkpt>
      <trkpt lat="50.6101" lon="3.2266">
        <ele>31.925</ele>
        <time>2019-09-17T14:28:45.001Z</time>
      </trkpt>
      <trkpt lat="50.61007" lon="3.22682">
        <ele>32.314</ele>
        <time>2019-09-17T14:28:48.001Z</time>
      </trkpt>
      <trkpt lat="50.61004" lon="3.22704">
        <ele>33.519</ele>
        <time>2019-09-17T14:28:51.001Z</time>
      </trkpt>
      <trkpt lat="50.61" lon="3.22726">
        <ele>34.453</ele>
        <time>2019-09-17T14:28:54.001Z</time>
      </trkpt>
      <trkpt lat="50.60998" lon="3.22748">
        <ele>35.053</ele>
        <time>2019-09-17T14:28:57.001Z</time>
      </trkpt>
      <trkpt lat="50.60996" lon="3.22769">
        <ele>35.589</ele>
        <time>2019-09-17T14:29:00.000Z</time>
      </trkpt>
      <trkpt lat="50.60995" lon="3.2279">
        <ele>36.195</ele>
        <time>2019-09-17T14:29:03.001Z</time>
      </trkpt>
      <trkpt lat="50.60993" lon="3.22809">
        <ele>37.478</ele>
        <time>2019-09-17T14:29:06.001Z</time>
      </trkpt>
      <trkpt lat="50.60992" lon="3.22829">
        <ele>38.626</ele>
        <time>2019-09-17T14:29:09.001Z</time>
      </trkpt>
      <trkpt lat="50.6099" lon="3.22846">
        <ele>39.401</ele>
        <time>2019-09-17T14:29:12.001Z</time>
      </trkpt>
      <trkpt lat="50.60989" lon="3.22861">
        <ele>39.791</ele>
        <time>2019-09-17T14:29:15.001Z</time>
      </trkpt>
      <trkpt lat="50.60988" lon="3.22876">
        <ele>40.539</ele>
        <time>2019-09-17T14:29:18.001Z</time>
      </trkpt>
      <trkpt lat="50.60988" lon="3.22891">
        <ele>40.678</ele>
        <time>2019-09-17T14:29:21.001Z</time>
      </trkpt>
      <trkpt lat="50.60987" lon="3.22903">
        <ele>40.867</ele>
        <time>2019-09-17T14:29:24.001Z</time>
      </trkpt>
      <trkpt lat="50.60986" lon="3.22915">
        <ele>41.721</ele>
        <time>2019-09-17T14:29:27.001Z</time>
      </trkpt>
      <trkpt lat="50.60984" lon="3.22929">
        <ele>42.606</ele>
        <time>2019-09-17T14:29:30.001Z</time>
      </trkpt>
      <trkpt lat="50.60982" lon="3.22943">
        <ele>43.35</ele>
        <time>2019-09-17T14:29:33.001Z</time>
      </trkpt>
      <trkpt lat="50.6098" lon="3.2296">
        <ele>42.983</ele>
        <time>2019-09-17T14:29:36.001Z</time>
      </trkpt>
      <trkpt lat="50.60988" lon="3.22972">
        <ele>42.589</ele>
        <time>2019-09-17T14:29:39.001Z</time>
      </trkpt>
      <trkpt lat="50.61003" lon="3.22973">
        <ele>42.426</ele>
        <time>2019-09-17T14:29:42.001Z</time>
      </trkpt>
      <trkpt lat="50.6102" lon="3.22975">
        <ele>41.945</ele>
        <time>2019-09-17T14:29:45.001Z</time>
      </trkpt>
      <trkpt lat="50.61034" lon="3.22976">
        <ele>41.701</ele>
        <time>2019-09-17T14:29:48.001Z</time>
      </trkpt>
      <trkpt lat="50.6105" lon="3.22975">
        <ele>41.582</ele>
        <time>2019-09-17T14:29:51.001Z</time>
      </trkpt>
      <trkpt lat="50.61068" lon="3.22974">
        <ele>41.361</ele>
        <time>2019-09-17T14:29:54.001Z</time>
      </trkpt>
      <trkpt lat="50.61086" lon="3.22974">
        <ele>41.612</ele>
        <time>2019-09-17T14:29:57.001Z</time>
      </trkpt>
      <trkpt lat="50.61104" lon="3.22975">
        <ele>41.475</ele>
        <time>2019-09-17T14:30:00.000Z</time>
      </trkpt>
      <trkpt lat="50.61121" lon="3.22977">
        <ele>42.237</ele>
        <time>2019-09-17T14:30:03.001Z</time>
      </trkpt>
      <trkpt lat="50.61138" lon="3.2298">
        <ele>42.43</ele>
        <time>2019-09-17T14:30:06.001Z</time>
      </trkpt>
      <trkpt lat="50.61154" lon="3.22983">
        <ele>42.61</ele>
        <time>2019-09-17T14:30:09.001Z</time>
      </trkpt>
      <trkpt lat="50.61172" lon="3.2299">
        <ele>41.161</ele>
        <time>2019-09-17T14:30:12.001Z</time>
      </trkpt>
      <trkpt lat="50.61189" lon="3.22995">
        <ele>39.798</ele>
        <time>2019-09-17T14:30:15.001Z</time>
      </trkpt>
      <trkpt lat="50.61206" lon="3.22999">
        <ele>38.868</ele>
        <time>2019-09-17T14:30:18.001Z</time>
      </trkpt>
      <trkpt lat="50.61221" lon="3.23001">
        <ele>37.677</ele>
        <time>2019-09-17T14:30:21.001Z</time>
      </trkpt>
      <trkpt lat="50.61238" lon="3.23004">
        <ele>36.55</ele>
        <time>2019-09-17T14:30:24.001Z</time>
      </trkpt>
      <trkpt lat="50.61256" lon="3.23007">
        <ele>35.438</ele>
        <time>2019-09-17T14:30:27.001Z</time>
      </trkpt>
      <trkpt lat="50.61272" lon="3.23011">
        <ele>35.456</ele>
        <time>2019-09-17T14:30:30.001Z</time>
      </trkpt>
      <trkpt lat="50.61289" lon="3.23017">
        <ele>32.263</ele>
        <time>2019-09-17T14:30:33.001Z</time>
      </trkpt>
      <trkpt lat="50.61307" lon="3.2302">
        <ele>33.991</ele>
        <time>2019-09-17T14:30:36.001Z</time>
      </trkpt>
      <trkpt lat="50.61324" lon="3.23026">
        <ele>32.719</ele>
        <time>2019-09-17T14:30:39.001Z</time>
      </trkpt>
      <trkpt lat="50.6134" lon="3.23031">
        <ele>30.611</ele>
        <time>2019-09-17T14:30:42.001Z</time>
      </trkpt>
      <trkpt lat="50.61355" lon="3.23036">
        <ele>28.985</ele>
        <time>2019-09-17T14:30:45.001Z</time>
      </trkpt>
      <trkpt lat="50.61372" lon="3.23041">
        <ele>27.367</ele>
        <time>2019-09-17T14:30:48.001Z</time>
      </trkpt>
      <trkpt lat="50.61387" lon="3.23046">
        <ele>26.887</ele>
        <time>2019-09-17T14:30:51.001Z</time>
      </trkpt>
      <trkpt lat="50.61401" lon="3.23051">
        <ele>26.886</ele>
        <time>2019-09-17T14:30:54.001Z</time>
      </trkpt>
      <trkpt lat="50.61414" lon="3.2306">
        <ele>26.63</ele>
        <time>2019-09-17T14:30:57.001Z</time>
      </trkpt>
      <trkpt lat="50.61425" lon="3.23074">
        <ele>26.121</ele>
        <time>2019-09-17T14:31:00.000Z</time>
      </trkpt>
      <trkpt lat="50.61437" lon="3.23088">
        <ele>26.544</ele>
        <time>2019-09-17T14:31:03.001Z</time>
      </trkpt>
      <trkpt lat="50.61451" lon="3.23097">
        <ele>26.976</ele>
        <time>2019-09-17T14:31:06.001Z</time>
      </trkpt>
      <trkpt lat="50.61464" lon="3.23109">
        <ele>26.711</ele>
        <time>2019-09-17T14:31:09.001Z</time>
      </trkpt>
      <trkpt lat="50.61476" lon="3.23125">
        <ele>26.148</ele>
        <time>2019-09-17T14:31:12.001Z</time>
      </trkpt>
      <trkpt lat="50.61487" lon="3.23141">
        <ele>26.002</ele>
        <time>2019-09-17T14:31:15.001Z</time>
      </trkpt>
      <trkpt lat="50.61497" lon="3.23156">
        <ele>25.672</ele>
        <time>2019-09-17T14:31:18.001Z</time>
      </trkpt>
      <trkpt lat="50.61508" lon="3.23173">
        <ele>25.453</ele>
        <time>2019-09-17T14:31:21.001Z</time>
      </trkpt>
      <trkpt lat="50.61519" lon="3.23191">
        <ele>25.487</ele>
        <time>2019-09-17T14:31:24.001Z</time>
      </trkpt>
      <trkpt lat="50.61529" lon="3.23208">
        <ele>26.799</ele>
        <time>2019-09-17T14:31:27.001Z</time>
      </trkpt>
      <trkpt lat="50.6154" lon="3.23223">
        <ele>26.983</ele>
        <time>2019-09-17T14:31:30.001Z</time>
      </trkpt>
      <trkpt lat="50.61551" lon="3.23234">
        <ele>27.568</ele>
        <time>2019-09-17T14:31:33.001Z</time>
      </trkpt>
      <trkpt lat="50.61565" lon="3.23243">
        <ele>28.03</ele>
        <time>2019-09-17T14:31:36.001Z</time>
      </trkpt>
      <trkpt lat="50.61576" lon="3.23252">
        <ele>28.413</ele>
        <time>2019-09-17T14:31:39.001Z</time>
      </trkpt>
      <trkpt lat="50.61586" lon="3.23266">
        <ele>30.999</ele>
        <time>2019-09-17T14:31:42.001Z</time>
      </trkpt>
      <trkpt lat="50.61585" lon="3.23291">
        <ele>31.204</ele>
        <time>2019-09-17T14:31:45.001Z</time>
      </trkpt>
      <trkpt lat="50.61584" lon="3.23313">
        <ele>31.531</ele>
        <time>2019-09-17T14:31:48.001Z</time>
      </trkpt>
      <trkpt lat="50.61583" lon="3.23336">
        <ele>32.071</ele>
        <time>2019-09-17T14:31:51.001Z</time>
      </trkpt>
      <trkpt lat="50.61581" lon="3.23358">
        <ele>32.822</ele>
        <time>2019-09-17T14:31:54.001Z</time>
      </trkpt>
      <trkpt lat="50.6158" lon="3.23382">
        <ele>33.837</ele>
        <time>2019-09-17T14:31:57.001Z</time>
      </trkpt>
      <trkpt lat="50.6158" lon="3.23403">
        <ele>35.537</ele>
        <time>2019-09-17T14:32:00.000Z</time>
      </trkpt>
      <trkpt lat="50.61579" lon="3.23424">
        <ele>37.277</ele>
        <time>2019-09-17T14:32:03.001Z</time>
      </trkpt>
      <trkpt lat="50.61578" lon="3.23446">
        <ele>38.626</ele>
        <time>2019-09-17T14:32:06.001Z</time>
      </trkpt>
      <trkpt lat="50.61572" lon="3.23472">
        <ele>39.685</ele>
        <time>2019-09-17T14:32:09.001Z</time>
      </trkpt>
      <trkpt lat="50.61562" lon="3.23495">
        <ele>40.439</ele>
        <time>2019-09-17T14:32:12.001Z</time>
      </trkpt>
      <trkpt lat="50.6155" lon="3.23515">
        <ele>39.251</ele>
        <time>2019-09-17T14:32:15.001Z</time>
      </trkpt>
      <trkpt lat="50.6154" lon="3.23539">
        <ele>37.749</ele>
        <time>2019-09-17T14:32:18.001Z</time>
      </trkpt>
      <trkpt lat="50.61534" lon="3.23564">
        <ele>35.926</ele>
        <time>2019-09-17T14:32:21.001Z</time>
      </trkpt>
      <trkpt lat="50.61531" lon="3.23586">
        <ele>35.651</ele>
        <time>2019-09-17T14:32:24.001Z</time>
      </trkpt>
      <trkpt lat="50.61529" lon="3.23607">
        <ele>35.21</ele>
        <time>2019-09-17T14:32:27.001Z</time>
      </trkpt>
      <trkpt lat="50.61528" lon="3.23626">
        <ele>34.595</ele>
        <time>2019-09-17T14:32:30.001Z</time>
      </trkpt>
      <trkpt lat="50.61526" lon="3.23646">
        <ele>33.834</ele>
        <time>2019-09-17T14:32:33.001Z</time>
      </trkpt>
      <trkpt lat="50.61524" lon="3.23667">
        <ele>33.191</ele>
        <time>2019-09-17T14:32:36.001Z</time>
      </trkpt>
      <trkpt lat="50.61522" lon="3.23689">
        <ele>32.136</ele>
        <time>2019-09-17T14:32:39.001Z</time>
      </trkpt>
      <trkpt lat="50.6152" lon="3.23712">
        <ele>30.775</ele>
        <time>2019-09-17T14:32:42.001Z</time>
      </trkpt>
      <trkpt lat="50.61517" lon="3.23734">
        <ele>29.748</ele>
        <time>2019-09-17T14:32:45.001Z</time>
      </trkpt>
      <trkpt lat="50.61517" lon="3.23756">
        <ele>29.561</ele>
        <time>2019-09-17T14:32:48.001Z</time>
      </trkpt>
      <trkpt lat="50.61515" lon="3.23777">
        <ele>28.988</ele>
        <time>2019-09-17T14:32:51.001Z</time>
      </trkpt>
      <trkpt lat="50.61512" lon="3.23799">
        <ele>28.846</ele>
        <time>2019-09-17T14:32:54.001Z</time>
      </trkpt>
      <trkpt lat="50.6151" lon="3.23819">
        <ele>28.231</ele>
        <time>2019-09-17T14:32:57.001Z</time>
      </trkpt>
      <trkpt lat="50.61507" lon="3.23836">
        <ele>27.577</ele>
        <time>2019-09-17T14:33:00.000Z</time>
      </trkpt>
      <trkpt lat="50.61506" lon="3.23854">
        <ele>25.765</ele>
        <time>2019-09-17T14:33:03.001Z</time>
      </trkpt>
      <trkpt lat="50.6151" lon="3.23869">
        <ele>24.132</ele>
        <time>2019-09-17T14:33:06.001Z</time>
      </trkpt>
      <trkpt lat="50.61515" lon="3.23879">
        <ele>23.778</ele>
        <time>2019-09-17T14:33:09.001Z</time>
      </trkpt>
      <trkpt lat="50.6151" lon="3.23892">
        <ele>23.632</ele>
        <time>2019-09-17T14:33:12.001Z</time>
      </trkpt>
      <trkpt lat="50.61503" lon="3.23905">
        <ele>23.762</ele>
        <time>2019-09-17T14:33:15.001Z</time>
      </trkpt>
      <trkpt lat="50.61497" lon="3.23921">
        <ele>24.801</ele>
        <time>2019-09-17T14:33:18.001Z</time>
      </trkpt>
      <trkpt lat="50.61491" lon="3.23938">
        <ele>25.287</ele>
        <time>2019-09-17T14:33:21.001Z</time>
      </trkpt>
      <trkpt lat="50.61486" lon="3.23958">
        <ele>25.187</ele>
        <time>2019-09-17T14:33:24.001Z</time>
      </trkpt>
      <trkpt lat="50.6148" lon="3.23975">
        <ele>25.377</ele>
        <time>2019-09-17T14:33:27.001Z</time>
      </trkpt>
      <trkpt lat="50.61471" lon="3.23983">
        <ele>25.839</ele>
        <time>2019-09-17T14:33:30.001Z</time>
      </trkpt>
      <trkpt lat="50.6146" lon="3.23992">
        <ele>25.834</ele>
        <time>2019-09-17T14:33:33.001Z</time>
      </trkpt>
      <trkpt lat="50.61448" lon="3.23996">
        <ele>25.903</ele>
        <time>2019-09-17T14:33:36.001Z</time>
      </trkpt>
      <trkpt lat="50.61435" lon="3.23992">
        <ele>25.765</ele>
        <time>2019-09-17T14:33:39.001Z</time>
      </trkpt>
      <trkpt lat="50.61424" lon="3.23988">
        <ele>26.321</ele>
        <time>2019-09-17T14:33:42.001Z</time>
      </trkpt>
      <trkpt lat="50.61413" lon="3.23984">
        <ele>26.532</ele>
        <time>2019-09-17T14:33:45.001Z</time>
      </trkpt>
      <trkpt lat="50.614" lon="3.23986">
        <ele>27.048</ele>
        <time>2019-09-17T14:33:48.001Z</time>
      </trkpt>
      <trkpt lat="50.61388" lon="3.23986">
        <ele>26.759</ele>
        <time>2019-09-17T14:33:51.001Z</time>
      </trkpt>
      <trkpt lat="50.61375" lon="3.23985">
        <ele>26.505</ele>
        <time>2019-09-17T14:33:54.001Z</time>
      </trkpt>
      <trkpt lat="50.61364" lon="3.23987">
        <ele>25.059</ele>
        <time>2019-09-17T14:33:57.001Z</time>
      </trkpt>
      <trkpt lat="50.61353" lon="3.23991">
        <ele>24.254</ele>
        <time>2019-09-17T14:34:00.000Z</time>
      </trkpt>
      <trkpt lat="50.61342" lon="3.23998">
        <ele>23.129</ele>
        <time>2019-09-17T14:34:03.001Z</time>
      </trkpt>
      <trkpt lat="50.61332" lon="3.24002">
        <ele>23.106</ele>
        <time>2019-09-17T14:34:06.001Z</time>
      </trkpt>
      <trkpt lat="50.61323" lon="3.24002">
        <ele>22.823</ele>
        <time>2019-09-17T14:34:09.001Z</time>
      </trkpt>
      <trkpt lat="50.61315" lon="3.23998">
        <ele>23.119</ele>
        <time>2019-09-17T14:34:12.001Z</time>
      </trkpt>
      <trkpt lat="50.61307" lon="3.24">
        <ele>23.35</ele>
        <time>2019-09-17T14:34:15.001Z</time>
      </trkpt>
      <trkpt lat="50.61299" lon="3.24004">
        <ele>23.445</ele>
        <time>2019-09-17T14:34:18.001Z</time>
      </trkpt>
      <trkpt lat="50.61293" lon="3.24012">
        <ele>23.697</ele>
        <time>2019-09-17T14:34:21.001Z</time>
      </trkpt>
      <trkpt lat="50.6129" lon="3.24019">
        <ele>24.493</ele>
        <time>2019-09-17T14:34:24.001Z</time>
      </trkpt>
      <trkpt lat="50.61288" lon="3.24022">
        <ele>24.677</ele>
        <time>2019-09-17T14:34:27.001Z</time>
      </trkpt>
      <trkpt lat="50.61288" lon="3.24022">
        <ele>24.677</ele>
        <time>2019-09-17T14:34:45.001Z</time>
      </trkpt>
      <trkpt lat="50.61286" lon="3.2403">
        <ele>24.542</ele>
        <time>2019-09-17T14:34:48.001Z</time>
      </trkpt>
      <trkpt lat="50.6128" lon="3.24042">
        <ele>25.493</ele>
        <time>2019-09-17T14:34:51.001Z</time>
      </trkpt>
      <trkpt lat="50.61272" lon="3.24055">
        <ele>27.025</ele>
        <time>2019-09-17T14:34:54.001Z</time>
      </trkpt>
      <trkpt lat="50.61263" lon="3.24068">
        <ele>27.868</ele>
        <time>2019-09-17T14:34:57.001Z</time>
      </trkpt>
      <trkpt lat="50.61254" lon="3.24079">
        <ele>28.371</ele>
        <time>2019-09-17T14:35:00.000Z</time>
      </trkpt>
      <trkpt lat="50.61245" lon="3.24088">
        <ele>28.082</ele>
        <time>2019-09-17T14:35:03.001Z</time>
      </trkpt>
      <trkpt lat="50.61236" lon="3.24095">
        <ele>27.796</ele>
        <time>2019-09-17T14:35:06.001Z</time>
      </trkpt>
      <trkpt lat="50.61229" lon="3.24103">
        <ele>27.683</ele>
        <time>2019-09-17T14:35:09.001Z</time>
      </trkpt>
      <trkpt lat="50.61226" lon="3.24108">
        <ele>28.089</ele>
        <time>2019-09-17T14:35:12.001Z</time>
      </trkpt>
      <trkpt lat="50.61225" lon="3.24109">
        <ele>28.681</ele>
        <time>2019-09-17T14:35:15.001Z</time>
      </trkpt>
      <trkpt lat="50.61225" lon="3.24109">
        <ele>28.681</ele>
        <time>2019-09-17T14:39:45.001Z</time>
      </trkpt>
      <trkpt lat="50.61224" lon="3.2411">
        <ele>29.197</ele>
        <time>2019-09-17T14:39:48.001Z</time>
      </trkpt>
      <trkpt lat="50.61222" lon="3.24112">
        <ele>29.437</ele>
        <time>2019-09-17T14:39:51.001Z</time>
      </trkpt>
      <trkpt lat="50.61222" lon="3.24112">
        <ele>29.437</ele>
        <time>2019-09-17T14:40:39.001Z</time>
      </trkpt>
      <trkpt lat="50.61219" lon="3.24117">
        <ele>29.599</ele>
        <time>2019-09-17T14:40:42.001Z</time>
      </trkpt>
      <trkpt lat="50.61214" lon="3.24125">
        <ele>29.855</ele>
        <time>2019-09-17T14:40:45.001Z</time>
      </trkpt>
      <trkpt lat="50.61207" lon="3.24133">
        <ele>29.796</ele>
        <time>2019-09-17T14:40:48.001Z</time>
      </trkpt>
      <trkpt lat="50.61202" lon="3.24143">
        <ele>29.284</ele>
        <time>2019-09-17T14:40:51.001Z</time>
      </trkpt>
      <trkpt lat="50.612" lon="3.24158">
        <ele>29.336</ele>
        <time>2019-09-17T14:40:54.001Z</time>
      </trkpt>
      <trkpt lat="50.61193" lon="3.24169">
        <ele>29.676</ele>
        <time>2019-09-17T14:40:57.001Z</time>
      </trkpt>
      <trkpt lat="50.61184" lon="3.2418">
        <ele>30.889</ele>
        <time>2019-09-17T14:41:00.000Z</time>
      </trkpt>
      <trkpt lat="50.61175" lon="3.24192">
        <ele>31.787</ele>
        <time>2019-09-17T14:41:03.001Z</time>
      </trkpt>
      <trkpt lat="50.61166" lon="3.24202">
        <ele>32.039</ele>
        <time>2019-09-17T14:41:06.001Z</time>
      </trkpt>
      <trkpt lat="50.61156" lon="3.24214">
        <ele>31.898</ele>
        <time>2019-09-17T14:41:09.001Z</time>
      </trkpt>
      <trkpt lat="50.61145" lon="3.24225">
        <ele>32.306</ele>
        <time>2019-09-17T14:41:12.001Z</time>
      </trkpt>
      <trkpt lat="50.61136" lon="3.24236">
        <ele>32.081</ele>
        <time>2019-09-17T14:41:15.001Z</time>
      </trkpt>
      <trkpt lat="50.61127" lon="3.2425">
        <ele>31.59</ele>
        <time>2019-09-17T14:41:18.001Z</time>
      </trkpt>
      <trkpt lat="50.6112" lon="3.24266">
        <ele>31.547</ele>
        <time>2019-09-17T14:41:21.001Z</time>
      </trkpt>
      <trkpt lat="50.61115" lon="3.24284">
        <ele>31.051</ele>
        <time>2019-09-17T14:41:24.001Z</time>
      </trkpt>
      <trkpt lat="50.61109" lon="3.24303">
        <ele>30.778</ele>
        <time>2019-09-17T14:41:27.001Z</time>
      </trkpt>
      <trkpt lat="50.61104" lon="3.24323">
        <ele>30.472</ele>
        <time>2019-09-17T14:41:30.001Z</time>
      </trkpt>
      <trkpt lat="50.611" lon="3.24343">
        <ele>30.424</ele>
        <time>2019-09-17T14:41:33.001Z</time>
      </trkpt>
      <trkpt lat="50.61096" lon="3.2436">
        <ele>30.523</ele>
        <time>2019-09-17T14:41:36.001Z</time>
      </trkpt>
      <trkpt lat="50.61092" lon="3.24377">
        <ele>30.443</ele>
        <time>2019-09-17T14:41:39.001Z</time>
      </trkpt>
      <trkpt lat="50.61087" lon="3.24395">
        <ele>29.994</ele>
        <time>2019-09-17T14:41:42.001Z</time>
      </trkpt>
      <trkpt lat="50.61083" lon="3.24412">
        <ele>29.924</ele>
        <time>2019-09-17T14:41:45.001Z</time>
      </trkpt>
      <trkpt lat="50.61079" lon="3.2443">
        <ele>29.891</ele>
        <time>2019-09-17T14:41:48.001Z</time>
      </trkpt>
      <trkpt lat="50.61076" lon="3.24448">
        <ele>30.321</ele>
        <time>2019-09-17T14:41:51.001Z</time>
      </trkpt>
      <trkpt lat="50.61072" lon="3.24466">
        <ele>30.128</ele>
        <time>2019-09-17T14:41:54.001Z</time>
      </trkpt>
      <trkpt lat="50.61067" lon="3.24482">
        <ele>30.146</ele>
        <time>2019-09-17T14:41:57.001Z</time>
      </trkpt>
      <trkpt lat="50.61064" lon="3.24499">
        <ele>30.216</ele>
        <time>2019-09-17T14:42:00.000Z</time>
      </trkpt>
      <trkpt lat="50.61059" lon="3.24516">
        <ele>30.222</ele>
        <time>2019-09-17T14:42:03.001Z</time>
      </trkpt>
      <trkpt lat="50.61056" lon="3.24533">
        <ele>30.059</ele>
        <time>2019-09-17T14:42:06.001Z</time>
      </trkpt>
      <trkpt lat="50.61052" lon="3.24549">
        <ele>30.048</ele>
        <time>2019-09-17T14:42:09.001Z</time>
      </trkpt>
      <trkpt lat="50.61048" lon="3.24566">
        <ele>29.82</ele>
        <time>2019-09-17T14:42:12.001Z</time>
      </trkpt>
      <trkpt lat="50.61044" lon="3.24583">
        <ele>29.528</ele>
        <time>2019-09-17T14:42:15.001Z</time>
      </trkpt>
      <trkpt lat="50.6104" lon="3.24598">
        <ele>29.253</ele>
        <time>2019-09-17T14:42:18.001Z</time>
      </trkpt>
      <trkpt lat="50.61035" lon="3.24611">
        <ele>29.38</ele>
        <time>2019-09-17T14:42:21.001Z</time>
      </trkpt>
      <trkpt lat="50.61031" lon="3.24623">
        <ele>29.813</ele>
        <time>2019-09-17T14:42:24.001Z</time>
      </trkpt>
      <trkpt lat="50.61026" lon="3.24633">
        <ele>30.283</ele>
        <time>2019-09-17T14:42:27.001Z</time>
      </trkpt>
      <trkpt lat="50.61022" lon="3.24646">
        <ele>30.716</ele>
        <time>2019-09-17T14:42:30.001Z</time>
      </trkpt>
      <trkpt lat="50.61025" lon="3.24661">
        <ele>30.935</ele>
        <time>2019-09-17T14:42:33.001Z</time>
      </trkpt>
      <trkpt lat="50.61035" lon="3.24672">
        <ele>30.772</ele>
        <time>2019-09-17T14:42:36.001Z</time>
      </trkpt>
      <trkpt lat="50.61046" lon="3.24681">
        <ele>30.554</ele>
        <time>2019-09-17T14:42:39.001Z</time>
      </trkpt>
      <trkpt lat="50.61057" lon="3.24693">
        <ele>30.657</ele>
        <time>2019-09-17T14:42:42.001Z</time>
      </trkpt>
      <trkpt lat="50.61068" lon="3.24705">
        <ele>30.341</ele>
        <time>2019-09-17T14:42:45.001Z</time>
      </trkpt>
      <trkpt lat="50.61079" lon="3.24717">
        <ele>29.9</ele>
        <time>2019-09-17T14:42:48.001Z</time>
      </trkpt>
      <trkpt lat="50.61091" lon="3.2473">
        <ele>29.576</ele>
        <time>2019-09-17T14:42:51.001Z</time>
      </trkpt>
      <trkpt lat="50.61103" lon="3.24744">
        <ele>28.774</ele>
        <time>2019-09-17T14:42:54.001Z</time>
      </trkpt>
      <trkpt lat="50.61116" lon="3.24759">
        <ele>28.373</ele>
        <time>2019-09-17T14:42:57.001Z</time>
      </trkpt>
      <trkpt lat="50.61129" lon="3.24771">
        <ele>27.717</ele>
        <time>2019-09-17T14:43:00.000Z</time>
      </trkpt>
      <trkpt lat="50.61142" lon="3.24784">
        <ele>27.513</ele>
        <time>2019-09-17T14:43:03.001Z</time>
      </trkpt>
      <trkpt lat="50.61155" lon="3.24798">
        <ele>27.517</ele>
        <time>2019-09-17T14:43:06.001Z</time>
      </trkpt>
      <trkpt lat="50.61167" lon="3.24811">
        <ele>28.285</ele>
        <time>2019-09-17T14:43:09.001Z</time>
      </trkpt>
      <trkpt lat="50.6118" lon="3.24823">
        <ele>28.368</ele>
        <time>2019-09-17T14:43:12.001Z</time>
      </trkpt>
      <trkpt lat="50.61193" lon="3.24835">
        <ele>28.533</ele>
        <time>2019-09-17T14:43:15.001Z</time>
      </trkpt>
      <trkpt lat="50.61205" lon="3.24848">
        <ele>28.385</ele>
        <time>2019-09-17T14:43:18.001Z</time>
      </trkpt>
      <trkpt lat="50.61217" lon="3.24862">
        <ele>28.741</ele>
        <time>2019-09-17T14:43:21.001Z</time>
      </trkpt>
      <trkpt lat="50.61229" lon="3.24873">
        <ele>29.606</ele>
        <time>2019-09-17T14:43:24.001Z</time>
      </trkpt>
      <trkpt lat="50.61242" lon="3.24885">
        <ele>30.541</ele>
        <time>2019-09-17T14:43:27.001Z</time>
      </trkpt>
      <trkpt lat="50.61256" lon="3.24891">
        <ele>31.7</ele>
        <time>2019-09-17T14:43:30.001Z</time>
      </trkpt>
      <trkpt lat="50.61269" lon="3.24894">
        <ele>32.271</ele>
        <time>2019-09-17T14:43:33.001Z</time>
      </trkpt>
      <trkpt lat="50.61283" lon="3.24904">
        <ele>32.137</ele>
        <time>2019-09-17T14:43:36.001Z</time>
      </trkpt>
      <trkpt lat="50.61292" lon="3.24925">
        <ele>31.342</ele>
        <time>2019-09-17T14:43:39.001Z</time>
      </trkpt>
      <trkpt lat="50.61293" lon="3.24949">
        <ele>30.325</ele>
        <time>2019-09-17T14:43:42.001Z</time>
      </trkpt>
      <trkpt lat="50.6129" lon="3.2497">
        <ele>29.254</ele>
        <time>2019-09-17T14:43:45.001Z</time>
      </trkpt>
      <trkpt lat="50.61286" lon="3.24991">
        <ele>28.297</ele>
        <time>2019-09-17T14:43:48.001Z</time>
      </trkpt>
      <trkpt lat="50.61281" lon="3.2501">
        <ele>27.603</ele>
        <time>2019-09-17T14:43:51.001Z</time>
      </trkpt>
      <trkpt lat="50.61276" lon="3.2503">
        <ele>26.826</ele>
        <time>2019-09-17T14:43:54.001Z</time>
      </trkpt>
      <trkpt lat="50.61269" lon="3.25047">
        <ele>26.56</ele>
        <time>2019-09-17T14:43:57.001Z</time>
      </trkpt>
      <trkpt lat="50.61265" lon="3.25066">
        <ele>26.14</ele>
        <time>2019-09-17T14:44:00.000Z</time>
      </trkpt>
      <trkpt lat="50.61266" lon="3.25085">
        <ele>26.175</ele>
        <time>2019-09-17T14:44:03.001Z</time>
      </trkpt>
      <trkpt lat="50.61264" lon="3.25101">
        <ele>26.429</ele>
        <time>2019-09-17T14:44:06.001Z</time>
      </trkpt>
      <trkpt lat="50.61259" lon="3.25119">
        <ele>26.285</ele>
        <time>2019-09-17T14:44:09.001Z</time>
      </trkpt>
      <trkpt lat="50.61253" lon="3.25137">
        <ele>26.586</ele>
        <time>2019-09-17T14:44:12.001Z</time>
      </trkpt>
      <trkpt lat="50.61249" lon="3.25155">
        <ele>27.044</ele>
        <time>2019-09-17T14:44:15.001Z</time>
      </trkpt>
      <trkpt lat="50.61244" lon="3.25171">
        <ele>27.223</ele>
        <time>2019-09-17T14:44:18.001Z</time>
      </trkpt>
      <trkpt lat="50.6124" lon="3.25189">
        <ele>27.409</ele>
        <time>2019-09-17T14:44:21.001Z</time>
      </trkpt>
      <trkpt lat="50.61236" lon="3.25205">
        <ele>27.713</ele>
        <time>2019-09-17T14:44:24.001Z</time>
      </trkpt>
      <trkpt lat="50.61231" lon="3.25223">
        <ele>28.068</ele>
        <time>2019-09-17T14:44:27.001Z</time>
      </trkpt>
      <trkpt lat="50.61226" lon="3.25241">
        <ele>28.669</ele>
        <time>2019-09-17T14:44:30.001Z</time>
      </trkpt>
      <trkpt lat="50.61221" lon="3.25257">
        <ele>29.035</ele>
        <time>2019-09-17T14:44:33.001Z</time>
      </trkpt>
      <trkpt lat="50.61215" lon="3.25274">
        <ele>28.374</ele>
        <time>2019-09-17T14:44:36.001Z</time>
      </trkpt>
      <trkpt lat="50.6121" lon="3.25291">
        <ele>28.494</ele>
        <time>2019-09-17T14:44:39.001Z</time>
      </trkpt>
      <trkpt lat="50.61204" lon="3.25309">
        <ele>28.865</ele>
        <time>2019-09-17T14:44:42.001Z</time>
      </trkpt>
      <trkpt lat="50.61199" lon="3.25326">
        <ele>28.806</ele>
        <time>2019-09-17T14:44:45.001Z</time>
      </trkpt>
      <trkpt lat="50.61194" lon="3.25343">
        <ele>29.006</ele>
        <time>2019-09-17T14:44:48.001Z</time>
      </trkpt>
      <trkpt lat="50.61188" lon="3.2536">
        <ele>29.293</ele>
        <time>2019-09-17T14:44:51.001Z</time>
      </trkpt>
      <trkpt lat="50.61183" lon="3.25376">
        <ele>29.825</ele>
        <time>2019-09-17T14:44:54.001Z</time>
      </trkpt>
      <trkpt lat="50.61177" lon="3.25393">
        <ele>30.132</ele>
        <time>2019-09-17T14:44:57.001Z</time>
      </trkpt>
      <trkpt lat="50.61172" lon="3.25412">
        <ele>30.443</ele>
        <time>2019-09-17T14:45:00.000Z</time>
      </trkpt>
      <trkpt lat="50.61168" lon="3.25433">
        <ele>31.011</ele>
        <time>2019-09-17T14:45:03.001Z</time>
      </trkpt>
      <trkpt lat="50.61165" lon="3.25453">
        <ele>31.456</ele>
        <time>2019-09-17T14:45:06.001Z</time>
      </trkpt>
      <trkpt lat="50.61163" lon="3.25474">
        <ele>31.357</ele>
        <time>2019-09-17T14:45:09.001Z</time>
      </trkpt>
      <trkpt lat="50.61161" lon="3.25496">
        <ele>31.405</ele>
        <time>2019-09-17T14:45:12.001Z</time>
      </trkpt>
      <trkpt lat="50.61159" lon="3.25517">
        <ele>31.211</ele>
        <time>2019-09-17T14:45:15.001Z</time>
      </trkpt>
      <trkpt lat="50.61154" lon="3.25538">
        <ele>30.762</ele>
        <time>2019-09-17T14:45:18.001Z</time>
      </trkpt>
      <trkpt lat="50.61148" lon="3.25556">
        <ele>30.456</ele>
        <time>2019-09-17T14:45:21.001Z</time>
      </trkpt>
      <trkpt lat="50.61141" lon="3.25572">
        <ele>30.011</ele>
        <time>2019-09-17T14:45:24.001Z</time>
      </trkpt>
      <trkpt lat="50.61133" lon="3.25588">
        <ele>29.068</ele>
        <time>2019-09-17T14:45:27.001Z</time>
      </trkpt>
      <trkpt lat="50.61125" lon="3.256">
        <ele>29.167</ele>
        <time>2019-09-17T14:45:30.001Z</time>
      </trkpt>
      <trkpt lat="50.61116" lon="3.25611">
        <ele>29.487</ele>
        <time>2019-09-17T14:45:33.001Z</time>
      </trkpt>
      <trkpt lat="50.61106" lon="3.2562">
        <ele>29.535</ele>
        <time>2019-09-17T14:45:36.001Z</time>
      </trkpt>
      <trkpt lat="50.61091" lon="3.25618">
        <ele>30.226</ele>
        <time>2019-09-17T14:45:39.001Z</time>
      </trkpt>
      <trkpt lat="50.61079" lon="3.2561">
        <ele>30.396</ele>
        <time>2019-09-17T14:45:42.001Z</time>
      </trkpt>
      <trkpt lat="50.61068" lon="3.25597">
        <ele>30.45</ele>
        <time>2019-09-17T14:45:45.001Z</time>
      </trkpt>
      <trkpt lat="50.6106" lon="3.25583">
        <ele>30.449</ele>
        <time>2019-09-17T14:45:48.001Z</time>
      </trkpt>
      <trkpt lat="50.61052" lon="3.25569">
        <ele>30.897</ele>
        <time>2019-09-17T14:45:51.001Z</time>
      </trkpt>
      <trkpt lat="50.61042" lon="3.25554">
        <ele>31.861</ele>
        <time>2019-09-17T14:45:54.001Z</time>
      </trkpt>
      <trkpt lat="50.61032" lon="3.2554">
        <ele>32.218</ele>
        <time>2019-09-17T14:45:57.001Z</time>
      </trkpt>
      <trkpt lat="50.6102" lon="3.25531">
        <ele>32.438</ele>
        <time>2019-09-17T14:46:00.000Z</time>
      </trkpt>
      <trkpt lat="50.61007" lon="3.25524">
        <ele>33.35</ele>
        <time>2019-09-17T14:46:03.001Z</time>
      </trkpt>
      <trkpt lat="50.60995" lon="3.25515">
        <ele>34.463</ele>
        <time>2019-09-17T14:46:06.001Z</time>
      </trkpt>
      <trkpt lat="50.60984" lon="3.25503">
        <ele>35.097</ele>
        <time>2019-09-17T14:46:09.001Z</time>
      </trkpt>
      <trkpt lat="50.60973" lon="3.25491">
        <ele>35.707</ele>
        <time>2019-09-17T14:46:12.001Z</time>
      </trkpt>
      <trkpt lat="50.60961" lon="3.25476">
        <ele>36.082</ele>
        <time>2019-09-17T14:46:15.001Z</time>
      </trkpt>
      <trkpt lat="50.60951" lon="3.25464">
        <ele>36.888</ele>
        <time>2019-09-17T14:46:18.001Z</time>
      </trkpt>
      <trkpt lat="50.6094" lon="3.25453">
        <ele>37.028</ele>
        <time>2019-09-17T14:46:21.001Z</time>
      </trkpt>
      <trkpt lat="50.6093" lon="3.25443">
        <ele>37.265</ele>
        <time>2019-09-17T14:46:24.001Z</time>
      </trkpt>
      <trkpt lat="50.60918" lon="3.25433">
        <ele>36.977</ele>
        <time>2019-09-17T14:46:27.001Z</time>
      </trkpt>
      <trkpt lat="50.60909" lon="3.25427">
        <ele>37.117</ele>
        <time>2019-09-17T14:46:30.001Z</time>
      </trkpt>
      <trkpt lat="50.60898" lon="3.25422">
        <ele>37.282</ele>
        <time>2019-09-17T14:46:33.001Z</time>
      </trkpt>
      <trkpt lat="50.60887" lon="3.25416">
        <ele>36.886</ele>
        <time>2019-09-17T14:46:36.001Z</time>
      </trkpt>
      <trkpt lat="50.60877" lon="3.25408">
        <ele>35.873</ele>
        <time>2019-09-17T14:46:39.001Z</time>
      </trkpt>
      <trkpt lat="50.60869" lon="3.25399">
        <ele>36.403</ele>
        <time>2019-09-17T14:46:42.001Z</time>
      </trkpt>
      <trkpt lat="50.6086" lon="3.25391">
        <ele>37.21</ele>
        <time>2019-09-17T14:46:45.001Z</time>
      </trkpt>
      <trkpt lat="50.60853" lon="3.25385">
        <ele>38.441</ele>
        <time>2019-09-17T14:46:48.001Z</time>
      </trkpt>
      <trkpt lat="50.60848" lon="3.25379">
        <ele>38.483</ele>
        <time>2019-09-17T14:46:51.001Z</time>
      </trkpt>
      <trkpt lat="50.60848" lon="3.25379">
        <ele>38.483</ele>
        <time>2019-09-17T14:47:51.001Z</time>
      </trkpt>
      <trkpt lat="50.60848" lon="3.2538">
        <ele>38.389</ele>
        <time>2019-09-17T14:47:54.001Z</time>
      </trkpt>
      <trkpt lat="50.60848" lon="3.25379">
        <ele>38.337</ele>
        <time>2019-09-17T14:47:57.001Z</time>
      </trkpt>
      <trkpt lat="50.60848" lon="3.25379">
        <ele>38.337</ele>
        <time>2019-09-17T14:50:27.001Z</time>
      </trkpt>
      <trkpt lat="50.60847" lon="3.2538">
        <ele>38.43</ele>
        <time>2019-09-17T14:50:30.001Z</time>
      </trkpt>
      <trkpt lat="50.60836" lon="3.25374">
        <ele>38.351</ele>
        <time>2019-09-17T14:50:36.001Z</time>
      </trkpt>
      <trkpt lat="50.6083" lon="3.25366">
        <ele>38.323</ele>
        <time>2019-09-17T14:50:42.001Z</time>
      </trkpt>
      <trkpt lat="50.60828" lon="3.25362">
        <ele>38.449</ele>
        <time>2019-09-17T14:50:45.001Z</time>
      </trkpt>
      <trkpt lat="50.60826" lon="3.2536">
        <ele>39.256</ele>
        <time>2019-09-17T14:50:48.001Z</time>
      </trkpt>
      <trkpt lat="50.60826" lon="3.2536">
        <ele>39.256</ele>
        <time>2019-09-17T14:51:27.001Z</time>
      </trkpt>
      <trkpt lat="50.60826" lon="3.2536">
        <ele>38.92</ele>
        <time>2019-09-17T14:51:30.001Z</time>
      </trkpt>
      <trkpt lat="50.60825" lon="3.25359">
        <ele>38.336</ele>
        <time>2019-09-17T14:51:33.001Z</time>
      </trkpt>
      <trkpt lat="50.60823" lon="3.25357">
        <ele>36.345</ele>
        <time>2019-09-17T14:51:42.001Z</time>
      </trkpt>
      <trkpt lat="50.60821" lon="3.25361">
        <ele>36.882</ele>
        <time>2019-09-17T14:51:45.001Z</time>
      </trkpt>
      <trkpt lat="50.60819" lon="3.25364">
        <ele>37.1</ele>
        <time>2019-09-17T14:51:48.001Z</time>
      </trkpt>
      <trkpt lat="50.60818" lon="3.25366">
        <ele>37.337</ele>
        <time>2019-09-17T14:51:51.001Z</time>
      </trkpt>
      <trkpt lat="50.60818" lon="3.25366">
        <ele>37.337</ele>
        <time>2019-09-17T14:52:03.001Z</time>
      </trkpt>
      <trkpt lat="50.60817" lon="3.25365">
        <ele>37.805</ele>
        <time>2019-09-17T14:52:06.001Z</time>
      </trkpt>
      <trkpt lat="50.60816" lon="3.25365">
        <ele>38.369</ele>
        <time>2019-09-17T14:52:09.001Z</time>
      </trkpt>
      <trkpt lat="50.60816" lon="3.25365">
        <ele>38.369</ele>
        <time>2019-09-17T14:52:18.001Z</time>
      </trkpt>
      <trkpt lat="50.60816" lon="3.25366">
        <ele>38.288</ele>
        <time>2019-09-17T14:52:21.001Z</time>
      </trkpt>
      <trkpt lat="50.60812" lon="3.25364">
        <ele>35.941</ele>
        <time>2019-09-17T14:52:27.001Z</time>
      </trkpt>
      <trkpt lat="50.60812" lon="3.25363">
        <ele>35.603</ele>
        <time>2019-09-17T14:52:30.001Z</time>
      </trkpt>
      <trkpt lat="50.60812" lon="3.25363">
        <ele>35.603</ele>
        <time>2019-09-17T14:53:18.001Z</time>
      </trkpt>
      <trkpt lat="50.6081" lon="3.25363">
        <ele>35.669</ele>
        <time>2019-09-17T14:53:21.001Z</time>
      </trkpt>
      <trkpt lat="50.6081" lon="3.25363">
        <ele>35.669</ele>
        <time>2019-09-17T14:53:24.001Z</time>
      </trkpt>
      <trkpt lat="50.6081" lon="3.25363">
        <ele>35.669</ele>
        <time>2019-09-17T14:53:27.001Z</time>
      </trkpt>
      <trkpt lat="50.60811" lon="3.25364">
        <ele>35.969</ele>
        <time>2019-09-17T14:53:30.001Z</time>
      </trkpt>
      <trkpt lat="50.60812" lon="3.25366">
        <ele>36.394</ele>
        <time>2019-09-17T14:53:33.001Z</time>
      </trkpt>
      <trkpt lat="50.60812" lon="3.25367">
        <ele>36.64</ele>
        <time>2019-09-17T14:53:36.001Z</time>
      </trkpt>
      <trkpt lat="50.60812" lon="3.25367">
        <ele>36.64</ele>
        <time>2019-09-17T14:54:03.001Z</time>
      </trkpt>
      <trkpt lat="50.60812" lon="3.25369">
        <ele>36.59</ele>
        <time>2019-09-17T14:54:06.001Z</time>
      </trkpt>
      <trkpt lat="50.60812" lon="3.25369">
        <ele>36.59</ele>
        <time>2019-09-17T14:54:09.001Z</time>
      </trkpt>
      <trkpt lat="50.60812" lon="3.25369">
        <ele>36.59</ele>
        <time>2019-09-17T14:54:15.001Z</time>
      </trkpt>
      <trkpt lat="50.60811" lon="3.25365">
        <ele>35.427</ele>
        <time>2019-09-17T14:54:18.001Z</time>
      </trkpt>
      <trkpt lat="50.60811" lon="3.25363">
        <ele>35.287</ele>
        <time>2019-09-17T14:54:21.001Z</time>
      </trkpt>
      <trkpt lat="50.60811" lon="3.25363">
        <ele>35.287</ele>
        <time>2019-09-17T14:54:30.001Z</time>
      </trkpt>
      <trkpt lat="50.60811" lon="3.25367">
        <ele>34.837</ele>
        <time>2019-09-17T14:54:33.001Z</time>
      </trkpt>
      <trkpt lat="50.6081" lon="3.25371">
        <ele>34.647</ele>
        <time>2019-09-17T14:54:39.001Z</time>
      </trkpt>
      <trkpt lat="50.60809" lon="3.25371">
        <ele>35.223</ele>
        <time>2019-09-17T14:54:42.001Z</time>
      </trkpt>
    </trkseg>
  </trk>
</gpx>